<?xml version="1.0" encoding="UTF-8" standalone="no" ?>
<gpx xmlns="http://www.topografix.com/GPX/1/1" xmlns:xsi="http://www.w3.org/2001/XMLSchema-instance" xsi:schemaLocation="http://www.topografix.com/GPX/1/1 http://www.topografix.com/GPX/1/1/gpx.xsd" version="1.1" creator="VisuGPX - https://www.visugpx.com">
  <metadata>
    <name>Artigue, refuge du Pinet, Estats, Verdaguer, Montcalm, tables du Montcalm, Artigue</name>
    <desc><![CDATA[description à venir]]></desc>
  </metadata>
  <trk>
    <name><![CDATA[06-JUIL-13 12:52:09-split-split-split]]></name>
    <trkseg>
      <trkpt lat="42.71026" lon="1.42556">
        <ele>1122</ele>
        <time>2013-07-06T07:47:14Z</time>
      </trkpt>
      <trkpt lat="42.71028" lon="1.42557">
        <ele>1123</ele>
        <time>2013-07-06T07:47:20Z</time>
      </trkpt>
      <trkpt lat="42.71033" lon="1.42559">
        <ele>1125</ele>
        <time>2013-07-06T07:47:28Z</time>
      </trkpt>
      <trkpt lat="42.71039" lon="1.42548">
        <ele>1126</ele>
        <time>2013-07-06T07:47:35Z</time>
      </trkpt>
      <trkpt lat="42.71038" lon="1.42537">
        <ele>1128</ele>
        <time>2013-07-06T07:47:45Z</time>
      </trkpt>
      <trkpt lat="42.71038" lon="1.42533">
        <ele>1130</ele>
        <time>2013-07-06T07:47:48Z</time>
      </trkpt>
      <trkpt lat="42.71039" lon="1.42529">
        <ele>1131</ele>
        <time>2013-07-06T07:47:58Z</time>
      </trkpt>
      <trkpt lat="42.7104" lon="1.42532">
        <ele>1132</ele>
        <time>2013-07-06T07:48:02Z</time>
      </trkpt>
      <trkpt lat="42.71042" lon="1.42524">
        <ele>1133</ele>
        <time>2013-07-06T07:48:09Z</time>
      </trkpt>
      <trkpt lat="42.7104" lon="1.42511">
        <ele>1134</ele>
        <time>2013-07-06T07:48:16Z</time>
      </trkpt>
      <trkpt lat="42.71036" lon="1.42497">
        <ele>1135</ele>
        <time>2013-07-06T07:48:25Z</time>
      </trkpt>
      <trkpt lat="42.71033" lon="1.42488">
        <ele>1135</ele>
        <time>2013-07-06T07:48:33Z</time>
      </trkpt>
      <trkpt lat="42.71028" lon="1.4248">
        <ele>1135</ele>
        <time>2013-07-06T07:48:42Z</time>
      </trkpt>
      <trkpt lat="42.71028" lon="1.42479">
        <ele>1135</ele>
        <time>2013-07-06T07:48:50Z</time>
      </trkpt>
      <trkpt lat="42.71023" lon="1.42479">
        <ele>1135</ele>
        <time>2013-07-06T07:49:03Z</time>
      </trkpt>
      <trkpt lat="42.71015" lon="1.42485">
        <ele>1136</ele>
        <time>2013-07-06T07:49:12Z</time>
      </trkpt>
      <trkpt lat="42.71018" lon="1.4247">
        <ele>1135</ele>
        <time>2013-07-06T07:49:21Z</time>
      </trkpt>
      <trkpt lat="42.71015" lon="1.42467">
        <ele>1136</ele>
        <time>2013-07-06T07:49:30Z</time>
      </trkpt>
      <trkpt lat="42.71014" lon="1.42463">
        <ele>1136</ele>
        <time>2013-07-06T07:49:38Z</time>
      </trkpt>
      <trkpt lat="42.71011" lon="1.4245">
        <ele>1135</ele>
        <time>2013-07-06T07:49:46Z</time>
      </trkpt>
      <trkpt lat="42.71008" lon="1.42433">
        <ele>1135</ele>
        <time>2013-07-06T07:49:56Z</time>
      </trkpt>
      <trkpt lat="42.71005" lon="1.42419">
        <ele>1136</ele>
        <time>2013-07-06T07:50:06Z</time>
      </trkpt>
      <trkpt lat="42.71" lon="1.42402">
        <ele>1136</ele>
        <time>2013-07-06T07:50:18Z</time>
      </trkpt>
      <trkpt lat="42.70992" lon="1.42391">
        <ele>1136</ele>
        <time>2013-07-06T07:50:27Z</time>
      </trkpt>
      <trkpt lat="42.70991" lon="1.42382">
        <ele>1137</ele>
        <time>2013-07-06T07:50:34Z</time>
      </trkpt>
      <trkpt lat="42.7099" lon="1.42379">
        <ele>1136</ele>
        <time>2013-07-06T07:50:36Z</time>
      </trkpt>
      <trkpt lat="42.70987" lon="1.42367">
        <ele>1137</ele>
        <time>2013-07-06T07:50:45Z</time>
      </trkpt>
      <trkpt lat="42.70987" lon="1.42357">
        <ele>1137</ele>
        <time>2013-07-06T07:50:52Z</time>
      </trkpt>
      <trkpt lat="42.70982" lon="1.42343">
        <ele>1137</ele>
        <time>2013-07-06T07:51:01Z</time>
      </trkpt>
      <trkpt lat="42.70975" lon="1.4233">
        <ele>1137</ele>
        <time>2013-07-06T07:51:12Z</time>
      </trkpt>
      <trkpt lat="42.70969" lon="1.42317">
        <ele>1138</ele>
        <time>2013-07-06T07:51:21Z</time>
      </trkpt>
      <trkpt lat="42.70967" lon="1.423">
        <ele>1138</ele>
        <time>2013-07-06T07:51:32Z</time>
      </trkpt>
      <trkpt lat="42.70966" lon="1.42285">
        <ele>1138</ele>
        <time>2013-07-06T07:51:41Z</time>
      </trkpt>
      <trkpt lat="42.70966" lon="1.42273">
        <ele>1139</ele>
        <time>2013-07-06T07:51:49Z</time>
      </trkpt>
      <trkpt lat="42.70965" lon="1.4226">
        <ele>1140</ele>
        <time>2013-07-06T07:51:59Z</time>
      </trkpt>
      <trkpt lat="42.70962" lon="1.42243">
        <ele>1139</ele>
        <time>2013-07-06T07:52:08Z</time>
      </trkpt>
      <trkpt lat="42.7096" lon="1.42231">
        <ele>1140</ele>
        <time>2013-07-06T07:52:16Z</time>
      </trkpt>
      <trkpt lat="42.7096" lon="1.42224">
        <ele>1139</ele>
        <time>2013-07-06T07:52:20Z</time>
      </trkpt>
      <trkpt lat="42.70958" lon="1.42209">
        <ele>1139</ele>
        <time>2013-07-06T07:52:30Z</time>
      </trkpt>
      <trkpt lat="42.70961" lon="1.42192">
        <ele>1140</ele>
        <time>2013-07-06T07:52:41Z</time>
      </trkpt>
      <trkpt lat="42.70954" lon="1.42172">
        <ele>1141</ele>
        <time>2013-07-06T07:52:52Z</time>
      </trkpt>
      <trkpt lat="42.70952" lon="1.42161">
        <ele>1141</ele>
        <time>2013-07-06T07:53:00Z</time>
      </trkpt>
      <trkpt lat="42.70949" lon="1.42151">
        <ele>1143</ele>
        <time>2013-07-06T07:53:10Z</time>
      </trkpt>
      <trkpt lat="42.70945" lon="1.42144">
        <ele>1144</ele>
        <time>2013-07-06T07:53:21Z</time>
      </trkpt>
      <trkpt lat="42.70943" lon="1.42135">
        <ele>1147</ele>
        <time>2013-07-06T07:53:30Z</time>
      </trkpt>
      <trkpt lat="42.70943" lon="1.42126">
        <ele>1148</ele>
        <time>2013-07-06T07:53:40Z</time>
      </trkpt>
      <trkpt lat="42.70939" lon="1.42115">
        <ele>1151</ele>
        <time>2013-07-06T07:53:50Z</time>
      </trkpt>
      <trkpt lat="42.70939" lon="1.42098">
        <ele>1154</ele>
        <time>2013-07-06T07:54:02Z</time>
      </trkpt>
      <trkpt lat="42.70936" lon="1.42093">
        <ele>1157</ele>
        <time>2013-07-06T07:54:14Z</time>
      </trkpt>
      <trkpt lat="42.70939" lon="1.4208">
        <ele>1159</ele>
        <time>2013-07-06T07:54:27Z</time>
      </trkpt>
      <trkpt lat="42.70929" lon="1.42062">
        <ele>1159</ele>
        <time>2013-07-06T07:54:39Z</time>
      </trkpt>
      <trkpt lat="42.7092" lon="1.42048">
        <ele>1160</ele>
        <time>2013-07-06T07:54:50Z</time>
      </trkpt>
      <trkpt lat="42.70925" lon="1.42033">
        <ele>1161</ele>
        <time>2013-07-06T07:54:59Z</time>
      </trkpt>
      <trkpt lat="42.70927" lon="1.42019">
        <ele>1161</ele>
        <time>2013-07-06T07:55:08Z</time>
      </trkpt>
      <trkpt lat="42.70923" lon="1.42009">
        <ele>1161</ele>
        <time>2013-07-06T07:55:17Z</time>
      </trkpt>
      <trkpt lat="42.70926" lon="1.41999">
        <ele>1162</ele>
        <time>2013-07-06T07:55:27Z</time>
      </trkpt>
      <trkpt lat="42.70928" lon="1.41987">
        <ele>1164</ele>
        <time>2013-07-06T07:55:37Z</time>
      </trkpt>
      <trkpt lat="42.70931" lon="1.41974">
        <ele>1166</ele>
        <time>2013-07-06T07:55:47Z</time>
      </trkpt>
      <trkpt lat="42.70934" lon="1.41962">
        <ele>1167</ele>
        <time>2013-07-06T07:55:56Z</time>
      </trkpt>
      <trkpt lat="42.70941" lon="1.41948">
        <ele>1170</ele>
        <time>2013-07-06T07:56:08Z</time>
      </trkpt>
      <trkpt lat="42.70942" lon="1.41932">
        <ele>1171</ele>
        <time>2013-07-06T07:56:18Z</time>
      </trkpt>
      <trkpt lat="42.70943" lon="1.41926">
        <ele>1171</ele>
        <time>2013-07-06T07:56:22Z</time>
      </trkpt>
      <trkpt lat="42.70945" lon="1.41918">
        <ele>1171</ele>
        <time>2013-07-06T07:56:30Z</time>
      </trkpt>
      <trkpt lat="42.70944" lon="1.41919">
        <ele>1171</ele>
        <time>2013-07-06T07:56:45Z</time>
      </trkpt>
      <trkpt lat="42.70948" lon="1.41909">
        <ele>1172</ele>
        <time>2013-07-06T07:56:55Z</time>
      </trkpt>
      <trkpt lat="42.70947" lon="1.41897">
        <ele>1171</ele>
        <time>2013-07-06T07:57:04Z</time>
      </trkpt>
      <trkpt lat="42.70943" lon="1.41886">
        <ele>1169</ele>
        <time>2013-07-06T07:57:11Z</time>
      </trkpt>
      <trkpt lat="42.70936" lon="1.41877">
        <ele>1167</ele>
        <time>2013-07-06T07:57:18Z</time>
      </trkpt>
      <trkpt lat="42.70929" lon="1.41865">
        <ele>1168</ele>
        <time>2013-07-06T07:57:26Z</time>
      </trkpt>
      <trkpt lat="42.7093" lon="1.41856">
        <ele>1168</ele>
        <time>2013-07-06T07:57:32Z</time>
      </trkpt>
      <trkpt lat="42.7093" lon="1.41846">
        <ele>1170</ele>
        <time>2013-07-06T07:57:41Z</time>
      </trkpt>
      <trkpt lat="42.70927" lon="1.41844">
        <ele>1170</ele>
        <time>2013-07-06T07:57:50Z</time>
      </trkpt>
      <trkpt lat="42.7093" lon="1.41842">
        <ele>1171</ele>
        <time>2013-07-06T07:57:58Z</time>
      </trkpt>
      <trkpt lat="42.70931" lon="1.41838">
        <ele>1171</ele>
        <time>2013-07-06T07:58:05Z</time>
      </trkpt>
      <trkpt lat="42.7093" lon="1.41833">
        <ele>1172</ele>
        <time>2013-07-06T07:58:10Z</time>
      </trkpt>
      <trkpt lat="42.70928" lon="1.41823">
        <ele>1172</ele>
        <time>2013-07-06T07:58:17Z</time>
      </trkpt>
      <trkpt lat="42.70928" lon="1.41819">
        <ele>1172</ele>
        <time>2013-07-06T07:58:20Z</time>
      </trkpt>
      <trkpt lat="42.70926" lon="1.41808">
        <ele>1173</ele>
        <time>2013-07-06T07:58:29Z</time>
      </trkpt>
      <trkpt lat="42.70926" lon="1.41801">
        <ele>1173</ele>
        <time>2013-07-06T07:58:36Z</time>
      </trkpt>
      <trkpt lat="42.7093" lon="1.41791">
        <ele>1174</ele>
        <time>2013-07-06T07:58:43Z</time>
      </trkpt>
      <trkpt lat="42.70925" lon="1.41781">
        <ele>1175</ele>
        <time>2013-07-06T07:58:51Z</time>
      </trkpt>
      <trkpt lat="42.70925" lon="1.41773">
        <ele>1176</ele>
        <time>2013-07-06T07:58:57Z</time>
      </trkpt>
      <trkpt lat="42.70916" lon="1.41763">
        <ele>1176</ele>
        <time>2013-07-06T07:59:04Z</time>
      </trkpt>
      <trkpt lat="42.70913" lon="1.41758">
        <ele>1177</ele>
        <time>2013-07-06T07:59:11Z</time>
      </trkpt>
      <trkpt lat="42.70915" lon="1.41745">
        <ele>1178</ele>
        <time>2013-07-06T07:59:18Z</time>
      </trkpt>
      <trkpt lat="42.7091" lon="1.41735">
        <ele>1178</ele>
        <time>2013-07-06T07:59:26Z</time>
      </trkpt>
      <trkpt lat="42.70906" lon="1.41723">
        <ele>1180</ele>
        <time>2013-07-06T07:59:35Z</time>
      </trkpt>
      <trkpt lat="42.70904" lon="1.41716">
        <ele>1181</ele>
        <time>2013-07-06T07:59:42Z</time>
      </trkpt>
      <trkpt lat="42.70905" lon="1.41707">
        <ele>1182</ele>
        <time>2013-07-06T07:59:51Z</time>
      </trkpt>
      <trkpt lat="42.70904" lon="1.41702">
        <ele>1183</ele>
        <time>2013-07-06T07:59:59Z</time>
      </trkpt>
      <trkpt lat="42.70904" lon="1.41689">
        <ele>1184</ele>
        <time>2013-07-06T08:00:08Z</time>
      </trkpt>
      <trkpt lat="42.709" lon="1.4168">
        <ele>1186</ele>
        <time>2013-07-06T08:00:15Z</time>
      </trkpt>
      <trkpt lat="42.70902" lon="1.41672">
        <ele>1187</ele>
        <time>2013-07-06T08:00:22Z</time>
      </trkpt>
      <trkpt lat="42.70903" lon="1.4167">
        <ele>1187</ele>
        <time>2013-07-06T08:00:27Z</time>
      </trkpt>
      <trkpt lat="42.70897" lon="1.41658">
        <ele>1187</ele>
        <time>2013-07-06T08:00:36Z</time>
      </trkpt>
      <trkpt lat="42.70895" lon="1.4165">
        <ele>1188</ele>
        <time>2013-07-06T08:00:43Z</time>
      </trkpt>
      <trkpt lat="42.70893" lon="1.41642">
        <ele>1189</ele>
        <time>2013-07-06T08:00:50Z</time>
      </trkpt>
      <trkpt lat="42.70894" lon="1.41631">
        <ele>1190</ele>
        <time>2013-07-06T08:00:58Z</time>
      </trkpt>
      <trkpt lat="42.70891" lon="1.4162">
        <ele>1192</ele>
        <time>2013-07-06T08:01:06Z</time>
      </trkpt>
      <trkpt lat="42.70891" lon="1.4161">
        <ele>1192</ele>
        <time>2013-07-06T08:01:13Z</time>
      </trkpt>
      <trkpt lat="42.70894" lon="1.41601">
        <ele>1193</ele>
        <time>2013-07-06T08:01:20Z</time>
      </trkpt>
      <trkpt lat="42.70892" lon="1.4159">
        <ele>1194</ele>
        <time>2013-07-06T08:01:28Z</time>
      </trkpt>
      <trkpt lat="42.70889" lon="1.4158">
        <ele>1196</ele>
        <time>2013-07-06T08:01:37Z</time>
      </trkpt>
      <trkpt lat="42.7089" lon="1.4157">
        <ele>1197</ele>
        <time>2013-07-06T08:01:44Z</time>
      </trkpt>
      <trkpt lat="42.70888" lon="1.41562">
        <ele>1198</ele>
        <time>2013-07-06T08:01:53Z</time>
      </trkpt>
      <trkpt lat="42.70888" lon="1.41562">
        <ele>1199</ele>
        <time>2013-07-06T08:02:03Z</time>
      </trkpt>
      <trkpt lat="42.7089" lon="1.41551">
        <ele>1200</ele>
        <time>2013-07-06T08:02:12Z</time>
      </trkpt>
      <trkpt lat="42.70893" lon="1.41546">
        <ele>1201</ele>
        <time>2013-07-06T08:02:19Z</time>
      </trkpt>
      <trkpt lat="42.70894" lon="1.41539">
        <ele>1203</ele>
        <time>2013-07-06T08:02:26Z</time>
      </trkpt>
      <trkpt lat="42.70896" lon="1.41532">
        <ele>1206</ele>
        <time>2013-07-06T08:02:34Z</time>
      </trkpt>
      <trkpt lat="42.70892" lon="1.41531">
        <ele>1206</ele>
        <time>2013-07-06T08:02:40Z</time>
      </trkpt>
      <trkpt lat="42.70887" lon="1.41529">
        <ele>1208</ele>
        <time>2013-07-06T08:02:46Z</time>
      </trkpt>
      <trkpt lat="42.70886" lon="1.41529">
        <ele>1209</ele>
        <time>2013-07-06T08:02:50Z</time>
      </trkpt>
      <trkpt lat="42.70882" lon="1.41529">
        <ele>1211</ele>
        <time>2013-07-06T08:02:58Z</time>
      </trkpt>
      <trkpt lat="42.70875" lon="1.41525">
        <ele>1212</ele>
        <time>2013-07-06T08:03:06Z</time>
      </trkpt>
      <trkpt lat="42.70872" lon="1.41528">
        <ele>1213</ele>
        <time>2013-07-06T08:03:14Z</time>
      </trkpt>
      <trkpt lat="42.70866" lon="1.41531">
        <ele>1214</ele>
        <time>2013-07-06T08:03:24Z</time>
      </trkpt>
      <trkpt lat="42.70864" lon="1.41528">
        <ele>1214</ele>
        <time>2013-07-06T08:03:31Z</time>
      </trkpt>
      <trkpt lat="42.70859" lon="1.41531">
        <ele>1215</ele>
        <time>2013-07-06T08:03:37Z</time>
      </trkpt>
      <trkpt lat="42.70855" lon="1.41536">
        <ele>1217</ele>
        <time>2013-07-06T08:03:44Z</time>
      </trkpt>
      <trkpt lat="42.70851" lon="1.41538">
        <ele>1219</ele>
        <time>2013-07-06T08:03:51Z</time>
      </trkpt>
      <trkpt lat="42.70853" lon="1.41534">
        <ele>1219</ele>
        <time>2013-07-06T08:03:58Z</time>
      </trkpt>
      <trkpt lat="42.70857" lon="1.41533">
        <ele>1219</ele>
        <time>2013-07-06T08:04:15Z</time>
      </trkpt>
      <trkpt lat="42.70858" lon="1.41532">
        <ele>1220</ele>
        <time>2013-07-06T08:04:34Z</time>
      </trkpt>
      <trkpt lat="42.70857" lon="1.41532">
        <ele>1219</ele>
        <time>2013-07-06T08:04:47Z</time>
      </trkpt>
      <trkpt lat="42.70852" lon="1.41533">
        <ele>1221</ele>
        <time>2013-07-06T08:04:54Z</time>
      </trkpt>
      <trkpt lat="42.70845" lon="1.41535">
        <ele>1223</ele>
        <time>2013-07-06T08:05:01Z</time>
      </trkpt>
      <trkpt lat="42.70841" lon="1.41531">
        <ele>1224</ele>
        <time>2013-07-06T08:05:09Z</time>
      </trkpt>
      <trkpt lat="42.70836" lon="1.41532">
        <ele>1225</ele>
        <time>2013-07-06T08:05:16Z</time>
      </trkpt>
      <trkpt lat="42.70834" lon="1.4154">
        <ele>1227</ele>
        <time>2013-07-06T08:05:23Z</time>
      </trkpt>
      <trkpt lat="42.70835" lon="1.41549">
        <ele>1229</ele>
        <time>2013-07-06T08:05:31Z</time>
      </trkpt>
      <trkpt lat="42.70834" lon="1.41556">
        <ele>1231</ele>
        <time>2013-07-06T08:05:40Z</time>
      </trkpt>
      <trkpt lat="42.7083" lon="1.41558">
        <ele>1232</ele>
        <time>2013-07-06T08:05:48Z</time>
      </trkpt>
      <trkpt lat="42.70824" lon="1.41562">
        <ele>1234</ele>
        <time>2013-07-06T08:05:59Z</time>
      </trkpt>
      <trkpt lat="42.70821" lon="1.41564">
        <ele>1236</ele>
        <time>2013-07-06T08:06:07Z</time>
      </trkpt>
      <trkpt lat="42.70819" lon="1.4156">
        <ele>1237</ele>
        <time>2013-07-06T08:06:17Z</time>
      </trkpt>
      <trkpt lat="42.70819" lon="1.41574">
        <ele>1239</ele>
        <time>2013-07-06T08:06:29Z</time>
      </trkpt>
      <trkpt lat="42.70817" lon="1.4157">
        <ele>1241</ele>
        <time>2013-07-06T08:06:37Z</time>
      </trkpt>
      <trkpt lat="42.70814" lon="1.41577">
        <ele>1243</ele>
        <time>2013-07-06T08:06:44Z</time>
      </trkpt>
      <trkpt lat="42.70811" lon="1.41574">
        <ele>1245</ele>
        <time>2013-07-06T08:06:52Z</time>
      </trkpt>
      <trkpt lat="42.70808" lon="1.41574">
        <ele>1246</ele>
        <time>2013-07-06T08:06:59Z</time>
      </trkpt>
      <trkpt lat="42.70805" lon="1.41582">
        <ele>1248</ele>
        <time>2013-07-06T08:07:07Z</time>
      </trkpt>
      <trkpt lat="42.70802" lon="1.4159">
        <ele>1250</ele>
        <time>2013-07-06T08:07:17Z</time>
      </trkpt>
      <trkpt lat="42.70801" lon="1.41598">
        <ele>1252</ele>
        <time>2013-07-06T08:07:27Z</time>
      </trkpt>
      <trkpt lat="42.70797" lon="1.41597">
        <ele>1253</ele>
        <time>2013-07-06T08:07:36Z</time>
      </trkpt>
      <trkpt lat="42.70796" lon="1.41596">
        <ele>1254</ele>
        <time>2013-07-06T08:07:43Z</time>
      </trkpt>
      <trkpt lat="42.70796" lon="1.41595">
        <ele>1255</ele>
        <time>2013-07-06T08:07:45Z</time>
      </trkpt>
      <trkpt lat="42.70796" lon="1.41599">
        <ele>1256</ele>
        <time>2013-07-06T08:07:53Z</time>
      </trkpt>
      <trkpt lat="42.70794" lon="1.41598">
        <ele>1257</ele>
        <time>2013-07-06T08:07:56Z</time>
      </trkpt>
      <trkpt lat="42.70791" lon="1.41598">
        <ele>1258</ele>
        <time>2013-07-06T08:08:04Z</time>
      </trkpt>
      <trkpt lat="42.70798" lon="1.41597">
        <ele>1258</ele>
        <time>2013-07-06T08:08:16Z</time>
      </trkpt>
      <trkpt lat="42.70793" lon="1.41597">
        <ele>1259</ele>
        <time>2013-07-06T08:08:24Z</time>
      </trkpt>
      <trkpt lat="42.70792" lon="1.41606">
        <ele>1260</ele>
        <time>2013-07-06T08:08:31Z</time>
      </trkpt>
      <trkpt lat="42.70787" lon="1.41604">
        <ele>1262</ele>
        <time>2013-07-06T08:08:39Z</time>
      </trkpt>
      <trkpt lat="42.70786" lon="1.41603">
        <ele>1263</ele>
        <time>2013-07-06T08:08:40Z</time>
      </trkpt>
      <trkpt lat="42.70784" lon="1.41602">
        <ele>1263</ele>
        <time>2013-07-06T08:08:49Z</time>
      </trkpt>
      <trkpt lat="42.7079" lon="1.41599">
        <ele>1264</ele>
        <time>2013-07-06T08:09:05Z</time>
      </trkpt>
      <trkpt lat="42.70783" lon="1.41602">
        <ele>1266</ele>
        <time>2013-07-06T08:09:15Z</time>
      </trkpt>
      <trkpt lat="42.70778" lon="1.41606">
        <ele>1269</ele>
        <time>2013-07-06T08:09:26Z</time>
      </trkpt>
      <trkpt lat="42.70769" lon="1.41615">
        <ele>1271</ele>
        <time>2013-07-06T08:09:37Z</time>
      </trkpt>
      <trkpt lat="42.70764" lon="1.41616">
        <ele>1274</ele>
        <time>2013-07-06T08:09:47Z</time>
      </trkpt>
      <trkpt lat="42.70762" lon="1.41619">
        <ele>1275</ele>
        <time>2013-07-06T08:09:53Z</time>
      </trkpt>
      <trkpt lat="42.70756" lon="1.41625">
        <ele>1277</ele>
        <time>2013-07-06T08:10:03Z</time>
      </trkpt>
      <trkpt lat="42.70758" lon="1.41624">
        <ele>1278</ele>
        <time>2013-07-06T08:10:13Z</time>
      </trkpt>
      <trkpt lat="42.70758" lon="1.41624">
        <ele>1278</ele>
        <time>2013-07-06T08:10:21Z</time>
      </trkpt>
      <trkpt lat="42.70754" lon="1.41629">
        <ele>1280</ele>
        <time>2013-07-06T08:10:28Z</time>
      </trkpt>
      <trkpt lat="42.70752" lon="1.4163">
        <ele>1281</ele>
        <time>2013-07-06T08:10:38Z</time>
      </trkpt>
      <trkpt lat="42.70745" lon="1.41633">
        <ele>1283</ele>
        <time>2013-07-06T08:10:48Z</time>
      </trkpt>
      <trkpt lat="42.70743" lon="1.41639">
        <ele>1286</ele>
        <time>2013-07-06T08:10:59Z</time>
      </trkpt>
      <trkpt lat="42.70737" lon="1.41646">
        <ele>1288</ele>
        <time>2013-07-06T08:11:10Z</time>
      </trkpt>
      <trkpt lat="42.70733" lon="1.41653">
        <ele>1290</ele>
        <time>2013-07-06T08:11:19Z</time>
      </trkpt>
      <trkpt lat="42.70733" lon="1.41656">
        <ele>1292</ele>
        <time>2013-07-06T08:11:28Z</time>
      </trkpt>
      <trkpt lat="42.70738" lon="1.41653">
        <ele>1292</ele>
        <time>2013-07-06T08:11:43Z</time>
      </trkpt>
      <trkpt lat="42.70735" lon="1.41657">
        <ele>1294</ele>
        <time>2013-07-06T08:11:58Z</time>
      </trkpt>
      <trkpt lat="42.7073" lon="1.41662">
        <ele>1297</ele>
        <time>2013-07-06T08:12:08Z</time>
      </trkpt>
      <trkpt lat="42.70724" lon="1.41669">
        <ele>1300</ele>
        <time>2013-07-06T08:12:20Z</time>
      </trkpt>
      <trkpt lat="42.7072" lon="1.41672">
        <ele>1301</ele>
        <time>2013-07-06T08:12:24Z</time>
      </trkpt>
      <trkpt lat="42.70718" lon="1.41682">
        <ele>1304</ele>
        <time>2013-07-06T08:12:33Z</time>
      </trkpt>
      <trkpt lat="42.70712" lon="1.41688">
        <ele>1306</ele>
        <time>2013-07-06T08:12:44Z</time>
      </trkpt>
      <trkpt lat="42.70709" lon="1.41695">
        <ele>1307</ele>
        <time>2013-07-06T08:12:55Z</time>
      </trkpt>
      <trkpt lat="42.70703" lon="1.417">
        <ele>1310</ele>
        <time>2013-07-06T08:13:05Z</time>
      </trkpt>
      <trkpt lat="42.70699" lon="1.41707">
        <ele>1311</ele>
        <time>2013-07-06T08:13:13Z</time>
      </trkpt>
      <trkpt lat="42.70696" lon="1.41704">
        <ele>1314</ele>
        <time>2013-07-06T08:13:22Z</time>
      </trkpt>
      <trkpt lat="42.70695" lon="1.41698">
        <ele>1316</ele>
        <time>2013-07-06T08:13:32Z</time>
      </trkpt>
      <trkpt lat="42.70698" lon="1.41699">
        <ele>1317</ele>
        <time>2013-07-06T08:13:41Z</time>
      </trkpt>
      <trkpt lat="42.70701" lon="1.41696">
        <ele>1317</ele>
        <time>2013-07-06T08:13:52Z</time>
      </trkpt>
      <trkpt lat="42.707" lon="1.41694">
        <ele>1317</ele>
        <time>2013-07-06T08:14:05Z</time>
      </trkpt>
      <trkpt lat="42.70706" lon="1.41688">
        <ele>1318</ele>
        <time>2013-07-06T08:14:16Z</time>
      </trkpt>
      <trkpt lat="42.70702" lon="1.41681">
        <ele>1319</ele>
        <time>2013-07-06T08:14:24Z</time>
      </trkpt>
      <trkpt lat="42.70697" lon="1.41674">
        <ele>1321</ele>
        <time>2013-07-06T08:14:32Z</time>
      </trkpt>
      <trkpt lat="42.707" lon="1.41668">
        <ele>1321</ele>
        <time>2013-07-06T08:14:40Z</time>
      </trkpt>
      <trkpt lat="42.707" lon="1.41657">
        <ele>1324</ele>
        <time>2013-07-06T08:14:51Z</time>
      </trkpt>
      <trkpt lat="42.70697" lon="1.41655">
        <ele>1324</ele>
        <time>2013-07-06T08:15:01Z</time>
      </trkpt>
      <trkpt lat="42.70698" lon="1.41651">
        <ele>1326</ele>
        <time>2013-07-06T08:15:10Z</time>
      </trkpt>
      <trkpt lat="42.70692" lon="1.41643">
        <ele>1327</ele>
        <time>2013-07-06T08:15:19Z</time>
      </trkpt>
      <trkpt lat="42.70686" lon="1.41635">
        <ele>1330</ele>
        <time>2013-07-06T08:15:28Z</time>
      </trkpt>
      <trkpt lat="42.70683" lon="1.41623">
        <ele>1332</ele>
        <time>2013-07-06T08:15:40Z</time>
      </trkpt>
      <trkpt lat="42.70682" lon="1.41616">
        <ele>1333</ele>
        <time>2013-07-06T08:15:49Z</time>
      </trkpt>
      <trkpt lat="42.70682" lon="1.41607">
        <ele>1334</ele>
        <time>2013-07-06T08:15:57Z</time>
      </trkpt>
      <trkpt lat="42.70684" lon="1.416">
        <ele>1336</ele>
        <time>2013-07-06T08:16:06Z</time>
      </trkpt>
      <trkpt lat="42.70683" lon="1.41592">
        <ele>1337</ele>
        <time>2013-07-06T08:16:15Z</time>
      </trkpt>
      <trkpt lat="42.70676" lon="1.41583">
        <ele>1340</ele>
        <time>2013-07-06T08:16:27Z</time>
      </trkpt>
      <trkpt lat="42.70673" lon="1.41579">
        <ele>1342</ele>
        <time>2013-07-06T08:16:39Z</time>
      </trkpt>
      <trkpt lat="42.70665" lon="1.41574">
        <ele>1343</ele>
        <time>2013-07-06T08:16:53Z</time>
      </trkpt>
      <trkpt lat="42.70665" lon="1.41569">
        <ele>1345</ele>
        <time>2013-07-06T08:17:03Z</time>
      </trkpt>
      <trkpt lat="42.70664" lon="1.41564">
        <ele>1347</ele>
        <time>2013-07-06T08:17:12Z</time>
      </trkpt>
      <trkpt lat="42.70665" lon="1.41558">
        <ele>1348</ele>
        <time>2013-07-06T08:17:20Z</time>
      </trkpt>
      <trkpt lat="42.70666" lon="1.41548">
        <ele>1350</ele>
        <time>2013-07-06T08:17:30Z</time>
      </trkpt>
      <trkpt lat="42.70664" lon="1.41543">
        <ele>1352</ele>
        <time>2013-07-06T08:17:39Z</time>
      </trkpt>
      <trkpt lat="42.70662" lon="1.4154">
        <ele>1353</ele>
        <time>2013-07-06T08:17:45Z</time>
      </trkpt>
      <trkpt lat="42.70662" lon="1.41539">
        <ele>1354</ele>
        <time>2013-07-06T08:17:53Z</time>
      </trkpt>
      <trkpt lat="42.70657" lon="1.41534">
        <ele>1356</ele>
        <time>2013-07-06T08:18:03Z</time>
      </trkpt>
      <trkpt lat="42.70658" lon="1.41533">
        <ele>1358</ele>
        <time>2013-07-06T08:18:11Z</time>
      </trkpt>
      <trkpt lat="42.7066" lon="1.41527">
        <ele>1359</ele>
        <time>2013-07-06T08:18:20Z</time>
      </trkpt>
      <trkpt lat="42.70659" lon="1.41524">
        <ele>1361</ele>
        <time>2013-07-06T08:18:29Z</time>
      </trkpt>
      <trkpt lat="42.7066" lon="1.4152">
        <ele>1361</ele>
        <time>2013-07-06T08:18:43Z</time>
      </trkpt>
      <trkpt lat="42.70662" lon="1.41519">
        <ele>1363</ele>
        <time>2013-07-06T08:18:51Z</time>
      </trkpt>
      <trkpt lat="42.70665" lon="1.41517">
        <ele>1365</ele>
        <time>2013-07-06T08:19:00Z</time>
      </trkpt>
      <trkpt lat="42.70669" lon="1.41521">
        <ele>1365</ele>
        <time>2013-07-06T08:19:05Z</time>
      </trkpt>
      <trkpt lat="42.70677" lon="1.41517">
        <ele>1365</ele>
        <time>2013-07-06T08:19:13Z</time>
      </trkpt>
      <trkpt lat="42.70676" lon="1.41504">
        <ele>1365</ele>
        <time>2013-07-06T08:19:21Z</time>
      </trkpt>
      <trkpt lat="42.70678" lon="1.41498">
        <ele>1364</ele>
        <time>2013-07-06T08:19:28Z</time>
      </trkpt>
      <trkpt lat="42.70676" lon="1.41494">
        <ele>1365</ele>
        <time>2013-07-06T08:19:35Z</time>
      </trkpt>
      <trkpt lat="42.70676" lon="1.4149">
        <ele>1365</ele>
        <time>2013-07-06T08:19:47Z</time>
      </trkpt>
      <trkpt lat="42.70676" lon="1.41488">
        <ele>1366</ele>
        <time>2013-07-06T08:20:07Z</time>
      </trkpt>
      <trkpt lat="42.70675" lon="1.41491">
        <ele>1365</ele>
        <time>2013-07-06T08:20:21Z</time>
      </trkpt>
      <trkpt lat="42.70674" lon="1.41492">
        <ele>1365</ele>
        <time>2013-07-06T08:20:38Z</time>
      </trkpt>
      <trkpt lat="42.70675" lon="1.4149">
        <ele>1366</ele>
        <time>2013-07-06T08:20:52Z</time>
      </trkpt>
      <trkpt lat="42.70675" lon="1.41495">
        <ele>1365</ele>
        <time>2013-07-06T08:21:01Z</time>
      </trkpt>
      <trkpt lat="42.70678" lon="1.41497">
        <ele>1365</ele>
        <time>2013-07-06T08:21:14Z</time>
      </trkpt>
      <trkpt lat="42.70677" lon="1.41498">
        <ele>1365</ele>
        <time>2013-07-06T08:21:30Z</time>
      </trkpt>
      <trkpt lat="42.70676" lon="1.41495">
        <ele>1366</ele>
        <time>2013-07-06T08:21:41Z</time>
      </trkpt>
      <trkpt lat="42.70674" lon="1.41489">
        <ele>1367</ele>
        <time>2013-07-06T08:21:52Z</time>
      </trkpt>
      <trkpt lat="42.70674" lon="1.41487">
        <ele>1367</ele>
        <time>2013-07-06T08:22:04Z</time>
      </trkpt>
      <trkpt lat="42.70676" lon="1.41489">
        <ele>1367</ele>
        <time>2013-07-06T08:22:14Z</time>
      </trkpt>
      <trkpt lat="42.70677" lon="1.41483">
        <ele>1367</ele>
        <time>2013-07-06T08:22:22Z</time>
      </trkpt>
      <trkpt lat="42.70674" lon="1.41476">
        <ele>1368</ele>
        <time>2013-07-06T08:22:30Z</time>
      </trkpt>
      <trkpt lat="42.70674" lon="1.41471">
        <ele>1369</ele>
        <time>2013-07-06T08:22:36Z</time>
      </trkpt>
      <trkpt lat="42.70676" lon="1.4146">
        <ele>1369</ele>
        <time>2013-07-06T08:22:45Z</time>
      </trkpt>
      <trkpt lat="42.70676" lon="1.41452">
        <ele>1368</ele>
        <time>2013-07-06T08:22:52Z</time>
      </trkpt>
      <trkpt lat="42.70673" lon="1.41441">
        <ele>1370</ele>
        <time>2013-07-06T08:23:01Z</time>
      </trkpt>
      <trkpt lat="42.70673" lon="1.41428">
        <ele>1370</ele>
        <time>2013-07-06T08:23:10Z</time>
      </trkpt>
      <trkpt lat="42.70678" lon="1.41416">
        <ele>1370</ele>
        <time>2013-07-06T08:23:19Z</time>
      </trkpt>
      <trkpt lat="42.70679" lon="1.41403">
        <ele>1369</ele>
        <time>2013-07-06T08:23:28Z</time>
      </trkpt>
      <trkpt lat="42.70678" lon="1.41389">
        <ele>1370</ele>
        <time>2013-07-06T08:23:37Z</time>
      </trkpt>
      <trkpt lat="42.70678" lon="1.41373">
        <ele>1371</ele>
        <time>2013-07-06T08:23:48Z</time>
      </trkpt>
      <trkpt lat="42.70679" lon="1.4136">
        <ele>1373</ele>
        <time>2013-07-06T08:23:59Z</time>
      </trkpt>
      <trkpt lat="42.70682" lon="1.41348">
        <ele>1373</ele>
        <time>2013-07-06T08:24:08Z</time>
      </trkpt>
      <trkpt lat="42.7068" lon="1.41337">
        <ele>1375</ele>
        <time>2013-07-06T08:24:17Z</time>
      </trkpt>
      <trkpt lat="42.70679" lon="1.41322">
        <ele>1376</ele>
        <time>2013-07-06T08:24:26Z</time>
      </trkpt>
      <trkpt lat="42.70678" lon="1.41311">
        <ele>1378</ele>
        <time>2013-07-06T08:24:35Z</time>
      </trkpt>
      <trkpt lat="42.70673" lon="1.41298">
        <ele>1379</ele>
        <time>2013-07-06T08:24:45Z</time>
      </trkpt>
      <trkpt lat="42.70677" lon="1.41285">
        <ele>1380</ele>
        <time>2013-07-06T08:24:54Z</time>
      </trkpt>
      <trkpt lat="42.70679" lon="1.41276">
        <ele>1379</ele>
        <time>2013-07-06T08:25:01Z</time>
      </trkpt>
      <trkpt lat="42.70685" lon="1.41266">
        <ele>1380</ele>
        <time>2013-07-06T08:25:09Z</time>
      </trkpt>
      <trkpt lat="42.70687" lon="1.41257">
        <ele>1381</ele>
        <time>2013-07-06T08:25:18Z</time>
      </trkpt>
      <trkpt lat="42.70689" lon="1.41248">
        <ele>1382</ele>
        <time>2013-07-06T08:25:27Z</time>
      </trkpt>
      <trkpt lat="42.70689" lon="1.41237">
        <ele>1383</ele>
        <time>2013-07-06T08:25:36Z</time>
      </trkpt>
      <trkpt lat="42.70692" lon="1.41222">
        <ele>1383</ele>
        <time>2013-07-06T08:25:46Z</time>
      </trkpt>
      <trkpt lat="42.70698" lon="1.41212">
        <ele>1385</ele>
        <time>2013-07-06T08:25:57Z</time>
      </trkpt>
      <trkpt lat="42.70699" lon="1.41207">
        <ele>1386</ele>
        <time>2013-07-06T08:26:06Z</time>
      </trkpt>
      <trkpt lat="42.707" lon="1.41197">
        <ele>1387</ele>
        <time>2013-07-06T08:26:19Z</time>
      </trkpt>
      <trkpt lat="42.70703" lon="1.4119">
        <ele>1388</ele>
        <time>2013-07-06T08:26:26Z</time>
      </trkpt>
      <trkpt lat="42.70701" lon="1.4118">
        <ele>1389</ele>
        <time>2013-07-06T08:26:34Z</time>
      </trkpt>
      <trkpt lat="42.70703" lon="1.41171">
        <ele>1391</ele>
        <time>2013-07-06T08:26:43Z</time>
      </trkpt>
      <trkpt lat="42.70705" lon="1.41161">
        <ele>1393</ele>
        <time>2013-07-06T08:26:53Z</time>
      </trkpt>
      <trkpt lat="42.70704" lon="1.41156">
        <ele>1394</ele>
        <time>2013-07-06T08:27:00Z</time>
      </trkpt>
      <trkpt lat="42.70706" lon="1.41146">
        <ele>1396</ele>
        <time>2013-07-06T08:27:09Z</time>
      </trkpt>
      <trkpt lat="42.70701" lon="1.41136">
        <ele>1398</ele>
        <time>2013-07-06T08:27:18Z</time>
      </trkpt>
      <trkpt lat="42.70701" lon="1.41127">
        <ele>1400</ele>
        <time>2013-07-06T08:27:29Z</time>
      </trkpt>
      <trkpt lat="42.70702" lon="1.4112">
        <ele>1402</ele>
        <time>2013-07-06T08:27:38Z</time>
      </trkpt>
      <trkpt lat="42.70701" lon="1.41112">
        <ele>1403</ele>
        <time>2013-07-06T08:27:46Z</time>
      </trkpt>
      <trkpt lat="42.70698" lon="1.41105">
        <ele>1404</ele>
        <time>2013-07-06T08:27:56Z</time>
      </trkpt>
      <trkpt lat="42.70698" lon="1.41096">
        <ele>1406</ele>
        <time>2013-07-06T08:28:05Z</time>
      </trkpt>
      <trkpt lat="42.70693" lon="1.41089">
        <ele>1407</ele>
        <time>2013-07-06T08:28:13Z</time>
      </trkpt>
      <trkpt lat="42.70689" lon="1.41078">
        <ele>1409</ele>
        <time>2013-07-06T08:28:22Z</time>
      </trkpt>
      <trkpt lat="42.70691" lon="1.41072">
        <ele>1410</ele>
        <time>2013-07-06T08:28:33Z</time>
      </trkpt>
      <trkpt lat="42.70689" lon="1.4107">
        <ele>1410</ele>
        <time>2013-07-06T08:28:52Z</time>
      </trkpt>
      <trkpt lat="42.70688" lon="1.41066">
        <ele>1411</ele>
        <time>2013-07-06T08:29:13Z</time>
      </trkpt>
      <trkpt lat="42.70689" lon="1.41059">
        <ele>1413</ele>
        <time>2013-07-06T08:29:23Z</time>
      </trkpt>
      <trkpt lat="42.70686" lon="1.41049">
        <ele>1416</ele>
        <time>2013-07-06T08:29:33Z</time>
      </trkpt>
      <trkpt lat="42.70686" lon="1.4104">
        <ele>1418</ele>
        <time>2013-07-06T08:29:43Z</time>
      </trkpt>
      <trkpt lat="42.70683" lon="1.41031">
        <ele>1420</ele>
        <time>2013-07-06T08:29:52Z</time>
      </trkpt>
      <trkpt lat="42.70683" lon="1.41023">
        <ele>1422</ele>
        <time>2013-07-06T08:30:02Z</time>
      </trkpt>
      <trkpt lat="42.70677" lon="1.41014">
        <ele>1424</ele>
        <time>2013-07-06T08:30:11Z</time>
      </trkpt>
      <trkpt lat="42.70675" lon="1.41008">
        <ele>1426</ele>
        <time>2013-07-06T08:30:21Z</time>
      </trkpt>
      <trkpt lat="42.70673" lon="1.41008">
        <ele>1426</ele>
        <time>2013-07-06T08:30:32Z</time>
      </trkpt>
      <trkpt lat="42.70656" lon="1.41018">
        <ele>1428</ele>
        <time>2013-07-06T08:30:43Z</time>
      </trkpt>
      <trkpt lat="42.70651" lon="1.41029">
        <ele>1429</ele>
        <time>2013-07-06T08:30:53Z</time>
      </trkpt>
      <trkpt lat="42.70651" lon="1.41039">
        <ele>1430</ele>
        <time>2013-07-06T08:31:04Z</time>
      </trkpt>
      <trkpt lat="42.70649" lon="1.41033">
        <ele>1432</ele>
        <time>2013-07-06T08:31:15Z</time>
      </trkpt>
      <trkpt lat="42.70652" lon="1.41027">
        <ele>1433</ele>
        <time>2013-07-06T08:31:22Z</time>
      </trkpt>
      <trkpt lat="42.70654" lon="1.4102">
        <ele>1434</ele>
        <time>2013-07-06T08:31:31Z</time>
      </trkpt>
      <trkpt lat="42.70655" lon="1.41009">
        <ele>1436</ele>
        <time>2013-07-06T08:31:40Z</time>
      </trkpt>
      <trkpt lat="42.70651" lon="1.40998">
        <ele>1438</ele>
        <time>2013-07-06T08:31:51Z</time>
      </trkpt>
      <trkpt lat="42.7065" lon="1.40993">
        <ele>1439</ele>
        <time>2013-07-06T08:32:00Z</time>
      </trkpt>
      <trkpt lat="42.70649" lon="1.40983">
        <ele>1438</ele>
        <time>2013-07-06T08:32:18Z</time>
      </trkpt>
      <trkpt lat="42.70651" lon="1.4098">
        <ele>1438</ele>
        <time>2013-07-06T08:32:35Z</time>
      </trkpt>
      <trkpt lat="42.70669" lon="1.40986">
        <ele>1439</ele>
        <time>2013-07-06T08:33:01Z</time>
      </trkpt>
      <trkpt lat="42.70661" lon="1.4098">
        <ele>1440</ele>
        <time>2013-07-06T08:33:09Z</time>
      </trkpt>
      <trkpt lat="42.70658" lon="1.40974">
        <ele>1441</ele>
        <time>2013-07-06T08:33:17Z</time>
      </trkpt>
      <trkpt lat="42.70655" lon="1.40968">
        <ele>1442</ele>
        <time>2013-07-06T08:33:27Z</time>
      </trkpt>
      <trkpt lat="42.70653" lon="1.40968">
        <ele>1443</ele>
        <time>2013-07-06T08:33:38Z</time>
      </trkpt>
      <trkpt lat="42.70656" lon="1.40973">
        <ele>1443</ele>
        <time>2013-07-06T08:34:00Z</time>
      </trkpt>
      <trkpt lat="42.70653" lon="1.40969">
        <ele>1444</ele>
        <time>2013-07-06T08:34:23Z</time>
      </trkpt>
      <trkpt lat="42.70653" lon="1.40961">
        <ele>1445</ele>
        <time>2013-07-06T08:34:30Z</time>
      </trkpt>
      <trkpt lat="42.70654" lon="1.40954">
        <ele>1446</ele>
        <time>2013-07-06T08:34:39Z</time>
      </trkpt>
      <trkpt lat="42.70654" lon="1.40944">
        <ele>1447</ele>
        <time>2013-07-06T08:34:50Z</time>
      </trkpt>
      <trkpt lat="42.70655" lon="1.40941">
        <ele>1448</ele>
        <time>2013-07-06T08:34:57Z</time>
      </trkpt>
      <trkpt lat="42.70658" lon="1.40929">
        <ele>1450</ele>
        <time>2013-07-06T08:35:06Z</time>
      </trkpt>
      <trkpt lat="42.70658" lon="1.40928">
        <ele>1450</ele>
        <time>2013-07-06T08:35:08Z</time>
      </trkpt>
      <trkpt lat="42.70658" lon="1.40919">
        <ele>1452</ele>
        <time>2013-07-06T08:35:17Z</time>
      </trkpt>
      <trkpt lat="42.70658" lon="1.40908">
        <ele>1453</ele>
        <time>2013-07-06T08:35:26Z</time>
      </trkpt>
      <trkpt lat="42.70657" lon="1.40904">
        <ele>1454</ele>
        <time>2013-07-06T08:35:35Z</time>
      </trkpt>
      <trkpt lat="42.70657" lon="1.40897">
        <ele>1456</ele>
        <time>2013-07-06T08:35:46Z</time>
      </trkpt>
      <trkpt lat="42.70655" lon="1.40888">
        <ele>1456</ele>
        <time>2013-07-06T08:35:53Z</time>
      </trkpt>
      <trkpt lat="42.70651" lon="1.40878">
        <ele>1457</ele>
        <time>2013-07-06T08:36:01Z</time>
      </trkpt>
      <trkpt lat="42.70644" lon="1.40873">
        <ele>1457</ele>
        <time>2013-07-06T08:36:14Z</time>
      </trkpt>
      <trkpt lat="42.70649" lon="1.40867">
        <ele>1460</ele>
        <time>2013-07-06T08:36:23Z</time>
      </trkpt>
      <trkpt lat="42.70652" lon="1.40861">
        <ele>1461</ele>
        <time>2013-07-06T08:36:30Z</time>
      </trkpt>
      <trkpt lat="42.70653" lon="1.40858">
        <ele>1462</ele>
        <time>2013-07-06T08:36:39Z</time>
      </trkpt>
      <trkpt lat="42.70652" lon="1.40854">
        <ele>1461</ele>
        <time>2013-07-06T08:36:52Z</time>
      </trkpt>
      <trkpt lat="42.70651" lon="1.40853">
        <ele>1462</ele>
        <time>2013-07-06T08:37:08Z</time>
      </trkpt>
      <trkpt lat="42.70652" lon="1.40851">
        <ele>1462</ele>
        <time>2013-07-06T08:37:23Z</time>
      </trkpt>
      <trkpt lat="42.70656" lon="1.40853">
        <ele>1462</ele>
        <time>2013-07-06T08:37:34Z</time>
      </trkpt>
      <trkpt lat="42.70654" lon="1.40848">
        <ele>1463</ele>
        <time>2013-07-06T08:37:43Z</time>
      </trkpt>
      <trkpt lat="42.70652" lon="1.40842">
        <ele>1464</ele>
        <time>2013-07-06T08:37:50Z</time>
      </trkpt>
      <trkpt lat="42.70651" lon="1.40837">
        <ele>1466</ele>
        <time>2013-07-06T08:37:58Z</time>
      </trkpt>
      <trkpt lat="42.7065" lon="1.4083">
        <ele>1466</ele>
        <time>2013-07-06T08:38:05Z</time>
      </trkpt>
      <trkpt lat="42.7065" lon="1.40825">
        <ele>1468</ele>
        <time>2013-07-06T08:38:12Z</time>
      </trkpt>
      <trkpt lat="42.70648" lon="1.40819">
        <ele>1469</ele>
        <time>2013-07-06T08:38:20Z</time>
      </trkpt>
      <trkpt lat="42.70643" lon="1.40811">
        <ele>1470</ele>
        <time>2013-07-06T08:38:28Z</time>
      </trkpt>
      <trkpt lat="42.70638" lon="1.40801">
        <ele>1473</ele>
        <time>2013-07-06T08:38:38Z</time>
      </trkpt>
      <trkpt lat="42.70628" lon="1.40794">
        <ele>1476</ele>
        <time>2013-07-06T08:38:51Z</time>
      </trkpt>
      <trkpt lat="42.70629" lon="1.40792">
        <ele>1477</ele>
        <time>2013-07-06T08:38:58Z</time>
      </trkpt>
      <trkpt lat="42.70622" lon="1.40786">
        <ele>1479</ele>
        <time>2013-07-06T08:39:08Z</time>
      </trkpt>
      <trkpt lat="42.70621" lon="1.40781">
        <ele>1481</ele>
        <time>2013-07-06T08:39:16Z</time>
      </trkpt>
      <trkpt lat="42.7062" lon="1.40778">
        <ele>1482</ele>
        <time>2013-07-06T08:39:25Z</time>
      </trkpt>
      <trkpt lat="42.70618" lon="1.4078">
        <ele>1482</ele>
        <time>2013-07-06T08:39:36Z</time>
      </trkpt>
      <trkpt lat="42.70614" lon="1.40777">
        <ele>1484</ele>
        <time>2013-07-06T08:39:46Z</time>
      </trkpt>
      <trkpt lat="42.70612" lon="1.40776">
        <ele>1484</ele>
        <time>2013-07-06T08:39:55Z</time>
      </trkpt>
      <trkpt lat="42.70603" lon="1.40781">
        <ele>1485</ele>
        <time>2013-07-06T08:40:05Z</time>
      </trkpt>
      <trkpt lat="42.70601" lon="1.40784">
        <ele>1486</ele>
        <time>2013-07-06T08:40:14Z</time>
      </trkpt>
      <trkpt lat="42.70593" lon="1.40788">
        <ele>1490</ele>
        <time>2013-07-06T08:40:25Z</time>
      </trkpt>
      <trkpt lat="42.70586" lon="1.40789">
        <ele>1491</ele>
        <time>2013-07-06T08:40:35Z</time>
      </trkpt>
      <trkpt lat="42.70582" lon="1.40798">
        <ele>1493</ele>
        <time>2013-07-06T08:40:44Z</time>
      </trkpt>
      <trkpt lat="42.70578" lon="1.40807">
        <ele>1494</ele>
        <time>2013-07-06T08:40:54Z</time>
      </trkpt>
      <trkpt lat="42.70575" lon="1.40805">
        <ele>1496</ele>
        <time>2013-07-06T08:41:06Z</time>
      </trkpt>
      <trkpt lat="42.70573" lon="1.40799">
        <ele>1496</ele>
        <time>2013-07-06T08:41:15Z</time>
      </trkpt>
      <trkpt lat="42.70576" lon="1.40796">
        <ele>1499</ele>
        <time>2013-07-06T08:41:26Z</time>
      </trkpt>
      <trkpt lat="42.70573" lon="1.4079">
        <ele>1501</ele>
        <time>2013-07-06T08:41:38Z</time>
      </trkpt>
      <trkpt lat="42.70571" lon="1.40779">
        <ele>1503</ele>
        <time>2013-07-06T08:41:48Z</time>
      </trkpt>
      <trkpt lat="42.70572" lon="1.40775">
        <ele>1504</ele>
        <time>2013-07-06T08:41:56Z</time>
      </trkpt>
      <trkpt lat="42.70569" lon="1.40769">
        <ele>1506</ele>
        <time>2013-07-06T08:42:07Z</time>
      </trkpt>
      <trkpt lat="42.7057" lon="1.40763">
        <ele>1507</ele>
        <time>2013-07-06T08:42:16Z</time>
      </trkpt>
      <trkpt lat="42.7057" lon="1.40757">
        <ele>1509</ele>
        <time>2013-07-06T08:42:25Z</time>
      </trkpt>
      <trkpt lat="42.70569" lon="1.4075">
        <ele>1510</ele>
        <time>2013-07-06T08:42:33Z</time>
      </trkpt>
      <trkpt lat="42.70566" lon="1.40743">
        <ele>1512</ele>
        <time>2013-07-06T08:42:43Z</time>
      </trkpt>
      <trkpt lat="42.70558" lon="1.40739">
        <ele>1513</ele>
        <time>2013-07-06T08:42:52Z</time>
      </trkpt>
      <trkpt lat="42.70562" lon="1.40736">
        <ele>1515</ele>
        <time>2013-07-06T08:43:00Z</time>
      </trkpt>
      <trkpt lat="42.70562" lon="1.40731">
        <ele>1515</ele>
        <time>2013-07-06T08:43:07Z</time>
      </trkpt>
      <trkpt lat="42.70561" lon="1.40728">
        <ele>1516</ele>
        <time>2013-07-06T08:43:13Z</time>
      </trkpt>
      <trkpt lat="42.7056" lon="1.4072">
        <ele>1519</ele>
        <time>2013-07-06T08:43:23Z</time>
      </trkpt>
      <trkpt lat="42.70553" lon="1.4072">
        <ele>1519</ele>
        <time>2013-07-06T08:43:31Z</time>
      </trkpt>
      <trkpt lat="42.70546" lon="1.40723">
        <ele>1521</ele>
        <time>2013-07-06T08:43:42Z</time>
      </trkpt>
      <trkpt lat="42.70539" lon="1.40727">
        <ele>1523</ele>
        <time>2013-07-06T08:43:52Z</time>
      </trkpt>
      <trkpt lat="42.70537" lon="1.4072">
        <ele>1525</ele>
        <time>2013-07-06T08:44:04Z</time>
      </trkpt>
      <trkpt lat="42.7054" lon="1.40716">
        <ele>1528</ele>
        <time>2013-07-06T08:44:13Z</time>
      </trkpt>
      <trkpt lat="42.70537" lon="1.40715">
        <ele>1528</ele>
        <time>2013-07-06T08:44:22Z</time>
      </trkpt>
      <trkpt lat="42.70538" lon="1.40709">
        <ele>1529</ele>
        <time>2013-07-06T08:44:33Z</time>
      </trkpt>
      <trkpt lat="42.7054" lon="1.40702">
        <ele>1531</ele>
        <time>2013-07-06T08:44:41Z</time>
      </trkpt>
      <trkpt lat="42.70539" lon="1.40694">
        <ele>1532</ele>
        <time>2013-07-06T08:44:50Z</time>
      </trkpt>
      <trkpt lat="42.70537" lon="1.40687">
        <ele>1533</ele>
        <time>2013-07-06T08:44:59Z</time>
      </trkpt>
      <trkpt lat="42.70536" lon="1.40685">
        <ele>1535</ele>
        <time>2013-07-06T08:45:08Z</time>
      </trkpt>
      <trkpt lat="42.70534" lon="1.4068">
        <ele>1537</ele>
        <time>2013-07-06T08:45:18Z</time>
      </trkpt>
      <trkpt lat="42.70528" lon="1.4068">
        <ele>1539</ele>
        <time>2013-07-06T08:45:27Z</time>
      </trkpt>
      <trkpt lat="42.70529" lon="1.40676">
        <ele>1541</ele>
        <time>2013-07-06T08:45:37Z</time>
      </trkpt>
      <trkpt lat="42.70531" lon="1.4067">
        <ele>1543</ele>
        <time>2013-07-06T08:45:47Z</time>
      </trkpt>
      <trkpt lat="42.70527" lon="1.40664">
        <ele>1544</ele>
        <time>2013-07-06T08:45:57Z</time>
      </trkpt>
      <trkpt lat="42.70525" lon="1.40657">
        <ele>1547</ele>
        <time>2013-07-06T08:46:05Z</time>
      </trkpt>
      <trkpt lat="42.70522" lon="1.40652">
        <ele>1547</ele>
        <time>2013-07-06T08:46:13Z</time>
      </trkpt>
      <trkpt lat="42.70517" lon="1.40648">
        <ele>1549</ele>
        <time>2013-07-06T08:46:22Z</time>
      </trkpt>
      <trkpt lat="42.70516" lon="1.40648">
        <ele>1550</ele>
        <time>2013-07-06T08:46:30Z</time>
      </trkpt>
      <trkpt lat="42.70511" lon="1.40654">
        <ele>1551</ele>
        <time>2013-07-06T08:46:39Z</time>
      </trkpt>
      <trkpt lat="42.70507" lon="1.40654">
        <ele>1553</ele>
        <time>2013-07-06T08:46:49Z</time>
      </trkpt>
      <trkpt lat="42.70503" lon="1.40657">
        <ele>1554</ele>
        <time>2013-07-06T08:46:58Z</time>
      </trkpt>
      <trkpt lat="42.70498" lon="1.40662">
        <ele>1556</ele>
        <time>2013-07-06T08:47:08Z</time>
      </trkpt>
      <trkpt lat="42.70496" lon="1.40656">
        <ele>1557</ele>
        <time>2013-07-06T08:47:17Z</time>
      </trkpt>
      <trkpt lat="42.70496" lon="1.40654">
        <ele>1557</ele>
        <time>2013-07-06T08:47:25Z</time>
      </trkpt>
      <trkpt lat="42.70497" lon="1.40654">
        <ele>1558</ele>
        <time>2013-07-06T08:47:33Z</time>
      </trkpt>
      <trkpt lat="42.70497" lon="1.40658">
        <ele>1557</ele>
        <time>2013-07-06T08:47:53Z</time>
      </trkpt>
      <trkpt lat="42.705" lon="1.40652">
        <ele>1558</ele>
        <time>2013-07-06T08:48:02Z</time>
      </trkpt>
      <trkpt lat="42.70497" lon="1.40648">
        <ele>1559</ele>
        <time>2013-07-06T08:48:09Z</time>
      </trkpt>
      <trkpt lat="42.70493" lon="1.40644">
        <ele>1561</ele>
        <time>2013-07-06T08:48:17Z</time>
      </trkpt>
      <trkpt lat="42.70493" lon="1.40642">
        <ele>1563</ele>
        <time>2013-07-06T08:48:24Z</time>
      </trkpt>
      <trkpt lat="42.70492" lon="1.4064">
        <ele>1564</ele>
        <time>2013-07-06T08:48:33Z</time>
      </trkpt>
      <trkpt lat="42.70492" lon="1.40644">
        <ele>1564</ele>
        <time>2013-07-06T08:48:46Z</time>
      </trkpt>
      <trkpt lat="42.7049" lon="1.40647">
        <ele>1564</ele>
        <time>2013-07-06T08:48:59Z</time>
      </trkpt>
      <trkpt lat="42.70491" lon="1.40648">
        <ele>1565</ele>
        <time>2013-07-06T08:49:08Z</time>
      </trkpt>
      <trkpt lat="42.70495" lon="1.40654">
        <ele>1565</ele>
        <time>2013-07-06T08:49:20Z</time>
      </trkpt>
      <trkpt lat="42.70498" lon="1.40655">
        <ele>1566</ele>
        <time>2013-07-06T08:49:29Z</time>
      </trkpt>
      <trkpt lat="42.705" lon="1.40656">
        <ele>1566</ele>
        <time>2013-07-06T08:49:48Z</time>
      </trkpt>
      <trkpt lat="42.70499" lon="1.40649">
        <ele>1566</ele>
        <time>2013-07-06T08:50:02Z</time>
      </trkpt>
      <trkpt lat="42.705" lon="1.40647">
        <ele>1567</ele>
        <time>2013-07-06T08:50:14Z</time>
      </trkpt>
      <trkpt lat="42.70495" lon="1.40645">
        <ele>1568</ele>
        <time>2013-07-06T08:50:26Z</time>
      </trkpt>
      <trkpt lat="42.7049" lon="1.40646">
        <ele>1570</ele>
        <time>2013-07-06T08:50:35Z</time>
      </trkpt>
      <trkpt lat="42.70481" lon="1.40648">
        <ele>1571</ele>
        <time>2013-07-06T08:50:44Z</time>
      </trkpt>
      <trkpt lat="42.70478" lon="1.40645">
        <ele>1573</ele>
        <time>2013-07-06T08:50:53Z</time>
      </trkpt>
      <trkpt lat="42.70479" lon="1.4064">
        <ele>1575</ele>
        <time>2013-07-06T08:51:02Z</time>
      </trkpt>
      <trkpt lat="42.70476" lon="1.40636">
        <ele>1576</ele>
        <time>2013-07-06T08:51:09Z</time>
      </trkpt>
      <trkpt lat="42.70472" lon="1.40628">
        <ele>1578</ele>
        <time>2013-07-06T08:51:19Z</time>
      </trkpt>
      <trkpt lat="42.70467" lon="1.40632">
        <ele>1580</ele>
        <time>2013-07-06T08:51:27Z</time>
      </trkpt>
      <trkpt lat="42.70459" lon="1.40639">
        <ele>1581</ele>
        <time>2013-07-06T08:51:37Z</time>
      </trkpt>
      <trkpt lat="42.70454" lon="1.40642">
        <ele>1583</ele>
        <time>2013-07-06T08:51:47Z</time>
      </trkpt>
      <trkpt lat="42.70452" lon="1.40648">
        <ele>1584</ele>
        <time>2013-07-06T08:51:56Z</time>
      </trkpt>
      <trkpt lat="42.70448" lon="1.40653">
        <ele>1586</ele>
        <time>2013-07-06T08:52:08Z</time>
      </trkpt>
      <trkpt lat="42.70446" lon="1.40646">
        <ele>1588</ele>
        <time>2013-07-06T08:52:16Z</time>
      </trkpt>
      <trkpt lat="42.70446" lon="1.40644">
        <ele>1589</ele>
        <time>2013-07-06T08:52:19Z</time>
      </trkpt>
      <trkpt lat="42.70446" lon="1.4064">
        <ele>1591</ele>
        <time>2013-07-06T08:52:28Z</time>
      </trkpt>
      <trkpt lat="42.70439" lon="1.40645">
        <ele>1592</ele>
        <time>2013-07-06T08:52:38Z</time>
      </trkpt>
      <trkpt lat="42.70434" lon="1.40648">
        <ele>1594</ele>
        <time>2013-07-06T08:52:48Z</time>
      </trkpt>
      <trkpt lat="42.7043" lon="1.40649">
        <ele>1595</ele>
        <time>2013-07-06T08:52:58Z</time>
      </trkpt>
      <trkpt lat="42.70429" lon="1.40646">
        <ele>1597</ele>
        <time>2013-07-06T08:53:08Z</time>
      </trkpt>
      <trkpt lat="42.70428" lon="1.40642">
        <ele>1599</ele>
        <time>2013-07-06T08:53:18Z</time>
      </trkpt>
      <trkpt lat="42.70426" lon="1.40639">
        <ele>1599</ele>
        <time>2013-07-06T08:53:25Z</time>
      </trkpt>
      <trkpt lat="42.70428" lon="1.40636">
        <ele>1601</ele>
        <time>2013-07-06T08:53:36Z</time>
      </trkpt>
      <trkpt lat="42.70428" lon="1.40634">
        <ele>1602</ele>
        <time>2013-07-06T08:53:46Z</time>
      </trkpt>
      <trkpt lat="42.70423" lon="1.40631">
        <ele>1604</ele>
        <time>2013-07-06T08:53:54Z</time>
      </trkpt>
      <trkpt lat="42.70419" lon="1.40631">
        <ele>1605</ele>
        <time>2013-07-06T08:54:01Z</time>
      </trkpt>
      <trkpt lat="42.70417" lon="1.40631">
        <ele>1606</ele>
        <time>2013-07-06T08:54:10Z</time>
      </trkpt>
      <trkpt lat="42.70412" lon="1.40633">
        <ele>1608</ele>
        <time>2013-07-06T08:54:17Z</time>
      </trkpt>
      <trkpt lat="42.70411" lon="1.40628">
        <ele>1609</ele>
        <time>2013-07-06T08:54:24Z</time>
      </trkpt>
      <trkpt lat="42.70408" lon="1.40626">
        <ele>1611</ele>
        <time>2013-07-06T08:54:33Z</time>
      </trkpt>
      <trkpt lat="42.70408" lon="1.40621">
        <ele>1613</ele>
        <time>2013-07-06T08:54:41Z</time>
      </trkpt>
      <trkpt lat="42.70405" lon="1.4062">
        <ele>1613</ele>
        <time>2013-07-06T08:54:47Z</time>
      </trkpt>
      <trkpt lat="42.70401" lon="1.40617">
        <ele>1617</ele>
        <time>2013-07-06T08:54:55Z</time>
      </trkpt>
      <trkpt lat="42.704" lon="1.40614">
        <ele>1617</ele>
        <time>2013-07-06T08:55:03Z</time>
      </trkpt>
      <trkpt lat="42.70397" lon="1.40607">
        <ele>1619</ele>
        <time>2013-07-06T08:55:11Z</time>
      </trkpt>
      <trkpt lat="42.70394" lon="1.40605">
        <ele>1620</ele>
        <time>2013-07-06T08:55:19Z</time>
      </trkpt>
      <trkpt lat="42.70389" lon="1.40602">
        <ele>1621</ele>
        <time>2013-07-06T08:55:27Z</time>
      </trkpt>
      <trkpt lat="42.70387" lon="1.40601">
        <ele>1622</ele>
        <time>2013-07-06T08:55:33Z</time>
      </trkpt>
      <trkpt lat="42.70386" lon="1.40598">
        <ele>1623</ele>
        <time>2013-07-06T08:55:41Z</time>
      </trkpt>
      <trkpt lat="42.70383" lon="1.40597">
        <ele>1623</ele>
        <time>2013-07-06T08:55:55Z</time>
      </trkpt>
      <trkpt lat="42.70383" lon="1.40596">
        <ele>1623</ele>
        <time>2013-07-06T08:56:11Z</time>
      </trkpt>
      <trkpt lat="42.7038" lon="1.40601">
        <ele>1626</ele>
        <time>2013-07-06T08:56:20Z</time>
      </trkpt>
      <trkpt lat="42.70381" lon="1.40604">
        <ele>1626</ele>
        <time>2013-07-06T08:56:30Z</time>
      </trkpt>
      <trkpt lat="42.70378" lon="1.40603">
        <ele>1627</ele>
        <time>2013-07-06T08:56:39Z</time>
      </trkpt>
      <trkpt lat="42.70375" lon="1.40601">
        <ele>1629</ele>
        <time>2013-07-06T08:56:47Z</time>
      </trkpt>
      <trkpt lat="42.70373" lon="1.40599">
        <ele>1630</ele>
        <time>2013-07-06T08:56:53Z</time>
      </trkpt>
      <trkpt lat="42.70367" lon="1.40593">
        <ele>1631</ele>
        <time>2013-07-06T08:57:02Z</time>
      </trkpt>
      <trkpt lat="42.70363" lon="1.40588">
        <ele>1632</ele>
        <time>2013-07-06T08:57:10Z</time>
      </trkpt>
      <trkpt lat="42.70358" lon="1.40586">
        <ele>1633</ele>
        <time>2013-07-06T08:57:17Z</time>
      </trkpt>
      <trkpt lat="42.70354" lon="1.40581">
        <ele>1635</ele>
        <time>2013-07-06T08:57:26Z</time>
      </trkpt>
      <trkpt lat="42.70348" lon="1.40579">
        <ele>1637</ele>
        <time>2013-07-06T08:57:34Z</time>
      </trkpt>
      <trkpt lat="42.70343" lon="1.40574">
        <ele>1637</ele>
        <time>2013-07-06T08:57:41Z</time>
      </trkpt>
      <trkpt lat="42.70341" lon="1.40583">
        <ele>1638</ele>
        <time>2013-07-06T08:57:47Z</time>
      </trkpt>
      <trkpt lat="42.70338" lon="1.40578">
        <ele>1638</ele>
        <time>2013-07-06T08:57:55Z</time>
      </trkpt>
      <trkpt lat="42.70334" lon="1.40579">
        <ele>1640</ele>
        <time>2013-07-06T08:58:02Z</time>
      </trkpt>
      <trkpt lat="42.70328" lon="1.40576">
        <ele>1642</ele>
        <time>2013-07-06T08:58:11Z</time>
      </trkpt>
      <trkpt lat="42.70324" lon="1.40576">
        <ele>1643</ele>
        <time>2013-07-06T08:58:20Z</time>
      </trkpt>
      <trkpt lat="42.70324" lon="1.40578">
        <ele>1643</ele>
        <time>2013-07-06T08:58:34Z</time>
      </trkpt>
      <trkpt lat="42.70322" lon="1.40577">
        <ele>1644</ele>
        <time>2013-07-06T08:58:44Z</time>
      </trkpt>
      <trkpt lat="42.70321" lon="1.40576">
        <ele>1644</ele>
        <time>2013-07-06T08:58:53Z</time>
      </trkpt>
      <trkpt lat="42.70317" lon="1.40576">
        <ele>1646</ele>
        <time>2013-07-06T08:59:01Z</time>
      </trkpt>
      <trkpt lat="42.70315" lon="1.40579">
        <ele>1647</ele>
        <time>2013-07-06T08:59:06Z</time>
      </trkpt>
      <trkpt lat="42.70312" lon="1.40576">
        <ele>1648</ele>
        <time>2013-07-06T08:59:15Z</time>
      </trkpt>
      <trkpt lat="42.70307" lon="1.4058">
        <ele>1649</ele>
        <time>2013-07-06T08:59:24Z</time>
      </trkpt>
      <trkpt lat="42.70303" lon="1.40578">
        <ele>1651</ele>
        <time>2013-07-06T08:59:31Z</time>
      </trkpt>
      <trkpt lat="42.703" lon="1.40576">
        <ele>1652</ele>
        <time>2013-07-06T08:59:39Z</time>
      </trkpt>
      <trkpt lat="42.70295" lon="1.4058">
        <ele>1653</ele>
        <time>2013-07-06T08:59:47Z</time>
      </trkpt>
      <trkpt lat="42.7029" lon="1.4058">
        <ele>1654</ele>
        <time>2013-07-06T08:59:56Z</time>
      </trkpt>
      <trkpt lat="42.70288" lon="1.40583">
        <ele>1655</ele>
        <time>2013-07-06T09:00:03Z</time>
      </trkpt>
      <trkpt lat="42.70286" lon="1.40589">
        <ele>1655</ele>
        <time>2013-07-06T09:00:09Z</time>
      </trkpt>
      <trkpt lat="42.70285" lon="1.40592">
        <ele>1656</ele>
        <time>2013-07-06T09:00:18Z</time>
      </trkpt>
      <trkpt lat="42.7028" lon="1.40587">
        <ele>1657</ele>
        <time>2013-07-06T09:00:27Z</time>
      </trkpt>
      <trkpt lat="42.70276" lon="1.40595">
        <ele>1657</ele>
        <time>2013-07-06T09:00:35Z</time>
      </trkpt>
      <trkpt lat="42.70276" lon="1.40604">
        <ele>1658</ele>
        <time>2013-07-06T09:00:43Z</time>
      </trkpt>
      <trkpt lat="42.70278" lon="1.40605">
        <ele>1659</ele>
        <time>2013-07-06T09:00:51Z</time>
      </trkpt>
      <trkpt lat="42.7028" lon="1.40602">
        <ele>1658</ele>
        <time>2013-07-06T09:01:00Z</time>
      </trkpt>
      <trkpt lat="42.70281" lon="1.40594">
        <ele>1657</ele>
        <time>2013-07-06T09:01:07Z</time>
      </trkpt>
      <trkpt lat="42.7028" lon="1.40592">
        <ele>1657</ele>
        <time>2013-07-06T09:01:15Z</time>
      </trkpt>
      <trkpt lat="42.7028" lon="1.40592">
        <ele>1657</ele>
        <time>2013-07-06T09:01:28Z</time>
      </trkpt>
      <trkpt lat="42.70284" lon="1.40592">
        <ele>1657</ele>
        <time>2013-07-06T09:01:35Z</time>
      </trkpt>
      <trkpt lat="42.70286" lon="1.40594">
        <ele>1657</ele>
        <time>2013-07-06T09:01:44Z</time>
      </trkpt>
      <trkpt lat="42.70286" lon="1.40595">
        <ele>1657</ele>
        <time>2013-07-06T09:01:52Z</time>
      </trkpt>
      <trkpt lat="42.70286" lon="1.40596">
        <ele>1656</ele>
        <time>2013-07-06T09:02:04Z</time>
      </trkpt>
      <trkpt lat="42.70287" lon="1.40596">
        <ele>1657</ele>
        <time>2013-07-06T09:02:21Z</time>
      </trkpt>
      <trkpt lat="42.70287" lon="1.40596">
        <ele>1657</ele>
        <time>2013-07-06T09:02:33Z</time>
      </trkpt>
      <trkpt lat="42.70286" lon="1.40596">
        <ele>1657</ele>
        <time>2013-07-06T09:02:49Z</time>
      </trkpt>
      <trkpt lat="42.70286" lon="1.40596">
        <ele>1658</ele>
        <time>2013-07-06T09:03:01Z</time>
      </trkpt>
      <trkpt lat="42.70288" lon="1.40597">
        <ele>1657</ele>
        <time>2013-07-06T09:03:19Z</time>
      </trkpt>
      <trkpt lat="42.70287" lon="1.40597">
        <ele>1657</ele>
        <time>2013-07-06T09:03:35Z</time>
      </trkpt>
      <trkpt lat="42.7029" lon="1.40596">
        <ele>1659</ele>
        <time>2013-07-06T09:03:55Z</time>
      </trkpt>
      <trkpt lat="42.7029" lon="1.40597">
        <ele>1658</ele>
        <time>2013-07-06T09:04:17Z</time>
      </trkpt>
      <trkpt lat="42.70289" lon="1.40593">
        <ele>1659</ele>
        <time>2013-07-06T09:04:31Z</time>
      </trkpt>
      <trkpt lat="42.70288" lon="1.4059">
        <ele>1659</ele>
        <time>2013-07-06T09:04:38Z</time>
      </trkpt>
      <trkpt lat="42.70281" lon="1.40586">
        <ele>1659</ele>
        <time>2013-07-06T09:04:47Z</time>
      </trkpt>
      <trkpt lat="42.70275" lon="1.40583">
        <ele>1659</ele>
        <time>2013-07-06T09:04:54Z</time>
      </trkpt>
      <trkpt lat="42.70271" lon="1.40583">
        <ele>1659</ele>
        <time>2013-07-06T09:05:00Z</time>
      </trkpt>
      <trkpt lat="42.70266" lon="1.40582">
        <ele>1660</ele>
        <time>2013-07-06T09:05:07Z</time>
      </trkpt>
      <trkpt lat="42.70263" lon="1.40579">
        <ele>1662</ele>
        <time>2013-07-06T09:05:16Z</time>
      </trkpt>
      <trkpt lat="42.7026" lon="1.40573">
        <ele>1662</ele>
        <time>2013-07-06T09:05:24Z</time>
      </trkpt>
      <trkpt lat="42.70256" lon="1.40569">
        <ele>1662</ele>
        <time>2013-07-06T09:05:31Z</time>
      </trkpt>
      <trkpt lat="42.70253" lon="1.40566">
        <ele>1664</ele>
        <time>2013-07-06T09:05:38Z</time>
      </trkpt>
      <trkpt lat="42.70251" lon="1.40563">
        <ele>1665</ele>
        <time>2013-07-06T09:05:46Z</time>
      </trkpt>
      <trkpt lat="42.70248" lon="1.40563">
        <ele>1667</ele>
        <time>2013-07-06T09:05:55Z</time>
      </trkpt>
      <trkpt lat="42.70244" lon="1.40562">
        <ele>1667</ele>
        <time>2013-07-06T09:06:06Z</time>
      </trkpt>
      <trkpt lat="42.7024" lon="1.40557">
        <ele>1669</ele>
        <time>2013-07-06T09:06:15Z</time>
      </trkpt>
      <trkpt lat="42.70235" lon="1.40555">
        <ele>1670</ele>
        <time>2013-07-06T09:06:21Z</time>
      </trkpt>
      <trkpt lat="42.70226" lon="1.40551">
        <ele>1670</ele>
        <time>2013-07-06T09:06:30Z</time>
      </trkpt>
      <trkpt lat="42.70222" lon="1.40549">
        <ele>1671</ele>
        <time>2013-07-06T09:06:36Z</time>
      </trkpt>
      <trkpt lat="42.70219" lon="1.40549">
        <ele>1672</ele>
        <time>2013-07-06T09:06:44Z</time>
      </trkpt>
      <trkpt lat="42.70223" lon="1.40549">
        <ele>1672</ele>
        <time>2013-07-06T09:06:59Z</time>
      </trkpt>
      <trkpt lat="42.70219" lon="1.40551">
        <ele>1672</ele>
        <time>2013-07-06T09:07:13Z</time>
      </trkpt>
      <trkpt lat="42.70211" lon="1.4055">
        <ele>1673</ele>
        <time>2013-07-06T09:07:20Z</time>
      </trkpt>
      <trkpt lat="42.70204" lon="1.40549">
        <ele>1674</ele>
        <time>2013-07-06T09:07:27Z</time>
      </trkpt>
      <trkpt lat="42.70198" lon="1.40547">
        <ele>1675</ele>
        <time>2013-07-06T09:07:34Z</time>
      </trkpt>
      <trkpt lat="42.70191" lon="1.40544">
        <ele>1676</ele>
        <time>2013-07-06T09:07:42Z</time>
      </trkpt>
      <trkpt lat="42.70187" lon="1.40545">
        <ele>1677</ele>
        <time>2013-07-06T09:07:50Z</time>
      </trkpt>
      <trkpt lat="42.70185" lon="1.40543">
        <ele>1678</ele>
        <time>2013-07-06T09:07:54Z</time>
      </trkpt>
      <trkpt lat="42.70181" lon="1.40544">
        <ele>1679</ele>
        <time>2013-07-06T09:08:02Z</time>
      </trkpt>
      <trkpt lat="42.70177" lon="1.40543">
        <ele>1681</ele>
        <time>2013-07-06T09:08:11Z</time>
      </trkpt>
      <trkpt lat="42.70174" lon="1.40541">
        <ele>1682</ele>
        <time>2013-07-06T09:08:18Z</time>
      </trkpt>
      <trkpt lat="42.70173" lon="1.40538">
        <ele>1684</ele>
        <time>2013-07-06T09:08:26Z</time>
      </trkpt>
      <trkpt lat="42.70171" lon="1.40535">
        <ele>1685</ele>
        <time>2013-07-06T09:08:33Z</time>
      </trkpt>
      <trkpt lat="42.70168" lon="1.40531">
        <ele>1685</ele>
        <time>2013-07-06T09:08:40Z</time>
      </trkpt>
      <trkpt lat="42.70164" lon="1.40525">
        <ele>1687</ele>
        <time>2013-07-06T09:08:50Z</time>
      </trkpt>
      <trkpt lat="42.70159" lon="1.40526">
        <ele>1688</ele>
        <time>2013-07-06T09:08:57Z</time>
      </trkpt>
      <trkpt lat="42.70155" lon="1.40531">
        <ele>1689</ele>
        <time>2013-07-06T09:09:04Z</time>
      </trkpt>
      <trkpt lat="42.70154" lon="1.40528">
        <ele>1690</ele>
        <time>2013-07-06T09:09:10Z</time>
      </trkpt>
      <trkpt lat="42.70152" lon="1.40526">
        <ele>1691</ele>
        <time>2013-07-06T09:09:20Z</time>
      </trkpt>
      <trkpt lat="42.7015" lon="1.40523">
        <ele>1693</ele>
        <time>2013-07-06T09:09:29Z</time>
      </trkpt>
      <trkpt lat="42.70147" lon="1.40523">
        <ele>1694</ele>
        <time>2013-07-06T09:09:37Z</time>
      </trkpt>
      <trkpt lat="42.70147" lon="1.40521">
        <ele>1695</ele>
        <time>2013-07-06T09:09:46Z</time>
      </trkpt>
      <trkpt lat="42.70147" lon="1.40523">
        <ele>1696</ele>
        <time>2013-07-06T09:10:00Z</time>
      </trkpt>
      <trkpt lat="42.70146" lon="1.40525">
        <ele>1696</ele>
        <time>2013-07-06T09:10:10Z</time>
      </trkpt>
      <trkpt lat="42.7015" lon="1.4052">
        <ele>1698</ele>
        <time>2013-07-06T09:10:22Z</time>
      </trkpt>
      <trkpt lat="42.70149" lon="1.40518">
        <ele>1699</ele>
        <time>2013-07-06T09:10:26Z</time>
      </trkpt>
      <trkpt lat="42.70145" lon="1.40512">
        <ele>1700</ele>
        <time>2013-07-06T09:10:34Z</time>
      </trkpt>
      <trkpt lat="42.70137" lon="1.40513">
        <ele>1701</ele>
        <time>2013-07-06T09:10:46Z</time>
      </trkpt>
      <trkpt lat="42.70136" lon="1.40515">
        <ele>1702</ele>
        <time>2013-07-06T09:10:54Z</time>
      </trkpt>
      <trkpt lat="42.70136" lon="1.40515">
        <ele>1704</ele>
        <time>2013-07-06T09:11:05Z</time>
      </trkpt>
      <trkpt lat="42.70135" lon="1.40513">
        <ele>1705</ele>
        <time>2013-07-06T09:11:09Z</time>
      </trkpt>
      <trkpt lat="42.70131" lon="1.40508">
        <ele>1706</ele>
        <time>2013-07-06T09:11:16Z</time>
      </trkpt>
      <trkpt lat="42.70131" lon="1.40507">
        <ele>1706</ele>
        <time>2013-07-06T09:11:17Z</time>
      </trkpt>
      <trkpt lat="42.70127" lon="1.40499">
        <ele>1706</ele>
        <time>2013-07-06T09:11:26Z</time>
      </trkpt>
      <trkpt lat="42.70126" lon="1.405">
        <ele>1707</ele>
        <time>2013-07-06T09:11:35Z</time>
      </trkpt>
      <trkpt lat="42.70124" lon="1.40497">
        <ele>1708</ele>
        <time>2013-07-06T09:11:42Z</time>
      </trkpt>
      <trkpt lat="42.70121" lon="1.40495">
        <ele>1710</ele>
        <time>2013-07-06T09:11:52Z</time>
      </trkpt>
      <trkpt lat="42.70116" lon="1.40491">
        <ele>1710</ele>
        <time>2013-07-06T09:12:01Z</time>
      </trkpt>
      <trkpt lat="42.70114" lon="1.40486">
        <ele>1712</ele>
        <time>2013-07-06T09:12:12Z</time>
      </trkpt>
      <trkpt lat="42.70113" lon="1.4048">
        <ele>1713</ele>
        <time>2013-07-06T09:12:18Z</time>
      </trkpt>
      <trkpt lat="42.70113" lon="1.40478">
        <ele>1713</ele>
        <time>2013-07-06T09:12:20Z</time>
      </trkpt>
      <trkpt lat="42.7011" lon="1.40472">
        <ele>1713</ele>
        <time>2013-07-06T09:12:25Z</time>
      </trkpt>
      <trkpt lat="42.70107" lon="1.4047">
        <ele>1713</ele>
        <time>2013-07-06T09:12:32Z</time>
      </trkpt>
      <trkpt lat="42.70105" lon="1.40469">
        <ele>1713</ele>
        <time>2013-07-06T09:12:40Z</time>
      </trkpt>
      <trkpt lat="42.70105" lon="1.40468">
        <ele>1714</ele>
        <time>2013-07-06T09:12:44Z</time>
      </trkpt>
      <trkpt lat="42.70104" lon="1.40466">
        <ele>1714</ele>
        <time>2013-07-06T09:12:46Z</time>
      </trkpt>
      <trkpt lat="42.701" lon="1.40465">
        <ele>1715</ele>
        <time>2013-07-06T09:12:53Z</time>
      </trkpt>
      <trkpt lat="42.70097" lon="1.40463">
        <ele>1717</ele>
        <time>2013-07-06T09:13:00Z</time>
      </trkpt>
      <trkpt lat="42.70096" lon="1.4046">
        <ele>1717</ele>
        <time>2013-07-06T09:13:07Z</time>
      </trkpt>
      <trkpt lat="42.70094" lon="1.40463">
        <ele>1718</ele>
        <time>2013-07-06T09:13:13Z</time>
      </trkpt>
      <trkpt lat="42.70093" lon="1.40461">
        <ele>1718</ele>
        <time>2013-07-06T09:13:15Z</time>
      </trkpt>
      <trkpt lat="42.70089" lon="1.40457">
        <ele>1719</ele>
        <time>2013-07-06T09:13:24Z</time>
      </trkpt>
      <trkpt lat="42.70089" lon="1.40456">
        <ele>1719</ele>
        <time>2013-07-06T09:13:34Z</time>
      </trkpt>
      <trkpt lat="42.7009" lon="1.40452">
        <ele>1719</ele>
        <time>2013-07-06T09:13:46Z</time>
      </trkpt>
      <trkpt lat="42.70087" lon="1.4045">
        <ele>1720</ele>
        <time>2013-07-06T09:13:48Z</time>
      </trkpt>
      <trkpt lat="42.70082" lon="1.40445">
        <ele>1720</ele>
        <time>2013-07-06T09:13:56Z</time>
      </trkpt>
      <trkpt lat="42.70079" lon="1.40438">
        <ele>1721</ele>
        <time>2013-07-06T09:14:05Z</time>
      </trkpt>
      <trkpt lat="42.70077" lon="1.40434">
        <ele>1723</ele>
        <time>2013-07-06T09:14:12Z</time>
      </trkpt>
      <trkpt lat="42.70072" lon="1.40431">
        <ele>1724</ele>
        <time>2013-07-06T09:14:20Z</time>
      </trkpt>
      <trkpt lat="42.7007" lon="1.4043">
        <ele>1726</ele>
        <time>2013-07-06T09:14:29Z</time>
      </trkpt>
      <trkpt lat="42.70068" lon="1.40432">
        <ele>1726</ele>
        <time>2013-07-06T09:14:36Z</time>
      </trkpt>
      <trkpt lat="42.70067" lon="1.4043">
        <ele>1729</ele>
        <time>2013-07-06T09:14:43Z</time>
      </trkpt>
      <trkpt lat="42.70063" lon="1.40425">
        <ele>1730</ele>
        <time>2013-07-06T09:14:51Z</time>
      </trkpt>
      <trkpt lat="42.70061" lon="1.40419">
        <ele>1732</ele>
        <time>2013-07-06T09:15:00Z</time>
      </trkpt>
      <trkpt lat="42.70059" lon="1.40412">
        <ele>1733</ele>
        <time>2013-07-06T09:15:10Z</time>
      </trkpt>
      <trkpt lat="42.70059" lon="1.40411">
        <ele>1733</ele>
        <time>2013-07-06T09:15:18Z</time>
      </trkpt>
      <trkpt lat="42.70058" lon="1.40411">
        <ele>1733</ele>
        <time>2013-07-06T09:15:33Z</time>
      </trkpt>
      <trkpt lat="42.70059" lon="1.40411">
        <ele>1733</ele>
        <time>2013-07-06T09:15:49Z</time>
      </trkpt>
      <trkpt lat="42.70052" lon="1.40402">
        <ele>1735</ele>
        <time>2013-07-06T09:15:59Z</time>
      </trkpt>
      <trkpt lat="42.7005" lon="1.40398">
        <ele>1737</ele>
        <time>2013-07-06T09:16:08Z</time>
      </trkpt>
      <trkpt lat="42.70045" lon="1.40397">
        <ele>1737</ele>
        <time>2013-07-06T09:16:15Z</time>
      </trkpt>
      <trkpt lat="42.70043" lon="1.40396">
        <ele>1738</ele>
        <time>2013-07-06T09:16:23Z</time>
      </trkpt>
      <trkpt lat="42.7004" lon="1.40395">
        <ele>1740</ele>
        <time>2013-07-06T09:16:30Z</time>
      </trkpt>
      <trkpt lat="42.70038" lon="1.40393">
        <ele>1741</ele>
        <time>2013-07-06T09:16:37Z</time>
      </trkpt>
      <trkpt lat="42.70037" lon="1.40393">
        <ele>1742</ele>
        <time>2013-07-06T09:16:45Z</time>
      </trkpt>
      <trkpt lat="42.70034" lon="1.40389">
        <ele>1743</ele>
        <time>2013-07-06T09:16:57Z</time>
      </trkpt>
      <trkpt lat="42.7003" lon="1.40381">
        <ele>1744</ele>
        <time>2013-07-06T09:17:05Z</time>
      </trkpt>
      <trkpt lat="42.70028" lon="1.40374">
        <ele>1745</ele>
        <time>2013-07-06T09:17:13Z</time>
      </trkpt>
      <trkpt lat="42.70023" lon="1.40368">
        <ele>1747</ele>
        <time>2013-07-06T09:17:22Z</time>
      </trkpt>
      <trkpt lat="42.7002" lon="1.40359">
        <ele>1747</ele>
        <time>2013-07-06T09:17:31Z</time>
      </trkpt>
      <trkpt lat="42.70017" lon="1.40358">
        <ele>1748</ele>
        <time>2013-07-06T09:17:38Z</time>
      </trkpt>
      <trkpt lat="42.70013" lon="1.40355">
        <ele>1750</ele>
        <time>2013-07-06T09:17:45Z</time>
      </trkpt>
      <trkpt lat="42.70012" lon="1.40352">
        <ele>1751</ele>
        <time>2013-07-06T09:17:47Z</time>
      </trkpt>
      <trkpt lat="42.70009" lon="1.40344">
        <ele>1751</ele>
        <time>2013-07-06T09:17:54Z</time>
      </trkpt>
      <trkpt lat="42.70002" lon="1.40337">
        <ele>1752</ele>
        <time>2013-07-06T09:18:03Z</time>
      </trkpt>
      <trkpt lat="42.7" lon="1.4033">
        <ele>1753</ele>
        <time>2013-07-06T09:18:10Z</time>
      </trkpt>
      <trkpt lat="42.69995" lon="1.40323">
        <ele>1755</ele>
        <time>2013-07-06T09:18:17Z</time>
      </trkpt>
      <trkpt lat="42.6999" lon="1.40315">
        <ele>1756</ele>
        <time>2013-07-06T09:18:26Z</time>
      </trkpt>
      <trkpt lat="42.6999" lon="1.40317">
        <ele>1755</ele>
        <time>2013-07-06T09:18:39Z</time>
      </trkpt>
      <trkpt lat="42.69993" lon="1.40316">
        <ele>1756</ele>
        <time>2013-07-06T09:18:55Z</time>
      </trkpt>
      <trkpt lat="42.69995" lon="1.40314">
        <ele>1755</ele>
        <time>2013-07-06T09:19:14Z</time>
      </trkpt>
      <trkpt lat="42.69992" lon="1.40311">
        <ele>1755</ele>
        <time>2013-07-06T09:19:24Z</time>
      </trkpt>
      <trkpt lat="42.69987" lon="1.4031">
        <ele>1756</ele>
        <time>2013-07-06T09:19:31Z</time>
      </trkpt>
      <trkpt lat="42.69983" lon="1.40308">
        <ele>1758</ele>
        <time>2013-07-06T09:19:39Z</time>
      </trkpt>
      <trkpt lat="42.69981" lon="1.40304">
        <ele>1759</ele>
        <time>2013-07-06T09:19:46Z</time>
      </trkpt>
      <trkpt lat="42.69977" lon="1.40299">
        <ele>1761</ele>
        <time>2013-07-06T09:19:54Z</time>
      </trkpt>
      <trkpt lat="42.69976" lon="1.40291">
        <ele>1762</ele>
        <time>2013-07-06T09:20:02Z</time>
      </trkpt>
      <trkpt lat="42.69971" lon="1.40285">
        <ele>1763</ele>
        <time>2013-07-06T09:20:12Z</time>
      </trkpt>
      <trkpt lat="42.69968" lon="1.40279">
        <ele>1765</ele>
        <time>2013-07-06T09:20:21Z</time>
      </trkpt>
      <trkpt lat="42.69965" lon="1.40272">
        <ele>1766</ele>
        <time>2013-07-06T09:20:28Z</time>
      </trkpt>
      <trkpt lat="42.69963" lon="1.40267">
        <ele>1768</ele>
        <time>2013-07-06T09:20:33Z</time>
      </trkpt>
      <trkpt lat="42.69961" lon="1.40264">
        <ele>1768</ele>
        <time>2013-07-06T09:20:41Z</time>
      </trkpt>
      <trkpt lat="42.69961" lon="1.40257">
        <ele>1769</ele>
        <time>2013-07-06T09:20:48Z</time>
      </trkpt>
      <trkpt lat="42.69957" lon="1.40254">
        <ele>1771</ele>
        <time>2013-07-06T09:20:56Z</time>
      </trkpt>
      <trkpt lat="42.69959" lon="1.40253">
        <ele>1771</ele>
        <time>2013-07-06T09:21:06Z</time>
      </trkpt>
      <trkpt lat="42.69956" lon="1.40248">
        <ele>1773</ele>
        <time>2013-07-06T09:21:14Z</time>
      </trkpt>
      <trkpt lat="42.69955" lon="1.40244">
        <ele>1774</ele>
        <time>2013-07-06T09:21:19Z</time>
      </trkpt>
      <trkpt lat="42.69953" lon="1.40233">
        <ele>1776</ele>
        <time>2013-07-06T09:21:29Z</time>
      </trkpt>
      <trkpt lat="42.69949" lon="1.40226">
        <ele>1777</ele>
        <time>2013-07-06T09:21:37Z</time>
      </trkpt>
      <trkpt lat="42.69947" lon="1.4022">
        <ele>1778</ele>
        <time>2013-07-06T09:21:45Z</time>
      </trkpt>
      <trkpt lat="42.69943" lon="1.40217">
        <ele>1779</ele>
        <time>2013-07-06T09:21:52Z</time>
      </trkpt>
      <trkpt lat="42.69943" lon="1.40215">
        <ele>1779</ele>
        <time>2013-07-06T09:21:55Z</time>
      </trkpt>
      <trkpt lat="42.69941" lon="1.40205">
        <ele>1780</ele>
        <time>2013-07-06T09:22:05Z</time>
      </trkpt>
      <trkpt lat="42.69935" lon="1.40201">
        <ele>1781</ele>
        <time>2013-07-06T09:22:14Z</time>
      </trkpt>
      <trkpt lat="42.69936" lon="1.40201">
        <ele>1782</ele>
        <time>2013-07-06T09:22:25Z</time>
      </trkpt>
      <trkpt lat="42.69936" lon="1.40201">
        <ele>1781</ele>
        <time>2013-07-06T09:22:39Z</time>
      </trkpt>
      <trkpt lat="42.6994" lon="1.40199">
        <ele>1782</ele>
        <time>2013-07-06T09:22:58Z</time>
      </trkpt>
      <trkpt lat="42.69941" lon="1.40199">
        <ele>1782</ele>
        <time>2013-07-06T09:23:17Z</time>
      </trkpt>
      <trkpt lat="42.69934" lon="1.40199">
        <ele>1782</ele>
        <time>2013-07-06T09:23:27Z</time>
      </trkpt>
      <trkpt lat="42.69928" lon="1.40196">
        <ele>1784</ele>
        <time>2013-07-06T09:23:36Z</time>
      </trkpt>
      <trkpt lat="42.69923" lon="1.40192">
        <ele>1786</ele>
        <time>2013-07-06T09:23:44Z</time>
      </trkpt>
      <trkpt lat="42.69918" lon="1.40187">
        <ele>1787</ele>
        <time>2013-07-06T09:23:52Z</time>
      </trkpt>
      <trkpt lat="42.69915" lon="1.40184">
        <ele>1788</ele>
        <time>2013-07-06T09:23:59Z</time>
      </trkpt>
      <trkpt lat="42.69911" lon="1.40182">
        <ele>1789</ele>
        <time>2013-07-06T09:24:05Z</time>
      </trkpt>
      <trkpt lat="42.6991" lon="1.40181">
        <ele>1790</ele>
        <time>2013-07-06T09:24:07Z</time>
      </trkpt>
      <trkpt lat="42.69906" lon="1.40178">
        <ele>1790</ele>
        <time>2013-07-06T09:24:16Z</time>
      </trkpt>
      <trkpt lat="42.69903" lon="1.40175">
        <ele>1790</ele>
        <time>2013-07-06T09:24:26Z</time>
      </trkpt>
      <trkpt lat="42.69899" lon="1.40173">
        <ele>1792</ele>
        <time>2013-07-06T09:24:32Z</time>
      </trkpt>
      <trkpt lat="42.69892" lon="1.4017">
        <ele>1793</ele>
        <time>2013-07-06T09:24:41Z</time>
      </trkpt>
      <trkpt lat="42.69891" lon="1.40168">
        <ele>1793</ele>
        <time>2013-07-06T09:24:43Z</time>
      </trkpt>
      <trkpt lat="42.69885" lon="1.40164">
        <ele>1794</ele>
        <time>2013-07-06T09:24:50Z</time>
      </trkpt>
      <trkpt lat="42.69879" lon="1.40163">
        <ele>1795</ele>
        <time>2013-07-06T09:24:57Z</time>
      </trkpt>
      <trkpt lat="42.69875" lon="1.4016">
        <ele>1796</ele>
        <time>2013-07-06T09:25:01Z</time>
      </trkpt>
      <trkpt lat="42.6987" lon="1.40161">
        <ele>1797</ele>
        <time>2013-07-06T09:25:09Z</time>
      </trkpt>
      <trkpt lat="42.69868" lon="1.40163">
        <ele>1798</ele>
        <time>2013-07-06T09:25:18Z</time>
      </trkpt>
      <trkpt lat="42.69865" lon="1.40166">
        <ele>1798</ele>
        <time>2013-07-06T09:25:26Z</time>
      </trkpt>
      <trkpt lat="42.69862" lon="1.40165">
        <ele>1797</ele>
        <time>2013-07-06T09:25:33Z</time>
      </trkpt>
      <trkpt lat="42.69861" lon="1.40165">
        <ele>1798</ele>
        <time>2013-07-06T09:25:40Z</time>
      </trkpt>
      <trkpt lat="42.69862" lon="1.40165">
        <ele>1798</ele>
        <time>2013-07-06T09:25:50Z</time>
      </trkpt>
      <trkpt lat="42.69859" lon="1.40168">
        <ele>1798</ele>
        <time>2013-07-06T09:26:01Z</time>
      </trkpt>
      <trkpt lat="42.69858" lon="1.40171">
        <ele>1798</ele>
        <time>2013-07-06T09:26:06Z</time>
      </trkpt>
      <trkpt lat="42.69859" lon="1.40173">
        <ele>1798</ele>
        <time>2013-07-06T09:26:17Z</time>
      </trkpt>
      <trkpt lat="42.69861" lon="1.4017">
        <ele>1798</ele>
        <time>2013-07-06T09:26:25Z</time>
      </trkpt>
      <trkpt lat="42.69862" lon="1.40169">
        <ele>1798</ele>
        <time>2013-07-06T09:26:34Z</time>
      </trkpt>
      <trkpt lat="42.69861" lon="1.40169">
        <ele>1799</ele>
        <time>2013-07-06T09:26:47Z</time>
      </trkpt>
      <trkpt lat="42.6986" lon="1.40171">
        <ele>1798</ele>
        <time>2013-07-06T09:27:00Z</time>
      </trkpt>
      <trkpt lat="42.6986" lon="1.40172">
        <ele>1799</ele>
        <time>2013-07-06T09:27:07Z</time>
      </trkpt>
      <trkpt lat="42.69861" lon="1.40171">
        <ele>1798</ele>
        <time>2013-07-06T09:27:17Z</time>
      </trkpt>
      <trkpt lat="42.6986" lon="1.40169">
        <ele>1798</ele>
        <time>2013-07-06T09:27:29Z</time>
      </trkpt>
      <trkpt lat="42.69857" lon="1.40171">
        <ele>1800</ele>
        <time>2013-07-06T09:27:35Z</time>
      </trkpt>
      <trkpt lat="42.69855" lon="1.40169">
        <ele>1800</ele>
        <time>2013-07-06T09:27:48Z</time>
      </trkpt>
      <trkpt lat="42.69855" lon="1.40171">
        <ele>1800</ele>
        <time>2013-07-06T09:27:52Z</time>
      </trkpt>
      <trkpt lat="42.69851" lon="1.40174">
        <ele>1802</ele>
        <time>2013-07-06T09:28:00Z</time>
      </trkpt>
      <trkpt lat="42.69849" lon="1.40182">
        <ele>1804</ele>
        <time>2013-07-06T09:28:09Z</time>
      </trkpt>
      <trkpt lat="42.69845" lon="1.40181">
        <ele>1805</ele>
        <time>2013-07-06T09:28:15Z</time>
      </trkpt>
      <trkpt lat="42.69843" lon="1.4018">
        <ele>1806</ele>
        <time>2013-07-06T09:28:23Z</time>
      </trkpt>
      <trkpt lat="42.69842" lon="1.4018">
        <ele>1807</ele>
        <time>2013-07-06T09:28:31Z</time>
      </trkpt>
      <trkpt lat="42.69839" lon="1.40175">
        <ele>1808</ele>
        <time>2013-07-06T09:28:39Z</time>
      </trkpt>
      <trkpt lat="42.69835" lon="1.40179">
        <ele>1810</ele>
        <time>2013-07-06T09:28:46Z</time>
      </trkpt>
      <trkpt lat="42.69834" lon="1.4018">
        <ele>1811</ele>
        <time>2013-07-06T09:28:55Z</time>
      </trkpt>
      <trkpt lat="42.69827" lon="1.40179">
        <ele>1812</ele>
        <time>2013-07-06T09:29:05Z</time>
      </trkpt>
      <trkpt lat="42.69827" lon="1.40179">
        <ele>1813</ele>
        <time>2013-07-06T09:29:13Z</time>
      </trkpt>
      <trkpt lat="42.69824" lon="1.40177">
        <ele>1813</ele>
        <time>2013-07-06T09:29:20Z</time>
      </trkpt>
      <trkpt lat="42.69821" lon="1.40175">
        <ele>1814</ele>
        <time>2013-07-06T09:29:26Z</time>
      </trkpt>
      <trkpt lat="42.69818" lon="1.40172">
        <ele>1814</ele>
        <time>2013-07-06T09:29:33Z</time>
      </trkpt>
      <trkpt lat="42.69815" lon="1.4017">
        <ele>1815</ele>
        <time>2013-07-06T09:29:40Z</time>
      </trkpt>
      <trkpt lat="42.69814" lon="1.40168">
        <ele>1816</ele>
        <time>2013-07-06T09:29:48Z</time>
      </trkpt>
      <trkpt lat="42.69812" lon="1.40168">
        <ele>1817</ele>
        <time>2013-07-06T09:30:01Z</time>
      </trkpt>
      <trkpt lat="42.6981" lon="1.40165">
        <ele>1817</ele>
        <time>2013-07-06T09:30:15Z</time>
      </trkpt>
      <trkpt lat="42.6981" lon="1.4016">
        <ele>1817</ele>
        <time>2013-07-06T09:30:20Z</time>
      </trkpt>
      <trkpt lat="42.69808" lon="1.40149">
        <ele>1817</ele>
        <time>2013-07-06T09:30:29Z</time>
      </trkpt>
      <trkpt lat="42.69806" lon="1.40148">
        <ele>1817</ele>
        <time>2013-07-06T09:30:31Z</time>
      </trkpt>
      <trkpt lat="42.69801" lon="1.40143">
        <ele>1818</ele>
        <time>2013-07-06T09:30:38Z</time>
      </trkpt>
      <trkpt lat="42.69796" lon="1.4014">
        <ele>1818</ele>
        <time>2013-07-06T09:30:45Z</time>
      </trkpt>
      <trkpt lat="42.69795" lon="1.40133">
        <ele>1819</ele>
        <time>2013-07-06T09:30:53Z</time>
      </trkpt>
      <trkpt lat="42.69791" lon="1.40128">
        <ele>1820</ele>
        <time>2013-07-06T09:31:01Z</time>
      </trkpt>
      <trkpt lat="42.69788" lon="1.40125">
        <ele>1821</ele>
        <time>2013-07-06T09:31:07Z</time>
      </trkpt>
      <trkpt lat="42.69787" lon="1.4012">
        <ele>1821</ele>
        <time>2013-07-06T09:31:13Z</time>
      </trkpt>
      <trkpt lat="42.69786" lon="1.40114">
        <ele>1822</ele>
        <time>2013-07-06T09:31:20Z</time>
      </trkpt>
      <trkpt lat="42.69785" lon="1.40111">
        <ele>1823</ele>
        <time>2013-07-06T09:31:26Z</time>
      </trkpt>
      <trkpt lat="42.69783" lon="1.40106">
        <ele>1823</ele>
        <time>2013-07-06T09:31:33Z</time>
      </trkpt>
      <trkpt lat="42.69785" lon="1.40102">
        <ele>1824</ele>
        <time>2013-07-06T09:31:40Z</time>
      </trkpt>
      <trkpt lat="42.69786" lon="1.40094">
        <ele>1824</ele>
        <time>2013-07-06T09:31:47Z</time>
      </trkpt>
      <trkpt lat="42.69787" lon="1.40092">
        <ele>1825</ele>
        <time>2013-07-06T09:31:51Z</time>
      </trkpt>
      <trkpt lat="42.69784" lon="1.40083">
        <ele>1826</ele>
        <time>2013-07-06T09:32:00Z</time>
      </trkpt>
      <trkpt lat="42.69782" lon="1.40076">
        <ele>1828</ele>
        <time>2013-07-06T09:32:08Z</time>
      </trkpt>
      <trkpt lat="42.69779" lon="1.40078">
        <ele>1828</ele>
        <time>2013-07-06T09:32:15Z</time>
      </trkpt>
      <trkpt lat="42.69778" lon="1.40078">
        <ele>1829</ele>
        <time>2013-07-06T09:32:27Z</time>
      </trkpt>
      <trkpt lat="42.69777" lon="1.40072">
        <ele>1829</ele>
        <time>2013-07-06T09:32:35Z</time>
      </trkpt>
      <trkpt lat="42.69773" lon="1.40065">
        <ele>1830</ele>
        <time>2013-07-06T09:32:44Z</time>
      </trkpt>
      <trkpt lat="42.69771" lon="1.40062">
        <ele>1831</ele>
        <time>2013-07-06T09:32:51Z</time>
      </trkpt>
      <trkpt lat="42.69767" lon="1.40061">
        <ele>1832</ele>
        <time>2013-07-06T09:32:58Z</time>
      </trkpt>
      <trkpt lat="42.69765" lon="1.40057">
        <ele>1833</ele>
        <time>2013-07-06T09:33:06Z</time>
      </trkpt>
      <trkpt lat="42.69761" lon="1.40052">
        <ele>1834</ele>
        <time>2013-07-06T09:33:13Z</time>
      </trkpt>
      <trkpt lat="42.69755" lon="1.40048">
        <ele>1835</ele>
        <time>2013-07-06T09:33:22Z</time>
      </trkpt>
      <trkpt lat="42.69751" lon="1.40043">
        <ele>1836</ele>
        <time>2013-07-06T09:33:30Z</time>
      </trkpt>
      <trkpt lat="42.69748" lon="1.40042">
        <ele>1838</ele>
        <time>2013-07-06T09:33:39Z</time>
      </trkpt>
      <trkpt lat="42.69743" lon="1.40037">
        <ele>1839</ele>
        <time>2013-07-06T09:33:48Z</time>
      </trkpt>
      <trkpt lat="42.6974" lon="1.40034">
        <ele>1840</ele>
        <time>2013-07-06T09:33:54Z</time>
      </trkpt>
      <trkpt lat="42.69737" lon="1.40033">
        <ele>1840</ele>
        <time>2013-07-06T09:34:02Z</time>
      </trkpt>
      <trkpt lat="42.69735" lon="1.40031">
        <ele>1842</ele>
        <time>2013-07-06T09:34:08Z</time>
      </trkpt>
      <trkpt lat="42.69733" lon="1.40029">
        <ele>1842</ele>
        <time>2013-07-06T09:34:14Z</time>
      </trkpt>
      <trkpt lat="42.6973" lon="1.40027">
        <ele>1843</ele>
        <time>2013-07-06T09:34:22Z</time>
      </trkpt>
      <trkpt lat="42.69728" lon="1.40026">
        <ele>1844</ele>
        <time>2013-07-06T09:34:31Z</time>
      </trkpt>
      <trkpt lat="42.69729" lon="1.40028">
        <ele>1845</ele>
        <time>2013-07-06T09:34:39Z</time>
      </trkpt>
      <trkpt lat="42.69727" lon="1.40026">
        <ele>1845</ele>
        <time>2013-07-06T09:34:55Z</time>
      </trkpt>
      <trkpt lat="42.69722" lon="1.40023">
        <ele>1847</ele>
        <time>2013-07-06T09:35:03Z</time>
      </trkpt>
      <trkpt lat="42.69718" lon="1.40022">
        <ele>1848</ele>
        <time>2013-07-06T09:35:11Z</time>
      </trkpt>
      <trkpt lat="42.69714" lon="1.40019">
        <ele>1849</ele>
        <time>2013-07-06T09:35:19Z</time>
      </trkpt>
      <trkpt lat="42.69711" lon="1.40015">
        <ele>1850</ele>
        <time>2013-07-06T09:35:26Z</time>
      </trkpt>
      <trkpt lat="42.69707" lon="1.40013">
        <ele>1852</ele>
        <time>2013-07-06T09:35:34Z</time>
      </trkpt>
      <trkpt lat="42.69704" lon="1.40016">
        <ele>1853</ele>
        <time>2013-07-06T09:35:40Z</time>
      </trkpt>
      <trkpt lat="42.69701" lon="1.40011">
        <ele>1854</ele>
        <time>2013-07-06T09:35:48Z</time>
      </trkpt>
      <trkpt lat="42.697" lon="1.40007">
        <ele>1855</ele>
        <time>2013-07-06T09:35:54Z</time>
      </trkpt>
      <trkpt lat="42.69699" lon="1.40005">
        <ele>1855</ele>
        <time>2013-07-06T09:36:03Z</time>
      </trkpt>
      <trkpt lat="42.69698" lon="1.40004">
        <ele>1855</ele>
        <time>2013-07-06T09:36:10Z</time>
      </trkpt>
      <trkpt lat="42.69694" lon="1.40003">
        <ele>1855</ele>
        <time>2013-07-06T09:36:17Z</time>
      </trkpt>
      <trkpt lat="42.69694" lon="1.4">
        <ele>1857</ele>
        <time>2013-07-06T09:36:24Z</time>
      </trkpt>
      <trkpt lat="42.69696" lon="1.39997">
        <ele>1857</ele>
        <time>2013-07-06T09:36:31Z</time>
      </trkpt>
      <trkpt lat="42.69694" lon="1.39993">
        <ele>1859</ele>
        <time>2013-07-06T09:36:39Z</time>
      </trkpt>
      <trkpt lat="42.69692" lon="1.40001">
        <ele>1859</ele>
        <time>2013-07-06T09:36:52Z</time>
      </trkpt>
      <trkpt lat="42.69694" lon="1.40003">
        <ele>1858</ele>
        <time>2013-07-06T09:37:07Z</time>
      </trkpt>
      <trkpt lat="42.69695" lon="1.40001">
        <ele>1859</ele>
        <time>2013-07-06T09:37:21Z</time>
      </trkpt>
      <trkpt lat="42.69694" lon="1.39999">
        <ele>1858</ele>
        <time>2013-07-06T09:37:36Z</time>
      </trkpt>
      <trkpt lat="42.69694" lon="1.39996">
        <ele>1859</ele>
        <time>2013-07-06T09:37:54Z</time>
      </trkpt>
      <trkpt lat="42.69692" lon="1.39989">
        <ele>1860</ele>
        <time>2013-07-06T09:38:03Z</time>
      </trkpt>
      <trkpt lat="42.69692" lon="1.39987">
        <ele>1860</ele>
        <time>2013-07-06T09:38:09Z</time>
      </trkpt>
      <trkpt lat="42.69693" lon="1.3998">
        <ele>1861</ele>
        <time>2013-07-06T09:38:17Z</time>
      </trkpt>
      <trkpt lat="42.69695" lon="1.39978">
        <ele>1862</ele>
        <time>2013-07-06T09:38:25Z</time>
      </trkpt>
      <trkpt lat="42.69696" lon="1.39975">
        <ele>1863</ele>
        <time>2013-07-06T09:38:32Z</time>
      </trkpt>
      <trkpt lat="42.69697" lon="1.39974">
        <ele>1863</ele>
        <time>2013-07-06T09:38:34Z</time>
      </trkpt>
      <trkpt lat="42.69698" lon="1.39967">
        <ele>1865</ele>
        <time>2013-07-06T09:38:42Z</time>
      </trkpt>
      <trkpt lat="42.69695" lon="1.39963">
        <ele>1866</ele>
        <time>2013-07-06T09:38:51Z</time>
      </trkpt>
      <trkpt lat="42.69698" lon="1.39961">
        <ele>1867</ele>
        <time>2013-07-06T09:38:58Z</time>
      </trkpt>
      <trkpt lat="42.69699" lon="1.39961">
        <ele>1868</ele>
        <time>2013-07-06T09:39:05Z</time>
      </trkpt>
      <trkpt lat="42.69702" lon="1.39956">
        <ele>1869</ele>
        <time>2013-07-06T09:39:13Z</time>
      </trkpt>
      <trkpt lat="42.69702" lon="1.39952">
        <ele>1869</ele>
        <time>2013-07-06T09:39:21Z</time>
      </trkpt>
      <trkpt lat="42.69703" lon="1.39947">
        <ele>1872</ele>
        <time>2013-07-06T09:39:32Z</time>
      </trkpt>
      <trkpt lat="42.69701" lon="1.39943">
        <ele>1872</ele>
        <time>2013-07-06T09:39:41Z</time>
      </trkpt>
      <trkpt lat="42.69701" lon="1.39941">
        <ele>1873</ele>
        <time>2013-07-06T09:39:48Z</time>
      </trkpt>
      <trkpt lat="42.69702" lon="1.39938">
        <ele>1874</ele>
        <time>2013-07-06T09:39:55Z</time>
      </trkpt>
      <trkpt lat="42.69702" lon="1.39934">
        <ele>1876</ele>
        <time>2013-07-06T09:40:05Z</time>
      </trkpt>
      <trkpt lat="42.69702" lon="1.39938">
        <ele>1877</ele>
        <time>2013-07-06T09:40:15Z</time>
      </trkpt>
      <trkpt lat="42.69703" lon="1.3993">
        <ele>1878</ele>
        <time>2013-07-06T09:40:24Z</time>
      </trkpt>
      <trkpt lat="42.69701" lon="1.39923">
        <ele>1880</ele>
        <time>2013-07-06T09:40:34Z</time>
      </trkpt>
      <trkpt lat="42.69701" lon="1.39919">
        <ele>1880</ele>
        <time>2013-07-06T09:40:42Z</time>
      </trkpt>
      <trkpt lat="42.697" lon="1.39916">
        <ele>1881</ele>
        <time>2013-07-06T09:40:49Z</time>
      </trkpt>
      <trkpt lat="42.69701" lon="1.39914">
        <ele>1883</ele>
        <time>2013-07-06T09:40:57Z</time>
      </trkpt>
      <trkpt lat="42.69701" lon="1.3991">
        <ele>1885</ele>
        <time>2013-07-06T09:41:06Z</time>
      </trkpt>
      <trkpt lat="42.69702" lon="1.39904">
        <ele>1886</ele>
        <time>2013-07-06T09:41:14Z</time>
      </trkpt>
      <trkpt lat="42.69702" lon="1.39902">
        <ele>1888</ele>
        <time>2013-07-06T09:41:22Z</time>
      </trkpt>
      <trkpt lat="42.697" lon="1.39897">
        <ele>1889</ele>
        <time>2013-07-06T09:41:31Z</time>
      </trkpt>
      <trkpt lat="42.69699" lon="1.39893">
        <ele>1891</ele>
        <time>2013-07-06T09:41:39Z</time>
      </trkpt>
      <trkpt lat="42.69699" lon="1.39891">
        <ele>1891</ele>
        <time>2013-07-06T09:41:51Z</time>
      </trkpt>
      <trkpt lat="42.69697" lon="1.39888">
        <ele>1892</ele>
        <time>2013-07-06T09:42:00Z</time>
      </trkpt>
      <trkpt lat="42.69693" lon="1.3989">
        <ele>1893</ele>
        <time>2013-07-06T09:42:07Z</time>
      </trkpt>
      <trkpt lat="42.69692" lon="1.39885">
        <ele>1894</ele>
        <time>2013-07-06T09:42:15Z</time>
      </trkpt>
      <trkpt lat="42.69692" lon="1.39882">
        <ele>1895</ele>
        <time>2013-07-06T09:42:22Z</time>
      </trkpt>
      <trkpt lat="42.69695" lon="1.39881">
        <ele>1896</ele>
        <time>2013-07-06T09:42:30Z</time>
      </trkpt>
      <trkpt lat="42.69694" lon="1.39879">
        <ele>1897</ele>
        <time>2013-07-06T09:42:36Z</time>
      </trkpt>
      <trkpt lat="42.69694" lon="1.39876">
        <ele>1898</ele>
        <time>2013-07-06T09:42:44Z</time>
      </trkpt>
      <trkpt lat="42.69692" lon="1.39873">
        <ele>1898</ele>
        <time>2013-07-06T09:42:51Z</time>
      </trkpt>
      <trkpt lat="42.6969" lon="1.39871">
        <ele>1900</ele>
        <time>2013-07-06T09:42:59Z</time>
      </trkpt>
      <trkpt lat="42.6969" lon="1.3987">
        <ele>1900</ele>
        <time>2013-07-06T09:43:08Z</time>
      </trkpt>
      <trkpt lat="42.69691" lon="1.39867">
        <ele>1902</ele>
        <time>2013-07-06T09:43:16Z</time>
      </trkpt>
      <trkpt lat="42.69691" lon="1.39867">
        <ele>1903</ele>
        <time>2013-07-06T09:43:24Z</time>
      </trkpt>
      <trkpt lat="42.6969" lon="1.39868">
        <ele>1904</ele>
        <time>2013-07-06T09:43:36Z</time>
      </trkpt>
      <trkpt lat="42.69692" lon="1.39864">
        <ele>1904</ele>
        <time>2013-07-06T09:43:45Z</time>
      </trkpt>
      <trkpt lat="42.69693" lon="1.39864">
        <ele>1904</ele>
        <time>2013-07-06T09:43:57Z</time>
      </trkpt>
      <trkpt lat="42.69694" lon="1.39865">
        <ele>1905</ele>
        <time>2013-07-06T09:44:06Z</time>
      </trkpt>
      <trkpt lat="42.69694" lon="1.39862">
        <ele>1907</ele>
        <time>2013-07-06T09:44:14Z</time>
      </trkpt>
      <trkpt lat="42.69693" lon="1.39861">
        <ele>1908</ele>
        <time>2013-07-06T09:44:22Z</time>
      </trkpt>
      <trkpt lat="42.69691" lon="1.39859">
        <ele>1909</ele>
        <time>2013-07-06T09:44:31Z</time>
      </trkpt>
      <trkpt lat="42.69693" lon="1.39857">
        <ele>1910</ele>
        <time>2013-07-06T09:44:40Z</time>
      </trkpt>
      <trkpt lat="42.69693" lon="1.39857">
        <ele>1910</ele>
        <time>2013-07-06T09:44:51Z</time>
      </trkpt>
      <trkpt lat="42.69695" lon="1.39858">
        <ele>1911</ele>
        <time>2013-07-06T09:45:00Z</time>
      </trkpt>
      <trkpt lat="42.69696" lon="1.39856">
        <ele>1911</ele>
        <time>2013-07-06T09:45:09Z</time>
      </trkpt>
      <trkpt lat="42.69694" lon="1.39856">
        <ele>1912</ele>
        <time>2013-07-06T09:45:15Z</time>
      </trkpt>
      <trkpt lat="42.69696" lon="1.39855">
        <ele>1912</ele>
        <time>2013-07-06T09:45:29Z</time>
      </trkpt>
      <trkpt lat="42.697" lon="1.39852">
        <ele>1913</ele>
        <time>2013-07-06T09:45:38Z</time>
      </trkpt>
      <trkpt lat="42.69701" lon="1.39851">
        <ele>1915</ele>
        <time>2013-07-06T09:45:40Z</time>
      </trkpt>
      <trkpt lat="42.69703" lon="1.39847">
        <ele>1915</ele>
        <time>2013-07-06T09:45:47Z</time>
      </trkpt>
      <trkpt lat="42.69703" lon="1.39847">
        <ele>1915</ele>
        <time>2013-07-06T09:45:57Z</time>
      </trkpt>
      <trkpt lat="42.69705" lon="1.39846">
        <ele>1915</ele>
        <time>2013-07-06T09:46:08Z</time>
      </trkpt>
      <trkpt lat="42.69707" lon="1.39842">
        <ele>1915</ele>
        <time>2013-07-06T09:46:15Z</time>
      </trkpt>
      <trkpt lat="42.6971" lon="1.3984">
        <ele>1915</ele>
        <time>2013-07-06T09:46:19Z</time>
      </trkpt>
      <trkpt lat="42.69712" lon="1.39829">
        <ele>1915</ele>
        <time>2013-07-06T09:46:28Z</time>
      </trkpt>
      <trkpt lat="42.69709" lon="1.39826">
        <ele>1915</ele>
        <time>2013-07-06T09:46:39Z</time>
      </trkpt>
      <trkpt lat="42.69708" lon="1.39826">
        <ele>1916</ele>
        <time>2013-07-06T09:46:48Z</time>
      </trkpt>
      <trkpt lat="42.69709" lon="1.39823">
        <ele>1915</ele>
        <time>2013-07-06T09:46:58Z</time>
      </trkpt>
      <trkpt lat="42.69709" lon="1.39824">
        <ele>1916</ele>
        <time>2013-07-06T09:47:10Z</time>
      </trkpt>
      <trkpt lat="42.69712" lon="1.39818">
        <ele>1916</ele>
        <time>2013-07-06T09:47:18Z</time>
      </trkpt>
      <trkpt lat="42.69711" lon="1.3981">
        <ele>1916</ele>
        <time>2013-07-06T09:47:25Z</time>
      </trkpt>
      <trkpt lat="42.69713" lon="1.39808">
        <ele>1917</ele>
        <time>2013-07-06T09:47:33Z</time>
      </trkpt>
      <trkpt lat="42.69715" lon="1.39804">
        <ele>1918</ele>
        <time>2013-07-06T09:47:39Z</time>
      </trkpt>
      <trkpt lat="42.69715" lon="1.39797">
        <ele>1919</ele>
        <time>2013-07-06T09:47:47Z</time>
      </trkpt>
      <trkpt lat="42.69711" lon="1.39794">
        <ele>1919</ele>
        <time>2013-07-06T09:47:53Z</time>
      </trkpt>
      <trkpt lat="42.69711" lon="1.39789">
        <ele>1920</ele>
        <time>2013-07-06T09:48:00Z</time>
      </trkpt>
      <trkpt lat="42.69711" lon="1.39785">
        <ele>1922</ele>
        <time>2013-07-06T09:48:07Z</time>
      </trkpt>
      <trkpt lat="42.6971" lon="1.39781">
        <ele>1923</ele>
        <time>2013-07-06T09:48:14Z</time>
      </trkpt>
      <trkpt lat="42.69709" lon="1.39776">
        <ele>1924</ele>
        <time>2013-07-06T09:48:21Z</time>
      </trkpt>
      <trkpt lat="42.69709" lon="1.39775">
        <ele>1924</ele>
        <time>2013-07-06T09:48:23Z</time>
      </trkpt>
      <trkpt lat="42.69708" lon="1.39769">
        <ele>1925</ele>
        <time>2013-07-06T09:48:30Z</time>
      </trkpt>
      <trkpt lat="42.69709" lon="1.39766">
        <ele>1926</ele>
        <time>2013-07-06T09:48:38Z</time>
      </trkpt>
      <trkpt lat="42.6971" lon="1.39757">
        <ele>1928</ele>
        <time>2013-07-06T09:48:48Z</time>
      </trkpt>
      <trkpt lat="42.69711" lon="1.39752">
        <ele>1929</ele>
        <time>2013-07-06T09:48:56Z</time>
      </trkpt>
      <trkpt lat="42.6971" lon="1.39745">
        <ele>1930</ele>
        <time>2013-07-06T09:49:03Z</time>
      </trkpt>
      <trkpt lat="42.69707" lon="1.39742">
        <ele>1931</ele>
        <time>2013-07-06T09:49:09Z</time>
      </trkpt>
      <trkpt lat="42.69708" lon="1.39742">
        <ele>1931</ele>
        <time>2013-07-06T09:49:17Z</time>
      </trkpt>
      <trkpt lat="42.69709" lon="1.39737">
        <ele>1931</ele>
        <time>2013-07-06T09:49:27Z</time>
      </trkpt>
      <trkpt lat="42.69707" lon="1.3973">
        <ele>1932</ele>
        <time>2013-07-06T09:49:35Z</time>
      </trkpt>
      <trkpt lat="42.697" lon="1.39729">
        <ele>1933</ele>
        <time>2013-07-06T09:49:41Z</time>
      </trkpt>
      <trkpt lat="42.69696" lon="1.39726">
        <ele>1933</ele>
        <time>2013-07-06T09:49:48Z</time>
      </trkpt>
      <trkpt lat="42.69696" lon="1.39721">
        <ele>1935</ele>
        <time>2013-07-06T09:49:56Z</time>
      </trkpt>
      <trkpt lat="42.69696" lon="1.39717">
        <ele>1936</ele>
        <time>2013-07-06T09:50:05Z</time>
      </trkpt>
      <trkpt lat="42.69694" lon="1.39712">
        <ele>1936</ele>
        <time>2013-07-06T09:50:17Z</time>
      </trkpt>
      <trkpt lat="42.69692" lon="1.39711">
        <ele>1936</ele>
        <time>2013-07-06T09:50:24Z</time>
      </trkpt>
      <trkpt lat="42.69692" lon="1.39708">
        <ele>1938</ele>
        <time>2013-07-06T09:50:31Z</time>
      </trkpt>
      <trkpt lat="42.69692" lon="1.39708">
        <ele>1938</ele>
        <time>2013-07-06T09:50:36Z</time>
      </trkpt>
      <trkpt lat="42.69687" lon="1.39707">
        <ele>1938</ele>
        <time>2013-07-06T09:50:42Z</time>
      </trkpt>
      <trkpt lat="42.69685" lon="1.3971">
        <ele>1939</ele>
        <time>2013-07-06T09:50:48Z</time>
      </trkpt>
      <trkpt lat="42.6968" lon="1.3971">
        <ele>1940</ele>
        <time>2013-07-06T09:50:55Z</time>
      </trkpt>
      <trkpt lat="42.6968" lon="1.39709">
        <ele>1940</ele>
        <time>2013-07-06T09:51:05Z</time>
      </trkpt>
      <trkpt lat="42.69679" lon="1.39708">
        <ele>1941</ele>
        <time>2013-07-06T09:51:15Z</time>
      </trkpt>
      <trkpt lat="42.69678" lon="1.39706">
        <ele>1942</ele>
        <time>2013-07-06T09:51:24Z</time>
      </trkpt>
      <trkpt lat="42.69676" lon="1.39706">
        <ele>1943</ele>
        <time>2013-07-06T09:51:30Z</time>
      </trkpt>
      <trkpt lat="42.69673" lon="1.39707">
        <ele>1944</ele>
        <time>2013-07-06T09:51:37Z</time>
      </trkpt>
      <trkpt lat="42.6967" lon="1.39708">
        <ele>1945</ele>
        <time>2013-07-06T09:51:45Z</time>
      </trkpt>
      <trkpt lat="42.6967" lon="1.39706">
        <ele>1946</ele>
        <time>2013-07-06T09:51:53Z</time>
      </trkpt>
      <trkpt lat="42.69667" lon="1.39706">
        <ele>1947</ele>
        <time>2013-07-06T09:52:02Z</time>
      </trkpt>
      <trkpt lat="42.69665" lon="1.39705">
        <ele>1949</ele>
        <time>2013-07-06T09:52:08Z</time>
      </trkpt>
      <trkpt lat="42.69662" lon="1.39707">
        <ele>1949</ele>
        <time>2013-07-06T09:52:16Z</time>
      </trkpt>
      <trkpt lat="42.69661" lon="1.3971">
        <ele>1950</ele>
        <time>2013-07-06T09:52:24Z</time>
      </trkpt>
      <trkpt lat="42.69661" lon="1.39708">
        <ele>1950</ele>
        <time>2013-07-06T09:52:36Z</time>
      </trkpt>
      <trkpt lat="42.6966" lon="1.39709">
        <ele>1951</ele>
        <time>2013-07-06T09:52:45Z</time>
      </trkpt>
      <trkpt lat="42.6966" lon="1.39707">
        <ele>1952</ele>
        <time>2013-07-06T09:52:53Z</time>
      </trkpt>
      <trkpt lat="42.69658" lon="1.39707">
        <ele>1953</ele>
        <time>2013-07-06T09:52:59Z</time>
      </trkpt>
      <trkpt lat="42.69657" lon="1.39706">
        <ele>1954</ele>
        <time>2013-07-06T09:53:07Z</time>
      </trkpt>
      <trkpt lat="42.69656" lon="1.39704">
        <ele>1955</ele>
        <time>2013-07-06T09:53:15Z</time>
      </trkpt>
      <trkpt lat="42.69657" lon="1.39703">
        <ele>1956</ele>
        <time>2013-07-06T09:53:22Z</time>
      </trkpt>
      <trkpt lat="42.69657" lon="1.39701">
        <ele>1957</ele>
        <time>2013-07-06T09:53:31Z</time>
      </trkpt>
      <trkpt lat="42.69657" lon="1.39698">
        <ele>1957</ele>
        <time>2013-07-06T09:53:40Z</time>
      </trkpt>
      <trkpt lat="42.69656" lon="1.39698">
        <ele>1958</ele>
        <time>2013-07-06T09:53:48Z</time>
      </trkpt>
      <trkpt lat="42.69654" lon="1.39696">
        <ele>1959</ele>
        <time>2013-07-06T09:53:56Z</time>
      </trkpt>
      <trkpt lat="42.69653" lon="1.39695">
        <ele>1960</ele>
        <time>2013-07-06T09:54:04Z</time>
      </trkpt>
      <trkpt lat="42.69652" lon="1.39692">
        <ele>1961</ele>
        <time>2013-07-06T09:54:16Z</time>
      </trkpt>
      <trkpt lat="42.69651" lon="1.39692">
        <ele>1961</ele>
        <time>2013-07-06T09:54:24Z</time>
      </trkpt>
      <trkpt lat="42.69652" lon="1.39689">
        <ele>1962</ele>
        <time>2013-07-06T09:54:36Z</time>
      </trkpt>
      <trkpt lat="42.69651" lon="1.39688">
        <ele>1963</ele>
        <time>2013-07-06T09:54:43Z</time>
      </trkpt>
      <trkpt lat="42.6965" lon="1.39686">
        <ele>1963</ele>
        <time>2013-07-06T09:54:55Z</time>
      </trkpt>
      <trkpt lat="42.69648" lon="1.39686">
        <ele>1964</ele>
        <time>2013-07-06T09:55:03Z</time>
      </trkpt>
      <trkpt lat="42.69646" lon="1.39685">
        <ele>1965</ele>
        <time>2013-07-06T09:55:10Z</time>
      </trkpt>
      <trkpt lat="42.69643" lon="1.39687">
        <ele>1965</ele>
        <time>2013-07-06T09:55:18Z</time>
      </trkpt>
      <trkpt lat="42.69641" lon="1.39687">
        <ele>1966</ele>
        <time>2013-07-06T09:55:25Z</time>
      </trkpt>
      <trkpt lat="42.69641" lon="1.39688">
        <ele>1966</ele>
        <time>2013-07-06T09:55:34Z</time>
      </trkpt>
      <trkpt lat="42.69641" lon="1.39688">
        <ele>1966</ele>
        <time>2013-07-06T09:55:35Z</time>
      </trkpt>
      <trkpt lat="42.69639" lon="1.39693">
        <ele>1967</ele>
        <time>2013-07-06T09:55:44Z</time>
      </trkpt>
      <trkpt lat="42.6964" lon="1.39688">
        <ele>1968</ele>
        <time>2013-07-06T09:55:50Z</time>
      </trkpt>
      <trkpt lat="42.69641" lon="1.39684">
        <ele>1968</ele>
        <time>2013-07-06T09:55:57Z</time>
      </trkpt>
      <trkpt lat="42.69641" lon="1.3968">
        <ele>1969</ele>
        <time>2013-07-06T09:56:06Z</time>
      </trkpt>
      <trkpt lat="42.69641" lon="1.39678">
        <ele>1970</ele>
        <time>2013-07-06T09:56:13Z</time>
      </trkpt>
      <trkpt lat="42.69642" lon="1.39677">
        <ele>1970</ele>
        <time>2013-07-06T09:56:20Z</time>
      </trkpt>
      <trkpt lat="42.69642" lon="1.39675">
        <ele>1971</ele>
        <time>2013-07-06T09:56:32Z</time>
      </trkpt>
      <trkpt lat="42.69641" lon="1.39669">
        <ele>1972</ele>
        <time>2013-07-06T09:56:42Z</time>
      </trkpt>
      <trkpt lat="42.69641" lon="1.39667">
        <ele>1973</ele>
        <time>2013-07-06T09:56:50Z</time>
      </trkpt>
      <trkpt lat="42.6964" lon="1.39665">
        <ele>1974</ele>
        <time>2013-07-06T09:56:57Z</time>
      </trkpt>
      <trkpt lat="42.69637" lon="1.39667">
        <ele>1975</ele>
        <time>2013-07-06T09:57:07Z</time>
      </trkpt>
      <trkpt lat="42.69636" lon="1.39663">
        <ele>1976</ele>
        <time>2013-07-06T09:57:14Z</time>
      </trkpt>
      <trkpt lat="42.69632" lon="1.39664">
        <ele>1978</ele>
        <time>2013-07-06T09:57:23Z</time>
      </trkpt>
      <trkpt lat="42.69629" lon="1.39669">
        <ele>1979</ele>
        <time>2013-07-06T09:57:31Z</time>
      </trkpt>
      <trkpt lat="42.69631" lon="1.3967">
        <ele>1979</ele>
        <time>2013-07-06T09:57:38Z</time>
      </trkpt>
      <trkpt lat="42.69635" lon="1.39671">
        <ele>1980</ele>
        <time>2013-07-06T09:57:51Z</time>
      </trkpt>
      <trkpt lat="42.69632" lon="1.39668">
        <ele>1980</ele>
        <time>2013-07-06T09:57:58Z</time>
      </trkpt>
      <trkpt lat="42.69631" lon="1.39664">
        <ele>1982</ele>
        <time>2013-07-06T09:58:05Z</time>
      </trkpt>
      <trkpt lat="42.69627" lon="1.39661">
        <ele>1983</ele>
        <time>2013-07-06T09:58:12Z</time>
      </trkpt>
      <trkpt lat="42.69624" lon="1.39659">
        <ele>1984</ele>
        <time>2013-07-06T09:58:21Z</time>
      </trkpt>
      <trkpt lat="42.69622" lon="1.39657">
        <ele>1985</ele>
        <time>2013-07-06T09:58:30Z</time>
      </trkpt>
      <trkpt lat="42.69617" lon="1.39652">
        <ele>1986</ele>
        <time>2013-07-06T09:58:37Z</time>
      </trkpt>
      <trkpt lat="42.69614" lon="1.39654">
        <ele>1987</ele>
        <time>2013-07-06T09:58:44Z</time>
      </trkpt>
      <trkpt lat="42.69611" lon="1.39652">
        <ele>1987</ele>
        <time>2013-07-06T09:58:54Z</time>
      </trkpt>
      <trkpt lat="42.69612" lon="1.39652">
        <ele>1986</ele>
        <time>2013-07-06T09:59:04Z</time>
      </trkpt>
      <trkpt lat="42.6961" lon="1.39652">
        <ele>1986</ele>
        <time>2013-07-06T09:59:24Z</time>
      </trkpt>
      <trkpt lat="42.69611" lon="1.39653">
        <ele>1986</ele>
        <time>2013-07-06T09:59:45Z</time>
      </trkpt>
      <trkpt lat="42.69612" lon="1.39651">
        <ele>1986</ele>
        <time>2013-07-06T10:00:00Z</time>
      </trkpt>
      <trkpt lat="42.6961" lon="1.39651">
        <ele>1987</ele>
        <time>2013-07-06T10:00:12Z</time>
      </trkpt>
      <trkpt lat="42.69611" lon="1.39651">
        <ele>1987</ele>
        <time>2013-07-06T10:00:21Z</time>
      </trkpt>
      <trkpt lat="42.6961" lon="1.39652">
        <ele>1987</ele>
        <time>2013-07-06T10:00:30Z</time>
      </trkpt>
      <trkpt lat="42.6961" lon="1.39654">
        <ele>1987</ele>
        <time>2013-07-06T10:00:43Z</time>
      </trkpt>
      <trkpt lat="42.69613" lon="1.39653">
        <ele>1987</ele>
        <time>2013-07-06T10:00:46Z</time>
      </trkpt>
      <trkpt lat="42.69619" lon="1.3965">
        <ele>1987</ele>
        <time>2013-07-06T10:00:53Z</time>
      </trkpt>
      <trkpt lat="42.69621" lon="1.39646">
        <ele>1987</ele>
        <time>2013-07-06T10:01:03Z</time>
      </trkpt>
      <trkpt lat="42.69622" lon="1.39645">
        <ele>1987</ele>
        <time>2013-07-06T10:01:12Z</time>
      </trkpt>
      <trkpt lat="42.69625" lon="1.39639">
        <ele>1987</ele>
        <time>2013-07-06T10:01:21Z</time>
      </trkpt>
      <trkpt lat="42.69625" lon="1.39639">
        <ele>1987</ele>
        <time>2013-07-06T10:01:30Z</time>
      </trkpt>
      <trkpt lat="42.69625" lon="1.3964">
        <ele>1987</ele>
        <time>2013-07-06T10:01:44Z</time>
      </trkpt>
      <trkpt lat="42.69625" lon="1.39641">
        <ele>1988</ele>
        <time>2013-07-06T10:01:58Z</time>
      </trkpt>
      <trkpt lat="42.69625" lon="1.39638">
        <ele>1987</ele>
        <time>2013-07-06T10:02:09Z</time>
      </trkpt>
      <trkpt lat="42.69625" lon="1.39638">
        <ele>1988</ele>
        <time>2013-07-06T10:02:21Z</time>
      </trkpt>
      <trkpt lat="42.69626" lon="1.39638">
        <ele>1987</ele>
        <time>2013-07-06T10:02:32Z</time>
      </trkpt>
      <trkpt lat="42.69627" lon="1.39637">
        <ele>1988</ele>
        <time>2013-07-06T10:02:47Z</time>
      </trkpt>
      <trkpt lat="42.69628" lon="1.39638">
        <ele>1987</ele>
        <time>2013-07-06T10:02:59Z</time>
      </trkpt>
      <trkpt lat="42.69627" lon="1.39638">
        <ele>1988</ele>
        <time>2013-07-06T10:03:18Z</time>
      </trkpt>
      <trkpt lat="42.69627" lon="1.39638">
        <ele>1988</ele>
        <time>2013-07-06T10:03:31Z</time>
      </trkpt>
      <trkpt lat="42.69626" lon="1.39639">
        <ele>1988</ele>
        <time>2013-07-06T10:03:41Z</time>
      </trkpt>
      <trkpt lat="42.69622" lon="1.39642">
        <ele>1988</ele>
        <time>2013-07-06T10:03:54Z</time>
      </trkpt>
      <trkpt lat="42.69621" lon="1.39641">
        <ele>1988</ele>
        <time>2013-07-06T10:04:08Z</time>
      </trkpt>
      <trkpt lat="42.69624" lon="1.39643">
        <ele>1989</ele>
        <time>2013-07-06T10:04:21Z</time>
      </trkpt>
      <trkpt lat="42.69624" lon="1.39642">
        <ele>1988</ele>
        <time>2013-07-06T10:04:35Z</time>
      </trkpt>
      <trkpt lat="42.69621" lon="1.3964">
        <ele>1988</ele>
        <time>2013-07-06T10:04:49Z</time>
      </trkpt>
      <trkpt lat="42.69619" lon="1.39647">
        <ele>1989</ele>
        <time>2013-07-06T10:04:59Z</time>
      </trkpt>
      <trkpt lat="42.69615" lon="1.39646">
        <ele>1989</ele>
        <time>2013-07-06T10:05:07Z</time>
      </trkpt>
      <trkpt lat="42.69613" lon="1.39642">
        <ele>1989</ele>
        <time>2013-07-06T10:05:14Z</time>
      </trkpt>
      <trkpt lat="42.69608" lon="1.3964">
        <ele>1991</ele>
        <time>2013-07-06T10:05:22Z</time>
      </trkpt>
      <trkpt lat="42.69607" lon="1.39639">
        <ele>1991</ele>
        <time>2013-07-06T10:05:25Z</time>
      </trkpt>
      <trkpt lat="42.69602" lon="1.39635">
        <ele>1993</ele>
        <time>2013-07-06T10:05:33Z</time>
      </trkpt>
      <trkpt lat="42.69598" lon="1.39636">
        <ele>1993</ele>
        <time>2013-07-06T10:05:39Z</time>
      </trkpt>
      <trkpt lat="42.69598" lon="1.39635">
        <ele>1994</ele>
        <time>2013-07-06T10:05:43Z</time>
      </trkpt>
      <trkpt lat="42.69593" lon="1.3963">
        <ele>1995</ele>
        <time>2013-07-06T10:05:50Z</time>
      </trkpt>
      <trkpt lat="42.69592" lon="1.39629">
        <ele>1996</ele>
        <time>2013-07-06T10:05:56Z</time>
      </trkpt>
      <trkpt lat="42.69586" lon="1.39631">
        <ele>1998</ele>
        <time>2013-07-06T10:06:03Z</time>
      </trkpt>
      <trkpt lat="42.69583" lon="1.39633">
        <ele>1998</ele>
        <time>2013-07-06T10:06:09Z</time>
      </trkpt>
      <trkpt lat="42.69582" lon="1.39629">
        <ele>1999</ele>
        <time>2013-07-06T10:06:18Z</time>
      </trkpt>
      <trkpt lat="42.69578" lon="1.39628">
        <ele>2001</ele>
        <time>2013-07-06T10:06:25Z</time>
      </trkpt>
      <trkpt lat="42.69577" lon="1.39628">
        <ele>2001</ele>
        <time>2013-07-06T10:06:26Z</time>
      </trkpt>
      <trkpt lat="42.69575" lon="1.39625">
        <ele>2002</ele>
        <time>2013-07-06T10:06:34Z</time>
      </trkpt>
      <trkpt lat="42.69574" lon="1.39621">
        <ele>2004</ele>
        <time>2013-07-06T10:06:42Z</time>
      </trkpt>
      <trkpt lat="42.69571" lon="1.39623">
        <ele>2004</ele>
        <time>2013-07-06T10:06:48Z</time>
      </trkpt>
      <trkpt lat="42.69569" lon="1.3962">
        <ele>2006</ele>
        <time>2013-07-06T10:06:56Z</time>
      </trkpt>
      <trkpt lat="42.69567" lon="1.3962">
        <ele>2006</ele>
        <time>2013-07-06T10:07:06Z</time>
      </trkpt>
      <trkpt lat="42.69564" lon="1.39618">
        <ele>2007</ele>
        <time>2013-07-06T10:07:14Z</time>
      </trkpt>
      <trkpt lat="42.69561" lon="1.39617">
        <ele>2008</ele>
        <time>2013-07-06T10:07:21Z</time>
      </trkpt>
      <trkpt lat="42.6956" lon="1.39616">
        <ele>2009</ele>
        <time>2013-07-06T10:07:25Z</time>
      </trkpt>
      <trkpt lat="42.69562" lon="1.39614">
        <ele>2010</ele>
        <time>2013-07-06T10:07:32Z</time>
      </trkpt>
      <trkpt lat="42.6956" lon="1.39612">
        <ele>2010</ele>
        <time>2013-07-06T10:07:39Z</time>
      </trkpt>
      <trkpt lat="42.69558" lon="1.39607">
        <ele>2011</ele>
        <time>2013-07-06T10:07:46Z</time>
      </trkpt>
      <trkpt lat="42.69553" lon="1.3961">
        <ele>2012</ele>
        <time>2013-07-06T10:07:53Z</time>
      </trkpt>
      <trkpt lat="42.6955" lon="1.39611">
        <ele>2014</ele>
        <time>2013-07-06T10:08:02Z</time>
      </trkpt>
      <trkpt lat="42.69548" lon="1.39608">
        <ele>2015</ele>
        <time>2013-07-06T10:08:09Z</time>
      </trkpt>
      <trkpt lat="42.69546" lon="1.39609">
        <ele>2016</ele>
        <time>2013-07-06T10:08:16Z</time>
      </trkpt>
      <trkpt lat="42.69545" lon="1.39608">
        <ele>2017</ele>
        <time>2013-07-06T10:08:22Z</time>
      </trkpt>
      <trkpt lat="42.69545" lon="1.39606">
        <ele>2018</ele>
        <time>2013-07-06T10:08:29Z</time>
      </trkpt>
      <trkpt lat="42.69544" lon="1.39599">
        <ele>2019</ele>
        <time>2013-07-06T10:08:38Z</time>
      </trkpt>
      <trkpt lat="42.6954" lon="1.39601">
        <ele>2020</ele>
        <time>2013-07-06T10:08:45Z</time>
      </trkpt>
      <trkpt lat="42.69539" lon="1.39595">
        <ele>2021</ele>
        <time>2013-07-06T10:08:52Z</time>
      </trkpt>
      <trkpt lat="42.69535" lon="1.39595">
        <ele>2023</ele>
        <time>2013-07-06T10:08:59Z</time>
      </trkpt>
      <trkpt lat="42.69532" lon="1.39595">
        <ele>2024</ele>
        <time>2013-07-06T10:09:06Z</time>
      </trkpt>
      <trkpt lat="42.69531" lon="1.39595">
        <ele>2025</ele>
        <time>2013-07-06T10:09:19Z</time>
      </trkpt>
      <trkpt lat="42.69528" lon="1.39594">
        <ele>2026</ele>
        <time>2013-07-06T10:09:26Z</time>
      </trkpt>
      <trkpt lat="42.69525" lon="1.39593">
        <ele>2027</ele>
        <time>2013-07-06T10:09:34Z</time>
      </trkpt>
      <trkpt lat="42.69524" lon="1.39597">
        <ele>2029</ele>
        <time>2013-07-06T10:09:40Z</time>
      </trkpt>
      <trkpt lat="42.69522" lon="1.39601">
        <ele>2030</ele>
        <time>2013-07-06T10:09:47Z</time>
      </trkpt>
      <trkpt lat="42.69522" lon="1.39604">
        <ele>2030</ele>
        <time>2013-07-06T10:10:01Z</time>
      </trkpt>
      <trkpt lat="42.69522" lon="1.39601">
        <ele>2032</ele>
        <time>2013-07-06T10:10:09Z</time>
      </trkpt>
      <trkpt lat="42.69519" lon="1.39599">
        <ele>2033</ele>
        <time>2013-07-06T10:10:17Z</time>
      </trkpt>
      <trkpt lat="42.69517" lon="1.39598">
        <ele>2034</ele>
        <time>2013-07-06T10:10:26Z</time>
      </trkpt>
      <trkpt lat="42.69516" lon="1.39599">
        <ele>2034</ele>
        <time>2013-07-06T10:10:33Z</time>
      </trkpt>
      <trkpt lat="42.69515" lon="1.396">
        <ele>2035</ele>
        <time>2013-07-06T10:10:39Z</time>
      </trkpt>
      <trkpt lat="42.69514" lon="1.39603">
        <ele>2037</ele>
        <time>2013-07-06T10:10:45Z</time>
      </trkpt>
      <trkpt lat="42.69512" lon="1.39603">
        <ele>2037</ele>
        <time>2013-07-06T10:10:51Z</time>
      </trkpt>
      <trkpt lat="42.69511" lon="1.39606">
        <ele>2039</ele>
        <time>2013-07-06T10:10:57Z</time>
      </trkpt>
      <trkpt lat="42.69512" lon="1.39611">
        <ele>2040</ele>
        <time>2013-07-06T10:11:05Z</time>
      </trkpt>
      <trkpt lat="42.69509" lon="1.39613">
        <ele>2040</ele>
        <time>2013-07-06T10:11:17Z</time>
      </trkpt>
      <trkpt lat="42.69508" lon="1.39611">
        <ele>2041</ele>
        <time>2013-07-06T10:11:24Z</time>
      </trkpt>
      <trkpt lat="42.69506" lon="1.3961">
        <ele>2041</ele>
        <time>2013-07-06T10:11:32Z</time>
      </trkpt>
      <trkpt lat="42.69504" lon="1.39614">
        <ele>2043</ele>
        <time>2013-07-06T10:11:39Z</time>
      </trkpt>
      <trkpt lat="42.69502" lon="1.39616">
        <ele>2044</ele>
        <time>2013-07-06T10:11:47Z</time>
      </trkpt>
      <trkpt lat="42.69502" lon="1.39619">
        <ele>2045</ele>
        <time>2013-07-06T10:12:00Z</time>
      </trkpt>
      <trkpt lat="42.69503" lon="1.3962">
        <ele>2045</ele>
        <time>2013-07-06T10:12:15Z</time>
      </trkpt>
      <trkpt lat="42.69503" lon="1.39619">
        <ele>2043</ele>
        <time>2013-07-06T10:12:24Z</time>
      </trkpt>
      <trkpt lat="42.69502" lon="1.39619">
        <ele>2046</ele>
        <time>2013-07-06T10:12:26Z</time>
      </trkpt>
      <trkpt lat="42.69502" lon="1.39619">
        <ele>2045</ele>
        <time>2013-07-06T10:12:40Z</time>
      </trkpt>
      <trkpt lat="42.69502" lon="1.3962">
        <ele>2045</ele>
        <time>2013-07-06T10:12:53Z</time>
      </trkpt>
      <trkpt lat="42.69498" lon="1.39617">
        <ele>2045</ele>
        <time>2013-07-06T10:13:09Z</time>
      </trkpt>
      <trkpt lat="42.69499" lon="1.39619">
        <ele>2045</ele>
        <time>2013-07-06T10:13:26Z</time>
      </trkpt>
      <trkpt lat="42.69498" lon="1.39616">
        <ele>2046</ele>
        <time>2013-07-06T10:13:33Z</time>
      </trkpt>
      <trkpt lat="42.69501" lon="1.39615">
        <ele>2046</ele>
        <time>2013-07-06T10:13:45Z</time>
      </trkpt>
      <trkpt lat="42.695" lon="1.39614">
        <ele>2047</ele>
        <time>2013-07-06T10:13:48Z</time>
      </trkpt>
      <trkpt lat="42.69497" lon="1.3961">
        <ele>2048</ele>
        <time>2013-07-06T10:13:56Z</time>
      </trkpt>
      <trkpt lat="42.69492" lon="1.39609">
        <ele>2049</ele>
        <time>2013-07-06T10:14:03Z</time>
      </trkpt>
      <trkpt lat="42.69491" lon="1.39609">
        <ele>2050</ele>
        <time>2013-07-06T10:14:11Z</time>
      </trkpt>
      <trkpt lat="42.69488" lon="1.39611">
        <ele>2051</ele>
        <time>2013-07-06T10:14:20Z</time>
      </trkpt>
      <trkpt lat="42.69483" lon="1.39611">
        <ele>2052</ele>
        <time>2013-07-06T10:14:28Z</time>
      </trkpt>
      <trkpt lat="42.69481" lon="1.39609">
        <ele>2053</ele>
        <time>2013-07-06T10:14:35Z</time>
      </trkpt>
      <trkpt lat="42.69477" lon="1.39607">
        <ele>2055</ele>
        <time>2013-07-06T10:14:44Z</time>
      </trkpt>
      <trkpt lat="42.69475" lon="1.39605">
        <ele>2056</ele>
        <time>2013-07-06T10:14:51Z</time>
      </trkpt>
      <trkpt lat="42.69474" lon="1.396">
        <ele>2058</ele>
        <time>2013-07-06T10:14:58Z</time>
      </trkpt>
      <trkpt lat="42.69471" lon="1.39599">
        <ele>2057</ele>
        <time>2013-07-06T10:15:05Z</time>
      </trkpt>
      <trkpt lat="42.69469" lon="1.39598">
        <ele>2059</ele>
        <time>2013-07-06T10:15:08Z</time>
      </trkpt>
      <trkpt lat="42.69469" lon="1.39595">
        <ele>2059</ele>
        <time>2013-07-06T10:15:15Z</time>
      </trkpt>
      <trkpt lat="42.69466" lon="1.39595">
        <ele>2061</ele>
        <time>2013-07-06T10:15:20Z</time>
      </trkpt>
      <trkpt lat="42.69464" lon="1.39593">
        <ele>2062</ele>
        <time>2013-07-06T10:15:28Z</time>
      </trkpt>
      <trkpt lat="42.69462" lon="1.39592">
        <ele>2063</ele>
        <time>2013-07-06T10:15:35Z</time>
      </trkpt>
      <trkpt lat="42.69462" lon="1.39589">
        <ele>2064</ele>
        <time>2013-07-06T10:15:43Z</time>
      </trkpt>
      <trkpt lat="42.69459" lon="1.3959">
        <ele>2065</ele>
        <time>2013-07-06T10:15:49Z</time>
      </trkpt>
      <trkpt lat="42.69455" lon="1.39588">
        <ele>2066</ele>
        <time>2013-07-06T10:15:56Z</time>
      </trkpt>
      <trkpt lat="42.69453" lon="1.39583">
        <ele>2068</ele>
        <time>2013-07-06T10:16:04Z</time>
      </trkpt>
      <trkpt lat="42.69455" lon="1.39582">
        <ele>2068</ele>
        <time>2013-07-06T10:16:11Z</time>
      </trkpt>
      <trkpt lat="42.69453" lon="1.3958">
        <ele>2068</ele>
        <time>2013-07-06T10:16:17Z</time>
      </trkpt>
      <trkpt lat="42.6945" lon="1.39583">
        <ele>2069</ele>
        <time>2013-07-06T10:16:26Z</time>
      </trkpt>
      <trkpt lat="42.6945" lon="1.3958">
        <ele>2070</ele>
        <time>2013-07-06T10:16:36Z</time>
      </trkpt>
      <trkpt lat="42.69446" lon="1.39582">
        <ele>2071</ele>
        <time>2013-07-06T10:16:45Z</time>
      </trkpt>
      <trkpt lat="42.69442" lon="1.39586">
        <ele>2072</ele>
        <time>2013-07-06T10:16:51Z</time>
      </trkpt>
      <trkpt lat="42.6944" lon="1.39587">
        <ele>2074</ele>
        <time>2013-07-06T10:16:57Z</time>
      </trkpt>
      <trkpt lat="42.69434" lon="1.3959">
        <ele>2075</ele>
        <time>2013-07-06T10:17:05Z</time>
      </trkpt>
      <trkpt lat="42.69429" lon="1.39591">
        <ele>2076</ele>
        <time>2013-07-06T10:17:13Z</time>
      </trkpt>
      <trkpt lat="42.69425" lon="1.39592">
        <ele>2077</ele>
        <time>2013-07-06T10:17:20Z</time>
      </trkpt>
      <trkpt lat="42.69424" lon="1.39593">
        <ele>2077</ele>
        <time>2013-07-06T10:17:21Z</time>
      </trkpt>
      <trkpt lat="42.69422" lon="1.39601">
        <ele>2078</ele>
        <time>2013-07-06T10:17:30Z</time>
      </trkpt>
      <trkpt lat="42.69419" lon="1.39602">
        <ele>2079</ele>
        <time>2013-07-06T10:17:39Z</time>
      </trkpt>
      <trkpt lat="42.69416" lon="1.39602">
        <ele>2081</ele>
        <time>2013-07-06T10:17:47Z</time>
      </trkpt>
      <trkpt lat="42.69412" lon="1.39604">
        <ele>2082</ele>
        <time>2013-07-06T10:17:57Z</time>
      </trkpt>
      <trkpt lat="42.69409" lon="1.39611">
        <ele>2083</ele>
        <time>2013-07-06T10:18:05Z</time>
      </trkpt>
      <trkpt lat="42.69407" lon="1.39611">
        <ele>2084</ele>
        <time>2013-07-06T10:18:12Z</time>
      </trkpt>
      <trkpt lat="42.69404" lon="1.39609">
        <ele>2085</ele>
        <time>2013-07-06T10:18:19Z</time>
      </trkpt>
      <trkpt lat="42.694" lon="1.39608">
        <ele>2086</ele>
        <time>2013-07-06T10:18:26Z</time>
      </trkpt>
      <trkpt lat="42.69398" lon="1.39608">
        <ele>2087</ele>
        <time>2013-07-06T10:18:33Z</time>
      </trkpt>
      <trkpt lat="42.69399" lon="1.39609">
        <ele>2087</ele>
        <time>2013-07-06T10:18:45Z</time>
      </trkpt>
      <trkpt lat="42.69398" lon="1.39604">
        <ele>2088</ele>
        <time>2013-07-06T10:18:56Z</time>
      </trkpt>
      <trkpt lat="42.69395" lon="1.39605">
        <ele>2089</ele>
        <time>2013-07-06T10:19:04Z</time>
      </trkpt>
      <trkpt lat="42.69393" lon="1.39607">
        <ele>2089</ele>
        <time>2013-07-06T10:19:20Z</time>
      </trkpt>
      <trkpt lat="42.6939" lon="1.39612">
        <ele>2091</ele>
        <time>2013-07-06T10:19:29Z</time>
      </trkpt>
      <trkpt lat="42.69386" lon="1.39616">
        <ele>2092</ele>
        <time>2013-07-06T10:19:38Z</time>
      </trkpt>
      <trkpt lat="42.69382" lon="1.39621">
        <ele>2093</ele>
        <time>2013-07-06T10:19:46Z</time>
      </trkpt>
      <trkpt lat="42.6938" lon="1.39618">
        <ele>2094</ele>
        <time>2013-07-06T10:19:54Z</time>
      </trkpt>
      <trkpt lat="42.69375" lon="1.39618">
        <ele>2096</ele>
        <time>2013-07-06T10:20:01Z</time>
      </trkpt>
      <trkpt lat="42.69372" lon="1.3962">
        <ele>2097</ele>
        <time>2013-07-06T10:20:10Z</time>
      </trkpt>
      <trkpt lat="42.69369" lon="1.39618">
        <ele>2098</ele>
        <time>2013-07-06T10:20:18Z</time>
      </trkpt>
      <trkpt lat="42.69366" lon="1.39619">
        <ele>2099</ele>
        <time>2013-07-06T10:20:29Z</time>
      </trkpt>
      <trkpt lat="42.69366" lon="1.39621">
        <ele>2099</ele>
        <time>2013-07-06T10:20:39Z</time>
      </trkpt>
      <trkpt lat="42.69367" lon="1.39623">
        <ele>2099</ele>
        <time>2013-07-06T10:20:48Z</time>
      </trkpt>
      <trkpt lat="42.69365" lon="1.39625">
        <ele>2099</ele>
        <time>2013-07-06T10:20:58Z</time>
      </trkpt>
      <trkpt lat="42.69365" lon="1.39624">
        <ele>2100</ele>
        <time>2013-07-06T10:21:05Z</time>
      </trkpt>
      <trkpt lat="42.69362" lon="1.39624">
        <ele>2101</ele>
        <time>2013-07-06T10:21:12Z</time>
      </trkpt>
      <trkpt lat="42.69361" lon="1.39625">
        <ele>2101</ele>
        <time>2013-07-06T10:21:24Z</time>
      </trkpt>
      <trkpt lat="42.69359" lon="1.3963">
        <ele>2103</ele>
        <time>2013-07-06T10:21:31Z</time>
      </trkpt>
      <trkpt lat="42.69356" lon="1.39634">
        <ele>2103</ele>
        <time>2013-07-06T10:21:39Z</time>
      </trkpt>
      <trkpt lat="42.69354" lon="1.39637">
        <ele>2104</ele>
        <time>2013-07-06T10:21:46Z</time>
      </trkpt>
      <trkpt lat="42.69355" lon="1.39635">
        <ele>2105</ele>
        <time>2013-07-06T10:21:53Z</time>
      </trkpt>
      <trkpt lat="42.69351" lon="1.39636">
        <ele>2108</ele>
        <time>2013-07-06T10:22:01Z</time>
      </trkpt>
      <trkpt lat="42.69348" lon="1.39638">
        <ele>2108</ele>
        <time>2013-07-06T10:22:11Z</time>
      </trkpt>
      <trkpt lat="42.69346" lon="1.39639">
        <ele>2108</ele>
        <time>2013-07-06T10:22:26Z</time>
      </trkpt>
      <trkpt lat="42.69346" lon="1.39638">
        <ele>2110</ele>
        <time>2013-07-06T10:22:34Z</time>
      </trkpt>
      <trkpt lat="42.69344" lon="1.39635">
        <ele>2112</ele>
        <time>2013-07-06T10:22:42Z</time>
      </trkpt>
      <trkpt lat="42.69343" lon="1.39631">
        <ele>2113</ele>
        <time>2013-07-06T10:22:51Z</time>
      </trkpt>
      <trkpt lat="42.69341" lon="1.39627">
        <ele>2115</ele>
        <time>2013-07-06T10:22:58Z</time>
      </trkpt>
      <trkpt lat="42.69338" lon="1.39628">
        <ele>2115</ele>
        <time>2013-07-06T10:23:06Z</time>
      </trkpt>
      <trkpt lat="42.69337" lon="1.39629">
        <ele>2116</ele>
        <time>2013-07-06T10:23:18Z</time>
      </trkpt>
      <trkpt lat="42.69335" lon="1.39628">
        <ele>2117</ele>
        <time>2013-07-06T10:23:27Z</time>
      </trkpt>
      <trkpt lat="42.69336" lon="1.39627">
        <ele>2118</ele>
        <time>2013-07-06T10:23:38Z</time>
      </trkpt>
      <trkpt lat="42.69335" lon="1.39625">
        <ele>2118</ele>
        <time>2013-07-06T10:23:53Z</time>
      </trkpt>
      <trkpt lat="42.69337" lon="1.39624">
        <ele>2118</ele>
        <time>2013-07-06T10:24:09Z</time>
      </trkpt>
      <trkpt lat="42.6934" lon="1.39621">
        <ele>2119</ele>
        <time>2013-07-06T10:24:20Z</time>
      </trkpt>
      <trkpt lat="42.69334" lon="1.39621">
        <ele>2120</ele>
        <time>2013-07-06T10:24:27Z</time>
      </trkpt>
      <trkpt lat="42.69329" lon="1.39622">
        <ele>2122</ele>
        <time>2013-07-06T10:24:35Z</time>
      </trkpt>
      <trkpt lat="42.69325" lon="1.39625">
        <ele>2123</ele>
        <time>2013-07-06T10:24:43Z</time>
      </trkpt>
      <trkpt lat="42.69323" lon="1.39625">
        <ele>2124</ele>
        <time>2013-07-06T10:24:51Z</time>
      </trkpt>
      <trkpt lat="42.69323" lon="1.39628">
        <ele>2125</ele>
        <time>2013-07-06T10:25:00Z</time>
      </trkpt>
      <trkpt lat="42.69322" lon="1.39628">
        <ele>2125</ele>
        <time>2013-07-06T10:25:10Z</time>
      </trkpt>
      <trkpt lat="42.69322" lon="1.3963">
        <ele>2125</ele>
        <time>2013-07-06T10:25:26Z</time>
      </trkpt>
      <trkpt lat="42.69321" lon="1.39631">
        <ele>2125</ele>
        <time>2013-07-06T10:25:35Z</time>
      </trkpt>
      <trkpt lat="42.69319" lon="1.39631">
        <ele>2127</ele>
        <time>2013-07-06T10:25:42Z</time>
      </trkpt>
      <trkpt lat="42.69317" lon="1.39636">
        <ele>2128</ele>
        <time>2013-07-06T10:25:51Z</time>
      </trkpt>
      <trkpt lat="42.69317" lon="1.39637">
        <ele>2129</ele>
        <time>2013-07-06T10:26:01Z</time>
      </trkpt>
      <trkpt lat="42.6932" lon="1.39634">
        <ele>2128</ele>
        <time>2013-07-06T10:26:07Z</time>
      </trkpt>
      <trkpt lat="42.69321" lon="1.39632">
        <ele>2128</ele>
        <time>2013-07-06T10:26:14Z</time>
      </trkpt>
      <trkpt lat="42.69322" lon="1.39627">
        <ele>2129</ele>
        <time>2013-07-06T10:26:23Z</time>
      </trkpt>
      <trkpt lat="42.69324" lon="1.39622">
        <ele>2130</ele>
        <time>2013-07-06T10:26:31Z</time>
      </trkpt>
      <trkpt lat="42.69321" lon="1.39622">
        <ele>2130</ele>
        <time>2013-07-06T10:26:38Z</time>
      </trkpt>
      <trkpt lat="42.69317" lon="1.39622">
        <ele>2132</ele>
        <time>2013-07-06T10:26:46Z</time>
      </trkpt>
      <trkpt lat="42.69315" lon="1.39621">
        <ele>2134</ele>
        <time>2013-07-06T10:26:55Z</time>
      </trkpt>
      <trkpt lat="42.69315" lon="1.3962">
        <ele>2134</ele>
        <time>2013-07-06T10:27:04Z</time>
      </trkpt>
      <trkpt lat="42.69316" lon="1.39618">
        <ele>2135</ele>
        <time>2013-07-06T10:27:11Z</time>
      </trkpt>
      <trkpt lat="42.69314" lon="1.39618">
        <ele>2135</ele>
        <time>2013-07-06T10:27:20Z</time>
      </trkpt>
      <trkpt lat="42.69311" lon="1.39619">
        <ele>2136</ele>
        <time>2013-07-06T10:27:30Z</time>
      </trkpt>
      <trkpt lat="42.6931" lon="1.39622">
        <ele>2137</ele>
        <time>2013-07-06T10:27:38Z</time>
      </trkpt>
      <trkpt lat="42.6931" lon="1.39624">
        <ele>2138</ele>
        <time>2013-07-06T10:27:46Z</time>
      </trkpt>
      <trkpt lat="42.6931" lon="1.39629">
        <ele>2138</ele>
        <time>2013-07-06T10:27:55Z</time>
      </trkpt>
      <trkpt lat="42.69308" lon="1.39629">
        <ele>2139</ele>
        <time>2013-07-06T10:28:02Z</time>
      </trkpt>
      <trkpt lat="42.69309" lon="1.39626">
        <ele>2139</ele>
        <time>2013-07-06T10:28:08Z</time>
      </trkpt>
      <trkpt lat="42.69306" lon="1.39627">
        <ele>2140</ele>
        <time>2013-07-06T10:28:17Z</time>
      </trkpt>
      <trkpt lat="42.69303" lon="1.3963">
        <ele>2141</ele>
        <time>2013-07-06T10:28:25Z</time>
      </trkpt>
      <trkpt lat="42.69303" lon="1.3963">
        <ele>2142</ele>
        <time>2013-07-06T10:28:32Z</time>
      </trkpt>
      <trkpt lat="42.69305" lon="1.39631">
        <ele>2142</ele>
        <time>2013-07-06T10:28:42Z</time>
      </trkpt>
      <trkpt lat="42.69305" lon="1.39627">
        <ele>2144</ele>
        <time>2013-07-06T10:28:49Z</time>
      </trkpt>
      <trkpt lat="42.69304" lon="1.39623">
        <ele>2145</ele>
        <time>2013-07-06T10:28:57Z</time>
      </trkpt>
      <trkpt lat="42.69305" lon="1.39618">
        <ele>2147</ele>
        <time>2013-07-06T10:29:05Z</time>
      </trkpt>
      <trkpt lat="42.69305" lon="1.39612">
        <ele>2149</ele>
        <time>2013-07-06T10:29:15Z</time>
      </trkpt>
      <trkpt lat="42.69305" lon="1.39611">
        <ele>2150</ele>
        <time>2013-07-06T10:29:17Z</time>
      </trkpt>
      <trkpt lat="42.69303" lon="1.39609">
        <ele>2151</ele>
        <time>2013-07-06T10:29:26Z</time>
      </trkpt>
      <trkpt lat="42.69301" lon="1.39608">
        <ele>2152</ele>
        <time>2013-07-06T10:29:39Z</time>
      </trkpt>
      <trkpt lat="42.693" lon="1.39605">
        <ele>2152</ele>
        <time>2013-07-06T10:29:47Z</time>
      </trkpt>
      <trkpt lat="42.69298" lon="1.39603">
        <ele>2153</ele>
        <time>2013-07-06T10:29:55Z</time>
      </trkpt>
      <trkpt lat="42.69296" lon="1.39602">
        <ele>2154</ele>
        <time>2013-07-06T10:30:03Z</time>
      </trkpt>
      <trkpt lat="42.69298" lon="1.39599">
        <ele>2155</ele>
        <time>2013-07-06T10:30:11Z</time>
      </trkpt>
      <trkpt lat="42.693" lon="1.39594">
        <ele>2156</ele>
        <time>2013-07-06T10:30:18Z</time>
      </trkpt>
      <trkpt lat="42.693" lon="1.39592">
        <ele>2157</ele>
        <time>2013-07-06T10:30:26Z</time>
      </trkpt>
      <trkpt lat="42.69297" lon="1.39589">
        <ele>2158</ele>
        <time>2013-07-06T10:30:38Z</time>
      </trkpt>
      <trkpt lat="42.69289" lon="1.39594">
        <ele>2160</ele>
        <time>2013-07-06T10:30:47Z</time>
      </trkpt>
      <trkpt lat="42.69286" lon="1.39594">
        <ele>2161</ele>
        <time>2013-07-06T10:30:53Z</time>
      </trkpt>
      <trkpt lat="42.69287" lon="1.3959">
        <ele>2162</ele>
        <time>2013-07-06T10:31:00Z</time>
      </trkpt>
      <trkpt lat="42.69284" lon="1.39591">
        <ele>2163</ele>
        <time>2013-07-06T10:31:07Z</time>
      </trkpt>
      <trkpt lat="42.69281" lon="1.39589">
        <ele>2165</ele>
        <time>2013-07-06T10:31:14Z</time>
      </trkpt>
      <trkpt lat="42.69277" lon="1.39594">
        <ele>2166</ele>
        <time>2013-07-06T10:31:24Z</time>
      </trkpt>
      <trkpt lat="42.69273" lon="1.39595">
        <ele>2167</ele>
        <time>2013-07-06T10:31:33Z</time>
      </trkpt>
      <trkpt lat="42.69275" lon="1.39594">
        <ele>2169</ele>
        <time>2013-07-06T10:31:43Z</time>
      </trkpt>
      <trkpt lat="42.69276" lon="1.39593">
        <ele>2169</ele>
        <time>2013-07-06T10:31:57Z</time>
      </trkpt>
      <trkpt lat="42.69273" lon="1.39594">
        <ele>2169</ele>
        <time>2013-07-06T10:32:03Z</time>
      </trkpt>
      <trkpt lat="42.69271" lon="1.39592">
        <ele>2170</ele>
        <time>2013-07-06T10:32:11Z</time>
      </trkpt>
      <trkpt lat="42.69269" lon="1.39587">
        <ele>2173</ele>
        <time>2013-07-06T10:32:20Z</time>
      </trkpt>
      <trkpt lat="42.69265" lon="1.39586">
        <ele>2175</ele>
        <time>2013-07-06T10:32:29Z</time>
      </trkpt>
      <trkpt lat="42.69259" lon="1.39584">
        <ele>2176</ele>
        <time>2013-07-06T10:32:39Z</time>
      </trkpt>
      <trkpt lat="42.69258" lon="1.39585">
        <ele>2177</ele>
        <time>2013-07-06T10:32:40Z</time>
      </trkpt>
      <trkpt lat="42.69256" lon="1.39585">
        <ele>2177</ele>
        <time>2013-07-06T10:32:47Z</time>
      </trkpt>
      <trkpt lat="42.69255" lon="1.39583">
        <ele>2178</ele>
        <time>2013-07-06T10:32:59Z</time>
      </trkpt>
      <trkpt lat="42.69253" lon="1.3958">
        <ele>2179</ele>
        <time>2013-07-06T10:33:06Z</time>
      </trkpt>
      <trkpt lat="42.6925" lon="1.39577">
        <ele>2181</ele>
        <time>2013-07-06T10:33:15Z</time>
      </trkpt>
      <trkpt lat="42.69249" lon="1.39575">
        <ele>2182</ele>
        <time>2013-07-06T10:33:21Z</time>
      </trkpt>
      <trkpt lat="42.69248" lon="1.39571">
        <ele>2183</ele>
        <time>2013-07-06T10:33:27Z</time>
      </trkpt>
      <trkpt lat="42.69247" lon="1.39568">
        <ele>2184</ele>
        <time>2013-07-06T10:33:34Z</time>
      </trkpt>
      <trkpt lat="42.69249" lon="1.39568">
        <ele>2184</ele>
        <time>2013-07-06T10:33:48Z</time>
      </trkpt>
      <trkpt lat="42.69246" lon="1.39564">
        <ele>2184</ele>
        <time>2013-07-06T10:33:57Z</time>
      </trkpt>
      <trkpt lat="42.69241" lon="1.39565">
        <ele>2185</ele>
        <time>2013-07-06T10:34:04Z</time>
      </trkpt>
      <trkpt lat="42.69236" lon="1.39567">
        <ele>2187</ele>
        <time>2013-07-06T10:34:12Z</time>
      </trkpt>
      <trkpt lat="42.69234" lon="1.39564">
        <ele>2189</ele>
        <time>2013-07-06T10:34:19Z</time>
      </trkpt>
      <trkpt lat="42.69234" lon="1.39562">
        <ele>2190</ele>
        <time>2013-07-06T10:34:27Z</time>
      </trkpt>
      <trkpt lat="42.69234" lon="1.3956">
        <ele>2190</ele>
        <time>2013-07-06T10:34:34Z</time>
      </trkpt>
      <trkpt lat="42.69229" lon="1.39559">
        <ele>2190</ele>
        <time>2013-07-06T10:34:42Z</time>
      </trkpt>
      <trkpt lat="42.69226" lon="1.39554">
        <ele>2191</ele>
        <time>2013-07-06T10:34:53Z</time>
      </trkpt>
      <trkpt lat="42.69221" lon="1.39554">
        <ele>2192</ele>
        <time>2013-07-06T10:35:02Z</time>
      </trkpt>
      <trkpt lat="42.69221" lon="1.39553">
        <ele>2193</ele>
        <time>2013-07-06T10:35:09Z</time>
      </trkpt>
      <trkpt lat="42.69218" lon="1.39553">
        <ele>2195</ele>
        <time>2013-07-06T10:35:15Z</time>
      </trkpt>
      <trkpt lat="42.69213" lon="1.39555">
        <ele>2196</ele>
        <time>2013-07-06T10:35:22Z</time>
      </trkpt>
      <trkpt lat="42.69211" lon="1.39558">
        <ele>2197</ele>
        <time>2013-07-06T10:35:30Z</time>
      </trkpt>
      <trkpt lat="42.69212" lon="1.39559">
        <ele>2198</ele>
        <time>2013-07-06T10:35:41Z</time>
      </trkpt>
      <trkpt lat="42.6921" lon="1.39561">
        <ele>2198</ele>
        <time>2013-07-06T10:35:50Z</time>
      </trkpt>
      <trkpt lat="42.69209" lon="1.39563">
        <ele>2198</ele>
        <time>2013-07-06T10:36:02Z</time>
      </trkpt>
      <trkpt lat="42.69203" lon="1.39565">
        <ele>2201</ele>
        <time>2013-07-06T10:36:11Z</time>
      </trkpt>
      <trkpt lat="42.69199" lon="1.39564">
        <ele>2203</ele>
        <time>2013-07-06T10:36:19Z</time>
      </trkpt>
      <trkpt lat="42.69196" lon="1.39564">
        <ele>2204</ele>
        <time>2013-07-06T10:36:27Z</time>
      </trkpt>
      <trkpt lat="42.69194" lon="1.3956">
        <ele>2205</ele>
        <time>2013-07-06T10:36:35Z</time>
      </trkpt>
      <trkpt lat="42.69193" lon="1.39557">
        <ele>2206</ele>
        <time>2013-07-06T10:36:43Z</time>
      </trkpt>
      <trkpt lat="42.69188" lon="1.39558">
        <ele>2207</ele>
        <time>2013-07-06T10:36:49Z</time>
      </trkpt>
      <trkpt lat="42.69183" lon="1.39561">
        <ele>2208</ele>
        <time>2013-07-06T10:36:57Z</time>
      </trkpt>
      <trkpt lat="42.69178" lon="1.39566">
        <ele>2209</ele>
        <time>2013-07-06T10:37:05Z</time>
      </trkpt>
      <trkpt lat="42.69179" lon="1.39566">
        <ele>2209</ele>
        <time>2013-07-06T10:37:18Z</time>
      </trkpt>
      <trkpt lat="42.69178" lon="1.39565">
        <ele>2209</ele>
        <time>2013-07-06T10:37:28Z</time>
      </trkpt>
      <trkpt lat="42.6918" lon="1.39566">
        <ele>2209</ele>
        <time>2013-07-06T10:37:39Z</time>
      </trkpt>
      <trkpt lat="42.6918" lon="1.39563">
        <ele>2209</ele>
        <time>2013-07-06T10:38:00Z</time>
      </trkpt>
      <trkpt lat="42.69179" lon="1.39564">
        <ele>2209</ele>
        <time>2013-07-06T10:38:12Z</time>
      </trkpt>
      <trkpt lat="42.69177" lon="1.39563">
        <ele>2209</ele>
        <time>2013-07-06T10:38:29Z</time>
      </trkpt>
      <trkpt lat="42.69181" lon="1.39562">
        <ele>2209</ele>
        <time>2013-07-06T10:38:48Z</time>
      </trkpt>
      <trkpt lat="42.69178" lon="1.39566">
        <ele>2210</ele>
        <time>2013-07-06T10:38:58Z</time>
      </trkpt>
      <trkpt lat="42.69178" lon="1.39565">
        <ele>2210</ele>
        <time>2013-07-06T10:39:12Z</time>
      </trkpt>
      <trkpt lat="42.69177" lon="1.39565">
        <ele>2210</ele>
        <time>2013-07-06T10:39:25Z</time>
      </trkpt>
      <trkpt lat="42.69175" lon="1.39565">
        <ele>2211</ele>
        <time>2013-07-06T10:39:32Z</time>
      </trkpt>
      <trkpt lat="42.69177" lon="1.39566">
        <ele>2211</ele>
        <time>2013-07-06T10:39:40Z</time>
      </trkpt>
      <trkpt lat="42.69172" lon="1.39567">
        <ele>2211</ele>
        <time>2013-07-06T10:39:49Z</time>
      </trkpt>
      <trkpt lat="42.69176" lon="1.39569">
        <ele>2212</ele>
        <time>2013-07-06T10:39:59Z</time>
      </trkpt>
      <trkpt lat="42.69176" lon="1.39569">
        <ele>2211</ele>
        <time>2013-07-06T10:40:09Z</time>
      </trkpt>
      <trkpt lat="42.69177" lon="1.3957">
        <ele>2212</ele>
        <time>2013-07-06T10:40:12Z</time>
      </trkpt>
      <trkpt lat="42.69179" lon="1.39572">
        <ele>2212</ele>
        <time>2013-07-06T10:40:19Z</time>
      </trkpt>
      <trkpt lat="42.69178" lon="1.39573">
        <ele>2212</ele>
        <time>2013-07-06T10:40:28Z</time>
      </trkpt>
      <trkpt lat="42.69179" lon="1.39577">
        <ele>2213</ele>
        <time>2013-07-06T10:40:34Z</time>
      </trkpt>
      <trkpt lat="42.69178" lon="1.39584">
        <ele>2213</ele>
        <time>2013-07-06T10:40:41Z</time>
      </trkpt>
      <trkpt lat="42.69176" lon="1.3959">
        <ele>2215</ele>
        <time>2013-07-06T10:40:49Z</time>
      </trkpt>
      <trkpt lat="42.69177" lon="1.39594">
        <ele>2215</ele>
        <time>2013-07-06T10:40:55Z</time>
      </trkpt>
      <trkpt lat="42.69177" lon="1.39596">
        <ele>2216</ele>
        <time>2013-07-06T10:41:10Z</time>
      </trkpt>
      <trkpt lat="42.69178" lon="1.39596">
        <ele>2215</ele>
        <time>2013-07-06T10:41:15Z</time>
      </trkpt>
      <trkpt lat="42.69178" lon="1.39599">
        <ele>2217</ele>
        <time>2013-07-06T10:41:22Z</time>
      </trkpt>
      <trkpt lat="42.69176" lon="1.39594">
        <ele>2217</ele>
        <time>2013-07-06T10:41:30Z</time>
      </trkpt>
      <trkpt lat="42.69176" lon="1.39593">
        <ele>2217</ele>
        <time>2013-07-06T10:41:31Z</time>
      </trkpt>
      <trkpt lat="42.69172" lon="1.39593">
        <ele>2219</ele>
        <time>2013-07-06T10:41:39Z</time>
      </trkpt>
      <trkpt lat="42.6917" lon="1.39591">
        <ele>2219</ele>
        <time>2013-07-06T10:41:43Z</time>
      </trkpt>
      <trkpt lat="42.69165" lon="1.39586">
        <ele>2221</ele>
        <time>2013-07-06T10:41:51Z</time>
      </trkpt>
      <trkpt lat="42.69161" lon="1.39581">
        <ele>2223</ele>
        <time>2013-07-06T10:41:57Z</time>
      </trkpt>
      <trkpt lat="42.6916" lon="1.3958">
        <ele>2224</ele>
        <time>2013-07-06T10:41:59Z</time>
      </trkpt>
      <trkpt lat="42.69157" lon="1.39579">
        <ele>2225</ele>
        <time>2013-07-06T10:42:03Z</time>
      </trkpt>
      <trkpt lat="42.69157" lon="1.39577">
        <ele>2225</ele>
        <time>2013-07-06T10:42:10Z</time>
      </trkpt>
      <trkpt lat="42.69154" lon="1.39577">
        <ele>2225</ele>
        <time>2013-07-06T10:42:20Z</time>
      </trkpt>
      <trkpt lat="42.69155" lon="1.39576">
        <ele>2224</ele>
        <time>2013-07-06T10:42:22Z</time>
      </trkpt>
      <trkpt lat="42.69155" lon="1.39584">
        <ele>2225</ele>
        <time>2013-07-06T10:42:30Z</time>
      </trkpt>
      <trkpt lat="42.69155" lon="1.39589">
        <ele>2227</ele>
        <time>2013-07-06T10:42:40Z</time>
      </trkpt>
      <trkpt lat="42.69152" lon="1.39589">
        <ele>2227</ele>
        <time>2013-07-06T10:42:47Z</time>
      </trkpt>
      <trkpt lat="42.69154" lon="1.39597">
        <ele>2228</ele>
        <time>2013-07-06T10:42:55Z</time>
      </trkpt>
      <trkpt lat="42.69153" lon="1.39603">
        <ele>2229</ele>
        <time>2013-07-06T10:43:00Z</time>
      </trkpt>
      <trkpt lat="42.69153" lon="1.39609">
        <ele>2230</ele>
        <time>2013-07-06T10:43:08Z</time>
      </trkpt>
      <trkpt lat="42.69147" lon="1.39591">
        <ele>2118</ele>
        <time>2013-07-07T04:50:00Z</time>
      </trkpt>
      <trkpt lat="42.69149" lon="1.39606">
        <ele>2117</ele>
        <time>2013-07-07T04:50:06Z</time>
      </trkpt>
      <trkpt lat="42.69146" lon="1.39605">
        <ele>2116</ele>
        <time>2013-07-07T04:50:10Z</time>
      </trkpt>
      <trkpt lat="42.69146" lon="1.39602">
        <ele>2114</ele>
        <time>2013-07-07T04:50:13Z</time>
      </trkpt>
      <trkpt lat="42.69147" lon="1.39599">
        <ele>2113</ele>
        <time>2013-07-07T04:50:18Z</time>
      </trkpt>
      <trkpt lat="42.69143" lon="1.39595">
        <ele>2112</ele>
        <time>2013-07-07T04:50:27Z</time>
      </trkpt>
      <trkpt lat="42.69141" lon="1.39591">
        <ele>2110</ele>
        <time>2013-07-07T04:50:33Z</time>
      </trkpt>
      <trkpt lat="42.69141" lon="1.39589">
        <ele>2110</ele>
        <time>2013-07-07T04:50:36Z</time>
      </trkpt>
      <trkpt lat="42.6914" lon="1.39586">
        <ele>2110</ele>
        <time>2013-07-07T04:50:38Z</time>
      </trkpt>
      <trkpt lat="42.69137" lon="1.39583">
        <ele>2110</ele>
        <time>2013-07-07T04:50:45Z</time>
      </trkpt>
      <trkpt lat="42.69134" lon="1.39579">
        <ele>2109</ele>
        <time>2013-07-07T04:50:51Z</time>
      </trkpt>
      <trkpt lat="42.69127" lon="1.39569">
        <ele>2110</ele>
        <time>2013-07-07T04:50:58Z</time>
      </trkpt>
      <trkpt lat="42.69122" lon="1.39565">
        <ele>2112</ele>
        <time>2013-07-07T04:51:04Z</time>
      </trkpt>
      <trkpt lat="42.69119" lon="1.39564">
        <ele>2116</ele>
        <time>2013-07-07T04:51:09Z</time>
      </trkpt>
      <trkpt lat="42.69119" lon="1.39563">
        <ele>2119</ele>
        <time>2013-07-07T04:51:10Z</time>
      </trkpt>
      <trkpt lat="42.69118" lon="1.39563">
        <ele>2122</ele>
        <time>2013-07-07T04:51:11Z</time>
      </trkpt>
      <trkpt lat="42.69118" lon="1.39563">
        <ele>2126</ele>
        <time>2013-07-07T04:51:12Z</time>
      </trkpt>
      <trkpt lat="42.69119" lon="1.39562">
        <ele>2132</ele>
        <time>2013-07-07T04:51:14Z</time>
      </trkpt>
      <trkpt lat="42.69118" lon="1.3956">
        <ele>2138</ele>
        <time>2013-07-07T04:51:16Z</time>
      </trkpt>
      <trkpt lat="42.69118" lon="1.39559">
        <ele>2140</ele>
        <time>2013-07-07T04:51:17Z</time>
      </trkpt>
      <trkpt lat="42.69117" lon="1.39558">
        <ele>2145</ele>
        <time>2013-07-07T04:51:19Z</time>
      </trkpt>
      <trkpt lat="42.69116" lon="1.39557">
        <ele>2149</ele>
        <time>2013-07-07T04:51:20Z</time>
      </trkpt>
      <trkpt lat="42.69114" lon="1.39556">
        <ele>2153</ele>
        <time>2013-07-07T04:51:22Z</time>
      </trkpt>
      <trkpt lat="42.69113" lon="1.39554">
        <ele>2160</ele>
        <time>2013-07-07T04:51:24Z</time>
      </trkpt>
      <trkpt lat="42.69113" lon="1.39554">
        <ele>2160</ele>
        <time>2013-07-07T04:51:25Z</time>
      </trkpt>
      <trkpt lat="42.69114" lon="1.39553">
        <ele>2164</ele>
        <time>2013-07-07T04:51:27Z</time>
      </trkpt>
      <trkpt lat="42.69114" lon="1.39553">
        <ele>2166</ele>
        <time>2013-07-07T04:51:28Z</time>
      </trkpt>
      <trkpt lat="42.69114" lon="1.39552">
        <ele>2170</ele>
        <time>2013-07-07T04:51:30Z</time>
      </trkpt>
      <trkpt lat="42.69114" lon="1.3955">
        <ele>2173</ele>
        <time>2013-07-07T04:51:32Z</time>
      </trkpt>
      <trkpt lat="42.69114" lon="1.39547">
        <ele>2178</ele>
        <time>2013-07-07T04:51:35Z</time>
      </trkpt>
      <trkpt lat="42.69113" lon="1.39545">
        <ele>2182</ele>
        <time>2013-07-07T04:51:37Z</time>
      </trkpt>
      <trkpt lat="42.69113" lon="1.39542">
        <ele>2186</ele>
        <time>2013-07-07T04:51:40Z</time>
      </trkpt>
      <trkpt lat="42.69112" lon="1.3954">
        <ele>2190</ele>
        <time>2013-07-07T04:51:43Z</time>
      </trkpt>
      <trkpt lat="42.69111" lon="1.39537">
        <ele>2194</ele>
        <time>2013-07-07T04:51:47Z</time>
      </trkpt>
      <trkpt lat="42.69111" lon="1.39535">
        <ele>2198</ele>
        <time>2013-07-07T04:51:50Z</time>
      </trkpt>
      <trkpt lat="42.69109" lon="1.3953">
        <ele>2202</ele>
        <time>2013-07-07T04:51:54Z</time>
      </trkpt>
      <trkpt lat="42.69108" lon="1.39527">
        <ele>2204</ele>
        <time>2013-07-07T04:51:58Z</time>
      </trkpt>
      <trkpt lat="42.69107" lon="1.39525">
        <ele>2207</ele>
        <time>2013-07-07T04:52:01Z</time>
      </trkpt>
      <trkpt lat="42.69106" lon="1.39522">
        <ele>2209</ele>
        <time>2013-07-07T04:52:03Z</time>
      </trkpt>
      <trkpt lat="42.69105" lon="1.3952">
        <ele>2210</ele>
        <time>2013-07-07T04:52:05Z</time>
      </trkpt>
      <trkpt lat="42.69104" lon="1.39512">
        <ele>2214</ele>
        <time>2013-07-07T04:52:12Z</time>
      </trkpt>
      <trkpt lat="42.69102" lon="1.39511">
        <ele>2214</ele>
        <time>2013-07-07T04:52:14Z</time>
      </trkpt>
      <trkpt lat="42.69096" lon="1.3951">
        <ele>2218</ele>
        <time>2013-07-07T04:52:20Z</time>
      </trkpt>
      <trkpt lat="42.69095" lon="1.3951">
        <ele>2218</ele>
        <time>2013-07-07T04:52:21Z</time>
      </trkpt>
      <trkpt lat="42.69094" lon="1.39508">
        <ele>2217</ele>
        <time>2013-07-07T04:52:23Z</time>
      </trkpt>
      <trkpt lat="42.69089" lon="1.39509">
        <ele>2220</ele>
        <time>2013-07-07T04:52:31Z</time>
      </trkpt>
      <trkpt lat="42.69084" lon="1.39513">
        <ele>2223</ele>
        <time>2013-07-07T04:52:39Z</time>
      </trkpt>
      <trkpt lat="42.6908" lon="1.3951">
        <ele>2225</ele>
        <time>2013-07-07T04:52:46Z</time>
      </trkpt>
      <trkpt lat="42.69077" lon="1.39509">
        <ele>2226</ele>
        <time>2013-07-07T04:52:50Z</time>
      </trkpt>
      <trkpt lat="42.69073" lon="1.39508">
        <ele>2228</ele>
        <time>2013-07-07T04:52:57Z</time>
      </trkpt>
      <trkpt lat="42.69071" lon="1.39507">
        <ele>2231</ele>
        <time>2013-07-07T04:53:06Z</time>
      </trkpt>
      <trkpt lat="42.69071" lon="1.39502">
        <ele>2233</ele>
        <time>2013-07-07T04:53:13Z</time>
      </trkpt>
      <trkpt lat="42.69069" lon="1.39496">
        <ele>2235</ele>
        <time>2013-07-07T04:53:20Z</time>
      </trkpt>
      <trkpt lat="42.69063" lon="1.39491">
        <ele>2236</ele>
        <time>2013-07-07T04:53:28Z</time>
      </trkpt>
      <trkpt lat="42.69059" lon="1.39487">
        <ele>2238</ele>
        <time>2013-07-07T04:53:37Z</time>
      </trkpt>
      <trkpt lat="42.69055" lon="1.39486">
        <ele>2238</ele>
        <time>2013-07-07T04:53:44Z</time>
      </trkpt>
      <trkpt lat="42.69054" lon="1.39486">
        <ele>2239</ele>
        <time>2013-07-07T04:53:52Z</time>
      </trkpt>
      <trkpt lat="42.69053" lon="1.39485">
        <ele>2240</ele>
        <time>2013-07-07T04:54:04Z</time>
      </trkpt>
      <trkpt lat="42.6905" lon="1.39486">
        <ele>2242</ele>
        <time>2013-07-07T04:54:09Z</time>
      </trkpt>
      <trkpt lat="42.69048" lon="1.3949">
        <ele>2242</ele>
        <time>2013-07-07T04:54:13Z</time>
      </trkpt>
      <trkpt lat="42.69046" lon="1.39495">
        <ele>2243</ele>
        <time>2013-07-07T04:54:18Z</time>
      </trkpt>
      <trkpt lat="42.69043" lon="1.39499">
        <ele>2243</ele>
        <time>2013-07-07T04:54:25Z</time>
      </trkpt>
      <trkpt lat="42.6904" lon="1.39499">
        <ele>2244</ele>
        <time>2013-07-07T04:54:29Z</time>
      </trkpt>
      <trkpt lat="42.69037" lon="1.39498">
        <ele>2245</ele>
        <time>2013-07-07T04:54:35Z</time>
      </trkpt>
      <trkpt lat="42.69035" lon="1.39499">
        <ele>2246</ele>
        <time>2013-07-07T04:54:42Z</time>
      </trkpt>
      <trkpt lat="42.69033" lon="1.395">
        <ele>2247</ele>
        <time>2013-07-07T04:54:49Z</time>
      </trkpt>
      <trkpt lat="42.69029" lon="1.39501">
        <ele>2248</ele>
        <time>2013-07-07T04:54:55Z</time>
      </trkpt>
      <trkpt lat="42.69026" lon="1.39498">
        <ele>2250</ele>
        <time>2013-07-07T04:55:02Z</time>
      </trkpt>
      <trkpt lat="42.69021" lon="1.39497">
        <ele>2252</ele>
        <time>2013-07-07T04:55:09Z</time>
      </trkpt>
      <trkpt lat="42.69016" lon="1.39496">
        <ele>2253</ele>
        <time>2013-07-07T04:55:17Z</time>
      </trkpt>
      <trkpt lat="42.69013" lon="1.39495">
        <ele>2254</ele>
        <time>2013-07-07T04:55:23Z</time>
      </trkpt>
      <trkpt lat="42.69011" lon="1.395">
        <ele>2255</ele>
        <time>2013-07-07T04:55:30Z</time>
      </trkpt>
      <trkpt lat="42.6901" lon="1.39501">
        <ele>2255</ele>
        <time>2013-07-07T04:55:32Z</time>
      </trkpt>
      <trkpt lat="42.69009" lon="1.3951">
        <ele>2257</ele>
        <time>2013-07-07T04:55:41Z</time>
      </trkpt>
      <trkpt lat="42.69007" lon="1.39509">
        <ele>2257</ele>
        <time>2013-07-07T04:55:46Z</time>
      </trkpt>
      <trkpt lat="42.69003" lon="1.3951">
        <ele>2259</ele>
        <time>2013-07-07T04:55:52Z</time>
      </trkpt>
      <trkpt lat="42.69002" lon="1.3951">
        <ele>2259</ele>
        <time>2013-07-07T04:56:02Z</time>
      </trkpt>
      <trkpt lat="42.68999" lon="1.39512">
        <ele>2260</ele>
        <time>2013-07-07T04:56:09Z</time>
      </trkpt>
      <trkpt lat="42.68997" lon="1.39516">
        <ele>2261</ele>
        <time>2013-07-07T04:56:16Z</time>
      </trkpt>
      <trkpt lat="42.68994" lon="1.39519">
        <ele>2263</ele>
        <time>2013-07-07T04:56:23Z</time>
      </trkpt>
      <trkpt lat="42.68993" lon="1.39523">
        <ele>2265</ele>
        <time>2013-07-07T04:56:30Z</time>
      </trkpt>
      <trkpt lat="42.68992" lon="1.39526">
        <ele>2265</ele>
        <time>2013-07-07T04:56:38Z</time>
      </trkpt>
      <trkpt lat="42.68992" lon="1.39529">
        <ele>2267</ele>
        <time>2013-07-07T04:56:45Z</time>
      </trkpt>
      <trkpt lat="42.68993" lon="1.39531">
        <ele>2268</ele>
        <time>2013-07-07T04:56:53Z</time>
      </trkpt>
      <trkpt lat="42.68989" lon="1.39534">
        <ele>2269</ele>
        <time>2013-07-07T04:57:01Z</time>
      </trkpt>
      <trkpt lat="42.68986" lon="1.39536">
        <ele>2270</ele>
        <time>2013-07-07T04:57:09Z</time>
      </trkpt>
      <trkpt lat="42.68985" lon="1.39533">
        <ele>2272</ele>
        <time>2013-07-07T04:57:16Z</time>
      </trkpt>
      <trkpt lat="42.6898" lon="1.39529">
        <ele>2273</ele>
        <time>2013-07-07T04:57:23Z</time>
      </trkpt>
      <trkpt lat="42.68975" lon="1.39529">
        <ele>2275</ele>
        <time>2013-07-07T04:57:31Z</time>
      </trkpt>
      <trkpt lat="42.68974" lon="1.39529">
        <ele>2275</ele>
        <time>2013-07-07T04:57:32Z</time>
      </trkpt>
      <trkpt lat="42.68968" lon="1.3953">
        <ele>2275</ele>
        <time>2013-07-07T04:57:41Z</time>
      </trkpt>
      <trkpt lat="42.68963" lon="1.3953">
        <ele>2276</ele>
        <time>2013-07-07T04:57:49Z</time>
      </trkpt>
      <trkpt lat="42.68958" lon="1.39527">
        <ele>2277</ele>
        <time>2013-07-07T04:57:56Z</time>
      </trkpt>
      <trkpt lat="42.68953" lon="1.39529">
        <ele>2278</ele>
        <time>2013-07-07T04:58:05Z</time>
      </trkpt>
      <trkpt lat="42.6895" lon="1.39528">
        <ele>2279</ele>
        <time>2013-07-07T04:58:11Z</time>
      </trkpt>
      <trkpt lat="42.68948" lon="1.39532">
        <ele>2280</ele>
        <time>2013-07-07T04:58:19Z</time>
      </trkpt>
      <trkpt lat="42.68944" lon="1.39538">
        <ele>2281</ele>
        <time>2013-07-07T04:58:27Z</time>
      </trkpt>
      <trkpt lat="42.6894" lon="1.39541">
        <ele>2283</ele>
        <time>2013-07-07T04:58:35Z</time>
      </trkpt>
      <trkpt lat="42.6894" lon="1.39542">
        <ele>2284</ele>
        <time>2013-07-07T04:58:36Z</time>
      </trkpt>
      <trkpt lat="42.68937" lon="1.39547">
        <ele>2285</ele>
        <time>2013-07-07T04:58:44Z</time>
      </trkpt>
      <trkpt lat="42.68934" lon="1.39551">
        <ele>2287</ele>
        <time>2013-07-07T04:58:51Z</time>
      </trkpt>
      <trkpt lat="42.68934" lon="1.39555">
        <ele>2287</ele>
        <time>2013-07-07T04:58:59Z</time>
      </trkpt>
      <trkpt lat="42.68931" lon="1.39555">
        <ele>2289</ele>
        <time>2013-07-07T04:59:06Z</time>
      </trkpt>
      <trkpt lat="42.6893" lon="1.39553">
        <ele>2289</ele>
        <time>2013-07-07T04:59:12Z</time>
      </trkpt>
      <trkpt lat="42.68927" lon="1.39551">
        <ele>2290</ele>
        <time>2013-07-07T04:59:19Z</time>
      </trkpt>
      <trkpt lat="42.68926" lon="1.39547">
        <ele>2292</ele>
        <time>2013-07-07T04:59:25Z</time>
      </trkpt>
      <trkpt lat="42.68921" lon="1.39545">
        <ele>2293</ele>
        <time>2013-07-07T04:59:33Z</time>
      </trkpt>
      <trkpt lat="42.68918" lon="1.39543">
        <ele>2294</ele>
        <time>2013-07-07T04:59:39Z</time>
      </trkpt>
      <trkpt lat="42.68914" lon="1.39547">
        <ele>2295</ele>
        <time>2013-07-07T04:59:48Z</time>
      </trkpt>
      <trkpt lat="42.68913" lon="1.39551">
        <ele>2296</ele>
        <time>2013-07-07T04:59:55Z</time>
      </trkpt>
      <trkpt lat="42.68912" lon="1.39551">
        <ele>2296</ele>
        <time>2013-07-07T04:59:56Z</time>
      </trkpt>
      <trkpt lat="42.6891" lon="1.39557">
        <ele>2298</ele>
        <time>2013-07-07T05:00:05Z</time>
      </trkpt>
      <trkpt lat="42.68906" lon="1.39555">
        <ele>2300</ele>
        <time>2013-07-07T05:00:13Z</time>
      </trkpt>
      <trkpt lat="42.68901" lon="1.39555">
        <ele>2301</ele>
        <time>2013-07-07T05:00:21Z</time>
      </trkpt>
      <trkpt lat="42.68898" lon="1.39555">
        <ele>2302</ele>
        <time>2013-07-07T05:00:28Z</time>
      </trkpt>
      <trkpt lat="42.68894" lon="1.39553">
        <ele>2304</ele>
        <time>2013-07-07T05:00:37Z</time>
      </trkpt>
      <trkpt lat="42.6889" lon="1.39554">
        <ele>2305</ele>
        <time>2013-07-07T05:00:44Z</time>
      </trkpt>
      <trkpt lat="42.68887" lon="1.39557">
        <ele>2306</ele>
        <time>2013-07-07T05:00:51Z</time>
      </trkpt>
      <trkpt lat="42.68884" lon="1.39558">
        <ele>2307</ele>
        <time>2013-07-07T05:00:59Z</time>
      </trkpt>
      <trkpt lat="42.68882" lon="1.39559">
        <ele>2308</ele>
        <time>2013-07-07T05:01:06Z</time>
      </trkpt>
      <trkpt lat="42.68881" lon="1.39562">
        <ele>2310</ele>
        <time>2013-07-07T05:01:15Z</time>
      </trkpt>
      <trkpt lat="42.68881" lon="1.39558">
        <ele>2310</ele>
        <time>2013-07-07T05:01:23Z</time>
      </trkpt>
      <trkpt lat="42.68878" lon="1.39557">
        <ele>2312</ele>
        <time>2013-07-07T05:01:31Z</time>
      </trkpt>
      <trkpt lat="42.68874" lon="1.39558">
        <ele>2314</ele>
        <time>2013-07-07T05:01:37Z</time>
      </trkpt>
      <trkpt lat="42.68872" lon="1.39558">
        <ele>2314</ele>
        <time>2013-07-07T05:01:39Z</time>
      </trkpt>
      <trkpt lat="42.68863" lon="1.39558">
        <ele>2315</ele>
        <time>2013-07-07T05:01:47Z</time>
      </trkpt>
      <trkpt lat="42.6886" lon="1.39563">
        <ele>2316</ele>
        <time>2013-07-07T05:01:54Z</time>
      </trkpt>
      <trkpt lat="42.68858" lon="1.39567">
        <ele>2316</ele>
        <time>2013-07-07T05:02:01Z</time>
      </trkpt>
      <trkpt lat="42.68857" lon="1.39571">
        <ele>2318</ele>
        <time>2013-07-07T05:02:06Z</time>
      </trkpt>
      <trkpt lat="42.68854" lon="1.39575">
        <ele>2319</ele>
        <time>2013-07-07T05:02:14Z</time>
      </trkpt>
      <trkpt lat="42.68852" lon="1.39578">
        <ele>2320</ele>
        <time>2013-07-07T05:02:22Z</time>
      </trkpt>
      <trkpt lat="42.68851" lon="1.39578">
        <ele>2321</ele>
        <time>2013-07-07T05:02:27Z</time>
      </trkpt>
      <trkpt lat="42.68849" lon="1.39581">
        <ele>2322</ele>
        <time>2013-07-07T05:02:35Z</time>
      </trkpt>
      <trkpt lat="42.68846" lon="1.39586">
        <ele>2323</ele>
        <time>2013-07-07T05:02:44Z</time>
      </trkpt>
      <trkpt lat="42.68846" lon="1.39586">
        <ele>2323</ele>
        <time>2013-07-07T05:02:54Z</time>
      </trkpt>
      <trkpt lat="42.68846" lon="1.39586">
        <ele>2323</ele>
        <time>2013-07-07T05:03:08Z</time>
      </trkpt>
      <trkpt lat="42.68845" lon="1.39586">
        <ele>2323</ele>
        <time>2013-07-07T05:03:19Z</time>
      </trkpt>
      <trkpt lat="42.68843" lon="1.3959">
        <ele>2325</ele>
        <time>2013-07-07T05:03:29Z</time>
      </trkpt>
      <trkpt lat="42.68841" lon="1.39584">
        <ele>2326</ele>
        <time>2013-07-07T05:03:36Z</time>
      </trkpt>
      <trkpt lat="42.68839" lon="1.39587">
        <ele>2327</ele>
        <time>2013-07-07T05:03:42Z</time>
      </trkpt>
      <trkpt lat="42.68838" lon="1.39588">
        <ele>2328</ele>
        <time>2013-07-07T05:03:48Z</time>
      </trkpt>
      <trkpt lat="42.68835" lon="1.3959">
        <ele>2329</ele>
        <time>2013-07-07T05:03:52Z</time>
      </trkpt>
      <trkpt lat="42.68835" lon="1.39589">
        <ele>2330</ele>
        <time>2013-07-07T05:03:59Z</time>
      </trkpt>
      <trkpt lat="42.68832" lon="1.39588">
        <ele>2331</ele>
        <time>2013-07-07T05:04:06Z</time>
      </trkpt>
      <trkpt lat="42.6883" lon="1.3959">
        <ele>2332</ele>
        <time>2013-07-07T05:04:16Z</time>
      </trkpt>
      <trkpt lat="42.68828" lon="1.39591">
        <ele>2333</ele>
        <time>2013-07-07T05:04:22Z</time>
      </trkpt>
      <trkpt lat="42.68826" lon="1.39591">
        <ele>2333</ele>
        <time>2013-07-07T05:04:24Z</time>
      </trkpt>
      <trkpt lat="42.68819" lon="1.39592">
        <ele>2333</ele>
        <time>2013-07-07T05:04:31Z</time>
      </trkpt>
      <trkpt lat="42.68811" lon="1.39592">
        <ele>2333</ele>
        <time>2013-07-07T05:04:40Z</time>
      </trkpt>
      <trkpt lat="42.68804" lon="1.3959">
        <ele>2332</ele>
        <time>2013-07-07T05:04:47Z</time>
      </trkpt>
      <trkpt lat="42.688" lon="1.39592">
        <ele>2332</ele>
        <time>2013-07-07T05:04:54Z</time>
      </trkpt>
      <trkpt lat="42.68794" lon="1.39593">
        <ele>2333</ele>
        <time>2013-07-07T05:05:02Z</time>
      </trkpt>
      <trkpt lat="42.68791" lon="1.39592">
        <ele>2334</ele>
        <time>2013-07-07T05:05:09Z</time>
      </trkpt>
      <trkpt lat="42.68791" lon="1.39591">
        <ele>2334</ele>
        <time>2013-07-07T05:05:10Z</time>
      </trkpt>
      <trkpt lat="42.68788" lon="1.3959">
        <ele>2335</ele>
        <time>2013-07-07T05:05:13Z</time>
      </trkpt>
      <trkpt lat="42.68785" lon="1.39593">
        <ele>2336</ele>
        <time>2013-07-07T05:05:20Z</time>
      </trkpt>
      <trkpt lat="42.68782" lon="1.3959">
        <ele>2337</ele>
        <time>2013-07-07T05:05:26Z</time>
      </trkpt>
      <trkpt lat="42.68779" lon="1.39586">
        <ele>2338</ele>
        <time>2013-07-07T05:05:33Z</time>
      </trkpt>
      <trkpt lat="42.68777" lon="1.39584">
        <ele>2339</ele>
        <time>2013-07-07T05:05:42Z</time>
      </trkpt>
      <trkpt lat="42.68777" lon="1.3959">
        <ele>2339</ele>
        <time>2013-07-07T05:05:48Z</time>
      </trkpt>
      <trkpt lat="42.68774" lon="1.39598">
        <ele>2340</ele>
        <time>2013-07-07T05:05:55Z</time>
      </trkpt>
      <trkpt lat="42.68772" lon="1.39604">
        <ele>2341</ele>
        <time>2013-07-07T05:06:03Z</time>
      </trkpt>
      <trkpt lat="42.68771" lon="1.39608">
        <ele>2343</ele>
        <time>2013-07-07T05:06:10Z</time>
      </trkpt>
      <trkpt lat="42.68768" lon="1.39608">
        <ele>2343</ele>
        <time>2013-07-07T05:06:18Z</time>
      </trkpt>
      <trkpt lat="42.68766" lon="1.39605">
        <ele>2343</ele>
        <time>2013-07-07T05:06:24Z</time>
      </trkpt>
      <trkpt lat="42.68764" lon="1.39602">
        <ele>2344</ele>
        <time>2013-07-07T05:06:30Z</time>
      </trkpt>
      <trkpt lat="42.68759" lon="1.39601">
        <ele>2345</ele>
        <time>2013-07-07T05:06:36Z</time>
      </trkpt>
      <trkpt lat="42.68752" lon="1.396">
        <ele>2346</ele>
        <time>2013-07-07T05:06:44Z</time>
      </trkpt>
      <trkpt lat="42.68749" lon="1.39602">
        <ele>2347</ele>
        <time>2013-07-07T05:06:51Z</time>
      </trkpt>
      <trkpt lat="42.68745" lon="1.39598">
        <ele>2348</ele>
        <time>2013-07-07T05:06:58Z</time>
      </trkpt>
      <trkpt lat="42.68742" lon="1.396">
        <ele>2349</ele>
        <time>2013-07-07T05:07:05Z</time>
      </trkpt>
      <trkpt lat="42.6874" lon="1.39604">
        <ele>2350</ele>
        <time>2013-07-07T05:07:11Z</time>
      </trkpt>
      <trkpt lat="42.68738" lon="1.39604">
        <ele>2352</ele>
        <time>2013-07-07T05:07:19Z</time>
      </trkpt>
      <trkpt lat="42.68735" lon="1.39603">
        <ele>2352</ele>
        <time>2013-07-07T05:07:23Z</time>
      </trkpt>
      <trkpt lat="42.6873" lon="1.39603">
        <ele>2352</ele>
        <time>2013-07-07T05:07:30Z</time>
      </trkpt>
      <trkpt lat="42.68727" lon="1.39603">
        <ele>2354</ele>
        <time>2013-07-07T05:07:38Z</time>
      </trkpt>
      <trkpt lat="42.68723" lon="1.39603">
        <ele>2355</ele>
        <time>2013-07-07T05:07:45Z</time>
      </trkpt>
      <trkpt lat="42.68721" lon="1.39606">
        <ele>2355</ele>
        <time>2013-07-07T05:07:50Z</time>
      </trkpt>
      <trkpt lat="42.68717" lon="1.39608">
        <ele>2357</ele>
        <time>2013-07-07T05:07:58Z</time>
      </trkpt>
      <trkpt lat="42.68714" lon="1.39606">
        <ele>2358</ele>
        <time>2013-07-07T05:08:04Z</time>
      </trkpt>
      <trkpt lat="42.68713" lon="1.39607">
        <ele>2358</ele>
        <time>2013-07-07T05:08:12Z</time>
      </trkpt>
      <trkpt lat="42.68712" lon="1.39612">
        <ele>2360</ele>
        <time>2013-07-07T05:08:20Z</time>
      </trkpt>
      <trkpt lat="42.6871" lon="1.39616">
        <ele>2361</ele>
        <time>2013-07-07T05:08:27Z</time>
      </trkpt>
      <trkpt lat="42.68709" lon="1.39618">
        <ele>2362</ele>
        <time>2013-07-07T05:08:34Z</time>
      </trkpt>
      <trkpt lat="42.68706" lon="1.39614">
        <ele>2363</ele>
        <time>2013-07-07T05:08:41Z</time>
      </trkpt>
      <trkpt lat="42.68701" lon="1.3961">
        <ele>2364</ele>
        <time>2013-07-07T05:08:50Z</time>
      </trkpt>
      <trkpt lat="42.68696" lon="1.39613">
        <ele>2365</ele>
        <time>2013-07-07T05:08:57Z</time>
      </trkpt>
      <trkpt lat="42.6869" lon="1.3961">
        <ele>2367</ele>
        <time>2013-07-07T05:09:05Z</time>
      </trkpt>
      <trkpt lat="42.6869" lon="1.39609">
        <ele>2367</ele>
        <time>2013-07-07T05:09:06Z</time>
      </trkpt>
      <trkpt lat="42.68684" lon="1.39603">
        <ele>2367</ele>
        <time>2013-07-07T05:09:15Z</time>
      </trkpt>
      <trkpt lat="42.68684" lon="1.39602">
        <ele>2367</ele>
        <time>2013-07-07T05:09:16Z</time>
      </trkpt>
      <trkpt lat="42.6868" lon="1.39603">
        <ele>2367</ele>
        <time>2013-07-07T05:09:24Z</time>
      </trkpt>
      <trkpt lat="42.68677" lon="1.39601">
        <ele>2366</ele>
        <time>2013-07-07T05:09:30Z</time>
      </trkpt>
      <trkpt lat="42.68667" lon="1.39604">
        <ele>2367</ele>
        <time>2013-07-07T05:09:41Z</time>
      </trkpt>
      <trkpt lat="42.68661" lon="1.39606">
        <ele>2367</ele>
        <time>2013-07-07T05:09:49Z</time>
      </trkpt>
      <trkpt lat="42.68654" lon="1.39604">
        <ele>2367</ele>
        <time>2013-07-07T05:09:59Z</time>
      </trkpt>
      <trkpt lat="42.6865" lon="1.39601">
        <ele>2366</ele>
        <time>2013-07-07T05:10:07Z</time>
      </trkpt>
      <trkpt lat="42.68647" lon="1.396">
        <ele>2367</ele>
        <time>2013-07-07T05:10:13Z</time>
      </trkpt>
      <trkpt lat="42.68647" lon="1.396">
        <ele>2366</ele>
        <time>2013-07-07T05:10:14Z</time>
      </trkpt>
      <trkpt lat="42.68643" lon="1.39598">
        <ele>2366</ele>
        <time>2013-07-07T05:10:23Z</time>
      </trkpt>
      <trkpt lat="42.68639" lon="1.39597">
        <ele>2367</ele>
        <time>2013-07-07T05:10:31Z</time>
      </trkpt>
      <trkpt lat="42.68634" lon="1.39595">
        <ele>2368</ele>
        <time>2013-07-07T05:10:38Z</time>
      </trkpt>
      <trkpt lat="42.68628" lon="1.39593">
        <ele>2367</ele>
        <time>2013-07-07T05:10:46Z</time>
      </trkpt>
      <trkpt lat="42.68622" lon="1.3959">
        <ele>2367</ele>
        <time>2013-07-07T05:10:54Z</time>
      </trkpt>
      <trkpt lat="42.68619" lon="1.39588">
        <ele>2368</ele>
        <time>2013-07-07T05:11:01Z</time>
      </trkpt>
      <trkpt lat="42.68614" lon="1.39584">
        <ele>2369</ele>
        <time>2013-07-07T05:11:08Z</time>
      </trkpt>
      <trkpt lat="42.6861" lon="1.39584">
        <ele>2371</ele>
        <time>2013-07-07T05:11:16Z</time>
      </trkpt>
      <trkpt lat="42.68607" lon="1.39582">
        <ele>2372</ele>
        <time>2013-07-07T05:11:24Z</time>
      </trkpt>
      <trkpt lat="42.68605" lon="1.39577">
        <ele>2372</ele>
        <time>2013-07-07T05:11:31Z</time>
      </trkpt>
      <trkpt lat="42.68601" lon="1.39569">
        <ele>2371</ele>
        <time>2013-07-07T05:11:41Z</time>
      </trkpt>
      <trkpt lat="42.68595" lon="1.39571">
        <ele>2371</ele>
        <time>2013-07-07T05:11:48Z</time>
      </trkpt>
      <trkpt lat="42.6859" lon="1.39571">
        <ele>2371</ele>
        <time>2013-07-07T05:11:56Z</time>
      </trkpt>
      <trkpt lat="42.68586" lon="1.39572">
        <ele>2372</ele>
        <time>2013-07-07T05:12:04Z</time>
      </trkpt>
      <trkpt lat="42.6858" lon="1.39566">
        <ele>2373</ele>
        <time>2013-07-07T05:12:12Z</time>
      </trkpt>
      <trkpt lat="42.68575" lon="1.39562">
        <ele>2374</ele>
        <time>2013-07-07T05:12:19Z</time>
      </trkpt>
      <trkpt lat="42.68573" lon="1.39557">
        <ele>2373</ele>
        <time>2013-07-07T05:12:26Z</time>
      </trkpt>
      <trkpt lat="42.68573" lon="1.39553">
        <ele>2373</ele>
        <time>2013-07-07T05:12:37Z</time>
      </trkpt>
      <trkpt lat="42.68569" lon="1.39549">
        <ele>2372</ele>
        <time>2013-07-07T05:12:45Z</time>
      </trkpt>
      <trkpt lat="42.68567" lon="1.39548">
        <ele>2372</ele>
        <time>2013-07-07T05:12:48Z</time>
      </trkpt>
      <trkpt lat="42.68561" lon="1.39546">
        <ele>2372</ele>
        <time>2013-07-07T05:12:54Z</time>
      </trkpt>
      <trkpt lat="42.68559" lon="1.39539">
        <ele>2371</ele>
        <time>2013-07-07T05:12:59Z</time>
      </trkpt>
      <trkpt lat="42.68554" lon="1.3953">
        <ele>2371</ele>
        <time>2013-07-07T05:13:09Z</time>
      </trkpt>
      <trkpt lat="42.68547" lon="1.39525">
        <ele>2372</ele>
        <time>2013-07-07T05:13:17Z</time>
      </trkpt>
      <trkpt lat="42.68543" lon="1.39527">
        <ele>2370</ele>
        <time>2013-07-07T05:13:25Z</time>
      </trkpt>
      <trkpt lat="42.68541" lon="1.39531">
        <ele>2372</ele>
        <time>2013-07-07T05:13:31Z</time>
      </trkpt>
      <trkpt lat="42.68539" lon="1.39531">
        <ele>2372</ele>
        <time>2013-07-07T05:13:37Z</time>
      </trkpt>
      <trkpt lat="42.68534" lon="1.39525">
        <ele>2372</ele>
        <time>2013-07-07T05:13:47Z</time>
      </trkpt>
      <trkpt lat="42.68533" lon="1.39526">
        <ele>2372</ele>
        <time>2013-07-07T05:13:57Z</time>
      </trkpt>
      <trkpt lat="42.68531" lon="1.39526">
        <ele>2372</ele>
        <time>2013-07-07T05:14:07Z</time>
      </trkpt>
      <trkpt lat="42.68529" lon="1.39525">
        <ele>2372</ele>
        <time>2013-07-07T05:14:10Z</time>
      </trkpt>
      <trkpt lat="42.68527" lon="1.39523">
        <ele>2372</ele>
        <time>2013-07-07T05:14:12Z</time>
      </trkpt>
      <trkpt lat="42.68526" lon="1.39523">
        <ele>2373</ele>
        <time>2013-07-07T05:14:14Z</time>
      </trkpt>
      <trkpt lat="42.68521" lon="1.39519">
        <ele>2372</ele>
        <time>2013-07-07T05:14:21Z</time>
      </trkpt>
      <trkpt lat="42.68516" lon="1.39516">
        <ele>2371</ele>
        <time>2013-07-07T05:14:27Z</time>
      </trkpt>
      <trkpt lat="42.68516" lon="1.39515">
        <ele>2371</ele>
        <time>2013-07-07T05:14:28Z</time>
      </trkpt>
      <trkpt lat="42.68514" lon="1.39508">
        <ele>2369</ele>
        <time>2013-07-07T05:14:35Z</time>
      </trkpt>
      <trkpt lat="42.68513" lon="1.39505">
        <ele>2369</ele>
        <time>2013-07-07T05:14:38Z</time>
      </trkpt>
      <trkpt lat="42.68505" lon="1.39502">
        <ele>2369</ele>
        <time>2013-07-07T05:14:47Z</time>
      </trkpt>
      <trkpt lat="42.68501" lon="1.39501">
        <ele>2369</ele>
        <time>2013-07-07T05:14:55Z</time>
      </trkpt>
      <trkpt lat="42.68497" lon="1.39502">
        <ele>2370</ele>
        <time>2013-07-07T05:15:01Z</time>
      </trkpt>
      <trkpt lat="42.68496" lon="1.39508">
        <ele>2370</ele>
        <time>2013-07-07T05:15:11Z</time>
      </trkpt>
      <trkpt lat="42.68496" lon="1.39515">
        <ele>2369</ele>
        <time>2013-07-07T05:15:18Z</time>
      </trkpt>
      <trkpt lat="42.68496" lon="1.39516">
        <ele>2369</ele>
        <time>2013-07-07T05:15:24Z</time>
      </trkpt>
      <trkpt lat="42.68498" lon="1.3952">
        <ele>2369</ele>
        <time>2013-07-07T05:15:42Z</time>
      </trkpt>
      <trkpt lat="42.68497" lon="1.39518">
        <ele>2369</ele>
        <time>2013-07-07T05:15:59Z</time>
      </trkpt>
      <trkpt lat="42.68501" lon="1.39516">
        <ele>2369</ele>
        <time>2013-07-07T05:16:15Z</time>
      </trkpt>
      <trkpt lat="42.68499" lon="1.39519">
        <ele>2369</ele>
        <time>2013-07-07T05:16:32Z</time>
      </trkpt>
      <trkpt lat="42.68497" lon="1.39516">
        <ele>2369</ele>
        <time>2013-07-07T05:16:51Z</time>
      </trkpt>
      <trkpt lat="42.68497" lon="1.39515">
        <ele>2370</ele>
        <time>2013-07-07T05:17:04Z</time>
      </trkpt>
      <trkpt lat="42.68494" lon="1.39513">
        <ele>2370</ele>
        <time>2013-07-07T05:17:23Z</time>
      </trkpt>
      <trkpt lat="42.68493" lon="1.39512">
        <ele>2370</ele>
        <time>2013-07-07T05:17:38Z</time>
      </trkpt>
      <trkpt lat="42.68494" lon="1.39512">
        <ele>2370</ele>
        <time>2013-07-07T05:17:54Z</time>
      </trkpt>
      <trkpt lat="42.68495" lon="1.39511">
        <ele>2370</ele>
        <time>2013-07-07T05:18:13Z</time>
      </trkpt>
      <trkpt lat="42.68496" lon="1.39511">
        <ele>2370</ele>
        <time>2013-07-07T05:18:35Z</time>
      </trkpt>
      <trkpt lat="42.68494" lon="1.39511">
        <ele>2371</ele>
        <time>2013-07-07T05:18:59Z</time>
      </trkpt>
      <trkpt lat="42.68495" lon="1.3951">
        <ele>2371</ele>
        <time>2013-07-07T05:19:16Z</time>
      </trkpt>
      <trkpt lat="42.68494" lon="1.3951">
        <ele>2372</ele>
        <time>2013-07-07T05:19:38Z</time>
      </trkpt>
      <trkpt lat="42.68493" lon="1.39511">
        <ele>2371</ele>
        <time>2013-07-07T05:19:58Z</time>
      </trkpt>
      <trkpt lat="42.68491" lon="1.39511">
        <ele>2372</ele>
        <time>2013-07-07T05:20:19Z</time>
      </trkpt>
      <trkpt lat="42.68492" lon="1.39508">
        <ele>2372</ele>
        <time>2013-07-07T05:20:41Z</time>
      </trkpt>
      <trkpt lat="42.68493" lon="1.39509">
        <ele>2372</ele>
        <time>2013-07-07T05:21:04Z</time>
      </trkpt>
      <trkpt lat="42.68493" lon="1.39509">
        <ele>2373</ele>
        <time>2013-07-07T05:21:23Z</time>
      </trkpt>
      <trkpt lat="42.68492" lon="1.39514">
        <ele>2373</ele>
        <time>2013-07-07T05:21:43Z</time>
      </trkpt>
      <trkpt lat="42.68492" lon="1.39514">
        <ele>2373</ele>
        <time>2013-07-07T05:22:05Z</time>
      </trkpt>
      <trkpt lat="42.68493" lon="1.39514">
        <ele>2373</ele>
        <time>2013-07-07T05:22:22Z</time>
      </trkpt>
      <trkpt lat="42.68495" lon="1.39514">
        <ele>2374</ele>
        <time>2013-07-07T05:22:43Z</time>
      </trkpt>
      <trkpt lat="42.68496" lon="1.39515">
        <ele>2373</ele>
        <time>2013-07-07T05:23:03Z</time>
      </trkpt>
      <trkpt lat="42.68496" lon="1.39518">
        <ele>2374</ele>
        <time>2013-07-07T05:23:22Z</time>
      </trkpt>
      <trkpt lat="42.68495" lon="1.39517">
        <ele>2374</ele>
        <time>2013-07-07T05:23:38Z</time>
      </trkpt>
      <trkpt lat="42.68495" lon="1.39516">
        <ele>2375</ele>
        <time>2013-07-07T05:24:00Z</time>
      </trkpt>
      <trkpt lat="42.68494" lon="1.39517">
        <ele>2374</ele>
        <time>2013-07-07T05:24:19Z</time>
      </trkpt>
      <trkpt lat="42.68494" lon="1.39518">
        <ele>2375</ele>
        <time>2013-07-07T05:24:35Z</time>
      </trkpt>
      <trkpt lat="42.68493" lon="1.39519">
        <ele>2374</ele>
        <time>2013-07-07T05:24:45Z</time>
      </trkpt>
      <trkpt lat="42.68498" lon="1.39516">
        <ele>2373</ele>
        <time>2013-07-07T05:25:02Z</time>
      </trkpt>
      <trkpt lat="42.68498" lon="1.39518">
        <ele>2374</ele>
        <time>2013-07-07T05:25:19Z</time>
      </trkpt>
      <trkpt lat="42.68495" lon="1.39514">
        <ele>2375</ele>
        <time>2013-07-07T05:25:31Z</time>
      </trkpt>
      <trkpt lat="42.68497" lon="1.39518">
        <ele>2374</ele>
        <time>2013-07-07T05:25:44Z</time>
      </trkpt>
      <trkpt lat="42.68499" lon="1.39514">
        <ele>2375</ele>
        <time>2013-07-07T05:26:03Z</time>
      </trkpt>
      <trkpt lat="42.68499" lon="1.39516">
        <ele>2375</ele>
        <time>2013-07-07T05:26:20Z</time>
      </trkpt>
      <trkpt lat="42.68503" lon="1.39518">
        <ele>2374</ele>
        <time>2013-07-07T05:26:33Z</time>
      </trkpt>
      <trkpt lat="42.685" lon="1.39518">
        <ele>2374</ele>
        <time>2013-07-07T05:26:49Z</time>
      </trkpt>
      <trkpt lat="42.685" lon="1.39518">
        <ele>2374</ele>
        <time>2013-07-07T05:27:01Z</time>
      </trkpt>
      <trkpt lat="42.68497" lon="1.39518">
        <ele>2375</ele>
        <time>2013-07-07T05:27:17Z</time>
      </trkpt>
      <trkpt lat="42.68496" lon="1.39519">
        <ele>2376</ele>
        <time>2013-07-07T05:27:28Z</time>
      </trkpt>
      <trkpt lat="42.68495" lon="1.39521">
        <ele>2376</ele>
        <time>2013-07-07T05:27:37Z</time>
      </trkpt>
      <trkpt lat="42.68495" lon="1.39526">
        <ele>2376</ele>
        <time>2013-07-07T05:27:48Z</time>
      </trkpt>
      <trkpt lat="42.68494" lon="1.39528">
        <ele>2376</ele>
        <time>2013-07-07T05:27:54Z</time>
      </trkpt>
      <trkpt lat="42.68496" lon="1.39529">
        <ele>2376</ele>
        <time>2013-07-07T05:28:02Z</time>
      </trkpt>
      <trkpt lat="42.685" lon="1.39525">
        <ele>2375</ele>
        <time>2013-07-07T05:28:10Z</time>
      </trkpt>
      <trkpt lat="42.685" lon="1.39521">
        <ele>2375</ele>
        <time>2013-07-07T05:28:17Z</time>
      </trkpt>
      <trkpt lat="42.685" lon="1.39521">
        <ele>2375</ele>
        <time>2013-07-07T05:28:28Z</time>
      </trkpt>
      <trkpt lat="42.68497" lon="1.39523">
        <ele>2376</ele>
        <time>2013-07-07T05:28:36Z</time>
      </trkpt>
      <trkpt lat="42.68496" lon="1.39524">
        <ele>2375</ele>
        <time>2013-07-07T05:28:46Z</time>
      </trkpt>
      <trkpt lat="42.68493" lon="1.39524">
        <ele>2376</ele>
        <time>2013-07-07T05:28:54Z</time>
      </trkpt>
      <trkpt lat="42.68494" lon="1.39524">
        <ele>2375</ele>
        <time>2013-07-07T05:29:06Z</time>
      </trkpt>
      <trkpt lat="42.68495" lon="1.39526">
        <ele>2376</ele>
        <time>2013-07-07T05:29:18Z</time>
      </trkpt>
      <trkpt lat="42.68489" lon="1.3953">
        <ele>2376</ele>
        <time>2013-07-07T05:29:32Z</time>
      </trkpt>
      <trkpt lat="42.68488" lon="1.39525">
        <ele>2376</ele>
        <time>2013-07-07T05:29:39Z</time>
      </trkpt>
      <trkpt lat="42.68485" lon="1.3952">
        <ele>2376</ele>
        <time>2013-07-07T05:29:46Z</time>
      </trkpt>
      <trkpt lat="42.68484" lon="1.39514">
        <ele>2376</ele>
        <time>2013-07-07T05:29:52Z</time>
      </trkpt>
      <trkpt lat="42.68481" lon="1.39508">
        <ele>2376</ele>
        <time>2013-07-07T05:30:00Z</time>
      </trkpt>
      <trkpt lat="42.68478" lon="1.39502">
        <ele>2376</ele>
        <time>2013-07-07T05:30:08Z</time>
      </trkpt>
      <trkpt lat="42.6847" lon="1.39496">
        <ele>2375</ele>
        <time>2013-07-07T05:30:17Z</time>
      </trkpt>
      <trkpt lat="42.68472" lon="1.3949">
        <ele>2375</ele>
        <time>2013-07-07T05:30:26Z</time>
      </trkpt>
      <trkpt lat="42.68469" lon="1.39484">
        <ele>2374</ele>
        <time>2013-07-07T05:30:35Z</time>
      </trkpt>
      <trkpt lat="42.68465" lon="1.3948">
        <ele>2374</ele>
        <time>2013-07-07T05:30:44Z</time>
      </trkpt>
      <trkpt lat="42.68464" lon="1.39478">
        <ele>2374</ele>
        <time>2013-07-07T05:30:52Z</time>
      </trkpt>
      <trkpt lat="42.6846" lon="1.39477">
        <ele>2376</ele>
        <time>2013-07-07T05:30:59Z</time>
      </trkpt>
      <trkpt lat="42.6845" lon="1.39476">
        <ele>2376</ele>
        <time>2013-07-07T05:31:09Z</time>
      </trkpt>
      <trkpt lat="42.68443" lon="1.39475">
        <ele>2377</ele>
        <time>2013-07-07T05:31:17Z</time>
      </trkpt>
      <trkpt lat="42.68435" lon="1.39476">
        <ele>2378</ele>
        <time>2013-07-07T05:31:25Z</time>
      </trkpt>
      <trkpt lat="42.68427" lon="1.39474">
        <ele>2378</ele>
        <time>2013-07-07T05:31:36Z</time>
      </trkpt>
      <trkpt lat="42.68422" lon="1.39473">
        <ele>2378</ele>
        <time>2013-07-07T05:31:42Z</time>
      </trkpt>
      <trkpt lat="42.68415" lon="1.39469">
        <ele>2379</ele>
        <time>2013-07-07T05:31:51Z</time>
      </trkpt>
      <trkpt lat="42.68385" lon="1.39471">
        <ele>2380</ele>
        <time>2013-07-07T05:32:00Z</time>
      </trkpt>
      <trkpt lat="42.6839" lon="1.39469">
        <ele>2379</ele>
        <time>2013-07-07T05:32:06Z</time>
      </trkpt>
      <trkpt lat="42.6839" lon="1.39469">
        <ele>2380</ele>
        <time>2013-07-07T05:32:07Z</time>
      </trkpt>
      <trkpt lat="42.6839" lon="1.39468">
        <ele>2380</ele>
        <time>2013-07-07T05:32:17Z</time>
      </trkpt>
      <trkpt lat="42.68388" lon="1.39469">
        <ele>2380</ele>
        <time>2013-07-07T05:32:27Z</time>
      </trkpt>
      <trkpt lat="42.68384" lon="1.39468">
        <ele>2381</ele>
        <time>2013-07-07T05:32:36Z</time>
      </trkpt>
      <trkpt lat="42.68382" lon="1.39467">
        <ele>2382</ele>
        <time>2013-07-07T05:32:45Z</time>
      </trkpt>
      <trkpt lat="42.68379" lon="1.39463">
        <ele>2383</ele>
        <time>2013-07-07T05:32:54Z</time>
      </trkpt>
      <trkpt lat="42.68373" lon="1.39459">
        <ele>2383</ele>
        <time>2013-07-07T05:33:02Z</time>
      </trkpt>
      <trkpt lat="42.6837" lon="1.39457">
        <ele>2385</ele>
        <time>2013-07-07T05:33:09Z</time>
      </trkpt>
      <trkpt lat="42.68362" lon="1.39455">
        <ele>2386</ele>
        <time>2013-07-07T05:33:19Z</time>
      </trkpt>
      <trkpt lat="42.68355" lon="1.39453">
        <ele>2387</ele>
        <time>2013-07-07T05:33:27Z</time>
      </trkpt>
      <trkpt lat="42.68351" lon="1.39451">
        <ele>2388</ele>
        <time>2013-07-07T05:33:35Z</time>
      </trkpt>
      <trkpt lat="42.68351" lon="1.39449">
        <ele>2388</ele>
        <time>2013-07-07T05:33:43Z</time>
      </trkpt>
      <trkpt lat="42.68393" lon="1.39438">
        <ele>2389</ele>
        <time>2013-07-07T05:33:55Z</time>
      </trkpt>
      <trkpt lat="42.68364" lon="1.39445">
        <ele>2391</ele>
        <time>2013-07-07T05:34:05Z</time>
      </trkpt>
      <trkpt lat="42.68344" lon="1.39449">
        <ele>2392</ele>
        <time>2013-07-07T05:34:15Z</time>
      </trkpt>
      <trkpt lat="42.6833" lon="1.39451">
        <ele>2392</ele>
        <time>2013-07-07T05:34:25Z</time>
      </trkpt>
      <trkpt lat="42.68318" lon="1.39451">
        <ele>2394</ele>
        <time>2013-07-07T05:34:36Z</time>
      </trkpt>
      <trkpt lat="42.68309" lon="1.3945">
        <ele>2395</ele>
        <time>2013-07-07T05:34:45Z</time>
      </trkpt>
      <trkpt lat="42.68305" lon="1.39449">
        <ele>2395</ele>
        <time>2013-07-07T05:34:55Z</time>
      </trkpt>
      <trkpt lat="42.68295" lon="1.39446">
        <ele>2397</ele>
        <time>2013-07-07T05:35:04Z</time>
      </trkpt>
      <trkpt lat="42.68292" lon="1.39445">
        <ele>2398</ele>
        <time>2013-07-07T05:35:14Z</time>
      </trkpt>
      <trkpt lat="42.68286" lon="1.39442">
        <ele>2398</ele>
        <time>2013-07-07T05:35:21Z</time>
      </trkpt>
      <trkpt lat="42.68277" lon="1.39439">
        <ele>2399</ele>
        <time>2013-07-07T05:35:30Z</time>
      </trkpt>
      <trkpt lat="42.68274" lon="1.39436">
        <ele>2399</ele>
        <time>2013-07-07T05:35:37Z</time>
      </trkpt>
      <trkpt lat="42.68275" lon="1.39431">
        <ele>2399</ele>
        <time>2013-07-07T05:35:45Z</time>
      </trkpt>
      <trkpt lat="42.68273" lon="1.39428">
        <ele>2400</ele>
        <time>2013-07-07T05:35:56Z</time>
      </trkpt>
      <trkpt lat="42.68267" lon="1.39428">
        <ele>2400</ele>
        <time>2013-07-07T05:36:03Z</time>
      </trkpt>
      <trkpt lat="42.68264" lon="1.39427">
        <ele>2401</ele>
        <time>2013-07-07T05:36:09Z</time>
      </trkpt>
      <trkpt lat="42.68258" lon="1.39424">
        <ele>2401</ele>
        <time>2013-07-07T05:36:17Z</time>
      </trkpt>
      <trkpt lat="42.68253" lon="1.39421">
        <ele>2402</ele>
        <time>2013-07-07T05:36:25Z</time>
      </trkpt>
      <trkpt lat="42.68248" lon="1.39414">
        <ele>2403</ele>
        <time>2013-07-07T05:36:35Z</time>
      </trkpt>
      <trkpt lat="42.68245" lon="1.39409">
        <ele>2403</ele>
        <time>2013-07-07T05:36:42Z</time>
      </trkpt>
      <trkpt lat="42.68239" lon="1.39403">
        <ele>2403</ele>
        <time>2013-07-07T05:36:51Z</time>
      </trkpt>
      <trkpt lat="42.68231" lon="1.39402">
        <ele>2404</ele>
        <time>2013-07-07T05:36:57Z</time>
      </trkpt>
      <trkpt lat="42.68231" lon="1.39399">
        <ele>2403</ele>
        <time>2013-07-07T05:37:01Z</time>
      </trkpt>
      <trkpt lat="42.68228" lon="1.3939">
        <ele>2404</ele>
        <time>2013-07-07T05:37:09Z</time>
      </trkpt>
      <trkpt lat="42.68225" lon="1.39389">
        <ele>2404</ele>
        <time>2013-07-07T05:37:16Z</time>
      </trkpt>
      <trkpt lat="42.68218" lon="1.39388">
        <ele>2406</ele>
        <time>2013-07-07T05:37:25Z</time>
      </trkpt>
      <trkpt lat="42.68209" lon="1.39389">
        <ele>2407</ele>
        <time>2013-07-07T05:37:34Z</time>
      </trkpt>
      <trkpt lat="42.68205" lon="1.3939">
        <ele>2410</ele>
        <time>2013-07-07T05:37:45Z</time>
      </trkpt>
      <trkpt lat="42.68201" lon="1.39389">
        <ele>2410</ele>
        <time>2013-07-07T05:37:53Z</time>
      </trkpt>
      <trkpt lat="42.68202" lon="1.39392">
        <ele>2412</ele>
        <time>2013-07-07T05:38:04Z</time>
      </trkpt>
      <trkpt lat="42.68201" lon="1.39401">
        <ele>2413</ele>
        <time>2013-07-07T05:38:15Z</time>
      </trkpt>
      <trkpt lat="42.682" lon="1.39407">
        <ele>2414</ele>
        <time>2013-07-07T05:38:23Z</time>
      </trkpt>
      <trkpt lat="42.68198" lon="1.39408">
        <ele>2415</ele>
        <time>2013-07-07T05:38:29Z</time>
      </trkpt>
      <trkpt lat="42.68199" lon="1.39405">
        <ele>2415</ele>
        <time>2013-07-07T05:38:37Z</time>
      </trkpt>
      <trkpt lat="42.68195" lon="1.39407">
        <ele>2416</ele>
        <time>2013-07-07T05:38:46Z</time>
      </trkpt>
      <trkpt lat="42.68195" lon="1.39414">
        <ele>2418</ele>
        <time>2013-07-07T05:38:55Z</time>
      </trkpt>
      <trkpt lat="42.68195" lon="1.39417">
        <ele>2419</ele>
        <time>2013-07-07T05:39:05Z</time>
      </trkpt>
      <trkpt lat="42.68194" lon="1.39421">
        <ele>2421</ele>
        <time>2013-07-07T05:39:12Z</time>
      </trkpt>
      <trkpt lat="42.68195" lon="1.39426">
        <ele>2422</ele>
        <time>2013-07-07T05:39:20Z</time>
      </trkpt>
      <trkpt lat="42.68194" lon="1.39428">
        <ele>2424</ele>
        <time>2013-07-07T05:39:28Z</time>
      </trkpt>
      <trkpt lat="42.68194" lon="1.39433">
        <ele>2425</ele>
        <time>2013-07-07T05:39:36Z</time>
      </trkpt>
      <trkpt lat="42.68193" lon="1.39436">
        <ele>2426</ele>
        <time>2013-07-07T05:39:43Z</time>
      </trkpt>
      <trkpt lat="42.68191" lon="1.39434">
        <ele>2426</ele>
        <time>2013-07-07T05:39:50Z</time>
      </trkpt>
      <trkpt lat="42.68191" lon="1.39439">
        <ele>2426</ele>
        <time>2013-07-07T05:39:59Z</time>
      </trkpt>
      <trkpt lat="42.68189" lon="1.39439">
        <ele>2428</ele>
        <time>2013-07-07T05:40:07Z</time>
      </trkpt>
      <trkpt lat="42.68185" lon="1.3944">
        <ele>2430</ele>
        <time>2013-07-07T05:40:17Z</time>
      </trkpt>
      <trkpt lat="42.68182" lon="1.39443">
        <ele>2432</ele>
        <time>2013-07-07T05:40:25Z</time>
      </trkpt>
      <trkpt lat="42.68179" lon="1.39445">
        <ele>2433</ele>
        <time>2013-07-07T05:40:32Z</time>
      </trkpt>
      <trkpt lat="42.68174" lon="1.39443">
        <ele>2434</ele>
        <time>2013-07-07T05:40:42Z</time>
      </trkpt>
      <trkpt lat="42.68172" lon="1.39443">
        <ele>2435</ele>
        <time>2013-07-07T05:40:52Z</time>
      </trkpt>
      <trkpt lat="42.68169" lon="1.39443">
        <ele>2437</ele>
        <time>2013-07-07T05:41:01Z</time>
      </trkpt>
      <trkpt lat="42.68165" lon="1.39444">
        <ele>2439</ele>
        <time>2013-07-07T05:41:12Z</time>
      </trkpt>
      <trkpt lat="42.68162" lon="1.39445">
        <ele>2441</ele>
        <time>2013-07-07T05:41:23Z</time>
      </trkpt>
      <trkpt lat="42.68162" lon="1.39448">
        <ele>2443</ele>
        <time>2013-07-07T05:41:34Z</time>
      </trkpt>
      <trkpt lat="42.68156" lon="1.39451">
        <ele>2444</ele>
        <time>2013-07-07T05:41:43Z</time>
      </trkpt>
      <trkpt lat="42.68152" lon="1.39451">
        <ele>2445</ele>
        <time>2013-07-07T05:41:52Z</time>
      </trkpt>
      <trkpt lat="42.68147" lon="1.39454">
        <ele>2447</ele>
        <time>2013-07-07T05:42:02Z</time>
      </trkpt>
      <trkpt lat="42.68144" lon="1.39453">
        <ele>2448</ele>
        <time>2013-07-07T05:42:12Z</time>
      </trkpt>
      <trkpt lat="42.68141" lon="1.39452">
        <ele>2449</ele>
        <time>2013-07-07T05:42:22Z</time>
      </trkpt>
      <trkpt lat="42.68138" lon="1.39452">
        <ele>2450</ele>
        <time>2013-07-07T05:42:30Z</time>
      </trkpt>
      <trkpt lat="42.6814" lon="1.39453">
        <ele>2450</ele>
        <time>2013-07-07T05:42:42Z</time>
      </trkpt>
      <trkpt lat="42.68134" lon="1.39451">
        <ele>2451</ele>
        <time>2013-07-07T05:42:52Z</time>
      </trkpt>
      <trkpt lat="42.68128" lon="1.39453">
        <ele>2452</ele>
        <time>2013-07-07T05:43:02Z</time>
      </trkpt>
      <trkpt lat="42.68127" lon="1.39452">
        <ele>2453</ele>
        <time>2013-07-07T05:43:09Z</time>
      </trkpt>
      <trkpt lat="42.68127" lon="1.39452">
        <ele>2454</ele>
        <time>2013-07-07T05:43:17Z</time>
      </trkpt>
      <trkpt lat="42.68128" lon="1.3945">
        <ele>2454</ele>
        <time>2013-07-07T05:43:24Z</time>
      </trkpt>
      <trkpt lat="42.68123" lon="1.3945">
        <ele>2454</ele>
        <time>2013-07-07T05:43:31Z</time>
      </trkpt>
      <trkpt lat="42.68115" lon="1.39454">
        <ele>2455</ele>
        <time>2013-07-07T05:43:41Z</time>
      </trkpt>
      <trkpt lat="42.68109" lon="1.39457">
        <ele>2456</ele>
        <time>2013-07-07T05:43:51Z</time>
      </trkpt>
      <trkpt lat="42.68106" lon="1.39454">
        <ele>2455</ele>
        <time>2013-07-07T05:43:58Z</time>
      </trkpt>
      <trkpt lat="42.68106" lon="1.39459">
        <ele>2456</ele>
        <time>2013-07-07T05:44:11Z</time>
      </trkpt>
      <trkpt lat="42.68102" lon="1.39463">
        <ele>2456</ele>
        <time>2013-07-07T05:44:20Z</time>
      </trkpt>
      <trkpt lat="42.68097" lon="1.39464">
        <ele>2458</ele>
        <time>2013-07-07T05:44:30Z</time>
      </trkpt>
      <trkpt lat="42.68091" lon="1.39467">
        <ele>2459</ele>
        <time>2013-07-07T05:44:38Z</time>
      </trkpt>
      <trkpt lat="42.68085" lon="1.39471">
        <ele>2461</ele>
        <time>2013-07-07T05:44:49Z</time>
      </trkpt>
      <trkpt lat="42.68083" lon="1.39473">
        <ele>2462</ele>
        <time>2013-07-07T05:44:58Z</time>
      </trkpt>
      <trkpt lat="42.68082" lon="1.39475">
        <ele>2464</ele>
        <time>2013-07-07T05:45:11Z</time>
      </trkpt>
      <trkpt lat="42.68083" lon="1.39482">
        <ele>2465</ele>
        <time>2013-07-07T05:45:23Z</time>
      </trkpt>
      <trkpt lat="42.68078" lon="1.39487">
        <ele>2467</ele>
        <time>2013-07-07T05:45:34Z</time>
      </trkpt>
      <trkpt lat="42.68076" lon="1.39493">
        <ele>2468</ele>
        <time>2013-07-07T05:45:43Z</time>
      </trkpt>
      <trkpt lat="42.68076" lon="1.39493">
        <ele>2469</ele>
        <time>2013-07-07T05:45:44Z</time>
      </trkpt>
      <trkpt lat="42.68076" lon="1.39497">
        <ele>2471</ele>
        <time>2013-07-07T05:45:52Z</time>
      </trkpt>
      <trkpt lat="42.68076" lon="1.39499">
        <ele>2472</ele>
        <time>2013-07-07T05:46:00Z</time>
      </trkpt>
      <trkpt lat="42.68078" lon="1.39504">
        <ele>2473</ele>
        <time>2013-07-07T05:46:11Z</time>
      </trkpt>
      <trkpt lat="42.68076" lon="1.39507">
        <ele>2473</ele>
        <time>2013-07-07T05:46:24Z</time>
      </trkpt>
      <trkpt lat="42.68076" lon="1.3951">
        <ele>2476</ele>
        <time>2013-07-07T05:46:32Z</time>
      </trkpt>
      <trkpt lat="42.68071" lon="1.39512">
        <ele>2477</ele>
        <time>2013-07-07T05:46:41Z</time>
      </trkpt>
      <trkpt lat="42.68065" lon="1.39512">
        <ele>2479</ele>
        <time>2013-07-07T05:46:51Z</time>
      </trkpt>
      <trkpt lat="42.68066" lon="1.39517">
        <ele>2481</ele>
        <time>2013-07-07T05:47:06Z</time>
      </trkpt>
      <trkpt lat="42.68064" lon="1.39518">
        <ele>2483</ele>
        <time>2013-07-07T05:47:17Z</time>
      </trkpt>
      <trkpt lat="42.68068" lon="1.39524">
        <ele>2486</ele>
        <time>2013-07-07T05:47:23Z</time>
      </trkpt>
      <trkpt lat="42.68068" lon="1.39525">
        <ele>2485</ele>
        <time>2013-07-07T05:47:24Z</time>
      </trkpt>
      <trkpt lat="42.68075" lon="1.39541">
        <ele>2485</ele>
        <time>2013-07-07T05:47:33Z</time>
      </trkpt>
      <trkpt lat="42.68075" lon="1.39542">
        <ele>2488</ele>
        <time>2013-07-07T05:47:38Z</time>
      </trkpt>
      <trkpt lat="42.68075" lon="1.39542">
        <ele>2486</ele>
        <time>2013-07-07T05:47:39Z</time>
      </trkpt>
      <trkpt lat="42.68075" lon="1.39544">
        <ele>2487</ele>
        <time>2013-07-07T05:47:48Z</time>
      </trkpt>
      <trkpt lat="42.68074" lon="1.39546">
        <ele>2488</ele>
        <time>2013-07-07T05:47:57Z</time>
      </trkpt>
      <trkpt lat="42.68071" lon="1.39547">
        <ele>2489</ele>
        <time>2013-07-07T05:48:05Z</time>
      </trkpt>
      <trkpt lat="42.68075" lon="1.39552">
        <ele>2490</ele>
        <time>2013-07-07T05:48:12Z</time>
      </trkpt>
      <trkpt lat="42.68077" lon="1.39548">
        <ele>2490</ele>
        <time>2013-07-07T05:48:20Z</time>
      </trkpt>
      <trkpt lat="42.68077" lon="1.39545">
        <ele>2489</ele>
        <time>2013-07-07T05:48:26Z</time>
      </trkpt>
      <trkpt lat="42.68077" lon="1.39544">
        <ele>2489</ele>
        <time>2013-07-07T05:48:38Z</time>
      </trkpt>
      <trkpt lat="42.68079" lon="1.39546">
        <ele>2490</ele>
        <time>2013-07-07T05:48:49Z</time>
      </trkpt>
      <trkpt lat="42.68074" lon="1.39546">
        <ele>2491</ele>
        <time>2013-07-07T05:48:58Z</time>
      </trkpt>
      <trkpt lat="42.68072" lon="1.39544">
        <ele>2491</ele>
        <time>2013-07-07T05:49:07Z</time>
      </trkpt>
      <trkpt lat="42.68077" lon="1.39548">
        <ele>2492</ele>
        <time>2013-07-07T05:49:21Z</time>
      </trkpt>
      <trkpt lat="42.68075" lon="1.39549">
        <ele>2491</ele>
        <time>2013-07-07T05:49:34Z</time>
      </trkpt>
      <trkpt lat="42.68072" lon="1.3955">
        <ele>2491</ele>
        <time>2013-07-07T05:49:49Z</time>
      </trkpt>
      <trkpt lat="42.68071" lon="1.39549">
        <ele>2491</ele>
        <time>2013-07-07T05:50:00Z</time>
      </trkpt>
      <trkpt lat="42.6807" lon="1.39546">
        <ele>2491</ele>
        <time>2013-07-07T05:50:08Z</time>
      </trkpt>
      <trkpt lat="42.68074" lon="1.39552">
        <ele>2491</ele>
        <time>2013-07-07T05:50:18Z</time>
      </trkpt>
      <trkpt lat="42.68069" lon="1.39557">
        <ele>2493</ele>
        <time>2013-07-07T05:50:26Z</time>
      </trkpt>
      <trkpt lat="42.68068" lon="1.3956">
        <ele>2493</ele>
        <time>2013-07-07T05:50:33Z</time>
      </trkpt>
      <trkpt lat="42.68075" lon="1.39559">
        <ele>2494</ele>
        <time>2013-07-07T05:50:41Z</time>
      </trkpt>
      <trkpt lat="42.68074" lon="1.3956">
        <ele>2494</ele>
        <time>2013-07-07T05:50:44Z</time>
      </trkpt>
      <trkpt lat="42.68072" lon="1.39564">
        <ele>2496</ele>
        <time>2013-07-07T05:50:52Z</time>
      </trkpt>
      <trkpt lat="42.68075" lon="1.39565">
        <ele>2498</ele>
        <time>2013-07-07T05:50:58Z</time>
      </trkpt>
      <trkpt lat="42.68077" lon="1.39565">
        <ele>2499</ele>
        <time>2013-07-07T05:51:04Z</time>
      </trkpt>
      <trkpt lat="42.68075" lon="1.39566">
        <ele>2499</ele>
        <time>2013-07-07T05:51:09Z</time>
      </trkpt>
      <trkpt lat="42.68077" lon="1.3957">
        <ele>2501</ele>
        <time>2013-07-07T05:51:16Z</time>
      </trkpt>
      <trkpt lat="42.68073" lon="1.39571">
        <ele>2502</ele>
        <time>2013-07-07T05:51:24Z</time>
      </trkpt>
      <trkpt lat="42.68078" lon="1.39576">
        <ele>2502</ele>
        <time>2013-07-07T05:51:31Z</time>
      </trkpt>
      <trkpt lat="42.68078" lon="1.39575">
        <ele>2503</ele>
        <time>2013-07-07T05:51:38Z</time>
      </trkpt>
      <trkpt lat="42.68074" lon="1.39574">
        <ele>2505</ele>
        <time>2013-07-07T05:51:46Z</time>
      </trkpt>
      <trkpt lat="42.68072" lon="1.39574">
        <ele>2506</ele>
        <time>2013-07-07T05:51:53Z</time>
      </trkpt>
      <trkpt lat="42.68068" lon="1.39577">
        <ele>2507</ele>
        <time>2013-07-07T05:52:02Z</time>
      </trkpt>
      <trkpt lat="42.68075" lon="1.39584">
        <ele>2508</ele>
        <time>2013-07-07T05:52:11Z</time>
      </trkpt>
      <trkpt lat="42.68072" lon="1.39588">
        <ele>2509</ele>
        <time>2013-07-07T05:52:18Z</time>
      </trkpt>
      <trkpt lat="42.68072" lon="1.39589">
        <ele>2510</ele>
        <time>2013-07-07T05:52:22Z</time>
      </trkpt>
      <trkpt lat="42.68071" lon="1.39593">
        <ele>2510</ele>
        <time>2013-07-07T05:52:27Z</time>
      </trkpt>
      <trkpt lat="42.68069" lon="1.39596">
        <ele>2510</ele>
        <time>2013-07-07T05:52:34Z</time>
      </trkpt>
      <trkpt lat="42.68067" lon="1.39597">
        <ele>2510</ele>
        <time>2013-07-07T05:52:41Z</time>
      </trkpt>
      <trkpt lat="42.68066" lon="1.396">
        <ele>2511</ele>
        <time>2013-07-07T05:52:48Z</time>
      </trkpt>
      <trkpt lat="42.68064" lon="1.39604">
        <ele>2513</ele>
        <time>2013-07-07T05:52:55Z</time>
      </trkpt>
      <trkpt lat="42.68058" lon="1.3961">
        <ele>2513</ele>
        <time>2013-07-07T05:53:02Z</time>
      </trkpt>
      <trkpt lat="42.68053" lon="1.39616">
        <ele>2513</ele>
        <time>2013-07-07T05:53:09Z</time>
      </trkpt>
      <trkpt lat="42.6805" lon="1.3962">
        <ele>2512</ele>
        <time>2013-07-07T05:53:16Z</time>
      </trkpt>
      <trkpt lat="42.68045" lon="1.39621">
        <ele>2512</ele>
        <time>2013-07-07T05:53:22Z</time>
      </trkpt>
      <trkpt lat="42.68043" lon="1.3962">
        <ele>2512</ele>
        <time>2013-07-07T05:53:31Z</time>
      </trkpt>
      <trkpt lat="42.68045" lon="1.39619">
        <ele>2512</ele>
        <time>2013-07-07T05:53:45Z</time>
      </trkpt>
      <trkpt lat="42.68043" lon="1.39619">
        <ele>2513</ele>
        <time>2013-07-07T05:53:53Z</time>
      </trkpt>
      <trkpt lat="42.68021" lon="1.39598">
        <ele>2512</ele>
        <time>2013-07-07T05:54:07Z</time>
      </trkpt>
      <trkpt lat="42.68021" lon="1.39595">
        <ele>2513</ele>
        <time>2013-07-07T05:54:20Z</time>
      </trkpt>
      <trkpt lat="42.68024" lon="1.39598">
        <ele>2512</ele>
        <time>2013-07-07T05:54:29Z</time>
      </trkpt>
      <trkpt lat="42.68026" lon="1.39603">
        <ele>2512</ele>
        <time>2013-07-07T05:54:38Z</time>
      </trkpt>
      <trkpt lat="42.68026" lon="1.39603">
        <ele>2513</ele>
        <time>2013-07-07T05:54:46Z</time>
      </trkpt>
      <trkpt lat="42.68024" lon="1.39603">
        <ele>2513</ele>
        <time>2013-07-07T05:54:55Z</time>
      </trkpt>
      <trkpt lat="42.6802" lon="1.39616">
        <ele>2513</ele>
        <time>2013-07-07T05:55:11Z</time>
      </trkpt>
      <trkpt lat="42.68018" lon="1.39619">
        <ele>2513</ele>
        <time>2013-07-07T05:55:17Z</time>
      </trkpt>
      <trkpt lat="42.68019" lon="1.39622">
        <ele>2512</ele>
        <time>2013-07-07T05:55:19Z</time>
      </trkpt>
      <trkpt lat="42.68019" lon="1.39632">
        <ele>2512</ele>
        <time>2013-07-07T05:55:28Z</time>
      </trkpt>
      <trkpt lat="42.68021" lon="1.39643">
        <ele>2513</ele>
        <time>2013-07-07T05:55:36Z</time>
      </trkpt>
      <trkpt lat="42.68022" lon="1.39647">
        <ele>2513</ele>
        <time>2013-07-07T05:55:40Z</time>
      </trkpt>
      <trkpt lat="42.68023" lon="1.39652">
        <ele>2511</ele>
        <time>2013-07-07T05:55:43Z</time>
      </trkpt>
      <trkpt lat="42.68028" lon="1.3966">
        <ele>2511</ele>
        <time>2013-07-07T05:55:48Z</time>
      </trkpt>
      <trkpt lat="42.68028" lon="1.39667">
        <ele>2512</ele>
        <time>2013-07-07T05:55:57Z</time>
      </trkpt>
      <trkpt lat="42.68028" lon="1.39673">
        <ele>2513</ele>
        <time>2013-07-07T05:56:04Z</time>
      </trkpt>
      <trkpt lat="42.68028" lon="1.39682">
        <ele>2514</ele>
        <time>2013-07-07T05:56:13Z</time>
      </trkpt>
      <trkpt lat="42.68024" lon="1.39688">
        <ele>2516</ele>
        <time>2013-07-07T05:56:22Z</time>
      </trkpt>
      <trkpt lat="42.68023" lon="1.39696">
        <ele>2516</ele>
        <time>2013-07-07T05:56:31Z</time>
      </trkpt>
      <trkpt lat="42.68023" lon="1.39698">
        <ele>2517</ele>
        <time>2013-07-07T05:56:37Z</time>
      </trkpt>
      <trkpt lat="42.68027" lon="1.39705">
        <ele>2517</ele>
        <time>2013-07-07T05:56:48Z</time>
      </trkpt>
      <trkpt lat="42.68025" lon="1.3971">
        <ele>2518</ele>
        <time>2013-07-07T05:56:55Z</time>
      </trkpt>
      <trkpt lat="42.68019" lon="1.39715">
        <ele>2519</ele>
        <time>2013-07-07T05:57:03Z</time>
      </trkpt>
      <trkpt lat="42.68015" lon="1.39718">
        <ele>2521</ele>
        <time>2013-07-07T05:57:11Z</time>
      </trkpt>
      <trkpt lat="42.68009" lon="1.39721">
        <ele>2521</ele>
        <time>2013-07-07T05:57:19Z</time>
      </trkpt>
      <trkpt lat="42.68005" lon="1.39723">
        <ele>2522</ele>
        <time>2013-07-07T05:57:28Z</time>
      </trkpt>
      <trkpt lat="42.68004" lon="1.39726">
        <ele>2524</ele>
        <time>2013-07-07T05:57:38Z</time>
      </trkpt>
      <trkpt lat="42.68002" lon="1.39729">
        <ele>2526</ele>
        <time>2013-07-07T05:57:45Z</time>
      </trkpt>
      <trkpt lat="42.68001" lon="1.39735">
        <ele>2527</ele>
        <time>2013-07-07T05:57:52Z</time>
      </trkpt>
      <trkpt lat="42.68" lon="1.39737">
        <ele>2528</ele>
        <time>2013-07-07T05:57:59Z</time>
      </trkpt>
      <trkpt lat="42.67997" lon="1.3974">
        <ele>2530</ele>
        <time>2013-07-07T05:58:07Z</time>
      </trkpt>
      <trkpt lat="42.6799" lon="1.39739">
        <ele>2531</ele>
        <time>2013-07-07T05:58:15Z</time>
      </trkpt>
      <trkpt lat="42.67986" lon="1.39742">
        <ele>2532</ele>
        <time>2013-07-07T05:58:24Z</time>
      </trkpt>
      <trkpt lat="42.67985" lon="1.39747">
        <ele>2534</ele>
        <time>2013-07-07T05:58:33Z</time>
      </trkpt>
      <trkpt lat="42.67991" lon="1.39753">
        <ele>2534</ele>
        <time>2013-07-07T05:58:45Z</time>
      </trkpt>
      <trkpt lat="42.6799" lon="1.39755">
        <ele>2535</ele>
        <time>2013-07-07T05:58:54Z</time>
      </trkpt>
      <trkpt lat="42.67986" lon="1.39758">
        <ele>2536</ele>
        <time>2013-07-07T05:59:04Z</time>
      </trkpt>
      <trkpt lat="42.67985" lon="1.3976">
        <ele>2537</ele>
        <time>2013-07-07T05:59:13Z</time>
      </trkpt>
      <trkpt lat="42.67983" lon="1.39762">
        <ele>2538</ele>
        <time>2013-07-07T05:59:22Z</time>
      </trkpt>
      <trkpt lat="42.67983" lon="1.39766">
        <ele>2538</ele>
        <time>2013-07-07T05:59:31Z</time>
      </trkpt>
      <trkpt lat="42.67983" lon="1.3977">
        <ele>2540</ele>
        <time>2013-07-07T05:59:40Z</time>
      </trkpt>
      <trkpt lat="42.67985" lon="1.39772">
        <ele>2541</ele>
        <time>2013-07-07T05:59:49Z</time>
      </trkpt>
      <trkpt lat="42.67987" lon="1.39776">
        <ele>2542</ele>
        <time>2013-07-07T06:00:01Z</time>
      </trkpt>
      <trkpt lat="42.67989" lon="1.39781">
        <ele>2543</ele>
        <time>2013-07-07T06:00:08Z</time>
      </trkpt>
      <trkpt lat="42.67985" lon="1.39783">
        <ele>2544</ele>
        <time>2013-07-07T06:00:15Z</time>
      </trkpt>
      <trkpt lat="42.67985" lon="1.39793">
        <ele>2546</ele>
        <time>2013-07-07T06:00:25Z</time>
      </trkpt>
      <trkpt lat="42.67984" lon="1.398">
        <ele>2547</ele>
        <time>2013-07-07T06:00:34Z</time>
      </trkpt>
      <trkpt lat="42.67984" lon="1.39805">
        <ele>2548</ele>
        <time>2013-07-07T06:00:41Z</time>
      </trkpt>
      <trkpt lat="42.67982" lon="1.39808">
        <ele>2549</ele>
        <time>2013-07-07T06:00:47Z</time>
      </trkpt>
      <trkpt lat="42.67981" lon="1.3981">
        <ele>2548</ele>
        <time>2013-07-07T06:00:50Z</time>
      </trkpt>
      <trkpt lat="42.6798" lon="1.39815">
        <ele>2548</ele>
        <time>2013-07-07T06:00:55Z</time>
      </trkpt>
      <trkpt lat="42.67977" lon="1.39815">
        <ele>2549</ele>
        <time>2013-07-07T06:00:58Z</time>
      </trkpt>
      <trkpt lat="42.67974" lon="1.39818">
        <ele>2549</ele>
        <time>2013-07-07T06:01:04Z</time>
      </trkpt>
      <trkpt lat="42.67968" lon="1.39819">
        <ele>2551</ele>
        <time>2013-07-07T06:01:13Z</time>
      </trkpt>
      <trkpt lat="42.67963" lon="1.39823">
        <ele>2551</ele>
        <time>2013-07-07T06:01:20Z</time>
      </trkpt>
      <trkpt lat="42.67964" lon="1.39829">
        <ele>2551</ele>
        <time>2013-07-07T06:01:28Z</time>
      </trkpt>
      <trkpt lat="42.67965" lon="1.39833">
        <ele>2551</ele>
        <time>2013-07-07T06:01:35Z</time>
      </trkpt>
      <trkpt lat="42.67963" lon="1.39835">
        <ele>2552</ele>
        <time>2013-07-07T06:01:42Z</time>
      </trkpt>
      <trkpt lat="42.67959" lon="1.39833">
        <ele>2553</ele>
        <time>2013-07-07T06:01:52Z</time>
      </trkpt>
      <trkpt lat="42.67957" lon="1.39838">
        <ele>2554</ele>
        <time>2013-07-07T06:01:59Z</time>
      </trkpt>
      <trkpt lat="42.67955" lon="1.39837">
        <ele>2554</ele>
        <time>2013-07-07T06:02:07Z</time>
      </trkpt>
      <trkpt lat="42.67953" lon="1.39838">
        <ele>2554</ele>
        <time>2013-07-07T06:02:14Z</time>
      </trkpt>
      <trkpt lat="42.67954" lon="1.39839">
        <ele>2555</ele>
        <time>2013-07-07T06:02:24Z</time>
      </trkpt>
      <trkpt lat="42.67953" lon="1.39842">
        <ele>2556</ele>
        <time>2013-07-07T06:02:31Z</time>
      </trkpt>
      <trkpt lat="42.67951" lon="1.39843">
        <ele>2557</ele>
        <time>2013-07-07T06:02:38Z</time>
      </trkpt>
      <trkpt lat="42.67949" lon="1.39846">
        <ele>2557</ele>
        <time>2013-07-07T06:02:44Z</time>
      </trkpt>
      <trkpt lat="42.67946" lon="1.39848">
        <ele>2559</ele>
        <time>2013-07-07T06:02:51Z</time>
      </trkpt>
      <trkpt lat="42.67946" lon="1.39852">
        <ele>2558</ele>
        <time>2013-07-07T06:03:00Z</time>
      </trkpt>
      <trkpt lat="42.67944" lon="1.39857">
        <ele>2559</ele>
        <time>2013-07-07T06:03:07Z</time>
      </trkpt>
      <trkpt lat="42.67943" lon="1.3986">
        <ele>2559</ele>
        <time>2013-07-07T06:03:13Z</time>
      </trkpt>
      <trkpt lat="42.67941" lon="1.39861">
        <ele>2560</ele>
        <time>2013-07-07T06:03:21Z</time>
      </trkpt>
      <trkpt lat="42.67936" lon="1.39864">
        <ele>2561</ele>
        <time>2013-07-07T06:03:30Z</time>
      </trkpt>
      <trkpt lat="42.67934" lon="1.39866">
        <ele>2561</ele>
        <time>2013-07-07T06:03:36Z</time>
      </trkpt>
      <trkpt lat="42.67936" lon="1.39869">
        <ele>2562</ele>
        <time>2013-07-07T06:03:43Z</time>
      </trkpt>
      <trkpt lat="42.67934" lon="1.39871">
        <ele>2561</ele>
        <time>2013-07-07T06:03:53Z</time>
      </trkpt>
      <trkpt lat="42.67936" lon="1.39876">
        <ele>2562</ele>
        <time>2013-07-07T06:04:03Z</time>
      </trkpt>
      <trkpt lat="42.67936" lon="1.39878">
        <ele>2562</ele>
        <time>2013-07-07T06:04:15Z</time>
      </trkpt>
      <trkpt lat="42.67935" lon="1.39881">
        <ele>2562</ele>
        <time>2013-07-07T06:04:22Z</time>
      </trkpt>
      <trkpt lat="42.67933" lon="1.39877">
        <ele>2562</ele>
        <time>2013-07-07T06:04:28Z</time>
      </trkpt>
      <trkpt lat="42.67934" lon="1.39872">
        <ele>2561</ele>
        <time>2013-07-07T06:04:36Z</time>
      </trkpt>
      <trkpt lat="42.67936" lon="1.39873">
        <ele>2561</ele>
        <time>2013-07-07T06:04:45Z</time>
      </trkpt>
      <trkpt lat="42.67937" lon="1.39875">
        <ele>2561</ele>
        <time>2013-07-07T06:05:00Z</time>
      </trkpt>
      <trkpt lat="42.67935" lon="1.39874">
        <ele>2561</ele>
        <time>2013-07-07T06:05:17Z</time>
      </trkpt>
      <trkpt lat="42.67935" lon="1.39874">
        <ele>2561</ele>
        <time>2013-07-07T06:05:38Z</time>
      </trkpt>
      <trkpt lat="42.67937" lon="1.39876">
        <ele>2561</ele>
        <time>2013-07-07T06:05:50Z</time>
      </trkpt>
      <trkpt lat="42.67939" lon="1.39874">
        <ele>2562</ele>
        <time>2013-07-07T06:06:01Z</time>
      </trkpt>
      <trkpt lat="42.67938" lon="1.39877">
        <ele>2561</ele>
        <time>2013-07-07T06:06:15Z</time>
      </trkpt>
      <trkpt lat="42.67937" lon="1.39878">
        <ele>2562</ele>
        <time>2013-07-07T06:06:25Z</time>
      </trkpt>
      <trkpt lat="42.67934" lon="1.39878">
        <ele>2561</ele>
        <time>2013-07-07T06:06:36Z</time>
      </trkpt>
      <trkpt lat="42.67933" lon="1.3988">
        <ele>2562</ele>
        <time>2013-07-07T06:06:54Z</time>
      </trkpt>
      <trkpt lat="42.67935" lon="1.39876">
        <ele>2561</ele>
        <time>2013-07-07T06:07:13Z</time>
      </trkpt>
      <trkpt lat="42.67938" lon="1.39878">
        <ele>2562</ele>
        <time>2013-07-07T06:07:39Z</time>
      </trkpt>
      <trkpt lat="42.67938" lon="1.39876">
        <ele>2562</ele>
        <time>2013-07-07T06:08:00Z</time>
      </trkpt>
      <trkpt lat="42.67938" lon="1.39872">
        <ele>2562</ele>
        <time>2013-07-07T06:08:19Z</time>
      </trkpt>
      <trkpt lat="42.67938" lon="1.39875">
        <ele>2563</ele>
        <time>2013-07-07T06:08:35Z</time>
      </trkpt>
      <trkpt lat="42.67937" lon="1.39873">
        <ele>2563</ele>
        <time>2013-07-07T06:08:46Z</time>
      </trkpt>
      <trkpt lat="42.67937" lon="1.39872">
        <ele>2564</ele>
        <time>2013-07-07T06:08:52Z</time>
      </trkpt>
      <trkpt lat="42.67934" lon="1.3987">
        <ele>2563</ele>
        <time>2013-07-07T06:08:59Z</time>
      </trkpt>
      <trkpt lat="42.67934" lon="1.3987">
        <ele>2564</ele>
        <time>2013-07-07T06:09:13Z</time>
      </trkpt>
      <trkpt lat="42.67934" lon="1.3987">
        <ele>2564</ele>
        <time>2013-07-07T06:09:23Z</time>
      </trkpt>
      <trkpt lat="42.67933" lon="1.39872">
        <ele>2563</ele>
        <time>2013-07-07T06:09:36Z</time>
      </trkpt>
      <trkpt lat="42.67935" lon="1.39873">
        <ele>2564</ele>
        <time>2013-07-07T06:09:50Z</time>
      </trkpt>
      <trkpt lat="42.67936" lon="1.39874">
        <ele>2564</ele>
        <time>2013-07-07T06:10:01Z</time>
      </trkpt>
      <trkpt lat="42.67937" lon="1.39876">
        <ele>2563</ele>
        <time>2013-07-07T06:10:13Z</time>
      </trkpt>
      <trkpt lat="42.67938" lon="1.39877">
        <ele>2563</ele>
        <time>2013-07-07T06:10:26Z</time>
      </trkpt>
      <trkpt lat="42.67939" lon="1.39875">
        <ele>2563</ele>
        <time>2013-07-07T06:10:38Z</time>
      </trkpt>
      <trkpt lat="42.67936" lon="1.39874">
        <ele>2563</ele>
        <time>2013-07-07T06:10:45Z</time>
      </trkpt>
      <trkpt lat="42.67932" lon="1.3987">
        <ele>2563</ele>
        <time>2013-07-07T06:10:56Z</time>
      </trkpt>
      <trkpt lat="42.67931" lon="1.39868">
        <ele>2564</ele>
        <time>2013-07-07T06:11:12Z</time>
      </trkpt>
      <trkpt lat="42.67928" lon="1.39868">
        <ele>2564</ele>
        <time>2013-07-07T06:11:19Z</time>
      </trkpt>
      <trkpt lat="42.67926" lon="1.39863">
        <ele>2565</ele>
        <time>2013-07-07T06:11:35Z</time>
      </trkpt>
      <trkpt lat="42.67925" lon="1.39866">
        <ele>2565</ele>
        <time>2013-07-07T06:11:50Z</time>
      </trkpt>
      <trkpt lat="42.67922" lon="1.39867">
        <ele>2566</ele>
        <time>2013-07-07T06:12:00Z</time>
      </trkpt>
      <trkpt lat="42.67923" lon="1.39872">
        <ele>2566</ele>
        <time>2013-07-07T06:12:12Z</time>
      </trkpt>
      <trkpt lat="42.6792" lon="1.39876">
        <ele>2567</ele>
        <time>2013-07-07T06:12:21Z</time>
      </trkpt>
      <trkpt lat="42.67917" lon="1.39876">
        <ele>2568</ele>
        <time>2013-07-07T06:12:29Z</time>
      </trkpt>
      <trkpt lat="42.67914" lon="1.39872">
        <ele>2568</ele>
        <time>2013-07-07T06:12:34Z</time>
      </trkpt>
      <trkpt lat="42.67911" lon="1.39873">
        <ele>2569</ele>
        <time>2013-07-07T06:12:41Z</time>
      </trkpt>
      <trkpt lat="42.67906" lon="1.39872">
        <ele>2570</ele>
        <time>2013-07-07T06:12:49Z</time>
      </trkpt>
      <trkpt lat="42.67903" lon="1.39872">
        <ele>2572</ele>
        <time>2013-07-07T06:12:57Z</time>
      </trkpt>
      <trkpt lat="42.67899" lon="1.3987">
        <ele>2572</ele>
        <time>2013-07-07T06:13:04Z</time>
      </trkpt>
      <trkpt lat="42.67894" lon="1.39869">
        <ele>2574</ele>
        <time>2013-07-07T06:13:12Z</time>
      </trkpt>
      <trkpt lat="42.67893" lon="1.39868">
        <ele>2574</ele>
        <time>2013-07-07T06:13:21Z</time>
      </trkpt>
      <trkpt lat="42.67891" lon="1.39868">
        <ele>2574</ele>
        <time>2013-07-07T06:13:37Z</time>
      </trkpt>
      <trkpt lat="42.67883" lon="1.39863">
        <ele>2575</ele>
        <time>2013-07-07T06:13:46Z</time>
      </trkpt>
      <trkpt lat="42.67883" lon="1.3986">
        <ele>2576</ele>
        <time>2013-07-07T06:13:52Z</time>
      </trkpt>
      <trkpt lat="42.6788" lon="1.39857">
        <ele>2577</ele>
        <time>2013-07-07T06:14:00Z</time>
      </trkpt>
      <trkpt lat="42.67877" lon="1.39852">
        <ele>2578</ele>
        <time>2013-07-07T06:14:09Z</time>
      </trkpt>
      <trkpt lat="42.67874" lon="1.39848">
        <ele>2580</ele>
        <time>2013-07-07T06:14:16Z</time>
      </trkpt>
      <trkpt lat="42.6787" lon="1.39844">
        <ele>2582</ele>
        <time>2013-07-07T06:14:25Z</time>
      </trkpt>
      <trkpt lat="42.67868" lon="1.3984">
        <ele>2583</ele>
        <time>2013-07-07T06:14:34Z</time>
      </trkpt>
      <trkpt lat="42.67866" lon="1.39834">
        <ele>2585</ele>
        <time>2013-07-07T06:14:43Z</time>
      </trkpt>
      <trkpt lat="42.67866" lon="1.39829">
        <ele>2586</ele>
        <time>2013-07-07T06:14:50Z</time>
      </trkpt>
      <trkpt lat="42.67864" lon="1.39824">
        <ele>2588</ele>
        <time>2013-07-07T06:14:58Z</time>
      </trkpt>
      <trkpt lat="42.67863" lon="1.39822">
        <ele>2589</ele>
        <time>2013-07-07T06:15:05Z</time>
      </trkpt>
      <trkpt lat="42.67861" lon="1.3982">
        <ele>2591</ele>
        <time>2013-07-07T06:15:14Z</time>
      </trkpt>
      <trkpt lat="42.6786" lon="1.39814">
        <ele>2592</ele>
        <time>2013-07-07T06:15:21Z</time>
      </trkpt>
      <trkpt lat="42.67859" lon="1.39812">
        <ele>2593</ele>
        <time>2013-07-07T06:15:27Z</time>
      </trkpt>
      <trkpt lat="42.67857" lon="1.39807">
        <ele>2594</ele>
        <time>2013-07-07T06:15:34Z</time>
      </trkpt>
      <trkpt lat="42.67852" lon="1.39805">
        <ele>2596</ele>
        <time>2013-07-07T06:15:45Z</time>
      </trkpt>
      <trkpt lat="42.67852" lon="1.39801">
        <ele>2598</ele>
        <time>2013-07-07T06:15:56Z</time>
      </trkpt>
      <trkpt lat="42.6785" lon="1.39797">
        <ele>2600</ele>
        <time>2013-07-07T06:16:06Z</time>
      </trkpt>
      <trkpt lat="42.6785" lon="1.39793">
        <ele>2601</ele>
        <time>2013-07-07T06:16:16Z</time>
      </trkpt>
      <trkpt lat="42.6785" lon="1.3979">
        <ele>2602</ele>
        <time>2013-07-07T06:16:24Z</time>
      </trkpt>
      <trkpt lat="42.6785" lon="1.39785">
        <ele>2603</ele>
        <time>2013-07-07T06:16:32Z</time>
      </trkpt>
      <trkpt lat="42.67848" lon="1.3978">
        <ele>2605</ele>
        <time>2013-07-07T06:16:41Z</time>
      </trkpt>
      <trkpt lat="42.67848" lon="1.39776">
        <ele>2605</ele>
        <time>2013-07-07T06:16:49Z</time>
      </trkpt>
      <trkpt lat="42.67847" lon="1.39771">
        <ele>2607</ele>
        <time>2013-07-07T06:17:00Z</time>
      </trkpt>
      <trkpt lat="42.67846" lon="1.39766">
        <ele>2608</ele>
        <time>2013-07-07T06:17:08Z</time>
      </trkpt>
      <trkpt lat="42.67844" lon="1.3976">
        <ele>2610</ele>
        <time>2013-07-07T06:17:18Z</time>
      </trkpt>
      <trkpt lat="42.67841" lon="1.39755">
        <ele>2612</ele>
        <time>2013-07-07T06:17:28Z</time>
      </trkpt>
      <trkpt lat="42.67839" lon="1.39753">
        <ele>2613</ele>
        <time>2013-07-07T06:17:37Z</time>
      </trkpt>
      <trkpt lat="42.67838" lon="1.39751">
        <ele>2614</ele>
        <time>2013-07-07T06:17:45Z</time>
      </trkpt>
      <trkpt lat="42.67838" lon="1.39749">
        <ele>2616</ele>
        <time>2013-07-07T06:17:52Z</time>
      </trkpt>
      <trkpt lat="42.67837" lon="1.39745">
        <ele>2618</ele>
        <time>2013-07-07T06:18:03Z</time>
      </trkpt>
      <trkpt lat="42.67836" lon="1.39742">
        <ele>2619</ele>
        <time>2013-07-07T06:18:10Z</time>
      </trkpt>
      <trkpt lat="42.67835" lon="1.39738">
        <ele>2621</ele>
        <time>2013-07-07T06:18:21Z</time>
      </trkpt>
      <trkpt lat="42.67834" lon="1.39734">
        <ele>2622</ele>
        <time>2013-07-07T06:18:28Z</time>
      </trkpt>
      <trkpt lat="42.67832" lon="1.39731">
        <ele>2623</ele>
        <time>2013-07-07T06:18:37Z</time>
      </trkpt>
      <trkpt lat="42.6783" lon="1.39728">
        <ele>2625</ele>
        <time>2013-07-07T06:18:45Z</time>
      </trkpt>
      <trkpt lat="42.67828" lon="1.39725">
        <ele>2625</ele>
        <time>2013-07-07T06:18:51Z</time>
      </trkpt>
      <trkpt lat="42.67825" lon="1.39722">
        <ele>2627</ele>
        <time>2013-07-07T06:19:01Z</time>
      </trkpt>
      <trkpt lat="42.67822" lon="1.3972">
        <ele>2630</ele>
        <time>2013-07-07T06:19:08Z</time>
      </trkpt>
      <trkpt lat="42.6782" lon="1.39719">
        <ele>2630</ele>
        <time>2013-07-07T06:19:17Z</time>
      </trkpt>
      <trkpt lat="42.67819" lon="1.39718">
        <ele>2632</ele>
        <time>2013-07-07T06:19:22Z</time>
      </trkpt>
      <trkpt lat="42.67814" lon="1.39714">
        <ele>2633</ele>
        <time>2013-07-07T06:19:30Z</time>
      </trkpt>
      <trkpt lat="42.67812" lon="1.39711">
        <ele>2635</ele>
        <time>2013-07-07T06:19:38Z</time>
      </trkpt>
      <trkpt lat="42.67811" lon="1.39708">
        <ele>2635</ele>
        <time>2013-07-07T06:19:44Z</time>
      </trkpt>
      <trkpt lat="42.67811" lon="1.39706">
        <ele>2635</ele>
        <time>2013-07-07T06:19:55Z</time>
      </trkpt>
      <trkpt lat="42.67809" lon="1.39705">
        <ele>2635</ele>
        <time>2013-07-07T06:20:01Z</time>
      </trkpt>
      <trkpt lat="42.67805" lon="1.39705">
        <ele>2635</ele>
        <time>2013-07-07T06:20:14Z</time>
      </trkpt>
      <trkpt lat="42.67796" lon="1.39705">
        <ele>2637</ele>
        <time>2013-07-07T06:20:22Z</time>
      </trkpt>
      <trkpt lat="42.67789" lon="1.39704">
        <ele>2637</ele>
        <time>2013-07-07T06:20:31Z</time>
      </trkpt>
      <trkpt lat="42.67783" lon="1.39703">
        <ele>2639</ele>
        <time>2013-07-07T06:20:40Z</time>
      </trkpt>
      <trkpt lat="42.67778" lon="1.397">
        <ele>2639</ele>
        <time>2013-07-07T06:20:48Z</time>
      </trkpt>
      <trkpt lat="42.67773" lon="1.39698">
        <ele>2639</ele>
        <time>2013-07-07T06:20:57Z</time>
      </trkpt>
      <trkpt lat="42.67767" lon="1.39696">
        <ele>2641</ele>
        <time>2013-07-07T06:21:05Z</time>
      </trkpt>
      <trkpt lat="42.67762" lon="1.39696">
        <ele>2642</ele>
        <time>2013-07-07T06:21:14Z</time>
      </trkpt>
      <trkpt lat="42.67757" lon="1.39695">
        <ele>2644</ele>
        <time>2013-07-07T06:21:23Z</time>
      </trkpt>
      <trkpt lat="42.67753" lon="1.39696">
        <ele>2646</ele>
        <time>2013-07-07T06:21:32Z</time>
      </trkpt>
      <trkpt lat="42.67751" lon="1.39703">
        <ele>2648</ele>
        <time>2013-07-07T06:21:43Z</time>
      </trkpt>
      <trkpt lat="42.67755" lon="1.39714">
        <ele>2650</ele>
        <time>2013-07-07T06:21:51Z</time>
      </trkpt>
      <trkpt lat="42.67753" lon="1.39713">
        <ele>2651</ele>
        <time>2013-07-07T06:21:58Z</time>
      </trkpt>
      <trkpt lat="42.67748" lon="1.39712">
        <ele>2653</ele>
        <time>2013-07-07T06:22:06Z</time>
      </trkpt>
      <trkpt lat="42.67745" lon="1.39718">
        <ele>2654</ele>
        <time>2013-07-07T06:22:14Z</time>
      </trkpt>
      <trkpt lat="42.67747" lon="1.39721">
        <ele>2655</ele>
        <time>2013-07-07T06:22:25Z</time>
      </trkpt>
      <trkpt lat="42.6775" lon="1.39719">
        <ele>2654</ele>
        <time>2013-07-07T06:22:37Z</time>
      </trkpt>
      <trkpt lat="42.67747" lon="1.39719">
        <ele>2655</ele>
        <time>2013-07-07T06:22:51Z</time>
      </trkpt>
      <trkpt lat="42.67747" lon="1.39719">
        <ele>2655</ele>
        <time>2013-07-07T06:23:05Z</time>
      </trkpt>
      <trkpt lat="42.67743" lon="1.39722">
        <ele>2657</ele>
        <time>2013-07-07T06:23:14Z</time>
      </trkpt>
      <trkpt lat="42.6774" lon="1.39724">
        <ele>2659</ele>
        <time>2013-07-07T06:23:22Z</time>
      </trkpt>
      <trkpt lat="42.67736" lon="1.39724">
        <ele>2661</ele>
        <time>2013-07-07T06:23:31Z</time>
      </trkpt>
      <trkpt lat="42.67734" lon="1.39724">
        <ele>2662</ele>
        <time>2013-07-07T06:23:41Z</time>
      </trkpt>
      <trkpt lat="42.6773" lon="1.39721">
        <ele>2663</ele>
        <time>2013-07-07T06:23:51Z</time>
      </trkpt>
      <trkpt lat="42.67729" lon="1.39724">
        <ele>2664</ele>
        <time>2013-07-07T06:24:00Z</time>
      </trkpt>
      <trkpt lat="42.67726" lon="1.39724">
        <ele>2666</ele>
        <time>2013-07-07T06:24:08Z</time>
      </trkpt>
      <trkpt lat="42.67723" lon="1.39724">
        <ele>2667</ele>
        <time>2013-07-07T06:24:17Z</time>
      </trkpt>
      <trkpt lat="42.67722" lon="1.39724">
        <ele>2668</ele>
        <time>2013-07-07T06:24:26Z</time>
      </trkpt>
      <trkpt lat="42.67722" lon="1.39729">
        <ele>2669</ele>
        <time>2013-07-07T06:24:30Z</time>
      </trkpt>
      <trkpt lat="42.67723" lon="1.39738">
        <ele>2671</ele>
        <time>2013-07-07T06:24:37Z</time>
      </trkpt>
      <trkpt lat="42.67721" lon="1.39737">
        <ele>2672</ele>
        <time>2013-07-07T06:24:45Z</time>
      </trkpt>
      <trkpt lat="42.67719" lon="1.39736">
        <ele>2672</ele>
        <time>2013-07-07T06:25:00Z</time>
      </trkpt>
      <trkpt lat="42.67719" lon="1.39742">
        <ele>2674</ele>
        <time>2013-07-07T06:25:03Z</time>
      </trkpt>
      <trkpt lat="42.67717" lon="1.39742">
        <ele>2676</ele>
        <time>2013-07-07T06:25:11Z</time>
      </trkpt>
      <trkpt lat="42.67714" lon="1.39745">
        <ele>2677</ele>
        <time>2013-07-07T06:25:19Z</time>
      </trkpt>
      <trkpt lat="42.67712" lon="1.39752">
        <ele>2679</ele>
        <time>2013-07-07T06:25:29Z</time>
      </trkpt>
      <trkpt lat="42.67711" lon="1.39754">
        <ele>2680</ele>
        <time>2013-07-07T06:25:36Z</time>
      </trkpt>
      <trkpt lat="42.6771" lon="1.39751">
        <ele>2681</ele>
        <time>2013-07-07T06:25:44Z</time>
      </trkpt>
      <trkpt lat="42.67707" lon="1.39752">
        <ele>2682</ele>
        <time>2013-07-07T06:25:52Z</time>
      </trkpt>
      <trkpt lat="42.67706" lon="1.39753">
        <ele>2684</ele>
        <time>2013-07-07T06:26:02Z</time>
      </trkpt>
      <trkpt lat="42.67707" lon="1.39753">
        <ele>2684</ele>
        <time>2013-07-07T06:26:10Z</time>
      </trkpt>
      <trkpt lat="42.67707" lon="1.39753">
        <ele>2685</ele>
        <time>2013-07-07T06:26:13Z</time>
      </trkpt>
      <trkpt lat="42.67705" lon="1.3976">
        <ele>2687</ele>
        <time>2013-07-07T06:26:21Z</time>
      </trkpt>
      <trkpt lat="42.67701" lon="1.39762">
        <ele>2687</ele>
        <time>2013-07-07T06:26:29Z</time>
      </trkpt>
      <trkpt lat="42.67698" lon="1.39761">
        <ele>2689</ele>
        <time>2013-07-07T06:26:36Z</time>
      </trkpt>
      <trkpt lat="42.67698" lon="1.39761">
        <ele>2687</ele>
        <time>2013-07-07T06:26:44Z</time>
      </trkpt>
      <trkpt lat="42.67698" lon="1.39761">
        <ele>2689</ele>
        <time>2013-07-07T06:26:46Z</time>
      </trkpt>
      <trkpt lat="42.67696" lon="1.39761">
        <ele>2689</ele>
        <time>2013-07-07T06:26:54Z</time>
      </trkpt>
      <trkpt lat="42.67695" lon="1.39761">
        <ele>2690</ele>
        <time>2013-07-07T06:27:04Z</time>
      </trkpt>
      <trkpt lat="42.67694" lon="1.39761">
        <ele>2691</ele>
        <time>2013-07-07T06:27:12Z</time>
      </trkpt>
      <trkpt lat="42.67689" lon="1.39762">
        <ele>2692</ele>
        <time>2013-07-07T06:27:19Z</time>
      </trkpt>
      <trkpt lat="42.67687" lon="1.3976">
        <ele>2694</ele>
        <time>2013-07-07T06:27:27Z</time>
      </trkpt>
      <trkpt lat="42.67686" lon="1.39763">
        <ele>2695</ele>
        <time>2013-07-07T06:27:35Z</time>
      </trkpt>
      <trkpt lat="42.67686" lon="1.39763">
        <ele>2696</ele>
        <time>2013-07-07T06:27:44Z</time>
      </trkpt>
      <trkpt lat="42.67686" lon="1.39762">
        <ele>2697</ele>
        <time>2013-07-07T06:27:52Z</time>
      </trkpt>
      <trkpt lat="42.67685" lon="1.39761">
        <ele>2698</ele>
        <time>2013-07-07T06:27:59Z</time>
      </trkpt>
      <trkpt lat="42.67682" lon="1.39762">
        <ele>2699</ele>
        <time>2013-07-07T06:28:08Z</time>
      </trkpt>
      <trkpt lat="42.67679" lon="1.39763">
        <ele>2700</ele>
        <time>2013-07-07T06:28:19Z</time>
      </trkpt>
      <trkpt lat="42.67678" lon="1.39765">
        <ele>2700</ele>
        <time>2013-07-07T06:28:28Z</time>
      </trkpt>
      <trkpt lat="42.67677" lon="1.39764">
        <ele>2702</ele>
        <time>2013-07-07T06:28:33Z</time>
      </trkpt>
      <trkpt lat="42.67677" lon="1.39761">
        <ele>2704</ele>
        <time>2013-07-07T06:28:43Z</time>
      </trkpt>
      <trkpt lat="42.67671" lon="1.39764">
        <ele>2705</ele>
        <time>2013-07-07T06:28:52Z</time>
      </trkpt>
      <trkpt lat="42.67671" lon="1.39762">
        <ele>2706</ele>
        <time>2013-07-07T06:29:05Z</time>
      </trkpt>
      <trkpt lat="42.67667" lon="1.39763">
        <ele>2708</ele>
        <time>2013-07-07T06:29:14Z</time>
      </trkpt>
      <trkpt lat="42.67664" lon="1.39762">
        <ele>2709</ele>
        <time>2013-07-07T06:29:23Z</time>
      </trkpt>
      <trkpt lat="42.67662" lon="1.39763">
        <ele>2710</ele>
        <time>2013-07-07T06:29:32Z</time>
      </trkpt>
      <trkpt lat="42.6766" lon="1.39765">
        <ele>2712</ele>
        <time>2013-07-07T06:29:42Z</time>
      </trkpt>
      <trkpt lat="42.67656" lon="1.39767">
        <ele>2713</ele>
        <time>2013-07-07T06:29:51Z</time>
      </trkpt>
      <trkpt lat="42.67653" lon="1.39768">
        <ele>2715</ele>
        <time>2013-07-07T06:30:00Z</time>
      </trkpt>
      <trkpt lat="42.67651" lon="1.39768">
        <ele>2717</ele>
        <time>2013-07-07T06:30:09Z</time>
      </trkpt>
      <trkpt lat="42.67649" lon="1.39769">
        <ele>2718</ele>
        <time>2013-07-07T06:30:17Z</time>
      </trkpt>
      <trkpt lat="42.67647" lon="1.39768">
        <ele>2720</ele>
        <time>2013-07-07T06:30:28Z</time>
      </trkpt>
      <trkpt lat="42.67644" lon="1.39771">
        <ele>2721</ele>
        <time>2013-07-07T06:30:38Z</time>
      </trkpt>
      <trkpt lat="42.67642" lon="1.39772">
        <ele>2722</ele>
        <time>2013-07-07T06:30:47Z</time>
      </trkpt>
      <trkpt lat="42.67643" lon="1.39778">
        <ele>2723</ele>
        <time>2013-07-07T06:30:53Z</time>
      </trkpt>
      <trkpt lat="42.67644" lon="1.3978">
        <ele>2723</ele>
        <time>2013-07-07T06:31:01Z</time>
      </trkpt>
      <trkpt lat="42.67644" lon="1.39779">
        <ele>2724</ele>
        <time>2013-07-07T06:31:09Z</time>
      </trkpt>
      <trkpt lat="42.67644" lon="1.39781">
        <ele>2723</ele>
        <time>2013-07-07T06:31:11Z</time>
      </trkpt>
      <trkpt lat="42.6764" lon="1.39786">
        <ele>2724</ele>
        <time>2013-07-07T06:31:19Z</time>
      </trkpt>
      <trkpt lat="42.67637" lon="1.39789">
        <ele>2726</ele>
        <time>2013-07-07T06:31:27Z</time>
      </trkpt>
      <trkpt lat="42.67636" lon="1.39793">
        <ele>2727</ele>
        <time>2013-07-07T06:31:34Z</time>
      </trkpt>
      <trkpt lat="42.67634" lon="1.39796">
        <ele>2728</ele>
        <time>2013-07-07T06:31:41Z</time>
      </trkpt>
      <trkpt lat="42.67632" lon="1.39793">
        <ele>2728</ele>
        <time>2013-07-07T06:31:54Z</time>
      </trkpt>
      <trkpt lat="42.67631" lon="1.39797">
        <ele>2729</ele>
        <time>2013-07-07T06:32:01Z</time>
      </trkpt>
      <trkpt lat="42.6763" lon="1.39799">
        <ele>2731</ele>
        <time>2013-07-07T06:32:08Z</time>
      </trkpt>
      <trkpt lat="42.67628" lon="1.39804">
        <ele>2732</ele>
        <time>2013-07-07T06:32:17Z</time>
      </trkpt>
      <trkpt lat="42.67625" lon="1.39801">
        <ele>2734</ele>
        <time>2013-07-07T06:32:26Z</time>
      </trkpt>
      <trkpt lat="42.67622" lon="1.39801">
        <ele>2735</ele>
        <time>2013-07-07T06:32:35Z</time>
      </trkpt>
      <trkpt lat="42.67624" lon="1.39802">
        <ele>2735</ele>
        <time>2013-07-07T06:32:45Z</time>
      </trkpt>
      <trkpt lat="42.67621" lon="1.39802">
        <ele>2736</ele>
        <time>2013-07-07T06:32:53Z</time>
      </trkpt>
      <trkpt lat="42.67616" lon="1.39807">
        <ele>2737</ele>
        <time>2013-07-07T06:32:59Z</time>
      </trkpt>
      <trkpt lat="42.67616" lon="1.39811">
        <ele>2738</ele>
        <time>2013-07-07T06:33:08Z</time>
      </trkpt>
      <trkpt lat="42.67614" lon="1.39811">
        <ele>2740</ele>
        <time>2013-07-07T06:33:15Z</time>
      </trkpt>
      <trkpt lat="42.67611" lon="1.39813">
        <ele>2741</ele>
        <time>2013-07-07T06:33:24Z</time>
      </trkpt>
      <trkpt lat="42.67608" lon="1.39813">
        <ele>2744</ele>
        <time>2013-07-07T06:33:33Z</time>
      </trkpt>
      <trkpt lat="42.67606" lon="1.39817">
        <ele>2744</ele>
        <time>2013-07-07T06:33:43Z</time>
      </trkpt>
      <trkpt lat="42.67606" lon="1.39818">
        <ele>2745</ele>
        <time>2013-07-07T06:33:55Z</time>
      </trkpt>
      <trkpt lat="42.67601" lon="1.39815">
        <ele>2747</ele>
        <time>2013-07-07T06:34:03Z</time>
      </trkpt>
      <trkpt lat="42.67601" lon="1.39817">
        <ele>2747</ele>
        <time>2013-07-07T06:34:12Z</time>
      </trkpt>
      <trkpt lat="42.67598" lon="1.39818">
        <ele>2749</ele>
        <time>2013-07-07T06:34:20Z</time>
      </trkpt>
      <trkpt lat="42.67597" lon="1.3982">
        <ele>2749</ele>
        <time>2013-07-07T06:34:29Z</time>
      </trkpt>
      <trkpt lat="42.67596" lon="1.39823">
        <ele>2750</ele>
        <time>2013-07-07T06:34:38Z</time>
      </trkpt>
      <trkpt lat="42.67594" lon="1.39824">
        <ele>2752</ele>
        <time>2013-07-07T06:34:46Z</time>
      </trkpt>
      <trkpt lat="42.67593" lon="1.39823">
        <ele>2753</ele>
        <time>2013-07-07T06:34:58Z</time>
      </trkpt>
      <trkpt lat="42.6759" lon="1.39827">
        <ele>2754</ele>
        <time>2013-07-07T06:35:06Z</time>
      </trkpt>
      <trkpt lat="42.67586" lon="1.39829">
        <ele>2755</ele>
        <time>2013-07-07T06:35:14Z</time>
      </trkpt>
      <trkpt lat="42.67589" lon="1.39829">
        <ele>2756</ele>
        <time>2013-07-07T06:35:23Z</time>
      </trkpt>
      <trkpt lat="42.67587" lon="1.39831">
        <ele>2757</ele>
        <time>2013-07-07T06:35:32Z</time>
      </trkpt>
      <trkpt lat="42.67581" lon="1.39833">
        <ele>2759</ele>
        <time>2013-07-07T06:35:41Z</time>
      </trkpt>
      <trkpt lat="42.67576" lon="1.39835">
        <ele>2760</ele>
        <time>2013-07-07T06:35:52Z</time>
      </trkpt>
      <trkpt lat="42.67574" lon="1.39834">
        <ele>2761</ele>
        <time>2013-07-07T06:36:01Z</time>
      </trkpt>
      <trkpt lat="42.67568" lon="1.39834">
        <ele>2763</ele>
        <time>2013-07-07T06:36:10Z</time>
      </trkpt>
      <trkpt lat="42.67568" lon="1.39835">
        <ele>2763</ele>
        <time>2013-07-07T06:36:18Z</time>
      </trkpt>
      <trkpt lat="42.67568" lon="1.39834">
        <ele>2764</ele>
        <time>2013-07-07T06:36:27Z</time>
      </trkpt>
      <trkpt lat="42.67561" lon="1.39835">
        <ele>2765</ele>
        <time>2013-07-07T06:36:43Z</time>
      </trkpt>
      <trkpt lat="42.67563" lon="1.39836">
        <ele>2764</ele>
        <time>2013-07-07T06:36:58Z</time>
      </trkpt>
      <trkpt lat="42.67564" lon="1.39835">
        <ele>2765</ele>
        <time>2013-07-07T06:37:11Z</time>
      </trkpt>
      <trkpt lat="42.67567" lon="1.39832">
        <ele>2767</ele>
        <time>2013-07-07T06:37:20Z</time>
      </trkpt>
      <trkpt lat="42.67565" lon="1.39828">
        <ele>2768</ele>
        <time>2013-07-07T06:37:28Z</time>
      </trkpt>
      <trkpt lat="42.67561" lon="1.39825">
        <ele>2769</ele>
        <time>2013-07-07T06:37:36Z</time>
      </trkpt>
      <trkpt lat="42.67555" lon="1.39821">
        <ele>2770</ele>
        <time>2013-07-07T06:37:45Z</time>
      </trkpt>
      <trkpt lat="42.67554" lon="1.39819">
        <ele>2772</ele>
        <time>2013-07-07T06:37:54Z</time>
      </trkpt>
      <trkpt lat="42.67553" lon="1.39815">
        <ele>2774</ele>
        <time>2013-07-07T06:38:02Z</time>
      </trkpt>
      <trkpt lat="42.67552" lon="1.39813">
        <ele>2774</ele>
        <time>2013-07-07T06:38:11Z</time>
      </trkpt>
      <trkpt lat="42.6755" lon="1.39809">
        <ele>2775</ele>
        <time>2013-07-07T06:38:20Z</time>
      </trkpt>
      <trkpt lat="42.67549" lon="1.39808">
        <ele>2776</ele>
        <time>2013-07-07T06:38:26Z</time>
      </trkpt>
      <trkpt lat="42.67547" lon="1.3981">
        <ele>2777</ele>
        <time>2013-07-07T06:38:33Z</time>
      </trkpt>
      <trkpt lat="42.67544" lon="1.39809">
        <ele>2777</ele>
        <time>2013-07-07T06:38:41Z</time>
      </trkpt>
      <trkpt lat="42.6754" lon="1.39808">
        <ele>2778</ele>
        <time>2013-07-07T06:38:48Z</time>
      </trkpt>
      <trkpt lat="42.6754" lon="1.39807">
        <ele>2779</ele>
        <time>2013-07-07T06:38:55Z</time>
      </trkpt>
      <trkpt lat="42.67539" lon="1.39804">
        <ele>2780</ele>
        <time>2013-07-07T06:39:03Z</time>
      </trkpt>
      <trkpt lat="42.67537" lon="1.39802">
        <ele>2781</ele>
        <time>2013-07-07T06:39:12Z</time>
      </trkpt>
      <trkpt lat="42.67535" lon="1.39799">
        <ele>2782</ele>
        <time>2013-07-07T06:39:20Z</time>
      </trkpt>
      <trkpt lat="42.6753" lon="1.39797">
        <ele>2784</ele>
        <time>2013-07-07T06:39:28Z</time>
      </trkpt>
      <trkpt lat="42.67527" lon="1.39794">
        <ele>2785</ele>
        <time>2013-07-07T06:39:38Z</time>
      </trkpt>
      <trkpt lat="42.67525" lon="1.39791">
        <ele>2787</ele>
        <time>2013-07-07T06:39:46Z</time>
      </trkpt>
      <trkpt lat="42.67523" lon="1.39791">
        <ele>2787</ele>
        <time>2013-07-07T06:39:57Z</time>
      </trkpt>
      <trkpt lat="42.67523" lon="1.39789">
        <ele>2788</ele>
        <time>2013-07-07T06:40:11Z</time>
      </trkpt>
      <trkpt lat="42.67525" lon="1.39789">
        <ele>2789</ele>
        <time>2013-07-07T06:40:18Z</time>
      </trkpt>
      <trkpt lat="42.67524" lon="1.39787">
        <ele>2790</ele>
        <time>2013-07-07T06:40:26Z</time>
      </trkpt>
      <trkpt lat="42.67526" lon="1.39786">
        <ele>2791</ele>
        <time>2013-07-07T06:40:33Z</time>
      </trkpt>
      <trkpt lat="42.67525" lon="1.39785">
        <ele>2791</ele>
        <time>2013-07-07T06:40:43Z</time>
      </trkpt>
      <trkpt lat="42.67524" lon="1.39782">
        <ele>2793</ele>
        <time>2013-07-07T06:40:52Z</time>
      </trkpt>
      <trkpt lat="42.67522" lon="1.3978">
        <ele>2794</ele>
        <time>2013-07-07T06:41:00Z</time>
      </trkpt>
      <trkpt lat="42.67523" lon="1.3978">
        <ele>2795</ele>
        <time>2013-07-07T06:41:07Z</time>
      </trkpt>
      <trkpt lat="42.67522" lon="1.39775">
        <ele>2796</ele>
        <time>2013-07-07T06:41:14Z</time>
      </trkpt>
      <trkpt lat="42.67519" lon="1.39774">
        <ele>2796</ele>
        <time>2013-07-07T06:41:20Z</time>
      </trkpt>
      <trkpt lat="42.67515" lon="1.39772">
        <ele>2797</ele>
        <time>2013-07-07T06:41:38Z</time>
      </trkpt>
      <trkpt lat="42.6751" lon="1.3977">
        <ele>2798</ele>
        <time>2013-07-07T06:41:46Z</time>
      </trkpt>
      <trkpt lat="42.67506" lon="1.39769">
        <ele>2800</ele>
        <time>2013-07-07T06:41:54Z</time>
      </trkpt>
      <trkpt lat="42.67504" lon="1.39768">
        <ele>2801</ele>
        <time>2013-07-07T06:42:02Z</time>
      </trkpt>
      <trkpt lat="42.67501" lon="1.39766">
        <ele>2802</ele>
        <time>2013-07-07T06:42:10Z</time>
      </trkpt>
      <trkpt lat="42.67502" lon="1.39768">
        <ele>2802</ele>
        <time>2013-07-07T06:42:22Z</time>
      </trkpt>
      <trkpt lat="42.67499" lon="1.39768">
        <ele>2803</ele>
        <time>2013-07-07T06:42:34Z</time>
      </trkpt>
      <trkpt lat="42.67498" lon="1.39768">
        <ele>2805</ele>
        <time>2013-07-07T06:42:41Z</time>
      </trkpt>
      <trkpt lat="42.67494" lon="1.39766">
        <ele>2805</ele>
        <time>2013-07-07T06:42:50Z</time>
      </trkpt>
      <trkpt lat="42.67492" lon="1.39765">
        <ele>2808</ele>
        <time>2013-07-07T06:42:58Z</time>
      </trkpt>
      <trkpt lat="42.67491" lon="1.39763">
        <ele>2809</ele>
        <time>2013-07-07T06:43:08Z</time>
      </trkpt>
      <trkpt lat="42.67489" lon="1.39762">
        <ele>2810</ele>
        <time>2013-07-07T06:43:16Z</time>
      </trkpt>
      <trkpt lat="42.67495" lon="1.39764">
        <ele>2811</ele>
        <time>2013-07-07T06:43:26Z</time>
      </trkpt>
      <trkpt lat="42.67487" lon="1.39763">
        <ele>2812</ele>
        <time>2013-07-07T06:43:36Z</time>
      </trkpt>
      <trkpt lat="42.67487" lon="1.39761">
        <ele>2813</ele>
        <time>2013-07-07T06:43:43Z</time>
      </trkpt>
      <trkpt lat="42.67482" lon="1.39761">
        <ele>2815</ele>
        <time>2013-07-07T06:43:50Z</time>
      </trkpt>
      <trkpt lat="42.67477" lon="1.39761">
        <ele>2816</ele>
        <time>2013-07-07T06:43:59Z</time>
      </trkpt>
      <trkpt lat="42.67475" lon="1.39764">
        <ele>2817</ele>
        <time>2013-07-07T06:44:06Z</time>
      </trkpt>
      <trkpt lat="42.67472" lon="1.39767">
        <ele>2818</ele>
        <time>2013-07-07T06:44:14Z</time>
      </trkpt>
      <trkpt lat="42.67469" lon="1.39768">
        <ele>2819</ele>
        <time>2013-07-07T06:44:23Z</time>
      </trkpt>
      <trkpt lat="42.67467" lon="1.39768">
        <ele>2820</ele>
        <time>2013-07-07T06:44:31Z</time>
      </trkpt>
      <trkpt lat="42.67471" lon="1.39769">
        <ele>2822</ele>
        <time>2013-07-07T06:44:40Z</time>
      </trkpt>
      <trkpt lat="42.67472" lon="1.3977">
        <ele>2821</ele>
        <time>2013-07-07T06:44:51Z</time>
      </trkpt>
      <trkpt lat="42.67472" lon="1.3977">
        <ele>2821</ele>
        <time>2013-07-07T06:45:01Z</time>
      </trkpt>
      <trkpt lat="42.67472" lon="1.39769">
        <ele>2822</ele>
        <time>2013-07-07T06:45:11Z</time>
      </trkpt>
      <trkpt lat="42.6747" lon="1.39769">
        <ele>2822</ele>
        <time>2013-07-07T06:45:20Z</time>
      </trkpt>
      <trkpt lat="42.67467" lon="1.39768">
        <ele>2822</ele>
        <time>2013-07-07T06:45:31Z</time>
      </trkpt>
      <trkpt lat="42.67469" lon="1.39771">
        <ele>2821</ele>
        <time>2013-07-07T06:45:44Z</time>
      </trkpt>
      <trkpt lat="42.67468" lon="1.3977">
        <ele>2821</ele>
        <time>2013-07-07T06:46:00Z</time>
      </trkpt>
      <trkpt lat="42.67468" lon="1.39769">
        <ele>2822</ele>
        <time>2013-07-07T06:46:22Z</time>
      </trkpt>
      <trkpt lat="42.67468" lon="1.3977">
        <ele>2821</ele>
        <time>2013-07-07T06:46:35Z</time>
      </trkpt>
      <trkpt lat="42.67468" lon="1.39768">
        <ele>2821</ele>
        <time>2013-07-07T06:46:48Z</time>
      </trkpt>
      <trkpt lat="42.67467" lon="1.39768">
        <ele>2821</ele>
        <time>2013-07-07T06:47:04Z</time>
      </trkpt>
      <trkpt lat="42.67467" lon="1.3977">
        <ele>2821</ele>
        <time>2013-07-07T06:47:19Z</time>
      </trkpt>
      <trkpt lat="42.67468" lon="1.39772">
        <ele>2821</ele>
        <time>2013-07-07T06:47:35Z</time>
      </trkpt>
      <trkpt lat="42.67466" lon="1.39769">
        <ele>2822</ele>
        <time>2013-07-07T06:47:44Z</time>
      </trkpt>
      <trkpt lat="42.67466" lon="1.39769">
        <ele>2822</ele>
        <time>2013-07-07T06:47:57Z</time>
      </trkpt>
      <trkpt lat="42.67466" lon="1.39769">
        <ele>2823</ele>
        <time>2013-07-07T06:48:10Z</time>
      </trkpt>
      <trkpt lat="42.67466" lon="1.39769">
        <ele>2823</ele>
        <time>2013-07-07T06:48:23Z</time>
      </trkpt>
      <trkpt lat="42.67466" lon="1.39768">
        <ele>2822</ele>
        <time>2013-07-07T06:48:34Z</time>
      </trkpt>
      <trkpt lat="42.67467" lon="1.39767">
        <ele>2823</ele>
        <time>2013-07-07T06:48:47Z</time>
      </trkpt>
      <trkpt lat="42.67469" lon="1.39767">
        <ele>2823</ele>
        <time>2013-07-07T06:49:00Z</time>
      </trkpt>
      <trkpt lat="42.67469" lon="1.39768">
        <ele>2823</ele>
        <time>2013-07-07T06:49:13Z</time>
      </trkpt>
      <trkpt lat="42.67468" lon="1.39769">
        <ele>2823</ele>
        <time>2013-07-07T06:49:24Z</time>
      </trkpt>
      <trkpt lat="42.67467" lon="1.39768">
        <ele>2823</ele>
        <time>2013-07-07T06:49:35Z</time>
      </trkpt>
      <trkpt lat="42.67466" lon="1.39767">
        <ele>2823</ele>
        <time>2013-07-07T06:49:45Z</time>
      </trkpt>
      <trkpt lat="42.67466" lon="1.39767">
        <ele>2823</ele>
        <time>2013-07-07T06:49:58Z</time>
      </trkpt>
      <trkpt lat="42.67467" lon="1.39767">
        <ele>2823</ele>
        <time>2013-07-07T06:50:07Z</time>
      </trkpt>
      <trkpt lat="42.67468" lon="1.39765">
        <ele>2824</ele>
        <time>2013-07-07T06:50:15Z</time>
      </trkpt>
      <trkpt lat="42.67468" lon="1.39763">
        <ele>2824</ele>
        <time>2013-07-07T06:50:24Z</time>
      </trkpt>
      <trkpt lat="42.6747" lon="1.3976">
        <ele>2825</ele>
        <time>2013-07-07T06:50:30Z</time>
      </trkpt>
      <trkpt lat="42.67469" lon="1.39759">
        <ele>2825</ele>
        <time>2013-07-07T06:50:38Z</time>
      </trkpt>
      <trkpt lat="42.6747" lon="1.39758">
        <ele>2825</ele>
        <time>2013-07-07T06:50:47Z</time>
      </trkpt>
      <trkpt lat="42.67468" lon="1.39757">
        <ele>2826</ele>
        <time>2013-07-07T06:50:56Z</time>
      </trkpt>
      <trkpt lat="42.67468" lon="1.39757">
        <ele>2827</ele>
        <time>2013-07-07T06:50:57Z</time>
      </trkpt>
      <trkpt lat="42.67467" lon="1.39755">
        <ele>2827</ele>
        <time>2013-07-07T06:51:04Z</time>
      </trkpt>
      <trkpt lat="42.67466" lon="1.39752">
        <ele>2828</ele>
        <time>2013-07-07T06:51:12Z</time>
      </trkpt>
      <trkpt lat="42.67466" lon="1.39747">
        <ele>2830</ele>
        <time>2013-07-07T06:51:20Z</time>
      </trkpt>
      <trkpt lat="42.67466" lon="1.39744">
        <ele>2831</ele>
        <time>2013-07-07T06:51:26Z</time>
      </trkpt>
      <trkpt lat="42.67467" lon="1.3974">
        <ele>2832</ele>
        <time>2013-07-07T06:51:35Z</time>
      </trkpt>
      <trkpt lat="42.67466" lon="1.39738">
        <ele>2834</ele>
        <time>2013-07-07T06:51:42Z</time>
      </trkpt>
      <trkpt lat="42.67463" lon="1.39736">
        <ele>2836</ele>
        <time>2013-07-07T06:51:51Z</time>
      </trkpt>
      <trkpt lat="42.67459" lon="1.39734">
        <ele>2837</ele>
        <time>2013-07-07T06:52:00Z</time>
      </trkpt>
      <trkpt lat="42.67458" lon="1.39733">
        <ele>2837</ele>
        <time>2013-07-07T06:52:11Z</time>
      </trkpt>
      <trkpt lat="42.67455" lon="1.39734">
        <ele>2837</ele>
        <time>2013-07-07T06:52:17Z</time>
      </trkpt>
      <trkpt lat="42.67453" lon="1.39734">
        <ele>2839</ele>
        <time>2013-07-07T06:52:24Z</time>
      </trkpt>
      <trkpt lat="42.67451" lon="1.39733">
        <ele>2840</ele>
        <time>2013-07-07T06:52:28Z</time>
      </trkpt>
      <trkpt lat="42.6745" lon="1.39732">
        <ele>2841</ele>
        <time>2013-07-07T06:52:37Z</time>
      </trkpt>
      <trkpt lat="42.67451" lon="1.39734">
        <ele>2841</ele>
        <time>2013-07-07T06:52:48Z</time>
      </trkpt>
      <trkpt lat="42.67447" lon="1.39736">
        <ele>2842</ele>
        <time>2013-07-07T06:52:54Z</time>
      </trkpt>
      <trkpt lat="42.67444" lon="1.39736">
        <ele>2843</ele>
        <time>2013-07-07T06:53:02Z</time>
      </trkpt>
      <trkpt lat="42.67439" lon="1.39735">
        <ele>2845</ele>
        <time>2013-07-07T06:53:11Z</time>
      </trkpt>
      <trkpt lat="42.67435" lon="1.39737">
        <ele>2845</ele>
        <time>2013-07-07T06:53:21Z</time>
      </trkpt>
      <trkpt lat="42.6743" lon="1.39738">
        <ele>2846</ele>
        <time>2013-07-07T06:53:30Z</time>
      </trkpt>
      <trkpt lat="42.67427" lon="1.39739">
        <ele>2847</ele>
        <time>2013-07-07T06:53:38Z</time>
      </trkpt>
      <trkpt lat="42.67425" lon="1.39743">
        <ele>2848</ele>
        <time>2013-07-07T06:53:48Z</time>
      </trkpt>
      <trkpt lat="42.67425" lon="1.39747">
        <ele>2849</ele>
        <time>2013-07-07T06:53:57Z</time>
      </trkpt>
      <trkpt lat="42.67423" lon="1.39748">
        <ele>2849</ele>
        <time>2013-07-07T06:54:13Z</time>
      </trkpt>
      <trkpt lat="42.6742" lon="1.3975">
        <ele>2849</ele>
        <time>2013-07-07T06:54:20Z</time>
      </trkpt>
      <trkpt lat="42.67415" lon="1.39753">
        <ele>2849</ele>
        <time>2013-07-07T06:54:29Z</time>
      </trkpt>
      <trkpt lat="42.67412" lon="1.39755">
        <ele>2852</ele>
        <time>2013-07-07T06:54:39Z</time>
      </trkpt>
      <trkpt lat="42.67408" lon="1.39757">
        <ele>2852</ele>
        <time>2013-07-07T06:54:47Z</time>
      </trkpt>
      <trkpt lat="42.67404" lon="1.3976">
        <ele>2853</ele>
        <time>2013-07-07T06:54:56Z</time>
      </trkpt>
      <trkpt lat="42.67401" lon="1.39764">
        <ele>2854</ele>
        <time>2013-07-07T06:55:03Z</time>
      </trkpt>
      <trkpt lat="42.67401" lon="1.39763">
        <ele>2854</ele>
        <time>2013-07-07T06:55:09Z</time>
      </trkpt>
      <trkpt lat="42.67401" lon="1.39765">
        <ele>2854</ele>
        <time>2013-07-07T06:55:22Z</time>
      </trkpt>
      <trkpt lat="42.67401" lon="1.39766">
        <ele>2854</ele>
        <time>2013-07-07T06:55:32Z</time>
      </trkpt>
      <trkpt lat="42.67399" lon="1.39766">
        <ele>2855</ele>
        <time>2013-07-07T06:55:39Z</time>
      </trkpt>
      <trkpt lat="42.67394" lon="1.39767">
        <ele>2856</ele>
        <time>2013-07-07T06:55:48Z</time>
      </trkpt>
      <trkpt lat="42.67389" lon="1.39766">
        <ele>2857</ele>
        <time>2013-07-07T06:55:57Z</time>
      </trkpt>
      <trkpt lat="42.67386" lon="1.39768">
        <ele>2859</ele>
        <time>2013-07-07T06:56:05Z</time>
      </trkpt>
      <trkpt lat="42.67381" lon="1.39768">
        <ele>2860</ele>
        <time>2013-07-07T06:56:12Z</time>
      </trkpt>
      <trkpt lat="42.67378" lon="1.39767">
        <ele>2861</ele>
        <time>2013-07-07T06:56:21Z</time>
      </trkpt>
      <trkpt lat="42.67377" lon="1.39769">
        <ele>2862</ele>
        <time>2013-07-07T06:56:30Z</time>
      </trkpt>
      <trkpt lat="42.67377" lon="1.39769">
        <ele>2862</ele>
        <time>2013-07-07T06:56:39Z</time>
      </trkpt>
      <trkpt lat="42.67373" lon="1.39769">
        <ele>2864</ele>
        <time>2013-07-07T06:56:48Z</time>
      </trkpt>
      <trkpt lat="42.67371" lon="1.39768">
        <ele>2865</ele>
        <time>2013-07-07T06:56:56Z</time>
      </trkpt>
      <trkpt lat="42.67373" lon="1.39766">
        <ele>2866</ele>
        <time>2013-07-07T06:57:04Z</time>
      </trkpt>
      <trkpt lat="42.67374" lon="1.39766">
        <ele>2866</ele>
        <time>2013-07-07T06:57:05Z</time>
      </trkpt>
      <trkpt lat="42.67375" lon="1.39762">
        <ele>2867</ele>
        <time>2013-07-07T06:57:13Z</time>
      </trkpt>
      <trkpt lat="42.67374" lon="1.39758">
        <ele>2868</ele>
        <time>2013-07-07T06:57:20Z</time>
      </trkpt>
      <trkpt lat="42.67368" lon="1.39754">
        <ele>2869</ele>
        <time>2013-07-07T06:57:28Z</time>
      </trkpt>
      <trkpt lat="42.67365" lon="1.39757">
        <ele>2870</ele>
        <time>2013-07-07T06:57:37Z</time>
      </trkpt>
      <trkpt lat="42.6736" lon="1.39756">
        <ele>2871</ele>
        <time>2013-07-07T06:57:45Z</time>
      </trkpt>
      <trkpt lat="42.67357" lon="1.39757">
        <ele>2873</ele>
        <time>2013-07-07T06:57:53Z</time>
      </trkpt>
      <trkpt lat="42.67354" lon="1.39761">
        <ele>2874</ele>
        <time>2013-07-07T06:58:02Z</time>
      </trkpt>
      <trkpt lat="42.67348" lon="1.39765">
        <ele>2874</ele>
        <time>2013-07-07T06:58:12Z</time>
      </trkpt>
      <trkpt lat="42.67346" lon="1.39769">
        <ele>2874</ele>
        <time>2013-07-07T06:58:20Z</time>
      </trkpt>
      <trkpt lat="42.67344" lon="1.39773">
        <ele>2874</ele>
        <time>2013-07-07T06:58:29Z</time>
      </trkpt>
      <trkpt lat="42.67341" lon="1.39778">
        <ele>2874</ele>
        <time>2013-07-07T06:58:38Z</time>
      </trkpt>
      <trkpt lat="42.67336" lon="1.39784">
        <ele>2875</ele>
        <time>2013-07-07T06:58:47Z</time>
      </trkpt>
      <trkpt lat="42.67333" lon="1.39788">
        <ele>2876</ele>
        <time>2013-07-07T06:58:55Z</time>
      </trkpt>
      <trkpt lat="42.67329" lon="1.39793">
        <ele>2876</ele>
        <time>2013-07-07T06:59:04Z</time>
      </trkpt>
      <trkpt lat="42.67325" lon="1.39801">
        <ele>2877</ele>
        <time>2013-07-07T06:59:13Z</time>
      </trkpt>
      <trkpt lat="42.67321" lon="1.39806">
        <ele>2878</ele>
        <time>2013-07-07T06:59:21Z</time>
      </trkpt>
      <trkpt lat="42.67318" lon="1.39811">
        <ele>2879</ele>
        <time>2013-07-07T06:59:31Z</time>
      </trkpt>
      <trkpt lat="42.67316" lon="1.39817">
        <ele>2879</ele>
        <time>2013-07-07T06:59:41Z</time>
      </trkpt>
      <trkpt lat="42.67314" lon="1.3982">
        <ele>2880</ele>
        <time>2013-07-07T06:59:49Z</time>
      </trkpt>
      <trkpt lat="42.6731" lon="1.39823">
        <ele>2881</ele>
        <time>2013-07-07T06:59:59Z</time>
      </trkpt>
      <trkpt lat="42.67305" lon="1.39827">
        <ele>2882</ele>
        <time>2013-07-07T07:00:08Z</time>
      </trkpt>
      <trkpt lat="42.673" lon="1.39829">
        <ele>2883</ele>
        <time>2013-07-07T07:00:16Z</time>
      </trkpt>
      <trkpt lat="42.67297" lon="1.39836">
        <ele>2885</ele>
        <time>2013-07-07T07:00:25Z</time>
      </trkpt>
      <trkpt lat="42.67291" lon="1.39843">
        <ele>2885</ele>
        <time>2013-07-07T07:00:34Z</time>
      </trkpt>
      <trkpt lat="42.67287" lon="1.3985">
        <ele>2885</ele>
        <time>2013-07-07T07:00:43Z</time>
      </trkpt>
      <trkpt lat="42.67283" lon="1.39855">
        <ele>2886</ele>
        <time>2013-07-07T07:00:51Z</time>
      </trkpt>
      <trkpt lat="42.67277" lon="1.39858">
        <ele>2886</ele>
        <time>2013-07-07T07:01:00Z</time>
      </trkpt>
      <trkpt lat="42.67271" lon="1.39861">
        <ele>2886</ele>
        <time>2013-07-07T07:01:09Z</time>
      </trkpt>
      <trkpt lat="42.67262" lon="1.39866">
        <ele>2887</ele>
        <time>2013-07-07T07:01:20Z</time>
      </trkpt>
      <trkpt lat="42.67256" lon="1.39871">
        <ele>2887</ele>
        <time>2013-07-07T07:01:29Z</time>
      </trkpt>
      <trkpt lat="42.6725" lon="1.39875">
        <ele>2887</ele>
        <time>2013-07-07T07:01:37Z</time>
      </trkpt>
      <trkpt lat="42.67245" lon="1.39878">
        <ele>2888</ele>
        <time>2013-07-07T07:01:45Z</time>
      </trkpt>
      <trkpt lat="42.67238" lon="1.39881">
        <ele>2888</ele>
        <time>2013-07-07T07:01:54Z</time>
      </trkpt>
      <trkpt lat="42.67231" lon="1.39884">
        <ele>2889</ele>
        <time>2013-07-07T07:02:03Z</time>
      </trkpt>
      <trkpt lat="42.67224" lon="1.39886">
        <ele>2889</ele>
        <time>2013-07-07T07:02:12Z</time>
      </trkpt>
      <trkpt lat="42.67218" lon="1.3989">
        <ele>2890</ele>
        <time>2013-07-07T07:02:20Z</time>
      </trkpt>
      <trkpt lat="42.67212" lon="1.39893">
        <ele>2891</ele>
        <time>2013-07-07T07:02:29Z</time>
      </trkpt>
      <trkpt lat="42.67207" lon="1.39894">
        <ele>2892</ele>
        <time>2013-07-07T07:02:37Z</time>
      </trkpt>
      <trkpt lat="42.67201" lon="1.39891">
        <ele>2893</ele>
        <time>2013-07-07T07:02:46Z</time>
      </trkpt>
      <trkpt lat="42.67199" lon="1.39893">
        <ele>2894</ele>
        <time>2013-07-07T07:02:54Z</time>
      </trkpt>
      <trkpt lat="42.67198" lon="1.39897">
        <ele>2894</ele>
        <time>2013-07-07T07:03:07Z</time>
      </trkpt>
      <trkpt lat="42.67195" lon="1.39899">
        <ele>2896</ele>
        <time>2013-07-07T07:03:17Z</time>
      </trkpt>
      <trkpt lat="42.67192" lon="1.399">
        <ele>2897</ele>
        <time>2013-07-07T07:03:24Z</time>
      </trkpt>
      <trkpt lat="42.67194" lon="1.39901">
        <ele>2897</ele>
        <time>2013-07-07T07:03:36Z</time>
      </trkpt>
      <trkpt lat="42.6719" lon="1.39903">
        <ele>2898</ele>
        <time>2013-07-07T07:03:44Z</time>
      </trkpt>
      <trkpt lat="42.67187" lon="1.39904">
        <ele>2899</ele>
        <time>2013-07-07T07:03:54Z</time>
      </trkpt>
      <trkpt lat="42.67182" lon="1.39905">
        <ele>2900</ele>
        <time>2013-07-07T07:04:03Z</time>
      </trkpt>
      <trkpt lat="42.67181" lon="1.39906">
        <ele>2900</ele>
        <time>2013-07-07T07:04:04Z</time>
      </trkpt>
      <trkpt lat="42.67178" lon="1.39909">
        <ele>2900</ele>
        <time>2013-07-07T07:04:12Z</time>
      </trkpt>
      <trkpt lat="42.67175" lon="1.39911">
        <ele>2900</ele>
        <time>2013-07-07T07:04:18Z</time>
      </trkpt>
      <trkpt lat="42.67172" lon="1.39915">
        <ele>2900</ele>
        <time>2013-07-07T07:04:27Z</time>
      </trkpt>
      <trkpt lat="42.67167" lon="1.39919">
        <ele>2900</ele>
        <time>2013-07-07T07:04:35Z</time>
      </trkpt>
      <trkpt lat="42.67163" lon="1.39927">
        <ele>2900</ele>
        <time>2013-07-07T07:04:43Z</time>
      </trkpt>
      <trkpt lat="42.67167" lon="1.39926">
        <ele>2900</ele>
        <time>2013-07-07T07:04:51Z</time>
      </trkpt>
      <trkpt lat="42.67164" lon="1.39928">
        <ele>2901</ele>
        <time>2013-07-07T07:05:02Z</time>
      </trkpt>
      <trkpt lat="42.67165" lon="1.39931">
        <ele>2900</ele>
        <time>2013-07-07T07:05:19Z</time>
      </trkpt>
      <trkpt lat="42.67163" lon="1.3993">
        <ele>2900</ele>
        <time>2013-07-07T07:05:33Z</time>
      </trkpt>
      <trkpt lat="42.67164" lon="1.39932">
        <ele>2901</ele>
        <time>2013-07-07T07:05:48Z</time>
      </trkpt>
      <trkpt lat="42.67162" lon="1.39931">
        <ele>2900</ele>
        <time>2013-07-07T07:06:00Z</time>
      </trkpt>
      <trkpt lat="42.67158" lon="1.39936">
        <ele>2900</ele>
        <time>2013-07-07T07:06:07Z</time>
      </trkpt>
      <trkpt lat="42.67153" lon="1.3994">
        <ele>2901</ele>
        <time>2013-07-07T07:06:17Z</time>
      </trkpt>
      <trkpt lat="42.67156" lon="1.39943">
        <ele>2901</ele>
        <time>2013-07-07T07:06:27Z</time>
      </trkpt>
      <trkpt lat="42.67155" lon="1.39946">
        <ele>2901</ele>
        <time>2013-07-07T07:06:41Z</time>
      </trkpt>
      <trkpt lat="42.67154" lon="1.39949">
        <ele>2901</ele>
        <time>2013-07-07T07:06:53Z</time>
      </trkpt>
      <trkpt lat="42.67152" lon="1.39951">
        <ele>2901</ele>
        <time>2013-07-07T07:07:00Z</time>
      </trkpt>
      <trkpt lat="42.67147" lon="1.39955">
        <ele>2900</ele>
        <time>2013-07-07T07:07:07Z</time>
      </trkpt>
      <trkpt lat="42.67142" lon="1.39963">
        <ele>2900</ele>
        <time>2013-07-07T07:07:16Z</time>
      </trkpt>
      <trkpt lat="42.67141" lon="1.39965">
        <ele>2900</ele>
        <time>2013-07-07T07:07:24Z</time>
      </trkpt>
      <trkpt lat="42.67139" lon="1.39966">
        <ele>2900</ele>
        <time>2013-07-07T07:07:34Z</time>
      </trkpt>
      <trkpt lat="42.67139" lon="1.39967">
        <ele>2900</ele>
        <time>2013-07-07T07:07:35Z</time>
      </trkpt>
      <trkpt lat="42.67134" lon="1.39973">
        <ele>2899</ele>
        <time>2013-07-07T07:07:42Z</time>
      </trkpt>
      <trkpt lat="42.67128" lon="1.39979">
        <ele>2899</ele>
        <time>2013-07-07T07:07:49Z</time>
      </trkpt>
      <trkpt lat="42.67126" lon="1.39978">
        <ele>2899</ele>
        <time>2013-07-07T07:07:56Z</time>
      </trkpt>
      <trkpt lat="42.67122" lon="1.39981">
        <ele>2898</ele>
        <time>2013-07-07T07:08:02Z</time>
      </trkpt>
      <trkpt lat="42.6712" lon="1.39979">
        <ele>2899</ele>
        <time>2013-07-07T07:08:12Z</time>
      </trkpt>
      <trkpt lat="42.67117" lon="1.3998">
        <ele>2901</ele>
        <time>2013-07-07T07:08:22Z</time>
      </trkpt>
      <trkpt lat="42.67116" lon="1.39979">
        <ele>2902</ele>
        <time>2013-07-07T07:08:31Z</time>
      </trkpt>
      <trkpt lat="42.67113" lon="1.39977">
        <ele>2903</ele>
        <time>2013-07-07T07:08:41Z</time>
      </trkpt>
      <trkpt lat="42.67111" lon="1.39972">
        <ele>2905</ele>
        <time>2013-07-07T07:08:49Z</time>
      </trkpt>
      <trkpt lat="42.67108" lon="1.39967">
        <ele>2906</ele>
        <time>2013-07-07T07:09:00Z</time>
      </trkpt>
      <trkpt lat="42.67104" lon="1.39964">
        <ele>2907</ele>
        <time>2013-07-07T07:09:08Z</time>
      </trkpt>
      <trkpt lat="42.67102" lon="1.39962">
        <ele>2909</ele>
        <time>2013-07-07T07:09:17Z</time>
      </trkpt>
      <trkpt lat="42.67099" lon="1.39959">
        <ele>2911</ele>
        <time>2013-07-07T07:09:27Z</time>
      </trkpt>
      <trkpt lat="42.67095" lon="1.39955">
        <ele>2913</ele>
        <time>2013-07-07T07:09:40Z</time>
      </trkpt>
      <trkpt lat="42.67094" lon="1.39955">
        <ele>2913</ele>
        <time>2013-07-07T07:09:51Z</time>
      </trkpt>
      <trkpt lat="42.67093" lon="1.39953">
        <ele>2915</ele>
        <time>2013-07-07T07:10:01Z</time>
      </trkpt>
      <trkpt lat="42.67087" lon="1.39949">
        <ele>2916</ele>
        <time>2013-07-07T07:10:10Z</time>
      </trkpt>
      <trkpt lat="42.67084" lon="1.39953">
        <ele>2916</ele>
        <time>2013-07-07T07:10:19Z</time>
      </trkpt>
      <trkpt lat="42.67083" lon="1.39955">
        <ele>2918</ele>
        <time>2013-07-07T07:10:29Z</time>
      </trkpt>
      <trkpt lat="42.67081" lon="1.3996">
        <ele>2920</ele>
        <time>2013-07-07T07:10:40Z</time>
      </trkpt>
      <trkpt lat="42.67079" lon="1.39963">
        <ele>2921</ele>
        <time>2013-07-07T07:10:48Z</time>
      </trkpt>
      <trkpt lat="42.67078" lon="1.39968">
        <ele>2921</ele>
        <time>2013-07-07T07:10:58Z</time>
      </trkpt>
      <trkpt lat="42.67076" lon="1.3997">
        <ele>2923</ele>
        <time>2013-07-07T07:11:08Z</time>
      </trkpt>
      <trkpt lat="42.67078" lon="1.39969">
        <ele>2923</ele>
        <time>2013-07-07T07:11:16Z</time>
      </trkpt>
      <trkpt lat="42.67074" lon="1.3997">
        <ele>2924</ele>
        <time>2013-07-07T07:11:25Z</time>
      </trkpt>
      <trkpt lat="42.67075" lon="1.39972">
        <ele>2924</ele>
        <time>2013-07-07T07:11:37Z</time>
      </trkpt>
      <trkpt lat="42.67072" lon="1.39971">
        <ele>2925</ele>
        <time>2013-07-07T07:11:47Z</time>
      </trkpt>
      <trkpt lat="42.67069" lon="1.39968">
        <ele>2926</ele>
        <time>2013-07-07T07:11:56Z</time>
      </trkpt>
      <trkpt lat="42.67066" lon="1.39964">
        <ele>2927</ele>
        <time>2013-07-07T07:12:05Z</time>
      </trkpt>
      <trkpt lat="42.67063" lon="1.39964">
        <ele>2929</ele>
        <time>2013-07-07T07:12:09Z</time>
      </trkpt>
      <trkpt lat="42.67059" lon="1.39965">
        <ele>2930</ele>
        <time>2013-07-07T07:12:19Z</time>
      </trkpt>
      <trkpt lat="42.67057" lon="1.39964">
        <ele>2931</ele>
        <time>2013-07-07T07:12:27Z</time>
      </trkpt>
      <trkpt lat="42.67055" lon="1.39967">
        <ele>2932</ele>
        <time>2013-07-07T07:12:36Z</time>
      </trkpt>
      <trkpt lat="42.67053" lon="1.39973">
        <ele>2933</ele>
        <time>2013-07-07T07:12:46Z</time>
      </trkpt>
      <trkpt lat="42.6705" lon="1.39974">
        <ele>2934</ele>
        <time>2013-07-07T07:12:55Z</time>
      </trkpt>
      <trkpt lat="42.67046" lon="1.39979">
        <ele>2936</ele>
        <time>2013-07-07T07:13:05Z</time>
      </trkpt>
      <trkpt lat="42.67046" lon="1.39979">
        <ele>2936</ele>
        <time>2013-07-07T07:13:16Z</time>
      </trkpt>
      <trkpt lat="42.67047" lon="1.39984">
        <ele>2937</ele>
        <time>2013-07-07T07:13:24Z</time>
      </trkpt>
      <trkpt lat="42.67046" lon="1.39982">
        <ele>2938</ele>
        <time>2013-07-07T07:13:32Z</time>
      </trkpt>
      <trkpt lat="42.67044" lon="1.39979">
        <ele>2940</ele>
        <time>2013-07-07T07:13:40Z</time>
      </trkpt>
      <trkpt lat="42.67039" lon="1.39976">
        <ele>2941</ele>
        <time>2013-07-07T07:13:51Z</time>
      </trkpt>
      <trkpt lat="42.67034" lon="1.39978">
        <ele>2942</ele>
        <time>2013-07-07T07:14:00Z</time>
      </trkpt>
      <trkpt lat="42.67029" lon="1.39981">
        <ele>2944</ele>
        <time>2013-07-07T07:14:10Z</time>
      </trkpt>
      <trkpt lat="42.67028" lon="1.39982">
        <ele>2945</ele>
        <time>2013-07-07T07:14:18Z</time>
      </trkpt>
      <trkpt lat="42.67029" lon="1.3998">
        <ele>2946</ele>
        <time>2013-07-07T07:14:27Z</time>
      </trkpt>
      <trkpt lat="42.67027" lon="1.39978">
        <ele>2947</ele>
        <time>2013-07-07T07:14:37Z</time>
      </trkpt>
      <trkpt lat="42.67023" lon="1.39979">
        <ele>2948</ele>
        <time>2013-07-07T07:14:44Z</time>
      </trkpt>
      <trkpt lat="42.67018" lon="1.3998">
        <ele>2949</ele>
        <time>2013-07-07T07:14:54Z</time>
      </trkpt>
      <trkpt lat="42.67015" lon="1.39983">
        <ele>2950</ele>
        <time>2013-07-07T07:15:04Z</time>
      </trkpt>
      <trkpt lat="42.67015" lon="1.39986">
        <ele>2952</ele>
        <time>2013-07-07T07:15:17Z</time>
      </trkpt>
      <trkpt lat="42.67013" lon="1.39984">
        <ele>2953</ele>
        <time>2013-07-07T07:15:29Z</time>
      </trkpt>
      <trkpt lat="42.67008" lon="1.39989">
        <ele>2955</ele>
        <time>2013-07-07T07:15:38Z</time>
      </trkpt>
      <trkpt lat="42.67005" lon="1.3999">
        <ele>2956</ele>
        <time>2013-07-07T07:15:45Z</time>
      </trkpt>
      <trkpt lat="42.67007" lon="1.39996">
        <ele>2957</ele>
        <time>2013-07-07T07:15:53Z</time>
      </trkpt>
      <trkpt lat="42.67009" lon="1.39999">
        <ele>2957</ele>
        <time>2013-07-07T07:16:06Z</time>
      </trkpt>
      <trkpt lat="42.67007" lon="1.39995">
        <ele>2958</ele>
        <time>2013-07-07T07:16:16Z</time>
      </trkpt>
      <trkpt lat="42.67004" lon="1.39991">
        <ele>2959</ele>
        <time>2013-07-07T07:16:26Z</time>
      </trkpt>
      <trkpt lat="42.66998" lon="1.39988">
        <ele>2961</ele>
        <time>2013-07-07T07:16:36Z</time>
      </trkpt>
      <trkpt lat="42.66991" lon="1.39987">
        <ele>2962</ele>
        <time>2013-07-07T07:16:43Z</time>
      </trkpt>
      <trkpt lat="42.66992" lon="1.39984">
        <ele>2964</ele>
        <time>2013-07-07T07:16:51Z</time>
      </trkpt>
      <trkpt lat="42.66993" lon="1.39989">
        <ele>2964</ele>
        <time>2013-07-07T07:16:57Z</time>
      </trkpt>
      <trkpt lat="42.66987" lon="1.3999">
        <ele>2965</ele>
        <time>2013-07-07T07:17:05Z</time>
      </trkpt>
      <trkpt lat="42.66984" lon="1.39991">
        <ele>2966</ele>
        <time>2013-07-07T07:17:14Z</time>
      </trkpt>
      <trkpt lat="42.66986" lon="1.39988">
        <ele>2967</ele>
        <time>2013-07-07T07:17:24Z</time>
      </trkpt>
      <trkpt lat="42.66984" lon="1.39985">
        <ele>2968</ele>
        <time>2013-07-07T07:17:32Z</time>
      </trkpt>
      <trkpt lat="42.66981" lon="1.39984">
        <ele>2969</ele>
        <time>2013-07-07T07:17:41Z</time>
      </trkpt>
      <trkpt lat="42.6698" lon="1.39983">
        <ele>2970</ele>
        <time>2013-07-07T07:17:50Z</time>
      </trkpt>
      <trkpt lat="42.6698" lon="1.39983">
        <ele>2970</ele>
        <time>2013-07-07T07:18:02Z</time>
      </trkpt>
      <trkpt lat="42.66975" lon="1.39983">
        <ele>2971</ele>
        <time>2013-07-07T07:18:10Z</time>
      </trkpt>
      <trkpt lat="42.66971" lon="1.39983">
        <ele>2972</ele>
        <time>2013-07-07T07:18:17Z</time>
      </trkpt>
      <trkpt lat="42.6697" lon="1.39981">
        <ele>2973</ele>
        <time>2013-07-07T07:18:25Z</time>
      </trkpt>
      <trkpt lat="42.66966" lon="1.39981">
        <ele>2974</ele>
        <time>2013-07-07T07:18:33Z</time>
      </trkpt>
      <trkpt lat="42.66961" lon="1.3998">
        <ele>2976</ele>
        <time>2013-07-07T07:18:41Z</time>
      </trkpt>
      <trkpt lat="42.66962" lon="1.39979">
        <ele>2977</ele>
        <time>2013-07-07T07:18:50Z</time>
      </trkpt>
      <trkpt lat="42.66958" lon="1.39979">
        <ele>2978</ele>
        <time>2013-07-07T07:18:57Z</time>
      </trkpt>
      <trkpt lat="42.66958" lon="1.39979">
        <ele>2978</ele>
        <time>2013-07-07T07:19:06Z</time>
      </trkpt>
      <trkpt lat="42.66956" lon="1.39978">
        <ele>2979</ele>
        <time>2013-07-07T07:19:16Z</time>
      </trkpt>
      <trkpt lat="42.66952" lon="1.39981">
        <ele>2981</ele>
        <time>2013-07-07T07:19:27Z</time>
      </trkpt>
      <trkpt lat="42.6695" lon="1.39981">
        <ele>2982</ele>
        <time>2013-07-07T07:19:36Z</time>
      </trkpt>
      <trkpt lat="42.66946" lon="1.39981">
        <ele>2984</ele>
        <time>2013-07-07T07:19:45Z</time>
      </trkpt>
      <trkpt lat="42.66946" lon="1.3998">
        <ele>2985</ele>
        <time>2013-07-07T07:19:53Z</time>
      </trkpt>
      <trkpt lat="42.66945" lon="1.39978">
        <ele>2985</ele>
        <time>2013-07-07T07:20:08Z</time>
      </trkpt>
      <trkpt lat="42.66945" lon="1.3998">
        <ele>2985</ele>
        <time>2013-07-07T07:20:16Z</time>
      </trkpt>
      <trkpt lat="42.66937" lon="1.39984">
        <ele>2987</ele>
        <time>2013-07-07T07:20:26Z</time>
      </trkpt>
      <trkpt lat="42.66933" lon="1.39986">
        <ele>2989</ele>
        <time>2013-07-07T07:20:35Z</time>
      </trkpt>
      <trkpt lat="42.66928" lon="1.39986">
        <ele>2991</ele>
        <time>2013-07-07T07:20:43Z</time>
      </trkpt>
      <trkpt lat="42.66924" lon="1.39988">
        <ele>2992</ele>
        <time>2013-07-07T07:20:53Z</time>
      </trkpt>
      <trkpt lat="42.66926" lon="1.39986">
        <ele>2992</ele>
        <time>2013-07-07T07:21:01Z</time>
      </trkpt>
      <trkpt lat="42.66926" lon="1.39987">
        <ele>2992</ele>
        <time>2013-07-07T07:21:11Z</time>
      </trkpt>
      <trkpt lat="42.66921" lon="1.39989">
        <ele>2994</ele>
        <time>2013-07-07T07:21:22Z</time>
      </trkpt>
      <trkpt lat="42.66918" lon="1.39986">
        <ele>2995</ele>
        <time>2013-07-07T07:21:30Z</time>
      </trkpt>
      <trkpt lat="42.66912" lon="1.39986">
        <ele>2998</ele>
        <time>2013-07-07T07:21:40Z</time>
      </trkpt>
      <trkpt lat="42.66908" lon="1.39986">
        <ele>2999</ele>
        <time>2013-07-07T07:21:49Z</time>
      </trkpt>
      <trkpt lat="42.66909" lon="1.39986">
        <ele>2999</ele>
        <time>2013-07-07T07:21:59Z</time>
      </trkpt>
      <trkpt lat="42.66906" lon="1.39987">
        <ele>2999</ele>
        <time>2013-07-07T07:22:10Z</time>
      </trkpt>
      <trkpt lat="42.66903" lon="1.39984">
        <ele>3000</ele>
        <time>2013-07-07T07:22:18Z</time>
      </trkpt>
      <trkpt lat="42.66898" lon="1.39983">
        <ele>3001</ele>
        <time>2013-07-07T07:22:26Z</time>
      </trkpt>
      <trkpt lat="42.66893" lon="1.39982">
        <ele>3003</ele>
        <time>2013-07-07T07:22:35Z</time>
      </trkpt>
      <trkpt lat="42.66889" lon="1.39983">
        <ele>3003</ele>
        <time>2013-07-07T07:22:43Z</time>
      </trkpt>
      <trkpt lat="42.66884" lon="1.39979">
        <ele>3005</ele>
        <time>2013-07-07T07:22:53Z</time>
      </trkpt>
      <trkpt lat="42.66881" lon="1.39978">
        <ele>3007</ele>
        <time>2013-07-07T07:23:02Z</time>
      </trkpt>
      <trkpt lat="42.6688" lon="1.39977">
        <ele>3008</ele>
        <time>2013-07-07T07:23:09Z</time>
      </trkpt>
      <trkpt lat="42.66876" lon="1.39975">
        <ele>3009</ele>
        <time>2013-07-07T07:23:21Z</time>
      </trkpt>
      <trkpt lat="42.66873" lon="1.39972">
        <ele>3010</ele>
        <time>2013-07-07T07:23:29Z</time>
      </trkpt>
      <trkpt lat="42.6687" lon="1.39969">
        <ele>3012</ele>
        <time>2013-07-07T07:23:37Z</time>
      </trkpt>
      <trkpt lat="42.66868" lon="1.39966">
        <ele>3013</ele>
        <time>2013-07-07T07:23:45Z</time>
      </trkpt>
      <trkpt lat="42.66867" lon="1.39962">
        <ele>3014</ele>
        <time>2013-07-07T07:23:52Z</time>
      </trkpt>
      <trkpt lat="42.66866" lon="1.39959">
        <ele>3016</ele>
        <time>2013-07-07T07:23:59Z</time>
      </trkpt>
      <trkpt lat="42.66864" lon="1.39956">
        <ele>3017</ele>
        <time>2013-07-07T07:24:08Z</time>
      </trkpt>
      <trkpt lat="42.66861" lon="1.39955">
        <ele>3018</ele>
        <time>2013-07-07T07:24:15Z</time>
      </trkpt>
      <trkpt lat="42.6686" lon="1.39953">
        <ele>3018</ele>
        <time>2013-07-07T07:24:24Z</time>
      </trkpt>
      <trkpt lat="42.66859" lon="1.39952">
        <ele>3018</ele>
        <time>2013-07-07T07:24:35Z</time>
      </trkpt>
      <trkpt lat="42.66859" lon="1.39954">
        <ele>3018</ele>
        <time>2013-07-07T07:24:50Z</time>
      </trkpt>
      <trkpt lat="42.66858" lon="1.39953">
        <ele>3018</ele>
        <time>2013-07-07T07:25:01Z</time>
      </trkpt>
      <trkpt lat="42.66859" lon="1.39956">
        <ele>3019</ele>
        <time>2013-07-07T07:25:16Z</time>
      </trkpt>
      <trkpt lat="42.66859" lon="1.39953">
        <ele>3019</ele>
        <time>2013-07-07T07:25:29Z</time>
      </trkpt>
      <trkpt lat="42.66859" lon="1.39952">
        <ele>3019</ele>
        <time>2013-07-07T07:25:41Z</time>
      </trkpt>
      <trkpt lat="42.66857" lon="1.39953">
        <ele>3019</ele>
        <time>2013-07-07T07:25:51Z</time>
      </trkpt>
      <trkpt lat="42.66858" lon="1.39954">
        <ele>3019</ele>
        <time>2013-07-07T07:26:03Z</time>
      </trkpt>
      <trkpt lat="42.66858" lon="1.39952">
        <ele>3019</ele>
        <time>2013-07-07T07:26:13Z</time>
      </trkpt>
      <trkpt lat="42.66858" lon="1.39952">
        <ele>3019</ele>
        <time>2013-07-07T07:26:25Z</time>
      </trkpt>
      <trkpt lat="42.66858" lon="1.39953">
        <ele>3019</ele>
        <time>2013-07-07T07:26:43Z</time>
      </trkpt>
      <trkpt lat="42.66858" lon="1.39953">
        <ele>3019</ele>
        <time>2013-07-07T07:27:05Z</time>
      </trkpt>
      <trkpt lat="42.66859" lon="1.39953">
        <ele>3019</ele>
        <time>2013-07-07T07:27:30Z</time>
      </trkpt>
      <trkpt lat="42.66858" lon="1.39955">
        <ele>3020</ele>
        <time>2013-07-07T07:27:41Z</time>
      </trkpt>
      <trkpt lat="42.6686" lon="1.39955">
        <ele>3020</ele>
        <time>2013-07-07T07:27:47Z</time>
      </trkpt>
      <trkpt lat="42.66858" lon="1.39954">
        <ele>3020</ele>
        <time>2013-07-07T07:27:58Z</time>
      </trkpt>
      <trkpt lat="42.66859" lon="1.39952">
        <ele>3020</ele>
        <time>2013-07-07T07:28:14Z</time>
      </trkpt>
      <trkpt lat="42.66859" lon="1.39949">
        <ele>3022</ele>
        <time>2013-07-07T07:28:24Z</time>
      </trkpt>
      <trkpt lat="42.66857" lon="1.39948">
        <ele>3023</ele>
        <time>2013-07-07T07:28:32Z</time>
      </trkpt>
      <trkpt lat="42.66853" lon="1.39947">
        <ele>3023</ele>
        <time>2013-07-07T07:28:40Z</time>
      </trkpt>
      <trkpt lat="42.66851" lon="1.39949">
        <ele>3024</ele>
        <time>2013-07-07T07:28:49Z</time>
      </trkpt>
      <trkpt lat="42.6685" lon="1.39945">
        <ele>3024</ele>
        <time>2013-07-07T07:29:10Z</time>
      </trkpt>
      <trkpt lat="42.66848" lon="1.39944">
        <ele>3025</ele>
        <time>2013-07-07T07:29:29Z</time>
      </trkpt>
      <trkpt lat="42.66854" lon="1.3995">
        <ele>3024</ele>
        <time>2013-07-07T07:29:42Z</time>
      </trkpt>
      <trkpt lat="42.66857" lon="1.39948">
        <ele>3025</ele>
        <time>2013-07-07T07:30:00Z</time>
      </trkpt>
      <trkpt lat="42.66856" lon="1.39952">
        <ele>3026</ele>
        <time>2013-07-07T07:30:21Z</time>
      </trkpt>
      <trkpt lat="42.66854" lon="1.39947">
        <ele>3026</ele>
        <time>2013-07-07T07:30:36Z</time>
      </trkpt>
      <trkpt lat="42.66852" lon="1.39941">
        <ele>3028</ele>
        <time>2013-07-07T07:30:46Z</time>
      </trkpt>
      <trkpt lat="42.6685" lon="1.39941">
        <ele>3029</ele>
        <time>2013-07-07T07:30:53Z</time>
      </trkpt>
      <trkpt lat="42.66847" lon="1.39939">
        <ele>3031</ele>
        <time>2013-07-07T07:31:01Z</time>
      </trkpt>
      <trkpt lat="42.66847" lon="1.39938">
        <ele>3030</ele>
        <time>2013-07-07T07:31:07Z</time>
      </trkpt>
      <trkpt lat="42.66848" lon="1.39931">
        <ele>3031</ele>
        <time>2013-07-07T07:31:15Z</time>
      </trkpt>
      <trkpt lat="42.66848" lon="1.39924">
        <ele>3033</ele>
        <time>2013-07-07T07:31:23Z</time>
      </trkpt>
      <trkpt lat="42.66849" lon="1.39922">
        <ele>3034</ele>
        <time>2013-07-07T07:31:29Z</time>
      </trkpt>
      <trkpt lat="42.66847" lon="1.39919">
        <ele>3035</ele>
        <time>2013-07-07T07:31:37Z</time>
      </trkpt>
      <trkpt lat="42.66842" lon="1.39917">
        <ele>3036</ele>
        <time>2013-07-07T07:31:46Z</time>
      </trkpt>
      <trkpt lat="42.66842" lon="1.39913">
        <ele>3038</ele>
        <time>2013-07-07T07:31:54Z</time>
      </trkpt>
      <trkpt lat="42.66842" lon="1.39912">
        <ele>3039</ele>
        <time>2013-07-07T07:31:56Z</time>
      </trkpt>
      <trkpt lat="42.66843" lon="1.39906">
        <ele>3041</ele>
        <time>2013-07-07T07:32:07Z</time>
      </trkpt>
      <trkpt lat="42.66837" lon="1.39905">
        <ele>3042</ele>
        <time>2013-07-07T07:32:16Z</time>
      </trkpt>
      <trkpt lat="42.66838" lon="1.39902">
        <ele>3043</ele>
        <time>2013-07-07T07:32:23Z</time>
      </trkpt>
      <trkpt lat="42.6684" lon="1.39898">
        <ele>3045</ele>
        <time>2013-07-07T07:32:32Z</time>
      </trkpt>
      <trkpt lat="42.6684" lon="1.39892">
        <ele>3046</ele>
        <time>2013-07-07T07:32:41Z</time>
      </trkpt>
      <trkpt lat="42.66831" lon="1.39887">
        <ele>3047</ele>
        <time>2013-07-07T07:32:49Z</time>
      </trkpt>
      <trkpt lat="42.6683" lon="1.39882">
        <ele>3048</ele>
        <time>2013-07-07T07:32:58Z</time>
      </trkpt>
      <trkpt lat="42.66827" lon="1.39882">
        <ele>3048</ele>
        <time>2013-07-07T07:33:13Z</time>
      </trkpt>
      <trkpt lat="42.66829" lon="1.3988">
        <ele>3048</ele>
        <time>2013-07-07T07:33:30Z</time>
      </trkpt>
      <trkpt lat="42.66828" lon="1.39872">
        <ele>3049</ele>
        <time>2013-07-07T07:33:38Z</time>
      </trkpt>
      <trkpt lat="42.66826" lon="1.39865">
        <ele>3050</ele>
        <time>2013-07-07T07:33:46Z</time>
      </trkpt>
      <trkpt lat="42.66825" lon="1.39859">
        <ele>3051</ele>
        <time>2013-07-07T07:33:54Z</time>
      </trkpt>
      <trkpt lat="42.66824" lon="1.39852">
        <ele>3052</ele>
        <time>2013-07-07T07:34:02Z</time>
      </trkpt>
      <trkpt lat="42.66823" lon="1.39846">
        <ele>3054</ele>
        <time>2013-07-07T07:34:08Z</time>
      </trkpt>
      <trkpt lat="42.66817" lon="1.39842">
        <ele>3054</ele>
        <time>2013-07-07T07:34:16Z</time>
      </trkpt>
      <trkpt lat="42.66814" lon="1.39841">
        <ele>3055</ele>
        <time>2013-07-07T07:34:24Z</time>
      </trkpt>
      <trkpt lat="42.66815" lon="1.39838">
        <ele>3055</ele>
        <time>2013-07-07T07:34:33Z</time>
      </trkpt>
      <trkpt lat="42.66813" lon="1.39838">
        <ele>3056</ele>
        <time>2013-07-07T07:34:35Z</time>
      </trkpt>
      <trkpt lat="42.66809" lon="1.39838">
        <ele>3057</ele>
        <time>2013-07-07T07:34:43Z</time>
      </trkpt>
      <trkpt lat="42.66806" lon="1.39836">
        <ele>3058</ele>
        <time>2013-07-07T07:34:52Z</time>
      </trkpt>
      <trkpt lat="42.66806" lon="1.39834">
        <ele>3058</ele>
        <time>2013-07-07T07:34:59Z</time>
      </trkpt>
      <trkpt lat="42.66803" lon="1.39832">
        <ele>3059</ele>
        <time>2013-07-07T07:35:08Z</time>
      </trkpt>
      <trkpt lat="42.66804" lon="1.39829">
        <ele>3060</ele>
        <time>2013-07-07T07:35:17Z</time>
      </trkpt>
      <trkpt lat="42.66803" lon="1.39828">
        <ele>3061</ele>
        <time>2013-07-07T07:35:19Z</time>
      </trkpt>
      <trkpt lat="42.66799" lon="1.39827">
        <ele>3062</ele>
        <time>2013-07-07T07:35:29Z</time>
      </trkpt>
      <trkpt lat="42.66796" lon="1.39827">
        <ele>3063</ele>
        <time>2013-07-07T07:35:39Z</time>
      </trkpt>
      <trkpt lat="42.66795" lon="1.39826">
        <ele>3065</ele>
        <time>2013-07-07T07:35:50Z</time>
      </trkpt>
      <trkpt lat="42.66795" lon="1.39823">
        <ele>3066</ele>
        <time>2013-07-07T07:36:00Z</time>
      </trkpt>
      <trkpt lat="42.66795" lon="1.3982">
        <ele>3067</ele>
        <time>2013-07-07T07:36:11Z</time>
      </trkpt>
      <trkpt lat="42.66792" lon="1.39819">
        <ele>3068</ele>
        <time>2013-07-07T07:36:19Z</time>
      </trkpt>
      <trkpt lat="42.66791" lon="1.39816">
        <ele>3070</ele>
        <time>2013-07-07T07:36:28Z</time>
      </trkpt>
      <trkpt lat="42.66791" lon="1.39813">
        <ele>3071</ele>
        <time>2013-07-07T07:36:37Z</time>
      </trkpt>
      <trkpt lat="42.66787" lon="1.39814">
        <ele>3072</ele>
        <time>2013-07-07T07:36:44Z</time>
      </trkpt>
      <trkpt lat="42.66782" lon="1.39815">
        <ele>3073</ele>
        <time>2013-07-07T07:36:54Z</time>
      </trkpt>
      <trkpt lat="42.6678" lon="1.39817">
        <ele>3074</ele>
        <time>2013-07-07T07:37:03Z</time>
      </trkpt>
      <trkpt lat="42.6678" lon="1.39818">
        <ele>3074</ele>
        <time>2013-07-07T07:37:16Z</time>
      </trkpt>
      <trkpt lat="42.66781" lon="1.39816">
        <ele>3074</ele>
        <time>2013-07-07T07:37:36Z</time>
      </trkpt>
      <trkpt lat="42.66782" lon="1.39811">
        <ele>3076</ele>
        <time>2013-07-07T07:37:44Z</time>
      </trkpt>
      <trkpt lat="42.66783" lon="1.39808">
        <ele>3077</ele>
        <time>2013-07-07T07:37:51Z</time>
      </trkpt>
      <trkpt lat="42.66783" lon="1.39806">
        <ele>3079</ele>
        <time>2013-07-07T07:37:59Z</time>
      </trkpt>
      <trkpt lat="42.6678" lon="1.39804">
        <ele>3080</ele>
        <time>2013-07-07T07:38:11Z</time>
      </trkpt>
      <trkpt lat="42.66776" lon="1.39802">
        <ele>3081</ele>
        <time>2013-07-07T07:38:20Z</time>
      </trkpt>
      <trkpt lat="42.66773" lon="1.39802">
        <ele>3083</ele>
        <time>2013-07-07T07:38:30Z</time>
      </trkpt>
      <trkpt lat="42.66773" lon="1.39802">
        <ele>3083</ele>
        <time>2013-07-07T07:38:39Z</time>
      </trkpt>
      <trkpt lat="42.66772" lon="1.39802">
        <ele>3084</ele>
        <time>2013-07-07T07:38:49Z</time>
      </trkpt>
      <trkpt lat="42.66767" lon="1.39805">
        <ele>3087</ele>
        <time>2013-07-07T07:39:01Z</time>
      </trkpt>
      <trkpt lat="42.66766" lon="1.39804">
        <ele>3087</ele>
        <time>2013-07-07T07:39:07Z</time>
      </trkpt>
      <trkpt lat="42.66767" lon="1.39802">
        <ele>3087</ele>
        <time>2013-07-07T07:39:14Z</time>
      </trkpt>
      <trkpt lat="42.66768" lon="1.39801">
        <ele>3089</ele>
        <time>2013-07-07T07:39:22Z</time>
      </trkpt>
      <trkpt lat="42.66769" lon="1.39798">
        <ele>3090</ele>
        <time>2013-07-07T07:39:32Z</time>
      </trkpt>
      <trkpt lat="42.66767" lon="1.39797">
        <ele>3090</ele>
        <time>2013-07-07T07:39:41Z</time>
      </trkpt>
      <trkpt lat="42.66765" lon="1.39793">
        <ele>3091</ele>
        <time>2013-07-07T07:39:50Z</time>
      </trkpt>
      <trkpt lat="42.66765" lon="1.39792">
        <ele>3093</ele>
        <time>2013-07-07T07:39:58Z</time>
      </trkpt>
      <trkpt lat="42.66767" lon="1.39788">
        <ele>3093</ele>
        <time>2013-07-07T07:40:10Z</time>
      </trkpt>
      <trkpt lat="42.66766" lon="1.39785">
        <ele>3094</ele>
        <time>2013-07-07T07:40:18Z</time>
      </trkpt>
      <trkpt lat="42.66767" lon="1.39783">
        <ele>3096</ele>
        <time>2013-07-07T07:40:23Z</time>
      </trkpt>
      <trkpt lat="42.66763" lon="1.39784">
        <ele>3096</ele>
        <time>2013-07-07T07:40:30Z</time>
      </trkpt>
      <trkpt lat="42.66761" lon="1.39785">
        <ele>3097</ele>
        <time>2013-07-07T07:40:37Z</time>
      </trkpt>
      <trkpt lat="42.66759" lon="1.39786">
        <ele>3098</ele>
        <time>2013-07-07T07:40:46Z</time>
      </trkpt>
      <trkpt lat="42.66757" lon="1.39783">
        <ele>3099</ele>
        <time>2013-07-07T07:40:54Z</time>
      </trkpt>
      <trkpt lat="42.66758" lon="1.39781">
        <ele>3101</ele>
        <time>2013-07-07T07:41:00Z</time>
      </trkpt>
      <trkpt lat="42.6676" lon="1.39779">
        <ele>3101</ele>
        <time>2013-07-07T07:41:08Z</time>
      </trkpt>
      <trkpt lat="42.66755" lon="1.39778">
        <ele>3103</ele>
        <time>2013-07-07T07:41:15Z</time>
      </trkpt>
      <trkpt lat="42.66753" lon="1.39776">
        <ele>3104</ele>
        <time>2013-07-07T07:41:23Z</time>
      </trkpt>
      <trkpt lat="42.66753" lon="1.39774">
        <ele>3104</ele>
        <time>2013-07-07T07:41:32Z</time>
      </trkpt>
      <trkpt lat="42.66757" lon="1.3977">
        <ele>3105</ele>
        <time>2013-07-07T07:41:41Z</time>
      </trkpt>
      <trkpt lat="42.66757" lon="1.39766">
        <ele>3106</ele>
        <time>2013-07-07T07:41:49Z</time>
      </trkpt>
      <trkpt lat="42.66758" lon="1.39763">
        <ele>3107</ele>
        <time>2013-07-07T07:41:55Z</time>
      </trkpt>
      <trkpt lat="42.66757" lon="1.39759">
        <ele>3108</ele>
        <time>2013-07-07T07:42:03Z</time>
      </trkpt>
      <trkpt lat="42.66755" lon="1.3976">
        <ele>3109</ele>
        <time>2013-07-07T07:42:13Z</time>
      </trkpt>
      <trkpt lat="42.66754" lon="1.39758">
        <ele>3110</ele>
        <time>2013-07-07T07:42:23Z</time>
      </trkpt>
      <trkpt lat="42.66753" lon="1.39756">
        <ele>3110</ele>
        <time>2013-07-07T07:42:38Z</time>
      </trkpt>
      <trkpt lat="42.66751" lon="1.39757">
        <ele>3110</ele>
        <time>2013-07-07T07:42:45Z</time>
      </trkpt>
      <trkpt lat="42.6675" lon="1.39758">
        <ele>3110</ele>
        <time>2013-07-07T07:43:01Z</time>
      </trkpt>
      <trkpt lat="42.66748" lon="1.39759">
        <ele>3112</ele>
        <time>2013-07-07T07:43:11Z</time>
      </trkpt>
      <trkpt lat="42.66747" lon="1.39762">
        <ele>3112</ele>
        <time>2013-07-07T07:43:23Z</time>
      </trkpt>
      <trkpt lat="42.66746" lon="1.39761">
        <ele>3114</ele>
        <time>2013-07-07T07:43:30Z</time>
      </trkpt>
      <trkpt lat="42.66743" lon="1.39761">
        <ele>3116</ele>
        <time>2013-07-07T07:43:37Z</time>
      </trkpt>
      <trkpt lat="42.66741" lon="1.39763">
        <ele>3117</ele>
        <time>2013-07-07T07:43:44Z</time>
      </trkpt>
      <trkpt lat="42.6674" lon="1.39763">
        <ele>3118</ele>
        <time>2013-07-07T07:43:53Z</time>
      </trkpt>
      <trkpt lat="42.66739" lon="1.39764">
        <ele>3119</ele>
        <time>2013-07-07T07:44:05Z</time>
      </trkpt>
      <trkpt lat="42.66738" lon="1.39763">
        <ele>3119</ele>
        <time>2013-07-07T07:44:14Z</time>
      </trkpt>
      <trkpt lat="42.66736" lon="1.39763">
        <ele>3121</ele>
        <time>2013-07-07T07:44:26Z</time>
      </trkpt>
      <trkpt lat="42.66736" lon="1.39761">
        <ele>3122</ele>
        <time>2013-07-07T07:44:36Z</time>
      </trkpt>
      <trkpt lat="42.66734" lon="1.39761">
        <ele>3123</ele>
        <time>2013-07-07T07:44:46Z</time>
      </trkpt>
      <trkpt lat="42.66733" lon="1.39764">
        <ele>3123</ele>
        <time>2013-07-07T07:44:53Z</time>
      </trkpt>
      <trkpt lat="42.66731" lon="1.39764">
        <ele>3124</ele>
        <time>2013-07-07T07:45:04Z</time>
      </trkpt>
      <trkpt lat="42.6673" lon="1.39763">
        <ele>3125</ele>
        <time>2013-07-07T07:45:12Z</time>
      </trkpt>
      <trkpt lat="42.66728" lon="1.39764">
        <ele>3126</ele>
        <time>2013-07-07T07:45:20Z</time>
      </trkpt>
      <trkpt lat="42.66726" lon="1.39765">
        <ele>3127</ele>
        <time>2013-07-07T07:45:25Z</time>
      </trkpt>
      <trkpt lat="42.66724" lon="1.39766">
        <ele>3129</ele>
        <time>2013-07-07T07:45:35Z</time>
      </trkpt>
      <trkpt lat="42.66722" lon="1.39769">
        <ele>3130</ele>
        <time>2013-07-07T07:45:43Z</time>
      </trkpt>
      <trkpt lat="42.66721" lon="1.39769">
        <ele>3130</ele>
        <time>2013-07-07T07:45:44Z</time>
      </trkpt>
      <trkpt lat="42.66716" lon="1.39772">
        <ele>3131</ele>
        <time>2013-07-07T07:45:53Z</time>
      </trkpt>
      <trkpt lat="42.66713" lon="1.39777">
        <ele>3131</ele>
        <time>2013-07-07T07:45:59Z</time>
      </trkpt>
      <trkpt lat="42.66711" lon="1.39779">
        <ele>3133</ele>
        <time>2013-07-07T07:46:06Z</time>
      </trkpt>
      <trkpt lat="42.66708" lon="1.39782">
        <ele>3134</ele>
        <time>2013-07-07T07:46:13Z</time>
      </trkpt>
      <trkpt lat="42.66705" lon="1.39783">
        <ele>3134</ele>
        <time>2013-07-07T07:46:22Z</time>
      </trkpt>
      <trkpt lat="42.66703" lon="1.39786">
        <ele>3135</ele>
        <time>2013-07-07T07:46:29Z</time>
      </trkpt>
      <trkpt lat="42.66702" lon="1.39787">
        <ele>3135</ele>
        <time>2013-07-07T07:46:41Z</time>
      </trkpt>
      <trkpt lat="42.66702" lon="1.39787">
        <ele>3134</ele>
        <time>2013-07-07T07:46:51Z</time>
      </trkpt>
      <trkpt lat="42.667" lon="1.39789">
        <ele>3134</ele>
        <time>2013-07-07T07:46:59Z</time>
      </trkpt>
      <trkpt lat="42.66698" lon="1.39791">
        <ele>3133</ele>
        <time>2013-07-07T07:47:07Z</time>
      </trkpt>
      <trkpt lat="42.66697" lon="1.3979">
        <ele>3133</ele>
        <time>2013-07-07T07:47:19Z</time>
      </trkpt>
      <trkpt lat="42.66697" lon="1.39791">
        <ele>3134</ele>
        <time>2013-07-07T07:47:26Z</time>
      </trkpt>
      <trkpt lat="42.66697" lon="1.3979">
        <ele>3134</ele>
        <time>2013-07-07T07:47:37Z</time>
      </trkpt>
      <trkpt lat="42.66695" lon="1.39791">
        <ele>3134</ele>
        <time>2013-07-07T07:47:53Z</time>
      </trkpt>
      <trkpt lat="42.66691" lon="1.39792">
        <ele>3135</ele>
        <time>2013-07-07T07:48:02Z</time>
      </trkpt>
      <trkpt lat="42.66689" lon="1.39798">
        <ele>3134</ele>
        <time>2013-07-07T07:48:12Z</time>
      </trkpt>
      <trkpt lat="42.66691" lon="1.39795">
        <ele>3134</ele>
        <time>2013-07-07T07:48:24Z</time>
      </trkpt>
      <trkpt lat="42.6669" lon="1.39792">
        <ele>3135</ele>
        <time>2013-07-07T07:48:40Z</time>
      </trkpt>
      <trkpt lat="42.66691" lon="1.39794">
        <ele>3134</ele>
        <time>2013-07-07T07:48:50Z</time>
      </trkpt>
      <trkpt lat="42.66693" lon="1.39792">
        <ele>3134</ele>
        <time>2013-07-07T07:49:00Z</time>
      </trkpt>
      <trkpt lat="42.66692" lon="1.39791">
        <ele>3134</ele>
        <time>2013-07-07T07:49:10Z</time>
      </trkpt>
      <trkpt lat="42.66691" lon="1.39792">
        <ele>3135</ele>
        <time>2013-07-07T07:49:24Z</time>
      </trkpt>
      <trkpt lat="42.66692" lon="1.39794">
        <ele>3135</ele>
        <time>2013-07-07T07:49:40Z</time>
      </trkpt>
      <trkpt lat="42.66692" lon="1.39794">
        <ele>3135</ele>
        <time>2013-07-07T07:49:58Z</time>
      </trkpt>
      <trkpt lat="42.66692" lon="1.39795">
        <ele>3135</ele>
        <time>2013-07-07T07:50:13Z</time>
      </trkpt>
      <trkpt lat="42.66691" lon="1.39793">
        <ele>3135</ele>
        <time>2013-07-07T07:50:32Z</time>
      </trkpt>
      <trkpt lat="42.66692" lon="1.39791">
        <ele>3135</ele>
        <time>2013-07-07T07:50:43Z</time>
      </trkpt>
      <trkpt lat="42.66692" lon="1.39791">
        <ele>3135</ele>
        <time>2013-07-07T07:51:00Z</time>
      </trkpt>
      <trkpt lat="42.66696" lon="1.39789">
        <ele>3135</ele>
        <time>2013-07-07T07:51:09Z</time>
      </trkpt>
      <trkpt lat="42.66696" lon="1.39789">
        <ele>3135</ele>
        <time>2013-07-07T07:51:18Z</time>
      </trkpt>
      <trkpt lat="42.66695" lon="1.39791">
        <ele>3135</ele>
        <time>2013-07-07T07:51:37Z</time>
      </trkpt>
      <trkpt lat="42.66695" lon="1.39793">
        <ele>3135</ele>
        <time>2013-07-07T07:51:47Z</time>
      </trkpt>
      <trkpt lat="42.66693" lon="1.39792">
        <ele>3136</ele>
        <time>2013-07-07T07:52:02Z</time>
      </trkpt>
      <trkpt lat="42.66695" lon="1.39791">
        <ele>3135</ele>
        <time>2013-07-07T07:52:10Z</time>
      </trkpt>
      <trkpt lat="42.66694" lon="1.39793">
        <ele>3135</ele>
        <time>2013-07-07T07:52:18Z</time>
      </trkpt>
      <trkpt lat="42.66693" lon="1.39794">
        <ele>3135</ele>
        <time>2013-07-07T07:52:25Z</time>
      </trkpt>
      <trkpt lat="42.66691" lon="1.39796">
        <ele>3135</ele>
        <time>2013-07-07T07:52:42Z</time>
      </trkpt>
      <trkpt lat="42.66691" lon="1.39796">
        <ele>3135</ele>
        <time>2013-07-07T07:52:59Z</time>
      </trkpt>
      <trkpt lat="42.66691" lon="1.39795">
        <ele>3135</ele>
        <time>2013-07-07T07:53:14Z</time>
      </trkpt>
      <trkpt lat="42.66692" lon="1.39794">
        <ele>3135</ele>
        <time>2013-07-07T07:53:24Z</time>
      </trkpt>
      <trkpt lat="42.66693" lon="1.39795">
        <ele>3136</ele>
        <time>2013-07-07T07:53:35Z</time>
      </trkpt>
      <trkpt lat="42.66693" lon="1.39795">
        <ele>3135</ele>
        <time>2013-07-07T07:53:44Z</time>
      </trkpt>
      <trkpt lat="42.66694" lon="1.39791">
        <ele>3136</ele>
        <time>2013-07-07T07:54:02Z</time>
      </trkpt>
      <trkpt lat="42.66693" lon="1.39791">
        <ele>3135</ele>
        <time>2013-07-07T07:54:08Z</time>
      </trkpt>
      <trkpt lat="42.66694" lon="1.39792">
        <ele>3135</ele>
        <time>2013-07-07T07:54:21Z</time>
      </trkpt>
      <trkpt lat="42.66694" lon="1.39791">
        <ele>3135</ele>
        <time>2013-07-07T07:54:41Z</time>
      </trkpt>
      <trkpt lat="42.66693" lon="1.39792">
        <ele>3136</ele>
        <time>2013-07-07T07:55:01Z</time>
      </trkpt>
      <trkpt lat="42.66694" lon="1.39792">
        <ele>3135</ele>
        <time>2013-07-07T07:55:19Z</time>
      </trkpt>
      <trkpt lat="42.66693" lon="1.39792">
        <ele>3136</ele>
        <time>2013-07-07T07:55:44Z</time>
      </trkpt>
      <trkpt lat="42.66693" lon="1.39792">
        <ele>3136</ele>
        <time>2013-07-07T07:56:09Z</time>
      </trkpt>
      <trkpt lat="42.66693" lon="1.39792">
        <ele>3136</ele>
        <time>2013-07-07T07:56:33Z</time>
      </trkpt>
      <trkpt lat="42.66693" lon="1.39792">
        <ele>3137</ele>
        <time>2013-07-07T07:56:54Z</time>
      </trkpt>
      <trkpt lat="42.66693" lon="1.39792">
        <ele>3136</ele>
        <time>2013-07-07T07:57:16Z</time>
      </trkpt>
      <trkpt lat="42.66693" lon="1.39793">
        <ele>3137</ele>
        <time>2013-07-07T07:57:41Z</time>
      </trkpt>
      <trkpt lat="42.66693" lon="1.39793">
        <ele>3136</ele>
        <time>2013-07-07T07:58:00Z</time>
      </trkpt>
      <trkpt lat="42.66693" lon="1.39792">
        <ele>3137</ele>
        <time>2013-07-07T07:58:18Z</time>
      </trkpt>
      <trkpt lat="42.66693" lon="1.39794">
        <ele>3137</ele>
        <time>2013-07-07T07:58:42Z</time>
      </trkpt>
      <trkpt lat="42.66696" lon="1.39789">
        <ele>3138</ele>
        <time>2013-07-07T07:58:53Z</time>
      </trkpt>
      <trkpt lat="42.66696" lon="1.39787">
        <ele>3138</ele>
        <time>2013-07-07T07:59:11Z</time>
      </trkpt>
      <trkpt lat="42.66694" lon="1.3979">
        <ele>3137</ele>
        <time>2013-07-07T07:59:23Z</time>
      </trkpt>
      <trkpt lat="42.66694" lon="1.39789">
        <ele>3138</ele>
        <time>2013-07-07T07:59:35Z</time>
      </trkpt>
      <trkpt lat="42.66694" lon="1.39789">
        <ele>3138</ele>
        <time>2013-07-07T07:59:47Z</time>
      </trkpt>
      <trkpt lat="42.66695" lon="1.39789">
        <ele>3137</ele>
        <time>2013-07-07T07:59:58Z</time>
      </trkpt>
      <trkpt lat="42.66694" lon="1.39789">
        <ele>3137</ele>
        <time>2013-07-07T08:00:18Z</time>
      </trkpt>
      <trkpt lat="42.66695" lon="1.39788">
        <ele>3138</ele>
        <time>2013-07-07T08:00:34Z</time>
      </trkpt>
      <trkpt lat="42.66695" lon="1.39788">
        <ele>3138</ele>
        <time>2013-07-07T08:00:57Z</time>
      </trkpt>
      <trkpt lat="42.66694" lon="1.39789">
        <ele>3138</ele>
        <time>2013-07-07T08:01:09Z</time>
      </trkpt>
      <trkpt lat="42.66695" lon="1.39789">
        <ele>3139</ele>
        <time>2013-07-07T08:01:25Z</time>
      </trkpt>
      <trkpt lat="42.66694" lon="1.39789">
        <ele>3139</ele>
        <time>2013-07-07T08:01:39Z</time>
      </trkpt>
      <trkpt lat="42.66694" lon="1.39789">
        <ele>3139</ele>
        <time>2013-07-07T08:01:50Z</time>
      </trkpt>
      <trkpt lat="42.66693" lon="1.39789">
        <ele>3138</ele>
        <time>2013-07-07T08:02:07Z</time>
      </trkpt>
      <trkpt lat="42.66693" lon="1.39794">
        <ele>3139</ele>
        <time>2013-07-07T08:02:19Z</time>
      </trkpt>
      <trkpt lat="42.66693" lon="1.39789">
        <ele>3139</ele>
        <time>2013-07-07T08:02:30Z</time>
      </trkpt>
      <trkpt lat="42.66694" lon="1.39789">
        <ele>3138</ele>
        <time>2013-07-07T08:02:44Z</time>
      </trkpt>
      <trkpt lat="42.66694" lon="1.39788">
        <ele>3139</ele>
        <time>2013-07-07T08:03:04Z</time>
      </trkpt>
      <trkpt lat="42.66694" lon="1.39789">
        <ele>3139</ele>
        <time>2013-07-07T08:03:17Z</time>
      </trkpt>
      <trkpt lat="42.66694" lon="1.39793">
        <ele>3139</ele>
        <time>2013-07-07T08:03:26Z</time>
      </trkpt>
      <trkpt lat="42.66693" lon="1.39792">
        <ele>3138</ele>
        <time>2013-07-07T08:03:35Z</time>
      </trkpt>
      <trkpt lat="42.66696" lon="1.39791">
        <ele>3139</ele>
        <time>2013-07-07T08:03:43Z</time>
      </trkpt>
      <trkpt lat="42.66698" lon="1.39793">
        <ele>3138</ele>
        <time>2013-07-07T08:03:53Z</time>
      </trkpt>
      <trkpt lat="42.667" lon="1.39792">
        <ele>3137</ele>
        <time>2013-07-07T08:04:02Z</time>
      </trkpt>
      <trkpt lat="42.66703" lon="1.39787">
        <ele>3138</ele>
        <time>2013-07-07T08:04:09Z</time>
      </trkpt>
      <trkpt lat="42.66706" lon="1.39783">
        <ele>3138</ele>
        <time>2013-07-07T08:04:17Z</time>
      </trkpt>
      <trkpt lat="42.6671" lon="1.39781">
        <ele>3138</ele>
        <time>2013-07-07T08:04:24Z</time>
      </trkpt>
      <trkpt lat="42.66713" lon="1.39777">
        <ele>3137</ele>
        <time>2013-07-07T08:04:31Z</time>
      </trkpt>
      <trkpt lat="42.66713" lon="1.39778">
        <ele>3137</ele>
        <time>2013-07-07T08:04:33Z</time>
      </trkpt>
      <trkpt lat="42.66715" lon="1.39774">
        <ele>3135</ele>
        <time>2013-07-07T08:04:40Z</time>
      </trkpt>
      <trkpt lat="42.66716" lon="1.39773">
        <ele>3135</ele>
        <time>2013-07-07T08:04:43Z</time>
      </trkpt>
      <trkpt lat="42.66721" lon="1.3977">
        <ele>3134</ele>
        <time>2013-07-07T08:04:51Z</time>
      </trkpt>
      <trkpt lat="42.66723" lon="1.39768">
        <ele>3134</ele>
        <time>2013-07-07T08:04:59Z</time>
      </trkpt>
      <trkpt lat="42.66724" lon="1.39767">
        <ele>3134</ele>
        <time>2013-07-07T08:05:12Z</time>
      </trkpt>
      <trkpt lat="42.66726" lon="1.39767">
        <ele>3133</ele>
        <time>2013-07-07T08:05:20Z</time>
      </trkpt>
      <trkpt lat="42.66727" lon="1.39765">
        <ele>3132</ele>
        <time>2013-07-07T08:05:27Z</time>
      </trkpt>
      <trkpt lat="42.66728" lon="1.39764">
        <ele>3131</ele>
        <time>2013-07-07T08:05:34Z</time>
      </trkpt>
      <trkpt lat="42.6673" lon="1.39765">
        <ele>3131</ele>
        <time>2013-07-07T08:05:44Z</time>
      </trkpt>
      <trkpt lat="42.6673" lon="1.39766">
        <ele>3130</ele>
        <time>2013-07-07T08:05:54Z</time>
      </trkpt>
      <trkpt lat="42.66733" lon="1.39767">
        <ele>3127</ele>
        <time>2013-07-07T08:06:03Z</time>
      </trkpt>
      <trkpt lat="42.66733" lon="1.39767">
        <ele>3127</ele>
        <time>2013-07-07T08:06:13Z</time>
      </trkpt>
      <trkpt lat="42.66733" lon="1.39768">
        <ele>3127</ele>
        <time>2013-07-07T08:06:21Z</time>
      </trkpt>
      <trkpt lat="42.66736" lon="1.39768">
        <ele>3125</ele>
        <time>2013-07-07T08:06:27Z</time>
      </trkpt>
      <trkpt lat="42.6674" lon="1.39764">
        <ele>3125</ele>
        <time>2013-07-07T08:06:35Z</time>
      </trkpt>
      <trkpt lat="42.66739" lon="1.39763">
        <ele>3125</ele>
        <time>2013-07-07T08:06:45Z</time>
      </trkpt>
      <trkpt lat="42.66743" lon="1.39762">
        <ele>3123</ele>
        <time>2013-07-07T08:06:54Z</time>
      </trkpt>
      <trkpt lat="42.66745" lon="1.39762">
        <ele>3122</ele>
        <time>2013-07-07T08:07:00Z</time>
      </trkpt>
      <trkpt lat="42.66742" lon="1.39763">
        <ele>3122</ele>
        <time>2013-07-07T08:07:08Z</time>
      </trkpt>
      <trkpt lat="42.66745" lon="1.39763">
        <ele>3120</ele>
        <time>2013-07-07T08:07:15Z</time>
      </trkpt>
      <trkpt lat="42.66746" lon="1.39764">
        <ele>3119</ele>
        <time>2013-07-07T08:07:21Z</time>
      </trkpt>
      <trkpt lat="42.66748" lon="1.3976">
        <ele>3118</ele>
        <time>2013-07-07T08:07:27Z</time>
      </trkpt>
      <trkpt lat="42.6675" lon="1.39761">
        <ele>3117</ele>
        <time>2013-07-07T08:07:34Z</time>
      </trkpt>
      <trkpt lat="42.66751" lon="1.3976">
        <ele>3116</ele>
        <time>2013-07-07T08:07:41Z</time>
      </trkpt>
      <trkpt lat="42.66753" lon="1.39758">
        <ele>3114</ele>
        <time>2013-07-07T08:07:48Z</time>
      </trkpt>
      <trkpt lat="42.66756" lon="1.39762">
        <ele>3113</ele>
        <time>2013-07-07T08:07:57Z</time>
      </trkpt>
      <trkpt lat="42.66756" lon="1.39764">
        <ele>3111</ele>
        <time>2013-07-07T08:08:03Z</time>
      </trkpt>
      <trkpt lat="42.66759" lon="1.39762">
        <ele>3111</ele>
        <time>2013-07-07T08:08:09Z</time>
      </trkpt>
      <trkpt lat="42.66762" lon="1.39757">
        <ele>3109</ele>
        <time>2013-07-07T08:08:17Z</time>
      </trkpt>
      <trkpt lat="42.66765" lon="1.39753">
        <ele>3108</ele>
        <time>2013-07-07T08:08:25Z</time>
      </trkpt>
      <trkpt lat="42.66768" lon="1.39753">
        <ele>3107</ele>
        <time>2013-07-07T08:08:33Z</time>
      </trkpt>
      <trkpt lat="42.66769" lon="1.39746">
        <ele>3106</ele>
        <time>2013-07-07T08:08:41Z</time>
      </trkpt>
      <trkpt lat="42.66769" lon="1.39746">
        <ele>3106</ele>
        <time>2013-07-07T08:08:54Z</time>
      </trkpt>
      <trkpt lat="42.66771" lon="1.39744">
        <ele>3106</ele>
        <time>2013-07-07T08:09:01Z</time>
      </trkpt>
      <trkpt lat="42.66772" lon="1.39736">
        <ele>3107</ele>
        <time>2013-07-07T08:09:09Z</time>
      </trkpt>
      <trkpt lat="42.66774" lon="1.39735">
        <ele>3107</ele>
        <time>2013-07-07T08:09:17Z</time>
      </trkpt>
      <trkpt lat="42.66779" lon="1.39736">
        <ele>3107</ele>
        <time>2013-07-07T08:09:25Z</time>
      </trkpt>
      <trkpt lat="42.66783" lon="1.39729">
        <ele>3108</ele>
        <time>2013-07-07T08:09:33Z</time>
      </trkpt>
      <trkpt lat="42.66782" lon="1.39724">
        <ele>3110</ele>
        <time>2013-07-07T08:09:40Z</time>
      </trkpt>
      <trkpt lat="42.66783" lon="1.39719">
        <ele>3112</ele>
        <time>2013-07-07T08:09:49Z</time>
      </trkpt>
      <trkpt lat="42.66787" lon="1.39716">
        <ele>3113</ele>
        <time>2013-07-07T08:09:57Z</time>
      </trkpt>
      <trkpt lat="42.66787" lon="1.39714">
        <ele>3114</ele>
        <time>2013-07-07T08:10:00Z</time>
      </trkpt>
      <trkpt lat="42.66788" lon="1.39711">
        <ele>3116</ele>
        <time>2013-07-07T08:10:08Z</time>
      </trkpt>
      <trkpt lat="42.6679" lon="1.3971">
        <ele>3116</ele>
        <time>2013-07-07T08:10:17Z</time>
      </trkpt>
      <trkpt lat="42.6679" lon="1.39706">
        <ele>3118</ele>
        <time>2013-07-07T08:10:25Z</time>
      </trkpt>
      <trkpt lat="42.66789" lon="1.39703">
        <ele>3118</ele>
        <time>2013-07-07T08:10:34Z</time>
      </trkpt>
      <trkpt lat="42.66793" lon="1.39703">
        <ele>3119</ele>
        <time>2013-07-07T08:10:44Z</time>
      </trkpt>
      <trkpt lat="42.66794" lon="1.397">
        <ele>3120</ele>
        <time>2013-07-07T08:10:53Z</time>
      </trkpt>
      <trkpt lat="42.66796" lon="1.39697">
        <ele>3122</ele>
        <time>2013-07-07T08:11:04Z</time>
      </trkpt>
      <trkpt lat="42.668" lon="1.39694">
        <ele>3123</ele>
        <time>2013-07-07T08:11:15Z</time>
      </trkpt>
      <trkpt lat="42.66801" lon="1.3969">
        <ele>3125</ele>
        <time>2013-07-07T08:11:22Z</time>
      </trkpt>
      <trkpt lat="42.66803" lon="1.39688">
        <ele>3125</ele>
        <time>2013-07-07T08:11:31Z</time>
      </trkpt>
      <trkpt lat="42.66804" lon="1.39689">
        <ele>3126</ele>
        <time>2013-07-07T08:11:39Z</time>
      </trkpt>
      <trkpt lat="42.66806" lon="1.39689">
        <ele>3125</ele>
        <time>2013-07-07T08:11:57Z</time>
      </trkpt>
      <trkpt lat="42.66805" lon="1.39685">
        <ele>3127</ele>
        <time>2013-07-07T08:12:05Z</time>
      </trkpt>
      <trkpt lat="42.66805" lon="1.39682">
        <ele>3127</ele>
        <time>2013-07-07T08:12:13Z</time>
      </trkpt>
      <trkpt lat="42.66805" lon="1.39682">
        <ele>3126</ele>
        <time>2013-07-07T08:12:26Z</time>
      </trkpt>
      <trkpt lat="42.66803" lon="1.39685">
        <ele>3127</ele>
        <time>2013-07-07T08:12:40Z</time>
      </trkpt>
      <trkpt lat="42.66802" lon="1.39684">
        <ele>3127</ele>
        <time>2013-07-07T08:12:58Z</time>
      </trkpt>
      <trkpt lat="42.66804" lon="1.39683">
        <ele>3127</ele>
        <time>2013-07-07T08:13:07Z</time>
      </trkpt>
      <trkpt lat="42.66803" lon="1.39682">
        <ele>3127</ele>
        <time>2013-07-07T08:13:19Z</time>
      </trkpt>
      <trkpt lat="42.66801" lon="1.39683">
        <ele>3127</ele>
        <time>2013-07-07T08:13:28Z</time>
      </trkpt>
      <trkpt lat="42.66802" lon="1.39684">
        <ele>3126</ele>
        <time>2013-07-07T08:13:36Z</time>
      </trkpt>
      <trkpt lat="42.66804" lon="1.39684">
        <ele>3126</ele>
        <time>2013-07-07T08:13:47Z</time>
      </trkpt>
      <trkpt lat="42.66804" lon="1.39681">
        <ele>3127</ele>
        <time>2013-07-07T08:13:54Z</time>
      </trkpt>
      <trkpt lat="42.66801" lon="1.39685">
        <ele>3127</ele>
        <time>2013-07-07T08:14:07Z</time>
      </trkpt>
      <trkpt lat="42.66802" lon="1.39684">
        <ele>3127</ele>
        <time>2013-07-07T08:14:18Z</time>
      </trkpt>
      <trkpt lat="42.66802" lon="1.39683">
        <ele>3127</ele>
        <time>2013-07-07T08:14:27Z</time>
      </trkpt>
      <trkpt lat="42.66802" lon="1.39682">
        <ele>3127</ele>
        <time>2013-07-07T08:14:45Z</time>
      </trkpt>
      <trkpt lat="42.66802" lon="1.39682">
        <ele>3127</ele>
        <time>2013-07-07T08:15:05Z</time>
      </trkpt>
      <trkpt lat="42.66801" lon="1.39688">
        <ele>3127</ele>
        <time>2013-07-07T08:15:13Z</time>
      </trkpt>
      <trkpt lat="42.668" lon="1.39687">
        <ele>3127</ele>
        <time>2013-07-07T08:15:19Z</time>
      </trkpt>
      <trkpt lat="42.66798" lon="1.39692">
        <ele>3125</ele>
        <time>2013-07-07T08:15:28Z</time>
      </trkpt>
      <trkpt lat="42.66795" lon="1.39695">
        <ele>3124</ele>
        <time>2013-07-07T08:15:37Z</time>
      </trkpt>
      <trkpt lat="42.66793" lon="1.39696">
        <ele>3122</ele>
        <time>2013-07-07T08:15:45Z</time>
      </trkpt>
      <trkpt lat="42.6679" lon="1.397">
        <ele>3121</ele>
        <time>2013-07-07T08:15:54Z</time>
      </trkpt>
      <trkpt lat="42.66787" lon="1.39704">
        <ele>3119</ele>
        <time>2013-07-07T08:16:04Z</time>
      </trkpt>
      <trkpt lat="42.66786" lon="1.39707">
        <ele>3118</ele>
        <time>2013-07-07T08:16:11Z</time>
      </trkpt>
      <trkpt lat="42.66784" lon="1.39709">
        <ele>3116</ele>
        <time>2013-07-07T08:16:20Z</time>
      </trkpt>
      <trkpt lat="42.66785" lon="1.39711">
        <ele>3115</ele>
        <time>2013-07-07T08:16:26Z</time>
      </trkpt>
      <trkpt lat="42.66786" lon="1.3971">
        <ele>3116</ele>
        <time>2013-07-07T08:16:40Z</time>
      </trkpt>
      <trkpt lat="42.66784" lon="1.39714">
        <ele>3115</ele>
        <time>2013-07-07T08:16:47Z</time>
      </trkpt>
      <trkpt lat="42.6678" lon="1.39717">
        <ele>3113</ele>
        <time>2013-07-07T08:16:55Z</time>
      </trkpt>
      <trkpt lat="42.66781" lon="1.39724">
        <ele>3112</ele>
        <time>2013-07-07T08:17:04Z</time>
      </trkpt>
      <trkpt lat="42.6678" lon="1.39725">
        <ele>3112</ele>
        <time>2013-07-07T08:17:11Z</time>
      </trkpt>
      <trkpt lat="42.66778" lon="1.3973">
        <ele>3110</ele>
        <time>2013-07-07T08:17:20Z</time>
      </trkpt>
      <trkpt lat="42.6678" lon="1.39736">
        <ele>3109</ele>
        <time>2013-07-07T08:17:30Z</time>
      </trkpt>
      <trkpt lat="42.6678" lon="1.39737">
        <ele>3108</ele>
        <time>2013-07-07T08:17:37Z</time>
      </trkpt>
      <trkpt lat="42.6678" lon="1.39741">
        <ele>3107</ele>
        <time>2013-07-07T08:17:45Z</time>
      </trkpt>
      <trkpt lat="42.66781" lon="1.39748">
        <ele>3105</ele>
        <time>2013-07-07T08:17:54Z</time>
      </trkpt>
      <trkpt lat="42.66783" lon="1.39752">
        <ele>3104</ele>
        <time>2013-07-07T08:18:02Z</time>
      </trkpt>
      <trkpt lat="42.66786" lon="1.39755">
        <ele>3102</ele>
        <time>2013-07-07T08:18:09Z</time>
      </trkpt>
      <trkpt lat="42.6679" lon="1.39754">
        <ele>3101</ele>
        <time>2013-07-07T08:18:16Z</time>
      </trkpt>
      <trkpt lat="42.66792" lon="1.39758">
        <ele>3099</ele>
        <time>2013-07-07T08:18:25Z</time>
      </trkpt>
      <trkpt lat="42.66794" lon="1.39764">
        <ele>3097</ele>
        <time>2013-07-07T08:18:34Z</time>
      </trkpt>
      <trkpt lat="42.66794" lon="1.39764">
        <ele>3097</ele>
        <time>2013-07-07T08:18:40Z</time>
      </trkpt>
      <trkpt lat="42.66795" lon="1.39768">
        <ele>3095</ele>
        <time>2013-07-07T08:18:49Z</time>
      </trkpt>
      <trkpt lat="42.66796" lon="1.39772">
        <ele>3094</ele>
        <time>2013-07-07T08:18:56Z</time>
      </trkpt>
      <trkpt lat="42.66797" lon="1.39774">
        <ele>3094</ele>
        <time>2013-07-07T08:19:04Z</time>
      </trkpt>
      <trkpt lat="42.66798" lon="1.3978">
        <ele>3092</ele>
        <time>2013-07-07T08:19:12Z</time>
      </trkpt>
      <trkpt lat="42.668" lon="1.39783">
        <ele>3091</ele>
        <time>2013-07-07T08:19:20Z</time>
      </trkpt>
      <trkpt lat="42.66801" lon="1.39784">
        <ele>3089</ele>
        <time>2013-07-07T08:19:28Z</time>
      </trkpt>
      <trkpt lat="42.66802" lon="1.39785">
        <ele>3087</ele>
        <time>2013-07-07T08:19:35Z</time>
      </trkpt>
      <trkpt lat="42.66804" lon="1.39787">
        <ele>3085</ele>
        <time>2013-07-07T08:19:43Z</time>
      </trkpt>
      <trkpt lat="42.66805" lon="1.39788">
        <ele>3085</ele>
        <time>2013-07-07T08:19:47Z</time>
      </trkpt>
      <trkpt lat="42.66804" lon="1.39785">
        <ele>3084</ele>
        <time>2013-07-07T08:19:56Z</time>
      </trkpt>
      <trkpt lat="42.66807" lon="1.39788">
        <ele>3084</ele>
        <time>2013-07-07T08:20:03Z</time>
      </trkpt>
      <trkpt lat="42.66808" lon="1.3979">
        <ele>3083</ele>
        <time>2013-07-07T08:20:06Z</time>
      </trkpt>
      <trkpt lat="42.66812" lon="1.39794">
        <ele>3081</ele>
        <time>2013-07-07T08:20:14Z</time>
      </trkpt>
      <trkpt lat="42.66813" lon="1.39795">
        <ele>3080</ele>
        <time>2013-07-07T08:20:20Z</time>
      </trkpt>
      <trkpt lat="42.66813" lon="1.3979">
        <ele>3080</ele>
        <time>2013-07-07T08:20:26Z</time>
      </trkpt>
      <trkpt lat="42.66814" lon="1.39792">
        <ele>3080</ele>
        <time>2013-07-07T08:20:35Z</time>
      </trkpt>
      <trkpt lat="42.66813" lon="1.39795">
        <ele>3078</ele>
        <time>2013-07-07T08:20:43Z</time>
      </trkpt>
      <trkpt lat="42.66812" lon="1.39799">
        <ele>3077</ele>
        <time>2013-07-07T08:20:53Z</time>
      </trkpt>
      <trkpt lat="42.66814" lon="1.39805">
        <ele>3075</ele>
        <time>2013-07-07T08:21:02Z</time>
      </trkpt>
      <trkpt lat="42.66815" lon="1.39799">
        <ele>3075</ele>
        <time>2013-07-07T08:21:11Z</time>
      </trkpt>
      <trkpt lat="42.66815" lon="1.39804">
        <ele>3074</ele>
        <time>2013-07-07T08:21:18Z</time>
      </trkpt>
      <trkpt lat="42.66818" lon="1.39809">
        <ele>3073</ele>
        <time>2013-07-07T08:21:26Z</time>
      </trkpt>
      <trkpt lat="42.66819" lon="1.39811">
        <ele>3072</ele>
        <time>2013-07-07T08:21:35Z</time>
      </trkpt>
      <trkpt lat="42.66818" lon="1.39813">
        <ele>3071</ele>
        <time>2013-07-07T08:21:44Z</time>
      </trkpt>
      <trkpt lat="42.66816" lon="1.39816">
        <ele>3071</ele>
        <time>2013-07-07T08:21:54Z</time>
      </trkpt>
      <trkpt lat="42.66815" lon="1.39821">
        <ele>3068</ele>
        <time>2013-07-07T08:22:02Z</time>
      </trkpt>
      <trkpt lat="42.66816" lon="1.39827">
        <ele>3067</ele>
        <time>2013-07-07T08:22:09Z</time>
      </trkpt>
      <trkpt lat="42.66815" lon="1.39833">
        <ele>3065</ele>
        <time>2013-07-07T08:22:17Z</time>
      </trkpt>
      <trkpt lat="42.66816" lon="1.39831">
        <ele>3064</ele>
        <time>2013-07-07T08:22:26Z</time>
      </trkpt>
      <trkpt lat="42.66815" lon="1.39832">
        <ele>3064</ele>
        <time>2013-07-07T08:22:40Z</time>
      </trkpt>
      <trkpt lat="42.66817" lon="1.3984">
        <ele>3062</ele>
        <time>2013-07-07T08:22:50Z</time>
      </trkpt>
      <trkpt lat="42.66819" lon="1.39846">
        <ele>3062</ele>
        <time>2013-07-07T08:22:59Z</time>
      </trkpt>
      <trkpt lat="42.66819" lon="1.3985">
        <ele>3062</ele>
        <time>2013-07-07T08:23:02Z</time>
      </trkpt>
      <trkpt lat="42.6682" lon="1.39855">
        <ele>3060</ele>
        <time>2013-07-07T08:23:09Z</time>
      </trkpt>
      <trkpt lat="42.6682" lon="1.39852">
        <ele>3061</ele>
        <time>2013-07-07T08:23:18Z</time>
      </trkpt>
      <trkpt lat="42.6682" lon="1.39856">
        <ele>3060</ele>
        <time>2013-07-07T08:23:28Z</time>
      </trkpt>
      <trkpt lat="42.6682" lon="1.39857">
        <ele>3061</ele>
        <time>2013-07-07T08:23:30Z</time>
      </trkpt>
      <trkpt lat="42.6682" lon="1.39865">
        <ele>3060</ele>
        <time>2013-07-07T08:23:38Z</time>
      </trkpt>
      <trkpt lat="42.66822" lon="1.39869">
        <ele>3059</ele>
        <time>2013-07-07T08:23:41Z</time>
      </trkpt>
      <trkpt lat="42.66825" lon="1.39883">
        <ele>3057</ele>
        <time>2013-07-07T08:23:50Z</time>
      </trkpt>
      <trkpt lat="42.66829" lon="1.39894">
        <ele>3056</ele>
        <time>2013-07-07T08:23:57Z</time>
      </trkpt>
      <trkpt lat="42.66836" lon="1.39896">
        <ele>3054</ele>
        <time>2013-07-07T08:24:04Z</time>
      </trkpt>
      <trkpt lat="42.66839" lon="1.39898">
        <ele>3053</ele>
        <time>2013-07-07T08:24:11Z</time>
      </trkpt>
      <trkpt lat="42.6684" lon="1.39902">
        <ele>3051</ele>
        <time>2013-07-07T08:24:18Z</time>
      </trkpt>
      <trkpt lat="42.66839" lon="1.3991">
        <ele>3049</ele>
        <time>2013-07-07T08:24:26Z</time>
      </trkpt>
      <trkpt lat="42.6684" lon="1.39916">
        <ele>3048</ele>
        <time>2013-07-07T08:24:35Z</time>
      </trkpt>
      <trkpt lat="42.6684" lon="1.39918">
        <ele>3047</ele>
        <time>2013-07-07T08:24:46Z</time>
      </trkpt>
      <trkpt lat="42.66843" lon="1.3992">
        <ele>3046</ele>
        <time>2013-07-07T08:24:50Z</time>
      </trkpt>
      <trkpt lat="42.66845" lon="1.39924">
        <ele>3044</ele>
        <time>2013-07-07T08:24:56Z</time>
      </trkpt>
      <trkpt lat="42.66846" lon="1.39931">
        <ele>3041</ele>
        <time>2013-07-07T08:25:02Z</time>
      </trkpt>
      <trkpt lat="42.66845" lon="1.39932">
        <ele>3042</ele>
        <time>2013-07-07T08:25:03Z</time>
      </trkpt>
      <trkpt lat="42.66844" lon="1.39936">
        <ele>3040</ele>
        <time>2013-07-07T08:25:06Z</time>
      </trkpt>
      <trkpt lat="42.66843" lon="1.39942">
        <ele>3039</ele>
        <time>2013-07-07T08:25:12Z</time>
      </trkpt>
      <trkpt lat="42.66843" lon="1.39949">
        <ele>3039</ele>
        <time>2013-07-07T08:25:20Z</time>
      </trkpt>
      <trkpt lat="42.66842" lon="1.39956">
        <ele>3039</ele>
        <time>2013-07-07T08:25:27Z</time>
      </trkpt>
      <trkpt lat="42.66841" lon="1.39968">
        <ele>3037</ele>
        <time>2013-07-07T08:25:36Z</time>
      </trkpt>
      <trkpt lat="42.66842" lon="1.39982">
        <ele>3035</ele>
        <time>2013-07-07T08:25:46Z</time>
      </trkpt>
      <trkpt lat="42.66842" lon="1.39986">
        <ele>3034</ele>
        <time>2013-07-07T08:25:49Z</time>
      </trkpt>
      <trkpt lat="42.66842" lon="1.39988">
        <ele>3034</ele>
        <time>2013-07-07T08:25:50Z</time>
      </trkpt>
      <trkpt lat="42.66839" lon="1.39992">
        <ele>3033</ele>
        <time>2013-07-07T08:25:55Z</time>
      </trkpt>
      <trkpt lat="42.66839" lon="1.40002">
        <ele>3033</ele>
        <time>2013-07-07T08:26:01Z</time>
      </trkpt>
      <trkpt lat="42.66846" lon="1.40012">
        <ele>3031</ele>
        <time>2013-07-07T08:26:09Z</time>
      </trkpt>
      <trkpt lat="42.66855" lon="1.40022">
        <ele>3031</ele>
        <time>2013-07-07T08:26:18Z</time>
      </trkpt>
      <trkpt lat="42.66858" lon="1.40025">
        <ele>3032</ele>
        <time>2013-07-07T08:26:22Z</time>
      </trkpt>
      <trkpt lat="42.66866" lon="1.40035">
        <ele>3032</ele>
        <time>2013-07-07T08:26:30Z</time>
      </trkpt>
      <trkpt lat="42.66867" lon="1.40035">
        <ele>3032</ele>
        <time>2013-07-07T08:26:31Z</time>
      </trkpt>
      <trkpt lat="42.66876" lon="1.40042">
        <ele>3031</ele>
        <time>2013-07-07T08:26:40Z</time>
      </trkpt>
      <trkpt lat="42.6688" lon="1.40043">
        <ele>3031</ele>
        <time>2013-07-07T08:26:47Z</time>
      </trkpt>
      <trkpt lat="42.66885" lon="1.40046">
        <ele>3031</ele>
        <time>2013-07-07T08:26:55Z</time>
      </trkpt>
      <trkpt lat="42.6689" lon="1.4005">
        <ele>3029</ele>
        <time>2013-07-07T08:27:01Z</time>
      </trkpt>
      <trkpt lat="42.66899" lon="1.40051">
        <ele>3029</ele>
        <time>2013-07-07T08:27:10Z</time>
      </trkpt>
      <trkpt lat="42.66902" lon="1.40053">
        <ele>3030</ele>
        <time>2013-07-07T08:27:17Z</time>
      </trkpt>
      <trkpt lat="42.66902" lon="1.40051">
        <ele>3030</ele>
        <time>2013-07-07T08:27:25Z</time>
      </trkpt>
      <trkpt lat="42.66902" lon="1.40051">
        <ele>3031</ele>
        <time>2013-07-07T08:27:44Z</time>
      </trkpt>
      <trkpt lat="42.66903" lon="1.4005">
        <ele>3031</ele>
        <time>2013-07-07T08:27:53Z</time>
      </trkpt>
      <trkpt lat="42.66903" lon="1.40051">
        <ele>3030</ele>
        <time>2013-07-07T08:28:09Z</time>
      </trkpt>
      <trkpt lat="42.66903" lon="1.40055">
        <ele>3030</ele>
        <time>2013-07-07T08:28:17Z</time>
      </trkpt>
      <trkpt lat="42.66903" lon="1.40057">
        <ele>3030</ele>
        <time>2013-07-07T08:28:25Z</time>
      </trkpt>
      <trkpt lat="42.66904" lon="1.40058">
        <ele>3029</ele>
        <time>2013-07-07T08:28:33Z</time>
      </trkpt>
      <trkpt lat="42.66904" lon="1.40069">
        <ele>3030</ele>
        <time>2013-07-07T08:28:42Z</time>
      </trkpt>
      <trkpt lat="42.66906" lon="1.40076">
        <ele>3028</ele>
        <time>2013-07-07T08:28:49Z</time>
      </trkpt>
      <trkpt lat="42.66907" lon="1.40077">
        <ele>3027</ele>
        <time>2013-07-07T08:28:50Z</time>
      </trkpt>
      <trkpt lat="42.66909" lon="1.40084">
        <ele>3025</ele>
        <time>2013-07-07T08:28:58Z</time>
      </trkpt>
      <trkpt lat="42.66912" lon="1.40087">
        <ele>3024</ele>
        <time>2013-07-07T08:29:04Z</time>
      </trkpt>
      <trkpt lat="42.66912" lon="1.40091">
        <ele>3023</ele>
        <time>2013-07-07T08:29:08Z</time>
      </trkpt>
      <trkpt lat="42.66919" lon="1.40096">
        <ele>3022</ele>
        <time>2013-07-07T08:29:16Z</time>
      </trkpt>
      <trkpt lat="42.66923" lon="1.401">
        <ele>3021</ele>
        <time>2013-07-07T08:29:22Z</time>
      </trkpt>
      <trkpt lat="42.66927" lon="1.40108">
        <ele>3021</ele>
        <time>2013-07-07T08:29:29Z</time>
      </trkpt>
      <trkpt lat="42.66934" lon="1.40115">
        <ele>3019</ele>
        <time>2013-07-07T08:29:38Z</time>
      </trkpt>
      <trkpt lat="42.66938" lon="1.40121">
        <ele>3017</ele>
        <time>2013-07-07T08:29:44Z</time>
      </trkpt>
      <trkpt lat="42.66939" lon="1.40123">
        <ele>3017</ele>
        <time>2013-07-07T08:29:46Z</time>
      </trkpt>
      <trkpt lat="42.66949" lon="1.40127">
        <ele>3015</ele>
        <time>2013-07-07T08:29:56Z</time>
      </trkpt>
      <trkpt lat="42.66953" lon="1.40129">
        <ele>3013</ele>
        <time>2013-07-07T08:30:04Z</time>
      </trkpt>
      <trkpt lat="42.66955" lon="1.40135">
        <ele>3012</ele>
        <time>2013-07-07T08:30:10Z</time>
      </trkpt>
      <trkpt lat="42.66956" lon="1.40139">
        <ele>3012</ele>
        <time>2013-07-07T08:30:16Z</time>
      </trkpt>
      <trkpt lat="42.66958" lon="1.40145">
        <ele>3010</ele>
        <time>2013-07-07T08:30:23Z</time>
      </trkpt>
      <trkpt lat="42.66961" lon="1.40151">
        <ele>3011</ele>
        <time>2013-07-07T08:30:30Z</time>
      </trkpt>
      <trkpt lat="42.66964" lon="1.40155">
        <ele>3009</ele>
        <time>2013-07-07T08:30:37Z</time>
      </trkpt>
      <trkpt lat="42.66966" lon="1.40162">
        <ele>3007</ele>
        <time>2013-07-07T08:30:45Z</time>
      </trkpt>
      <trkpt lat="42.66967" lon="1.40168">
        <ele>3008</ele>
        <time>2013-07-07T08:30:51Z</time>
      </trkpt>
      <trkpt lat="42.66967" lon="1.40173">
        <ele>3010</ele>
        <time>2013-07-07T08:30:59Z</time>
      </trkpt>
      <trkpt lat="42.66969" lon="1.40177">
        <ele>3010</ele>
        <time>2013-07-07T08:31:09Z</time>
      </trkpt>
      <trkpt lat="42.66969" lon="1.4018">
        <ele>3010</ele>
        <time>2013-07-07T08:31:16Z</time>
      </trkpt>
      <trkpt lat="42.66971" lon="1.4018">
        <ele>3010</ele>
        <time>2013-07-07T08:31:23Z</time>
      </trkpt>
      <trkpt lat="42.6697" lon="1.40182">
        <ele>3010</ele>
        <time>2013-07-07T08:31:32Z</time>
      </trkpt>
      <trkpt lat="42.66971" lon="1.40184">
        <ele>3009</ele>
        <time>2013-07-07T08:31:41Z</time>
      </trkpt>
      <trkpt lat="42.66969" lon="1.40186">
        <ele>3009</ele>
        <time>2013-07-07T08:31:55Z</time>
      </trkpt>
      <trkpt lat="42.66968" lon="1.40191">
        <ele>3009</ele>
        <time>2013-07-07T08:32:06Z</time>
      </trkpt>
      <trkpt lat="42.66971" lon="1.40184">
        <ele>3009</ele>
        <time>2013-07-07T08:32:20Z</time>
      </trkpt>
      <trkpt lat="42.66972" lon="1.40185">
        <ele>3008</ele>
        <time>2013-07-07T08:32:31Z</time>
      </trkpt>
      <trkpt lat="42.66972" lon="1.40185">
        <ele>3007</ele>
        <time>2013-07-07T08:32:39Z</time>
      </trkpt>
      <trkpt lat="42.66973" lon="1.40186">
        <ele>3006</ele>
        <time>2013-07-07T08:32:49Z</time>
      </trkpt>
      <trkpt lat="42.66973" lon="1.40184">
        <ele>3006</ele>
        <time>2013-07-07T08:33:00Z</time>
      </trkpt>
      <trkpt lat="42.66976" lon="1.40182">
        <ele>3004</ele>
        <time>2013-07-07T08:33:10Z</time>
      </trkpt>
      <trkpt lat="42.66977" lon="1.40185">
        <ele>3003</ele>
        <time>2013-07-07T08:33:17Z</time>
      </trkpt>
      <trkpt lat="42.66979" lon="1.40187">
        <ele>3001</ele>
        <time>2013-07-07T08:33:24Z</time>
      </trkpt>
      <trkpt lat="42.66979" lon="1.40185">
        <ele>3001</ele>
        <time>2013-07-07T08:33:32Z</time>
      </trkpt>
      <trkpt lat="42.6698" lon="1.40186">
        <ele>3001</ele>
        <time>2013-07-07T08:33:41Z</time>
      </trkpt>
      <trkpt lat="42.66984" lon="1.4019">
        <ele>3000</ele>
        <time>2013-07-07T08:33:50Z</time>
      </trkpt>
      <trkpt lat="42.66987" lon="1.40191">
        <ele>2999</ele>
        <time>2013-07-07T08:33:57Z</time>
      </trkpt>
      <trkpt lat="42.6699" lon="1.40193">
        <ele>2998</ele>
        <time>2013-07-07T08:34:06Z</time>
      </trkpt>
      <trkpt lat="42.66991" lon="1.40192">
        <ele>2998</ele>
        <time>2013-07-07T08:34:12Z</time>
      </trkpt>
      <trkpt lat="42.66991" lon="1.40197">
        <ele>2998</ele>
        <time>2013-07-07T08:34:26Z</time>
      </trkpt>
      <trkpt lat="42.66997" lon="1.40198">
        <ele>2998</ele>
        <time>2013-07-07T08:34:36Z</time>
      </trkpt>
      <trkpt lat="42.67" lon="1.40201">
        <ele>2996</ele>
        <time>2013-07-07T08:34:45Z</time>
      </trkpt>
      <trkpt lat="42.67005" lon="1.40203">
        <ele>2996</ele>
        <time>2013-07-07T08:34:53Z</time>
      </trkpt>
      <trkpt lat="42.67007" lon="1.40206">
        <ele>2995</ele>
        <time>2013-07-07T08:35:01Z</time>
      </trkpt>
      <trkpt lat="42.67009" lon="1.40208">
        <ele>2994</ele>
        <time>2013-07-07T08:35:07Z</time>
      </trkpt>
      <trkpt lat="42.67012" lon="1.40208">
        <ele>2992</ele>
        <time>2013-07-07T08:35:14Z</time>
      </trkpt>
      <trkpt lat="42.67013" lon="1.40207">
        <ele>2992</ele>
        <time>2013-07-07T08:35:20Z</time>
      </trkpt>
      <trkpt lat="42.67012" lon="1.40205">
        <ele>2991</ele>
        <time>2013-07-07T08:35:31Z</time>
      </trkpt>
      <trkpt lat="42.67018" lon="1.40208">
        <ele>2990</ele>
        <time>2013-07-07T08:35:41Z</time>
      </trkpt>
      <trkpt lat="42.67023" lon="1.4021">
        <ele>2989</ele>
        <time>2013-07-07T08:35:50Z</time>
      </trkpt>
      <trkpt lat="42.67027" lon="1.40212">
        <ele>2989</ele>
        <time>2013-07-07T08:35:57Z</time>
      </trkpt>
      <trkpt lat="42.67034" lon="1.40213">
        <ele>2987</ele>
        <time>2013-07-07T08:36:06Z</time>
      </trkpt>
      <trkpt lat="42.6704" lon="1.40215">
        <ele>2987</ele>
        <time>2013-07-07T08:36:13Z</time>
      </trkpt>
      <trkpt lat="42.67046" lon="1.40218">
        <ele>2987</ele>
        <time>2013-07-07T08:36:21Z</time>
      </trkpt>
      <trkpt lat="42.6705" lon="1.40216">
        <ele>2986</ele>
        <time>2013-07-07T08:36:28Z</time>
      </trkpt>
      <trkpt lat="42.67052" lon="1.40217">
        <ele>2986</ele>
        <time>2013-07-07T08:36:35Z</time>
      </trkpt>
      <trkpt lat="42.67054" lon="1.40219">
        <ele>2987</ele>
        <time>2013-07-07T08:36:42Z</time>
      </trkpt>
      <trkpt lat="42.67056" lon="1.40218">
        <ele>2986</ele>
        <time>2013-07-07T08:36:50Z</time>
      </trkpt>
      <trkpt lat="42.67054" lon="1.40217">
        <ele>2987</ele>
        <time>2013-07-07T08:37:09Z</time>
      </trkpt>
      <trkpt lat="42.6706" lon="1.4022">
        <ele>2986</ele>
        <time>2013-07-07T08:37:16Z</time>
      </trkpt>
      <trkpt lat="42.67065" lon="1.4022">
        <ele>2986</ele>
        <time>2013-07-07T08:37:23Z</time>
      </trkpt>
      <trkpt lat="42.67072" lon="1.4022">
        <ele>2985</ele>
        <time>2013-07-07T08:37:30Z</time>
      </trkpt>
      <trkpt lat="42.67079" lon="1.40221">
        <ele>2985</ele>
        <time>2013-07-07T08:37:38Z</time>
      </trkpt>
      <trkpt lat="42.67079" lon="1.40221">
        <ele>2986</ele>
        <time>2013-07-07T08:37:44Z</time>
      </trkpt>
      <trkpt lat="42.67082" lon="1.40218">
        <ele>2986</ele>
        <time>2013-07-07T08:37:54Z</time>
      </trkpt>
      <trkpt lat="42.67081" lon="1.40221">
        <ele>2985</ele>
        <time>2013-07-07T08:38:10Z</time>
      </trkpt>
      <trkpt lat="42.67082" lon="1.40221">
        <ele>2985</ele>
        <time>2013-07-07T08:38:21Z</time>
      </trkpt>
      <trkpt lat="42.67083" lon="1.4022">
        <ele>2986</ele>
        <time>2013-07-07T08:38:31Z</time>
      </trkpt>
      <trkpt lat="42.67084" lon="1.40224">
        <ele>2988</ele>
        <time>2013-07-07T08:38:38Z</time>
      </trkpt>
      <trkpt lat="42.67088" lon="1.40224">
        <ele>2988</ele>
        <time>2013-07-07T08:38:46Z</time>
      </trkpt>
      <trkpt lat="42.67088" lon="1.40228">
        <ele>2989</ele>
        <time>2013-07-07T08:38:52Z</time>
      </trkpt>
      <trkpt lat="42.67089" lon="1.40231">
        <ele>2991</ele>
        <time>2013-07-07T08:39:00Z</time>
      </trkpt>
      <trkpt lat="42.67093" lon="1.40233">
        <ele>2992</ele>
        <time>2013-07-07T08:39:07Z</time>
      </trkpt>
      <trkpt lat="42.67095" lon="1.40233">
        <ele>2993</ele>
        <time>2013-07-07T08:39:15Z</time>
      </trkpt>
      <trkpt lat="42.67096" lon="1.40236">
        <ele>2994</ele>
        <time>2013-07-07T08:39:22Z</time>
      </trkpt>
      <trkpt lat="42.67095" lon="1.40239">
        <ele>2996</ele>
        <time>2013-07-07T08:39:30Z</time>
      </trkpt>
      <trkpt lat="42.67093" lon="1.40241">
        <ele>2996</ele>
        <time>2013-07-07T08:39:39Z</time>
      </trkpt>
      <trkpt lat="42.67097" lon="1.40243">
        <ele>2997</ele>
        <time>2013-07-07T08:39:47Z</time>
      </trkpt>
      <trkpt lat="42.67101" lon="1.40242">
        <ele>2998</ele>
        <time>2013-07-07T08:39:56Z</time>
      </trkpt>
      <trkpt lat="42.67101" lon="1.40245">
        <ele>2999</ele>
        <time>2013-07-07T08:40:05Z</time>
      </trkpt>
      <trkpt lat="42.67103" lon="1.40249">
        <ele>3000</ele>
        <time>2013-07-07T08:40:14Z</time>
      </trkpt>
      <trkpt lat="42.67105" lon="1.40252">
        <ele>3001</ele>
        <time>2013-07-07T08:40:22Z</time>
      </trkpt>
      <trkpt lat="42.67107" lon="1.40251">
        <ele>3001</ele>
        <time>2013-07-07T08:40:30Z</time>
      </trkpt>
      <trkpt lat="42.67108" lon="1.40252">
        <ele>3003</ele>
        <time>2013-07-07T08:40:37Z</time>
      </trkpt>
      <trkpt lat="42.67108" lon="1.40255">
        <ele>3004</ele>
        <time>2013-07-07T08:40:44Z</time>
      </trkpt>
      <trkpt lat="42.67108" lon="1.40258">
        <ele>3005</ele>
        <time>2013-07-07T08:40:50Z</time>
      </trkpt>
      <trkpt lat="42.67112" lon="1.40258">
        <ele>3006</ele>
        <time>2013-07-07T08:40:58Z</time>
      </trkpt>
      <trkpt lat="42.67116" lon="1.40253">
        <ele>3008</ele>
        <time>2013-07-07T08:41:10Z</time>
      </trkpt>
      <trkpt lat="42.67117" lon="1.40254">
        <ele>3009</ele>
        <time>2013-07-07T08:41:16Z</time>
      </trkpt>
      <trkpt lat="42.67119" lon="1.40257">
        <ele>3010</ele>
        <time>2013-07-07T08:41:24Z</time>
      </trkpt>
      <trkpt lat="42.67122" lon="1.40255">
        <ele>3011</ele>
        <time>2013-07-07T08:41:32Z</time>
      </trkpt>
      <trkpt lat="42.67125" lon="1.40252">
        <ele>3013</ele>
        <time>2013-07-07T08:41:42Z</time>
      </trkpt>
      <trkpt lat="42.67126" lon="1.40253">
        <ele>3013</ele>
        <time>2013-07-07T08:41:57Z</time>
      </trkpt>
      <trkpt lat="42.67127" lon="1.40256">
        <ele>3014</ele>
        <time>2013-07-07T08:42:04Z</time>
      </trkpt>
      <trkpt lat="42.67129" lon="1.40256">
        <ele>3015</ele>
        <time>2013-07-07T08:42:12Z</time>
      </trkpt>
      <trkpt lat="42.67133" lon="1.40255">
        <ele>3017</ele>
        <time>2013-07-07T08:42:19Z</time>
      </trkpt>
      <trkpt lat="42.67135" lon="1.40257">
        <ele>3018</ele>
        <time>2013-07-07T08:42:28Z</time>
      </trkpt>
      <trkpt lat="42.67138" lon="1.40257">
        <ele>3020</ele>
        <time>2013-07-07T08:42:36Z</time>
      </trkpt>
      <trkpt lat="42.67141" lon="1.40255">
        <ele>3021</ele>
        <time>2013-07-07T08:42:44Z</time>
      </trkpt>
      <trkpt lat="42.67143" lon="1.40256">
        <ele>3021</ele>
        <time>2013-07-07T08:42:51Z</time>
      </trkpt>
      <trkpt lat="42.67145" lon="1.40256">
        <ele>3022</ele>
        <time>2013-07-07T08:42:59Z</time>
      </trkpt>
      <trkpt lat="42.67144" lon="1.40256">
        <ele>3022</ele>
        <time>2013-07-07T08:43:11Z</time>
      </trkpt>
      <trkpt lat="42.67146" lon="1.40254">
        <ele>3022</ele>
        <time>2013-07-07T08:43:22Z</time>
      </trkpt>
      <trkpt lat="42.67147" lon="1.40256">
        <ele>3023</ele>
        <time>2013-07-07T08:43:33Z</time>
      </trkpt>
      <trkpt lat="42.67145" lon="1.40259">
        <ele>3024</ele>
        <time>2013-07-07T08:43:42Z</time>
      </trkpt>
      <trkpt lat="42.67146" lon="1.40263">
        <ele>3025</ele>
        <time>2013-07-07T08:43:54Z</time>
      </trkpt>
      <trkpt lat="42.67145" lon="1.40266">
        <ele>3026</ele>
        <time>2013-07-07T08:44:02Z</time>
      </trkpt>
      <trkpt lat="42.67148" lon="1.40269">
        <ele>3027</ele>
        <time>2013-07-07T08:44:09Z</time>
      </trkpt>
      <trkpt lat="42.67151" lon="1.4027">
        <ele>3028</ele>
        <time>2013-07-07T08:44:15Z</time>
      </trkpt>
      <trkpt lat="42.67153" lon="1.40272">
        <ele>3030</ele>
        <time>2013-07-07T08:44:23Z</time>
      </trkpt>
      <trkpt lat="42.67157" lon="1.40274">
        <ele>3031</ele>
        <time>2013-07-07T08:44:30Z</time>
      </trkpt>
      <trkpt lat="42.6716" lon="1.40276">
        <ele>3033</ele>
        <time>2013-07-07T08:44:38Z</time>
      </trkpt>
      <trkpt lat="42.67163" lon="1.40278">
        <ele>3034</ele>
        <time>2013-07-07T08:44:45Z</time>
      </trkpt>
      <trkpt lat="42.67164" lon="1.40281">
        <ele>3035</ele>
        <time>2013-07-07T08:44:52Z</time>
      </trkpt>
      <trkpt lat="42.67167" lon="1.40285">
        <ele>3036</ele>
        <time>2013-07-07T08:44:58Z</time>
      </trkpt>
      <trkpt lat="42.67169" lon="1.40286">
        <ele>3036</ele>
        <time>2013-07-07T08:45:05Z</time>
      </trkpt>
      <trkpt lat="42.67174" lon="1.40288">
        <ele>3036</ele>
        <time>2013-07-07T08:45:12Z</time>
      </trkpt>
      <trkpt lat="42.67176" lon="1.40289">
        <ele>3037</ele>
        <time>2013-07-07T08:45:19Z</time>
      </trkpt>
      <trkpt lat="42.67176" lon="1.40295">
        <ele>3038</ele>
        <time>2013-07-07T08:45:27Z</time>
      </trkpt>
      <trkpt lat="42.67175" lon="1.40301">
        <ele>3039</ele>
        <time>2013-07-07T08:45:35Z</time>
      </trkpt>
      <trkpt lat="42.67174" lon="1.40302">
        <ele>3040</ele>
        <time>2013-07-07T08:45:37Z</time>
      </trkpt>
      <trkpt lat="42.67173" lon="1.40307">
        <ele>3041</ele>
        <time>2013-07-07T08:45:44Z</time>
      </trkpt>
      <trkpt lat="42.67171" lon="1.40313">
        <ele>3042</ele>
        <time>2013-07-07T08:45:49Z</time>
      </trkpt>
      <trkpt lat="42.67172" lon="1.40319">
        <ele>3043</ele>
        <time>2013-07-07T08:45:57Z</time>
      </trkpt>
      <trkpt lat="42.67172" lon="1.40319">
        <ele>3043</ele>
        <time>2013-07-07T08:46:09Z</time>
      </trkpt>
      <trkpt lat="42.67172" lon="1.40325">
        <ele>3043</ele>
        <time>2013-07-07T08:46:17Z</time>
      </trkpt>
      <trkpt lat="42.6717" lon="1.40333">
        <ele>3044</ele>
        <time>2013-07-07T08:46:24Z</time>
      </trkpt>
      <trkpt lat="42.67171" lon="1.40337">
        <ele>3044</ele>
        <time>2013-07-07T08:46:27Z</time>
      </trkpt>
      <trkpt lat="42.67172" lon="1.40347">
        <ele>3044</ele>
        <time>2013-07-07T08:46:36Z</time>
      </trkpt>
      <trkpt lat="42.67173" lon="1.40355">
        <ele>3045</ele>
        <time>2013-07-07T08:46:44Z</time>
      </trkpt>
      <trkpt lat="42.67172" lon="1.4036">
        <ele>3046</ele>
        <time>2013-07-07T08:46:51Z</time>
      </trkpt>
      <trkpt lat="42.67171" lon="1.40364">
        <ele>3047</ele>
        <time>2013-07-07T08:46:57Z</time>
      </trkpt>
      <trkpt lat="42.67173" lon="1.40371">
        <ele>3049</ele>
        <time>2013-07-07T08:47:07Z</time>
      </trkpt>
      <trkpt lat="42.67175" lon="1.40374">
        <ele>3049</ele>
        <time>2013-07-07T08:47:14Z</time>
      </trkpt>
      <trkpt lat="42.67175" lon="1.40378">
        <ele>3049</ele>
        <time>2013-07-07T08:47:22Z</time>
      </trkpt>
      <trkpt lat="42.67177" lon="1.4038">
        <ele>3050</ele>
        <time>2013-07-07T08:47:33Z</time>
      </trkpt>
      <trkpt lat="42.6718" lon="1.40384">
        <ele>3051</ele>
        <time>2013-07-07T08:47:41Z</time>
      </trkpt>
      <trkpt lat="42.67182" lon="1.40388">
        <ele>3053</ele>
        <time>2013-07-07T08:47:48Z</time>
      </trkpt>
      <trkpt lat="42.67181" lon="1.40392">
        <ele>3053</ele>
        <time>2013-07-07T08:47:57Z</time>
      </trkpt>
      <trkpt lat="42.6718" lon="1.40396">
        <ele>3055</ele>
        <time>2013-07-07T08:48:05Z</time>
      </trkpt>
      <trkpt lat="42.67179" lon="1.40401">
        <ele>3056</ele>
        <time>2013-07-07T08:48:12Z</time>
      </trkpt>
      <trkpt lat="42.67181" lon="1.40407">
        <ele>3058</ele>
        <time>2013-07-07T08:48:21Z</time>
      </trkpt>
      <trkpt lat="42.67184" lon="1.40413">
        <ele>3059</ele>
        <time>2013-07-07T08:48:31Z</time>
      </trkpt>
      <trkpt lat="42.67181" lon="1.40415">
        <ele>3060</ele>
        <time>2013-07-07T08:48:39Z</time>
      </trkpt>
      <trkpt lat="42.67181" lon="1.40417">
        <ele>3060</ele>
        <time>2013-07-07T08:48:47Z</time>
      </trkpt>
      <trkpt lat="42.67184" lon="1.4042">
        <ele>3060</ele>
        <time>2013-07-07T08:48:59Z</time>
      </trkpt>
      <trkpt lat="42.67183" lon="1.40423">
        <ele>3062</ele>
        <time>2013-07-07T08:49:08Z</time>
      </trkpt>
      <trkpt lat="42.67181" lon="1.40425">
        <ele>3064</ele>
        <time>2013-07-07T08:49:16Z</time>
      </trkpt>
      <trkpt lat="42.67182" lon="1.40429">
        <ele>3064</ele>
        <time>2013-07-07T08:49:23Z</time>
      </trkpt>
      <trkpt lat="42.67183" lon="1.40431">
        <ele>3065</ele>
        <time>2013-07-07T08:49:30Z</time>
      </trkpt>
      <trkpt lat="42.67182" lon="1.40433">
        <ele>3065</ele>
        <time>2013-07-07T08:49:38Z</time>
      </trkpt>
      <trkpt lat="42.67186" lon="1.40436">
        <ele>3066</ele>
        <time>2013-07-07T08:49:47Z</time>
      </trkpt>
      <trkpt lat="42.6719" lon="1.40441">
        <ele>3066</ele>
        <time>2013-07-07T08:49:56Z</time>
      </trkpt>
      <trkpt lat="42.6719" lon="1.40445">
        <ele>3067</ele>
        <time>2013-07-07T08:50:03Z</time>
      </trkpt>
      <trkpt lat="42.67192" lon="1.40449">
        <ele>3068</ele>
        <time>2013-07-07T08:50:09Z</time>
      </trkpt>
      <trkpt lat="42.67194" lon="1.40455">
        <ele>3069</ele>
        <time>2013-07-07T08:50:16Z</time>
      </trkpt>
      <trkpt lat="42.67195" lon="1.40459">
        <ele>3070</ele>
        <time>2013-07-07T08:50:23Z</time>
      </trkpt>
      <trkpt lat="42.67196" lon="1.40465">
        <ele>3071</ele>
        <time>2013-07-07T08:50:31Z</time>
      </trkpt>
      <trkpt lat="42.67196" lon="1.4047">
        <ele>3071</ele>
        <time>2013-07-07T08:50:38Z</time>
      </trkpt>
      <trkpt lat="42.67194" lon="1.40474">
        <ele>3072</ele>
        <time>2013-07-07T08:50:46Z</time>
      </trkpt>
      <trkpt lat="42.67194" lon="1.4048">
        <ele>3072</ele>
        <time>2013-07-07T08:50:53Z</time>
      </trkpt>
      <trkpt lat="42.67194" lon="1.40485">
        <ele>3072</ele>
        <time>2013-07-07T08:51:01Z</time>
      </trkpt>
      <trkpt lat="42.67193" lon="1.40495">
        <ele>3072</ele>
        <time>2013-07-07T08:51:10Z</time>
      </trkpt>
      <trkpt lat="42.67194" lon="1.40503">
        <ele>3072</ele>
        <time>2013-07-07T08:51:17Z</time>
      </trkpt>
      <trkpt lat="42.67196" lon="1.40507">
        <ele>3072</ele>
        <time>2013-07-07T08:51:27Z</time>
      </trkpt>
      <trkpt lat="42.67194" lon="1.40513">
        <ele>3073</ele>
        <time>2013-07-07T08:51:36Z</time>
      </trkpt>
      <trkpt lat="42.67196" lon="1.40521">
        <ele>3074</ele>
        <time>2013-07-07T08:51:43Z</time>
      </trkpt>
      <trkpt lat="42.67197" lon="1.40525">
        <ele>3073</ele>
        <time>2013-07-07T08:51:50Z</time>
      </trkpt>
      <trkpt lat="42.67198" lon="1.4053">
        <ele>3071</ele>
        <time>2013-07-07T08:51:58Z</time>
      </trkpt>
      <trkpt lat="42.672" lon="1.40538">
        <ele>3069</ele>
        <time>2013-07-07T08:52:06Z</time>
      </trkpt>
      <trkpt lat="42.672" lon="1.40545">
        <ele>3069</ele>
        <time>2013-07-07T08:52:13Z</time>
      </trkpt>
      <trkpt lat="42.67198" lon="1.4055">
        <ele>3070</ele>
        <time>2013-07-07T08:52:21Z</time>
      </trkpt>
      <trkpt lat="42.67196" lon="1.40557">
        <ele>3071</ele>
        <time>2013-07-07T08:52:29Z</time>
      </trkpt>
      <trkpt lat="42.67193" lon="1.40561">
        <ele>3072</ele>
        <time>2013-07-07T08:52:37Z</time>
      </trkpt>
      <trkpt lat="42.67194" lon="1.40563">
        <ele>3072</ele>
        <time>2013-07-07T08:52:45Z</time>
      </trkpt>
      <trkpt lat="42.67191" lon="1.40567">
        <ele>3074</ele>
        <time>2013-07-07T08:52:52Z</time>
      </trkpt>
      <trkpt lat="42.67189" lon="1.40573">
        <ele>3074</ele>
        <time>2013-07-07T08:52:59Z</time>
      </trkpt>
      <trkpt lat="42.6719" lon="1.40583">
        <ele>3075</ele>
        <time>2013-07-07T08:53:07Z</time>
      </trkpt>
      <trkpt lat="42.67191" lon="1.40585">
        <ele>3075</ele>
        <time>2013-07-07T08:53:09Z</time>
      </trkpt>
      <trkpt lat="42.67189" lon="1.40595">
        <ele>3076</ele>
        <time>2013-07-07T08:53:19Z</time>
      </trkpt>
      <trkpt lat="42.67187" lon="1.40603">
        <ele>3076</ele>
        <time>2013-07-07T08:53:27Z</time>
      </trkpt>
      <trkpt lat="42.67188" lon="1.40605">
        <ele>3076</ele>
        <time>2013-07-07T08:53:35Z</time>
      </trkpt>
      <trkpt lat="42.67187" lon="1.40611">
        <ele>3076</ele>
        <time>2013-07-07T08:53:42Z</time>
      </trkpt>
      <trkpt lat="42.67187" lon="1.40623">
        <ele>3077</ele>
        <time>2013-07-07T08:53:51Z</time>
      </trkpt>
      <trkpt lat="42.67184" lon="1.40629">
        <ele>3077</ele>
        <time>2013-07-07T08:53:58Z</time>
      </trkpt>
      <trkpt lat="42.67184" lon="1.40635">
        <ele>3076</ele>
        <time>2013-07-07T08:54:05Z</time>
      </trkpt>
      <trkpt lat="42.67187" lon="1.4064">
        <ele>3076</ele>
        <time>2013-07-07T08:54:13Z</time>
      </trkpt>
      <trkpt lat="42.67185" lon="1.40651">
        <ele>3074</ele>
        <time>2013-07-07T08:54:22Z</time>
      </trkpt>
      <trkpt lat="42.67183" lon="1.40661">
        <ele>3072</ele>
        <time>2013-07-07T08:54:31Z</time>
      </trkpt>
      <trkpt lat="42.67183" lon="1.40662">
        <ele>3072</ele>
        <time>2013-07-07T08:54:32Z</time>
      </trkpt>
      <trkpt lat="42.67182" lon="1.40664">
        <ele>3072</ele>
        <time>2013-07-07T08:54:34Z</time>
      </trkpt>
      <trkpt lat="42.67183" lon="1.40676">
        <ele>3070</ele>
        <time>2013-07-07T08:54:43Z</time>
      </trkpt>
      <trkpt lat="42.67182" lon="1.40683">
        <ele>3069</ele>
        <time>2013-07-07T08:54:50Z</time>
      </trkpt>
      <trkpt lat="42.67182" lon="1.40685">
        <ele>3069</ele>
        <time>2013-07-07T08:54:58Z</time>
      </trkpt>
      <trkpt lat="42.6718" lon="1.40686">
        <ele>3069</ele>
        <time>2013-07-07T08:55:00Z</time>
      </trkpt>
      <trkpt lat="42.67174" lon="1.407">
        <ele>3068</ele>
        <time>2013-07-07T08:55:10Z</time>
      </trkpt>
      <trkpt lat="42.67171" lon="1.40709">
        <ele>3067</ele>
        <time>2013-07-07T08:55:18Z</time>
      </trkpt>
      <trkpt lat="42.67168" lon="1.40717">
        <ele>3066</ele>
        <time>2013-07-07T08:55:24Z</time>
      </trkpt>
      <trkpt lat="42.67165" lon="1.40723">
        <ele>3065</ele>
        <time>2013-07-07T08:55:28Z</time>
      </trkpt>
      <trkpt lat="42.67161" lon="1.40738">
        <ele>3062</ele>
        <time>2013-07-07T08:55:37Z</time>
      </trkpt>
      <trkpt lat="42.6716" lon="1.40743">
        <ele>3062</ele>
        <time>2013-07-07T08:55:40Z</time>
      </trkpt>
      <trkpt lat="42.67159" lon="1.40747">
        <ele>3060</ele>
        <time>2013-07-07T08:55:43Z</time>
      </trkpt>
      <trkpt lat="42.67157" lon="1.4075">
        <ele>3060</ele>
        <time>2013-07-07T08:55:46Z</time>
      </trkpt>
      <trkpt lat="42.67155" lon="1.40758">
        <ele>3059</ele>
        <time>2013-07-07T08:55:51Z</time>
      </trkpt>
      <trkpt lat="42.67152" lon="1.40769">
        <ele>3056</ele>
        <time>2013-07-07T08:55:59Z</time>
      </trkpt>
      <trkpt lat="42.6715" lon="1.40782">
        <ele>3054</ele>
        <time>2013-07-07T08:56:06Z</time>
      </trkpt>
      <trkpt lat="42.67149" lon="1.40786">
        <ele>3053</ele>
        <time>2013-07-07T08:56:09Z</time>
      </trkpt>
      <trkpt lat="42.67149" lon="1.40789">
        <ele>3052</ele>
        <time>2013-07-07T08:56:11Z</time>
      </trkpt>
      <trkpt lat="42.67149" lon="1.40797">
        <ele>3050</ele>
        <time>2013-07-07T08:56:16Z</time>
      </trkpt>
      <trkpt lat="42.67146" lon="1.4081">
        <ele>3050</ele>
        <time>2013-07-07T08:56:25Z</time>
      </trkpt>
      <trkpt lat="42.67144" lon="1.40812">
        <ele>3050</ele>
        <time>2013-07-07T08:56:27Z</time>
      </trkpt>
      <trkpt lat="42.6714" lon="1.4082">
        <ele>3049</ele>
        <time>2013-07-07T08:56:34Z</time>
      </trkpt>
      <trkpt lat="42.67139" lon="1.40821">
        <ele>3049</ele>
        <time>2013-07-07T08:56:35Z</time>
      </trkpt>
      <trkpt lat="42.67137" lon="1.40835">
        <ele>3047</ele>
        <time>2013-07-07T08:56:43Z</time>
      </trkpt>
      <trkpt lat="42.67135" lon="1.40845">
        <ele>3045</ele>
        <time>2013-07-07T08:56:49Z</time>
      </trkpt>
      <trkpt lat="42.67136" lon="1.40856">
        <ele>3042</ele>
        <time>2013-07-07T08:56:55Z</time>
      </trkpt>
      <trkpt lat="42.67136" lon="1.40863">
        <ele>3041</ele>
        <time>2013-07-07T08:56:59Z</time>
      </trkpt>
      <trkpt lat="42.67135" lon="1.40873">
        <ele>3039</ele>
        <time>2013-07-07T08:57:06Z</time>
      </trkpt>
      <trkpt lat="42.67133" lon="1.40876">
        <ele>3039</ele>
        <time>2013-07-07T08:57:09Z</time>
      </trkpt>
      <trkpt lat="42.67129" lon="1.4088">
        <ele>3039</ele>
        <time>2013-07-07T08:57:16Z</time>
      </trkpt>
      <trkpt lat="42.67127" lon="1.40882">
        <ele>3038</ele>
        <time>2013-07-07T08:57:22Z</time>
      </trkpt>
      <trkpt lat="42.67125" lon="1.40886">
        <ele>3038</ele>
        <time>2013-07-07T08:57:25Z</time>
      </trkpt>
      <trkpt lat="42.6712" lon="1.40891">
        <ele>3036</ele>
        <time>2013-07-07T08:57:33Z</time>
      </trkpt>
      <trkpt lat="42.67118" lon="1.40895">
        <ele>3035</ele>
        <time>2013-07-07T08:57:38Z</time>
      </trkpt>
      <trkpt lat="42.67116" lon="1.40896">
        <ele>3034</ele>
        <time>2013-07-07T08:57:41Z</time>
      </trkpt>
      <trkpt lat="42.67114" lon="1.40906">
        <ele>3032</ele>
        <time>2013-07-07T08:57:49Z</time>
      </trkpt>
      <trkpt lat="42.67112" lon="1.4091">
        <ele>3030</ele>
        <time>2013-07-07T08:57:55Z</time>
      </trkpt>
      <trkpt lat="42.67111" lon="1.40913">
        <ele>3030</ele>
        <time>2013-07-07T08:57:58Z</time>
      </trkpt>
      <trkpt lat="42.67107" lon="1.40918">
        <ele>3029</ele>
        <time>2013-07-07T08:58:05Z</time>
      </trkpt>
      <trkpt lat="42.67106" lon="1.40921">
        <ele>3027</ele>
        <time>2013-07-07T08:58:07Z</time>
      </trkpt>
      <trkpt lat="42.67103" lon="1.4093">
        <ele>3025</ele>
        <time>2013-07-07T08:58:13Z</time>
      </trkpt>
      <trkpt lat="42.67105" lon="1.40936">
        <ele>3023</ele>
        <time>2013-07-07T08:58:17Z</time>
      </trkpt>
      <trkpt lat="42.67103" lon="1.40941">
        <ele>3022</ele>
        <time>2013-07-07T08:58:24Z</time>
      </trkpt>
      <trkpt lat="42.67103" lon="1.40942">
        <ele>3022</ele>
        <time>2013-07-07T08:58:25Z</time>
      </trkpt>
      <trkpt lat="42.67101" lon="1.40946">
        <ele>3021</ele>
        <time>2013-07-07T08:58:31Z</time>
      </trkpt>
      <trkpt lat="42.67095" lon="1.40953">
        <ele>3018</ele>
        <time>2013-07-07T08:58:39Z</time>
      </trkpt>
      <trkpt lat="42.67091" lon="1.40965">
        <ele>3016</ele>
        <time>2013-07-07T08:58:48Z</time>
      </trkpt>
      <trkpt lat="42.67087" lon="1.4097">
        <ele>3016</ele>
        <time>2013-07-07T08:58:55Z</time>
      </trkpt>
      <trkpt lat="42.67084" lon="1.40976">
        <ele>3015</ele>
        <time>2013-07-07T08:59:02Z</time>
      </trkpt>
      <trkpt lat="42.67082" lon="1.40977">
        <ele>3013</ele>
        <time>2013-07-07T08:59:09Z</time>
      </trkpt>
      <trkpt lat="42.67083" lon="1.4098">
        <ele>3014</ele>
        <time>2013-07-07T08:59:27Z</time>
      </trkpt>
      <trkpt lat="42.67082" lon="1.4098">
        <ele>3014</ele>
        <time>2013-07-07T08:59:46Z</time>
      </trkpt>
      <trkpt lat="42.67081" lon="1.40981">
        <ele>3013</ele>
        <time>2013-07-07T09:00:01Z</time>
      </trkpt>
      <trkpt lat="42.67083" lon="1.40981">
        <ele>3013</ele>
        <time>2013-07-07T09:00:16Z</time>
      </trkpt>
      <trkpt lat="42.67088" lon="1.40976">
        <ele>3014</ele>
        <time>2013-07-07T09:00:23Z</time>
      </trkpt>
      <trkpt lat="42.67091" lon="1.40972">
        <ele>3015</ele>
        <time>2013-07-07T09:00:27Z</time>
      </trkpt>
      <trkpt lat="42.67096" lon="1.40961">
        <ele>3017</ele>
        <time>2013-07-07T09:00:36Z</time>
      </trkpt>
      <trkpt lat="42.67101" lon="1.40951">
        <ele>3018</ele>
        <time>2013-07-07T09:00:45Z</time>
      </trkpt>
      <trkpt lat="42.67102" lon="1.40948">
        <ele>3019</ele>
        <time>2013-07-07T09:00:47Z</time>
      </trkpt>
      <trkpt lat="42.67104" lon="1.40942">
        <ele>3022</ele>
        <time>2013-07-07T09:00:55Z</time>
      </trkpt>
      <trkpt lat="42.67106" lon="1.40937">
        <ele>3023</ele>
        <time>2013-07-07T09:01:02Z</time>
      </trkpt>
      <trkpt lat="42.67109" lon="1.4093">
        <ele>3025</ele>
        <time>2013-07-07T09:01:10Z</time>
      </trkpt>
      <trkpt lat="42.67111" lon="1.40923">
        <ele>3027</ele>
        <time>2013-07-07T09:01:17Z</time>
      </trkpt>
      <trkpt lat="42.67111" lon="1.40919">
        <ele>3028</ele>
        <time>2013-07-07T09:01:25Z</time>
      </trkpt>
      <trkpt lat="42.67114" lon="1.40914">
        <ele>3030</ele>
        <time>2013-07-07T09:01:34Z</time>
      </trkpt>
      <trkpt lat="42.67119" lon="1.40911">
        <ele>3030</ele>
        <time>2013-07-07T09:01:40Z</time>
      </trkpt>
      <trkpt lat="42.6712" lon="1.40906">
        <ele>3032</ele>
        <time>2013-07-07T09:01:46Z</time>
      </trkpt>
      <trkpt lat="42.67121" lon="1.40904">
        <ele>3033</ele>
        <time>2013-07-07T09:01:50Z</time>
      </trkpt>
      <trkpt lat="42.67123" lon="1.409">
        <ele>3034</ele>
        <time>2013-07-07T09:01:56Z</time>
      </trkpt>
      <trkpt lat="42.67125" lon="1.40893">
        <ele>3036</ele>
        <time>2013-07-07T09:02:05Z</time>
      </trkpt>
      <trkpt lat="42.67129" lon="1.40888">
        <ele>3037</ele>
        <time>2013-07-07T09:02:13Z</time>
      </trkpt>
      <trkpt lat="42.67131" lon="1.40882">
        <ele>3038</ele>
        <time>2013-07-07T09:02:20Z</time>
      </trkpt>
      <trkpt lat="42.67131" lon="1.40881">
        <ele>3038</ele>
        <time>2013-07-07T09:02:21Z</time>
      </trkpt>
      <trkpt lat="42.67137" lon="1.40869">
        <ele>3039</ele>
        <time>2013-07-07T09:02:30Z</time>
      </trkpt>
      <trkpt lat="42.6714" lon="1.40859">
        <ele>3040</ele>
        <time>2013-07-07T09:02:39Z</time>
      </trkpt>
      <trkpt lat="42.67142" lon="1.40851">
        <ele>3042</ele>
        <time>2013-07-07T09:02:47Z</time>
      </trkpt>
      <trkpt lat="42.67145" lon="1.40843">
        <ele>3043</ele>
        <time>2013-07-07T09:02:55Z</time>
      </trkpt>
      <trkpt lat="42.67148" lon="1.40837">
        <ele>3044</ele>
        <time>2013-07-07T09:03:02Z</time>
      </trkpt>
      <trkpt lat="42.67152" lon="1.4083">
        <ele>3045</ele>
        <time>2013-07-07T09:03:09Z</time>
      </trkpt>
      <trkpt lat="42.67152" lon="1.40822">
        <ele>3046</ele>
        <time>2013-07-07T09:03:16Z</time>
      </trkpt>
      <trkpt lat="42.67151" lon="1.4082">
        <ele>3047</ele>
        <time>2013-07-07T09:03:18Z</time>
      </trkpt>
      <trkpt lat="42.67151" lon="1.40815">
        <ele>3048</ele>
        <time>2013-07-07T09:03:23Z</time>
      </trkpt>
      <trkpt lat="42.67149" lon="1.4081">
        <ele>3049</ele>
        <time>2013-07-07T09:03:29Z</time>
      </trkpt>
      <trkpt lat="42.67149" lon="1.40809">
        <ele>3050</ele>
        <time>2013-07-07T09:03:30Z</time>
      </trkpt>
      <trkpt lat="42.67147" lon="1.40802">
        <ele>3051</ele>
        <time>2013-07-07T09:03:37Z</time>
      </trkpt>
      <trkpt lat="42.67143" lon="1.40795">
        <ele>3052</ele>
        <time>2013-07-07T09:03:43Z</time>
      </trkpt>
      <trkpt lat="42.67144" lon="1.40784">
        <ele>3053</ele>
        <time>2013-07-07T09:03:52Z</time>
      </trkpt>
      <trkpt lat="42.67144" lon="1.40776">
        <ele>3054</ele>
        <time>2013-07-07T09:04:00Z</time>
      </trkpt>
      <trkpt lat="42.6714" lon="1.40771">
        <ele>3056</ele>
        <time>2013-07-07T09:04:07Z</time>
      </trkpt>
      <trkpt lat="42.6714" lon="1.4077">
        <ele>3056</ele>
        <time>2013-07-07T09:04:08Z</time>
      </trkpt>
      <trkpt lat="42.67142" lon="1.40763">
        <ele>3057</ele>
        <time>2013-07-07T09:04:16Z</time>
      </trkpt>
      <trkpt lat="42.67144" lon="1.40757">
        <ele>3059</ele>
        <time>2013-07-07T09:04:24Z</time>
      </trkpt>
      <trkpt lat="42.67144" lon="1.40753">
        <ele>3059</ele>
        <time>2013-07-07T09:04:31Z</time>
      </trkpt>
      <trkpt lat="42.67147" lon="1.40747">
        <ele>3062</ele>
        <time>2013-07-07T09:04:39Z</time>
      </trkpt>
      <trkpt lat="42.6715" lon="1.40741">
        <ele>3062</ele>
        <time>2013-07-07T09:04:46Z</time>
      </trkpt>
      <trkpt lat="42.67153" lon="1.40734">
        <ele>3064</ele>
        <time>2013-07-07T09:04:55Z</time>
      </trkpt>
      <trkpt lat="42.67156" lon="1.40727">
        <ele>3064</ele>
        <time>2013-07-07T09:05:02Z</time>
      </trkpt>
      <trkpt lat="42.67157" lon="1.4072">
        <ele>3066</ele>
        <time>2013-07-07T09:05:10Z</time>
      </trkpt>
      <trkpt lat="42.67161" lon="1.40714">
        <ele>3067</ele>
        <time>2013-07-07T09:05:17Z</time>
      </trkpt>
      <trkpt lat="42.67165" lon="1.40708">
        <ele>3067</ele>
        <time>2013-07-07T09:05:24Z</time>
      </trkpt>
      <trkpt lat="42.67168" lon="1.40701">
        <ele>3069</ele>
        <time>2013-07-07T09:05:32Z</time>
      </trkpt>
      <trkpt lat="42.67172" lon="1.40693">
        <ele>3069</ele>
        <time>2013-07-07T09:05:40Z</time>
      </trkpt>
      <trkpt lat="42.67175" lon="1.40684">
        <ele>3070</ele>
        <time>2013-07-07T09:05:49Z</time>
      </trkpt>
      <trkpt lat="42.67177" lon="1.40678">
        <ele>3071</ele>
        <time>2013-07-07T09:05:56Z</time>
      </trkpt>
      <trkpt lat="42.67178" lon="1.40675">
        <ele>3071</ele>
        <time>2013-07-07T09:05:59Z</time>
      </trkpt>
      <trkpt lat="42.67181" lon="1.40668">
        <ele>3072</ele>
        <time>2013-07-07T09:06:07Z</time>
      </trkpt>
      <trkpt lat="42.67183" lon="1.4066">
        <ele>3072</ele>
        <time>2013-07-07T09:06:14Z</time>
      </trkpt>
      <trkpt lat="42.67186" lon="1.40653">
        <ele>3072</ele>
        <time>2013-07-07T09:06:22Z</time>
      </trkpt>
      <trkpt lat="42.67187" lon="1.40648">
        <ele>3073</ele>
        <time>2013-07-07T09:06:28Z</time>
      </trkpt>
      <trkpt lat="42.67188" lon="1.40643">
        <ele>3074</ele>
        <time>2013-07-07T09:06:34Z</time>
      </trkpt>
      <trkpt lat="42.67191" lon="1.40638">
        <ele>3074</ele>
        <time>2013-07-07T09:06:42Z</time>
      </trkpt>
      <trkpt lat="42.67192" lon="1.40636">
        <ele>3075</ele>
        <time>2013-07-07T09:06:51Z</time>
      </trkpt>
      <trkpt lat="42.67193" lon="1.40638">
        <ele>3075</ele>
        <time>2013-07-07T09:07:07Z</time>
      </trkpt>
      <trkpt lat="42.67193" lon="1.40635">
        <ele>3075</ele>
        <time>2013-07-07T09:07:15Z</time>
      </trkpt>
      <trkpt lat="42.67192" lon="1.40633">
        <ele>3075</ele>
        <time>2013-07-07T09:07:27Z</time>
      </trkpt>
      <trkpt lat="42.67193" lon="1.40634">
        <ele>3076</ele>
        <time>2013-07-07T09:07:46Z</time>
      </trkpt>
      <trkpt lat="42.67194" lon="1.40632">
        <ele>3076</ele>
        <time>2013-07-07T09:08:03Z</time>
      </trkpt>
      <trkpt lat="42.67192" lon="1.40632">
        <ele>3075</ele>
        <time>2013-07-07T09:08:13Z</time>
      </trkpt>
      <trkpt lat="42.67191" lon="1.40632">
        <ele>3076</ele>
        <time>2013-07-07T09:08:24Z</time>
      </trkpt>
      <trkpt lat="42.67191" lon="1.40636">
        <ele>3076</ele>
        <time>2013-07-07T09:08:32Z</time>
      </trkpt>
      <trkpt lat="42.67191" lon="1.40637">
        <ele>3076</ele>
        <time>2013-07-07T09:08:53Z</time>
      </trkpt>
      <trkpt lat="42.67191" lon="1.40636">
        <ele>3076</ele>
        <time>2013-07-07T09:09:11Z</time>
      </trkpt>
      <trkpt lat="42.6719" lon="1.40636">
        <ele>3074</ele>
        <time>2013-07-07T09:09:28Z</time>
      </trkpt>
      <trkpt lat="42.67191" lon="1.40636">
        <ele>3076</ele>
        <time>2013-07-07T09:09:42Z</time>
      </trkpt>
      <trkpt lat="42.67191" lon="1.40636">
        <ele>3076</ele>
        <time>2013-07-07T09:10:02Z</time>
      </trkpt>
      <trkpt lat="42.67191" lon="1.40636">
        <ele>3075</ele>
        <time>2013-07-07T09:10:20Z</time>
      </trkpt>
      <trkpt lat="42.67191" lon="1.40636">
        <ele>3077</ele>
        <time>2013-07-07T09:10:35Z</time>
      </trkpt>
      <trkpt lat="42.67191" lon="1.40636">
        <ele>3076</ele>
        <time>2013-07-07T09:10:54Z</time>
      </trkpt>
      <trkpt lat="42.67191" lon="1.40636">
        <ele>3076</ele>
        <time>2013-07-07T09:11:10Z</time>
      </trkpt>
      <trkpt lat="42.6719" lon="1.40636">
        <ele>3077</ele>
        <time>2013-07-07T09:11:31Z</time>
      </trkpt>
      <trkpt lat="42.6719" lon="1.40634">
        <ele>3077</ele>
        <time>2013-07-07T09:11:41Z</time>
      </trkpt>
      <trkpt lat="42.67192" lon="1.40635">
        <ele>3077</ele>
        <time>2013-07-07T09:11:48Z</time>
      </trkpt>
      <trkpt lat="42.67191" lon="1.40632">
        <ele>3077</ele>
        <time>2013-07-07T09:11:56Z</time>
      </trkpt>
      <trkpt lat="42.67191" lon="1.40632">
        <ele>3077</ele>
        <time>2013-07-07T09:12:05Z</time>
      </trkpt>
      <trkpt lat="42.6719" lon="1.40632">
        <ele>3077</ele>
        <time>2013-07-07T09:12:13Z</time>
      </trkpt>
      <trkpt lat="42.6719" lon="1.40632">
        <ele>3077</ele>
        <time>2013-07-07T09:12:18Z</time>
      </trkpt>
      <trkpt lat="42.6719" lon="1.40635">
        <ele>3077</ele>
        <time>2013-07-07T09:12:26Z</time>
      </trkpt>
      <trkpt lat="42.67191" lon="1.40632">
        <ele>3077</ele>
        <time>2013-07-07T09:12:44Z</time>
      </trkpt>
      <trkpt lat="42.6719" lon="1.40633">
        <ele>3077</ele>
        <time>2013-07-07T09:12:52Z</time>
      </trkpt>
      <trkpt lat="42.6719" lon="1.40632">
        <ele>3077</ele>
        <time>2013-07-07T09:13:04Z</time>
      </trkpt>
      <trkpt lat="42.6719" lon="1.40632">
        <ele>3077</ele>
        <time>2013-07-07T09:13:14Z</time>
      </trkpt>
      <trkpt lat="42.6719" lon="1.40632">
        <ele>3076</ele>
        <time>2013-07-07T09:13:25Z</time>
      </trkpt>
      <trkpt lat="42.6719" lon="1.40633">
        <ele>3076</ele>
        <time>2013-07-07T09:13:43Z</time>
      </trkpt>
      <trkpt lat="42.67191" lon="1.40633">
        <ele>3074</ele>
        <time>2013-07-07T09:14:10Z</time>
      </trkpt>
      <trkpt lat="42.67191" lon="1.40634">
        <ele>3076</ele>
        <time>2013-07-07T09:14:17Z</time>
      </trkpt>
      <trkpt lat="42.6719" lon="1.40634">
        <ele>3077</ele>
        <time>2013-07-07T09:14:29Z</time>
      </trkpt>
      <trkpt lat="42.6719" lon="1.40634">
        <ele>3076</ele>
        <time>2013-07-07T09:14:37Z</time>
      </trkpt>
      <trkpt lat="42.67189" lon="1.40633">
        <ele>3076</ele>
        <time>2013-07-07T09:14:49Z</time>
      </trkpt>
      <trkpt lat="42.67189" lon="1.40632">
        <ele>3076</ele>
        <time>2013-07-07T09:15:07Z</time>
      </trkpt>
      <trkpt lat="42.67189" lon="1.40633">
        <ele>3076</ele>
        <time>2013-07-07T09:15:25Z</time>
      </trkpt>
      <trkpt lat="42.67189" lon="1.40633">
        <ele>3076</ele>
        <time>2013-07-07T09:15:45Z</time>
      </trkpt>
      <trkpt lat="42.67189" lon="1.40633">
        <ele>3077</ele>
        <time>2013-07-07T09:16:05Z</time>
      </trkpt>
      <trkpt lat="42.67189" lon="1.40633">
        <ele>3076</ele>
        <time>2013-07-07T09:16:19Z</time>
      </trkpt>
      <trkpt lat="42.67189" lon="1.40633">
        <ele>3076</ele>
        <time>2013-07-07T09:16:33Z</time>
      </trkpt>
      <trkpt lat="42.67189" lon="1.40633">
        <ele>3076</ele>
        <time>2013-07-07T09:16:51Z</time>
      </trkpt>
      <trkpt lat="42.6719" lon="1.40632">
        <ele>3077</ele>
        <time>2013-07-07T09:17:10Z</time>
      </trkpt>
      <trkpt lat="42.67189" lon="1.40632">
        <ele>3077</ele>
        <time>2013-07-07T09:17:31Z</time>
      </trkpt>
      <trkpt lat="42.67189" lon="1.40632">
        <ele>3076</ele>
        <time>2013-07-07T09:17:54Z</time>
      </trkpt>
      <trkpt lat="42.67189" lon="1.40633">
        <ele>3076</ele>
        <time>2013-07-07T09:18:17Z</time>
      </trkpt>
      <trkpt lat="42.67189" lon="1.40633">
        <ele>3076</ele>
        <time>2013-07-07T09:18:38Z</time>
      </trkpt>
      <trkpt lat="42.67189" lon="1.40633">
        <ele>3076</ele>
        <time>2013-07-07T09:19:04Z</time>
      </trkpt>
      <trkpt lat="42.67189" lon="1.40633">
        <ele>3076</ele>
        <time>2013-07-07T09:19:26Z</time>
      </trkpt>
      <trkpt lat="42.67189" lon="1.40633">
        <ele>3076</ele>
        <time>2013-07-07T09:19:47Z</time>
      </trkpt>
      <trkpt lat="42.67188" lon="1.40633">
        <ele>3076</ele>
        <time>2013-07-07T09:20:07Z</time>
      </trkpt>
      <trkpt lat="42.67188" lon="1.40633">
        <ele>3075</ele>
        <time>2013-07-07T09:20:28Z</time>
      </trkpt>
      <trkpt lat="42.67188" lon="1.40633">
        <ele>3076</ele>
        <time>2013-07-07T09:20:46Z</time>
      </trkpt>
      <trkpt lat="42.67189" lon="1.40633">
        <ele>3076</ele>
        <time>2013-07-07T09:21:05Z</time>
      </trkpt>
      <trkpt lat="42.67188" lon="1.40633">
        <ele>3075</ele>
        <time>2013-07-07T09:21:25Z</time>
      </trkpt>
      <trkpt lat="42.67189" lon="1.40633">
        <ele>3076</ele>
        <time>2013-07-07T09:21:49Z</time>
      </trkpt>
      <trkpt lat="42.67189" lon="1.40633">
        <ele>3075</ele>
        <time>2013-07-07T09:22:10Z</time>
      </trkpt>
      <trkpt lat="42.67189" lon="1.40633">
        <ele>3076</ele>
        <time>2013-07-07T09:22:32Z</time>
      </trkpt>
      <trkpt lat="42.67189" lon="1.40633">
        <ele>3075</ele>
        <time>2013-07-07T09:22:52Z</time>
      </trkpt>
      <trkpt lat="42.67189" lon="1.40633">
        <ele>3075</ele>
        <time>2013-07-07T09:23:17Z</time>
      </trkpt>
      <trkpt lat="42.67189" lon="1.40633">
        <ele>3075</ele>
        <time>2013-07-07T09:23:40Z</time>
      </trkpt>
      <trkpt lat="42.67188" lon="1.40633">
        <ele>3075</ele>
        <time>2013-07-07T09:23:59Z</time>
      </trkpt>
      <trkpt lat="42.67189" lon="1.40633">
        <ele>3075</ele>
        <time>2013-07-07T09:24:22Z</time>
      </trkpt>
      <trkpt lat="42.67189" lon="1.40632">
        <ele>3076</ele>
        <time>2013-07-07T09:24:41Z</time>
      </trkpt>
      <trkpt lat="42.67189" lon="1.40633">
        <ele>3076</ele>
        <time>2013-07-07T09:25:02Z</time>
      </trkpt>
      <trkpt lat="42.67189" lon="1.40634">
        <ele>3075</ele>
        <time>2013-07-07T09:25:22Z</time>
      </trkpt>
      <trkpt lat="42.67189" lon="1.40634">
        <ele>3075</ele>
        <time>2013-07-07T09:25:41Z</time>
      </trkpt>
      <trkpt lat="42.6719" lon="1.40634">
        <ele>3075</ele>
        <time>2013-07-07T09:26:03Z</time>
      </trkpt>
      <trkpt lat="42.6719" lon="1.40634">
        <ele>3075</ele>
        <time>2013-07-07T09:26:23Z</time>
      </trkpt>
      <trkpt lat="42.6719" lon="1.40634">
        <ele>3075</ele>
        <time>2013-07-07T09:26:42Z</time>
      </trkpt>
      <trkpt lat="42.67191" lon="1.40634">
        <ele>3075</ele>
        <time>2013-07-07T09:27:02Z</time>
      </trkpt>
      <trkpt lat="42.6719" lon="1.40633">
        <ele>3075</ele>
        <time>2013-07-07T09:27:24Z</time>
      </trkpt>
      <trkpt lat="42.6719" lon="1.40633">
        <ele>3075</ele>
        <time>2013-07-07T09:27:43Z</time>
      </trkpt>
      <trkpt lat="42.6719" lon="1.40634">
        <ele>3075</ele>
        <time>2013-07-07T09:28:03Z</time>
      </trkpt>
      <trkpt lat="42.6719" lon="1.40633">
        <ele>3075</ele>
        <time>2013-07-07T09:28:23Z</time>
      </trkpt>
      <trkpt lat="42.6719" lon="1.40633">
        <ele>3075</ele>
        <time>2013-07-07T09:28:34Z</time>
      </trkpt>
      <trkpt lat="42.67191" lon="1.40634">
        <ele>3075</ele>
        <time>2013-07-07T09:28:47Z</time>
      </trkpt>
      <trkpt lat="42.6719" lon="1.40635">
        <ele>3075</ele>
        <time>2013-07-07T09:29:08Z</time>
      </trkpt>
      <trkpt lat="42.67191" lon="1.40635">
        <ele>3076</ele>
        <time>2013-07-07T09:29:13Z</time>
      </trkpt>
      <trkpt lat="42.67192" lon="1.40633">
        <ele>3076</ele>
        <time>2013-07-07T09:29:24Z</time>
      </trkpt>
      <trkpt lat="42.67191" lon="1.40631">
        <ele>3076</ele>
        <time>2013-07-07T09:29:32Z</time>
      </trkpt>
      <trkpt lat="42.67191" lon="1.40634">
        <ele>3076</ele>
        <time>2013-07-07T09:29:43Z</time>
      </trkpt>
      <trkpt lat="42.67191" lon="1.40635">
        <ele>3076</ele>
        <time>2013-07-07T09:29:54Z</time>
      </trkpt>
      <trkpt lat="42.6719" lon="1.40643">
        <ele>3075</ele>
        <time>2013-07-07T09:30:01Z</time>
      </trkpt>
      <trkpt lat="42.67191" lon="1.40652">
        <ele>3074</ele>
        <time>2013-07-07T09:30:09Z</time>
      </trkpt>
      <trkpt lat="42.67195" lon="1.40653">
        <ele>3073</ele>
        <time>2013-07-07T09:30:16Z</time>
      </trkpt>
      <trkpt lat="42.67197" lon="1.40655">
        <ele>3072</ele>
        <time>2013-07-07T09:30:27Z</time>
      </trkpt>
      <trkpt lat="42.67197" lon="1.40663">
        <ele>3071</ele>
        <time>2013-07-07T09:30:34Z</time>
      </trkpt>
      <trkpt lat="42.67198" lon="1.40668">
        <ele>3070</ele>
        <time>2013-07-07T09:30:39Z</time>
      </trkpt>
      <trkpt lat="42.67201" lon="1.40678">
        <ele>3068</ele>
        <time>2013-07-07T09:30:50Z</time>
      </trkpt>
      <trkpt lat="42.67202" lon="1.40684">
        <ele>3066</ele>
        <time>2013-07-07T09:30:58Z</time>
      </trkpt>
      <trkpt lat="42.67205" lon="1.40688">
        <ele>3065</ele>
        <time>2013-07-07T09:31:06Z</time>
      </trkpt>
      <trkpt lat="42.67206" lon="1.40689">
        <ele>3064</ele>
        <time>2013-07-07T09:31:09Z</time>
      </trkpt>
      <trkpt lat="42.67209" lon="1.4069">
        <ele>3063</ele>
        <time>2013-07-07T09:31:15Z</time>
      </trkpt>
      <trkpt lat="42.67212" lon="1.4069">
        <ele>3062</ele>
        <time>2013-07-07T09:31:22Z</time>
      </trkpt>
      <trkpt lat="42.67216" lon="1.4069">
        <ele>3062</ele>
        <time>2013-07-07T09:31:29Z</time>
      </trkpt>
      <trkpt lat="42.6722" lon="1.40691">
        <ele>3061</ele>
        <time>2013-07-07T09:31:37Z</time>
      </trkpt>
      <trkpt lat="42.67221" lon="1.40695">
        <ele>3060</ele>
        <time>2013-07-07T09:31:48Z</time>
      </trkpt>
      <trkpt lat="42.67222" lon="1.40697">
        <ele>3059</ele>
        <time>2013-07-07T09:31:55Z</time>
      </trkpt>
      <trkpt lat="42.67223" lon="1.40702">
        <ele>3059</ele>
        <time>2013-07-07T09:32:04Z</time>
      </trkpt>
      <trkpt lat="42.67224" lon="1.40709">
        <ele>3057</ele>
        <time>2013-07-07T09:32:12Z</time>
      </trkpt>
      <trkpt lat="42.67224" lon="1.40713">
        <ele>3056</ele>
        <time>2013-07-07T09:32:16Z</time>
      </trkpt>
      <trkpt lat="42.67225" lon="1.40718">
        <ele>3055</ele>
        <time>2013-07-07T09:32:24Z</time>
      </trkpt>
      <trkpt lat="42.67224" lon="1.40723">
        <ele>3053</ele>
        <time>2013-07-07T09:32:32Z</time>
      </trkpt>
      <trkpt lat="42.67223" lon="1.40725">
        <ele>3053</ele>
        <time>2013-07-07T09:32:36Z</time>
      </trkpt>
      <trkpt lat="42.67224" lon="1.4073">
        <ele>3050</ele>
        <time>2013-07-07T09:32:43Z</time>
      </trkpt>
      <trkpt lat="42.67227" lon="1.40737">
        <ele>3048</ele>
        <time>2013-07-07T09:32:51Z</time>
      </trkpt>
      <trkpt lat="42.67227" lon="1.40738">
        <ele>3049</ele>
        <time>2013-07-07T09:32:56Z</time>
      </trkpt>
      <trkpt lat="42.67231" lon="1.40746">
        <ele>3046</ele>
        <time>2013-07-07T09:33:05Z</time>
      </trkpt>
      <trkpt lat="42.67234" lon="1.4075">
        <ele>3045</ele>
        <time>2013-07-07T09:33:11Z</time>
      </trkpt>
      <trkpt lat="42.67235" lon="1.40752">
        <ele>3044</ele>
        <time>2013-07-07T09:33:14Z</time>
      </trkpt>
      <trkpt lat="42.67236" lon="1.40757">
        <ele>3043</ele>
        <time>2013-07-07T09:33:22Z</time>
      </trkpt>
      <trkpt lat="42.67237" lon="1.40765">
        <ele>3040</ele>
        <time>2013-07-07T09:33:30Z</time>
      </trkpt>
      <trkpt lat="42.6724" lon="1.40768">
        <ele>3039</ele>
        <time>2013-07-07T09:33:37Z</time>
      </trkpt>
      <trkpt lat="42.67242" lon="1.40767">
        <ele>3039</ele>
        <time>2013-07-07T09:33:39Z</time>
      </trkpt>
      <trkpt lat="42.67246" lon="1.40767">
        <ele>3037</ele>
        <time>2013-07-07T09:33:45Z</time>
      </trkpt>
      <trkpt lat="42.67249" lon="1.40766">
        <ele>3037</ele>
        <time>2013-07-07T09:33:51Z</time>
      </trkpt>
      <trkpt lat="42.67252" lon="1.40767">
        <ele>3036</ele>
        <time>2013-07-07T09:33:57Z</time>
      </trkpt>
      <trkpt lat="42.67256" lon="1.4077">
        <ele>3034</ele>
        <time>2013-07-07T09:34:04Z</time>
      </trkpt>
      <trkpt lat="42.67258" lon="1.40772">
        <ele>3033</ele>
        <time>2013-07-07T09:34:10Z</time>
      </trkpt>
      <trkpt lat="42.67259" lon="1.40773">
        <ele>3032</ele>
        <time>2013-07-07T09:34:18Z</time>
      </trkpt>
      <trkpt lat="42.6726" lon="1.40774">
        <ele>3031</ele>
        <time>2013-07-07T09:34:19Z</time>
      </trkpt>
      <trkpt lat="42.67263" lon="1.40779">
        <ele>3030</ele>
        <time>2013-07-07T09:34:26Z</time>
      </trkpt>
      <trkpt lat="42.67267" lon="1.40781">
        <ele>3028</ele>
        <time>2013-07-07T09:34:33Z</time>
      </trkpt>
      <trkpt lat="42.67275" lon="1.40781">
        <ele>3026</ele>
        <time>2013-07-07T09:34:42Z</time>
      </trkpt>
      <trkpt lat="42.67279" lon="1.40782">
        <ele>3024</ele>
        <time>2013-07-07T09:34:49Z</time>
      </trkpt>
      <trkpt lat="42.67284" lon="1.40785">
        <ele>3022</ele>
        <time>2013-07-07T09:34:57Z</time>
      </trkpt>
      <trkpt lat="42.67284" lon="1.40791">
        <ele>3021</ele>
        <time>2013-07-07T09:35:04Z</time>
      </trkpt>
      <trkpt lat="42.67286" lon="1.40797">
        <ele>3019</ele>
        <time>2013-07-07T09:35:09Z</time>
      </trkpt>
      <trkpt lat="42.6729" lon="1.40799">
        <ele>3019</ele>
        <time>2013-07-07T09:35:14Z</time>
      </trkpt>
      <trkpt lat="42.67291" lon="1.40799">
        <ele>3018</ele>
        <time>2013-07-07T09:35:16Z</time>
      </trkpt>
      <trkpt lat="42.67293" lon="1.40801">
        <ele>3017</ele>
        <time>2013-07-07T09:35:19Z</time>
      </trkpt>
      <trkpt lat="42.67296" lon="1.40799">
        <ele>3016</ele>
        <time>2013-07-07T09:35:22Z</time>
      </trkpt>
      <trkpt lat="42.673" lon="1.40797">
        <ele>3016</ele>
        <time>2013-07-07T09:35:28Z</time>
      </trkpt>
      <trkpt lat="42.67306" lon="1.40799">
        <ele>3015</ele>
        <time>2013-07-07T09:35:36Z</time>
      </trkpt>
      <trkpt lat="42.67311" lon="1.40801">
        <ele>3012</ele>
        <time>2013-07-07T09:35:44Z</time>
      </trkpt>
      <trkpt lat="42.67313" lon="1.40805">
        <ele>3011</ele>
        <time>2013-07-07T09:35:50Z</time>
      </trkpt>
      <trkpt lat="42.67318" lon="1.40807">
        <ele>3009</ele>
        <time>2013-07-07T09:35:58Z</time>
      </trkpt>
      <trkpt lat="42.67319" lon="1.40809">
        <ele>3009</ele>
        <time>2013-07-07T09:36:02Z</time>
      </trkpt>
      <trkpt lat="42.67325" lon="1.40806">
        <ele>3006</ele>
        <time>2013-07-07T09:36:09Z</time>
      </trkpt>
      <trkpt lat="42.67328" lon="1.40807">
        <ele>3006</ele>
        <time>2013-07-07T09:36:16Z</time>
      </trkpt>
      <trkpt lat="42.67332" lon="1.40813">
        <ele>3004</ele>
        <time>2013-07-07T09:36:22Z</time>
      </trkpt>
      <trkpt lat="42.67337" lon="1.40818">
        <ele>3002</ele>
        <time>2013-07-07T09:36:30Z</time>
      </trkpt>
      <trkpt lat="42.67341" lon="1.40822">
        <ele>3001</ele>
        <time>2013-07-07T09:36:37Z</time>
      </trkpt>
      <trkpt lat="42.67344" lon="1.40825">
        <ele>3000</ele>
        <time>2013-07-07T09:36:45Z</time>
      </trkpt>
      <trkpt lat="42.67346" lon="1.40826">
        <ele>3000</ele>
        <time>2013-07-07T09:37:00Z</time>
      </trkpt>
      <trkpt lat="42.67345" lon="1.40826">
        <ele>3000</ele>
        <time>2013-07-07T09:37:16Z</time>
      </trkpt>
      <trkpt lat="42.67345" lon="1.40826">
        <ele>2999</ele>
        <time>2013-07-07T09:37:32Z</time>
      </trkpt>
      <trkpt lat="42.67346" lon="1.40827">
        <ele>3000</ele>
        <time>2013-07-07T09:37:48Z</time>
      </trkpt>
      <trkpt lat="42.67346" lon="1.40827">
        <ele>2999</ele>
        <time>2013-07-07T09:38:09Z</time>
      </trkpt>
      <trkpt lat="42.67346" lon="1.40827">
        <ele>2999</ele>
        <time>2013-07-07T09:38:28Z</time>
      </trkpt>
      <trkpt lat="42.67346" lon="1.40827">
        <ele>3000</ele>
        <time>2013-07-07T09:38:46Z</time>
      </trkpt>
      <trkpt lat="42.67349" lon="1.40828">
        <ele>3000</ele>
        <time>2013-07-07T09:39:00Z</time>
      </trkpt>
      <trkpt lat="42.67349" lon="1.40829">
        <ele>2999</ele>
        <time>2013-07-07T09:39:07Z</time>
      </trkpt>
      <trkpt lat="42.67355" lon="1.40837">
        <ele>2998</ele>
        <time>2013-07-07T09:39:18Z</time>
      </trkpt>
      <trkpt lat="42.67356" lon="1.4084">
        <ele>2997</ele>
        <time>2013-07-07T09:39:21Z</time>
      </trkpt>
      <trkpt lat="42.67361" lon="1.40845">
        <ele>2995</ele>
        <time>2013-07-07T09:39:29Z</time>
      </trkpt>
      <trkpt lat="42.67364" lon="1.40848">
        <ele>2993</ele>
        <time>2013-07-07T09:39:35Z</time>
      </trkpt>
      <trkpt lat="42.67364" lon="1.40854">
        <ele>2992</ele>
        <time>2013-07-07T09:39:42Z</time>
      </trkpt>
      <trkpt lat="42.67369" lon="1.40855">
        <ele>2990</ele>
        <time>2013-07-07T09:39:47Z</time>
      </trkpt>
      <trkpt lat="42.67373" lon="1.40859">
        <ele>2989</ele>
        <time>2013-07-07T09:39:53Z</time>
      </trkpt>
      <trkpt lat="42.67378" lon="1.40861">
        <ele>2987</ele>
        <time>2013-07-07T09:40:00Z</time>
      </trkpt>
      <trkpt lat="42.67382" lon="1.40858">
        <ele>2986</ele>
        <time>2013-07-07T09:40:07Z</time>
      </trkpt>
      <trkpt lat="42.67386" lon="1.40864">
        <ele>2984</ele>
        <time>2013-07-07T09:40:15Z</time>
      </trkpt>
      <trkpt lat="42.6739" lon="1.40863">
        <ele>2983</ele>
        <time>2013-07-07T09:40:22Z</time>
      </trkpt>
      <trkpt lat="42.67394" lon="1.40868">
        <ele>2982</ele>
        <time>2013-07-07T09:40:29Z</time>
      </trkpt>
      <trkpt lat="42.67395" lon="1.40871">
        <ele>2980</ele>
        <time>2013-07-07T09:40:35Z</time>
      </trkpt>
      <trkpt lat="42.67396" lon="1.40872">
        <ele>2980</ele>
        <time>2013-07-07T09:40:37Z</time>
      </trkpt>
      <trkpt lat="42.674" lon="1.40876">
        <ele>2979</ele>
        <time>2013-07-07T09:40:43Z</time>
      </trkpt>
      <trkpt lat="42.67403" lon="1.40879">
        <ele>2976</ele>
        <time>2013-07-07T09:40:48Z</time>
      </trkpt>
      <trkpt lat="42.67404" lon="1.40878">
        <ele>2976</ele>
        <time>2013-07-07T09:40:54Z</time>
      </trkpt>
      <trkpt lat="42.67407" lon="1.40876">
        <ele>2976</ele>
        <time>2013-07-07T09:41:00Z</time>
      </trkpt>
      <trkpt lat="42.67414" lon="1.40876">
        <ele>2975</ele>
        <time>2013-07-07T09:41:07Z</time>
      </trkpt>
      <trkpt lat="42.67416" lon="1.40875">
        <ele>2974</ele>
        <time>2013-07-07T09:41:09Z</time>
      </trkpt>
      <trkpt lat="42.67424" lon="1.40876">
        <ele>2971</ele>
        <time>2013-07-07T09:41:18Z</time>
      </trkpt>
      <trkpt lat="42.67431" lon="1.40878">
        <ele>2969</ele>
        <time>2013-07-07T09:41:27Z</time>
      </trkpt>
      <trkpt lat="42.67437" lon="1.40882">
        <ele>2967</ele>
        <time>2013-07-07T09:41:35Z</time>
      </trkpt>
      <trkpt lat="42.67442" lon="1.40883">
        <ele>2966</ele>
        <time>2013-07-07T09:41:42Z</time>
      </trkpt>
      <trkpt lat="42.67449" lon="1.40882">
        <ele>2963</ele>
        <time>2013-07-07T09:41:51Z</time>
      </trkpt>
      <trkpt lat="42.67454" lon="1.40885">
        <ele>2961</ele>
        <time>2013-07-07T09:41:59Z</time>
      </trkpt>
      <trkpt lat="42.67459" lon="1.40889">
        <ele>2960</ele>
        <time>2013-07-07T09:42:08Z</time>
      </trkpt>
      <trkpt lat="42.6746" lon="1.40891">
        <ele>2959</ele>
        <time>2013-07-07T09:42:10Z</time>
      </trkpt>
      <trkpt lat="42.67464" lon="1.40892">
        <ele>2958</ele>
        <time>2013-07-07T09:42:16Z</time>
      </trkpt>
      <trkpt lat="42.6747" lon="1.40892">
        <ele>2957</ele>
        <time>2013-07-07T09:42:24Z</time>
      </trkpt>
      <trkpt lat="42.67472" lon="1.40893">
        <ele>2956</ele>
        <time>2013-07-07T09:42:31Z</time>
      </trkpt>
      <trkpt lat="42.6747" lon="1.40894">
        <ele>2956</ele>
        <time>2013-07-07T09:42:38Z</time>
      </trkpt>
      <trkpt lat="42.67469" lon="1.40896">
        <ele>2956</ele>
        <time>2013-07-07T09:42:46Z</time>
      </trkpt>
      <trkpt lat="42.67468" lon="1.40898">
        <ele>2957</ele>
        <time>2013-07-07T09:42:56Z</time>
      </trkpt>
      <trkpt lat="42.6747" lon="1.40897">
        <ele>2956</ele>
        <time>2013-07-07T09:43:10Z</time>
      </trkpt>
      <trkpt lat="42.67471" lon="1.40892">
        <ele>2956</ele>
        <time>2013-07-07T09:43:13Z</time>
      </trkpt>
      <trkpt lat="42.67476" lon="1.40885">
        <ele>2955</ele>
        <time>2013-07-07T09:43:20Z</time>
      </trkpt>
      <trkpt lat="42.6748" lon="1.40884">
        <ele>2953</ele>
        <time>2013-07-07T09:43:27Z</time>
      </trkpt>
      <trkpt lat="42.67482" lon="1.40884">
        <ele>2953</ele>
        <time>2013-07-07T09:43:34Z</time>
      </trkpt>
      <trkpt lat="42.67482" lon="1.40883">
        <ele>2952</ele>
        <time>2013-07-07T09:43:44Z</time>
      </trkpt>
      <trkpt lat="42.67484" lon="1.40883">
        <ele>2951</ele>
        <time>2013-07-07T09:43:47Z</time>
      </trkpt>
      <trkpt lat="42.67486" lon="1.40883">
        <ele>2949</ele>
        <time>2013-07-07T09:43:55Z</time>
      </trkpt>
      <trkpt lat="42.67487" lon="1.40881">
        <ele>2948</ele>
        <time>2013-07-07T09:44:02Z</time>
      </trkpt>
      <trkpt lat="42.6749" lon="1.40881">
        <ele>2946</ele>
        <time>2013-07-07T09:44:11Z</time>
      </trkpt>
      <trkpt lat="42.67491" lon="1.40882">
        <ele>2945</ele>
        <time>2013-07-07T09:44:19Z</time>
      </trkpt>
      <trkpt lat="42.67493" lon="1.40883">
        <ele>2943</ele>
        <time>2013-07-07T09:44:30Z</time>
      </trkpt>
      <trkpt lat="42.67495" lon="1.40882">
        <ele>2942</ele>
        <time>2013-07-07T09:44:38Z</time>
      </trkpt>
      <trkpt lat="42.67497" lon="1.40882">
        <ele>2941</ele>
        <time>2013-07-07T09:44:46Z</time>
      </trkpt>
      <trkpt lat="42.67499" lon="1.40878">
        <ele>2940</ele>
        <time>2013-07-07T09:44:54Z</time>
      </trkpt>
      <trkpt lat="42.675" lon="1.40878">
        <ele>2940</ele>
        <time>2013-07-07T09:45:03Z</time>
      </trkpt>
      <trkpt lat="42.675" lon="1.40878">
        <ele>2940</ele>
        <time>2013-07-07T09:45:11Z</time>
      </trkpt>
      <trkpt lat="42.675" lon="1.40877">
        <ele>2938</ele>
        <time>2013-07-07T09:45:21Z</time>
      </trkpt>
      <trkpt lat="42.67501" lon="1.40879">
        <ele>2937</ele>
        <time>2013-07-07T09:45:28Z</time>
      </trkpt>
      <trkpt lat="42.67501" lon="1.40875">
        <ele>2937</ele>
        <time>2013-07-07T09:45:39Z</time>
      </trkpt>
      <trkpt lat="42.675" lon="1.40875">
        <ele>2937</ele>
        <time>2013-07-07T09:45:53Z</time>
      </trkpt>
      <trkpt lat="42.67499" lon="1.40876">
        <ele>2936</ele>
        <time>2013-07-07T09:46:03Z</time>
      </trkpt>
      <trkpt lat="42.67498" lon="1.40878">
        <ele>2937</ele>
        <time>2013-07-07T09:46:14Z</time>
      </trkpt>
      <trkpt lat="42.675" lon="1.40881">
        <ele>2936</ele>
        <time>2013-07-07T09:46:20Z</time>
      </trkpt>
      <trkpt lat="42.675" lon="1.4088">
        <ele>2936</ele>
        <time>2013-07-07T09:46:32Z</time>
      </trkpt>
      <trkpt lat="42.67501" lon="1.40882">
        <ele>2936</ele>
        <time>2013-07-07T09:46:50Z</time>
      </trkpt>
      <trkpt lat="42.67502" lon="1.40884">
        <ele>2935</ele>
        <time>2013-07-07T09:47:03Z</time>
      </trkpt>
      <trkpt lat="42.67502" lon="1.40883">
        <ele>2935</ele>
        <time>2013-07-07T09:47:18Z</time>
      </trkpt>
      <trkpt lat="42.67502" lon="1.40882">
        <ele>2934</ele>
        <time>2013-07-07T09:47:30Z</time>
      </trkpt>
      <trkpt lat="42.67502" lon="1.40885">
        <ele>2933</ele>
        <time>2013-07-07T09:47:43Z</time>
      </trkpt>
      <trkpt lat="42.67501" lon="1.40885">
        <ele>2934</ele>
        <time>2013-07-07T09:47:54Z</time>
      </trkpt>
      <trkpt lat="42.675" lon="1.40887">
        <ele>2934</ele>
        <time>2013-07-07T09:48:04Z</time>
      </trkpt>
      <trkpt lat="42.67499" lon="1.4089">
        <ele>2933</ele>
        <time>2013-07-07T09:48:16Z</time>
      </trkpt>
      <trkpt lat="42.67499" lon="1.40892">
        <ele>2933</ele>
        <time>2013-07-07T09:48:26Z</time>
      </trkpt>
      <trkpt lat="42.67499" lon="1.40893">
        <ele>2933</ele>
        <time>2013-07-07T09:48:35Z</time>
      </trkpt>
      <trkpt lat="42.67501" lon="1.40894">
        <ele>2932</ele>
        <time>2013-07-07T09:48:45Z</time>
      </trkpt>
      <trkpt lat="42.67504" lon="1.40891">
        <ele>2931</ele>
        <time>2013-07-07T09:48:54Z</time>
      </trkpt>
      <trkpt lat="42.67506" lon="1.40892">
        <ele>2931</ele>
        <time>2013-07-07T09:49:01Z</time>
      </trkpt>
      <trkpt lat="42.67508" lon="1.40894">
        <ele>2930</ele>
        <time>2013-07-07T09:49:12Z</time>
      </trkpt>
      <trkpt lat="42.67502" lon="1.40894">
        <ele>2929</ele>
        <time>2013-07-07T09:49:24Z</time>
      </trkpt>
      <trkpt lat="42.67503" lon="1.40896">
        <ele>2929</ele>
        <time>2013-07-07T09:49:33Z</time>
      </trkpt>
      <trkpt lat="42.67506" lon="1.40892">
        <ele>2929</ele>
        <time>2013-07-07T09:49:40Z</time>
      </trkpt>
      <trkpt lat="42.67506" lon="1.40894">
        <ele>2928</ele>
        <time>2013-07-07T09:49:50Z</time>
      </trkpt>
      <trkpt lat="42.67506" lon="1.40894">
        <ele>2927</ele>
        <time>2013-07-07T09:50:02Z</time>
      </trkpt>
      <trkpt lat="42.67507" lon="1.40893">
        <ele>2927</ele>
        <time>2013-07-07T09:50:12Z</time>
      </trkpt>
      <trkpt lat="42.67504" lon="1.40891">
        <ele>2926</ele>
        <time>2013-07-07T09:50:22Z</time>
      </trkpt>
      <trkpt lat="42.67503" lon="1.4089">
        <ele>2927</ele>
        <time>2013-07-07T09:50:33Z</time>
      </trkpt>
      <trkpt lat="42.67505" lon="1.40889">
        <ele>2926</ele>
        <time>2013-07-07T09:50:46Z</time>
      </trkpt>
      <trkpt lat="42.67504" lon="1.4089">
        <ele>2925</ele>
        <time>2013-07-07T09:50:58Z</time>
      </trkpt>
      <trkpt lat="42.67503" lon="1.40888">
        <ele>2925</ele>
        <time>2013-07-07T09:51:10Z</time>
      </trkpt>
      <trkpt lat="42.67503" lon="1.40887">
        <ele>2925</ele>
        <time>2013-07-07T09:51:24Z</time>
      </trkpt>
      <trkpt lat="42.67503" lon="1.40888">
        <ele>2925</ele>
        <time>2013-07-07T09:51:43Z</time>
      </trkpt>
      <trkpt lat="42.67504" lon="1.40889">
        <ele>2925</ele>
        <time>2013-07-07T09:51:54Z</time>
      </trkpt>
      <trkpt lat="42.67505" lon="1.40889">
        <ele>2925</ele>
        <time>2013-07-07T09:52:07Z</time>
      </trkpt>
      <trkpt lat="42.67505" lon="1.40887">
        <ele>2925</ele>
        <time>2013-07-07T09:52:18Z</time>
      </trkpt>
      <trkpt lat="42.67507" lon="1.4089">
        <ele>2925</ele>
        <time>2013-07-07T09:52:30Z</time>
      </trkpt>
      <trkpt lat="42.67505" lon="1.40889">
        <ele>2924</ele>
        <time>2013-07-07T09:52:47Z</time>
      </trkpt>
      <trkpt lat="42.67503" lon="1.40888">
        <ele>2924</ele>
        <time>2013-07-07T09:52:57Z</time>
      </trkpt>
      <trkpt lat="42.67504" lon="1.4089">
        <ele>2925</ele>
        <time>2013-07-07T09:53:15Z</time>
      </trkpt>
      <trkpt lat="42.67504" lon="1.40888">
        <ele>2925</ele>
        <time>2013-07-07T09:53:29Z</time>
      </trkpt>
      <trkpt lat="42.67505" lon="1.4089">
        <ele>2924</ele>
        <time>2013-07-07T09:53:43Z</time>
      </trkpt>
      <trkpt lat="42.67505" lon="1.40888">
        <ele>2923</ele>
        <time>2013-07-07T09:53:57Z</time>
      </trkpt>
      <trkpt lat="42.67506" lon="1.40885">
        <ele>2923</ele>
        <time>2013-07-07T09:54:13Z</time>
      </trkpt>
      <trkpt lat="42.67509" lon="1.40886">
        <ele>2922</ele>
        <time>2013-07-07T09:54:25Z</time>
      </trkpt>
      <trkpt lat="42.67502" lon="1.40884">
        <ele>2922</ele>
        <time>2013-07-07T09:54:36Z</time>
      </trkpt>
      <trkpt lat="42.67502" lon="1.40884">
        <ele>2922</ele>
        <time>2013-07-07T09:54:47Z</time>
      </trkpt>
      <trkpt lat="42.67502" lon="1.40883">
        <ele>2922</ele>
        <time>2013-07-07T09:54:58Z</time>
      </trkpt>
      <trkpt lat="42.67504" lon="1.40885">
        <ele>2921</ele>
        <time>2013-07-07T09:55:11Z</time>
      </trkpt>
      <trkpt lat="42.67502" lon="1.40881">
        <ele>2921</ele>
        <time>2013-07-07T09:55:25Z</time>
      </trkpt>
      <trkpt lat="42.67502" lon="1.40879">
        <ele>2920</ele>
        <time>2013-07-07T09:55:40Z</time>
      </trkpt>
      <trkpt lat="42.67501" lon="1.4088">
        <ele>2920</ele>
        <time>2013-07-07T09:55:53Z</time>
      </trkpt>
      <trkpt lat="42.67506" lon="1.40886">
        <ele>2920</ele>
        <time>2013-07-07T09:56:05Z</time>
      </trkpt>
      <trkpt lat="42.67504" lon="1.40887">
        <ele>2919</ele>
        <time>2013-07-07T09:56:18Z</time>
      </trkpt>
      <trkpt lat="42.67505" lon="1.40885">
        <ele>2918</ele>
        <time>2013-07-07T09:56:31Z</time>
      </trkpt>
      <trkpt lat="42.67507" lon="1.40889">
        <ele>2917</ele>
        <time>2013-07-07T09:56:42Z</time>
      </trkpt>
      <trkpt lat="42.67507" lon="1.40892">
        <ele>2917</ele>
        <time>2013-07-07T09:56:53Z</time>
      </trkpt>
      <trkpt lat="42.67509" lon="1.40891">
        <ele>2917</ele>
        <time>2013-07-07T09:57:06Z</time>
      </trkpt>
      <trkpt lat="42.6751" lon="1.40891">
        <ele>2917</ele>
        <time>2013-07-07T09:57:16Z</time>
      </trkpt>
      <trkpt lat="42.67511" lon="1.40892">
        <ele>2917</ele>
        <time>2013-07-07T09:57:26Z</time>
      </trkpt>
      <trkpt lat="42.67511" lon="1.40891">
        <ele>2917</ele>
        <time>2013-07-07T09:57:37Z</time>
      </trkpt>
      <trkpt lat="42.67511" lon="1.40893">
        <ele>2916</ele>
        <time>2013-07-07T09:57:47Z</time>
      </trkpt>
      <trkpt lat="42.67513" lon="1.40891">
        <ele>2916</ele>
        <time>2013-07-07T09:57:54Z</time>
      </trkpt>
      <trkpt lat="42.67512" lon="1.40892">
        <ele>2916</ele>
        <time>2013-07-07T09:58:03Z</time>
      </trkpt>
      <trkpt lat="42.67511" lon="1.40895">
        <ele>2914</ele>
        <time>2013-07-07T09:58:14Z</time>
      </trkpt>
      <trkpt lat="42.6751" lon="1.40893">
        <ele>2915</ele>
        <time>2013-07-07T09:58:28Z</time>
      </trkpt>
      <trkpt lat="42.6751" lon="1.40897">
        <ele>2914</ele>
        <time>2013-07-07T09:58:36Z</time>
      </trkpt>
      <trkpt lat="42.67511" lon="1.409">
        <ele>2914</ele>
        <time>2013-07-07T09:58:42Z</time>
      </trkpt>
      <trkpt lat="42.67512" lon="1.40899">
        <ele>2913</ele>
        <time>2013-07-07T09:58:50Z</time>
      </trkpt>
      <trkpt lat="42.67514" lon="1.40901">
        <ele>2912</ele>
        <time>2013-07-07T09:59:03Z</time>
      </trkpt>
      <trkpt lat="42.67515" lon="1.40898">
        <ele>2912</ele>
        <time>2013-07-07T09:59:10Z</time>
      </trkpt>
      <trkpt lat="42.67514" lon="1.40895">
        <ele>2912</ele>
        <time>2013-07-07T09:59:20Z</time>
      </trkpt>
      <trkpt lat="42.67513" lon="1.40894">
        <ele>2912</ele>
        <time>2013-07-07T09:59:32Z</time>
      </trkpt>
      <trkpt lat="42.67513" lon="1.40897">
        <ele>2912</ele>
        <time>2013-07-07T09:59:43Z</time>
      </trkpt>
      <trkpt lat="42.67512" lon="1.40899">
        <ele>2912</ele>
        <time>2013-07-07T09:59:56Z</time>
      </trkpt>
      <trkpt lat="42.67513" lon="1.409">
        <ele>2912</ele>
        <time>2013-07-07T10:00:11Z</time>
      </trkpt>
      <trkpt lat="42.67513" lon="1.409">
        <ele>2911</ele>
        <time>2013-07-07T10:00:22Z</time>
      </trkpt>
      <trkpt lat="42.67513" lon="1.40899">
        <ele>2911</ele>
        <time>2013-07-07T10:00:33Z</time>
      </trkpt>
      <trkpt lat="42.67514" lon="1.409">
        <ele>2912</ele>
        <time>2013-07-07T10:00:54Z</time>
      </trkpt>
      <trkpt lat="42.67513" lon="1.40897">
        <ele>2911</ele>
        <time>2013-07-07T10:01:12Z</time>
      </trkpt>
      <trkpt lat="42.67513" lon="1.40896">
        <ele>2911</ele>
        <time>2013-07-07T10:01:20Z</time>
      </trkpt>
      <trkpt lat="42.67513" lon="1.40897">
        <ele>2911</ele>
        <time>2013-07-07T10:01:34Z</time>
      </trkpt>
      <trkpt lat="42.67512" lon="1.40896">
        <ele>2911</ele>
        <time>2013-07-07T10:01:49Z</time>
      </trkpt>
      <trkpt lat="42.67512" lon="1.40896">
        <ele>2911</ele>
        <time>2013-07-07T10:02:01Z</time>
      </trkpt>
      <trkpt lat="42.67515" lon="1.40896">
        <ele>2912</ele>
        <time>2013-07-07T10:02:14Z</time>
      </trkpt>
      <trkpt lat="42.67515" lon="1.40893">
        <ele>2912</ele>
        <time>2013-07-07T10:02:25Z</time>
      </trkpt>
      <trkpt lat="42.67514" lon="1.4089">
        <ele>2912</ele>
        <time>2013-07-07T10:02:44Z</time>
      </trkpt>
      <trkpt lat="42.67513" lon="1.40888">
        <ele>2911</ele>
        <time>2013-07-07T10:02:57Z</time>
      </trkpt>
      <trkpt lat="42.67511" lon="1.40889">
        <ele>2911</ele>
        <time>2013-07-07T10:03:06Z</time>
      </trkpt>
      <trkpt lat="42.67514" lon="1.40888">
        <ele>2912</ele>
        <time>2013-07-07T10:03:17Z</time>
      </trkpt>
      <trkpt lat="42.67509" lon="1.40893">
        <ele>2912</ele>
        <time>2013-07-07T10:03:27Z</time>
      </trkpt>
      <trkpt lat="42.67512" lon="1.40893">
        <ele>2912</ele>
        <time>2013-07-07T10:03:40Z</time>
      </trkpt>
      <trkpt lat="42.67514" lon="1.40891">
        <ele>2911</ele>
        <time>2013-07-07T10:04:00Z</time>
      </trkpt>
      <trkpt lat="42.67515" lon="1.40892">
        <ele>2911</ele>
        <time>2013-07-07T10:04:15Z</time>
      </trkpt>
      <trkpt lat="42.67513" lon="1.40891">
        <ele>2911</ele>
        <time>2013-07-07T10:04:32Z</time>
      </trkpt>
      <trkpt lat="42.67512" lon="1.40889">
        <ele>2911</ele>
        <time>2013-07-07T10:04:43Z</time>
      </trkpt>
      <trkpt lat="42.67511" lon="1.40887">
        <ele>2911</ele>
        <time>2013-07-07T10:04:59Z</time>
      </trkpt>
      <trkpt lat="42.67504" lon="1.40882">
        <ele>2911</ele>
        <time>2013-07-07T10:05:13Z</time>
      </trkpt>
      <trkpt lat="42.6751" lon="1.40877">
        <ele>2911</ele>
        <time>2013-07-07T10:05:25Z</time>
      </trkpt>
      <trkpt lat="42.6751" lon="1.40882">
        <ele>2911</ele>
        <time>2013-07-07T10:05:38Z</time>
      </trkpt>
      <trkpt lat="42.67511" lon="1.40884">
        <ele>2911</ele>
        <time>2013-07-07T10:05:49Z</time>
      </trkpt>
      <trkpt lat="42.67513" lon="1.40889">
        <ele>2911</ele>
        <time>2013-07-07T10:06:02Z</time>
      </trkpt>
      <trkpt lat="42.67514" lon="1.40892">
        <ele>2911</ele>
        <time>2013-07-07T10:06:16Z</time>
      </trkpt>
      <trkpt lat="42.67516" lon="1.40891">
        <ele>2912</ele>
        <time>2013-07-07T10:06:25Z</time>
      </trkpt>
      <trkpt lat="42.67513" lon="1.40899">
        <ele>2912</ele>
        <time>2013-07-07T10:06:37Z</time>
      </trkpt>
      <trkpt lat="42.67514" lon="1.40903">
        <ele>2911</ele>
        <time>2013-07-07T10:06:44Z</time>
      </trkpt>
      <trkpt lat="42.67514" lon="1.40905">
        <ele>2911</ele>
        <time>2013-07-07T10:06:51Z</time>
      </trkpt>
      <trkpt lat="42.67513" lon="1.40908">
        <ele>2910</ele>
        <time>2013-07-07T10:06:58Z</time>
      </trkpt>
      <trkpt lat="42.67513" lon="1.40907">
        <ele>2909</ele>
        <time>2013-07-07T10:07:08Z</time>
      </trkpt>
      <trkpt lat="42.67517" lon="1.40906">
        <ele>2909</ele>
        <time>2013-07-07T10:07:15Z</time>
      </trkpt>
      <trkpt lat="42.67515" lon="1.40907">
        <ele>2908</ele>
        <time>2013-07-07T10:07:22Z</time>
      </trkpt>
      <trkpt lat="42.67514" lon="1.4091">
        <ele>2908</ele>
        <time>2013-07-07T10:07:29Z</time>
      </trkpt>
      <trkpt lat="42.67514" lon="1.4091">
        <ele>2907</ele>
        <time>2013-07-07T10:07:37Z</time>
      </trkpt>
      <trkpt lat="42.67514" lon="1.40915">
        <ele>2906</ele>
        <time>2013-07-07T10:07:45Z</time>
      </trkpt>
      <trkpt lat="42.67515" lon="1.40916">
        <ele>2906</ele>
        <time>2013-07-07T10:07:56Z</time>
      </trkpt>
      <trkpt lat="42.67516" lon="1.40916">
        <ele>2905</ele>
        <time>2013-07-07T10:08:03Z</time>
      </trkpt>
      <trkpt lat="42.67516" lon="1.40919">
        <ele>2904</ele>
        <time>2013-07-07T10:08:11Z</time>
      </trkpt>
      <trkpt lat="42.67516" lon="1.40922">
        <ele>2904</ele>
        <time>2013-07-07T10:08:17Z</time>
      </trkpt>
      <trkpt lat="42.67516" lon="1.40923">
        <ele>2903</ele>
        <time>2013-07-07T10:08:26Z</time>
      </trkpt>
      <trkpt lat="42.67519" lon="1.40921">
        <ele>2902</ele>
        <time>2013-07-07T10:08:33Z</time>
      </trkpt>
      <trkpt lat="42.67521" lon="1.4092">
        <ele>2901</ele>
        <time>2013-07-07T10:08:42Z</time>
      </trkpt>
      <trkpt lat="42.67521" lon="1.40919">
        <ele>2899</ele>
        <time>2013-07-07T10:08:50Z</time>
      </trkpt>
      <trkpt lat="42.67523" lon="1.40919">
        <ele>2898</ele>
        <time>2013-07-07T10:08:58Z</time>
      </trkpt>
      <trkpt lat="42.67524" lon="1.40918">
        <ele>2898</ele>
        <time>2013-07-07T10:09:05Z</time>
      </trkpt>
      <trkpt lat="42.67525" lon="1.40919">
        <ele>2897</ele>
        <time>2013-07-07T10:09:14Z</time>
      </trkpt>
      <trkpt lat="42.67526" lon="1.40918">
        <ele>2896</ele>
        <time>2013-07-07T10:09:23Z</time>
      </trkpt>
      <trkpt lat="42.67527" lon="1.40916">
        <ele>2897</ele>
        <time>2013-07-07T10:09:30Z</time>
      </trkpt>
      <trkpt lat="42.67528" lon="1.40915">
        <ele>2895</ele>
        <time>2013-07-07T10:09:38Z</time>
      </trkpt>
      <trkpt lat="42.67523" lon="1.40919">
        <ele>2895</ele>
        <time>2013-07-07T10:09:48Z</time>
      </trkpt>
      <trkpt lat="42.67524" lon="1.40919">
        <ele>2894</ele>
        <time>2013-07-07T10:09:57Z</time>
      </trkpt>
      <trkpt lat="42.67525" lon="1.40921">
        <ele>2893</ele>
        <time>2013-07-07T10:10:05Z</time>
      </trkpt>
      <trkpt lat="42.67525" lon="1.40924">
        <ele>2893</ele>
        <time>2013-07-07T10:10:12Z</time>
      </trkpt>
      <trkpt lat="42.67529" lon="1.40925">
        <ele>2891</ele>
        <time>2013-07-07T10:10:34Z</time>
      </trkpt>
      <trkpt lat="42.67532" lon="1.40922">
        <ele>2889</ele>
        <time>2013-07-07T10:10:43Z</time>
      </trkpt>
      <trkpt lat="42.67534" lon="1.40923">
        <ele>2888</ele>
        <time>2013-07-07T10:10:51Z</time>
      </trkpt>
      <trkpt lat="42.67536" lon="1.40922">
        <ele>2886</ele>
        <time>2013-07-07T10:10:59Z</time>
      </trkpt>
      <trkpt lat="42.67536" lon="1.40923">
        <ele>2885</ele>
        <time>2013-07-07T10:11:11Z</time>
      </trkpt>
      <trkpt lat="42.67538" lon="1.40922">
        <ele>2885</ele>
        <time>2013-07-07T10:11:21Z</time>
      </trkpt>
      <trkpt lat="42.67535" lon="1.4092">
        <ele>2883</ele>
        <time>2013-07-07T10:11:25Z</time>
      </trkpt>
      <trkpt lat="42.67535" lon="1.40921">
        <ele>2887</ele>
        <time>2013-07-07T10:11:27Z</time>
      </trkpt>
      <trkpt lat="42.67536" lon="1.40921">
        <ele>2884</ele>
        <time>2013-07-07T10:11:36Z</time>
      </trkpt>
      <trkpt lat="42.67535" lon="1.40924">
        <ele>2884</ele>
        <time>2013-07-07T10:11:44Z</time>
      </trkpt>
      <trkpt lat="42.67536" lon="1.40925">
        <ele>2884</ele>
        <time>2013-07-07T10:11:52Z</time>
      </trkpt>
      <trkpt lat="42.67534" lon="1.40928">
        <ele>2884</ele>
        <time>2013-07-07T10:12:05Z</time>
      </trkpt>
      <trkpt lat="42.67537" lon="1.40931">
        <ele>2883</ele>
        <time>2013-07-07T10:12:12Z</time>
      </trkpt>
      <trkpt lat="42.67538" lon="1.40929">
        <ele>2884</ele>
        <time>2013-07-07T10:12:22Z</time>
      </trkpt>
      <trkpt lat="42.67541" lon="1.40925">
        <ele>2882</ele>
        <time>2013-07-07T10:12:33Z</time>
      </trkpt>
      <trkpt lat="42.67536" lon="1.40926">
        <ele>2882</ele>
        <time>2013-07-07T10:12:45Z</time>
      </trkpt>
      <trkpt lat="42.67539" lon="1.40928">
        <ele>2881</ele>
        <time>2013-07-07T10:12:54Z</time>
      </trkpt>
      <trkpt lat="42.67539" lon="1.40929">
        <ele>2880</ele>
        <time>2013-07-07T10:13:06Z</time>
      </trkpt>
      <trkpt lat="42.67542" lon="1.40929">
        <ele>2879</ele>
        <time>2013-07-07T10:13:15Z</time>
      </trkpt>
      <trkpt lat="42.67543" lon="1.40929">
        <ele>2877</ele>
        <time>2013-07-07T10:13:24Z</time>
      </trkpt>
      <trkpt lat="42.67544" lon="1.40929">
        <ele>2876</ele>
        <time>2013-07-07T10:13:31Z</time>
      </trkpt>
      <trkpt lat="42.67544" lon="1.40929">
        <ele>2875</ele>
        <time>2013-07-07T10:13:42Z</time>
      </trkpt>
      <trkpt lat="42.67546" lon="1.40929">
        <ele>2874</ele>
        <time>2013-07-07T10:13:50Z</time>
      </trkpt>
      <trkpt lat="42.67545" lon="1.40932">
        <ele>2873</ele>
        <time>2013-07-07T10:13:59Z</time>
      </trkpt>
      <trkpt lat="42.67546" lon="1.40935">
        <ele>2872</ele>
        <time>2013-07-07T10:14:06Z</time>
      </trkpt>
      <trkpt lat="42.67545" lon="1.40943">
        <ele>2870</ele>
        <time>2013-07-07T10:14:14Z</time>
      </trkpt>
      <trkpt lat="42.67547" lon="1.40947">
        <ele>2868</ele>
        <time>2013-07-07T10:14:29Z</time>
      </trkpt>
      <trkpt lat="42.67549" lon="1.40951">
        <ele>2868</ele>
        <time>2013-07-07T10:14:37Z</time>
      </trkpt>
      <trkpt lat="42.6755" lon="1.4095">
        <ele>2868</ele>
        <time>2013-07-07T10:14:48Z</time>
      </trkpt>
      <trkpt lat="42.67548" lon="1.40951">
        <ele>2867</ele>
        <time>2013-07-07T10:14:58Z</time>
      </trkpt>
      <trkpt lat="42.67551" lon="1.40949">
        <ele>2866</ele>
        <time>2013-07-07T10:15:14Z</time>
      </trkpt>
      <trkpt lat="42.67552" lon="1.40951">
        <ele>2865</ele>
        <time>2013-07-07T10:15:25Z</time>
      </trkpt>
      <trkpt lat="42.67546" lon="1.40961">
        <ele>2858</ele>
        <time>2013-07-07T10:19:46Z</time>
      </trkpt>
      <trkpt lat="42.67546" lon="1.40963">
        <ele>2857</ele>
        <time>2013-07-07T10:19:56Z</time>
      </trkpt>
      <trkpt lat="42.67545" lon="1.40964">
        <ele>2856</ele>
        <time>2013-07-07T10:20:09Z</time>
      </trkpt>
      <trkpt lat="42.67546" lon="1.40967">
        <ele>2856</ele>
        <time>2013-07-07T10:20:28Z</time>
      </trkpt>
      <trkpt lat="42.67546" lon="1.40968">
        <ele>2855</ele>
        <time>2013-07-07T10:20:38Z</time>
      </trkpt>
      <trkpt lat="42.67547" lon="1.4097">
        <ele>2855</ele>
        <time>2013-07-07T10:20:49Z</time>
      </trkpt>
      <trkpt lat="42.67545" lon="1.40975">
        <ele>2856</ele>
        <time>2013-07-07T10:20:58Z</time>
      </trkpt>
      <trkpt lat="42.67542" lon="1.40982">
        <ele>2855</ele>
        <time>2013-07-07T10:21:06Z</time>
      </trkpt>
      <trkpt lat="42.67541" lon="1.40982">
        <ele>2854</ele>
        <time>2013-07-07T10:21:15Z</time>
      </trkpt>
      <trkpt lat="42.6754" lon="1.40989">
        <ele>2852</ele>
        <time>2013-07-07T10:21:22Z</time>
      </trkpt>
      <trkpt lat="42.6754" lon="1.4099">
        <ele>2852</ele>
        <time>2013-07-07T10:21:23Z</time>
      </trkpt>
      <trkpt lat="42.67541" lon="1.40999">
        <ele>2850</ele>
        <time>2013-07-07T10:21:34Z</time>
      </trkpt>
      <trkpt lat="42.67544" lon="1.40997">
        <ele>2850</ele>
        <time>2013-07-07T10:21:42Z</time>
      </trkpt>
      <trkpt lat="42.67543" lon="1.41002">
        <ele>2849</ele>
        <time>2013-07-07T10:21:48Z</time>
      </trkpt>
      <trkpt lat="42.67544" lon="1.41004">
        <ele>2848</ele>
        <time>2013-07-07T10:21:55Z</time>
      </trkpt>
      <trkpt lat="42.67547" lon="1.41006">
        <ele>2847</ele>
        <time>2013-07-07T10:22:03Z</time>
      </trkpt>
      <trkpt lat="42.67547" lon="1.41009">
        <ele>2845</ele>
        <time>2013-07-07T10:22:17Z</time>
      </trkpt>
      <trkpt lat="42.67548" lon="1.41004">
        <ele>2845</ele>
        <time>2013-07-07T10:22:24Z</time>
      </trkpt>
      <trkpt lat="42.6755" lon="1.41001">
        <ele>2844</ele>
        <time>2013-07-07T10:22:34Z</time>
      </trkpt>
      <trkpt lat="42.67549" lon="1.41004">
        <ele>2843</ele>
        <time>2013-07-07T10:22:44Z</time>
      </trkpt>
      <trkpt lat="42.67549" lon="1.41006">
        <ele>2843</ele>
        <time>2013-07-07T10:22:51Z</time>
      </trkpt>
      <trkpt lat="42.6755" lon="1.41005">
        <ele>2842</ele>
        <time>2013-07-07T10:22:59Z</time>
      </trkpt>
      <trkpt lat="42.67553" lon="1.41005">
        <ele>2841</ele>
        <time>2013-07-07T10:23:09Z</time>
      </trkpt>
      <trkpt lat="42.67553" lon="1.41006">
        <ele>2841</ele>
        <time>2013-07-07T10:23:17Z</time>
      </trkpt>
      <trkpt lat="42.67555" lon="1.41002">
        <ele>2839</ele>
        <time>2013-07-07T10:23:25Z</time>
      </trkpt>
      <trkpt lat="42.67557" lon="1.41002">
        <ele>2839</ele>
        <time>2013-07-07T10:23:32Z</time>
      </trkpt>
      <trkpt lat="42.6756" lon="1.41002">
        <ele>2837</ele>
        <time>2013-07-07T10:23:40Z</time>
      </trkpt>
      <trkpt lat="42.67561" lon="1.41002">
        <ele>2837</ele>
        <time>2013-07-07T10:23:48Z</time>
      </trkpt>
      <trkpt lat="42.67559" lon="1.41002">
        <ele>2836</ele>
        <time>2013-07-07T10:23:57Z</time>
      </trkpt>
      <trkpt lat="42.6756" lon="1.41004">
        <ele>2836</ele>
        <time>2013-07-07T10:24:06Z</time>
      </trkpt>
      <trkpt lat="42.6756" lon="1.41007">
        <ele>2836</ele>
        <time>2013-07-07T10:24:15Z</time>
      </trkpt>
      <trkpt lat="42.67557" lon="1.41009">
        <ele>2836</ele>
        <time>2013-07-07T10:24:25Z</time>
      </trkpt>
      <trkpt lat="42.67557" lon="1.41008">
        <ele>2836</ele>
        <time>2013-07-07T10:24:37Z</time>
      </trkpt>
      <trkpt lat="42.67558" lon="1.4101">
        <ele>2835</ele>
        <time>2013-07-07T10:24:48Z</time>
      </trkpt>
      <trkpt lat="42.67557" lon="1.41014">
        <ele>2834</ele>
        <time>2013-07-07T10:25:01Z</time>
      </trkpt>
      <trkpt lat="42.67556" lon="1.41017">
        <ele>2833</ele>
        <time>2013-07-07T10:25:10Z</time>
      </trkpt>
      <trkpt lat="42.67556" lon="1.41021">
        <ele>2833</ele>
        <time>2013-07-07T10:25:21Z</time>
      </trkpt>
      <trkpt lat="42.67557" lon="1.41023">
        <ele>2832</ele>
        <time>2013-07-07T10:25:32Z</time>
      </trkpt>
      <trkpt lat="42.67558" lon="1.41022">
        <ele>2832</ele>
        <time>2013-07-07T10:25:45Z</time>
      </trkpt>
      <trkpt lat="42.6756" lon="1.41023">
        <ele>2831</ele>
        <time>2013-07-07T10:25:54Z</time>
      </trkpt>
      <trkpt lat="42.67561" lon="1.41022">
        <ele>2830</ele>
        <time>2013-07-07T10:26:04Z</time>
      </trkpt>
      <trkpt lat="42.67561" lon="1.4102">
        <ele>2829</ele>
        <time>2013-07-07T10:26:16Z</time>
      </trkpt>
      <trkpt lat="42.67561" lon="1.41016">
        <ele>2829</ele>
        <time>2013-07-07T10:26:25Z</time>
      </trkpt>
      <trkpt lat="42.67562" lon="1.41013">
        <ele>2829</ele>
        <time>2013-07-07T10:26:32Z</time>
      </trkpt>
      <trkpt lat="42.67563" lon="1.41011">
        <ele>2829</ele>
        <time>2013-07-07T10:26:41Z</time>
      </trkpt>
      <trkpt lat="42.67563" lon="1.41012">
        <ele>2828</ele>
        <time>2013-07-07T10:26:52Z</time>
      </trkpt>
      <trkpt lat="42.67564" lon="1.41011">
        <ele>2827</ele>
        <time>2013-07-07T10:27:00Z</time>
      </trkpt>
      <trkpt lat="42.67565" lon="1.41013">
        <ele>2826</ele>
        <time>2013-07-07T10:27:09Z</time>
      </trkpt>
      <trkpt lat="42.67565" lon="1.41011">
        <ele>2825</ele>
        <time>2013-07-07T10:27:17Z</time>
      </trkpt>
      <trkpt lat="42.67565" lon="1.41012">
        <ele>2824</ele>
        <time>2013-07-07T10:27:27Z</time>
      </trkpt>
      <trkpt lat="42.67564" lon="1.41015">
        <ele>2824</ele>
        <time>2013-07-07T10:27:35Z</time>
      </trkpt>
      <trkpt lat="42.67567" lon="1.41017">
        <ele>2823</ele>
        <time>2013-07-07T10:27:42Z</time>
      </trkpt>
      <trkpt lat="42.67567" lon="1.41016">
        <ele>2822</ele>
        <time>2013-07-07T10:27:51Z</time>
      </trkpt>
      <trkpt lat="42.67567" lon="1.41019">
        <ele>2822</ele>
        <time>2013-07-07T10:28:01Z</time>
      </trkpt>
      <trkpt lat="42.67569" lon="1.41021">
        <ele>2823</ele>
        <time>2013-07-07T10:28:13Z</time>
      </trkpt>
      <trkpt lat="42.67569" lon="1.41018">
        <ele>2822</ele>
        <time>2013-07-07T10:28:23Z</time>
      </trkpt>
      <trkpt lat="42.67569" lon="1.4102">
        <ele>2821</ele>
        <time>2013-07-07T10:28:32Z</time>
      </trkpt>
      <trkpt lat="42.67567" lon="1.41022">
        <ele>2820</ele>
        <time>2013-07-07T10:28:45Z</time>
      </trkpt>
      <trkpt lat="42.67569" lon="1.41024">
        <ele>2820</ele>
        <time>2013-07-07T10:28:58Z</time>
      </trkpt>
      <trkpt lat="42.6757" lon="1.41023">
        <ele>2820</ele>
        <time>2013-07-07T10:29:08Z</time>
      </trkpt>
      <trkpt lat="42.67571" lon="1.41023">
        <ele>2819</ele>
        <time>2013-07-07T10:29:20Z</time>
      </trkpt>
      <trkpt lat="42.6757" lon="1.41022">
        <ele>2819</ele>
        <time>2013-07-07T10:29:33Z</time>
      </trkpt>
      <trkpt lat="42.6757" lon="1.41021">
        <ele>2819</ele>
        <time>2013-07-07T10:29:44Z</time>
      </trkpt>
      <trkpt lat="42.6757" lon="1.4102">
        <ele>2819</ele>
        <time>2013-07-07T10:29:56Z</time>
      </trkpt>
      <trkpt lat="42.67571" lon="1.41018">
        <ele>2819</ele>
        <time>2013-07-07T10:30:09Z</time>
      </trkpt>
      <trkpt lat="42.67572" lon="1.41017">
        <ele>2818</ele>
        <time>2013-07-07T10:30:23Z</time>
      </trkpt>
      <trkpt lat="42.67574" lon="1.41021">
        <ele>2818</ele>
        <time>2013-07-07T10:30:33Z</time>
      </trkpt>
      <trkpt lat="42.67575" lon="1.41023">
        <ele>2816</ele>
        <time>2013-07-07T10:30:44Z</time>
      </trkpt>
      <trkpt lat="42.67576" lon="1.41024">
        <ele>2814</ele>
        <time>2013-07-07T10:30:52Z</time>
      </trkpt>
      <trkpt lat="42.67577" lon="1.41026">
        <ele>2813</ele>
        <time>2013-07-07T10:31:00Z</time>
      </trkpt>
      <trkpt lat="42.67579" lon="1.41027">
        <ele>2811</ele>
        <time>2013-07-07T10:31:11Z</time>
      </trkpt>
      <trkpt lat="42.6758" lon="1.41027">
        <ele>2811</ele>
        <time>2013-07-07T10:31:20Z</time>
      </trkpt>
      <trkpt lat="42.67579" lon="1.41024">
        <ele>2810</ele>
        <time>2013-07-07T10:31:28Z</time>
      </trkpt>
      <trkpt lat="42.67579" lon="1.41025">
        <ele>2810</ele>
        <time>2013-07-07T10:31:37Z</time>
      </trkpt>
      <trkpt lat="42.67579" lon="1.41029">
        <ele>2809</ele>
        <time>2013-07-07T10:31:47Z</time>
      </trkpt>
      <trkpt lat="42.67579" lon="1.4103">
        <ele>2808</ele>
        <time>2013-07-07T10:31:56Z</time>
      </trkpt>
      <trkpt lat="42.6758" lon="1.41032">
        <ele>2807</ele>
        <time>2013-07-07T10:32:06Z</time>
      </trkpt>
      <trkpt lat="42.67581" lon="1.41032">
        <ele>2806</ele>
        <time>2013-07-07T10:32:14Z</time>
      </trkpt>
      <trkpt lat="42.67584" lon="1.41035">
        <ele>2804</ele>
        <time>2013-07-07T10:32:22Z</time>
      </trkpt>
      <trkpt lat="42.67587" lon="1.41033">
        <ele>2803</ele>
        <time>2013-07-07T10:32:32Z</time>
      </trkpt>
      <trkpt lat="42.67593" lon="1.41035">
        <ele>2802</ele>
        <time>2013-07-07T10:32:48Z</time>
      </trkpt>
      <trkpt lat="42.67594" lon="1.41041">
        <ele>2801</ele>
        <time>2013-07-07T10:32:55Z</time>
      </trkpt>
      <trkpt lat="42.67596" lon="1.4104">
        <ele>2799</ele>
        <time>2013-07-07T10:33:03Z</time>
      </trkpt>
      <trkpt lat="42.67597" lon="1.41029">
        <ele>2799</ele>
        <time>2013-07-07T10:33:15Z</time>
      </trkpt>
      <trkpt lat="42.67594" lon="1.41023">
        <ele>2801</ele>
        <time>2013-07-07T10:33:22Z</time>
      </trkpt>
      <trkpt lat="42.67591" lon="1.41026">
        <ele>2799</ele>
        <time>2013-07-07T10:34:11Z</time>
      </trkpt>
      <trkpt lat="42.67592" lon="1.4103">
        <ele>2799</ele>
        <time>2013-07-07T10:34:20Z</time>
      </trkpt>
      <trkpt lat="42.67595" lon="1.41035">
        <ele>2798</ele>
        <time>2013-07-07T10:34:29Z</time>
      </trkpt>
      <trkpt lat="42.67594" lon="1.41038">
        <ele>2798</ele>
        <time>2013-07-07T10:34:40Z</time>
      </trkpt>
      <trkpt lat="42.67595" lon="1.41039">
        <ele>2797</ele>
        <time>2013-07-07T10:34:51Z</time>
      </trkpt>
      <trkpt lat="42.67596" lon="1.41039">
        <ele>2796</ele>
        <time>2013-07-07T10:35:05Z</time>
      </trkpt>
      <trkpt lat="42.67599" lon="1.4104">
        <ele>2795</ele>
        <time>2013-07-07T10:35:12Z</time>
      </trkpt>
      <trkpt lat="42.67598" lon="1.41042">
        <ele>2795</ele>
        <time>2013-07-07T10:35:22Z</time>
      </trkpt>
      <trkpt lat="42.676" lon="1.41045">
        <ele>2794</ele>
        <time>2013-07-07T10:35:32Z</time>
      </trkpt>
      <trkpt lat="42.67604" lon="1.41043">
        <ele>2792</ele>
        <time>2013-07-07T10:35:43Z</time>
      </trkpt>
      <trkpt lat="42.67604" lon="1.4104">
        <ele>2792</ele>
        <time>2013-07-07T10:35:52Z</time>
      </trkpt>
      <trkpt lat="42.67606" lon="1.41035">
        <ele>2791</ele>
        <time>2013-07-07T10:36:04Z</time>
      </trkpt>
      <trkpt lat="42.67609" lon="1.41034">
        <ele>2789</ele>
        <time>2013-07-07T10:36:12Z</time>
      </trkpt>
      <trkpt lat="42.67614" lon="1.41032">
        <ele>2789</ele>
        <time>2013-07-07T10:36:19Z</time>
      </trkpt>
      <trkpt lat="42.67613" lon="1.41033">
        <ele>2788</ele>
        <time>2013-07-07T10:36:27Z</time>
      </trkpt>
      <trkpt lat="42.67612" lon="1.41033">
        <ele>2789</ele>
        <time>2013-07-07T10:36:37Z</time>
      </trkpt>
      <trkpt lat="42.67613" lon="1.41033">
        <ele>2788</ele>
        <time>2013-07-07T10:36:46Z</time>
      </trkpt>
      <trkpt lat="42.67616" lon="1.41033">
        <ele>2787</ele>
        <time>2013-07-07T10:36:56Z</time>
      </trkpt>
      <trkpt lat="42.67617" lon="1.41033">
        <ele>2785</ele>
        <time>2013-07-07T10:37:04Z</time>
      </trkpt>
      <trkpt lat="42.67622" lon="1.41031">
        <ele>2784</ele>
        <time>2013-07-07T10:37:12Z</time>
      </trkpt>
      <trkpt lat="42.67624" lon="1.41031">
        <ele>2784</ele>
        <time>2013-07-07T10:37:19Z</time>
      </trkpt>
      <trkpt lat="42.67626" lon="1.41032">
        <ele>2782</ele>
        <time>2013-07-07T10:37:24Z</time>
      </trkpt>
      <trkpt lat="42.67627" lon="1.41035">
        <ele>2781</ele>
        <time>2013-07-07T10:37:34Z</time>
      </trkpt>
      <trkpt lat="42.67629" lon="1.41039">
        <ele>2779</ele>
        <time>2013-07-07T10:37:45Z</time>
      </trkpt>
      <trkpt lat="42.67632" lon="1.4104">
        <ele>2778</ele>
        <time>2013-07-07T10:37:57Z</time>
      </trkpt>
      <trkpt lat="42.67635" lon="1.41042">
        <ele>2776</ele>
        <time>2013-07-07T10:38:06Z</time>
      </trkpt>
      <trkpt lat="42.67638" lon="1.41044">
        <ele>2774</ele>
        <time>2013-07-07T10:38:15Z</time>
      </trkpt>
      <trkpt lat="42.67638" lon="1.41048">
        <ele>2774</ele>
        <time>2013-07-07T10:38:23Z</time>
      </trkpt>
      <trkpt lat="42.67643" lon="1.41048">
        <ele>2773</ele>
        <time>2013-07-07T10:38:33Z</time>
      </trkpt>
      <trkpt lat="42.67644" lon="1.41049">
        <ele>2771</ele>
        <time>2013-07-07T10:38:45Z</time>
      </trkpt>
      <trkpt lat="42.67645" lon="1.41051">
        <ele>2770</ele>
        <time>2013-07-07T10:38:57Z</time>
      </trkpt>
      <trkpt lat="42.67647" lon="1.4105">
        <ele>2768</ele>
        <time>2013-07-07T10:39:08Z</time>
      </trkpt>
      <trkpt lat="42.67645" lon="1.41041">
        <ele>2768</ele>
        <time>2013-07-07T10:39:16Z</time>
      </trkpt>
      <trkpt lat="42.67644" lon="1.41043">
        <ele>2768</ele>
        <time>2013-07-07T10:39:22Z</time>
      </trkpt>
      <trkpt lat="42.67643" lon="1.41043">
        <ele>2769</ele>
        <time>2013-07-07T10:39:34Z</time>
      </trkpt>
      <trkpt lat="42.67643" lon="1.41047">
        <ele>2768</ele>
        <time>2013-07-07T10:39:44Z</time>
      </trkpt>
      <trkpt lat="42.67643" lon="1.41048">
        <ele>2767</ele>
        <time>2013-07-07T10:39:51Z</time>
      </trkpt>
      <trkpt lat="42.67644" lon="1.41048">
        <ele>2768</ele>
        <time>2013-07-07T10:40:02Z</time>
      </trkpt>
      <trkpt lat="42.67645" lon="1.41049">
        <ele>2768</ele>
        <time>2013-07-07T10:40:11Z</time>
      </trkpt>
      <trkpt lat="42.67643" lon="1.41052">
        <ele>2767</ele>
        <time>2013-07-07T10:40:19Z</time>
      </trkpt>
      <trkpt lat="42.67644" lon="1.41055">
        <ele>2767</ele>
        <time>2013-07-07T10:40:29Z</time>
      </trkpt>
      <trkpt lat="42.67646" lon="1.41057">
        <ele>2765</ele>
        <time>2013-07-07T10:40:37Z</time>
      </trkpt>
      <trkpt lat="42.67648" lon="1.41059">
        <ele>2763</ele>
        <time>2013-07-07T10:40:46Z</time>
      </trkpt>
      <trkpt lat="42.67648" lon="1.41061">
        <ele>2763</ele>
        <time>2013-07-07T10:40:56Z</time>
      </trkpt>
      <trkpt lat="42.67651" lon="1.41056">
        <ele>2763</ele>
        <time>2013-07-07T10:41:05Z</time>
      </trkpt>
      <trkpt lat="42.67657" lon="1.41061">
        <ele>2762</ele>
        <time>2013-07-07T10:41:37Z</time>
      </trkpt>
      <trkpt lat="42.67657" lon="1.41067">
        <ele>2761</ele>
        <time>2013-07-07T10:41:45Z</time>
      </trkpt>
      <trkpt lat="42.67652" lon="1.41072">
        <ele>2759</ele>
        <time>2013-07-07T10:41:55Z</time>
      </trkpt>
      <trkpt lat="42.67654" lon="1.41072">
        <ele>2758</ele>
        <time>2013-07-07T10:42:03Z</time>
      </trkpt>
      <trkpt lat="42.67656" lon="1.41072">
        <ele>2757</ele>
        <time>2013-07-07T10:42:13Z</time>
      </trkpt>
      <trkpt lat="42.67655" lon="1.41072">
        <ele>2758</ele>
        <time>2013-07-07T10:42:28Z</time>
      </trkpt>
      <trkpt lat="42.67657" lon="1.41078">
        <ele>2758</ele>
        <time>2013-07-07T10:42:37Z</time>
      </trkpt>
      <trkpt lat="42.67657" lon="1.41085">
        <ele>2758</ele>
        <time>2013-07-07T10:42:45Z</time>
      </trkpt>
      <trkpt lat="42.67656" lon="1.41083">
        <ele>2758</ele>
        <time>2013-07-07T10:42:51Z</time>
      </trkpt>
      <trkpt lat="42.67656" lon="1.41079">
        <ele>2757</ele>
        <time>2013-07-07T10:43:00Z</time>
      </trkpt>
      <trkpt lat="42.67657" lon="1.41083">
        <ele>2757</ele>
        <time>2013-07-07T10:43:08Z</time>
      </trkpt>
      <trkpt lat="42.67658" lon="1.41084">
        <ele>2757</ele>
        <time>2013-07-07T10:43:17Z</time>
      </trkpt>
      <trkpt lat="42.6766" lon="1.41084">
        <ele>2757</ele>
        <time>2013-07-07T10:43:24Z</time>
      </trkpt>
      <trkpt lat="42.6766" lon="1.41084">
        <ele>2757</ele>
        <time>2013-07-07T10:43:32Z</time>
      </trkpt>
      <trkpt lat="42.67663" lon="1.41084">
        <ele>2756</ele>
        <time>2013-07-07T10:43:41Z</time>
      </trkpt>
      <trkpt lat="42.6766" lon="1.41092">
        <ele>2752</ele>
        <time>2013-07-07T10:44:10Z</time>
      </trkpt>
      <trkpt lat="42.67663" lon="1.41099">
        <ele>2751</ele>
        <time>2013-07-07T10:44:17Z</time>
      </trkpt>
      <trkpt lat="42.67664" lon="1.41101">
        <ele>2750</ele>
        <time>2013-07-07T10:44:22Z</time>
      </trkpt>
      <trkpt lat="42.67661" lon="1.41109">
        <ele>2749</ele>
        <time>2013-07-07T10:44:28Z</time>
      </trkpt>
      <trkpt lat="42.6766" lon="1.41118">
        <ele>2748</ele>
        <time>2013-07-07T10:44:35Z</time>
      </trkpt>
      <trkpt lat="42.67659" lon="1.41122">
        <ele>2747</ele>
        <time>2013-07-07T10:44:42Z</time>
      </trkpt>
      <trkpt lat="42.67661" lon="1.41125">
        <ele>2745</ele>
        <time>2013-07-07T10:44:49Z</time>
      </trkpt>
      <trkpt lat="42.67659" lon="1.41129">
        <ele>2745</ele>
        <time>2013-07-07T10:44:55Z</time>
      </trkpt>
      <trkpt lat="42.67657" lon="1.4113">
        <ele>2745</ele>
        <time>2013-07-07T10:45:05Z</time>
      </trkpt>
      <trkpt lat="42.67655" lon="1.41129">
        <ele>2744</ele>
        <time>2013-07-07T10:45:12Z</time>
      </trkpt>
      <trkpt lat="42.67656" lon="1.4113">
        <ele>2746</ele>
        <time>2013-07-07T10:45:14Z</time>
      </trkpt>
      <trkpt lat="42.67658" lon="1.41132">
        <ele>2744</ele>
        <time>2013-07-07T10:45:27Z</time>
      </trkpt>
      <trkpt lat="42.67657" lon="1.41131">
        <ele>2745</ele>
        <time>2013-07-07T10:45:34Z</time>
      </trkpt>
      <trkpt lat="42.67655" lon="1.41133">
        <ele>2744</ele>
        <time>2013-07-07T10:45:38Z</time>
      </trkpt>
      <trkpt lat="42.67652" lon="1.41138">
        <ele>2744</ele>
        <time>2013-07-07T10:45:48Z</time>
      </trkpt>
      <trkpt lat="42.67653" lon="1.41141">
        <ele>2744</ele>
        <time>2013-07-07T10:46:00Z</time>
      </trkpt>
      <trkpt lat="42.67654" lon="1.41141">
        <ele>2744</ele>
        <time>2013-07-07T10:46:06Z</time>
      </trkpt>
      <trkpt lat="42.67655" lon="1.41141">
        <ele>2743</ele>
        <time>2013-07-07T10:46:13Z</time>
      </trkpt>
      <trkpt lat="42.67654" lon="1.41139">
        <ele>2743</ele>
        <time>2013-07-07T10:46:27Z</time>
      </trkpt>
      <trkpt lat="42.67655" lon="1.41141">
        <ele>2742</ele>
        <time>2013-07-07T10:46:33Z</time>
      </trkpt>
      <trkpt lat="42.67654" lon="1.41139">
        <ele>2742</ele>
        <time>2013-07-07T10:46:43Z</time>
      </trkpt>
      <trkpt lat="42.67653" lon="1.41137">
        <ele>2742</ele>
        <time>2013-07-07T10:46:56Z</time>
      </trkpt>
      <trkpt lat="42.67652" lon="1.41136">
        <ele>2742</ele>
        <time>2013-07-07T10:47:14Z</time>
      </trkpt>
      <trkpt lat="42.67651" lon="1.41137">
        <ele>2742</ele>
        <time>2013-07-07T10:47:26Z</time>
      </trkpt>
      <trkpt lat="42.67652" lon="1.41136">
        <ele>2741</ele>
        <time>2013-07-07T10:47:36Z</time>
      </trkpt>
      <trkpt lat="42.67655" lon="1.41136">
        <ele>2741</ele>
        <time>2013-07-07T10:47:43Z</time>
      </trkpt>
      <trkpt lat="42.67654" lon="1.41133">
        <ele>2741</ele>
        <time>2013-07-07T10:47:52Z</time>
      </trkpt>
      <trkpt lat="42.67653" lon="1.41133">
        <ele>2743</ele>
        <time>2013-07-07T10:48:01Z</time>
      </trkpt>
      <trkpt lat="42.67649" lon="1.41135">
        <ele>2744</ele>
        <time>2013-07-07T10:48:13Z</time>
      </trkpt>
      <trkpt lat="42.67651" lon="1.41138">
        <ele>2744</ele>
        <time>2013-07-07T10:48:27Z</time>
      </trkpt>
      <trkpt lat="42.67649" lon="1.41139">
        <ele>2744</ele>
        <time>2013-07-07T10:48:37Z</time>
      </trkpt>
      <trkpt lat="42.6765" lon="1.41136">
        <ele>2743</ele>
        <time>2013-07-07T10:48:46Z</time>
      </trkpt>
      <trkpt lat="42.67648" lon="1.41137">
        <ele>2743</ele>
        <time>2013-07-07T10:48:59Z</time>
      </trkpt>
      <trkpt lat="42.67644" lon="1.41137">
        <ele>2744</ele>
        <time>2013-07-07T10:49:07Z</time>
      </trkpt>
      <trkpt lat="42.67642" lon="1.41136">
        <ele>2744</ele>
        <time>2013-07-07T10:49:13Z</time>
      </trkpt>
      <trkpt lat="42.67641" lon="1.41134">
        <ele>2744</ele>
        <time>2013-07-07T10:49:27Z</time>
      </trkpt>
      <trkpt lat="42.67645" lon="1.41138">
        <ele>2743</ele>
        <time>2013-07-07T10:49:35Z</time>
      </trkpt>
      <trkpt lat="42.67644" lon="1.41142">
        <ele>2741</ele>
        <time>2013-07-07T10:49:45Z</time>
      </trkpt>
      <trkpt lat="42.67646" lon="1.41142">
        <ele>2741</ele>
        <time>2013-07-07T10:49:50Z</time>
      </trkpt>
      <trkpt lat="42.67646" lon="1.4114">
        <ele>2741</ele>
        <time>2013-07-07T10:49:59Z</time>
      </trkpt>
      <trkpt lat="42.67651" lon="1.41141">
        <ele>2739</ele>
        <time>2013-07-07T10:50:08Z</time>
      </trkpt>
      <trkpt lat="42.67654" lon="1.41143">
        <ele>2737</ele>
        <time>2013-07-07T10:50:15Z</time>
      </trkpt>
      <trkpt lat="42.67656" lon="1.41146">
        <ele>2736</ele>
        <time>2013-07-07T10:50:22Z</time>
      </trkpt>
      <trkpt lat="42.67654" lon="1.41145">
        <ele>2736</ele>
        <time>2013-07-07T10:50:29Z</time>
      </trkpt>
      <trkpt lat="42.67653" lon="1.41148">
        <ele>2735</ele>
        <time>2013-07-07T10:50:40Z</time>
      </trkpt>
      <trkpt lat="42.67651" lon="1.41151">
        <ele>2733</ele>
        <time>2013-07-07T10:50:52Z</time>
      </trkpt>
      <trkpt lat="42.67648" lon="1.41152">
        <ele>2733</ele>
        <time>2013-07-07T10:51:02Z</time>
      </trkpt>
      <trkpt lat="42.67648" lon="1.41153">
        <ele>2733</ele>
        <time>2013-07-07T10:51:12Z</time>
      </trkpt>
      <trkpt lat="42.67647" lon="1.41155">
        <ele>2731</ele>
        <time>2013-07-07T10:51:19Z</time>
      </trkpt>
      <trkpt lat="42.67646" lon="1.41157">
        <ele>2730</ele>
        <time>2013-07-07T10:51:27Z</time>
      </trkpt>
      <trkpt lat="42.67644" lon="1.4116">
        <ele>2730</ele>
        <time>2013-07-07T10:51:33Z</time>
      </trkpt>
      <trkpt lat="42.67644" lon="1.41163">
        <ele>2728</ele>
        <time>2013-07-07T10:51:39Z</time>
      </trkpt>
      <trkpt lat="42.67645" lon="1.41166">
        <ele>2727</ele>
        <time>2013-07-07T10:51:49Z</time>
      </trkpt>
      <trkpt lat="42.67645" lon="1.41163">
        <ele>2727</ele>
        <time>2013-07-07T10:51:53Z</time>
      </trkpt>
      <trkpt lat="42.67644" lon="1.41157">
        <ele>2728</ele>
        <time>2013-07-07T10:52:05Z</time>
      </trkpt>
      <trkpt lat="42.67645" lon="1.41155">
        <ele>2726</ele>
        <time>2013-07-07T10:52:14Z</time>
      </trkpt>
      <trkpt lat="42.67645" lon="1.41154">
        <ele>2728</ele>
        <time>2013-07-07T10:52:25Z</time>
      </trkpt>
      <trkpt lat="42.67644" lon="1.41155">
        <ele>2726</ele>
        <time>2013-07-07T10:52:33Z</time>
      </trkpt>
      <trkpt lat="42.67643" lon="1.41156">
        <ele>2725</ele>
        <time>2013-07-07T10:52:42Z</time>
      </trkpt>
      <trkpt lat="42.67642" lon="1.41158">
        <ele>2725</ele>
        <time>2013-07-07T10:52:53Z</time>
      </trkpt>
      <trkpt lat="42.6764" lon="1.4116">
        <ele>2725</ele>
        <time>2013-07-07T10:52:59Z</time>
      </trkpt>
      <trkpt lat="42.67639" lon="1.41159">
        <ele>2725</ele>
        <time>2013-07-07T10:53:08Z</time>
      </trkpt>
      <trkpt lat="42.67638" lon="1.41159">
        <ele>2725</ele>
        <time>2013-07-07T10:53:25Z</time>
      </trkpt>
      <trkpt lat="42.67636" lon="1.41162">
        <ele>2725</ele>
        <time>2013-07-07T10:53:32Z</time>
      </trkpt>
      <trkpt lat="42.67634" lon="1.41164">
        <ele>2725</ele>
        <time>2013-07-07T10:53:46Z</time>
      </trkpt>
      <trkpt lat="42.67631" lon="1.41169">
        <ele>2725</ele>
        <time>2013-07-07T10:53:55Z</time>
      </trkpt>
      <trkpt lat="42.6763" lon="1.41172">
        <ele>2724</ele>
        <time>2013-07-07T10:54:08Z</time>
      </trkpt>
      <trkpt lat="42.6763" lon="1.41173">
        <ele>2724</ele>
        <time>2013-07-07T10:54:12Z</time>
      </trkpt>
      <trkpt lat="42.67627" lon="1.41173">
        <ele>2724</ele>
        <time>2013-07-07T10:54:21Z</time>
      </trkpt>
      <trkpt lat="42.67625" lon="1.41172">
        <ele>2723</ele>
        <time>2013-07-07T10:54:31Z</time>
      </trkpt>
      <trkpt lat="42.67623" lon="1.41173">
        <ele>2722</ele>
        <time>2013-07-07T10:54:36Z</time>
      </trkpt>
      <trkpt lat="42.67618" lon="1.41175">
        <ele>2723</ele>
        <time>2013-07-07T10:54:44Z</time>
      </trkpt>
      <trkpt lat="42.67613" lon="1.41178">
        <ele>2723</ele>
        <time>2013-07-07T10:54:51Z</time>
      </trkpt>
      <trkpt lat="42.67612" lon="1.41182">
        <ele>2723</ele>
        <time>2013-07-07T10:54:59Z</time>
      </trkpt>
      <trkpt lat="42.67609" lon="1.41184">
        <ele>2724</ele>
        <time>2013-07-07T10:55:08Z</time>
      </trkpt>
      <trkpt lat="42.67606" lon="1.41183">
        <ele>2726</ele>
        <time>2013-07-07T10:55:17Z</time>
      </trkpt>
      <trkpt lat="42.67605" lon="1.41181">
        <ele>2726</ele>
        <time>2013-07-07T10:55:26Z</time>
      </trkpt>
      <trkpt lat="42.67605" lon="1.41182">
        <ele>2726</ele>
        <time>2013-07-07T10:55:37Z</time>
      </trkpt>
      <trkpt lat="42.67607" lon="1.41182">
        <ele>2726</ele>
        <time>2013-07-07T10:55:50Z</time>
      </trkpt>
      <trkpt lat="42.67608" lon="1.4118">
        <ele>2726</ele>
        <time>2013-07-07T10:56:02Z</time>
      </trkpt>
      <trkpt lat="42.67606" lon="1.41179">
        <ele>2726</ele>
        <time>2013-07-07T10:56:17Z</time>
      </trkpt>
      <trkpt lat="42.67607" lon="1.4118">
        <ele>2725</ele>
        <time>2013-07-07T10:56:36Z</time>
      </trkpt>
      <trkpt lat="42.67604" lon="1.41181">
        <ele>2725</ele>
        <time>2013-07-07T10:56:48Z</time>
      </trkpt>
      <trkpt lat="42.67604" lon="1.41181">
        <ele>2725</ele>
        <time>2013-07-07T10:57:02Z</time>
      </trkpt>
      <trkpt lat="42.67604" lon="1.4118">
        <ele>2725</ele>
        <time>2013-07-07T10:57:26Z</time>
      </trkpt>
      <trkpt lat="42.67606" lon="1.41179">
        <ele>2726</ele>
        <time>2013-07-07T10:57:48Z</time>
      </trkpt>
      <trkpt lat="42.67607" lon="1.41178">
        <ele>2725</ele>
        <time>2013-07-07T10:58:01Z</time>
      </trkpt>
      <trkpt lat="42.67606" lon="1.4118">
        <ele>2725</ele>
        <time>2013-07-07T10:58:10Z</time>
      </trkpt>
      <trkpt lat="42.67606" lon="1.41179">
        <ele>2725</ele>
        <time>2013-07-07T10:58:26Z</time>
      </trkpt>
      <trkpt lat="42.67606" lon="1.41181">
        <ele>2725</ele>
        <time>2013-07-07T10:58:47Z</time>
      </trkpt>
      <trkpt lat="42.67606" lon="1.41181">
        <ele>2725</ele>
        <time>2013-07-07T10:59:06Z</time>
      </trkpt>
      <trkpt lat="42.67607" lon="1.41182">
        <ele>2725</ele>
        <time>2013-07-07T10:59:23Z</time>
      </trkpt>
      <trkpt lat="42.67606" lon="1.41182">
        <ele>2725</ele>
        <time>2013-07-07T10:59:34Z</time>
      </trkpt>
      <trkpt lat="42.67605" lon="1.41182">
        <ele>2725</ele>
        <time>2013-07-07T10:59:46Z</time>
      </trkpt>
      <trkpt lat="42.67604" lon="1.41182">
        <ele>2725</ele>
        <time>2013-07-07T11:00:00Z</time>
      </trkpt>
      <trkpt lat="42.67601" lon="1.41181">
        <ele>2724</ele>
        <time>2013-07-07T11:00:12Z</time>
      </trkpt>
      <trkpt lat="42.67601" lon="1.41183">
        <ele>2724</ele>
        <time>2013-07-07T11:00:22Z</time>
      </trkpt>
      <trkpt lat="42.67601" lon="1.41181">
        <ele>2724</ele>
        <time>2013-07-07T11:00:34Z</time>
      </trkpt>
      <trkpt lat="42.67601" lon="1.41181">
        <ele>2723</ele>
        <time>2013-07-07T11:00:44Z</time>
      </trkpt>
      <trkpt lat="42.67602" lon="1.41178">
        <ele>2723</ele>
        <time>2013-07-07T11:00:55Z</time>
      </trkpt>
      <trkpt lat="42.67605" lon="1.41178">
        <ele>2722</ele>
        <time>2013-07-07T11:01:06Z</time>
      </trkpt>
      <trkpt lat="42.67607" lon="1.41182">
        <ele>2723</ele>
        <time>2013-07-07T11:01:18Z</time>
      </trkpt>
      <trkpt lat="42.67606" lon="1.41184">
        <ele>2722</ele>
        <time>2013-07-07T11:01:29Z</time>
      </trkpt>
      <trkpt lat="42.67605" lon="1.41186">
        <ele>2721</ele>
        <time>2013-07-07T11:01:41Z</time>
      </trkpt>
      <trkpt lat="42.67603" lon="1.41186">
        <ele>2720</ele>
        <time>2013-07-07T11:01:53Z</time>
      </trkpt>
      <trkpt lat="42.67603" lon="1.41187">
        <ele>2720</ele>
        <time>2013-07-07T11:02:09Z</time>
      </trkpt>
      <trkpt lat="42.67602" lon="1.4119">
        <ele>2720</ele>
        <time>2013-07-07T11:02:19Z</time>
      </trkpt>
      <trkpt lat="42.67602" lon="1.41185">
        <ele>2720</ele>
        <time>2013-07-07T11:02:29Z</time>
      </trkpt>
      <trkpt lat="42.676" lon="1.41186">
        <ele>2720</ele>
        <time>2013-07-07T11:02:45Z</time>
      </trkpt>
      <trkpt lat="42.67601" lon="1.41191">
        <ele>2720</ele>
        <time>2013-07-07T11:02:56Z</time>
      </trkpt>
      <trkpt lat="42.67601" lon="1.41193">
        <ele>2719</ele>
        <time>2013-07-07T11:03:05Z</time>
      </trkpt>
      <trkpt lat="42.67602" lon="1.41192">
        <ele>2718</ele>
        <time>2013-07-07T11:03:17Z</time>
      </trkpt>
      <trkpt lat="42.67601" lon="1.41194">
        <ele>2718</ele>
        <time>2013-07-07T11:03:28Z</time>
      </trkpt>
      <trkpt lat="42.67603" lon="1.41192">
        <ele>2718</ele>
        <time>2013-07-07T11:03:44Z</time>
      </trkpt>
      <trkpt lat="42.67603" lon="1.41192">
        <ele>2718</ele>
        <time>2013-07-07T11:03:58Z</time>
      </trkpt>
      <trkpt lat="42.67602" lon="1.4119">
        <ele>2718</ele>
        <time>2013-07-07T11:04:08Z</time>
      </trkpt>
      <trkpt lat="42.67599" lon="1.41186">
        <ele>2718</ele>
        <time>2013-07-07T11:04:20Z</time>
      </trkpt>
      <trkpt lat="42.67597" lon="1.41186">
        <ele>2718</ele>
        <time>2013-07-07T11:04:28Z</time>
      </trkpt>
      <trkpt lat="42.67596" lon="1.41188">
        <ele>2717</ele>
        <time>2013-07-07T11:04:44Z</time>
      </trkpt>
      <trkpt lat="42.67596" lon="1.41191">
        <ele>2716</ele>
        <time>2013-07-07T11:04:54Z</time>
      </trkpt>
      <trkpt lat="42.67594" lon="1.41192">
        <ele>2715</ele>
        <time>2013-07-07T11:05:05Z</time>
      </trkpt>
      <trkpt lat="42.67594" lon="1.41196">
        <ele>2714</ele>
        <time>2013-07-07T11:05:16Z</time>
      </trkpt>
      <trkpt lat="42.67591" lon="1.41202">
        <ele>2714</ele>
        <time>2013-07-07T11:05:32Z</time>
      </trkpt>
      <trkpt lat="42.67591" lon="1.41203">
        <ele>2714</ele>
        <time>2013-07-07T11:05:42Z</time>
      </trkpt>
      <trkpt lat="42.67591" lon="1.41205">
        <ele>2713</ele>
        <time>2013-07-07T11:05:51Z</time>
      </trkpt>
      <trkpt lat="42.67594" lon="1.41202">
        <ele>2712</ele>
        <time>2013-07-07T11:05:59Z</time>
      </trkpt>
      <trkpt lat="42.67594" lon="1.41199">
        <ele>2712</ele>
        <time>2013-07-07T11:06:31Z</time>
      </trkpt>
      <trkpt lat="42.67595" lon="1.41199">
        <ele>2712</ele>
        <time>2013-07-07T11:06:40Z</time>
      </trkpt>
      <trkpt lat="42.67595" lon="1.412">
        <ele>2712</ele>
        <time>2013-07-07T11:06:48Z</time>
      </trkpt>
      <trkpt lat="42.67596" lon="1.412">
        <ele>2712</ele>
        <time>2013-07-07T11:06:56Z</time>
      </trkpt>
      <trkpt lat="42.67598" lon="1.41201">
        <ele>2712</ele>
        <time>2013-07-07T11:07:11Z</time>
      </trkpt>
      <trkpt lat="42.67598" lon="1.41202">
        <ele>2711</ele>
        <time>2013-07-07T11:07:24Z</time>
      </trkpt>
      <trkpt lat="42.67599" lon="1.41196">
        <ele>2711</ele>
        <time>2013-07-07T11:07:45Z</time>
      </trkpt>
      <trkpt lat="42.67596" lon="1.41195">
        <ele>2711</ele>
        <time>2013-07-07T11:07:55Z</time>
      </trkpt>
      <trkpt lat="42.67596" lon="1.41195">
        <ele>2710</ele>
        <time>2013-07-07T11:08:06Z</time>
      </trkpt>
      <trkpt lat="42.67597" lon="1.41194">
        <ele>2710</ele>
        <time>2013-07-07T11:08:17Z</time>
      </trkpt>
      <trkpt lat="42.67598" lon="1.41196">
        <ele>2710</ele>
        <time>2013-07-07T11:08:33Z</time>
      </trkpt>
      <trkpt lat="42.67597" lon="1.41199">
        <ele>2708</ele>
        <time>2013-07-07T11:08:41Z</time>
      </trkpt>
      <trkpt lat="42.67598" lon="1.41201">
        <ele>2708</ele>
        <time>2013-07-07T11:08:51Z</time>
      </trkpt>
      <trkpt lat="42.676" lon="1.412">
        <ele>2709</ele>
        <time>2013-07-07T11:08:55Z</time>
      </trkpt>
      <trkpt lat="42.67598" lon="1.41204">
        <ele>2707</ele>
        <time>2013-07-07T11:09:06Z</time>
      </trkpt>
      <trkpt lat="42.67602" lon="1.41202">
        <ele>2707</ele>
        <time>2013-07-07T11:09:19Z</time>
      </trkpt>
      <trkpt lat="42.67604" lon="1.41201">
        <ele>2707</ele>
        <time>2013-07-07T11:09:35Z</time>
      </trkpt>
      <trkpt lat="42.67605" lon="1.41202">
        <ele>2706</ele>
        <time>2013-07-07T11:09:47Z</time>
      </trkpt>
      <trkpt lat="42.67603" lon="1.412">
        <ele>2706</ele>
        <time>2013-07-07T11:09:58Z</time>
      </trkpt>
      <trkpt lat="42.676" lon="1.41199">
        <ele>2706</ele>
        <time>2013-07-07T11:10:07Z</time>
      </trkpt>
      <trkpt lat="42.67602" lon="1.41197">
        <ele>2705</ele>
        <time>2013-07-07T11:10:15Z</time>
      </trkpt>
      <trkpt lat="42.67601" lon="1.41198">
        <ele>2704</ele>
        <time>2013-07-07T11:10:26Z</time>
      </trkpt>
      <trkpt lat="42.67604" lon="1.41201">
        <ele>2703</ele>
        <time>2013-07-07T11:10:45Z</time>
      </trkpt>
      <trkpt lat="42.67602" lon="1.41197">
        <ele>2702</ele>
        <time>2013-07-07T11:10:55Z</time>
      </trkpt>
      <trkpt lat="42.67602" lon="1.41197">
        <ele>2701</ele>
        <time>2013-07-07T11:11:08Z</time>
      </trkpt>
      <trkpt lat="42.67601" lon="1.41198">
        <ele>2701</ele>
        <time>2013-07-07T11:11:18Z</time>
      </trkpt>
      <trkpt lat="42.67601" lon="1.41197">
        <ele>2701</ele>
        <time>2013-07-07T11:11:33Z</time>
      </trkpt>
      <trkpt lat="42.676" lon="1.41199">
        <ele>2701</ele>
        <time>2013-07-07T11:11:47Z</time>
      </trkpt>
      <trkpt lat="42.67601" lon="1.41203">
        <ele>2701</ele>
        <time>2013-07-07T11:11:57Z</time>
      </trkpt>
      <trkpt lat="42.67602" lon="1.41204">
        <ele>2700</ele>
        <time>2013-07-07T11:12:06Z</time>
      </trkpt>
      <trkpt lat="42.67603" lon="1.41204">
        <ele>2700</ele>
        <time>2013-07-07T11:12:18Z</time>
      </trkpt>
      <trkpt lat="42.67605" lon="1.41203">
        <ele>2699</ele>
        <time>2013-07-07T11:12:25Z</time>
      </trkpt>
      <trkpt lat="42.67606" lon="1.41202">
        <ele>2699</ele>
        <time>2013-07-07T11:12:35Z</time>
      </trkpt>
      <trkpt lat="42.67606" lon="1.41205">
        <ele>2698</ele>
        <time>2013-07-07T11:12:42Z</time>
      </trkpt>
      <trkpt lat="42.67606" lon="1.41204">
        <ele>2697</ele>
        <time>2013-07-07T11:12:47Z</time>
      </trkpt>
      <trkpt lat="42.67605" lon="1.41204">
        <ele>2696</ele>
        <time>2013-07-07T11:12:56Z</time>
      </trkpt>
      <trkpt lat="42.67605" lon="1.41208">
        <ele>2696</ele>
        <time>2013-07-07T11:13:04Z</time>
      </trkpt>
      <trkpt lat="42.67603" lon="1.41209">
        <ele>2695</ele>
        <time>2013-07-07T11:13:18Z</time>
      </trkpt>
      <trkpt lat="42.67604" lon="1.41206">
        <ele>2695</ele>
        <time>2013-07-07T11:13:26Z</time>
      </trkpt>
      <trkpt lat="42.67602" lon="1.4121">
        <ele>2693</ele>
        <time>2013-07-07T11:13:35Z</time>
      </trkpt>
      <trkpt lat="42.67601" lon="1.41209">
        <ele>2692</ele>
        <time>2013-07-07T11:13:43Z</time>
      </trkpt>
      <trkpt lat="42.67601" lon="1.41208">
        <ele>2692</ele>
        <time>2013-07-07T11:13:54Z</time>
      </trkpt>
      <trkpt lat="42.676" lon="1.41208">
        <ele>2691</ele>
        <time>2013-07-07T11:14:06Z</time>
      </trkpt>
      <trkpt lat="42.67604" lon="1.4121">
        <ele>2691</ele>
        <time>2013-07-07T11:14:23Z</time>
      </trkpt>
      <trkpt lat="42.67602" lon="1.4121">
        <ele>2691</ele>
        <time>2013-07-07T11:14:34Z</time>
      </trkpt>
      <trkpt lat="42.676" lon="1.4121">
        <ele>2691</ele>
        <time>2013-07-07T11:14:44Z</time>
      </trkpt>
      <trkpt lat="42.67598" lon="1.41211">
        <ele>2692</ele>
        <time>2013-07-07T11:14:56Z</time>
      </trkpt>
      <trkpt lat="42.67596" lon="1.41212">
        <ele>2691</ele>
        <time>2013-07-07T11:15:07Z</time>
      </trkpt>
      <trkpt lat="42.67595" lon="1.41212">
        <ele>2691</ele>
        <time>2013-07-07T11:15:17Z</time>
      </trkpt>
      <trkpt lat="42.67592" lon="1.41212">
        <ele>2691</ele>
        <time>2013-07-07T11:15:27Z</time>
      </trkpt>
      <trkpt lat="42.67586" lon="1.41214">
        <ele>2690</ele>
        <time>2013-07-07T11:15:35Z</time>
      </trkpt>
      <trkpt lat="42.67582" lon="1.41216">
        <ele>2690</ele>
        <time>2013-07-07T11:15:42Z</time>
      </trkpt>
      <trkpt lat="42.67579" lon="1.4122">
        <ele>2689</ele>
        <time>2013-07-07T11:15:48Z</time>
      </trkpt>
      <trkpt lat="42.67578" lon="1.41221">
        <ele>2689</ele>
        <time>2013-07-07T11:15:54Z</time>
      </trkpt>
      <trkpt lat="42.67577" lon="1.41221">
        <ele>2688</ele>
        <time>2013-07-07T11:15:58Z</time>
      </trkpt>
      <trkpt lat="42.67566" lon="1.41235">
        <ele>2686</ele>
        <time>2013-07-07T11:16:47Z</time>
      </trkpt>
      <trkpt lat="42.67574" lon="1.41235">
        <ele>2683</ele>
        <time>2013-07-07T11:16:59Z</time>
      </trkpt>
      <trkpt lat="42.67572" lon="1.41237">
        <ele>2682</ele>
        <time>2013-07-07T11:17:08Z</time>
      </trkpt>
      <trkpt lat="42.67579" lon="1.41237">
        <ele>2681</ele>
        <time>2013-07-07T11:17:17Z</time>
      </trkpt>
      <trkpt lat="42.67582" lon="1.41236">
        <ele>2679</ele>
        <time>2013-07-07T11:17:27Z</time>
      </trkpt>
      <trkpt lat="42.67581" lon="1.41235">
        <ele>2678</ele>
        <time>2013-07-07T11:17:35Z</time>
      </trkpt>
      <trkpt lat="42.67583" lon="1.41235">
        <ele>2677</ele>
        <time>2013-07-07T11:17:43Z</time>
      </trkpt>
      <trkpt lat="42.67582" lon="1.41236">
        <ele>2676</ele>
        <time>2013-07-07T11:17:52Z</time>
      </trkpt>
      <trkpt lat="42.67582" lon="1.41236">
        <ele>2676</ele>
        <time>2013-07-07T11:17:53Z</time>
      </trkpt>
      <trkpt lat="42.6758" lon="1.41239">
        <ele>2675</ele>
        <time>2013-07-07T11:18:02Z</time>
      </trkpt>
      <trkpt lat="42.67581" lon="1.41242">
        <ele>2675</ele>
        <time>2013-07-07T11:18:09Z</time>
      </trkpt>
      <trkpt lat="42.67584" lon="1.41242">
        <ele>2674</ele>
        <time>2013-07-07T11:18:17Z</time>
      </trkpt>
      <trkpt lat="42.67586" lon="1.41244">
        <ele>2672</ele>
        <time>2013-07-07T11:18:25Z</time>
      </trkpt>
      <trkpt lat="42.67586" lon="1.41245">
        <ele>2670</ele>
        <time>2013-07-07T11:18:36Z</time>
      </trkpt>
      <trkpt lat="42.67584" lon="1.41244">
        <ele>2669</ele>
        <time>2013-07-07T11:18:48Z</time>
      </trkpt>
      <trkpt lat="42.67584" lon="1.41243">
        <ele>2668</ele>
        <time>2013-07-07T11:18:56Z</time>
      </trkpt>
      <trkpt lat="42.67582" lon="1.41248">
        <ele>2667</ele>
        <time>2013-07-07T11:19:04Z</time>
      </trkpt>
      <trkpt lat="42.67585" lon="1.41248">
        <ele>2666</ele>
        <time>2013-07-07T11:19:10Z</time>
      </trkpt>
      <trkpt lat="42.67588" lon="1.4125">
        <ele>2663</ele>
        <time>2013-07-07T11:19:17Z</time>
      </trkpt>
      <trkpt lat="42.67587" lon="1.41253">
        <ele>2662</ele>
        <time>2013-07-07T11:19:26Z</time>
      </trkpt>
      <trkpt lat="42.67586" lon="1.41251">
        <ele>2662</ele>
        <time>2013-07-07T11:19:35Z</time>
      </trkpt>
      <trkpt lat="42.67584" lon="1.41251">
        <ele>2660</ele>
        <time>2013-07-07T11:19:39Z</time>
      </trkpt>
      <trkpt lat="42.67583" lon="1.41256">
        <ele>2659</ele>
        <time>2013-07-07T11:19:48Z</time>
      </trkpt>
      <trkpt lat="42.6758" lon="1.41258">
        <ele>2658</ele>
        <time>2013-07-07T11:19:55Z</time>
      </trkpt>
      <trkpt lat="42.6758" lon="1.41257">
        <ele>2657</ele>
        <time>2013-07-07T11:20:06Z</time>
      </trkpt>
      <trkpt lat="42.67581" lon="1.41258">
        <ele>2657</ele>
        <time>2013-07-07T11:20:19Z</time>
      </trkpt>
      <trkpt lat="42.67582" lon="1.41254">
        <ele>2658</ele>
        <time>2013-07-07T11:20:34Z</time>
      </trkpt>
      <trkpt lat="42.6758" lon="1.41254">
        <ele>2657</ele>
        <time>2013-07-07T11:20:48Z</time>
      </trkpt>
      <trkpt lat="42.67578" lon="1.41256">
        <ele>2657</ele>
        <time>2013-07-07T11:20:57Z</time>
      </trkpt>
      <trkpt lat="42.67579" lon="1.41254">
        <ele>2657</ele>
        <time>2013-07-07T11:21:10Z</time>
      </trkpt>
      <trkpt lat="42.67577" lon="1.41255">
        <ele>2657</ele>
        <time>2013-07-07T11:21:28Z</time>
      </trkpt>
      <trkpt lat="42.67575" lon="1.41254">
        <ele>2657</ele>
        <time>2013-07-07T11:21:43Z</time>
      </trkpt>
      <trkpt lat="42.67578" lon="1.41255">
        <ele>2657</ele>
        <time>2013-07-07T11:21:55Z</time>
      </trkpt>
      <trkpt lat="42.67581" lon="1.41253">
        <ele>2656</ele>
        <time>2013-07-07T11:22:10Z</time>
      </trkpt>
      <trkpt lat="42.67582" lon="1.41253">
        <ele>2656</ele>
        <time>2013-07-07T11:22:30Z</time>
      </trkpt>
      <trkpt lat="42.67583" lon="1.41256">
        <ele>2656</ele>
        <time>2013-07-07T11:22:47Z</time>
      </trkpt>
      <trkpt lat="42.67585" lon="1.4126">
        <ele>2656</ele>
        <time>2013-07-07T11:23:06Z</time>
      </trkpt>
      <trkpt lat="42.67588" lon="1.41265">
        <ele>2656</ele>
        <time>2013-07-07T11:23:25Z</time>
      </trkpt>
      <trkpt lat="42.67588" lon="1.41266">
        <ele>2655</ele>
        <time>2013-07-07T11:23:36Z</time>
      </trkpt>
      <trkpt lat="42.67591" lon="1.41266">
        <ele>2656</ele>
        <time>2013-07-07T11:23:55Z</time>
      </trkpt>
      <trkpt lat="42.67586" lon="1.41271">
        <ele>2656</ele>
        <time>2013-07-07T11:25:13Z</time>
      </trkpt>
      <trkpt lat="42.67583" lon="1.41268">
        <ele>2656</ele>
        <time>2013-07-07T11:25:19Z</time>
      </trkpt>
      <trkpt lat="42.67581" lon="1.41261">
        <ele>2657</ele>
        <time>2013-07-07T11:25:26Z</time>
      </trkpt>
      <trkpt lat="42.67577" lon="1.41261">
        <ele>2657</ele>
        <time>2013-07-07T11:25:40Z</time>
      </trkpt>
      <trkpt lat="42.67573" lon="1.41257">
        <ele>2657</ele>
        <time>2013-07-07T11:25:55Z</time>
      </trkpt>
      <trkpt lat="42.67575" lon="1.4126">
        <ele>2657</ele>
        <time>2013-07-07T11:26:09Z</time>
      </trkpt>
      <trkpt lat="42.67577" lon="1.4126">
        <ele>2657</ele>
        <time>2013-07-07T11:26:23Z</time>
      </trkpt>
      <trkpt lat="42.67577" lon="1.4126">
        <ele>2656</ele>
        <time>2013-07-07T11:26:39Z</time>
      </trkpt>
      <trkpt lat="42.67578" lon="1.41263">
        <ele>2656</ele>
        <time>2013-07-07T11:26:53Z</time>
      </trkpt>
      <trkpt lat="42.67584" lon="1.4127">
        <ele>2656</ele>
        <time>2013-07-07T11:27:03Z</time>
      </trkpt>
      <trkpt lat="42.67584" lon="1.41263">
        <ele>2656</ele>
        <time>2013-07-07T11:27:13Z</time>
      </trkpt>
      <trkpt lat="42.67587" lon="1.41261">
        <ele>2656</ele>
        <time>2013-07-07T11:27:32Z</time>
      </trkpt>
      <trkpt lat="42.67585" lon="1.41264">
        <ele>2656</ele>
        <time>2013-07-07T11:27:49Z</time>
      </trkpt>
      <trkpt lat="42.67584" lon="1.41265">
        <ele>2656</ele>
        <time>2013-07-07T11:28:05Z</time>
      </trkpt>
      <trkpt lat="42.67587" lon="1.41265">
        <ele>2656</ele>
        <time>2013-07-07T11:28:29Z</time>
      </trkpt>
      <trkpt lat="42.67587" lon="1.41261">
        <ele>2655</ele>
        <time>2013-07-07T11:28:47Z</time>
      </trkpt>
      <trkpt lat="42.67582" lon="1.41264">
        <ele>2656</ele>
        <time>2013-07-07T11:29:02Z</time>
      </trkpt>
      <trkpt lat="42.67583" lon="1.41261">
        <ele>2655</ele>
        <time>2013-07-07T11:29:20Z</time>
      </trkpt>
      <trkpt lat="42.67584" lon="1.41262">
        <ele>2655</ele>
        <time>2013-07-07T11:29:31Z</time>
      </trkpt>
      <trkpt lat="42.67585" lon="1.41262">
        <ele>2655</ele>
        <time>2013-07-07T11:29:44Z</time>
      </trkpt>
      <trkpt lat="42.6758" lon="1.41266">
        <ele>2654</ele>
        <time>2013-07-07T11:29:52Z</time>
      </trkpt>
      <trkpt lat="42.67582" lon="1.41265">
        <ele>2655</ele>
        <time>2013-07-07T11:30:06Z</time>
      </trkpt>
      <trkpt lat="42.67582" lon="1.41267">
        <ele>2653</ele>
        <time>2013-07-07T11:30:14Z</time>
      </trkpt>
      <trkpt lat="42.67582" lon="1.41268">
        <ele>2654</ele>
        <time>2013-07-07T11:30:20Z</time>
      </trkpt>
      <trkpt lat="42.67582" lon="1.41271">
        <ele>2653</ele>
        <time>2013-07-07T11:30:26Z</time>
      </trkpt>
      <trkpt lat="42.67582" lon="1.41276">
        <ele>2652</ele>
        <time>2013-07-07T11:30:32Z</time>
      </trkpt>
      <trkpt lat="42.67582" lon="1.41278">
        <ele>2651</ele>
        <time>2013-07-07T11:30:40Z</time>
      </trkpt>
      <trkpt lat="42.67582" lon="1.41279">
        <ele>2650</ele>
        <time>2013-07-07T11:30:50Z</time>
      </trkpt>
      <trkpt lat="42.67586" lon="1.41279">
        <ele>2649</ele>
        <time>2013-07-07T11:30:58Z</time>
      </trkpt>
      <trkpt lat="42.67585" lon="1.41276">
        <ele>2648</ele>
        <time>2013-07-07T11:31:09Z</time>
      </trkpt>
      <trkpt lat="42.67585" lon="1.41276">
        <ele>2648</ele>
        <time>2013-07-07T11:31:19Z</time>
      </trkpt>
      <trkpt lat="42.67586" lon="1.41279">
        <ele>2647</ele>
        <time>2013-07-07T11:31:27Z</time>
      </trkpt>
      <trkpt lat="42.67588" lon="1.41283">
        <ele>2644</ele>
        <time>2013-07-07T11:31:37Z</time>
      </trkpt>
      <trkpt lat="42.67589" lon="1.41289">
        <ele>2641</ele>
        <time>2013-07-07T11:31:44Z</time>
      </trkpt>
      <trkpt lat="42.67589" lon="1.41288">
        <ele>2641</ele>
        <time>2013-07-07T11:31:52Z</time>
      </trkpt>
      <trkpt lat="42.67591" lon="1.41291">
        <ele>2637</ele>
        <time>2013-07-07T11:32:04Z</time>
      </trkpt>
      <trkpt lat="42.6759" lon="1.41287">
        <ele>2637</ele>
        <time>2013-07-07T11:32:17Z</time>
      </trkpt>
      <trkpt lat="42.67592" lon="1.41287">
        <ele>2636</ele>
        <time>2013-07-07T11:32:31Z</time>
      </trkpt>
      <trkpt lat="42.67594" lon="1.4129">
        <ele>2637</ele>
        <time>2013-07-07T11:32:40Z</time>
      </trkpt>
      <trkpt lat="42.67596" lon="1.41293">
        <ele>2636</ele>
        <time>2013-07-07T11:32:50Z</time>
      </trkpt>
      <trkpt lat="42.67596" lon="1.41294">
        <ele>2636</ele>
        <time>2013-07-07T11:33:01Z</time>
      </trkpt>
      <trkpt lat="42.67597" lon="1.41297">
        <ele>2634</ele>
        <time>2013-07-07T11:33:08Z</time>
      </trkpt>
      <trkpt lat="42.67597" lon="1.41298">
        <ele>2633</ele>
        <time>2013-07-07T11:33:18Z</time>
      </trkpt>
      <trkpt lat="42.67599" lon="1.41299">
        <ele>2633</ele>
        <time>2013-07-07T11:33:24Z</time>
      </trkpt>
      <trkpt lat="42.67598" lon="1.41297">
        <ele>2632</ele>
        <time>2013-07-07T11:33:33Z</time>
      </trkpt>
      <trkpt lat="42.676" lon="1.41298">
        <ele>2630</ele>
        <time>2013-07-07T11:33:41Z</time>
      </trkpt>
      <trkpt lat="42.67599" lon="1.41298">
        <ele>2630</ele>
        <time>2013-07-07T11:33:48Z</time>
      </trkpt>
      <trkpt lat="42.676" lon="1.41301">
        <ele>2628</ele>
        <time>2013-07-07T11:33:55Z</time>
      </trkpt>
      <trkpt lat="42.676" lon="1.41299">
        <ele>2627</ele>
        <time>2013-07-07T11:34:02Z</time>
      </trkpt>
      <trkpt lat="42.67603" lon="1.41303">
        <ele>2626</ele>
        <time>2013-07-07T11:34:11Z</time>
      </trkpt>
      <trkpt lat="42.67607" lon="1.41302">
        <ele>2625</ele>
        <time>2013-07-07T11:34:15Z</time>
      </trkpt>
      <trkpt lat="42.67606" lon="1.41295">
        <ele>2625</ele>
        <time>2013-07-07T11:34:22Z</time>
      </trkpt>
      <trkpt lat="42.67605" lon="1.41294">
        <ele>2625</ele>
        <time>2013-07-07T11:34:34Z</time>
      </trkpt>
      <trkpt lat="42.67605" lon="1.41296">
        <ele>2625</ele>
        <time>2013-07-07T11:34:51Z</time>
      </trkpt>
      <trkpt lat="42.67602" lon="1.41302">
        <ele>2624</ele>
        <time>2013-07-07T11:34:59Z</time>
      </trkpt>
      <trkpt lat="42.67606" lon="1.41305">
        <ele>2622</ele>
        <time>2013-07-07T11:35:05Z</time>
      </trkpt>
      <trkpt lat="42.6761" lon="1.41308">
        <ele>2621</ele>
        <time>2013-07-07T11:35:11Z</time>
      </trkpt>
      <trkpt lat="42.67611" lon="1.41308">
        <ele>2620</ele>
        <time>2013-07-07T11:35:18Z</time>
      </trkpt>
      <trkpt lat="42.67612" lon="1.4131">
        <ele>2619</ele>
        <time>2013-07-07T11:35:26Z</time>
      </trkpt>
      <trkpt lat="42.67612" lon="1.41312">
        <ele>2617</ele>
        <time>2013-07-07T11:35:35Z</time>
      </trkpt>
      <trkpt lat="42.6761" lon="1.41311">
        <ele>2617</ele>
        <time>2013-07-07T11:35:44Z</time>
      </trkpt>
      <trkpt lat="42.67613" lon="1.41312">
        <ele>2615</ele>
        <time>2013-07-07T11:35:52Z</time>
      </trkpt>
      <trkpt lat="42.67613" lon="1.41313">
        <ele>2615</ele>
        <time>2013-07-07T11:36:01Z</time>
      </trkpt>
      <trkpt lat="42.67612" lon="1.41312">
        <ele>2615</ele>
        <time>2013-07-07T11:36:15Z</time>
      </trkpt>
      <trkpt lat="42.6762" lon="1.41319">
        <ele>2613</ele>
        <time>2013-07-07T11:36:29Z</time>
      </trkpt>
      <trkpt lat="42.67623" lon="1.41319">
        <ele>2611</ele>
        <time>2013-07-07T11:36:36Z</time>
      </trkpt>
      <trkpt lat="42.67623" lon="1.41321">
        <ele>2610</ele>
        <time>2013-07-07T11:36:46Z</time>
      </trkpt>
      <trkpt lat="42.67623" lon="1.41321">
        <ele>2609</ele>
        <time>2013-07-07T11:36:57Z</time>
      </trkpt>
      <trkpt lat="42.67629" lon="1.41326">
        <ele>2607</ele>
        <time>2013-07-07T11:37:03Z</time>
      </trkpt>
      <trkpt lat="42.67628" lon="1.4132">
        <ele>2606</ele>
        <time>2013-07-07T11:37:09Z</time>
      </trkpt>
      <trkpt lat="42.67627" lon="1.41316">
        <ele>2606</ele>
        <time>2013-07-07T11:37:15Z</time>
      </trkpt>
      <trkpt lat="42.67629" lon="1.4131">
        <ele>2606</ele>
        <time>2013-07-07T11:37:23Z</time>
      </trkpt>
      <trkpt lat="42.67632" lon="1.41314">
        <ele>2607</ele>
        <time>2013-07-07T11:37:44Z</time>
      </trkpt>
      <trkpt lat="42.67624" lon="1.41312">
        <ele>2606</ele>
        <time>2013-07-07T11:38:03Z</time>
      </trkpt>
      <trkpt lat="42.67622" lon="1.41317">
        <ele>2606</ele>
        <time>2013-07-07T11:38:12Z</time>
      </trkpt>
      <trkpt lat="42.67624" lon="1.41319">
        <ele>2607</ele>
        <time>2013-07-07T11:38:22Z</time>
      </trkpt>
      <trkpt lat="42.67627" lon="1.41322">
        <ele>2606</ele>
        <time>2013-07-07T11:38:29Z</time>
      </trkpt>
      <trkpt lat="42.6763" lon="1.41323">
        <ele>2604</ele>
        <time>2013-07-07T11:38:36Z</time>
      </trkpt>
      <trkpt lat="42.67632" lon="1.41324">
        <ele>2603</ele>
        <time>2013-07-07T11:38:42Z</time>
      </trkpt>
      <trkpt lat="42.67636" lon="1.41327">
        <ele>2601</ele>
        <time>2013-07-07T11:38:48Z</time>
      </trkpt>
      <trkpt lat="42.67635" lon="1.41328">
        <ele>2600</ele>
        <time>2013-07-07T11:38:54Z</time>
      </trkpt>
      <trkpt lat="42.67636" lon="1.41327">
        <ele>2600</ele>
        <time>2013-07-07T11:39:02Z</time>
      </trkpt>
      <trkpt lat="42.67636" lon="1.41323">
        <ele>2599</ele>
        <time>2013-07-07T11:39:09Z</time>
      </trkpt>
      <trkpt lat="42.67639" lon="1.41324">
        <ele>2598</ele>
        <time>2013-07-07T11:39:16Z</time>
      </trkpt>
      <trkpt lat="42.67642" lon="1.41322">
        <ele>2597</ele>
        <time>2013-07-07T11:39:23Z</time>
      </trkpt>
      <trkpt lat="42.67645" lon="1.41321">
        <ele>2596</ele>
        <time>2013-07-07T11:39:29Z</time>
      </trkpt>
      <trkpt lat="42.67649" lon="1.41322">
        <ele>2594</ele>
        <time>2013-07-07T11:39:36Z</time>
      </trkpt>
      <trkpt lat="42.67652" lon="1.41322">
        <ele>2593</ele>
        <time>2013-07-07T11:39:41Z</time>
      </trkpt>
      <trkpt lat="42.67657" lon="1.41324">
        <ele>2590</ele>
        <time>2013-07-07T11:39:49Z</time>
      </trkpt>
      <trkpt lat="42.67662" lon="1.41325">
        <ele>2588</ele>
        <time>2013-07-07T11:39:55Z</time>
      </trkpt>
      <trkpt lat="42.67665" lon="1.41326">
        <ele>2588</ele>
        <time>2013-07-07T11:39:59Z</time>
      </trkpt>
      <trkpt lat="42.67671" lon="1.41328">
        <ele>2585</ele>
        <time>2013-07-07T11:40:06Z</time>
      </trkpt>
      <trkpt lat="42.67673" lon="1.41329">
        <ele>2584</ele>
        <time>2013-07-07T11:40:07Z</time>
      </trkpt>
      <trkpt lat="42.67679" lon="1.41334">
        <ele>2583</ele>
        <time>2013-07-07T11:40:14Z</time>
      </trkpt>
      <trkpt lat="42.6768" lon="1.41335">
        <ele>2582</ele>
        <time>2013-07-07T11:40:20Z</time>
      </trkpt>
      <trkpt lat="42.67689" lon="1.41336">
        <ele>2580</ele>
        <time>2013-07-07T11:40:28Z</time>
      </trkpt>
      <trkpt lat="42.67691" lon="1.41336">
        <ele>2580</ele>
        <time>2013-07-07T11:40:29Z</time>
      </trkpt>
      <trkpt lat="42.67696" lon="1.41337">
        <ele>2579</ele>
        <time>2013-07-07T11:40:33Z</time>
      </trkpt>
      <trkpt lat="42.677" lon="1.41341">
        <ele>2578</ele>
        <time>2013-07-07T11:40:38Z</time>
      </trkpt>
      <trkpt lat="42.67707" lon="1.41341">
        <ele>2576</ele>
        <time>2013-07-07T11:40:45Z</time>
      </trkpt>
      <trkpt lat="42.67716" lon="1.41344">
        <ele>2574</ele>
        <time>2013-07-07T11:40:53Z</time>
      </trkpt>
      <trkpt lat="42.67721" lon="1.41344">
        <ele>2573</ele>
        <time>2013-07-07T11:41:00Z</time>
      </trkpt>
      <trkpt lat="42.67719" lon="1.41332">
        <ele>2574</ele>
        <time>2013-07-07T11:41:13Z</time>
      </trkpt>
      <trkpt lat="42.67721" lon="1.41339">
        <ele>2573</ele>
        <time>2013-07-07T11:41:21Z</time>
      </trkpt>
      <trkpt lat="42.67732" lon="1.4134">
        <ele>2571</ele>
        <time>2013-07-07T11:41:30Z</time>
      </trkpt>
      <trkpt lat="42.67741" lon="1.4134">
        <ele>2569</ele>
        <time>2013-07-07T11:41:38Z</time>
      </trkpt>
      <trkpt lat="42.67752" lon="1.41335">
        <ele>2567</ele>
        <time>2013-07-07T11:41:49Z</time>
      </trkpt>
      <trkpt lat="42.67753" lon="1.41331">
        <ele>2566</ele>
        <time>2013-07-07T11:41:52Z</time>
      </trkpt>
      <trkpt lat="42.6776" lon="1.4132">
        <ele>2564</ele>
        <time>2013-07-07T11:42:02Z</time>
      </trkpt>
      <trkpt lat="42.67767" lon="1.41319">
        <ele>2562</ele>
        <time>2013-07-07T11:42:09Z</time>
      </trkpt>
      <trkpt lat="42.67768" lon="1.41319">
        <ele>2564</ele>
        <time>2013-07-07T11:42:10Z</time>
      </trkpt>
      <trkpt lat="42.67772" lon="1.41318">
        <ele>2562</ele>
        <time>2013-07-07T11:42:13Z</time>
      </trkpt>
      <trkpt lat="42.67776" lon="1.41317">
        <ele>2562</ele>
        <time>2013-07-07T11:42:18Z</time>
      </trkpt>
      <trkpt lat="42.67779" lon="1.41317">
        <ele>2561</ele>
        <time>2013-07-07T11:42:20Z</time>
      </trkpt>
      <trkpt lat="42.67787" lon="1.41316">
        <ele>2560</ele>
        <time>2013-07-07T11:42:28Z</time>
      </trkpt>
      <trkpt lat="42.67791" lon="1.41316">
        <ele>2560</ele>
        <time>2013-07-07T11:42:33Z</time>
      </trkpt>
      <trkpt lat="42.67797" lon="1.41315">
        <ele>2560</ele>
        <time>2013-07-07T11:42:41Z</time>
      </trkpt>
      <trkpt lat="42.67799" lon="1.41313">
        <ele>2561</ele>
        <time>2013-07-07T11:42:46Z</time>
      </trkpt>
      <trkpt lat="42.67803" lon="1.41311">
        <ele>2560</ele>
        <time>2013-07-07T11:42:52Z</time>
      </trkpt>
      <trkpt lat="42.67808" lon="1.41313">
        <ele>2559</ele>
        <time>2013-07-07T11:42:56Z</time>
      </trkpt>
      <trkpt lat="42.67811" lon="1.41312">
        <ele>2559</ele>
        <time>2013-07-07T11:42:58Z</time>
      </trkpt>
      <trkpt lat="42.6782" lon="1.41314">
        <ele>2557</ele>
        <time>2013-07-07T11:43:04Z</time>
      </trkpt>
      <trkpt lat="42.67829" lon="1.4132">
        <ele>2555</ele>
        <time>2013-07-07T11:43:11Z</time>
      </trkpt>
      <trkpt lat="42.6783" lon="1.4132">
        <ele>2555</ele>
        <time>2013-07-07T11:43:12Z</time>
      </trkpt>
      <trkpt lat="42.67837" lon="1.41328">
        <ele>2553</ele>
        <time>2013-07-07T11:43:20Z</time>
      </trkpt>
      <trkpt lat="42.67844" lon="1.41336">
        <ele>2552</ele>
        <time>2013-07-07T11:43:28Z</time>
      </trkpt>
      <trkpt lat="42.67848" lon="1.41339">
        <ele>2551</ele>
        <time>2013-07-07T11:43:31Z</time>
      </trkpt>
      <trkpt lat="42.67855" lon="1.41349">
        <ele>2549</ele>
        <time>2013-07-07T11:43:38Z</time>
      </trkpt>
      <trkpt lat="42.67859" lon="1.41351">
        <ele>2548</ele>
        <time>2013-07-07T11:43:41Z</time>
      </trkpt>
      <trkpt lat="42.67863" lon="1.41356">
        <ele>2547</ele>
        <time>2013-07-07T11:43:46Z</time>
      </trkpt>
      <trkpt lat="42.67866" lon="1.41359">
        <ele>2546</ele>
        <time>2013-07-07T11:43:50Z</time>
      </trkpt>
      <trkpt lat="42.67868" lon="1.41361">
        <ele>2546</ele>
        <time>2013-07-07T11:43:52Z</time>
      </trkpt>
      <trkpt lat="42.67873" lon="1.41369">
        <ele>2544</ele>
        <time>2013-07-07T11:43:59Z</time>
      </trkpt>
      <trkpt lat="42.67874" lon="1.4137">
        <ele>2544</ele>
        <time>2013-07-07T11:44:00Z</time>
      </trkpt>
      <trkpt lat="42.67876" lon="1.41378">
        <ele>2543</ele>
        <time>2013-07-07T11:44:08Z</time>
      </trkpt>
      <trkpt lat="42.67877" lon="1.4138">
        <ele>2543</ele>
        <time>2013-07-07T11:44:10Z</time>
      </trkpt>
      <trkpt lat="42.67878" lon="1.41382">
        <ele>2542</ele>
        <time>2013-07-07T11:44:12Z</time>
      </trkpt>
      <trkpt lat="42.67882" lon="1.4139">
        <ele>2541</ele>
        <time>2013-07-07T11:44:19Z</time>
      </trkpt>
      <trkpt lat="42.67883" lon="1.41391">
        <ele>2539</ele>
        <time>2013-07-07T11:44:25Z</time>
      </trkpt>
      <trkpt lat="42.67884" lon="1.41392">
        <ele>2538</ele>
        <time>2013-07-07T11:44:34Z</time>
      </trkpt>
      <trkpt lat="42.67887" lon="1.41397">
        <ele>2537</ele>
        <time>2013-07-07T11:44:41Z</time>
      </trkpt>
      <trkpt lat="42.67888" lon="1.41398">
        <ele>2536</ele>
        <time>2013-07-07T11:44:43Z</time>
      </trkpt>
      <trkpt lat="42.67891" lon="1.41402">
        <ele>2535</ele>
        <time>2013-07-07T11:44:50Z</time>
      </trkpt>
      <trkpt lat="42.67892" lon="1.41404">
        <ele>2534</ele>
        <time>2013-07-07T11:44:55Z</time>
      </trkpt>
      <trkpt lat="42.67896" lon="1.41407">
        <ele>2532</ele>
        <time>2013-07-07T11:45:02Z</time>
      </trkpt>
      <trkpt lat="42.67895" lon="1.41403">
        <ele>2532</ele>
        <time>2013-07-07T11:45:13Z</time>
      </trkpt>
      <trkpt lat="42.67893" lon="1.41405">
        <ele>2532</ele>
        <time>2013-07-07T11:45:25Z</time>
      </trkpt>
      <trkpt lat="42.67894" lon="1.41406">
        <ele>2532</ele>
        <time>2013-07-07T11:45:32Z</time>
      </trkpt>
      <trkpt lat="42.67892" lon="1.41411">
        <ele>2532</ele>
        <time>2013-07-07T11:45:39Z</time>
      </trkpt>
      <trkpt lat="42.67891" lon="1.41415">
        <ele>2532</ele>
        <time>2013-07-07T11:45:45Z</time>
      </trkpt>
      <trkpt lat="42.6789" lon="1.41421">
        <ele>2531</ele>
        <time>2013-07-07T11:45:50Z</time>
      </trkpt>
      <trkpt lat="42.6789" lon="1.41426">
        <ele>2531</ele>
        <time>2013-07-07T11:45:57Z</time>
      </trkpt>
      <trkpt lat="42.67891" lon="1.41435">
        <ele>2530</ele>
        <time>2013-07-07T11:46:06Z</time>
      </trkpt>
      <trkpt lat="42.67891" lon="1.41438">
        <ele>2529</ele>
        <time>2013-07-07T11:46:12Z</time>
      </trkpt>
      <trkpt lat="42.6789" lon="1.41445">
        <ele>2530</ele>
        <time>2013-07-07T11:46:19Z</time>
      </trkpt>
      <trkpt lat="42.6789" lon="1.41448">
        <ele>2529</ele>
        <time>2013-07-07T11:46:26Z</time>
      </trkpt>
      <trkpt lat="42.67894" lon="1.41448">
        <ele>2529</ele>
        <time>2013-07-07T11:46:33Z</time>
      </trkpt>
      <trkpt lat="42.67896" lon="1.41449">
        <ele>2528</ele>
        <time>2013-07-07T11:46:41Z</time>
      </trkpt>
      <trkpt lat="42.67896" lon="1.4145">
        <ele>2529</ele>
        <time>2013-07-07T11:46:47Z</time>
      </trkpt>
      <trkpt lat="42.67897" lon="1.41451">
        <ele>2529</ele>
        <time>2013-07-07T11:46:54Z</time>
      </trkpt>
      <trkpt lat="42.67896" lon="1.41451">
        <ele>2530</ele>
        <time>2013-07-07T11:47:01Z</time>
      </trkpt>
      <trkpt lat="42.67892" lon="1.41446">
        <ele>2529</ele>
        <time>2013-07-07T11:47:11Z</time>
      </trkpt>
      <trkpt lat="42.67888" lon="1.41449">
        <ele>2528</ele>
        <time>2013-07-07T11:47:19Z</time>
      </trkpt>
      <trkpt lat="42.67887" lon="1.41453">
        <ele>2527</ele>
        <time>2013-07-07T11:47:26Z</time>
      </trkpt>
      <trkpt lat="42.67886" lon="1.41455">
        <ele>2526</ele>
        <time>2013-07-07T11:47:33Z</time>
      </trkpt>
      <trkpt lat="42.67888" lon="1.41459">
        <ele>2525</ele>
        <time>2013-07-07T11:47:44Z</time>
      </trkpt>
      <trkpt lat="42.6789" lon="1.41463">
        <ele>2524</ele>
        <time>2013-07-07T11:47:53Z</time>
      </trkpt>
      <trkpt lat="42.67888" lon="1.41464">
        <ele>2523</ele>
        <time>2013-07-07T11:47:59Z</time>
      </trkpt>
      <trkpt lat="42.6789" lon="1.41466">
        <ele>2522</ele>
        <time>2013-07-07T11:48:05Z</time>
      </trkpt>
      <trkpt lat="42.6789" lon="1.41467">
        <ele>2520</ele>
        <time>2013-07-07T11:48:12Z</time>
      </trkpt>
      <trkpt lat="42.67891" lon="1.41468">
        <ele>2520</ele>
        <time>2013-07-07T11:48:19Z</time>
      </trkpt>
      <trkpt lat="42.67891" lon="1.41466">
        <ele>2519</ele>
        <time>2013-07-07T11:48:26Z</time>
      </trkpt>
      <trkpt lat="42.67891" lon="1.41469">
        <ele>2518</ele>
        <time>2013-07-07T11:48:34Z</time>
      </trkpt>
      <trkpt lat="42.6789" lon="1.41469">
        <ele>2518</ele>
        <time>2013-07-07T11:48:43Z</time>
      </trkpt>
      <trkpt lat="42.6789" lon="1.41472">
        <ele>2517</ele>
        <time>2013-07-07T11:48:53Z</time>
      </trkpt>
      <trkpt lat="42.67892" lon="1.41473">
        <ele>2517</ele>
        <time>2013-07-07T11:49:03Z</time>
      </trkpt>
      <trkpt lat="42.67893" lon="1.41472">
        <ele>2516</ele>
        <time>2013-07-07T11:49:06Z</time>
      </trkpt>
      <trkpt lat="42.67895" lon="1.41473">
        <ele>2515</ele>
        <time>2013-07-07T11:49:13Z</time>
      </trkpt>
      <trkpt lat="42.67894" lon="1.41467">
        <ele>2515</ele>
        <time>2013-07-07T11:49:29Z</time>
      </trkpt>
      <trkpt lat="42.67895" lon="1.4147">
        <ele>2515</ele>
        <time>2013-07-07T11:49:35Z</time>
      </trkpt>
      <trkpt lat="42.67895" lon="1.41472">
        <ele>2515</ele>
        <time>2013-07-07T11:49:44Z</time>
      </trkpt>
      <trkpt lat="42.67894" lon="1.41474">
        <ele>2514</ele>
        <time>2013-07-07T11:49:52Z</time>
      </trkpt>
      <trkpt lat="42.67896" lon="1.41476">
        <ele>2513</ele>
        <time>2013-07-07T11:50:02Z</time>
      </trkpt>
      <trkpt lat="42.67898" lon="1.41474">
        <ele>2512</ele>
        <time>2013-07-07T11:50:12Z</time>
      </trkpt>
      <trkpt lat="42.67899" lon="1.41471">
        <ele>2512</ele>
        <time>2013-07-07T11:50:20Z</time>
      </trkpt>
      <trkpt lat="42.67899" lon="1.41474">
        <ele>2512</ele>
        <time>2013-07-07T11:50:32Z</time>
      </trkpt>
      <trkpt lat="42.67899" lon="1.41474">
        <ele>2511</ele>
        <time>2013-07-07T11:50:40Z</time>
      </trkpt>
      <trkpt lat="42.67898" lon="1.41474">
        <ele>2510</ele>
        <time>2013-07-07T11:50:50Z</time>
      </trkpt>
      <trkpt lat="42.67899" lon="1.41473">
        <ele>2509</ele>
        <time>2013-07-07T11:51:00Z</time>
      </trkpt>
      <trkpt lat="42.67898" lon="1.41472">
        <ele>2510</ele>
        <time>2013-07-07T11:51:12Z</time>
      </trkpt>
      <trkpt lat="42.67902" lon="1.41476">
        <ele>2508</ele>
        <time>2013-07-07T11:51:23Z</time>
      </trkpt>
      <trkpt lat="42.67905" lon="1.41477">
        <ele>2507</ele>
        <time>2013-07-07T11:51:30Z</time>
      </trkpt>
      <trkpt lat="42.67908" lon="1.41476">
        <ele>2504</ele>
        <time>2013-07-07T11:51:40Z</time>
      </trkpt>
      <trkpt lat="42.67906" lon="1.41478">
        <ele>2504</ele>
        <time>2013-07-07T11:51:48Z</time>
      </trkpt>
      <trkpt lat="42.67909" lon="1.41481">
        <ele>2502</ele>
        <time>2013-07-07T11:51:56Z</time>
      </trkpt>
      <trkpt lat="42.67912" lon="1.4148">
        <ele>2501</ele>
        <time>2013-07-07T11:52:05Z</time>
      </trkpt>
      <trkpt lat="42.67912" lon="1.41481">
        <ele>2501</ele>
        <time>2013-07-07T11:52:15Z</time>
      </trkpt>
      <trkpt lat="42.67915" lon="1.41485">
        <ele>2499</ele>
        <time>2013-07-07T11:52:21Z</time>
      </trkpt>
      <trkpt lat="42.67915" lon="1.41487">
        <ele>2498</ele>
        <time>2013-07-07T11:52:29Z</time>
      </trkpt>
      <trkpt lat="42.67916" lon="1.4149">
        <ele>2497</ele>
        <time>2013-07-07T11:52:36Z</time>
      </trkpt>
      <trkpt lat="42.6792" lon="1.41493">
        <ele>2494</ele>
        <time>2013-07-07T11:52:44Z</time>
      </trkpt>
      <trkpt lat="42.6792" lon="1.41493">
        <ele>2494</ele>
        <time>2013-07-07T11:52:45Z</time>
      </trkpt>
      <trkpt lat="42.67921" lon="1.41495">
        <ele>2493</ele>
        <time>2013-07-07T11:52:52Z</time>
      </trkpt>
      <trkpt lat="42.67923" lon="1.41497">
        <ele>2492</ele>
        <time>2013-07-07T11:53:04Z</time>
      </trkpt>
      <trkpt lat="42.67926" lon="1.41498">
        <ele>2490</ele>
        <time>2013-07-07T11:53:10Z</time>
      </trkpt>
      <trkpt lat="42.67927" lon="1.41499">
        <ele>2489</ele>
        <time>2013-07-07T11:53:20Z</time>
      </trkpt>
      <trkpt lat="42.6793" lon="1.41501">
        <ele>2488</ele>
        <time>2013-07-07T11:53:26Z</time>
      </trkpt>
      <trkpt lat="42.67932" lon="1.41502">
        <ele>2487</ele>
        <time>2013-07-07T11:53:34Z</time>
      </trkpt>
      <trkpt lat="42.67931" lon="1.41492">
        <ele>2485</ele>
        <time>2013-07-07T11:53:43Z</time>
      </trkpt>
      <trkpt lat="42.6793" lon="1.41491">
        <ele>2485</ele>
        <time>2013-07-07T11:53:54Z</time>
      </trkpt>
      <trkpt lat="42.67931" lon="1.41496">
        <ele>2485</ele>
        <time>2013-07-07T11:54:00Z</time>
      </trkpt>
      <trkpt lat="42.67931" lon="1.41498">
        <ele>2484</ele>
        <time>2013-07-07T11:54:03Z</time>
      </trkpt>
      <trkpt lat="42.6793" lon="1.41502">
        <ele>2483</ele>
        <time>2013-07-07T11:54:09Z</time>
      </trkpt>
      <trkpt lat="42.6793" lon="1.41504">
        <ele>2481</ele>
        <time>2013-07-07T11:54:15Z</time>
      </trkpt>
      <trkpt lat="42.67931" lon="1.41501">
        <ele>2482</ele>
        <time>2013-07-07T11:54:25Z</time>
      </trkpt>
      <trkpt lat="42.6793" lon="1.41502">
        <ele>2481</ele>
        <time>2013-07-07T11:54:31Z</time>
      </trkpt>
      <trkpt lat="42.67927" lon="1.41504">
        <ele>2482</ele>
        <time>2013-07-07T11:54:39Z</time>
      </trkpt>
      <trkpt lat="42.67925" lon="1.41505">
        <ele>2480</ele>
        <time>2013-07-07T11:54:45Z</time>
      </trkpt>
      <trkpt lat="42.67925" lon="1.41506">
        <ele>2483</ele>
        <time>2013-07-07T11:54:46Z</time>
      </trkpt>
      <trkpt lat="42.67924" lon="1.41507">
        <ele>2481</ele>
        <time>2013-07-07T11:54:57Z</time>
      </trkpt>
      <trkpt lat="42.67923" lon="1.41507">
        <ele>2481</ele>
        <time>2013-07-07T11:55:08Z</time>
      </trkpt>
      <trkpt lat="42.67922" lon="1.4151">
        <ele>2480</ele>
        <time>2013-07-07T11:55:13Z</time>
      </trkpt>
      <trkpt lat="42.67924" lon="1.41514">
        <ele>2479</ele>
        <time>2013-07-07T11:55:20Z</time>
      </trkpt>
      <trkpt lat="42.67924" lon="1.41517">
        <ele>2477</ele>
        <time>2013-07-07T11:55:27Z</time>
      </trkpt>
      <trkpt lat="42.67924" lon="1.41518">
        <ele>2476</ele>
        <time>2013-07-07T11:55:33Z</time>
      </trkpt>
      <trkpt lat="42.67924" lon="1.41515">
        <ele>2476</ele>
        <time>2013-07-07T11:55:42Z</time>
      </trkpt>
      <trkpt lat="42.67928" lon="1.41519">
        <ele>2475</ele>
        <time>2013-07-07T11:55:52Z</time>
      </trkpt>
      <trkpt lat="42.67927" lon="1.41519">
        <ele>2474</ele>
        <time>2013-07-07T11:56:02Z</time>
      </trkpt>
      <trkpt lat="42.67929" lon="1.41522">
        <ele>2473</ele>
        <time>2013-07-07T11:56:10Z</time>
      </trkpt>
      <trkpt lat="42.67931" lon="1.41526">
        <ele>2471</ele>
        <time>2013-07-07T11:56:18Z</time>
      </trkpt>
      <trkpt lat="42.67931" lon="1.41526">
        <ele>2470</ele>
        <time>2013-07-07T11:56:25Z</time>
      </trkpt>
      <trkpt lat="42.67929" lon="1.41525">
        <ele>2469</ele>
        <time>2013-07-07T11:56:32Z</time>
      </trkpt>
      <trkpt lat="42.67926" lon="1.41528">
        <ele>2468</ele>
        <time>2013-07-07T11:56:41Z</time>
      </trkpt>
      <trkpt lat="42.67925" lon="1.41529">
        <ele>2467</ele>
        <time>2013-07-07T11:56:48Z</time>
      </trkpt>
      <trkpt lat="42.67919" lon="1.41526">
        <ele>2466</ele>
        <time>2013-07-07T11:56:57Z</time>
      </trkpt>
      <trkpt lat="42.67915" lon="1.41526">
        <ele>2466</ele>
        <time>2013-07-07T11:57:08Z</time>
      </trkpt>
      <trkpt lat="42.67915" lon="1.41529">
        <ele>2465</ele>
        <time>2013-07-07T11:57:16Z</time>
      </trkpt>
      <trkpt lat="42.67915" lon="1.41533">
        <ele>2465</ele>
        <time>2013-07-07T11:57:27Z</time>
      </trkpt>
      <trkpt lat="42.67915" lon="1.41534">
        <ele>2464</ele>
        <time>2013-07-07T11:57:35Z</time>
      </trkpt>
      <trkpt lat="42.67913" lon="1.41539">
        <ele>2464</ele>
        <time>2013-07-07T11:57:42Z</time>
      </trkpt>
      <trkpt lat="42.67914" lon="1.41539">
        <ele>2464</ele>
        <time>2013-07-07T11:57:54Z</time>
      </trkpt>
      <trkpt lat="42.67912" lon="1.41543">
        <ele>2464</ele>
        <time>2013-07-07T11:57:58Z</time>
      </trkpt>
      <trkpt lat="42.67911" lon="1.4155">
        <ele>2464</ele>
        <time>2013-07-07T11:58:06Z</time>
      </trkpt>
      <trkpt lat="42.67912" lon="1.41555">
        <ele>2464</ele>
        <time>2013-07-07T11:58:15Z</time>
      </trkpt>
      <trkpt lat="42.6791" lon="1.41547">
        <ele>2465</ele>
        <time>2013-07-07T11:58:26Z</time>
      </trkpt>
      <trkpt lat="42.67908" lon="1.41548">
        <ele>2465</ele>
        <time>2013-07-07T11:58:35Z</time>
      </trkpt>
      <trkpt lat="42.67904" lon="1.41548">
        <ele>2464</ele>
        <time>2013-07-07T11:58:45Z</time>
      </trkpt>
      <trkpt lat="42.67904" lon="1.4155">
        <ele>2463</ele>
        <time>2013-07-07T11:58:54Z</time>
      </trkpt>
      <trkpt lat="42.67908" lon="1.41561">
        <ele>2461</ele>
        <time>2013-07-07T11:59:03Z</time>
      </trkpt>
      <trkpt lat="42.6791" lon="1.41565">
        <ele>2461</ele>
        <time>2013-07-07T11:59:10Z</time>
      </trkpt>
      <trkpt lat="42.67908" lon="1.41564">
        <ele>2460</ele>
        <time>2013-07-07T11:59:22Z</time>
      </trkpt>
      <trkpt lat="42.67907" lon="1.41568">
        <ele>2460</ele>
        <time>2013-07-07T11:59:32Z</time>
      </trkpt>
      <trkpt lat="42.67907" lon="1.41579">
        <ele>2457</ele>
        <time>2013-07-07T11:59:41Z</time>
      </trkpt>
      <trkpt lat="42.67906" lon="1.41578">
        <ele>2457</ele>
        <time>2013-07-07T11:59:52Z</time>
      </trkpt>
      <trkpt lat="42.67906" lon="1.41577">
        <ele>2456</ele>
        <time>2013-07-07T12:00:05Z</time>
      </trkpt>
      <trkpt lat="42.67906" lon="1.41569">
        <ele>2457</ele>
        <time>2013-07-07T12:00:13Z</time>
      </trkpt>
      <trkpt lat="42.67906" lon="1.41575">
        <ele>2456</ele>
        <time>2013-07-07T12:00:24Z</time>
      </trkpt>
      <trkpt lat="42.67903" lon="1.41575">
        <ele>2457</ele>
        <time>2013-07-07T12:00:37Z</time>
      </trkpt>
      <trkpt lat="42.67902" lon="1.41573">
        <ele>2456</ele>
        <time>2013-07-07T12:00:50Z</time>
      </trkpt>
      <trkpt lat="42.67902" lon="1.41573">
        <ele>2457</ele>
        <time>2013-07-07T12:01:01Z</time>
      </trkpt>
      <trkpt lat="42.67901" lon="1.41572">
        <ele>2457</ele>
        <time>2013-07-07T12:01:11Z</time>
      </trkpt>
      <trkpt lat="42.67904" lon="1.41572">
        <ele>2456</ele>
        <time>2013-07-07T12:01:15Z</time>
      </trkpt>
      <trkpt lat="42.67909" lon="1.41567">
        <ele>2456</ele>
        <time>2013-07-07T12:01:27Z</time>
      </trkpt>
      <trkpt lat="42.67905" lon="1.41568">
        <ele>2456</ele>
        <time>2013-07-07T12:01:45Z</time>
      </trkpt>
      <trkpt lat="42.67889" lon="1.41558">
        <ele>2456</ele>
        <time>2013-07-07T12:02:03Z</time>
      </trkpt>
      <trkpt lat="42.679" lon="1.4157">
        <ele>2457</ele>
        <time>2013-07-07T12:02:11Z</time>
      </trkpt>
      <trkpt lat="42.67903" lon="1.41571">
        <ele>2457</ele>
        <time>2013-07-07T12:02:20Z</time>
      </trkpt>
      <trkpt lat="42.679" lon="1.41571">
        <ele>2457</ele>
        <time>2013-07-07T12:02:30Z</time>
      </trkpt>
      <trkpt lat="42.67902" lon="1.41573">
        <ele>2457</ele>
        <time>2013-07-07T12:02:38Z</time>
      </trkpt>
      <trkpt lat="42.67901" lon="1.41574">
        <ele>2456</ele>
        <time>2013-07-07T12:02:49Z</time>
      </trkpt>
      <trkpt lat="42.67902" lon="1.41572">
        <ele>2456</ele>
        <time>2013-07-07T12:03:02Z</time>
      </trkpt>
      <trkpt lat="42.67901" lon="1.41567">
        <ele>2457</ele>
        <time>2013-07-07T12:03:09Z</time>
      </trkpt>
      <trkpt lat="42.67898" lon="1.41561">
        <ele>2455</ele>
        <time>2013-07-07T12:03:16Z</time>
      </trkpt>
      <trkpt lat="42.67895" lon="1.41562">
        <ele>2453</ele>
        <time>2013-07-07T12:03:25Z</time>
      </trkpt>
      <trkpt lat="42.67887" lon="1.41567">
        <ele>2451</ele>
        <time>2013-07-07T12:03:34Z</time>
      </trkpt>
      <trkpt lat="42.67885" lon="1.41579">
        <ele>2450</ele>
        <time>2013-07-07T12:03:43Z</time>
      </trkpt>
      <trkpt lat="42.67881" lon="1.41579">
        <ele>2449</ele>
        <time>2013-07-07T12:03:54Z</time>
      </trkpt>
      <trkpt lat="42.67879" lon="1.41585">
        <ele>2447</ele>
        <time>2013-07-07T12:04:02Z</time>
      </trkpt>
      <trkpt lat="42.6788" lon="1.41586">
        <ele>2446</ele>
        <time>2013-07-07T12:04:10Z</time>
      </trkpt>
      <trkpt lat="42.67879" lon="1.41584">
        <ele>2445</ele>
        <time>2013-07-07T12:04:18Z</time>
      </trkpt>
      <trkpt lat="42.67877" lon="1.41575">
        <ele>2445</ele>
        <time>2013-07-07T12:04:27Z</time>
      </trkpt>
      <trkpt lat="42.67878" lon="1.41577">
        <ele>2444</ele>
        <time>2013-07-07T12:04:37Z</time>
      </trkpt>
      <trkpt lat="42.67877" lon="1.41578">
        <ele>2444</ele>
        <time>2013-07-07T12:04:44Z</time>
      </trkpt>
      <trkpt lat="42.67879" lon="1.41577">
        <ele>2443</ele>
        <time>2013-07-07T12:04:54Z</time>
      </trkpt>
      <trkpt lat="42.67878" lon="1.41577">
        <ele>2443</ele>
        <time>2013-07-07T12:05:02Z</time>
      </trkpt>
      <trkpt lat="42.67875" lon="1.41574">
        <ele>2444</ele>
        <time>2013-07-07T12:05:13Z</time>
      </trkpt>
      <trkpt lat="42.6787" lon="1.41573">
        <ele>2443</ele>
        <time>2013-07-07T12:05:27Z</time>
      </trkpt>
      <trkpt lat="42.67871" lon="1.41575">
        <ele>2442</ele>
        <time>2013-07-07T12:05:38Z</time>
      </trkpt>
      <trkpt lat="42.6787" lon="1.41572">
        <ele>2442</ele>
        <time>2013-07-07T12:05:46Z</time>
      </trkpt>
      <trkpt lat="42.67869" lon="1.4157">
        <ele>2442</ele>
        <time>2013-07-07T12:05:57Z</time>
      </trkpt>
      <trkpt lat="42.67868" lon="1.41568">
        <ele>2442</ele>
        <time>2013-07-07T12:06:11Z</time>
      </trkpt>
      <trkpt lat="42.67866" lon="1.41571">
        <ele>2442</ele>
        <time>2013-07-07T12:06:27Z</time>
      </trkpt>
      <trkpt lat="42.67866" lon="1.41576">
        <ele>2441</ele>
        <time>2013-07-07T12:06:40Z</time>
      </trkpt>
      <trkpt lat="42.6786" lon="1.41579">
        <ele>2440</ele>
        <time>2013-07-07T12:06:48Z</time>
      </trkpt>
      <trkpt lat="42.67862" lon="1.41584">
        <ele>2439</ele>
        <time>2013-07-07T12:06:57Z</time>
      </trkpt>
      <trkpt lat="42.6786" lon="1.41587">
        <ele>2437</ele>
        <time>2013-07-07T12:07:05Z</time>
      </trkpt>
      <trkpt lat="42.67857" lon="1.41589">
        <ele>2435</ele>
        <time>2013-07-07T12:07:14Z</time>
      </trkpt>
      <trkpt lat="42.67856" lon="1.41593">
        <ele>2433</ele>
        <time>2013-07-07T12:07:23Z</time>
      </trkpt>
      <trkpt lat="42.67853" lon="1.41598">
        <ele>2431</ele>
        <time>2013-07-07T12:07:32Z</time>
      </trkpt>
      <trkpt lat="42.67849" lon="1.41601">
        <ele>2429</ele>
        <time>2013-07-07T12:07:41Z</time>
      </trkpt>
      <trkpt lat="42.67849" lon="1.41605">
        <ele>2429</ele>
        <time>2013-07-07T12:07:49Z</time>
      </trkpt>
      <trkpt lat="42.67857" lon="1.4161">
        <ele>2428</ele>
        <time>2013-07-07T12:07:55Z</time>
      </trkpt>
      <trkpt lat="42.67861" lon="1.41611">
        <ele>2426</ele>
        <time>2013-07-07T12:08:02Z</time>
      </trkpt>
      <trkpt lat="42.67859" lon="1.41609">
        <ele>2426</ele>
        <time>2013-07-07T12:08:10Z</time>
      </trkpt>
      <trkpt lat="42.67861" lon="1.4161">
        <ele>2425</ele>
        <time>2013-07-07T12:08:18Z</time>
      </trkpt>
      <trkpt lat="42.67859" lon="1.41611">
        <ele>2424</ele>
        <time>2013-07-07T12:08:27Z</time>
      </trkpt>
      <trkpt lat="42.67862" lon="1.41614">
        <ele>2423</ele>
        <time>2013-07-07T12:08:32Z</time>
      </trkpt>
      <trkpt lat="42.67862" lon="1.41618">
        <ele>2421</ele>
        <time>2013-07-07T12:08:43Z</time>
      </trkpt>
      <trkpt lat="42.67863" lon="1.4162">
        <ele>2419</ele>
        <time>2013-07-07T12:08:50Z</time>
      </trkpt>
      <trkpt lat="42.67862" lon="1.41621">
        <ele>2418</ele>
        <time>2013-07-07T12:08:57Z</time>
      </trkpt>
      <trkpt lat="42.67862" lon="1.41624">
        <ele>2417</ele>
        <time>2013-07-07T12:09:01Z</time>
      </trkpt>
      <trkpt lat="42.67863" lon="1.41629">
        <ele>2415</ele>
        <time>2013-07-07T12:09:09Z</time>
      </trkpt>
      <trkpt lat="42.67862" lon="1.41623">
        <ele>2416</ele>
        <time>2013-07-07T12:09:17Z</time>
      </trkpt>
      <trkpt lat="42.67863" lon="1.41622">
        <ele>2415</ele>
        <time>2013-07-07T12:09:29Z</time>
      </trkpt>
      <trkpt lat="42.67863" lon="1.41623">
        <ele>2415</ele>
        <time>2013-07-07T12:09:40Z</time>
      </trkpt>
      <trkpt lat="42.67854" lon="1.41619">
        <ele>2415</ele>
        <time>2013-07-07T12:09:52Z</time>
      </trkpt>
      <trkpt lat="42.67855" lon="1.4162">
        <ele>2415</ele>
        <time>2013-07-07T12:10:21Z</time>
      </trkpt>
      <trkpt lat="42.67865" lon="1.41623">
        <ele>2416</ele>
        <time>2013-07-07T12:10:30Z</time>
      </trkpt>
      <trkpt lat="42.67863" lon="1.41621">
        <ele>2415</ele>
        <time>2013-07-07T12:10:42Z</time>
      </trkpt>
      <trkpt lat="42.67864" lon="1.41619">
        <ele>2415</ele>
        <time>2013-07-07T12:10:57Z</time>
      </trkpt>
      <trkpt lat="42.67857" lon="1.41622">
        <ele>2415</ele>
        <time>2013-07-07T12:11:14Z</time>
      </trkpt>
      <trkpt lat="42.67856" lon="1.41622">
        <ele>2414</ele>
        <time>2013-07-07T12:11:28Z</time>
      </trkpt>
      <trkpt lat="42.6786" lon="1.41621">
        <ele>2415</ele>
        <time>2013-07-07T12:11:38Z</time>
      </trkpt>
      <trkpt lat="42.67861" lon="1.4162">
        <ele>2415</ele>
        <time>2013-07-07T12:11:53Z</time>
      </trkpt>
      <trkpt lat="42.67861" lon="1.4162">
        <ele>2415</ele>
        <time>2013-07-07T12:12:08Z</time>
      </trkpt>
      <trkpt lat="42.67864" lon="1.41621">
        <ele>2414</ele>
        <time>2013-07-07T12:12:36Z</time>
      </trkpt>
      <trkpt lat="42.67857" lon="1.41622">
        <ele>2415</ele>
        <time>2013-07-07T12:12:54Z</time>
      </trkpt>
      <trkpt lat="42.67862" lon="1.41622">
        <ele>2414</ele>
        <time>2013-07-07T12:13:09Z</time>
      </trkpt>
      <trkpt lat="42.67864" lon="1.41618">
        <ele>2414</ele>
        <time>2013-07-07T12:13:23Z</time>
      </trkpt>
      <trkpt lat="42.67862" lon="1.41618">
        <ele>2414</ele>
        <time>2013-07-07T12:14:40Z</time>
      </trkpt>
      <trkpt lat="42.67859" lon="1.4162">
        <ele>2414</ele>
        <time>2013-07-07T12:14:57Z</time>
      </trkpt>
      <trkpt lat="42.67856" lon="1.41616">
        <ele>2414</ele>
        <time>2013-07-07T12:15:13Z</time>
      </trkpt>
      <trkpt lat="42.67858" lon="1.41621">
        <ele>2414</ele>
        <time>2013-07-07T12:15:25Z</time>
      </trkpt>
      <trkpt lat="42.67857" lon="1.41626">
        <ele>2414</ele>
        <time>2013-07-07T12:15:37Z</time>
      </trkpt>
      <trkpt lat="42.67855" lon="1.41627">
        <ele>2414</ele>
        <time>2013-07-07T12:15:45Z</time>
      </trkpt>
      <trkpt lat="42.67853" lon="1.41629">
        <ele>2412</ele>
        <time>2013-07-07T12:15:56Z</time>
      </trkpt>
      <trkpt lat="42.67852" lon="1.41634">
        <ele>2412</ele>
        <time>2013-07-07T12:16:08Z</time>
      </trkpt>
      <trkpt lat="42.6785" lon="1.4164">
        <ele>2411</ele>
        <time>2013-07-07T12:16:22Z</time>
      </trkpt>
      <trkpt lat="42.67851" lon="1.41644">
        <ele>2409</ele>
        <time>2013-07-07T12:16:30Z</time>
      </trkpt>
      <trkpt lat="42.67852" lon="1.41646">
        <ele>2409</ele>
        <time>2013-07-07T12:16:39Z</time>
      </trkpt>
      <trkpt lat="42.67851" lon="1.41651">
        <ele>2409</ele>
        <time>2013-07-07T12:16:49Z</time>
      </trkpt>
      <trkpt lat="42.6785" lon="1.41655">
        <ele>2408</ele>
        <time>2013-07-07T12:16:59Z</time>
      </trkpt>
      <trkpt lat="42.6785" lon="1.41657">
        <ele>2406</ele>
        <time>2013-07-07T12:17:09Z</time>
      </trkpt>
      <trkpt lat="42.67852" lon="1.41659">
        <ele>2405</ele>
        <time>2013-07-07T12:17:18Z</time>
      </trkpt>
      <trkpt lat="42.67848" lon="1.41663">
        <ele>2405</ele>
        <time>2013-07-07T12:17:32Z</time>
      </trkpt>
      <trkpt lat="42.67848" lon="1.41668">
        <ele>2403</ele>
        <time>2013-07-07T12:17:39Z</time>
      </trkpt>
      <trkpt lat="42.67848" lon="1.41671">
        <ele>2402</ele>
        <time>2013-07-07T12:17:45Z</time>
      </trkpt>
      <trkpt lat="42.67848" lon="1.41675">
        <ele>2401</ele>
        <time>2013-07-07T12:17:53Z</time>
      </trkpt>
      <trkpt lat="42.6785" lon="1.41677">
        <ele>2401</ele>
        <time>2013-07-07T12:18:00Z</time>
      </trkpt>
      <trkpt lat="42.6785" lon="1.41682">
        <ele>2400</ele>
        <time>2013-07-07T12:18:06Z</time>
      </trkpt>
      <trkpt lat="42.67851" lon="1.41685">
        <ele>2399</ele>
        <time>2013-07-07T12:18:12Z</time>
      </trkpt>
      <trkpt lat="42.67849" lon="1.41691">
        <ele>2399</ele>
        <time>2013-07-07T12:18:18Z</time>
      </trkpt>
      <trkpt lat="42.67849" lon="1.41696">
        <ele>2399</ele>
        <time>2013-07-07T12:18:24Z</time>
      </trkpt>
      <trkpt lat="42.67849" lon="1.41697">
        <ele>2398</ele>
        <time>2013-07-07T12:18:34Z</time>
      </trkpt>
      <trkpt lat="42.67847" lon="1.41699">
        <ele>2398</ele>
        <time>2013-07-07T12:18:40Z</time>
      </trkpt>
      <trkpt lat="42.67848" lon="1.41698">
        <ele>2401</ele>
        <time>2013-07-07T12:18:45Z</time>
      </trkpt>
      <trkpt lat="42.67847" lon="1.41698">
        <ele>2398</ele>
        <time>2013-07-07T12:18:47Z</time>
      </trkpt>
      <trkpt lat="42.67847" lon="1.41698">
        <ele>2398</ele>
        <time>2013-07-07T12:18:48Z</time>
      </trkpt>
      <trkpt lat="42.67843" lon="1.41698">
        <ele>2397</ele>
        <time>2013-07-07T12:18:59Z</time>
      </trkpt>
      <trkpt lat="42.6784" lon="1.41699">
        <ele>2396</ele>
        <time>2013-07-07T12:19:08Z</time>
      </trkpt>
      <trkpt lat="42.67838" lon="1.41699">
        <ele>2395</ele>
        <time>2013-07-07T12:19:23Z</time>
      </trkpt>
      <trkpt lat="42.67843" lon="1.417">
        <ele>2396</ele>
        <time>2013-07-07T12:19:38Z</time>
      </trkpt>
      <trkpt lat="42.67843" lon="1.41701">
        <ele>2398</ele>
        <time>2013-07-07T12:19:49Z</time>
      </trkpt>
      <trkpt lat="42.67842" lon="1.41699">
        <ele>2396</ele>
        <time>2013-07-07T12:20:00Z</time>
      </trkpt>
      <trkpt lat="42.67845" lon="1.41699">
        <ele>2395</ele>
        <time>2013-07-07T12:20:11Z</time>
      </trkpt>
      <trkpt lat="42.67845" lon="1.417">
        <ele>2395</ele>
        <time>2013-07-07T12:20:22Z</time>
      </trkpt>
      <trkpt lat="42.67845" lon="1.41702">
        <ele>2395</ele>
        <time>2013-07-07T12:20:35Z</time>
      </trkpt>
      <trkpt lat="42.67842" lon="1.41703">
        <ele>2395</ele>
        <time>2013-07-07T12:20:47Z</time>
      </trkpt>
      <trkpt lat="42.67845" lon="1.41704">
        <ele>2394</ele>
        <time>2013-07-07T12:20:54Z</time>
      </trkpt>
      <trkpt lat="42.67846" lon="1.41704">
        <ele>2395</ele>
        <time>2013-07-07T12:21:03Z</time>
      </trkpt>
      <trkpt lat="42.67844" lon="1.41702">
        <ele>2395</ele>
        <time>2013-07-07T12:21:12Z</time>
      </trkpt>
      <trkpt lat="42.67844" lon="1.41698">
        <ele>2395</ele>
        <time>2013-07-07T12:21:25Z</time>
      </trkpt>
      <trkpt lat="42.67846" lon="1.417">
        <ele>2395</ele>
        <time>2013-07-07T12:21:37Z</time>
      </trkpt>
      <trkpt lat="42.67846" lon="1.417">
        <ele>2394</ele>
        <time>2013-07-07T12:21:48Z</time>
      </trkpt>
      <trkpt lat="42.67845" lon="1.41698">
        <ele>2395</ele>
        <time>2013-07-07T12:22:01Z</time>
      </trkpt>
      <trkpt lat="42.67844" lon="1.417">
        <ele>2394</ele>
        <time>2013-07-07T12:22:10Z</time>
      </trkpt>
      <trkpt lat="42.67847" lon="1.417">
        <ele>2394</ele>
        <time>2013-07-07T12:22:23Z</time>
      </trkpt>
      <trkpt lat="42.67845" lon="1.41702">
        <ele>2394</ele>
        <time>2013-07-07T12:22:41Z</time>
      </trkpt>
      <trkpt lat="42.67846" lon="1.41701">
        <ele>2394</ele>
        <time>2013-07-07T12:23:01Z</time>
      </trkpt>
      <trkpt lat="42.67844" lon="1.417">
        <ele>2394</ele>
        <time>2013-07-07T12:23:17Z</time>
      </trkpt>
      <trkpt lat="42.67843" lon="1.417">
        <ele>2394</ele>
        <time>2013-07-07T12:23:37Z</time>
      </trkpt>
      <trkpt lat="42.67843" lon="1.41701">
        <ele>2394</ele>
        <time>2013-07-07T12:23:50Z</time>
      </trkpt>
      <trkpt lat="42.67844" lon="1.41701">
        <ele>2393</ele>
        <time>2013-07-07T12:24:09Z</time>
      </trkpt>
      <trkpt lat="42.67844" lon="1.41701">
        <ele>2393</ele>
        <time>2013-07-07T12:24:30Z</time>
      </trkpt>
      <trkpt lat="42.67844" lon="1.41701">
        <ele>2394</ele>
        <time>2013-07-07T12:24:45Z</time>
      </trkpt>
      <trkpt lat="42.67844" lon="1.41702">
        <ele>2395</ele>
        <time>2013-07-07T12:25:02Z</time>
      </trkpt>
      <trkpt lat="42.67845" lon="1.41701">
        <ele>2394</ele>
        <time>2013-07-07T12:25:22Z</time>
      </trkpt>
      <trkpt lat="42.67844" lon="1.417">
        <ele>2393</ele>
        <time>2013-07-07T12:25:33Z</time>
      </trkpt>
      <trkpt lat="42.67845" lon="1.417">
        <ele>2394</ele>
        <time>2013-07-07T12:25:54Z</time>
      </trkpt>
      <trkpt lat="42.67845" lon="1.417">
        <ele>2393</ele>
        <time>2013-07-07T12:26:10Z</time>
      </trkpt>
      <trkpt lat="42.67843" lon="1.417">
        <ele>2393</ele>
        <time>2013-07-07T12:26:23Z</time>
      </trkpt>
      <trkpt lat="42.67839" lon="1.41699">
        <ele>2393</ele>
        <time>2013-07-07T12:26:38Z</time>
      </trkpt>
      <trkpt lat="42.67843" lon="1.41702">
        <ele>2393</ele>
        <time>2013-07-07T12:26:53Z</time>
      </trkpt>
      <trkpt lat="42.67844" lon="1.417">
        <ele>2393</ele>
        <time>2013-07-07T12:27:10Z</time>
      </trkpt>
      <trkpt lat="42.67845" lon="1.417">
        <ele>2393</ele>
        <time>2013-07-07T12:27:29Z</time>
      </trkpt>
      <trkpt lat="42.67847" lon="1.41699">
        <ele>2393</ele>
        <time>2013-07-07T12:27:43Z</time>
      </trkpt>
      <trkpt lat="42.67846" lon="1.41701">
        <ele>2392</ele>
        <time>2013-07-07T12:27:54Z</time>
      </trkpt>
      <trkpt lat="42.67848" lon="1.41701">
        <ele>2393</ele>
        <time>2013-07-07T12:28:09Z</time>
      </trkpt>
      <trkpt lat="42.67847" lon="1.41703">
        <ele>2393</ele>
        <time>2013-07-07T12:28:24Z</time>
      </trkpt>
      <trkpt lat="42.67845" lon="1.41703">
        <ele>2393</ele>
        <time>2013-07-07T12:28:43Z</time>
      </trkpt>
      <trkpt lat="42.67844" lon="1.417">
        <ele>2393</ele>
        <time>2013-07-07T12:28:52Z</time>
      </trkpt>
      <trkpt lat="42.67843" lon="1.417">
        <ele>2392</ele>
        <time>2013-07-07T12:29:09Z</time>
      </trkpt>
      <trkpt lat="42.67843" lon="1.41699">
        <ele>2393</ele>
        <time>2013-07-07T12:29:19Z</time>
      </trkpt>
      <trkpt lat="42.67842" lon="1.41699">
        <ele>2392</ele>
        <time>2013-07-07T12:29:41Z</time>
      </trkpt>
      <trkpt lat="42.67843" lon="1.41699">
        <ele>2392</ele>
        <time>2013-07-07T12:30:02Z</time>
      </trkpt>
      <trkpt lat="42.67842" lon="1.41701">
        <ele>2392</ele>
        <time>2013-07-07T12:30:27Z</time>
      </trkpt>
      <trkpt lat="42.67842" lon="1.41703">
        <ele>2393</ele>
        <time>2013-07-07T12:30:45Z</time>
      </trkpt>
      <trkpt lat="42.67841" lon="1.41702">
        <ele>2392</ele>
        <time>2013-07-07T12:31:07Z</time>
      </trkpt>
      <trkpt lat="42.6784" lon="1.41701">
        <ele>2392</ele>
        <time>2013-07-07T12:31:32Z</time>
      </trkpt>
      <trkpt lat="42.67841" lon="1.417">
        <ele>2392</ele>
        <time>2013-07-07T12:31:55Z</time>
      </trkpt>
      <trkpt lat="42.67843" lon="1.417">
        <ele>2392</ele>
        <time>2013-07-07T12:32:19Z</time>
      </trkpt>
      <trkpt lat="42.67842" lon="1.417">
        <ele>2393</ele>
        <time>2013-07-07T12:32:27Z</time>
      </trkpt>
      <trkpt lat="42.67841" lon="1.41704">
        <ele>2393</ele>
        <time>2013-07-07T12:32:44Z</time>
      </trkpt>
      <trkpt lat="42.67841" lon="1.41704">
        <ele>2393</ele>
        <time>2013-07-07T12:33:02Z</time>
      </trkpt>
      <trkpt lat="42.67841" lon="1.41703">
        <ele>2393</ele>
        <time>2013-07-07T12:33:18Z</time>
      </trkpt>
      <trkpt lat="42.67842" lon="1.41703">
        <ele>2393</ele>
        <time>2013-07-07T12:33:38Z</time>
      </trkpt>
      <trkpt lat="42.67842" lon="1.41701">
        <ele>2393</ele>
        <time>2013-07-07T12:33:52Z</time>
      </trkpt>
      <trkpt lat="42.67842" lon="1.41703">
        <ele>2392</ele>
        <time>2013-07-07T12:34:03Z</time>
      </trkpt>
      <trkpt lat="42.67842" lon="1.41699">
        <ele>2393</ele>
        <time>2013-07-07T12:34:21Z</time>
      </trkpt>
      <trkpt lat="42.67842" lon="1.417">
        <ele>2394</ele>
        <time>2013-07-07T12:34:41Z</time>
      </trkpt>
      <trkpt lat="42.67842" lon="1.41698">
        <ele>2393</ele>
        <time>2013-07-07T12:34:57Z</time>
      </trkpt>
      <trkpt lat="42.67842" lon="1.41699">
        <ele>2393</ele>
        <time>2013-07-07T12:35:15Z</time>
      </trkpt>
      <trkpt lat="42.67843" lon="1.41701">
        <ele>2393</ele>
        <time>2013-07-07T12:35:28Z</time>
      </trkpt>
      <trkpt lat="42.67842" lon="1.41701">
        <ele>2393</ele>
        <time>2013-07-07T12:35:48Z</time>
      </trkpt>
      <trkpt lat="42.67841" lon="1.41699">
        <ele>2394</ele>
        <time>2013-07-07T12:36:08Z</time>
      </trkpt>
      <trkpt lat="42.67842" lon="1.41698">
        <ele>2394</ele>
        <time>2013-07-07T12:36:29Z</time>
      </trkpt>
      <trkpt lat="42.67841" lon="1.41701">
        <ele>2394</ele>
        <time>2013-07-07T12:36:48Z</time>
      </trkpt>
      <trkpt lat="42.67843" lon="1.41701">
        <ele>2394</ele>
        <time>2013-07-07T12:37:02Z</time>
      </trkpt>
      <trkpt lat="42.67844" lon="1.41701">
        <ele>2394</ele>
        <time>2013-07-07T12:37:20Z</time>
      </trkpt>
      <trkpt lat="42.67844" lon="1.41698">
        <ele>2395</ele>
        <time>2013-07-07T12:37:31Z</time>
      </trkpt>
      <trkpt lat="42.67845" lon="1.417">
        <ele>2394</ele>
        <time>2013-07-07T12:37:39Z</time>
      </trkpt>
      <trkpt lat="42.67846" lon="1.41699">
        <ele>2394</ele>
        <time>2013-07-07T12:37:50Z</time>
      </trkpt>
      <trkpt lat="42.67846" lon="1.41701">
        <ele>2394</ele>
        <time>2013-07-07T12:37:58Z</time>
      </trkpt>
      <trkpt lat="42.67846" lon="1.41699">
        <ele>2394</ele>
        <time>2013-07-07T12:38:12Z</time>
      </trkpt>
      <trkpt lat="42.67842" lon="1.41702">
        <ele>2394</ele>
        <time>2013-07-07T12:38:22Z</time>
      </trkpt>
      <trkpt lat="42.67841" lon="1.41701">
        <ele>2394</ele>
        <time>2013-07-07T12:38:35Z</time>
      </trkpt>
      <trkpt lat="42.67841" lon="1.417">
        <ele>2393</ele>
        <time>2013-07-07T12:38:47Z</time>
      </trkpt>
      <trkpt lat="42.67842" lon="1.41704">
        <ele>2392</ele>
        <time>2013-07-07T12:38:55Z</time>
      </trkpt>
      <trkpt lat="42.67844" lon="1.41702">
        <ele>2392</ele>
        <time>2013-07-07T12:39:04Z</time>
      </trkpt>
      <trkpt lat="42.67845" lon="1.41704">
        <ele>2392</ele>
        <time>2013-07-07T12:39:21Z</time>
      </trkpt>
      <trkpt lat="42.67844" lon="1.41704">
        <ele>2391</ele>
        <time>2013-07-07T12:39:30Z</time>
      </trkpt>
      <trkpt lat="42.67843" lon="1.41706">
        <ele>2391</ele>
        <time>2013-07-07T12:39:35Z</time>
      </trkpt>
      <trkpt lat="42.67845" lon="1.41705">
        <ele>2390</ele>
        <time>2013-07-07T12:39:43Z</time>
      </trkpt>
      <trkpt lat="42.67844" lon="1.41707">
        <ele>2389</ele>
        <time>2013-07-07T12:39:50Z</time>
      </trkpt>
      <trkpt lat="42.67843" lon="1.41707">
        <ele>2389</ele>
        <time>2013-07-07T12:39:59Z</time>
      </trkpt>
      <trkpt lat="42.67846" lon="1.41709">
        <ele>2388</ele>
        <time>2013-07-07T12:40:07Z</time>
      </trkpt>
      <trkpt lat="42.67847" lon="1.41711">
        <ele>2387</ele>
        <time>2013-07-07T12:40:16Z</time>
      </trkpt>
      <trkpt lat="42.67848" lon="1.4171">
        <ele>2385</ele>
        <time>2013-07-07T12:40:26Z</time>
      </trkpt>
      <trkpt lat="42.67851" lon="1.41713">
        <ele>2384</ele>
        <time>2013-07-07T12:40:34Z</time>
      </trkpt>
      <trkpt lat="42.67848" lon="1.41716">
        <ele>2383</ele>
        <time>2013-07-07T12:40:42Z</time>
      </trkpt>
      <trkpt lat="42.67849" lon="1.4172">
        <ele>2382</ele>
        <time>2013-07-07T12:40:50Z</time>
      </trkpt>
      <trkpt lat="42.67853" lon="1.41719">
        <ele>2380</ele>
        <time>2013-07-07T12:41:00Z</time>
      </trkpt>
      <trkpt lat="42.67853" lon="1.41716">
        <ele>2380</ele>
        <time>2013-07-07T12:41:09Z</time>
      </trkpt>
      <trkpt lat="42.67854" lon="1.41716">
        <ele>2379</ele>
        <time>2013-07-07T12:41:17Z</time>
      </trkpt>
      <trkpt lat="42.67857" lon="1.41714">
        <ele>2377</ele>
        <time>2013-07-07T12:41:26Z</time>
      </trkpt>
      <trkpt lat="42.67863" lon="1.41712">
        <ele>2377</ele>
        <time>2013-07-07T12:41:34Z</time>
      </trkpt>
      <trkpt lat="42.67863" lon="1.41712">
        <ele>2377</ele>
        <time>2013-07-07T12:41:35Z</time>
      </trkpt>
      <trkpt lat="42.67864" lon="1.4171">
        <ele>2376</ele>
        <time>2013-07-07T12:41:43Z</time>
      </trkpt>
      <trkpt lat="42.67867" lon="1.41713">
        <ele>2376</ele>
        <time>2013-07-07T12:41:49Z</time>
      </trkpt>
      <trkpt lat="42.6787" lon="1.41715">
        <ele>2375</ele>
        <time>2013-07-07T12:41:58Z</time>
      </trkpt>
      <trkpt lat="42.67869" lon="1.41713">
        <ele>2375</ele>
        <time>2013-07-07T12:42:08Z</time>
      </trkpt>
      <trkpt lat="42.67872" lon="1.41714">
        <ele>2374</ele>
        <time>2013-07-07T12:42:13Z</time>
      </trkpt>
      <trkpt lat="42.67876" lon="1.41715">
        <ele>2373</ele>
        <time>2013-07-07T12:42:18Z</time>
      </trkpt>
      <trkpt lat="42.67878" lon="1.41715">
        <ele>2373</ele>
        <time>2013-07-07T12:42:27Z</time>
      </trkpt>
      <trkpt lat="42.67882" lon="1.41716">
        <ele>2372</ele>
        <time>2013-07-07T12:42:34Z</time>
      </trkpt>
      <trkpt lat="42.6788" lon="1.41713">
        <ele>2372</ele>
        <time>2013-07-07T12:42:44Z</time>
      </trkpt>
      <trkpt lat="42.67881" lon="1.41718">
        <ele>2371</ele>
        <time>2013-07-07T12:42:52Z</time>
      </trkpt>
      <trkpt lat="42.67887" lon="1.4172">
        <ele>2369</ele>
        <time>2013-07-07T12:43:00Z</time>
      </trkpt>
      <trkpt lat="42.67887" lon="1.41721">
        <ele>2368</ele>
        <time>2013-07-07T12:43:08Z</time>
      </trkpt>
      <trkpt lat="42.67885" lon="1.41726">
        <ele>2367</ele>
        <time>2013-07-07T12:43:16Z</time>
      </trkpt>
      <trkpt lat="42.67881" lon="1.41729">
        <ele>2364</ele>
        <time>2013-07-07T12:43:26Z</time>
      </trkpt>
      <trkpt lat="42.67884" lon="1.41736">
        <ele>2363</ele>
        <time>2013-07-07T12:43:33Z</time>
      </trkpt>
      <trkpt lat="42.67888" lon="1.41736">
        <ele>2362</ele>
        <time>2013-07-07T12:43:40Z</time>
      </trkpt>
      <trkpt lat="42.67888" lon="1.41737">
        <ele>2362</ele>
        <time>2013-07-07T12:43:50Z</time>
      </trkpt>
      <trkpt lat="42.67889" lon="1.41737">
        <ele>2363</ele>
        <time>2013-07-07T12:43:58Z</time>
      </trkpt>
      <trkpt lat="42.67888" lon="1.41738">
        <ele>2362</ele>
        <time>2013-07-07T12:44:00Z</time>
      </trkpt>
      <trkpt lat="42.67891" lon="1.41741">
        <ele>2361</ele>
        <time>2013-07-07T12:44:06Z</time>
      </trkpt>
      <trkpt lat="42.67889" lon="1.41747">
        <ele>2360</ele>
        <time>2013-07-07T12:44:13Z</time>
      </trkpt>
      <trkpt lat="42.67895" lon="1.41746">
        <ele>2358</ele>
        <time>2013-07-07T12:44:21Z</time>
      </trkpt>
      <trkpt lat="42.67898" lon="1.41741">
        <ele>2357</ele>
        <time>2013-07-07T12:44:30Z</time>
      </trkpt>
      <trkpt lat="42.67897" lon="1.41743">
        <ele>2356</ele>
        <time>2013-07-07T12:44:39Z</time>
      </trkpt>
      <trkpt lat="42.67901" lon="1.4174">
        <ele>2353</ele>
        <time>2013-07-07T12:44:48Z</time>
      </trkpt>
      <trkpt lat="42.67903" lon="1.41738">
        <ele>2351</ele>
        <time>2013-07-07T12:44:56Z</time>
      </trkpt>
      <trkpt lat="42.67906" lon="1.41737">
        <ele>2350</ele>
        <time>2013-07-07T12:45:03Z</time>
      </trkpt>
      <trkpt lat="42.67904" lon="1.41738">
        <ele>2349</ele>
        <time>2013-07-07T12:45:12Z</time>
      </trkpt>
      <trkpt lat="42.67903" lon="1.41741">
        <ele>2347</ele>
        <time>2013-07-07T12:45:18Z</time>
      </trkpt>
      <trkpt lat="42.67908" lon="1.41744">
        <ele>2345</ele>
        <time>2013-07-07T12:45:25Z</time>
      </trkpt>
      <trkpt lat="42.6791" lon="1.41743">
        <ele>2345</ele>
        <time>2013-07-07T12:45:37Z</time>
      </trkpt>
      <trkpt lat="42.67908" lon="1.41745">
        <ele>2345</ele>
        <time>2013-07-07T12:45:44Z</time>
      </trkpt>
      <trkpt lat="42.67907" lon="1.41746">
        <ele>2345</ele>
        <time>2013-07-07T12:45:52Z</time>
      </trkpt>
      <trkpt lat="42.6791" lon="1.41748">
        <ele>2344</ele>
        <time>2013-07-07T12:45:59Z</time>
      </trkpt>
      <trkpt lat="42.67909" lon="1.41749">
        <ele>2343</ele>
        <time>2013-07-07T12:46:07Z</time>
      </trkpt>
      <trkpt lat="42.67911" lon="1.41749">
        <ele>2343</ele>
        <time>2013-07-07T12:46:16Z</time>
      </trkpt>
      <trkpt lat="42.67912" lon="1.41747">
        <ele>2341</ele>
        <time>2013-07-07T12:46:24Z</time>
      </trkpt>
      <trkpt lat="42.67911" lon="1.41747">
        <ele>2340</ele>
        <time>2013-07-07T12:46:34Z</time>
      </trkpt>
      <trkpt lat="42.67913" lon="1.41749">
        <ele>2339</ele>
        <time>2013-07-07T12:46:44Z</time>
      </trkpt>
      <trkpt lat="42.67916" lon="1.41751">
        <ele>2337</ele>
        <time>2013-07-07T12:46:53Z</time>
      </trkpt>
      <trkpt lat="42.67917" lon="1.41748">
        <ele>2336</ele>
        <time>2013-07-07T12:47:02Z</time>
      </trkpt>
      <trkpt lat="42.67915" lon="1.41751">
        <ele>2335</ele>
        <time>2013-07-07T12:47:10Z</time>
      </trkpt>
      <trkpt lat="42.67918" lon="1.41754">
        <ele>2334</ele>
        <time>2013-07-07T12:47:17Z</time>
      </trkpt>
      <trkpt lat="42.67916" lon="1.41758">
        <ele>2331</ele>
        <time>2013-07-07T12:47:24Z</time>
      </trkpt>
      <trkpt lat="42.67917" lon="1.4176">
        <ele>2331</ele>
        <time>2013-07-07T12:47:33Z</time>
      </trkpt>
      <trkpt lat="42.67919" lon="1.4176">
        <ele>2331</ele>
        <time>2013-07-07T12:47:42Z</time>
      </trkpt>
      <trkpt lat="42.67921" lon="1.41759">
        <ele>2329</ele>
        <time>2013-07-07T12:47:50Z</time>
      </trkpt>
      <trkpt lat="42.67923" lon="1.41758">
        <ele>2329</ele>
        <time>2013-07-07T12:47:56Z</time>
      </trkpt>
      <trkpt lat="42.67924" lon="1.4176">
        <ele>2327</ele>
        <time>2013-07-07T12:48:02Z</time>
      </trkpt>
      <trkpt lat="42.67925" lon="1.41762">
        <ele>2325</ele>
        <time>2013-07-07T12:48:11Z</time>
      </trkpt>
      <trkpt lat="42.67924" lon="1.41763">
        <ele>2324</ele>
        <time>2013-07-07T12:48:19Z</time>
      </trkpt>
      <trkpt lat="42.67922" lon="1.41765">
        <ele>2323</ele>
        <time>2013-07-07T12:48:27Z</time>
      </trkpt>
      <trkpt lat="42.67925" lon="1.41772">
        <ele>2321</ele>
        <time>2013-07-07T12:48:35Z</time>
      </trkpt>
      <trkpt lat="42.67924" lon="1.41774">
        <ele>2319</ele>
        <time>2013-07-07T12:48:42Z</time>
      </trkpt>
      <trkpt lat="42.67928" lon="1.41774">
        <ele>2318</ele>
        <time>2013-07-07T12:48:48Z</time>
      </trkpt>
      <trkpt lat="42.67929" lon="1.41775">
        <ele>2317</ele>
        <time>2013-07-07T12:48:54Z</time>
      </trkpt>
      <trkpt lat="42.67931" lon="1.41773">
        <ele>2315</ele>
        <time>2013-07-07T12:49:01Z</time>
      </trkpt>
      <trkpt lat="42.67931" lon="1.41772">
        <ele>2316</ele>
        <time>2013-07-07T12:49:09Z</time>
      </trkpt>
      <trkpt lat="42.67932" lon="1.41773">
        <ele>2315</ele>
        <time>2013-07-07T12:49:19Z</time>
      </trkpt>
      <trkpt lat="42.67936" lon="1.41772">
        <ele>2313</ele>
        <time>2013-07-07T12:49:27Z</time>
      </trkpt>
      <trkpt lat="42.67938" lon="1.41769">
        <ele>2311</ele>
        <time>2013-07-07T12:49:34Z</time>
      </trkpt>
      <trkpt lat="42.67936" lon="1.4177">
        <ele>2311</ele>
        <time>2013-07-07T12:49:41Z</time>
      </trkpt>
      <trkpt lat="42.67939" lon="1.41769">
        <ele>2310</ele>
        <time>2013-07-07T12:49:48Z</time>
      </trkpt>
      <trkpt lat="42.67939" lon="1.41768">
        <ele>2308</ele>
        <time>2013-07-07T12:49:57Z</time>
      </trkpt>
      <trkpt lat="42.67941" lon="1.41772">
        <ele>2307</ele>
        <time>2013-07-07T12:50:05Z</time>
      </trkpt>
      <trkpt lat="42.67943" lon="1.41768">
        <ele>2306</ele>
        <time>2013-07-07T12:50:13Z</time>
      </trkpt>
      <trkpt lat="42.67947" lon="1.41768">
        <ele>2304</ele>
        <time>2013-07-07T12:50:22Z</time>
      </trkpt>
      <trkpt lat="42.67949" lon="1.41768">
        <ele>2302</ele>
        <time>2013-07-07T12:50:29Z</time>
      </trkpt>
      <trkpt lat="42.67952" lon="1.41765">
        <ele>2302</ele>
        <time>2013-07-07T12:50:36Z</time>
      </trkpt>
      <trkpt lat="42.67953" lon="1.41764">
        <ele>2301</ele>
        <time>2013-07-07T12:50:43Z</time>
      </trkpt>
      <trkpt lat="42.67948" lon="1.41767">
        <ele>2300</ele>
        <time>2013-07-07T12:50:50Z</time>
      </trkpt>
      <trkpt lat="42.67949" lon="1.41768">
        <ele>2300</ele>
        <time>2013-07-07T12:50:59Z</time>
      </trkpt>
      <trkpt lat="42.67948" lon="1.4177">
        <ele>2299</ele>
        <time>2013-07-07T12:51:12Z</time>
      </trkpt>
      <trkpt lat="42.67951" lon="1.41769">
        <ele>2299</ele>
        <time>2013-07-07T12:51:23Z</time>
      </trkpt>
      <trkpt lat="42.67954" lon="1.4177">
        <ele>2299</ele>
        <time>2013-07-07T12:51:32Z</time>
      </trkpt>
      <trkpt lat="42.67957" lon="1.41768">
        <ele>2298</ele>
        <time>2013-07-07T12:51:43Z</time>
      </trkpt>
      <trkpt lat="42.67959" lon="1.41768">
        <ele>2298</ele>
        <time>2013-07-07T12:51:53Z</time>
      </trkpt>
      <trkpt lat="42.67955" lon="1.4177">
        <ele>2297</ele>
        <time>2013-07-07T12:52:01Z</time>
      </trkpt>
      <trkpt lat="42.67954" lon="1.41769">
        <ele>2298</ele>
        <time>2013-07-07T12:52:15Z</time>
      </trkpt>
      <trkpt lat="42.67954" lon="1.41769">
        <ele>2297</ele>
        <time>2013-07-07T12:52:28Z</time>
      </trkpt>
      <trkpt lat="42.67954" lon="1.4177">
        <ele>2296</ele>
        <time>2013-07-07T12:52:39Z</time>
      </trkpt>
      <trkpt lat="42.67951" lon="1.4177">
        <ele>2296</ele>
        <time>2013-07-07T12:52:50Z</time>
      </trkpt>
      <trkpt lat="42.67952" lon="1.41771">
        <ele>2295</ele>
        <time>2013-07-07T12:53:00Z</time>
      </trkpt>
      <trkpt lat="42.67954" lon="1.41772">
        <ele>2294</ele>
        <time>2013-07-07T12:53:06Z</time>
      </trkpt>
      <trkpt lat="42.67953" lon="1.41775">
        <ele>2293</ele>
        <time>2013-07-07T12:53:13Z</time>
      </trkpt>
      <trkpt lat="42.67952" lon="1.41777">
        <ele>2292</ele>
        <time>2013-07-07T12:53:24Z</time>
      </trkpt>
      <trkpt lat="42.67953" lon="1.41777">
        <ele>2292</ele>
        <time>2013-07-07T12:53:37Z</time>
      </trkpt>
      <trkpt lat="42.67954" lon="1.41777">
        <ele>2292</ele>
        <time>2013-07-07T12:53:46Z</time>
      </trkpt>
      <trkpt lat="42.67958" lon="1.41775">
        <ele>2291</ele>
        <time>2013-07-07T12:54:00Z</time>
      </trkpt>
      <trkpt lat="42.6796" lon="1.41777">
        <ele>2290</ele>
        <time>2013-07-07T12:54:11Z</time>
      </trkpt>
      <trkpt lat="42.67961" lon="1.41777">
        <ele>2288</ele>
        <time>2013-07-07T12:54:18Z</time>
      </trkpt>
      <trkpt lat="42.67955" lon="1.41781">
        <ele>2287</ele>
        <time>2013-07-07T12:54:26Z</time>
      </trkpt>
      <trkpt lat="42.67955" lon="1.41785">
        <ele>2284</ele>
        <time>2013-07-07T12:54:34Z</time>
      </trkpt>
      <trkpt lat="42.67958" lon="1.41783">
        <ele>2285</ele>
        <time>2013-07-07T12:54:42Z</time>
      </trkpt>
      <trkpt lat="42.67961" lon="1.41781">
        <ele>2281</ele>
        <time>2013-07-07T12:54:48Z</time>
      </trkpt>
      <trkpt lat="42.67962" lon="1.41784">
        <ele>2280</ele>
        <time>2013-07-07T12:54:55Z</time>
      </trkpt>
      <trkpt lat="42.67965" lon="1.41783">
        <ele>2279</ele>
        <time>2013-07-07T12:55:02Z</time>
      </trkpt>
      <trkpt lat="42.67966" lon="1.41785">
        <ele>2277</ele>
        <time>2013-07-07T12:55:09Z</time>
      </trkpt>
      <trkpt lat="42.67966" lon="1.41786">
        <ele>2277</ele>
        <time>2013-07-07T12:55:17Z</time>
      </trkpt>
      <trkpt lat="42.67971" lon="1.41785">
        <ele>2276</ele>
        <time>2013-07-07T12:55:24Z</time>
      </trkpt>
      <trkpt lat="42.67973" lon="1.41782">
        <ele>2276</ele>
        <time>2013-07-07T12:55:31Z</time>
      </trkpt>
      <trkpt lat="42.67973" lon="1.41785">
        <ele>2274</ele>
        <time>2013-07-07T12:55:38Z</time>
      </trkpt>
      <trkpt lat="42.67974" lon="1.41785">
        <ele>2275</ele>
        <time>2013-07-07T12:55:50Z</time>
      </trkpt>
      <trkpt lat="42.67974" lon="1.41785">
        <ele>2274</ele>
        <time>2013-07-07T12:56:03Z</time>
      </trkpt>
      <trkpt lat="42.67975" lon="1.41784">
        <ele>2272</ele>
        <time>2013-07-07T12:56:13Z</time>
      </trkpt>
      <trkpt lat="42.67977" lon="1.41784">
        <ele>2271</ele>
        <time>2013-07-07T12:56:24Z</time>
      </trkpt>
      <trkpt lat="42.67979" lon="1.41785">
        <ele>2270</ele>
        <time>2013-07-07T12:56:34Z</time>
      </trkpt>
      <trkpt lat="42.67981" lon="1.41787">
        <ele>2269</ele>
        <time>2013-07-07T12:56:43Z</time>
      </trkpt>
      <trkpt lat="42.67981" lon="1.41786">
        <ele>2269</ele>
        <time>2013-07-07T12:56:50Z</time>
      </trkpt>
      <trkpt lat="42.67982" lon="1.4179">
        <ele>2268</ele>
        <time>2013-07-07T12:56:58Z</time>
      </trkpt>
      <trkpt lat="42.67982" lon="1.41788">
        <ele>2269</ele>
        <time>2013-07-07T12:57:07Z</time>
      </trkpt>
      <trkpt lat="42.67985" lon="1.41788">
        <ele>2268</ele>
        <time>2013-07-07T12:57:15Z</time>
      </trkpt>
      <trkpt lat="42.67985" lon="1.41786">
        <ele>2267</ele>
        <time>2013-07-07T12:57:25Z</time>
      </trkpt>
      <trkpt lat="42.67984" lon="1.41787">
        <ele>2267</ele>
        <time>2013-07-07T12:57:39Z</time>
      </trkpt>
      <trkpt lat="42.67988" lon="1.41788">
        <ele>2267</ele>
        <time>2013-07-07T12:57:50Z</time>
      </trkpt>
      <trkpt lat="42.67989" lon="1.41789">
        <ele>2265</ele>
        <time>2013-07-07T12:57:59Z</time>
      </trkpt>
      <trkpt lat="42.67991" lon="1.41787">
        <ele>2265</ele>
        <time>2013-07-07T12:58:10Z</time>
      </trkpt>
      <trkpt lat="42.67991" lon="1.41785">
        <ele>2265</ele>
        <time>2013-07-07T12:58:21Z</time>
      </trkpt>
      <trkpt lat="42.67992" lon="1.41789">
        <ele>2264</ele>
        <time>2013-07-07T12:58:30Z</time>
      </trkpt>
      <trkpt lat="42.67993" lon="1.4179">
        <ele>2264</ele>
        <time>2013-07-07T12:58:38Z</time>
      </trkpt>
      <trkpt lat="42.67993" lon="1.41789">
        <ele>2263</ele>
        <time>2013-07-07T12:58:41Z</time>
      </trkpt>
      <trkpt lat="42.67994" lon="1.41789">
        <ele>2263</ele>
        <time>2013-07-07T12:58:50Z</time>
      </trkpt>
      <trkpt lat="42.67995" lon="1.41789">
        <ele>2261</ele>
        <time>2013-07-07T12:58:59Z</time>
      </trkpt>
      <trkpt lat="42.67998" lon="1.41787">
        <ele>2262</ele>
        <time>2013-07-07T12:59:08Z</time>
      </trkpt>
      <trkpt lat="42.67999" lon="1.41786">
        <ele>2262</ele>
        <time>2013-07-07T12:59:21Z</time>
      </trkpt>
      <trkpt lat="42.68" lon="1.41787">
        <ele>2260</ele>
        <time>2013-07-07T12:59:32Z</time>
      </trkpt>
      <trkpt lat="42.68001" lon="1.4179">
        <ele>2260</ele>
        <time>2013-07-07T12:59:41Z</time>
      </trkpt>
      <trkpt lat="42.68002" lon="1.41789">
        <ele>2261</ele>
        <time>2013-07-07T12:59:49Z</time>
      </trkpt>
      <trkpt lat="42.68003" lon="1.41789">
        <ele>2257</ele>
        <time>2013-07-07T12:59:58Z</time>
      </trkpt>
      <trkpt lat="42.68003" lon="1.41789">
        <ele>2261</ele>
        <time>2013-07-07T12:59:59Z</time>
      </trkpt>
      <trkpt lat="42.68004" lon="1.41789">
        <ele>2261</ele>
        <time>2013-07-07T13:00:00Z</time>
      </trkpt>
      <trkpt lat="42.68004" lon="1.41793">
        <ele>2258</ele>
        <time>2013-07-07T13:00:08Z</time>
      </trkpt>
      <trkpt lat="42.68004" lon="1.41794">
        <ele>2257</ele>
        <time>2013-07-07T13:00:16Z</time>
      </trkpt>
      <trkpt lat="42.68006" lon="1.41796">
        <ele>2256</ele>
        <time>2013-07-07T13:00:27Z</time>
      </trkpt>
      <trkpt lat="42.68008" lon="1.41799">
        <ele>2254</ele>
        <time>2013-07-07T13:00:35Z</time>
      </trkpt>
      <trkpt lat="42.68012" lon="1.41803">
        <ele>2252</ele>
        <time>2013-07-07T13:00:43Z</time>
      </trkpt>
      <trkpt lat="42.68015" lon="1.4181">
        <ele>2250</ele>
        <time>2013-07-07T13:00:52Z</time>
      </trkpt>
      <trkpt lat="42.68017" lon="1.41808">
        <ele>2250</ele>
        <time>2013-07-07T13:01:01Z</time>
      </trkpt>
      <trkpt lat="42.68019" lon="1.41809">
        <ele>2249</ele>
        <time>2013-07-07T13:01:07Z</time>
      </trkpt>
      <trkpt lat="42.68019" lon="1.4181">
        <ele>2247</ele>
        <time>2013-07-07T13:01:14Z</time>
      </trkpt>
      <trkpt lat="42.6802" lon="1.41814">
        <ele>2245</ele>
        <time>2013-07-07T13:01:19Z</time>
      </trkpt>
      <trkpt lat="42.68021" lon="1.41814">
        <ele>2245</ele>
        <time>2013-07-07T13:01:26Z</time>
      </trkpt>
      <trkpt lat="42.68024" lon="1.41817">
        <ele>2244</ele>
        <time>2013-07-07T13:01:38Z</time>
      </trkpt>
      <trkpt lat="42.68027" lon="1.41816">
        <ele>2243</ele>
        <time>2013-07-07T13:01:46Z</time>
      </trkpt>
      <trkpt lat="42.68028" lon="1.41817">
        <ele>2241</ele>
        <time>2013-07-07T13:01:52Z</time>
      </trkpt>
      <trkpt lat="42.6803" lon="1.41818">
        <ele>2240</ele>
        <time>2013-07-07T13:01:59Z</time>
      </trkpt>
      <trkpt lat="42.68033" lon="1.41816">
        <ele>2240</ele>
        <time>2013-07-07T13:02:12Z</time>
      </trkpt>
      <trkpt lat="42.68035" lon="1.41819">
        <ele>2239</ele>
        <time>2013-07-07T13:02:17Z</time>
      </trkpt>
      <trkpt lat="42.68037" lon="1.41822">
        <ele>2237</ele>
        <time>2013-07-07T13:02:24Z</time>
      </trkpt>
      <trkpt lat="42.6804" lon="1.41822">
        <ele>2235</ele>
        <time>2013-07-07T13:02:31Z</time>
      </trkpt>
      <trkpt lat="42.68044" lon="1.41822">
        <ele>2233</ele>
        <time>2013-07-07T13:02:40Z</time>
      </trkpt>
      <trkpt lat="42.68047" lon="1.4182">
        <ele>2232</ele>
        <time>2013-07-07T13:02:48Z</time>
      </trkpt>
      <trkpt lat="42.68048" lon="1.4182">
        <ele>2231</ele>
        <time>2013-07-07T13:02:56Z</time>
      </trkpt>
      <trkpt lat="42.68053" lon="1.41818">
        <ele>2230</ele>
        <time>2013-07-07T13:03:07Z</time>
      </trkpt>
      <trkpt lat="42.68053" lon="1.41814">
        <ele>2229</ele>
        <time>2013-07-07T13:03:16Z</time>
      </trkpt>
      <trkpt lat="42.6805" lon="1.41817">
        <ele>2228</ele>
        <time>2013-07-07T13:03:26Z</time>
      </trkpt>
      <trkpt lat="42.6805" lon="1.41819">
        <ele>2228</ele>
        <time>2013-07-07T13:03:47Z</time>
      </trkpt>
      <trkpt lat="42.68052" lon="1.41819">
        <ele>2228</ele>
        <time>2013-07-07T13:04:00Z</time>
      </trkpt>
      <trkpt lat="42.68054" lon="1.41817">
        <ele>2227</ele>
        <time>2013-07-07T13:04:07Z</time>
      </trkpt>
      <trkpt lat="42.68054" lon="1.41817">
        <ele>2226</ele>
        <time>2013-07-07T13:04:19Z</time>
      </trkpt>
      <trkpt lat="42.68059" lon="1.41821">
        <ele>2223</ele>
        <time>2013-07-07T13:04:23Z</time>
      </trkpt>
      <trkpt lat="42.68064" lon="1.41825">
        <ele>2219</ele>
        <time>2013-07-07T13:04:26Z</time>
      </trkpt>
      <trkpt lat="42.6807" lon="1.4183">
        <ele>2217</ele>
        <time>2013-07-07T13:04:29Z</time>
      </trkpt>
      <trkpt lat="42.68073" lon="1.41834">
        <ele>2214</ele>
        <time>2013-07-07T13:04:32Z</time>
      </trkpt>
      <trkpt lat="42.68071" lon="1.41837">
        <ele>2213</ele>
        <time>2013-07-07T13:04:38Z</time>
      </trkpt>
      <trkpt lat="42.68075" lon="1.41839">
        <ele>2210</ele>
        <time>2013-07-07T13:04:45Z</time>
      </trkpt>
      <trkpt lat="42.68081" lon="1.41845">
        <ele>2206</ele>
        <time>2013-07-07T13:04:49Z</time>
      </trkpt>
      <trkpt lat="42.68081" lon="1.41847">
        <ele>2206</ele>
        <time>2013-07-07T13:04:50Z</time>
      </trkpt>
      <trkpt lat="42.6808" lon="1.41852">
        <ele>2203</ele>
        <time>2013-07-07T13:04:56Z</time>
      </trkpt>
      <trkpt lat="42.6808" lon="1.41851">
        <ele>2203</ele>
        <time>2013-07-07T13:05:05Z</time>
      </trkpt>
      <trkpt lat="42.6808" lon="1.41851">
        <ele>2204</ele>
        <time>2013-07-07T13:05:14Z</time>
      </trkpt>
      <trkpt lat="42.6808" lon="1.41851">
        <ele>2203</ele>
        <time>2013-07-07T13:05:16Z</time>
      </trkpt>
      <trkpt lat="42.68078" lon="1.41851">
        <ele>2204</ele>
        <time>2013-07-07T13:05:25Z</time>
      </trkpt>
      <trkpt lat="42.68078" lon="1.41854">
        <ele>2204</ele>
        <time>2013-07-07T13:05:37Z</time>
      </trkpt>
      <trkpt lat="42.68077" lon="1.4186">
        <ele>2203</ele>
        <time>2013-07-07T13:05:44Z</time>
      </trkpt>
      <trkpt lat="42.68078" lon="1.41866">
        <ele>2202</ele>
        <time>2013-07-07T13:05:53Z</time>
      </trkpt>
      <trkpt lat="42.68079" lon="1.41866">
        <ele>2201</ele>
        <time>2013-07-07T13:06:04Z</time>
      </trkpt>
      <trkpt lat="42.68079" lon="1.41866">
        <ele>2201</ele>
        <time>2013-07-07T13:06:05Z</time>
      </trkpt>
      <trkpt lat="42.68077" lon="1.4187">
        <ele>2201</ele>
        <time>2013-07-07T13:06:12Z</time>
      </trkpt>
      <trkpt lat="42.68077" lon="1.41873">
        <ele>2201</ele>
        <time>2013-07-07T13:06:19Z</time>
      </trkpt>
      <trkpt lat="42.68079" lon="1.41872">
        <ele>2201</ele>
        <time>2013-07-07T13:06:25Z</time>
      </trkpt>
      <trkpt lat="42.68082" lon="1.41868">
        <ele>2199</ele>
        <time>2013-07-07T13:06:30Z</time>
      </trkpt>
      <trkpt lat="42.6809" lon="1.41864">
        <ele>2199</ele>
        <time>2013-07-07T13:06:41Z</time>
      </trkpt>
      <trkpt lat="42.68091" lon="1.4186">
        <ele>2199</ele>
        <time>2013-07-07T13:06:47Z</time>
      </trkpt>
      <trkpt lat="42.68092" lon="1.41858">
        <ele>2198</ele>
        <time>2013-07-07T13:06:54Z</time>
      </trkpt>
      <trkpt lat="42.68093" lon="1.41857">
        <ele>2198</ele>
        <time>2013-07-07T13:07:03Z</time>
      </trkpt>
      <trkpt lat="42.68094" lon="1.41857">
        <ele>2198</ele>
        <time>2013-07-07T13:07:11Z</time>
      </trkpt>
      <trkpt lat="42.68094" lon="1.41857">
        <ele>2198</ele>
        <time>2013-07-07T13:07:21Z</time>
      </trkpt>
      <trkpt lat="42.68096" lon="1.41856">
        <ele>2198</ele>
        <time>2013-07-07T13:07:35Z</time>
      </trkpt>
      <trkpt lat="42.68097" lon="1.41857">
        <ele>2198</ele>
        <time>2013-07-07T13:07:44Z</time>
      </trkpt>
      <trkpt lat="42.68096" lon="1.41854">
        <ele>2198</ele>
        <time>2013-07-07T13:07:53Z</time>
      </trkpt>
      <trkpt lat="42.68096" lon="1.41849">
        <ele>2198</ele>
        <time>2013-07-07T13:08:04Z</time>
      </trkpt>
      <trkpt lat="42.68097" lon="1.41847">
        <ele>2198</ele>
        <time>2013-07-07T13:08:13Z</time>
      </trkpt>
      <trkpt lat="42.68097" lon="1.41846">
        <ele>2198</ele>
        <time>2013-07-07T13:08:20Z</time>
      </trkpt>
      <trkpt lat="42.68095" lon="1.41847">
        <ele>2197</ele>
        <time>2013-07-07T13:08:26Z</time>
      </trkpt>
      <trkpt lat="42.68092" lon="1.41842">
        <ele>2197</ele>
        <time>2013-07-07T13:08:33Z</time>
      </trkpt>
      <trkpt lat="42.68096" lon="1.41841">
        <ele>2195</ele>
        <time>2013-07-07T13:08:41Z</time>
      </trkpt>
      <trkpt lat="42.68099" lon="1.41845">
        <ele>2195</ele>
        <time>2013-07-07T13:08:48Z</time>
      </trkpt>
      <trkpt lat="42.68101" lon="1.41849">
        <ele>2193</ele>
        <time>2013-07-07T13:08:54Z</time>
      </trkpt>
      <trkpt lat="42.68102" lon="1.41849">
        <ele>2194</ele>
        <time>2013-07-07T13:08:56Z</time>
      </trkpt>
      <trkpt lat="42.68106" lon="1.41847">
        <ele>2194</ele>
        <time>2013-07-07T13:09:05Z</time>
      </trkpt>
      <trkpt lat="42.68109" lon="1.41846">
        <ele>2194</ele>
        <time>2013-07-07T13:09:12Z</time>
      </trkpt>
      <trkpt lat="42.6811" lon="1.41848">
        <ele>2193</ele>
        <time>2013-07-07T13:09:14Z</time>
      </trkpt>
      <trkpt lat="42.68113" lon="1.41846">
        <ele>2193</ele>
        <time>2013-07-07T13:09:19Z</time>
      </trkpt>
      <trkpt lat="42.68114" lon="1.41844">
        <ele>2193</ele>
        <time>2013-07-07T13:09:28Z</time>
      </trkpt>
      <trkpt lat="42.68114" lon="1.41844">
        <ele>2192</ele>
        <time>2013-07-07T13:09:39Z</time>
      </trkpt>
      <trkpt lat="42.68115" lon="1.41844">
        <ele>2193</ele>
        <time>2013-07-07T13:09:47Z</time>
      </trkpt>
      <trkpt lat="42.68117" lon="1.41848">
        <ele>2194</ele>
        <time>2013-07-07T13:10:02Z</time>
      </trkpt>
      <trkpt lat="42.6812" lon="1.41848">
        <ele>2193</ele>
        <time>2013-07-07T13:10:19Z</time>
      </trkpt>
      <trkpt lat="42.68116" lon="1.4185">
        <ele>2193</ele>
        <time>2013-07-07T13:10:26Z</time>
      </trkpt>
      <trkpt lat="42.68118" lon="1.41851">
        <ele>2191</ele>
        <time>2013-07-07T13:10:33Z</time>
      </trkpt>
      <trkpt lat="42.68121" lon="1.41845">
        <ele>2190</ele>
        <time>2013-07-07T13:10:41Z</time>
      </trkpt>
      <trkpt lat="42.68122" lon="1.41846">
        <ele>2190</ele>
        <time>2013-07-07T13:10:47Z</time>
      </trkpt>
      <trkpt lat="42.68125" lon="1.41845">
        <ele>2190</ele>
        <time>2013-07-07T13:10:55Z</time>
      </trkpt>
      <trkpt lat="42.68129" lon="1.41843">
        <ele>2189</ele>
        <time>2013-07-07T13:11:03Z</time>
      </trkpt>
      <trkpt lat="42.68129" lon="1.41837">
        <ele>2190</ele>
        <time>2013-07-07T13:11:10Z</time>
      </trkpt>
      <trkpt lat="42.68128" lon="1.41839">
        <ele>2189</ele>
        <time>2013-07-07T13:11:20Z</time>
      </trkpt>
      <trkpt lat="42.68131" lon="1.41839">
        <ele>2189</ele>
        <time>2013-07-07T13:11:30Z</time>
      </trkpt>
      <trkpt lat="42.68134" lon="1.4184">
        <ele>2188</ele>
        <time>2013-07-07T13:11:36Z</time>
      </trkpt>
      <trkpt lat="42.68135" lon="1.41839">
        <ele>2188</ele>
        <time>2013-07-07T13:11:42Z</time>
      </trkpt>
      <trkpt lat="42.68139" lon="1.41838">
        <ele>2187</ele>
        <time>2013-07-07T13:11:49Z</time>
      </trkpt>
      <trkpt lat="42.68143" lon="1.41839">
        <ele>2185</ele>
        <time>2013-07-07T13:11:56Z</time>
      </trkpt>
      <trkpt lat="42.68146" lon="1.41839">
        <ele>2184</ele>
        <time>2013-07-07T13:12:03Z</time>
      </trkpt>
      <trkpt lat="42.6815" lon="1.41837">
        <ele>2184</ele>
        <time>2013-07-07T13:12:10Z</time>
      </trkpt>
      <trkpt lat="42.68151" lon="1.41838">
        <ele>2183</ele>
        <time>2013-07-07T13:12:16Z</time>
      </trkpt>
      <trkpt lat="42.68154" lon="1.41838">
        <ele>2183</ele>
        <time>2013-07-07T13:12:23Z</time>
      </trkpt>
      <trkpt lat="42.68157" lon="1.41839">
        <ele>2181</ele>
        <time>2013-07-07T13:12:28Z</time>
      </trkpt>
      <trkpt lat="42.68161" lon="1.41839">
        <ele>2181</ele>
        <time>2013-07-07T13:12:37Z</time>
      </trkpt>
      <trkpt lat="42.68165" lon="1.41839">
        <ele>2180</ele>
        <time>2013-07-07T13:12:45Z</time>
      </trkpt>
      <trkpt lat="42.6817" lon="1.41839">
        <ele>2178</ele>
        <time>2013-07-07T13:12:53Z</time>
      </trkpt>
      <trkpt lat="42.68172" lon="1.4184">
        <ele>2178</ele>
        <time>2013-07-07T13:13:00Z</time>
      </trkpt>
      <trkpt lat="42.68175" lon="1.41844">
        <ele>2177</ele>
        <time>2013-07-07T13:13:06Z</time>
      </trkpt>
      <trkpt lat="42.6818" lon="1.41845">
        <ele>2174</ele>
        <time>2013-07-07T13:13:15Z</time>
      </trkpt>
      <trkpt lat="42.68187" lon="1.41842">
        <ele>2171</ele>
        <time>2013-07-07T13:13:25Z</time>
      </trkpt>
      <trkpt lat="42.68191" lon="1.41843">
        <ele>2170</ele>
        <time>2013-07-07T13:13:33Z</time>
      </trkpt>
      <trkpt lat="42.68195" lon="1.41844">
        <ele>2168</ele>
        <time>2013-07-07T13:13:41Z</time>
      </trkpt>
      <trkpt lat="42.68197" lon="1.41849">
        <ele>2166</ele>
        <time>2013-07-07T13:13:54Z</time>
      </trkpt>
      <trkpt lat="42.68199" lon="1.41849">
        <ele>2165</ele>
        <time>2013-07-07T13:13:57Z</time>
      </trkpt>
      <trkpt lat="42.682" lon="1.41849">
        <ele>2164</ele>
        <time>2013-07-07T13:14:03Z</time>
      </trkpt>
      <trkpt lat="42.68204" lon="1.41848">
        <ele>2163</ele>
        <time>2013-07-07T13:14:12Z</time>
      </trkpt>
      <trkpt lat="42.68205" lon="1.41847">
        <ele>2161</ele>
        <time>2013-07-07T13:14:20Z</time>
      </trkpt>
      <trkpt lat="42.68206" lon="1.41848">
        <ele>2159</ele>
        <time>2013-07-07T13:14:27Z</time>
      </trkpt>
      <trkpt lat="42.68208" lon="1.41852">
        <ele>2159</ele>
        <time>2013-07-07T13:14:40Z</time>
      </trkpt>
      <trkpt lat="42.68211" lon="1.41853">
        <ele>2157</ele>
        <time>2013-07-07T13:14:48Z</time>
      </trkpt>
      <trkpt lat="42.68217" lon="1.4185">
        <ele>2155</ele>
        <time>2013-07-07T13:14:56Z</time>
      </trkpt>
      <trkpt lat="42.6822" lon="1.41852">
        <ele>2154</ele>
        <time>2013-07-07T13:15:01Z</time>
      </trkpt>
      <trkpt lat="42.68222" lon="1.41849">
        <ele>2152</ele>
        <time>2013-07-07T13:15:08Z</time>
      </trkpt>
      <trkpt lat="42.68223" lon="1.41851">
        <ele>2151</ele>
        <time>2013-07-07T13:15:15Z</time>
      </trkpt>
      <trkpt lat="42.68228" lon="1.4185">
        <ele>2150</ele>
        <time>2013-07-07T13:15:22Z</time>
      </trkpt>
      <trkpt lat="42.68231" lon="1.41848">
        <ele>2147</ele>
        <time>2013-07-07T13:15:31Z</time>
      </trkpt>
      <trkpt lat="42.68232" lon="1.41854">
        <ele>2146</ele>
        <time>2013-07-07T13:15:37Z</time>
      </trkpt>
      <trkpt lat="42.68231" lon="1.41856">
        <ele>2144</ele>
        <time>2013-07-07T13:15:45Z</time>
      </trkpt>
      <trkpt lat="42.68232" lon="1.41857">
        <ele>2143</ele>
        <time>2013-07-07T13:15:47Z</time>
      </trkpt>
      <trkpt lat="42.68234" lon="1.41856">
        <ele>2143</ele>
        <time>2013-07-07T13:15:59Z</time>
      </trkpt>
      <trkpt lat="42.68237" lon="1.41856">
        <ele>2140</ele>
        <time>2013-07-07T13:16:06Z</time>
      </trkpt>
      <trkpt lat="42.68238" lon="1.41855">
        <ele>2140</ele>
        <time>2013-07-07T13:16:12Z</time>
      </trkpt>
      <trkpt lat="42.68242" lon="1.41853">
        <ele>2138</ele>
        <time>2013-07-07T13:16:20Z</time>
      </trkpt>
      <trkpt lat="42.68243" lon="1.41854">
        <ele>2137</ele>
        <time>2013-07-07T13:16:26Z</time>
      </trkpt>
      <trkpt lat="42.68244" lon="1.41857">
        <ele>2135</ele>
        <time>2013-07-07T13:16:32Z</time>
      </trkpt>
      <trkpt lat="42.68245" lon="1.41859">
        <ele>2135</ele>
        <time>2013-07-07T13:16:39Z</time>
      </trkpt>
      <trkpt lat="42.68247" lon="1.41859">
        <ele>2134</ele>
        <time>2013-07-07T13:16:47Z</time>
      </trkpt>
      <trkpt lat="42.6825" lon="1.41859">
        <ele>2133</ele>
        <time>2013-07-07T13:16:54Z</time>
      </trkpt>
      <trkpt lat="42.6825" lon="1.41859">
        <ele>2131</ele>
        <time>2013-07-07T13:17:02Z</time>
      </trkpt>
      <trkpt lat="42.6825" lon="1.41859">
        <ele>2131</ele>
        <time>2013-07-07T13:17:08Z</time>
      </trkpt>
      <trkpt lat="42.68258" lon="1.41865">
        <ele>2128</ele>
        <time>2013-07-07T13:17:19Z</time>
      </trkpt>
      <trkpt lat="42.68258" lon="1.41866">
        <ele>2128</ele>
        <time>2013-07-07T13:17:25Z</time>
      </trkpt>
      <trkpt lat="42.68262" lon="1.41866">
        <ele>2128</ele>
        <time>2013-07-07T13:17:36Z</time>
      </trkpt>
      <trkpt lat="42.6827" lon="1.41861">
        <ele>2127</ele>
        <time>2013-07-07T13:17:44Z</time>
      </trkpt>
      <trkpt lat="42.68271" lon="1.41862">
        <ele>2124</ele>
        <time>2013-07-07T13:17:51Z</time>
      </trkpt>
      <trkpt lat="42.68273" lon="1.41864">
        <ele>2123</ele>
        <time>2013-07-07T13:18:00Z</time>
      </trkpt>
      <trkpt lat="42.68273" lon="1.41865">
        <ele>2121</ele>
        <time>2013-07-07T13:18:10Z</time>
      </trkpt>
      <trkpt lat="42.68277" lon="1.41863">
        <ele>2120</ele>
        <time>2013-07-07T13:18:18Z</time>
      </trkpt>
      <trkpt lat="42.68279" lon="1.41865">
        <ele>2119</ele>
        <time>2013-07-07T13:18:23Z</time>
      </trkpt>
      <trkpt lat="42.68279" lon="1.41867">
        <ele>2117</ele>
        <time>2013-07-07T13:18:29Z</time>
      </trkpt>
      <trkpt lat="42.6828" lon="1.41866">
        <ele>2117</ele>
        <time>2013-07-07T13:18:35Z</time>
      </trkpt>
      <trkpt lat="42.68281" lon="1.41866">
        <ele>2116</ele>
        <time>2013-07-07T13:18:42Z</time>
      </trkpt>
      <trkpt lat="42.68281" lon="1.41865">
        <ele>2116</ele>
        <time>2013-07-07T13:18:56Z</time>
      </trkpt>
      <trkpt lat="42.68282" lon="1.41873">
        <ele>2116</ele>
        <time>2013-07-07T13:19:10Z</time>
      </trkpt>
      <trkpt lat="42.68281" lon="1.41875">
        <ele>2116</ele>
        <time>2013-07-07T13:19:21Z</time>
      </trkpt>
      <trkpt lat="42.68282" lon="1.41874">
        <ele>2116</ele>
        <time>2013-07-07T13:19:34Z</time>
      </trkpt>
      <trkpt lat="42.68284" lon="1.41877">
        <ele>2116</ele>
        <time>2013-07-07T13:19:46Z</time>
      </trkpt>
      <trkpt lat="42.68282" lon="1.41876">
        <ele>2116</ele>
        <time>2013-07-07T13:19:59Z</time>
      </trkpt>
      <trkpt lat="42.68282" lon="1.41876">
        <ele>2117</ele>
        <time>2013-07-07T13:20:05Z</time>
      </trkpt>
      <trkpt lat="42.68281" lon="1.41872">
        <ele>2116</ele>
        <time>2013-07-07T13:20:21Z</time>
      </trkpt>
      <trkpt lat="42.68289" lon="1.41865">
        <ele>2116</ele>
        <time>2013-07-07T13:20:32Z</time>
      </trkpt>
      <trkpt lat="42.6829" lon="1.4187">
        <ele>2116</ele>
        <time>2013-07-07T13:20:42Z</time>
      </trkpt>
      <trkpt lat="42.68287" lon="1.41871">
        <ele>2116</ele>
        <time>2013-07-07T13:20:53Z</time>
      </trkpt>
      <trkpt lat="42.68286" lon="1.41871">
        <ele>2116</ele>
        <time>2013-07-07T13:21:04Z</time>
      </trkpt>
      <trkpt lat="42.68289" lon="1.41872">
        <ele>2116</ele>
        <time>2013-07-07T13:21:15Z</time>
      </trkpt>
      <trkpt lat="42.68291" lon="1.41871">
        <ele>2114</ele>
        <time>2013-07-07T13:21:23Z</time>
      </trkpt>
      <trkpt lat="42.6829" lon="1.41869">
        <ele>2114</ele>
        <time>2013-07-07T13:21:30Z</time>
      </trkpt>
      <trkpt lat="42.68288" lon="1.41871">
        <ele>2114</ele>
        <time>2013-07-07T13:21:46Z</time>
      </trkpt>
      <trkpt lat="42.68293" lon="1.41872">
        <ele>2113</ele>
        <time>2013-07-07T13:21:56Z</time>
      </trkpt>
      <trkpt lat="42.68296" lon="1.4187">
        <ele>2112</ele>
        <time>2013-07-07T13:22:04Z</time>
      </trkpt>
      <trkpt lat="42.683" lon="1.41872">
        <ele>2110</ele>
        <time>2013-07-07T13:22:14Z</time>
      </trkpt>
      <trkpt lat="42.68304" lon="1.4187">
        <ele>2109</ele>
        <time>2013-07-07T13:22:21Z</time>
      </trkpt>
      <trkpt lat="42.68305" lon="1.41873">
        <ele>2107</ele>
        <time>2013-07-07T13:22:29Z</time>
      </trkpt>
      <trkpt lat="42.68307" lon="1.41875">
        <ele>2105</ele>
        <time>2013-07-07T13:22:37Z</time>
      </trkpt>
      <trkpt lat="42.68308" lon="1.41873">
        <ele>2105</ele>
        <time>2013-07-07T13:22:42Z</time>
      </trkpt>
      <trkpt lat="42.6831" lon="1.41873">
        <ele>2104</ele>
        <time>2013-07-07T13:22:48Z</time>
      </trkpt>
      <trkpt lat="42.68307" lon="1.41875">
        <ele>2103</ele>
        <time>2013-07-07T13:22:55Z</time>
      </trkpt>
      <trkpt lat="42.68309" lon="1.41874">
        <ele>2103</ele>
        <time>2013-07-07T13:23:04Z</time>
      </trkpt>
      <trkpt lat="42.68311" lon="1.41875">
        <ele>2102</ele>
        <time>2013-07-07T13:23:11Z</time>
      </trkpt>
      <trkpt lat="42.68313" lon="1.41873">
        <ele>2101</ele>
        <time>2013-07-07T13:23:18Z</time>
      </trkpt>
      <trkpt lat="42.68316" lon="1.41872">
        <ele>2100</ele>
        <time>2013-07-07T13:23:25Z</time>
      </trkpt>
      <trkpt lat="42.68321" lon="1.41865">
        <ele>2099</ele>
        <time>2013-07-07T13:23:34Z</time>
      </trkpt>
      <trkpt lat="42.6832" lon="1.41871">
        <ele>2098</ele>
        <time>2013-07-07T13:23:41Z</time>
      </trkpt>
      <trkpt lat="42.68322" lon="1.41872">
        <ele>2097</ele>
        <time>2013-07-07T13:23:47Z</time>
      </trkpt>
      <trkpt lat="42.6832" lon="1.4187">
        <ele>2097</ele>
        <time>2013-07-07T13:23:54Z</time>
      </trkpt>
      <trkpt lat="42.68318" lon="1.41871">
        <ele>2096</ele>
        <time>2013-07-07T13:24:04Z</time>
      </trkpt>
      <trkpt lat="42.68318" lon="1.41871">
        <ele>2099</ele>
        <time>2013-07-07T13:24:05Z</time>
      </trkpt>
      <trkpt lat="42.68319" lon="1.41871">
        <ele>2098</ele>
        <time>2013-07-07T13:24:06Z</time>
      </trkpt>
      <trkpt lat="42.68318" lon="1.41872">
        <ele>2097</ele>
        <time>2013-07-07T13:24:08Z</time>
      </trkpt>
      <trkpt lat="42.68319" lon="1.41869">
        <ele>2096</ele>
        <time>2013-07-07T13:24:17Z</time>
      </trkpt>
      <trkpt lat="42.68321" lon="1.41877">
        <ele>2094</ele>
        <time>2013-07-07T13:24:25Z</time>
      </trkpt>
      <trkpt lat="42.68319" lon="1.4187">
        <ele>2094</ele>
        <time>2013-07-07T13:24:36Z</time>
      </trkpt>
      <trkpt lat="42.68321" lon="1.4187">
        <ele>2094</ele>
        <time>2013-07-07T13:24:53Z</time>
      </trkpt>
      <trkpt lat="42.6832" lon="1.41875">
        <ele>2092</ele>
        <time>2013-07-07T13:25:03Z</time>
      </trkpt>
      <trkpt lat="42.68323" lon="1.41875">
        <ele>2092</ele>
        <time>2013-07-07T13:25:11Z</time>
      </trkpt>
      <trkpt lat="42.68322" lon="1.41878">
        <ele>2092</ele>
        <time>2013-07-07T13:25:24Z</time>
      </trkpt>
      <trkpt lat="42.68321" lon="1.41879">
        <ele>2091</ele>
        <time>2013-07-07T13:25:31Z</time>
      </trkpt>
      <trkpt lat="42.68318" lon="1.41887">
        <ele>2089</ele>
        <time>2013-07-07T13:25:40Z</time>
      </trkpt>
      <trkpt lat="42.68318" lon="1.41891">
        <ele>2088</ele>
        <time>2013-07-07T13:25:49Z</time>
      </trkpt>
      <trkpt lat="42.68322" lon="1.41894">
        <ele>2086</ele>
        <time>2013-07-07T13:25:56Z</time>
      </trkpt>
      <trkpt lat="42.68323" lon="1.41893">
        <ele>2086</ele>
        <time>2013-07-07T13:25:57Z</time>
      </trkpt>
      <trkpt lat="42.68323" lon="1.419">
        <ele>2085</ele>
        <time>2013-07-07T13:26:03Z</time>
      </trkpt>
      <trkpt lat="42.68323" lon="1.41906">
        <ele>2084</ele>
        <time>2013-07-07T13:26:18Z</time>
      </trkpt>
      <trkpt lat="42.68327" lon="1.41898">
        <ele>2082</ele>
        <time>2013-07-07T13:26:20Z</time>
      </trkpt>
      <trkpt lat="42.68329" lon="1.41898">
        <ele>2081</ele>
        <time>2013-07-07T13:26:28Z</time>
      </trkpt>
      <trkpt lat="42.68333" lon="1.41898">
        <ele>2079</ele>
        <time>2013-07-07T13:26:36Z</time>
      </trkpt>
      <trkpt lat="42.68332" lon="1.41904">
        <ele>2078</ele>
        <time>2013-07-07T13:26:43Z</time>
      </trkpt>
      <trkpt lat="42.68332" lon="1.41905">
        <ele>2078</ele>
        <time>2013-07-07T13:26:52Z</time>
      </trkpt>
      <trkpt lat="42.68333" lon="1.41903">
        <ele>2076</ele>
        <time>2013-07-07T13:27:00Z</time>
      </trkpt>
      <trkpt lat="42.6833" lon="1.41896">
        <ele>2075</ele>
        <time>2013-07-07T13:27:11Z</time>
      </trkpt>
      <trkpt lat="42.68328" lon="1.41896">
        <ele>2074</ele>
        <time>2013-07-07T13:27:22Z</time>
      </trkpt>
      <trkpt lat="42.68329" lon="1.41895">
        <ele>2070</ele>
        <time>2013-07-07T13:27:32Z</time>
      </trkpt>
      <trkpt lat="42.6833" lon="1.41899">
        <ele>2069</ele>
        <time>2013-07-07T13:27:36Z</time>
      </trkpt>
      <trkpt lat="42.68327" lon="1.41899">
        <ele>2068</ele>
        <time>2013-07-07T13:27:45Z</time>
      </trkpt>
      <trkpt lat="42.68326" lon="1.41897">
        <ele>2067</ele>
        <time>2013-07-07T13:27:52Z</time>
      </trkpt>
      <trkpt lat="42.68321" lon="1.41926">
        <ele>2067</ele>
        <time>2013-07-07T13:28:06Z</time>
      </trkpt>
      <trkpt lat="42.68316" lon="1.41921">
        <ele>2067</ele>
        <time>2013-07-07T13:28:25Z</time>
      </trkpt>
      <trkpt lat="42.68321" lon="1.41938">
        <ele>2066</ele>
        <time>2013-07-07T13:28:32Z</time>
      </trkpt>
      <trkpt lat="42.68321" lon="1.41936">
        <ele>2065</ele>
        <time>2013-07-07T13:28:39Z</time>
      </trkpt>
      <trkpt lat="42.68323" lon="1.41941">
        <ele>2064</ele>
        <time>2013-07-07T13:28:45Z</time>
      </trkpt>
      <trkpt lat="42.68322" lon="1.41942">
        <ele>2063</ele>
        <time>2013-07-07T13:28:46Z</time>
      </trkpt>
      <trkpt lat="42.68327" lon="1.41946">
        <ele>2061</ele>
        <time>2013-07-07T13:28:51Z</time>
      </trkpt>
      <trkpt lat="42.68326" lon="1.41951">
        <ele>2060</ele>
        <time>2013-07-07T13:28:59Z</time>
      </trkpt>
      <trkpt lat="42.68325" lon="1.4195">
        <ele>2061</ele>
        <time>2013-07-07T13:29:06Z</time>
      </trkpt>
      <trkpt lat="42.6833" lon="1.41947">
        <ele>2060</ele>
        <time>2013-07-07T13:29:14Z</time>
      </trkpt>
      <trkpt lat="42.68329" lon="1.41948">
        <ele>2058</ele>
        <time>2013-07-07T13:29:21Z</time>
      </trkpt>
      <trkpt lat="42.6833" lon="1.41955">
        <ele>2056</ele>
        <time>2013-07-07T13:29:27Z</time>
      </trkpt>
      <trkpt lat="42.68329" lon="1.41959">
        <ele>2055</ele>
        <time>2013-07-07T13:29:34Z</time>
      </trkpt>
      <trkpt lat="42.68332" lon="1.41958">
        <ele>2054</ele>
        <time>2013-07-07T13:29:42Z</time>
      </trkpt>
      <trkpt lat="42.68331" lon="1.41963">
        <ele>2052</ele>
        <time>2013-07-07T13:29:52Z</time>
      </trkpt>
      <trkpt lat="42.68337" lon="1.41961">
        <ele>2051</ele>
        <time>2013-07-07T13:29:59Z</time>
      </trkpt>
      <trkpt lat="42.68341" lon="1.41961">
        <ele>2050</ele>
        <time>2013-07-07T13:30:06Z</time>
      </trkpt>
      <trkpt lat="42.68341" lon="1.41965">
        <ele>2050</ele>
        <time>2013-07-07T13:30:13Z</time>
      </trkpt>
      <trkpt lat="42.68346" lon="1.41963">
        <ele>2048</ele>
        <time>2013-07-07T13:30:20Z</time>
      </trkpt>
      <trkpt lat="42.68351" lon="1.41958">
        <ele>2049</ele>
        <time>2013-07-07T13:30:26Z</time>
      </trkpt>
      <trkpt lat="42.68353" lon="1.41959">
        <ele>2049</ele>
        <time>2013-07-07T13:30:35Z</time>
      </trkpt>
      <trkpt lat="42.68353" lon="1.41965">
        <ele>2048</ele>
        <time>2013-07-07T13:30:43Z</time>
      </trkpt>
      <trkpt lat="42.6835" lon="1.41964">
        <ele>2048</ele>
        <time>2013-07-07T13:30:53Z</time>
      </trkpt>
      <trkpt lat="42.68353" lon="1.41965">
        <ele>2048</ele>
        <time>2013-07-07T13:31:00Z</time>
      </trkpt>
      <trkpt lat="42.68353" lon="1.41961">
        <ele>2048</ele>
        <time>2013-07-07T13:31:08Z</time>
      </trkpt>
      <trkpt lat="42.68352" lon="1.41976">
        <ele>2048</ele>
        <time>2013-07-07T13:31:20Z</time>
      </trkpt>
      <trkpt lat="42.68354" lon="1.41977">
        <ele>2047</ele>
        <time>2013-07-07T13:31:29Z</time>
      </trkpt>
      <trkpt lat="42.68354" lon="1.41975">
        <ele>2048</ele>
        <time>2013-07-07T13:31:38Z</time>
      </trkpt>
      <trkpt lat="42.68353" lon="1.41972">
        <ele>2048</ele>
        <time>2013-07-07T13:31:54Z</time>
      </trkpt>
      <trkpt lat="42.68345" lon="1.41979">
        <ele>2047</ele>
        <time>2013-07-07T13:32:08Z</time>
      </trkpt>
      <trkpt lat="42.68342" lon="1.41976">
        <ele>2048</ele>
        <time>2013-07-07T13:32:26Z</time>
      </trkpt>
      <trkpt lat="42.68337" lon="1.4198">
        <ele>2047</ele>
        <time>2013-07-07T13:32:40Z</time>
      </trkpt>
      <trkpt lat="42.68343" lon="1.4198">
        <ele>2047</ele>
        <time>2013-07-07T13:33:07Z</time>
      </trkpt>
      <trkpt lat="42.68351" lon="1.41976">
        <ele>2047</ele>
        <time>2013-07-07T13:33:20Z</time>
      </trkpt>
      <trkpt lat="42.68349" lon="1.41981">
        <ele>2047</ele>
        <time>2013-07-07T13:33:34Z</time>
      </trkpt>
      <trkpt lat="42.68351" lon="1.41973">
        <ele>2047</ele>
        <time>2013-07-07T13:33:44Z</time>
      </trkpt>
      <trkpt lat="42.68349" lon="1.41978">
        <ele>2047</ele>
        <time>2013-07-07T13:33:57Z</time>
      </trkpt>
      <trkpt lat="42.68348" lon="1.41981">
        <ele>2047</ele>
        <time>2013-07-07T13:34:08Z</time>
      </trkpt>
      <trkpt lat="42.6835" lon="1.41977">
        <ele>2048</ele>
        <time>2013-07-07T13:34:13Z</time>
      </trkpt>
      <trkpt lat="42.68349" lon="1.41978">
        <ele>2048</ele>
        <time>2013-07-07T13:34:22Z</time>
      </trkpt>
      <trkpt lat="42.68347" lon="1.41978">
        <ele>2048</ele>
        <time>2013-07-07T13:34:31Z</time>
      </trkpt>
      <trkpt lat="42.68351" lon="1.4198">
        <ele>2047</ele>
        <time>2013-07-07T13:34:39Z</time>
      </trkpt>
      <trkpt lat="42.68355" lon="1.41987">
        <ele>2046</ele>
        <time>2013-07-07T13:34:47Z</time>
      </trkpt>
      <trkpt lat="42.68361" lon="1.41991">
        <ele>2044</ele>
        <time>2013-07-07T13:34:55Z</time>
      </trkpt>
      <trkpt lat="42.6837" lon="1.41992">
        <ele>2042</ele>
        <time>2013-07-07T13:35:02Z</time>
      </trkpt>
      <trkpt lat="42.68376" lon="1.41992">
        <ele>2041</ele>
        <time>2013-07-07T13:35:08Z</time>
      </trkpt>
      <trkpt lat="42.68377" lon="1.41994">
        <ele>2041</ele>
        <time>2013-07-07T13:35:10Z</time>
      </trkpt>
      <trkpt lat="42.6838" lon="1.42003">
        <ele>2038</ele>
        <time>2013-07-07T13:35:19Z</time>
      </trkpt>
      <trkpt lat="42.68382" lon="1.42008">
        <ele>2035</ele>
        <time>2013-07-07T13:35:26Z</time>
      </trkpt>
      <trkpt lat="42.68387" lon="1.42017">
        <ele>2032</ele>
        <time>2013-07-07T13:35:34Z</time>
      </trkpt>
      <trkpt lat="42.68387" lon="1.42017">
        <ele>2032</ele>
        <time>2013-07-07T13:35:35Z</time>
      </trkpt>
      <trkpt lat="42.68389" lon="1.42023">
        <ele>2030</ele>
        <time>2013-07-07T13:35:40Z</time>
      </trkpt>
      <trkpt lat="42.6839" lon="1.42025">
        <ele>2029</ele>
        <time>2013-07-07T13:35:42Z</time>
      </trkpt>
      <trkpt lat="42.68392" lon="1.42026">
        <ele>2029</ele>
        <time>2013-07-07T13:35:43Z</time>
      </trkpt>
      <trkpt lat="42.684" lon="1.4203">
        <ele>2026</ele>
        <time>2013-07-07T13:35:53Z</time>
      </trkpt>
      <trkpt lat="42.68402" lon="1.4203">
        <ele>2026</ele>
        <time>2013-07-07T13:35:55Z</time>
      </trkpt>
      <trkpt lat="42.68412" lon="1.42026">
        <ele>2024</ele>
        <time>2013-07-07T13:36:04Z</time>
      </trkpt>
      <trkpt lat="42.68414" lon="1.42028">
        <ele>2023</ele>
        <time>2013-07-07T13:36:09Z</time>
      </trkpt>
      <trkpt lat="42.68424" lon="1.42029">
        <ele>2021</ele>
        <time>2013-07-07T13:36:17Z</time>
      </trkpt>
      <trkpt lat="42.68424" lon="1.42031">
        <ele>2020</ele>
        <time>2013-07-07T13:36:21Z</time>
      </trkpt>
      <trkpt lat="42.68424" lon="1.42038">
        <ele>2018</ele>
        <time>2013-07-07T13:36:28Z</time>
      </trkpt>
      <trkpt lat="42.68429" lon="1.4204">
        <ele>2016</ele>
        <time>2013-07-07T13:36:35Z</time>
      </trkpt>
      <trkpt lat="42.68432" lon="1.42047">
        <ele>2015</ele>
        <time>2013-07-07T13:36:41Z</time>
      </trkpt>
      <trkpt lat="42.68431" lon="1.42051">
        <ele>2013</ele>
        <time>2013-07-07T13:36:49Z</time>
      </trkpt>
      <trkpt lat="42.68433" lon="1.42058">
        <ele>2010</ele>
        <time>2013-07-07T13:36:56Z</time>
      </trkpt>
      <trkpt lat="42.68432" lon="1.4206">
        <ele>2011</ele>
        <time>2013-07-07T13:37:03Z</time>
      </trkpt>
      <trkpt lat="42.68432" lon="1.4207">
        <ele>2010</ele>
        <time>2013-07-07T13:37:12Z</time>
      </trkpt>
      <trkpt lat="42.68441" lon="1.42063">
        <ele>2008</ele>
        <time>2013-07-07T13:37:19Z</time>
      </trkpt>
      <trkpt lat="42.6844" lon="1.42068">
        <ele>2007</ele>
        <time>2013-07-07T13:37:26Z</time>
      </trkpt>
      <trkpt lat="42.68439" lon="1.42072">
        <ele>2005</ele>
        <time>2013-07-07T13:37:34Z</time>
      </trkpt>
      <trkpt lat="42.6844" lon="1.42076">
        <ele>2004</ele>
        <time>2013-07-07T13:37:42Z</time>
      </trkpt>
      <trkpt lat="42.6844" lon="1.42079">
        <ele>2004</ele>
        <time>2013-07-07T13:37:51Z</time>
      </trkpt>
      <trkpt lat="42.68441" lon="1.42085">
        <ele>2002</ele>
        <time>2013-07-07T13:37:57Z</time>
      </trkpt>
      <trkpt lat="42.68442" lon="1.42089">
        <ele>2000</ele>
        <time>2013-07-07T13:38:06Z</time>
      </trkpt>
      <trkpt lat="42.68443" lon="1.42098">
        <ele>1998</ele>
        <time>2013-07-07T13:38:16Z</time>
      </trkpt>
      <trkpt lat="42.68447" lon="1.42107">
        <ele>1996</ele>
        <time>2013-07-07T13:38:22Z</time>
      </trkpt>
      <trkpt lat="42.68452" lon="1.4211">
        <ele>1994</ele>
        <time>2013-07-07T13:38:29Z</time>
      </trkpt>
      <trkpt lat="42.68452" lon="1.42115">
        <ele>1993</ele>
        <time>2013-07-07T13:38:35Z</time>
      </trkpt>
      <trkpt lat="42.6845" lon="1.42117">
        <ele>1993</ele>
        <time>2013-07-07T13:38:44Z</time>
      </trkpt>
      <trkpt lat="42.68447" lon="1.42119">
        <ele>1994</ele>
        <time>2013-07-07T13:39:00Z</time>
      </trkpt>
      <trkpt lat="42.68445" lon="1.42118">
        <ele>1993</ele>
        <time>2013-07-07T13:39:09Z</time>
      </trkpt>
      <trkpt lat="42.68445" lon="1.42121">
        <ele>1993</ele>
        <time>2013-07-07T13:39:18Z</time>
      </trkpt>
      <trkpt lat="42.68458" lon="1.42111">
        <ele>1993</ele>
        <time>2013-07-07T13:39:29Z</time>
      </trkpt>
      <trkpt lat="42.68437" lon="1.42117">
        <ele>1992</ele>
        <time>2013-07-07T13:39:45Z</time>
      </trkpt>
      <trkpt lat="42.68439" lon="1.4212">
        <ele>1990</ele>
        <time>2013-07-07T13:39:52Z</time>
      </trkpt>
      <trkpt lat="42.68442" lon="1.42123">
        <ele>1989</ele>
        <time>2013-07-07T13:39:58Z</time>
      </trkpt>
      <trkpt lat="42.68442" lon="1.42127">
        <ele>1987</ele>
        <time>2013-07-07T13:40:05Z</time>
      </trkpt>
      <trkpt lat="42.68443" lon="1.42131">
        <ele>1985</ele>
        <time>2013-07-07T13:40:09Z</time>
      </trkpt>
      <trkpt lat="42.68443" lon="1.42135">
        <ele>1985</ele>
        <time>2013-07-07T13:40:13Z</time>
      </trkpt>
      <trkpt lat="42.68442" lon="1.42145">
        <ele>1982</ele>
        <time>2013-07-07T13:40:22Z</time>
      </trkpt>
      <trkpt lat="42.6844" lon="1.42143">
        <ele>1982</ele>
        <time>2013-07-07T13:40:32Z</time>
      </trkpt>
      <trkpt lat="42.68439" lon="1.42143">
        <ele>1981</ele>
        <time>2013-07-07T13:40:46Z</time>
      </trkpt>
      <trkpt lat="42.6844" lon="1.42152">
        <ele>1980</ele>
        <time>2013-07-07T13:40:57Z</time>
      </trkpt>
      <trkpt lat="42.68439" lon="1.42156">
        <ele>1979</ele>
        <time>2013-07-07T13:41:01Z</time>
      </trkpt>
      <trkpt lat="42.6844" lon="1.42164">
        <ele>1978</ele>
        <time>2013-07-07T13:41:09Z</time>
      </trkpt>
      <trkpt lat="42.68441" lon="1.42169">
        <ele>1977</ele>
        <time>2013-07-07T13:41:13Z</time>
      </trkpt>
      <trkpt lat="42.68442" lon="1.42176">
        <ele>1976</ele>
        <time>2013-07-07T13:41:20Z</time>
      </trkpt>
      <trkpt lat="42.68439" lon="1.42181">
        <ele>1976</ele>
        <time>2013-07-07T13:41:28Z</time>
      </trkpt>
      <trkpt lat="42.68437" lon="1.42177">
        <ele>1977</ele>
        <time>2013-07-07T13:41:36Z</time>
      </trkpt>
      <trkpt lat="42.68436" lon="1.42176">
        <ele>1977</ele>
        <time>2013-07-07T13:41:37Z</time>
      </trkpt>
      <trkpt lat="42.68431" lon="1.42174">
        <ele>1977</ele>
        <time>2013-07-07T13:41:46Z</time>
      </trkpt>
      <trkpt lat="42.68431" lon="1.42179">
        <ele>1977</ele>
        <time>2013-07-07T13:41:53Z</time>
      </trkpt>
      <trkpt lat="42.68438" lon="1.42183">
        <ele>1977</ele>
        <time>2013-07-07T13:42:00Z</time>
      </trkpt>
      <trkpt lat="42.68445" lon="1.4218">
        <ele>1976</ele>
        <time>2013-07-07T13:42:06Z</time>
      </trkpt>
      <trkpt lat="42.68452" lon="1.42176">
        <ele>1975</ele>
        <time>2013-07-07T13:42:12Z</time>
      </trkpt>
      <trkpt lat="42.68455" lon="1.42172">
        <ele>1974</ele>
        <time>2013-07-07T13:42:17Z</time>
      </trkpt>
      <trkpt lat="42.68464" lon="1.4217">
        <ele>1974</ele>
        <time>2013-07-07T13:42:23Z</time>
      </trkpt>
      <trkpt lat="42.68471" lon="1.42177">
        <ele>1973</ele>
        <time>2013-07-07T13:42:30Z</time>
      </trkpt>
      <trkpt lat="42.68476" lon="1.42181">
        <ele>1973</ele>
        <time>2013-07-07T13:42:36Z</time>
      </trkpt>
      <trkpt lat="42.68478" lon="1.42182">
        <ele>1972</ele>
        <time>2013-07-07T13:42:38Z</time>
      </trkpt>
      <trkpt lat="42.68481" lon="1.42183">
        <ele>1972</ele>
        <time>2013-07-07T13:42:44Z</time>
      </trkpt>
      <trkpt lat="42.68481" lon="1.42185">
        <ele>1972</ele>
        <time>2013-07-07T13:42:51Z</time>
      </trkpt>
      <trkpt lat="42.68484" lon="1.42185">
        <ele>1972</ele>
        <time>2013-07-07T13:42:55Z</time>
      </trkpt>
      <trkpt lat="42.68491" lon="1.42188">
        <ele>1970</ele>
        <time>2013-07-07T13:43:02Z</time>
      </trkpt>
      <trkpt lat="42.68496" lon="1.42187">
        <ele>1970</ele>
        <time>2013-07-07T13:43:05Z</time>
      </trkpt>
      <trkpt lat="42.685" lon="1.42185">
        <ele>1970</ele>
        <time>2013-07-07T13:43:09Z</time>
      </trkpt>
      <trkpt lat="42.68505" lon="1.42187">
        <ele>1969</ele>
        <time>2013-07-07T13:43:15Z</time>
      </trkpt>
      <trkpt lat="42.68508" lon="1.42188">
        <ele>1968</ele>
        <time>2013-07-07T13:43:23Z</time>
      </trkpt>
      <trkpt lat="42.68509" lon="1.42182">
        <ele>1969</ele>
        <time>2013-07-07T13:43:31Z</time>
      </trkpt>
      <trkpt lat="42.68508" lon="1.42185">
        <ele>1968</ele>
        <time>2013-07-07T13:43:39Z</time>
      </trkpt>
      <trkpt lat="42.6851" lon="1.42185">
        <ele>1968</ele>
        <time>2013-07-07T13:43:49Z</time>
      </trkpt>
      <trkpt lat="42.68507" lon="1.42185">
        <ele>1968</ele>
        <time>2013-07-07T13:43:59Z</time>
      </trkpt>
      <trkpt lat="42.68506" lon="1.42185">
        <ele>1968</ele>
        <time>2013-07-07T13:44:00Z</time>
      </trkpt>
      <trkpt lat="42.68508" lon="1.42185">
        <ele>1969</ele>
        <time>2013-07-07T13:44:05Z</time>
      </trkpt>
      <trkpt lat="42.68511" lon="1.42183">
        <ele>1968</ele>
        <time>2013-07-07T13:44:10Z</time>
      </trkpt>
      <trkpt lat="42.68514" lon="1.42188">
        <ele>1968</ele>
        <time>2013-07-07T13:44:17Z</time>
      </trkpt>
      <trkpt lat="42.68518" lon="1.4219">
        <ele>1968</ele>
        <time>2013-07-07T13:44:22Z</time>
      </trkpt>
      <trkpt lat="42.68527" lon="1.42184">
        <ele>1966</ele>
        <time>2013-07-07T13:44:31Z</time>
      </trkpt>
      <trkpt lat="42.68529" lon="1.42183">
        <ele>1966</ele>
        <time>2013-07-07T13:44:33Z</time>
      </trkpt>
      <trkpt lat="42.68531" lon="1.4218">
        <ele>1966</ele>
        <time>2013-07-07T13:44:36Z</time>
      </trkpt>
      <trkpt lat="42.68535" lon="1.42179">
        <ele>1964</ele>
        <time>2013-07-07T13:44:44Z</time>
      </trkpt>
      <trkpt lat="42.68539" lon="1.4218">
        <ele>1964</ele>
        <time>2013-07-07T13:44:48Z</time>
      </trkpt>
      <trkpt lat="42.68546" lon="1.42181">
        <ele>1963</ele>
        <time>2013-07-07T13:44:55Z</time>
      </trkpt>
      <trkpt lat="42.68547" lon="1.42183">
        <ele>1963</ele>
        <time>2013-07-07T13:45:02Z</time>
      </trkpt>
      <trkpt lat="42.68548" lon="1.42183">
        <ele>1963</ele>
        <time>2013-07-07T13:45:03Z</time>
      </trkpt>
      <trkpt lat="42.68556" lon="1.42182">
        <ele>1962</ele>
        <time>2013-07-07T13:45:11Z</time>
      </trkpt>
      <trkpt lat="42.68562" lon="1.42184">
        <ele>1961</ele>
        <time>2013-07-07T13:45:19Z</time>
      </trkpt>
      <trkpt lat="42.68565" lon="1.42187">
        <ele>1960</ele>
        <time>2013-07-07T13:45:25Z</time>
      </trkpt>
      <trkpt lat="42.68565" lon="1.42185">
        <ele>1960</ele>
        <time>2013-07-07T13:45:34Z</time>
      </trkpt>
      <trkpt lat="42.68566" lon="1.42185">
        <ele>1960</ele>
        <time>2013-07-07T13:45:41Z</time>
      </trkpt>
      <trkpt lat="42.68568" lon="1.42184">
        <ele>1960</ele>
        <time>2013-07-07T13:45:49Z</time>
      </trkpt>
      <trkpt lat="42.6857" lon="1.42183">
        <ele>1959</ele>
        <time>2013-07-07T13:45:58Z</time>
      </trkpt>
      <trkpt lat="42.68569" lon="1.42189">
        <ele>1960</ele>
        <time>2013-07-07T13:46:06Z</time>
      </trkpt>
      <trkpt lat="42.68572" lon="1.42194">
        <ele>1961</ele>
        <time>2013-07-07T13:46:15Z</time>
      </trkpt>
      <trkpt lat="42.68572" lon="1.42194">
        <ele>1960</ele>
        <time>2013-07-07T13:46:16Z</time>
      </trkpt>
      <trkpt lat="42.68571" lon="1.42199">
        <ele>1961</ele>
        <time>2013-07-07T13:46:22Z</time>
      </trkpt>
      <trkpt lat="42.68571" lon="1.42201">
        <ele>1961</ele>
        <time>2013-07-07T13:46:25Z</time>
      </trkpt>
      <trkpt lat="42.6858" lon="1.42203">
        <ele>1961</ele>
        <time>2013-07-07T13:46:33Z</time>
      </trkpt>
      <trkpt lat="42.68581" lon="1.42203">
        <ele>1961</ele>
        <time>2013-07-07T13:46:35Z</time>
      </trkpt>
      <trkpt lat="42.68587" lon="1.42203">
        <ele>1960</ele>
        <time>2013-07-07T13:46:43Z</time>
      </trkpt>
      <trkpt lat="42.68589" lon="1.4221">
        <ele>1960</ele>
        <time>2013-07-07T13:46:50Z</time>
      </trkpt>
      <trkpt lat="42.68592" lon="1.42214">
        <ele>1960</ele>
        <time>2013-07-07T13:46:56Z</time>
      </trkpt>
      <trkpt lat="42.68597" lon="1.42218">
        <ele>1961</ele>
        <time>2013-07-07T13:47:04Z</time>
      </trkpt>
      <trkpt lat="42.68601" lon="1.4222">
        <ele>1961</ele>
        <time>2013-07-07T13:47:11Z</time>
      </trkpt>
      <trkpt lat="42.68601" lon="1.42221">
        <ele>1960</ele>
        <time>2013-07-07T13:47:22Z</time>
      </trkpt>
      <trkpt lat="42.68604" lon="1.42229">
        <ele>1960</ele>
        <time>2013-07-07T13:47:40Z</time>
      </trkpt>
      <trkpt lat="42.68607" lon="1.42229">
        <ele>1960</ele>
        <time>2013-07-07T13:47:53Z</time>
      </trkpt>
      <trkpt lat="42.68607" lon="1.42231">
        <ele>1959</ele>
        <time>2013-07-07T13:48:01Z</time>
      </trkpt>
      <trkpt lat="42.68612" lon="1.42224">
        <ele>1959</ele>
        <time>2013-07-07T13:48:20Z</time>
      </trkpt>
      <trkpt lat="42.68614" lon="1.42223">
        <ele>1959</ele>
        <time>2013-07-07T13:48:38Z</time>
      </trkpt>
      <trkpt lat="42.68617" lon="1.42223">
        <ele>1959</ele>
        <time>2013-07-07T13:48:59Z</time>
      </trkpt>
      <trkpt lat="42.68613" lon="1.42225">
        <ele>1959</ele>
        <time>2013-07-07T13:49:17Z</time>
      </trkpt>
      <trkpt lat="42.68614" lon="1.42222">
        <ele>1960</ele>
        <time>2013-07-07T13:49:28Z</time>
      </trkpt>
      <trkpt lat="42.68617" lon="1.42221">
        <ele>1960</ele>
        <time>2013-07-07T13:49:30Z</time>
      </trkpt>
      <trkpt lat="42.68618" lon="1.42224">
        <ele>1959</ele>
        <time>2013-07-07T13:49:34Z</time>
      </trkpt>
      <trkpt lat="42.68626" lon="1.42227">
        <ele>1958</ele>
        <time>2013-07-07T13:49:42Z</time>
      </trkpt>
      <trkpt lat="42.6863" lon="1.42226">
        <ele>1958</ele>
        <time>2013-07-07T13:49:46Z</time>
      </trkpt>
      <trkpt lat="42.68639" lon="1.42223">
        <ele>1956</ele>
        <time>2013-07-07T13:49:54Z</time>
      </trkpt>
      <trkpt lat="42.68645" lon="1.4222">
        <ele>1955</ele>
        <time>2013-07-07T13:50:01Z</time>
      </trkpt>
      <trkpt lat="42.68651" lon="1.42216">
        <ele>1954</ele>
        <time>2013-07-07T13:50:09Z</time>
      </trkpt>
      <trkpt lat="42.68655" lon="1.42215">
        <ele>1952</ele>
        <time>2013-07-07T13:50:16Z</time>
      </trkpt>
      <trkpt lat="42.68661" lon="1.42213">
        <ele>1950</ele>
        <time>2013-07-07T13:50:24Z</time>
      </trkpt>
      <trkpt lat="42.68665" lon="1.42214">
        <ele>1949</ele>
        <time>2013-07-07T13:50:30Z</time>
      </trkpt>
      <trkpt lat="42.6867" lon="1.42213">
        <ele>1947</ele>
        <time>2013-07-07T13:50:39Z</time>
      </trkpt>
      <trkpt lat="42.68672" lon="1.42212">
        <ele>1946</ele>
        <time>2013-07-07T13:50:43Z</time>
      </trkpt>
      <trkpt lat="42.68673" lon="1.42214">
        <ele>1945</ele>
        <time>2013-07-07T13:50:50Z</time>
      </trkpt>
      <trkpt lat="42.68677" lon="1.42216">
        <ele>1943</ele>
        <time>2013-07-07T13:50:57Z</time>
      </trkpt>
      <trkpt lat="42.68682" lon="1.42212">
        <ele>1942</ele>
        <time>2013-07-07T13:51:04Z</time>
      </trkpt>
      <trkpt lat="42.68686" lon="1.42212">
        <ele>1940</ele>
        <time>2013-07-07T13:51:10Z</time>
      </trkpt>
      <trkpt lat="42.68691" lon="1.42215">
        <ele>1939</ele>
        <time>2013-07-07T13:51:19Z</time>
      </trkpt>
      <trkpt lat="42.68692" lon="1.42213">
        <ele>1938</ele>
        <time>2013-07-07T13:51:28Z</time>
      </trkpt>
      <trkpt lat="42.68695" lon="1.42215">
        <ele>1938</ele>
        <time>2013-07-07T13:51:39Z</time>
      </trkpt>
      <trkpt lat="42.68698" lon="1.42219">
        <ele>1938</ele>
        <time>2013-07-07T13:51:48Z</time>
      </trkpt>
      <trkpt lat="42.68703" lon="1.42222">
        <ele>1937</ele>
        <time>2013-07-07T13:51:54Z</time>
      </trkpt>
      <trkpt lat="42.68707" lon="1.42221">
        <ele>1935</ele>
        <time>2013-07-07T13:52:01Z</time>
      </trkpt>
      <trkpt lat="42.68709" lon="1.42221">
        <ele>1934</ele>
        <time>2013-07-07T13:52:04Z</time>
      </trkpt>
      <trkpt lat="42.68712" lon="1.42221">
        <ele>1934</ele>
        <time>2013-07-07T13:52:12Z</time>
      </trkpt>
      <trkpt lat="42.68711" lon="1.42219">
        <ele>1934</ele>
        <time>2013-07-07T13:52:23Z</time>
      </trkpt>
      <trkpt lat="42.68715" lon="1.42221">
        <ele>1933</ele>
        <time>2013-07-07T13:52:30Z</time>
      </trkpt>
      <trkpt lat="42.68718" lon="1.42221">
        <ele>1932</ele>
        <time>2013-07-07T13:52:39Z</time>
      </trkpt>
      <trkpt lat="42.68717" lon="1.42218">
        <ele>1933</ele>
        <time>2013-07-07T13:52:50Z</time>
      </trkpt>
      <trkpt lat="42.68716" lon="1.4222">
        <ele>1932</ele>
        <time>2013-07-07T13:52:58Z</time>
      </trkpt>
      <trkpt lat="42.68717" lon="1.42212">
        <ele>1932</ele>
        <time>2013-07-07T13:53:06Z</time>
      </trkpt>
      <trkpt lat="42.68718" lon="1.42211">
        <ele>1932</ele>
        <time>2013-07-07T13:53:22Z</time>
      </trkpt>
      <trkpt lat="42.68716" lon="1.42215">
        <ele>1932</ele>
        <time>2013-07-07T13:53:30Z</time>
      </trkpt>
      <trkpt lat="42.68723" lon="1.42217">
        <ele>1931</ele>
        <time>2013-07-07T13:53:38Z</time>
      </trkpt>
      <trkpt lat="42.68728" lon="1.42219">
        <ele>1930</ele>
        <time>2013-07-07T13:53:46Z</time>
      </trkpt>
      <trkpt lat="42.68734" lon="1.4222">
        <ele>1931</ele>
        <time>2013-07-07T13:53:53Z</time>
      </trkpt>
      <trkpt lat="42.6874" lon="1.4222">
        <ele>1932</ele>
        <time>2013-07-07T13:54:02Z</time>
      </trkpt>
      <trkpt lat="42.68744" lon="1.42213">
        <ele>1931</ele>
        <time>2013-07-07T13:54:10Z</time>
      </trkpt>
      <trkpt lat="42.68749" lon="1.42215">
        <ele>1931</ele>
        <time>2013-07-07T13:54:17Z</time>
      </trkpt>
      <trkpt lat="42.68758" lon="1.42214">
        <ele>1930</ele>
        <time>2013-07-07T13:54:25Z</time>
      </trkpt>
      <trkpt lat="42.68759" lon="1.42214">
        <ele>1931</ele>
        <time>2013-07-07T13:54:29Z</time>
      </trkpt>
      <trkpt lat="42.68758" lon="1.42214">
        <ele>1930</ele>
        <time>2013-07-07T13:54:36Z</time>
      </trkpt>
      <trkpt lat="42.68762" lon="1.42217">
        <ele>1930</ele>
        <time>2013-07-07T13:54:43Z</time>
      </trkpt>
      <trkpt lat="42.68766" lon="1.42219">
        <ele>1929</ele>
        <time>2013-07-07T13:54:48Z</time>
      </trkpt>
      <trkpt lat="42.6877" lon="1.42215">
        <ele>1928</ele>
        <time>2013-07-07T13:54:54Z</time>
      </trkpt>
      <trkpt lat="42.68771" lon="1.42214">
        <ele>1929</ele>
        <time>2013-07-07T13:55:03Z</time>
      </trkpt>
      <trkpt lat="42.68771" lon="1.42215">
        <ele>1928</ele>
        <time>2013-07-07T13:55:05Z</time>
      </trkpt>
      <trkpt lat="42.68775" lon="1.42219">
        <ele>1928</ele>
        <time>2013-07-07T13:55:12Z</time>
      </trkpt>
      <trkpt lat="42.68777" lon="1.4222">
        <ele>1927</ele>
        <time>2013-07-07T13:55:14Z</time>
      </trkpt>
      <trkpt lat="42.68784" lon="1.42224">
        <ele>1925</ele>
        <time>2013-07-07T13:55:23Z</time>
      </trkpt>
      <trkpt lat="42.68789" lon="1.42222">
        <ele>1924</ele>
        <time>2013-07-07T13:55:31Z</time>
      </trkpt>
      <trkpt lat="42.68791" lon="1.42218">
        <ele>1923</ele>
        <time>2013-07-07T13:55:39Z</time>
      </trkpt>
      <trkpt lat="42.688" lon="1.42214">
        <ele>1923</ele>
        <time>2013-07-07T13:55:48Z</time>
      </trkpt>
      <trkpt lat="42.68804" lon="1.42219">
        <ele>1921</ele>
        <time>2013-07-07T13:55:53Z</time>
      </trkpt>
      <trkpt lat="42.68808" lon="1.4222">
        <ele>1921</ele>
        <time>2013-07-07T13:56:02Z</time>
      </trkpt>
      <trkpt lat="42.68808" lon="1.42221">
        <ele>1921</ele>
        <time>2013-07-07T13:56:03Z</time>
      </trkpt>
      <trkpt lat="42.68811" lon="1.42224">
        <ele>1921</ele>
        <time>2013-07-07T13:56:12Z</time>
      </trkpt>
      <trkpt lat="42.68811" lon="1.42228">
        <ele>1919</ele>
        <time>2013-07-07T13:56:20Z</time>
      </trkpt>
      <trkpt lat="42.68815" lon="1.42224">
        <ele>1917</ele>
        <time>2013-07-07T13:56:26Z</time>
      </trkpt>
      <trkpt lat="42.68816" lon="1.42227">
        <ele>1917</ele>
        <time>2013-07-07T13:56:31Z</time>
      </trkpt>
      <trkpt lat="42.68817" lon="1.42227">
        <ele>1917</ele>
        <time>2013-07-07T13:56:33Z</time>
      </trkpt>
      <trkpt lat="42.68823" lon="1.4223">
        <ele>1915</ele>
        <time>2013-07-07T13:56:42Z</time>
      </trkpt>
      <trkpt lat="42.68826" lon="1.42234">
        <ele>1914</ele>
        <time>2013-07-07T13:56:50Z</time>
      </trkpt>
      <trkpt lat="42.6883" lon="1.42237">
        <ele>1911</ele>
        <time>2013-07-07T13:56:58Z</time>
      </trkpt>
      <trkpt lat="42.68833" lon="1.4224">
        <ele>1910</ele>
        <time>2013-07-07T13:57:07Z</time>
      </trkpt>
      <trkpt lat="42.68831" lon="1.42242">
        <ele>1910</ele>
        <time>2013-07-07T13:57:14Z</time>
      </trkpt>
      <trkpt lat="42.68824" lon="1.42241">
        <ele>1910</ele>
        <time>2013-07-07T13:57:26Z</time>
      </trkpt>
      <trkpt lat="42.68828" lon="1.42244">
        <ele>1909</ele>
        <time>2013-07-07T13:57:35Z</time>
      </trkpt>
      <trkpt lat="42.6883" lon="1.42248">
        <ele>1907</ele>
        <time>2013-07-07T13:57:43Z</time>
      </trkpt>
      <trkpt lat="42.6883" lon="1.42245">
        <ele>1906</ele>
        <time>2013-07-07T13:57:51Z</time>
      </trkpt>
      <trkpt lat="42.68833" lon="1.42247">
        <ele>1905</ele>
        <time>2013-07-07T13:57:58Z</time>
      </trkpt>
      <trkpt lat="42.68835" lon="1.42252">
        <ele>1903</ele>
        <time>2013-07-07T13:58:08Z</time>
      </trkpt>
      <trkpt lat="42.68838" lon="1.42252">
        <ele>1902</ele>
        <time>2013-07-07T13:58:15Z</time>
      </trkpt>
      <trkpt lat="42.68842" lon="1.42253">
        <ele>1901</ele>
        <time>2013-07-07T13:58:23Z</time>
      </trkpt>
      <trkpt lat="42.68845" lon="1.42257">
        <ele>1900</ele>
        <time>2013-07-07T13:58:30Z</time>
      </trkpt>
      <trkpt lat="42.68847" lon="1.42259">
        <ele>1899</ele>
        <time>2013-07-07T13:58:35Z</time>
      </trkpt>
      <trkpt lat="42.68853" lon="1.42262">
        <ele>1898</ele>
        <time>2013-07-07T13:58:44Z</time>
      </trkpt>
      <trkpt lat="42.68856" lon="1.42266">
        <ele>1897</ele>
        <time>2013-07-07T13:58:51Z</time>
      </trkpt>
      <trkpt lat="42.68859" lon="1.42271">
        <ele>1896</ele>
        <time>2013-07-07T13:58:58Z</time>
      </trkpt>
      <trkpt lat="42.6886" lon="1.42271">
        <ele>1896</ele>
        <time>2013-07-07T13:58:59Z</time>
      </trkpt>
      <trkpt lat="42.68864" lon="1.42273">
        <ele>1894</ele>
        <time>2013-07-07T13:59:07Z</time>
      </trkpt>
      <trkpt lat="42.68877" lon="1.42262">
        <ele>1895</ele>
        <time>2013-07-07T13:59:11Z</time>
      </trkpt>
      <trkpt lat="42.68887" lon="1.42258">
        <ele>1892</ele>
        <time>2013-07-07T13:59:19Z</time>
      </trkpt>
      <trkpt lat="42.68895" lon="1.42261">
        <ele>1892</ele>
        <time>2013-07-07T13:59:27Z</time>
      </trkpt>
      <trkpt lat="42.68898" lon="1.42261">
        <ele>1891</ele>
        <time>2013-07-07T13:59:31Z</time>
      </trkpt>
      <trkpt lat="42.689" lon="1.42261">
        <ele>1891</ele>
        <time>2013-07-07T13:59:39Z</time>
      </trkpt>
      <trkpt lat="42.68902" lon="1.42264">
        <ele>1890</ele>
        <time>2013-07-07T13:59:50Z</time>
      </trkpt>
      <trkpt lat="42.68907" lon="1.42265">
        <ele>1889</ele>
        <time>2013-07-07T13:59:56Z</time>
      </trkpt>
      <trkpt lat="42.68915" lon="1.42261">
        <ele>1887</ele>
        <time>2013-07-07T14:00:05Z</time>
      </trkpt>
      <trkpt lat="42.68921" lon="1.42259">
        <ele>1886</ele>
        <time>2013-07-07T14:00:12Z</time>
      </trkpt>
      <trkpt lat="42.68926" lon="1.42258">
        <ele>1885</ele>
        <time>2013-07-07T14:00:20Z</time>
      </trkpt>
      <trkpt lat="42.6893" lon="1.42254">
        <ele>1884</ele>
        <time>2013-07-07T14:00:29Z</time>
      </trkpt>
      <trkpt lat="42.68933" lon="1.42251">
        <ele>1884</ele>
        <time>2013-07-07T14:00:32Z</time>
      </trkpt>
      <trkpt lat="42.68935" lon="1.4225">
        <ele>1884</ele>
        <time>2013-07-07T14:00:34Z</time>
      </trkpt>
      <trkpt lat="42.68938" lon="1.4225">
        <ele>1885</ele>
        <time>2013-07-07T14:00:38Z</time>
      </trkpt>
      <trkpt lat="42.68945" lon="1.42249">
        <ele>1883</ele>
        <time>2013-07-07T14:00:45Z</time>
      </trkpt>
      <trkpt lat="42.68955" lon="1.42248">
        <ele>1882</ele>
        <time>2013-07-07T14:00:54Z</time>
      </trkpt>
      <trkpt lat="42.68963" lon="1.42246">
        <ele>1881</ele>
        <time>2013-07-07T14:01:02Z</time>
      </trkpt>
      <trkpt lat="42.68971" lon="1.42246">
        <ele>1880</ele>
        <time>2013-07-07T14:01:11Z</time>
      </trkpt>
      <trkpt lat="42.68979" lon="1.42249">
        <ele>1878</ele>
        <time>2013-07-07T14:01:19Z</time>
      </trkpt>
      <trkpt lat="42.68985" lon="1.42252">
        <ele>1878</ele>
        <time>2013-07-07T14:01:26Z</time>
      </trkpt>
      <trkpt lat="42.68992" lon="1.42254">
        <ele>1876</ele>
        <time>2013-07-07T14:01:34Z</time>
      </trkpt>
      <trkpt lat="42.68996" lon="1.42254">
        <ele>1876</ele>
        <time>2013-07-07T14:01:39Z</time>
      </trkpt>
      <trkpt lat="42.68996" lon="1.42258">
        <ele>1875</ele>
        <time>2013-07-07T14:01:50Z</time>
      </trkpt>
      <trkpt lat="42.68998" lon="1.42258">
        <ele>1875</ele>
        <time>2013-07-07T14:01:58Z</time>
      </trkpt>
      <trkpt lat="42.69" lon="1.42262">
        <ele>1875</ele>
        <time>2013-07-07T14:02:07Z</time>
      </trkpt>
      <trkpt lat="42.69003" lon="1.42267">
        <ele>1874</ele>
        <time>2013-07-07T14:02:15Z</time>
      </trkpt>
      <trkpt lat="42.69004" lon="1.42268">
        <ele>1874</ele>
        <time>2013-07-07T14:02:17Z</time>
      </trkpt>
      <trkpt lat="42.69007" lon="1.42269">
        <ele>1875</ele>
        <time>2013-07-07T14:02:25Z</time>
      </trkpt>
      <trkpt lat="42.69007" lon="1.42271">
        <ele>1876</ele>
        <time>2013-07-07T14:02:32Z</time>
      </trkpt>
      <trkpt lat="42.69008" lon="1.42272">
        <ele>1876</ele>
        <time>2013-07-07T14:02:42Z</time>
      </trkpt>
      <trkpt lat="42.69007" lon="1.42276">
        <ele>1878</ele>
        <time>2013-07-07T14:02:49Z</time>
      </trkpt>
      <trkpt lat="42.69011" lon="1.4228">
        <ele>1878</ele>
        <time>2013-07-07T14:02:56Z</time>
      </trkpt>
      <trkpt lat="42.69014" lon="1.42285">
        <ele>1879</ele>
        <time>2013-07-07T14:03:03Z</time>
      </trkpt>
      <trkpt lat="42.69014" lon="1.42293">
        <ele>1879</ele>
        <time>2013-07-07T14:03:10Z</time>
      </trkpt>
      <trkpt lat="42.69016" lon="1.42298">
        <ele>1878</ele>
        <time>2013-07-07T14:03:15Z</time>
      </trkpt>
      <trkpt lat="42.69017" lon="1.42305">
        <ele>1879</ele>
        <time>2013-07-07T14:03:23Z</time>
      </trkpt>
      <trkpt lat="42.69018" lon="1.42308">
        <ele>1879</ele>
        <time>2013-07-07T14:03:25Z</time>
      </trkpt>
      <trkpt lat="42.69019" lon="1.4231">
        <ele>1879</ele>
        <time>2013-07-07T14:03:27Z</time>
      </trkpt>
      <trkpt lat="42.69024" lon="1.42315">
        <ele>1879</ele>
        <time>2013-07-07T14:03:35Z</time>
      </trkpt>
      <trkpt lat="42.69029" lon="1.42315">
        <ele>1878</ele>
        <time>2013-07-07T14:03:41Z</time>
      </trkpt>
      <trkpt lat="42.69035" lon="1.42316">
        <ele>1877</ele>
        <time>2013-07-07T14:03:49Z</time>
      </trkpt>
      <trkpt lat="42.69036" lon="1.42318">
        <ele>1876</ele>
        <time>2013-07-07T14:03:52Z</time>
      </trkpt>
      <trkpt lat="42.69041" lon="1.42321">
        <ele>1875</ele>
        <time>2013-07-07T14:03:59Z</time>
      </trkpt>
      <trkpt lat="42.69043" lon="1.42321">
        <ele>1874</ele>
        <time>2013-07-07T14:04:02Z</time>
      </trkpt>
      <trkpt lat="42.6905" lon="1.42323">
        <ele>1873</ele>
        <time>2013-07-07T14:04:10Z</time>
      </trkpt>
      <trkpt lat="42.69054" lon="1.42323">
        <ele>1872</ele>
        <time>2013-07-07T14:04:18Z</time>
      </trkpt>
      <trkpt lat="42.69059" lon="1.42323">
        <ele>1870</ele>
        <time>2013-07-07T14:04:26Z</time>
      </trkpt>
      <trkpt lat="42.69062" lon="1.42325">
        <ele>1869</ele>
        <time>2013-07-07T14:04:33Z</time>
      </trkpt>
      <trkpt lat="42.69068" lon="1.42325">
        <ele>1868</ele>
        <time>2013-07-07T14:04:42Z</time>
      </trkpt>
      <trkpt lat="42.69081" lon="1.42324">
        <ele>1867</ele>
        <time>2013-07-07T14:04:56Z</time>
      </trkpt>
      <trkpt lat="42.69083" lon="1.42326">
        <ele>1867</ele>
        <time>2013-07-07T14:04:59Z</time>
      </trkpt>
      <trkpt lat="42.69086" lon="1.4233">
        <ele>1866</ele>
        <time>2013-07-07T14:05:08Z</time>
      </trkpt>
      <trkpt lat="42.69087" lon="1.42334">
        <ele>1864</ele>
        <time>2013-07-07T14:05:16Z</time>
      </trkpt>
      <trkpt lat="42.69086" lon="1.42338">
        <ele>1863</ele>
        <time>2013-07-07T14:05:24Z</time>
      </trkpt>
      <trkpt lat="42.69091" lon="1.4234">
        <ele>1862</ele>
        <time>2013-07-07T14:05:33Z</time>
      </trkpt>
      <trkpt lat="42.69097" lon="1.42329">
        <ele>1862</ele>
        <time>2013-07-07T14:05:44Z</time>
      </trkpt>
      <trkpt lat="42.69097" lon="1.42331">
        <ele>1862</ele>
        <time>2013-07-07T14:05:48Z</time>
      </trkpt>
      <trkpt lat="42.69104" lon="1.42335">
        <ele>1861</ele>
        <time>2013-07-07T14:05:55Z</time>
      </trkpt>
      <trkpt lat="42.69104" lon="1.42335">
        <ele>1861</ele>
        <time>2013-07-07T14:05:56Z</time>
      </trkpt>
      <trkpt lat="42.69111" lon="1.42338">
        <ele>1861</ele>
        <time>2013-07-07T14:06:03Z</time>
      </trkpt>
      <trkpt lat="42.6912" lon="1.42343">
        <ele>1860</ele>
        <time>2013-07-07T14:06:11Z</time>
      </trkpt>
      <trkpt lat="42.69123" lon="1.42345">
        <ele>1860</ele>
        <time>2013-07-07T14:06:17Z</time>
      </trkpt>
      <trkpt lat="42.69128" lon="1.42352">
        <ele>1859</ele>
        <time>2013-07-07T14:06:25Z</time>
      </trkpt>
      <trkpt lat="42.69131" lon="1.42354">
        <ele>1859</ele>
        <time>2013-07-07T14:06:32Z</time>
      </trkpt>
      <trkpt lat="42.69133" lon="1.42354">
        <ele>1859</ele>
        <time>2013-07-07T14:06:39Z</time>
      </trkpt>
      <trkpt lat="42.69134" lon="1.42354">
        <ele>1861</ele>
        <time>2013-07-07T14:06:44Z</time>
      </trkpt>
      <trkpt lat="42.69136" lon="1.42354">
        <ele>1859</ele>
        <time>2013-07-07T14:06:51Z</time>
      </trkpt>
      <trkpt lat="42.69139" lon="1.42355">
        <ele>1859</ele>
        <time>2013-07-07T14:06:55Z</time>
      </trkpt>
      <trkpt lat="42.69145" lon="1.42356">
        <ele>1858</ele>
        <time>2013-07-07T14:07:03Z</time>
      </trkpt>
      <trkpt lat="42.69148" lon="1.42357">
        <ele>1857</ele>
        <time>2013-07-07T14:07:11Z</time>
      </trkpt>
      <trkpt lat="42.69147" lon="1.42358">
        <ele>1856</ele>
        <time>2013-07-07T14:07:19Z</time>
      </trkpt>
      <trkpt lat="42.69151" lon="1.42357">
        <ele>1855</ele>
        <time>2013-07-07T14:07:27Z</time>
      </trkpt>
      <trkpt lat="42.69157" lon="1.42356">
        <ele>1855</ele>
        <time>2013-07-07T14:07:35Z</time>
      </trkpt>
      <trkpt lat="42.69163" lon="1.42354">
        <ele>1854</ele>
        <time>2013-07-07T14:07:46Z</time>
      </trkpt>
      <trkpt lat="42.69168" lon="1.4235">
        <ele>1853</ele>
        <time>2013-07-07T14:07:53Z</time>
      </trkpt>
      <trkpt lat="42.69173" lon="1.42349">
        <ele>1852</ele>
        <time>2013-07-07T14:08:00Z</time>
      </trkpt>
      <trkpt lat="42.69181" lon="1.42341">
        <ele>1852</ele>
        <time>2013-07-07T14:08:06Z</time>
      </trkpt>
      <trkpt lat="42.69184" lon="1.42353">
        <ele>1850</ele>
        <time>2013-07-07T14:08:13Z</time>
      </trkpt>
      <trkpt lat="42.6919" lon="1.42344">
        <ele>1849</ele>
        <time>2013-07-07T14:08:22Z</time>
      </trkpt>
      <trkpt lat="42.69197" lon="1.42338">
        <ele>1847</ele>
        <time>2013-07-07T14:08:32Z</time>
      </trkpt>
      <trkpt lat="42.69201" lon="1.42333">
        <ele>1845</ele>
        <time>2013-07-07T14:08:41Z</time>
      </trkpt>
      <trkpt lat="42.69204" lon="1.4233">
        <ele>1845</ele>
        <time>2013-07-07T14:08:48Z</time>
      </trkpt>
      <trkpt lat="42.69208" lon="1.42328">
        <ele>1844</ele>
        <time>2013-07-07T14:08:57Z</time>
      </trkpt>
      <trkpt lat="42.69211" lon="1.42327">
        <ele>1842</ele>
        <time>2013-07-07T14:09:05Z</time>
      </trkpt>
      <trkpt lat="42.69215" lon="1.42327">
        <ele>1842</ele>
        <time>2013-07-07T14:09:10Z</time>
      </trkpt>
      <trkpt lat="42.6922" lon="1.42331">
        <ele>1841</ele>
        <time>2013-07-07T14:09:19Z</time>
      </trkpt>
      <trkpt lat="42.69225" lon="1.42335">
        <ele>1840</ele>
        <time>2013-07-07T14:09:27Z</time>
      </trkpt>
      <trkpt lat="42.69227" lon="1.42336">
        <ele>1840</ele>
        <time>2013-07-07T14:09:33Z</time>
      </trkpt>
      <trkpt lat="42.69229" lon="1.42337">
        <ele>1839</ele>
        <time>2013-07-07T14:09:37Z</time>
      </trkpt>
      <trkpt lat="42.69236" lon="1.42339">
        <ele>1838</ele>
        <time>2013-07-07T14:09:45Z</time>
      </trkpt>
      <trkpt lat="42.69244" lon="1.42339">
        <ele>1836</ele>
        <time>2013-07-07T14:09:54Z</time>
      </trkpt>
      <trkpt lat="42.69245" lon="1.4234">
        <ele>1836</ele>
        <time>2013-07-07T14:09:55Z</time>
      </trkpt>
      <trkpt lat="42.69249" lon="1.42341">
        <ele>1834</ele>
        <time>2013-07-07T14:10:03Z</time>
      </trkpt>
      <trkpt lat="42.69258" lon="1.42342">
        <ele>1832</ele>
        <time>2013-07-07T14:10:12Z</time>
      </trkpt>
      <trkpt lat="42.69266" lon="1.42343">
        <ele>1831</ele>
        <time>2013-07-07T14:10:20Z</time>
      </trkpt>
      <trkpt lat="42.69273" lon="1.42344">
        <ele>1830</ele>
        <time>2013-07-07T14:10:28Z</time>
      </trkpt>
      <trkpt lat="42.69277" lon="1.42347">
        <ele>1829</ele>
        <time>2013-07-07T14:10:36Z</time>
      </trkpt>
      <trkpt lat="42.69286" lon="1.42345">
        <ele>1827</ele>
        <time>2013-07-07T14:10:44Z</time>
      </trkpt>
      <trkpt lat="42.69295" lon="1.42344">
        <ele>1825</ele>
        <time>2013-07-07T14:10:52Z</time>
      </trkpt>
      <trkpt lat="42.69308" lon="1.42344">
        <ele>1824</ele>
        <time>2013-07-07T14:11:00Z</time>
      </trkpt>
      <trkpt lat="42.6931" lon="1.42344">
        <ele>1823</ele>
        <time>2013-07-07T14:11:01Z</time>
      </trkpt>
      <trkpt lat="42.69318" lon="1.42345">
        <ele>1823</ele>
        <time>2013-07-07T14:11:06Z</time>
      </trkpt>
      <trkpt lat="42.69328" lon="1.42348">
        <ele>1821</ele>
        <time>2013-07-07T14:11:14Z</time>
      </trkpt>
      <trkpt lat="42.69335" lon="1.42351">
        <ele>1820</ele>
        <time>2013-07-07T14:11:23Z</time>
      </trkpt>
      <trkpt lat="42.69341" lon="1.42353">
        <ele>1819</ele>
        <time>2013-07-07T14:11:30Z</time>
      </trkpt>
      <trkpt lat="42.69345" lon="1.42351">
        <ele>1818</ele>
        <time>2013-07-07T14:11:33Z</time>
      </trkpt>
      <trkpt lat="42.69353" lon="1.42349">
        <ele>1817</ele>
        <time>2013-07-07T14:11:39Z</time>
      </trkpt>
      <trkpt lat="42.6936" lon="1.42349">
        <ele>1816</ele>
        <time>2013-07-07T14:11:45Z</time>
      </trkpt>
      <trkpt lat="42.69368" lon="1.42349">
        <ele>1815</ele>
        <time>2013-07-07T14:11:52Z</time>
      </trkpt>
      <trkpt lat="42.69378" lon="1.42349">
        <ele>1814</ele>
        <time>2013-07-07T14:12:01Z</time>
      </trkpt>
      <trkpt lat="42.69381" lon="1.4235">
        <ele>1814</ele>
        <time>2013-07-07T14:12:04Z</time>
      </trkpt>
      <trkpt lat="42.69387" lon="1.42351">
        <ele>1813</ele>
        <time>2013-07-07T14:12:12Z</time>
      </trkpt>
      <trkpt lat="42.69391" lon="1.42351">
        <ele>1811</ele>
        <time>2013-07-07T14:12:17Z</time>
      </trkpt>
      <trkpt lat="42.69394" lon="1.42352">
        <ele>1810</ele>
        <time>2013-07-07T14:12:21Z</time>
      </trkpt>
      <trkpt lat="42.694" lon="1.42354">
        <ele>1810</ele>
        <time>2013-07-07T14:12:28Z</time>
      </trkpt>
      <trkpt lat="42.69404" lon="1.42357">
        <ele>1810</ele>
        <time>2013-07-07T14:12:35Z</time>
      </trkpt>
      <trkpt lat="42.69409" lon="1.42358">
        <ele>1809</ele>
        <time>2013-07-07T14:12:43Z</time>
      </trkpt>
      <trkpt lat="42.69412" lon="1.42356">
        <ele>1808</ele>
        <time>2013-07-07T14:12:47Z</time>
      </trkpt>
      <trkpt lat="42.6942" lon="1.42352">
        <ele>1806</ele>
        <time>2013-07-07T14:13:03Z</time>
      </trkpt>
      <trkpt lat="42.69428" lon="1.42353">
        <ele>1805</ele>
        <time>2013-07-07T14:13:08Z</time>
      </trkpt>
      <trkpt lat="42.69431" lon="1.42353">
        <ele>1805</ele>
        <time>2013-07-07T14:13:10Z</time>
      </trkpt>
      <trkpt lat="42.69437" lon="1.42353">
        <ele>1805</ele>
        <time>2013-07-07T14:13:13Z</time>
      </trkpt>
      <trkpt lat="42.69451" lon="1.42352">
        <ele>1804</ele>
        <time>2013-07-07T14:13:21Z</time>
      </trkpt>
      <trkpt lat="42.69459" lon="1.42354">
        <ele>1803</ele>
        <time>2013-07-07T14:13:29Z</time>
      </trkpt>
      <trkpt lat="42.69465" lon="1.42355">
        <ele>1802</ele>
        <time>2013-07-07T14:13:34Z</time>
      </trkpt>
      <trkpt lat="42.69472" lon="1.42355">
        <ele>1801</ele>
        <time>2013-07-07T14:13:42Z</time>
      </trkpt>
      <trkpt lat="42.69473" lon="1.42356">
        <ele>1801</ele>
        <time>2013-07-07T14:13:43Z</time>
      </trkpt>
      <trkpt lat="42.69479" lon="1.42359">
        <ele>1799</ele>
        <time>2013-07-07T14:13:51Z</time>
      </trkpt>
      <trkpt lat="42.69487" lon="1.4236">
        <ele>1798</ele>
        <time>2013-07-07T14:14:03Z</time>
      </trkpt>
      <trkpt lat="42.69493" lon="1.42363">
        <ele>1798</ele>
        <time>2013-07-07T14:14:09Z</time>
      </trkpt>
      <trkpt lat="42.69501" lon="1.42363">
        <ele>1797</ele>
        <time>2013-07-07T14:14:16Z</time>
      </trkpt>
      <trkpt lat="42.69504" lon="1.42364">
        <ele>1797</ele>
        <time>2013-07-07T14:14:19Z</time>
      </trkpt>
      <trkpt lat="42.69511" lon="1.42364">
        <ele>1796</ele>
        <time>2013-07-07T14:14:27Z</time>
      </trkpt>
      <trkpt lat="42.69518" lon="1.42364">
        <ele>1795</ele>
        <time>2013-07-07T14:14:36Z</time>
      </trkpt>
      <trkpt lat="42.69524" lon="1.42363">
        <ele>1794</ele>
        <time>2013-07-07T14:14:42Z</time>
      </trkpt>
      <trkpt lat="42.69527" lon="1.42364">
        <ele>1793</ele>
        <time>2013-07-07T14:14:45Z</time>
      </trkpt>
      <trkpt lat="42.69534" lon="1.42365">
        <ele>1793</ele>
        <time>2013-07-07T14:14:53Z</time>
      </trkpt>
      <trkpt lat="42.69536" lon="1.42367">
        <ele>1793</ele>
        <time>2013-07-07T14:14:57Z</time>
      </trkpt>
      <trkpt lat="42.69547" lon="1.4237">
        <ele>1792</ele>
        <time>2013-07-07T14:15:07Z</time>
      </trkpt>
      <trkpt lat="42.69552" lon="1.42369">
        <ele>1791</ele>
        <time>2013-07-07T14:15:13Z</time>
      </trkpt>
      <trkpt lat="42.69555" lon="1.42369">
        <ele>1789</ele>
        <time>2013-07-07T14:15:18Z</time>
      </trkpt>
      <trkpt lat="42.69556" lon="1.42369">
        <ele>1790</ele>
        <time>2013-07-07T14:15:19Z</time>
      </trkpt>
      <trkpt lat="42.69557" lon="1.42369">
        <ele>1791</ele>
        <time>2013-07-07T14:15:20Z</time>
      </trkpt>
      <trkpt lat="42.69557" lon="1.42369">
        <ele>1791</ele>
        <time>2013-07-07T14:15:21Z</time>
      </trkpt>
      <trkpt lat="42.69557" lon="1.4237">
        <ele>1789</ele>
        <time>2013-07-07T14:15:22Z</time>
      </trkpt>
      <trkpt lat="42.69557" lon="1.42373">
        <ele>1789</ele>
        <time>2013-07-07T14:15:29Z</time>
      </trkpt>
      <trkpt lat="42.69559" lon="1.42374">
        <ele>1790</ele>
        <time>2013-07-07T14:15:34Z</time>
      </trkpt>
      <trkpt lat="42.6956" lon="1.42374">
        <ele>1789</ele>
        <time>2013-07-07T14:15:35Z</time>
      </trkpt>
      <trkpt lat="42.69566" lon="1.42375">
        <ele>1789</ele>
        <time>2013-07-07T14:15:42Z</time>
      </trkpt>
      <trkpt lat="42.69576" lon="1.42377">
        <ele>1788</ele>
        <time>2013-07-07T14:15:57Z</time>
      </trkpt>
      <trkpt lat="42.6953" lon="1.42367">
        <ele>1790</ele>
        <time>2013-07-07T14:16:28Z</time>
      </trkpt>
      <trkpt lat="42.6951" lon="1.42378">
        <ele>1788</ele>
        <time>2013-07-07T14:17:00Z</time>
      </trkpt>
      <trkpt lat="42.69511" lon="1.42375">
        <ele>1788</ele>
        <time>2013-07-07T14:17:10Z</time>
      </trkpt>
      <trkpt lat="42.69518" lon="1.42372">
        <ele>1787</ele>
        <time>2013-07-07T14:17:44Z</time>
      </trkpt>
      <trkpt lat="42.69518" lon="1.42368">
        <ele>1785</ele>
        <time>2013-07-07T14:17:51Z</time>
      </trkpt>
      <trkpt lat="42.69521" lon="1.42369">
        <ele>1786</ele>
        <time>2013-07-07T14:17:58Z</time>
      </trkpt>
      <trkpt lat="42.69526" lon="1.42366">
        <ele>1784</ele>
        <time>2013-07-07T14:18:05Z</time>
      </trkpt>
      <trkpt lat="42.69531" lon="1.42366">
        <ele>1783</ele>
        <time>2013-07-07T14:18:12Z</time>
      </trkpt>
      <trkpt lat="42.69533" lon="1.42365">
        <ele>1783</ele>
        <time>2013-07-07T14:18:19Z</time>
      </trkpt>
      <trkpt lat="42.69535" lon="1.42365">
        <ele>1782</ele>
        <time>2013-07-07T14:18:21Z</time>
      </trkpt>
      <trkpt lat="42.69542" lon="1.42361">
        <ele>1780</ele>
        <time>2013-07-07T14:18:29Z</time>
      </trkpt>
      <trkpt lat="42.69542" lon="1.42361">
        <ele>1780</ele>
        <time>2013-07-07T14:18:30Z</time>
      </trkpt>
      <trkpt lat="42.69544" lon="1.42361">
        <ele>1778</ele>
        <time>2013-07-07T14:18:38Z</time>
      </trkpt>
      <trkpt lat="42.69546" lon="1.42364">
        <ele>1778</ele>
        <time>2013-07-07T14:18:47Z</time>
      </trkpt>
      <trkpt lat="42.69551" lon="1.42367">
        <ele>1777</ele>
        <time>2013-07-07T14:18:53Z</time>
      </trkpt>
      <trkpt lat="42.69561" lon="1.42367">
        <ele>1776</ele>
        <time>2013-07-07T14:19:01Z</time>
      </trkpt>
      <trkpt lat="42.69566" lon="1.42371">
        <ele>1776</ele>
        <time>2013-07-07T14:19:06Z</time>
      </trkpt>
      <trkpt lat="42.69579" lon="1.4237">
        <ele>1772</ele>
        <time>2013-07-07T14:19:20Z</time>
      </trkpt>
      <trkpt lat="42.6958" lon="1.42366">
        <ele>1772</ele>
        <time>2013-07-07T14:19:23Z</time>
      </trkpt>
      <trkpt lat="42.69588" lon="1.42368">
        <ele>1769</ele>
        <time>2013-07-07T14:19:31Z</time>
      </trkpt>
      <trkpt lat="42.69589" lon="1.42367">
        <ele>1769</ele>
        <time>2013-07-07T14:19:32Z</time>
      </trkpt>
      <trkpt lat="42.69598" lon="1.42367">
        <ele>1768</ele>
        <time>2013-07-07T14:19:40Z</time>
      </trkpt>
      <trkpt lat="42.69595" lon="1.42363">
        <ele>1768</ele>
        <time>2013-07-07T14:19:48Z</time>
      </trkpt>
      <trkpt lat="42.69594" lon="1.42362">
        <ele>1768</ele>
        <time>2013-07-07T14:19:59Z</time>
      </trkpt>
      <trkpt lat="42.69601" lon="1.42365">
        <ele>1767</ele>
        <time>2013-07-07T14:20:07Z</time>
      </trkpt>
      <trkpt lat="42.69605" lon="1.42364">
        <ele>1766</ele>
        <time>2013-07-07T14:20:13Z</time>
      </trkpt>
      <trkpt lat="42.69604" lon="1.42361">
        <ele>1765</ele>
        <time>2013-07-07T14:20:20Z</time>
      </trkpt>
      <trkpt lat="42.69611" lon="1.42356">
        <ele>1763</ele>
        <time>2013-07-07T14:20:27Z</time>
      </trkpt>
      <trkpt lat="42.69612" lon="1.42354">
        <ele>1762</ele>
        <time>2013-07-07T14:20:29Z</time>
      </trkpt>
      <trkpt lat="42.69619" lon="1.42355">
        <ele>1761</ele>
        <time>2013-07-07T14:20:35Z</time>
      </trkpt>
      <trkpt lat="42.69622" lon="1.42347">
        <ele>1760</ele>
        <time>2013-07-07T14:20:43Z</time>
      </trkpt>
      <trkpt lat="42.69624" lon="1.42347">
        <ele>1759</ele>
        <time>2013-07-07T14:20:49Z</time>
      </trkpt>
      <trkpt lat="42.69628" lon="1.42347">
        <ele>1757</ele>
        <time>2013-07-07T14:20:55Z</time>
      </trkpt>
      <trkpt lat="42.69627" lon="1.42351">
        <ele>1757</ele>
        <time>2013-07-07T14:21:02Z</time>
      </trkpt>
      <trkpt lat="42.69628" lon="1.42357">
        <ele>1758</ele>
        <time>2013-07-07T14:21:09Z</time>
      </trkpt>
      <trkpt lat="42.69628" lon="1.42353">
        <ele>1758</ele>
        <time>2013-07-07T14:21:13Z</time>
      </trkpt>
      <trkpt lat="42.69631" lon="1.42339">
        <ele>1755</ele>
        <time>2013-07-07T14:21:21Z</time>
      </trkpt>
      <trkpt lat="42.69634" lon="1.42337">
        <ele>1755</ele>
        <time>2013-07-07T14:21:25Z</time>
      </trkpt>
      <trkpt lat="42.69639" lon="1.4233">
        <ele>1752</ele>
        <time>2013-07-07T14:21:35Z</time>
      </trkpt>
      <trkpt lat="42.69639" lon="1.42325">
        <ele>1751</ele>
        <time>2013-07-07T14:21:41Z</time>
      </trkpt>
      <trkpt lat="42.69639" lon="1.42323">
        <ele>1750</ele>
        <time>2013-07-07T14:21:42Z</time>
      </trkpt>
      <trkpt lat="42.69644" lon="1.42319">
        <ele>1748</ele>
        <time>2013-07-07T14:21:50Z</time>
      </trkpt>
      <trkpt lat="42.69645" lon="1.42318">
        <ele>1747</ele>
        <time>2013-07-07T14:21:52Z</time>
      </trkpt>
      <trkpt lat="42.6965" lon="1.42317">
        <ele>1746</ele>
        <time>2013-07-07T14:21:57Z</time>
      </trkpt>
      <trkpt lat="42.69652" lon="1.42309">
        <ele>1743</ele>
        <time>2013-07-07T14:22:05Z</time>
      </trkpt>
      <trkpt lat="42.69653" lon="1.42309">
        <ele>1743</ele>
        <time>2013-07-07T14:22:06Z</time>
      </trkpt>
      <trkpt lat="42.69657" lon="1.42303">
        <ele>1743</ele>
        <time>2013-07-07T14:22:13Z</time>
      </trkpt>
      <trkpt lat="42.6966" lon="1.42297">
        <ele>1741</ele>
        <time>2013-07-07T14:22:21Z</time>
      </trkpt>
      <trkpt lat="42.69664" lon="1.42295">
        <ele>1739</ele>
        <time>2013-07-07T14:22:26Z</time>
      </trkpt>
      <trkpt lat="42.69674" lon="1.42297">
        <ele>1738</ele>
        <time>2013-07-07T14:22:35Z</time>
      </trkpt>
      <trkpt lat="42.69674" lon="1.42297">
        <ele>1738</ele>
        <time>2013-07-07T14:22:36Z</time>
      </trkpt>
      <trkpt lat="42.6969" lon="1.42288">
        <ele>1735</ele>
        <time>2013-07-07T14:22:52Z</time>
      </trkpt>
      <trkpt lat="42.69692" lon="1.42287">
        <ele>1735</ele>
        <time>2013-07-07T14:22:54Z</time>
      </trkpt>
      <trkpt lat="42.69702" lon="1.42285">
        <ele>1734</ele>
        <time>2013-07-07T14:23:03Z</time>
      </trkpt>
      <trkpt lat="42.69706" lon="1.42281">
        <ele>1732</ele>
        <time>2013-07-07T14:23:10Z</time>
      </trkpt>
      <trkpt lat="42.69709" lon="1.4228">
        <ele>1732</ele>
        <time>2013-07-07T14:23:16Z</time>
      </trkpt>
      <trkpt lat="42.69701" lon="1.4228">
        <ele>1725</ele>
        <time>2013-07-07T14:25:03Z</time>
      </trkpt>
      <trkpt lat="42.69704" lon="1.42279">
        <ele>1725</ele>
        <time>2013-07-07T14:25:09Z</time>
      </trkpt>
      <trkpt lat="42.69707" lon="1.42281">
        <ele>1725</ele>
        <time>2013-07-07T14:25:14Z</time>
      </trkpt>
      <trkpt lat="42.69711" lon="1.42289">
        <ele>1723</ele>
        <time>2013-07-07T14:25:23Z</time>
      </trkpt>
      <trkpt lat="42.69711" lon="1.42288">
        <ele>1722</ele>
        <time>2013-07-07T14:25:26Z</time>
      </trkpt>
      <trkpt lat="42.69708" lon="1.42291">
        <ele>1721</ele>
        <time>2013-07-07T14:25:34Z</time>
      </trkpt>
      <trkpt lat="42.69706" lon="1.42294">
        <ele>1720</ele>
        <time>2013-07-07T14:25:42Z</time>
      </trkpt>
      <trkpt lat="42.69702" lon="1.42301">
        <ele>1719</ele>
        <time>2013-07-07T14:25:50Z</time>
      </trkpt>
      <trkpt lat="42.69701" lon="1.42305">
        <ele>1718</ele>
        <time>2013-07-07T14:25:58Z</time>
      </trkpt>
      <trkpt lat="42.697" lon="1.42309">
        <ele>1717</ele>
        <time>2013-07-07T14:26:09Z</time>
      </trkpt>
      <trkpt lat="42.69699" lon="1.42316">
        <ele>1716</ele>
        <time>2013-07-07T14:26:16Z</time>
      </trkpt>
      <trkpt lat="42.69697" lon="1.4232">
        <ele>1716</ele>
        <time>2013-07-07T14:26:22Z</time>
      </trkpt>
      <trkpt lat="42.69696" lon="1.42321">
        <ele>1716</ele>
        <time>2013-07-07T14:26:28Z</time>
      </trkpt>
      <trkpt lat="42.69695" lon="1.42323">
        <ele>1716</ele>
        <time>2013-07-07T14:26:30Z</time>
      </trkpt>
      <trkpt lat="42.69695" lon="1.42324">
        <ele>1716</ele>
        <time>2013-07-07T14:26:31Z</time>
      </trkpt>
      <trkpt lat="42.69693" lon="1.42329">
        <ele>1716</ele>
        <time>2013-07-07T14:26:36Z</time>
      </trkpt>
      <trkpt lat="42.69692" lon="1.4234">
        <ele>1716</ele>
        <time>2013-07-07T14:26:46Z</time>
      </trkpt>
      <trkpt lat="42.69692" lon="1.42343">
        <ele>1716</ele>
        <time>2013-07-07T14:26:48Z</time>
      </trkpt>
      <trkpt lat="42.69692" lon="1.42344">
        <ele>1716</ele>
        <time>2013-07-07T14:26:49Z</time>
      </trkpt>
      <trkpt lat="42.69692" lon="1.42346">
        <ele>1719</ele>
        <time>2013-07-07T14:26:51Z</time>
      </trkpt>
      <trkpt lat="42.69693" lon="1.42346">
        <ele>1717</ele>
        <time>2013-07-07T14:26:52Z</time>
      </trkpt>
      <trkpt lat="42.69695" lon="1.42352">
        <ele>1717</ele>
        <time>2013-07-07T14:26:59Z</time>
      </trkpt>
      <trkpt lat="42.69697" lon="1.42357">
        <ele>1716</ele>
        <time>2013-07-07T14:27:06Z</time>
      </trkpt>
      <trkpt lat="42.69701" lon="1.42364">
        <ele>1715</ele>
        <time>2013-07-07T14:27:13Z</time>
      </trkpt>
      <trkpt lat="42.69704" lon="1.42369">
        <ele>1714</ele>
        <time>2013-07-07T14:27:17Z</time>
      </trkpt>
      <trkpt lat="42.69706" lon="1.42376">
        <ele>1714</ele>
        <time>2013-07-07T14:27:23Z</time>
      </trkpt>
      <trkpt lat="42.69711" lon="1.42385">
        <ele>1712</ele>
        <time>2013-07-07T14:27:32Z</time>
      </trkpt>
      <trkpt lat="42.69716" lon="1.4239">
        <ele>1712</ele>
        <time>2013-07-07T14:27:39Z</time>
      </trkpt>
      <trkpt lat="42.69721" lon="1.42393">
        <ele>1710</ele>
        <time>2013-07-07T14:27:47Z</time>
      </trkpt>
      <trkpt lat="42.69723" lon="1.42399">
        <ele>1709</ele>
        <time>2013-07-07T14:27:54Z</time>
      </trkpt>
      <trkpt lat="42.69725" lon="1.42401">
        <ele>1709</ele>
        <time>2013-07-07T14:28:03Z</time>
      </trkpt>
      <trkpt lat="42.69727" lon="1.42403">
        <ele>1710</ele>
        <time>2013-07-07T14:28:16Z</time>
      </trkpt>
      <trkpt lat="42.69725" lon="1.42404">
        <ele>1709</ele>
        <time>2013-07-07T14:28:22Z</time>
      </trkpt>
      <trkpt lat="42.69726" lon="1.42397">
        <ele>1710</ele>
        <time>2013-07-07T14:28:36Z</time>
      </trkpt>
      <trkpt lat="42.69723" lon="1.42401">
        <ele>1709</ele>
        <time>2013-07-07T14:28:44Z</time>
      </trkpt>
      <trkpt lat="42.6972" lon="1.42402">
        <ele>1709</ele>
        <time>2013-07-07T14:28:56Z</time>
      </trkpt>
      <trkpt lat="42.69722" lon="1.42401">
        <ele>1709</ele>
        <time>2013-07-07T14:29:04Z</time>
      </trkpt>
      <trkpt lat="42.69719" lon="1.42402">
        <ele>1709</ele>
        <time>2013-07-07T14:29:17Z</time>
      </trkpt>
      <trkpt lat="42.69718" lon="1.42401">
        <ele>1710</ele>
        <time>2013-07-07T14:29:29Z</time>
      </trkpt>
      <trkpt lat="42.69719" lon="1.42402">
        <ele>1709</ele>
        <time>2013-07-07T14:29:40Z</time>
      </trkpt>
      <trkpt lat="42.69719" lon="1.42397">
        <ele>1709</ele>
        <time>2013-07-07T14:29:48Z</time>
      </trkpt>
      <trkpt lat="42.69724" lon="1.42398">
        <ele>1707</ele>
        <time>2013-07-07T14:29:55Z</time>
      </trkpt>
      <trkpt lat="42.69727" lon="1.42397">
        <ele>1706</ele>
        <time>2013-07-07T14:30:01Z</time>
      </trkpt>
      <trkpt lat="42.69732" lon="1.42402">
        <ele>1705</ele>
        <time>2013-07-07T14:30:09Z</time>
      </trkpt>
      <trkpt lat="42.6973" lon="1.42407">
        <ele>1706</ele>
        <time>2013-07-07T14:30:15Z</time>
      </trkpt>
      <trkpt lat="42.69732" lon="1.42411">
        <ele>1705</ele>
        <time>2013-07-07T14:30:21Z</time>
      </trkpt>
      <trkpt lat="42.69737" lon="1.4241">
        <ele>1703</ele>
        <time>2013-07-07T14:30:30Z</time>
      </trkpt>
      <trkpt lat="42.69737" lon="1.42411">
        <ele>1703</ele>
        <time>2013-07-07T14:30:31Z</time>
      </trkpt>
      <trkpt lat="42.6974" lon="1.42409">
        <ele>1702</ele>
        <time>2013-07-07T14:30:36Z</time>
      </trkpt>
      <trkpt lat="42.69746" lon="1.42409">
        <ele>1700</ele>
        <time>2013-07-07T14:30:43Z</time>
      </trkpt>
      <trkpt lat="42.6975" lon="1.4241">
        <ele>1699</ele>
        <time>2013-07-07T14:30:50Z</time>
      </trkpt>
      <trkpt lat="42.69756" lon="1.42409">
        <ele>1696</ele>
        <time>2013-07-07T14:30:58Z</time>
      </trkpt>
      <trkpt lat="42.6976" lon="1.42408">
        <ele>1694</ele>
        <time>2013-07-07T14:31:04Z</time>
      </trkpt>
      <trkpt lat="42.69763" lon="1.42405">
        <ele>1693</ele>
        <time>2013-07-07T14:31:11Z</time>
      </trkpt>
      <trkpt lat="42.69763" lon="1.42404">
        <ele>1692</ele>
        <time>2013-07-07T14:31:12Z</time>
      </trkpt>
      <trkpt lat="42.6977" lon="1.42405">
        <ele>1689</ele>
        <time>2013-07-07T14:31:21Z</time>
      </trkpt>
      <trkpt lat="42.6977" lon="1.42402">
        <ele>1688</ele>
        <time>2013-07-07T14:31:27Z</time>
      </trkpt>
      <trkpt lat="42.69776" lon="1.424">
        <ele>1685</ele>
        <time>2013-07-07T14:31:35Z</time>
      </trkpt>
      <trkpt lat="42.69782" lon="1.424">
        <ele>1682</ele>
        <time>2013-07-07T14:31:41Z</time>
      </trkpt>
      <trkpt lat="42.69788" lon="1.42398">
        <ele>1680</ele>
        <time>2013-07-07T14:31:50Z</time>
      </trkpt>
      <trkpt lat="42.69791" lon="1.42397">
        <ele>1678</ele>
        <time>2013-07-07T14:31:57Z</time>
      </trkpt>
      <trkpt lat="42.69792" lon="1.42397">
        <ele>1678</ele>
        <time>2013-07-07T14:31:58Z</time>
      </trkpt>
      <trkpt lat="42.69798" lon="1.42398">
        <ele>1676</ele>
        <time>2013-07-07T14:32:05Z</time>
      </trkpt>
      <trkpt lat="42.69801" lon="1.42397">
        <ele>1674</ele>
        <time>2013-07-07T14:32:08Z</time>
      </trkpt>
      <trkpt lat="42.69807" lon="1.42396">
        <ele>1672</ele>
        <time>2013-07-07T14:32:16Z</time>
      </trkpt>
      <trkpt lat="42.6981" lon="1.42392">
        <ele>1669</ele>
        <time>2013-07-07T14:32:23Z</time>
      </trkpt>
      <trkpt lat="42.69814" lon="1.42393">
        <ele>1668</ele>
        <time>2013-07-07T14:32:30Z</time>
      </trkpt>
      <trkpt lat="42.6982" lon="1.42394">
        <ele>1666</ele>
        <time>2013-07-07T14:32:38Z</time>
      </trkpt>
      <trkpt lat="42.69829" lon="1.424">
        <ele>1664</ele>
        <time>2013-07-07T14:32:44Z</time>
      </trkpt>
      <trkpt lat="42.69836" lon="1.42403">
        <ele>1660</ele>
        <time>2013-07-07T14:32:51Z</time>
      </trkpt>
      <trkpt lat="42.69844" lon="1.42406">
        <ele>1657</ele>
        <time>2013-07-07T14:32:59Z</time>
      </trkpt>
      <trkpt lat="42.69849" lon="1.42406">
        <ele>1656</ele>
        <time>2013-07-07T14:33:06Z</time>
      </trkpt>
      <trkpt lat="42.69855" lon="1.42407">
        <ele>1654</ele>
        <time>2013-07-07T14:33:14Z</time>
      </trkpt>
      <trkpt lat="42.69858" lon="1.42406">
        <ele>1652</ele>
        <time>2013-07-07T14:33:17Z</time>
      </trkpt>
      <trkpt lat="42.69861" lon="1.42406">
        <ele>1651</ele>
        <time>2013-07-07T14:33:21Z</time>
      </trkpt>
      <trkpt lat="42.69873" lon="1.42408">
        <ele>1647</ele>
        <time>2013-07-07T14:33:29Z</time>
      </trkpt>
      <trkpt lat="42.69882" lon="1.42407">
        <ele>1645</ele>
        <time>2013-07-07T14:33:36Z</time>
      </trkpt>
      <trkpt lat="42.69892" lon="1.42411">
        <ele>1644</ele>
        <time>2013-07-07T14:33:43Z</time>
      </trkpt>
      <trkpt lat="42.69901" lon="1.42413">
        <ele>1643</ele>
        <time>2013-07-07T14:33:51Z</time>
      </trkpt>
      <trkpt lat="42.69905" lon="1.42412">
        <ele>1643</ele>
        <time>2013-07-07T14:33:58Z</time>
      </trkpt>
      <trkpt lat="42.69909" lon="1.42423">
        <ele>1642</ele>
        <time>2013-07-07T14:34:15Z</time>
      </trkpt>
      <trkpt lat="42.6991" lon="1.42427">
        <ele>1642</ele>
        <time>2013-07-07T14:34:23Z</time>
      </trkpt>
      <trkpt lat="42.69911" lon="1.42426">
        <ele>1642</ele>
        <time>2013-07-07T14:34:37Z</time>
      </trkpt>
      <trkpt lat="42.69914" lon="1.42424">
        <ele>1641</ele>
        <time>2013-07-07T14:34:50Z</time>
      </trkpt>
      <trkpt lat="42.69915" lon="1.42424">
        <ele>1641</ele>
        <time>2013-07-07T14:34:51Z</time>
      </trkpt>
      <trkpt lat="42.69918" lon="1.42426">
        <ele>1640</ele>
        <time>2013-07-07T14:34:54Z</time>
      </trkpt>
      <trkpt lat="42.69924" lon="1.42426">
        <ele>1638</ele>
        <time>2013-07-07T14:35:01Z</time>
      </trkpt>
      <trkpt lat="42.6993" lon="1.42428">
        <ele>1637</ele>
        <time>2013-07-07T14:35:07Z</time>
      </trkpt>
      <trkpt lat="42.69934" lon="1.42427">
        <ele>1635</ele>
        <time>2013-07-07T14:35:15Z</time>
      </trkpt>
      <trkpt lat="42.69937" lon="1.42422">
        <ele>1633</ele>
        <time>2013-07-07T14:35:22Z</time>
      </trkpt>
      <trkpt lat="42.69942" lon="1.42422">
        <ele>1632</ele>
        <time>2013-07-07T14:35:29Z</time>
      </trkpt>
      <trkpt lat="42.69947" lon="1.4242">
        <ele>1631</ele>
        <time>2013-07-07T14:35:36Z</time>
      </trkpt>
      <trkpt lat="42.69953" lon="1.42418">
        <ele>1629</ele>
        <time>2013-07-07T14:35:44Z</time>
      </trkpt>
      <trkpt lat="42.69956" lon="1.42418">
        <ele>1627</ele>
        <time>2013-07-07T14:35:50Z</time>
      </trkpt>
      <trkpt lat="42.69961" lon="1.42414">
        <ele>1625</ele>
        <time>2013-07-07T14:35:57Z</time>
      </trkpt>
      <trkpt lat="42.69963" lon="1.42413">
        <ele>1625</ele>
        <time>2013-07-07T14:36:01Z</time>
      </trkpt>
      <trkpt lat="42.69969" lon="1.42416">
        <ele>1623</ele>
        <time>2013-07-07T14:36:10Z</time>
      </trkpt>
      <trkpt lat="42.69972" lon="1.42417">
        <ele>1621</ele>
        <time>2013-07-07T14:36:17Z</time>
      </trkpt>
      <trkpt lat="42.69976" lon="1.4242">
        <ele>1621</ele>
        <time>2013-07-07T14:36:25Z</time>
      </trkpt>
      <trkpt lat="42.69979" lon="1.42422">
        <ele>1620</ele>
        <time>2013-07-07T14:36:29Z</time>
      </trkpt>
      <trkpt lat="42.69984" lon="1.42427">
        <ele>1619</ele>
        <time>2013-07-07T14:36:37Z</time>
      </trkpt>
      <trkpt lat="42.69988" lon="1.42429">
        <ele>1617</ele>
        <time>2013-07-07T14:36:43Z</time>
      </trkpt>
      <trkpt lat="42.69989" lon="1.4243">
        <ele>1618</ele>
        <time>2013-07-07T14:36:44Z</time>
      </trkpt>
      <trkpt lat="42.69991" lon="1.4243">
        <ele>1617</ele>
        <time>2013-07-07T14:36:52Z</time>
      </trkpt>
      <trkpt lat="42.69995" lon="1.42435">
        <ele>1617</ele>
        <time>2013-07-07T14:37:00Z</time>
      </trkpt>
      <trkpt lat="42.70002" lon="1.42438">
        <ele>1615</ele>
        <time>2013-07-07T14:37:08Z</time>
      </trkpt>
      <trkpt lat="42.70004" lon="1.42442">
        <ele>1614</ele>
        <time>2013-07-07T14:37:14Z</time>
      </trkpt>
      <trkpt lat="42.70012" lon="1.42443">
        <ele>1614</ele>
        <time>2013-07-07T14:37:22Z</time>
      </trkpt>
      <trkpt lat="42.70017" lon="1.42444">
        <ele>1613</ele>
        <time>2013-07-07T14:37:30Z</time>
      </trkpt>
      <trkpt lat="42.70022" lon="1.42445">
        <ele>1613</ele>
        <time>2013-07-07T14:37:38Z</time>
      </trkpt>
      <trkpt lat="42.70025" lon="1.42448">
        <ele>1612</ele>
        <time>2013-07-07T14:37:43Z</time>
      </trkpt>
      <trkpt lat="42.70026" lon="1.42452">
        <ele>1610</ele>
        <time>2013-07-07T14:37:50Z</time>
      </trkpt>
      <trkpt lat="42.70028" lon="1.42453">
        <ele>1610</ele>
        <time>2013-07-07T14:37:56Z</time>
      </trkpt>
      <trkpt lat="42.70028" lon="1.42454">
        <ele>1610</ele>
        <time>2013-07-07T14:37:58Z</time>
      </trkpt>
      <trkpt lat="42.70035" lon="1.42458">
        <ele>1607</ele>
        <time>2013-07-07T14:38:06Z</time>
      </trkpt>
      <trkpt lat="42.7004" lon="1.42456">
        <ele>1607</ele>
        <time>2013-07-07T14:38:13Z</time>
      </trkpt>
      <trkpt lat="42.7004" lon="1.42458">
        <ele>1606</ele>
        <time>2013-07-07T14:38:23Z</time>
      </trkpt>
      <trkpt lat="42.7004" lon="1.42457">
        <ele>1606</ele>
        <time>2013-07-07T14:38:30Z</time>
      </trkpt>
      <trkpt lat="42.7004" lon="1.42454">
        <ele>1606</ele>
        <time>2013-07-07T14:38:48Z</time>
      </trkpt>
      <trkpt lat="42.7004" lon="1.42456">
        <ele>1606</ele>
        <time>2013-07-07T14:38:59Z</time>
      </trkpt>
      <trkpt lat="42.70038" lon="1.42456">
        <ele>1606</ele>
        <time>2013-07-07T14:39:11Z</time>
      </trkpt>
      <trkpt lat="42.70041" lon="1.4245">
        <ele>1606</ele>
        <time>2013-07-07T14:39:21Z</time>
      </trkpt>
      <trkpt lat="42.70039" lon="1.42453">
        <ele>1606</ele>
        <time>2013-07-07T14:39:37Z</time>
      </trkpt>
      <trkpt lat="42.70039" lon="1.42454">
        <ele>1605</ele>
        <time>2013-07-07T14:39:49Z</time>
      </trkpt>
      <trkpt lat="42.70039" lon="1.42457">
        <ele>1605</ele>
        <time>2013-07-07T14:40:08Z</time>
      </trkpt>
      <trkpt lat="42.7004" lon="1.42454">
        <ele>1606</ele>
        <time>2013-07-07T14:40:26Z</time>
      </trkpt>
      <trkpt lat="42.70039" lon="1.42461">
        <ele>1606</ele>
        <time>2013-07-07T14:40:37Z</time>
      </trkpt>
      <trkpt lat="42.70039" lon="1.42458">
        <ele>1605</ele>
        <time>2013-07-07T14:40:52Z</time>
      </trkpt>
      <trkpt lat="42.7004" lon="1.42456">
        <ele>1604</ele>
        <time>2013-07-07T14:41:05Z</time>
      </trkpt>
      <trkpt lat="42.70039" lon="1.42456">
        <ele>1605</ele>
        <time>2013-07-07T14:41:21Z</time>
      </trkpt>
      <trkpt lat="42.70036" lon="1.42461">
        <ele>1605</ele>
        <time>2013-07-07T14:41:41Z</time>
      </trkpt>
      <trkpt lat="42.70036" lon="1.42458">
        <ele>1605</ele>
        <time>2013-07-07T14:42:02Z</time>
      </trkpt>
      <trkpt lat="42.70037" lon="1.4246">
        <ele>1604</ele>
        <time>2013-07-07T14:42:23Z</time>
      </trkpt>
      <trkpt lat="42.70036" lon="1.42462">
        <ele>1603</ele>
        <time>2013-07-07T14:42:43Z</time>
      </trkpt>
      <trkpt lat="42.70038" lon="1.42459">
        <ele>1603</ele>
        <time>2013-07-07T14:43:03Z</time>
      </trkpt>
      <trkpt lat="42.70039" lon="1.42457">
        <ele>1603</ele>
        <time>2013-07-07T14:43:24Z</time>
      </trkpt>
      <trkpt lat="42.70039" lon="1.42452">
        <ele>1602</ele>
        <time>2013-07-07T14:43:40Z</time>
      </trkpt>
      <trkpt lat="42.70038" lon="1.42454">
        <ele>1602</ele>
        <time>2013-07-07T14:44:00Z</time>
      </trkpt>
      <trkpt lat="42.70042" lon="1.42449">
        <ele>1602</ele>
        <time>2013-07-07T14:44:17Z</time>
      </trkpt>
      <trkpt lat="42.70042" lon="1.42448">
        <ele>1602</ele>
        <time>2013-07-07T14:44:18Z</time>
      </trkpt>
      <trkpt lat="42.70044" lon="1.42439">
        <ele>1602</ele>
        <time>2013-07-07T14:44:28Z</time>
      </trkpt>
      <trkpt lat="42.70046" lon="1.42443">
        <ele>1601</ele>
        <time>2013-07-07T14:44:36Z</time>
      </trkpt>
      <trkpt lat="42.70043" lon="1.42443">
        <ele>1599</ele>
        <time>2013-07-07T14:44:44Z</time>
      </trkpt>
      <trkpt lat="42.70043" lon="1.42445">
        <ele>1599</ele>
        <time>2013-07-07T14:44:57Z</time>
      </trkpt>
      <trkpt lat="42.70047" lon="1.42443">
        <ele>1598</ele>
        <time>2013-07-07T14:45:04Z</time>
      </trkpt>
      <trkpt lat="42.7005" lon="1.42443">
        <ele>1597</ele>
        <time>2013-07-07T14:45:15Z</time>
      </trkpt>
      <trkpt lat="42.70053" lon="1.42444">
        <ele>1595</ele>
        <time>2013-07-07T14:45:22Z</time>
      </trkpt>
      <trkpt lat="42.70057" lon="1.42444">
        <ele>1594</ele>
        <time>2013-07-07T14:45:30Z</time>
      </trkpt>
      <trkpt lat="42.7006" lon="1.42444">
        <ele>1592</ele>
        <time>2013-07-07T14:45:37Z</time>
      </trkpt>
      <trkpt lat="42.70063" lon="1.42445">
        <ele>1590</ele>
        <time>2013-07-07T14:45:45Z</time>
      </trkpt>
      <trkpt lat="42.70063" lon="1.42442">
        <ele>1590</ele>
        <time>2013-07-07T14:45:56Z</time>
      </trkpt>
      <trkpt lat="42.70066" lon="1.4245">
        <ele>1589</ele>
        <time>2013-07-07T14:46:05Z</time>
      </trkpt>
      <trkpt lat="42.7007" lon="1.42453">
        <ele>1587</ele>
        <time>2013-07-07T14:46:13Z</time>
      </trkpt>
      <trkpt lat="42.70071" lon="1.42454">
        <ele>1587</ele>
        <time>2013-07-07T14:46:19Z</time>
      </trkpt>
      <trkpt lat="42.70075" lon="1.42454">
        <ele>1586</ele>
        <time>2013-07-07T14:46:26Z</time>
      </trkpt>
      <trkpt lat="42.70078" lon="1.42453">
        <ele>1585</ele>
        <time>2013-07-07T14:46:34Z</time>
      </trkpt>
      <trkpt lat="42.70082" lon="1.42453">
        <ele>1582</ele>
        <time>2013-07-07T14:46:41Z</time>
      </trkpt>
      <trkpt lat="42.70089" lon="1.42453">
        <ele>1581</ele>
        <time>2013-07-07T14:46:50Z</time>
      </trkpt>
      <trkpt lat="42.70094" lon="1.42455">
        <ele>1580</ele>
        <time>2013-07-07T14:46:59Z</time>
      </trkpt>
      <trkpt lat="42.70094" lon="1.42453">
        <ele>1580</ele>
        <time>2013-07-07T14:47:09Z</time>
      </trkpt>
      <trkpt lat="42.70099" lon="1.4245">
        <ele>1578</ele>
        <time>2013-07-07T14:47:17Z</time>
      </trkpt>
      <trkpt lat="42.70111" lon="1.4245">
        <ele>1575</ele>
        <time>2013-07-07T14:47:27Z</time>
      </trkpt>
      <trkpt lat="42.70113" lon="1.4245">
        <ele>1574</ele>
        <time>2013-07-07T14:47:38Z</time>
      </trkpt>
      <trkpt lat="42.70116" lon="1.42447">
        <ele>1573</ele>
        <time>2013-07-07T14:47:47Z</time>
      </trkpt>
      <trkpt lat="42.70122" lon="1.42445">
        <ele>1571</ele>
        <time>2013-07-07T14:47:56Z</time>
      </trkpt>
      <trkpt lat="42.70129" lon="1.42442">
        <ele>1570</ele>
        <time>2013-07-07T14:48:05Z</time>
      </trkpt>
      <trkpt lat="42.70134" lon="1.4244">
        <ele>1568</ele>
        <time>2013-07-07T14:48:14Z</time>
      </trkpt>
      <trkpt lat="42.70139" lon="1.4244">
        <ele>1567</ele>
        <time>2013-07-07T14:48:22Z</time>
      </trkpt>
      <trkpt lat="42.70145" lon="1.42439">
        <ele>1566</ele>
        <time>2013-07-07T14:48:29Z</time>
      </trkpt>
      <trkpt lat="42.70149" lon="1.42437">
        <ele>1565</ele>
        <time>2013-07-07T14:48:39Z</time>
      </trkpt>
      <trkpt lat="42.70154" lon="1.42435">
        <ele>1564</ele>
        <time>2013-07-07T14:48:50Z</time>
      </trkpt>
      <trkpt lat="42.70158" lon="1.42431">
        <ele>1562</ele>
        <time>2013-07-07T14:48:57Z</time>
      </trkpt>
      <trkpt lat="42.70161" lon="1.42431">
        <ele>1561</ele>
        <time>2013-07-07T14:49:02Z</time>
      </trkpt>
      <trkpt lat="42.70163" lon="1.42431">
        <ele>1560</ele>
        <time>2013-07-07T14:49:04Z</time>
      </trkpt>
      <trkpt lat="42.70168" lon="1.42433">
        <ele>1559</ele>
        <time>2013-07-07T14:49:12Z</time>
      </trkpt>
      <trkpt lat="42.70173" lon="1.42435">
        <ele>1558</ele>
        <time>2013-07-07T14:49:20Z</time>
      </trkpt>
      <trkpt lat="42.70174" lon="1.42435">
        <ele>1557</ele>
        <time>2013-07-07T14:49:21Z</time>
      </trkpt>
      <trkpt lat="42.70179" lon="1.42438">
        <ele>1556</ele>
        <time>2013-07-07T14:49:28Z</time>
      </trkpt>
      <trkpt lat="42.70183" lon="1.42438">
        <ele>1555</ele>
        <time>2013-07-07T14:49:36Z</time>
      </trkpt>
      <trkpt lat="42.70188" lon="1.42436">
        <ele>1554</ele>
        <time>2013-07-07T14:49:42Z</time>
      </trkpt>
      <trkpt lat="42.70187" lon="1.42435">
        <ele>1554</ele>
        <time>2013-07-07T14:49:50Z</time>
      </trkpt>
      <trkpt lat="42.70189" lon="1.42435">
        <ele>1553</ele>
        <time>2013-07-07T14:49:59Z</time>
      </trkpt>
      <trkpt lat="42.70193" lon="1.42438">
        <ele>1552</ele>
        <time>2013-07-07T14:50:06Z</time>
      </trkpt>
      <trkpt lat="42.70196" lon="1.42437">
        <ele>1551</ele>
        <time>2013-07-07T14:50:13Z</time>
      </trkpt>
      <trkpt lat="42.70199" lon="1.42436">
        <ele>1550</ele>
        <time>2013-07-07T14:50:21Z</time>
      </trkpt>
      <trkpt lat="42.702" lon="1.42434">
        <ele>1551</ele>
        <time>2013-07-07T14:50:31Z</time>
      </trkpt>
      <trkpt lat="42.70203" lon="1.42432">
        <ele>1551</ele>
        <time>2013-07-07T14:50:38Z</time>
      </trkpt>
      <trkpt lat="42.70206" lon="1.42438">
        <ele>1549</ele>
        <time>2013-07-07T14:50:50Z</time>
      </trkpt>
      <trkpt lat="42.70212" lon="1.42436">
        <ele>1548</ele>
        <time>2013-07-07T14:50:59Z</time>
      </trkpt>
      <trkpt lat="42.70216" lon="1.42434">
        <ele>1546</ele>
        <time>2013-07-07T14:51:05Z</time>
      </trkpt>
      <trkpt lat="42.70219" lon="1.4243">
        <ele>1544</ele>
        <time>2013-07-07T14:51:11Z</time>
      </trkpt>
      <trkpt lat="42.70221" lon="1.42427">
        <ele>1542</ele>
        <time>2013-07-07T14:51:20Z</time>
      </trkpt>
      <trkpt lat="42.70221" lon="1.42423">
        <ele>1542</ele>
        <time>2013-07-07T14:51:28Z</time>
      </trkpt>
      <trkpt lat="42.70221" lon="1.42424">
        <ele>1542</ele>
        <time>2013-07-07T14:51:35Z</time>
      </trkpt>
      <trkpt lat="42.7022" lon="1.42428">
        <ele>1541</ele>
        <time>2013-07-07T14:51:44Z</time>
      </trkpt>
      <trkpt lat="42.70223" lon="1.4243">
        <ele>1541</ele>
        <time>2013-07-07T14:51:58Z</time>
      </trkpt>
      <trkpt lat="42.70222" lon="1.42431">
        <ele>1542</ele>
        <time>2013-07-07T14:52:00Z</time>
      </trkpt>
      <trkpt lat="42.70222" lon="1.4243">
        <ele>1541</ele>
        <time>2013-07-07T14:52:11Z</time>
      </trkpt>
      <trkpt lat="42.70222" lon="1.42429">
        <ele>1540</ele>
        <time>2013-07-07T14:52:19Z</time>
      </trkpt>
      <trkpt lat="42.70222" lon="1.42429">
        <ele>1543</ele>
        <time>2013-07-07T14:52:20Z</time>
      </trkpt>
      <trkpt lat="42.70221" lon="1.42427">
        <ele>1542</ele>
        <time>2013-07-07T14:52:31Z</time>
      </trkpt>
      <trkpt lat="42.7022" lon="1.42429">
        <ele>1542</ele>
        <time>2013-07-07T14:52:44Z</time>
      </trkpt>
      <trkpt lat="42.70221" lon="1.42431">
        <ele>1541</ele>
        <time>2013-07-07T14:52:59Z</time>
      </trkpt>
      <trkpt lat="42.70221" lon="1.42429">
        <ele>1541</ele>
        <time>2013-07-07T14:53:10Z</time>
      </trkpt>
      <trkpt lat="42.70221" lon="1.42428">
        <ele>1540</ele>
        <time>2013-07-07T14:53:19Z</time>
      </trkpt>
      <trkpt lat="42.70222" lon="1.42431">
        <ele>1541</ele>
        <time>2013-07-07T14:53:30Z</time>
      </trkpt>
      <trkpt lat="42.70222" lon="1.42429">
        <ele>1541</ele>
        <time>2013-07-07T14:53:42Z</time>
      </trkpt>
      <trkpt lat="42.70224" lon="1.42423">
        <ele>1540</ele>
        <time>2013-07-07T14:54:01Z</time>
      </trkpt>
      <trkpt lat="42.70224" lon="1.42428">
        <ele>1540</ele>
        <time>2013-07-07T14:54:14Z</time>
      </trkpt>
      <trkpt lat="42.7023" lon="1.42438">
        <ele>1539</ele>
        <time>2013-07-07T14:54:23Z</time>
      </trkpt>
      <trkpt lat="42.70236" lon="1.42443">
        <ele>1537</ele>
        <time>2013-07-07T14:54:32Z</time>
      </trkpt>
      <trkpt lat="42.70239" lon="1.42445">
        <ele>1537</ele>
        <time>2013-07-07T14:54:39Z</time>
      </trkpt>
      <trkpt lat="42.70243" lon="1.4245">
        <ele>1535</ele>
        <time>2013-07-07T14:54:46Z</time>
      </trkpt>
      <trkpt lat="42.70252" lon="1.42453">
        <ele>1533</ele>
        <time>2013-07-07T14:54:55Z</time>
      </trkpt>
      <trkpt lat="42.70254" lon="1.42452">
        <ele>1533</ele>
        <time>2013-07-07T14:54:57Z</time>
      </trkpt>
      <trkpt lat="42.70256" lon="1.42452">
        <ele>1533</ele>
        <time>2013-07-07T14:54:58Z</time>
      </trkpt>
      <trkpt lat="42.70264" lon="1.42456">
        <ele>1532</ele>
        <time>2013-07-07T14:55:05Z</time>
      </trkpt>
      <trkpt lat="42.70273" lon="1.42461">
        <ele>1532</ele>
        <time>2013-07-07T14:55:14Z</time>
      </trkpt>
      <trkpt lat="42.70281" lon="1.42468">
        <ele>1529</ele>
        <time>2013-07-07T14:55:23Z</time>
      </trkpt>
      <trkpt lat="42.70287" lon="1.42472">
        <ele>1528</ele>
        <time>2013-07-07T14:55:30Z</time>
      </trkpt>
      <trkpt lat="42.70294" lon="1.42477">
        <ele>1526</ele>
        <time>2013-07-07T14:55:40Z</time>
      </trkpt>
      <trkpt lat="42.70305" lon="1.42485">
        <ele>1524</ele>
        <time>2013-07-07T14:55:49Z</time>
      </trkpt>
      <trkpt lat="42.70317" lon="1.42493">
        <ele>1522</ele>
        <time>2013-07-07T14:55:59Z</time>
      </trkpt>
      <trkpt lat="42.70323" lon="1.42499">
        <ele>1521</ele>
        <time>2013-07-07T14:56:06Z</time>
      </trkpt>
      <trkpt lat="42.70331" lon="1.42503">
        <ele>1520</ele>
        <time>2013-07-07T14:56:15Z</time>
      </trkpt>
      <trkpt lat="42.70345" lon="1.42508">
        <ele>1518</ele>
        <time>2013-07-07T14:56:24Z</time>
      </trkpt>
      <trkpt lat="42.70354" lon="1.42516">
        <ele>1516</ele>
        <time>2013-07-07T14:56:34Z</time>
      </trkpt>
      <trkpt lat="42.70362" lon="1.42523">
        <ele>1515</ele>
        <time>2013-07-07T14:56:42Z</time>
      </trkpt>
      <trkpt lat="42.70369" lon="1.42529">
        <ele>1513</ele>
        <time>2013-07-07T14:56:49Z</time>
      </trkpt>
      <trkpt lat="42.7037" lon="1.42532">
        <ele>1513</ele>
        <time>2013-07-07T14:56:52Z</time>
      </trkpt>
      <trkpt lat="42.70376" lon="1.4254">
        <ele>1513</ele>
        <time>2013-07-07T14:56:59Z</time>
      </trkpt>
      <trkpt lat="42.70382" lon="1.42551">
        <ele>1512</ele>
        <time>2013-07-07T14:57:07Z</time>
      </trkpt>
      <trkpt lat="42.70383" lon="1.42556">
        <ele>1512</ele>
        <time>2013-07-07T14:57:11Z</time>
      </trkpt>
      <trkpt lat="42.7039" lon="1.42562">
        <ele>1511</ele>
        <time>2013-07-07T14:57:18Z</time>
      </trkpt>
      <trkpt lat="42.70394" lon="1.42558">
        <ele>1509</ele>
        <time>2013-07-07T14:57:24Z</time>
      </trkpt>
      <trkpt lat="42.70397" lon="1.42538">
        <ele>1508</ele>
        <time>2013-07-07T14:57:33Z</time>
      </trkpt>
      <trkpt lat="42.70392" lon="1.42534">
        <ele>1507</ele>
        <time>2013-07-07T14:57:41Z</time>
      </trkpt>
      <trkpt lat="42.70388" lon="1.42525">
        <ele>1507</ele>
        <time>2013-07-07T14:57:49Z</time>
      </trkpt>
      <trkpt lat="42.70383" lon="1.42513">
        <ele>1505</ele>
        <time>2013-07-07T14:57:58Z</time>
      </trkpt>
      <trkpt lat="42.70383" lon="1.42512">
        <ele>1505</ele>
        <time>2013-07-07T14:57:59Z</time>
      </trkpt>
      <trkpt lat="42.70381" lon="1.42499">
        <ele>1504</ele>
        <time>2013-07-07T14:58:09Z</time>
      </trkpt>
      <trkpt lat="42.70377" lon="1.42491">
        <ele>1503</ele>
        <time>2013-07-07T14:58:16Z</time>
      </trkpt>
      <trkpt lat="42.70369" lon="1.42483">
        <ele>1501</ele>
        <time>2013-07-07T14:58:25Z</time>
      </trkpt>
      <trkpt lat="42.70362" lon="1.42477">
        <ele>1500</ele>
        <time>2013-07-07T14:58:31Z</time>
      </trkpt>
      <trkpt lat="42.70358" lon="1.42472">
        <ele>1501</ele>
        <time>2013-07-07T14:58:35Z</time>
      </trkpt>
      <trkpt lat="42.7035" lon="1.42461">
        <ele>1499</ele>
        <time>2013-07-07T14:58:44Z</time>
      </trkpt>
      <trkpt lat="42.70348" lon="1.42454">
        <ele>1499</ele>
        <time>2013-07-07T14:58:51Z</time>
      </trkpt>
      <trkpt lat="42.70351" lon="1.42452">
        <ele>1497</ele>
        <time>2013-07-07T14:59:00Z</time>
      </trkpt>
      <trkpt lat="42.70355" lon="1.42455">
        <ele>1496</ele>
        <time>2013-07-07T14:59:08Z</time>
      </trkpt>
      <trkpt lat="42.70359" lon="1.42455">
        <ele>1494</ele>
        <time>2013-07-07T14:59:16Z</time>
      </trkpt>
      <trkpt lat="42.70354" lon="1.4245">
        <ele>1496</ele>
        <time>2013-07-07T14:59:27Z</time>
      </trkpt>
      <trkpt lat="42.70349" lon="1.42447">
        <ele>1499</ele>
        <time>2013-07-07T14:59:33Z</time>
      </trkpt>
      <trkpt lat="42.70344" lon="1.42442">
        <ele>1498</ele>
        <time>2013-07-07T14:59:40Z</time>
      </trkpt>
      <trkpt lat="42.70339" lon="1.42435">
        <ele>1497</ele>
        <time>2013-07-07T14:59:47Z</time>
      </trkpt>
      <trkpt lat="42.70335" lon="1.42425">
        <ele>1496</ele>
        <time>2013-07-07T14:59:57Z</time>
      </trkpt>
      <trkpt lat="42.70329" lon="1.42419">
        <ele>1495</ele>
        <time>2013-07-07T15:00:05Z</time>
      </trkpt>
      <trkpt lat="42.70323" lon="1.42409">
        <ele>1494</ele>
        <time>2013-07-07T15:00:15Z</time>
      </trkpt>
      <trkpt lat="42.70318" lon="1.42399">
        <ele>1492</ele>
        <time>2013-07-07T15:00:24Z</time>
      </trkpt>
      <trkpt lat="42.70313" lon="1.42384">
        <ele>1491</ele>
        <time>2013-07-07T15:00:33Z</time>
      </trkpt>
      <trkpt lat="42.70305" lon="1.42371">
        <ele>1490</ele>
        <time>2013-07-07T15:00:43Z</time>
      </trkpt>
      <trkpt lat="42.703" lon="1.42367">
        <ele>1488</ele>
        <time>2013-07-07T15:00:48Z</time>
      </trkpt>
      <trkpt lat="42.70285" lon="1.42356">
        <ele>1488</ele>
        <time>2013-07-07T15:00:57Z</time>
      </trkpt>
      <trkpt lat="42.70289" lon="1.42346">
        <ele>1486</ele>
        <time>2013-07-07T15:01:05Z</time>
      </trkpt>
      <trkpt lat="42.70292" lon="1.42349">
        <ele>1485</ele>
        <time>2013-07-07T15:01:09Z</time>
      </trkpt>
      <trkpt lat="42.70299" lon="1.42355">
        <ele>1485</ele>
        <time>2013-07-07T15:01:18Z</time>
      </trkpt>
      <trkpt lat="42.70306" lon="1.42358">
        <ele>1483</ele>
        <time>2013-07-07T15:01:26Z</time>
      </trkpt>
      <trkpt lat="42.70311" lon="1.42363">
        <ele>1482</ele>
        <time>2013-07-07T15:01:33Z</time>
      </trkpt>
      <trkpt lat="42.70316" lon="1.42364">
        <ele>1481</ele>
        <time>2013-07-07T15:01:39Z</time>
      </trkpt>
      <trkpt lat="42.7032" lon="1.42366">
        <ele>1481</ele>
        <time>2013-07-07T15:01:43Z</time>
      </trkpt>
      <trkpt lat="42.70325" lon="1.42372">
        <ele>1478</ele>
        <time>2013-07-07T15:01:51Z</time>
      </trkpt>
      <trkpt lat="42.70332" lon="1.42379">
        <ele>1478</ele>
        <time>2013-07-07T15:02:00Z</time>
      </trkpt>
      <trkpt lat="42.70339" lon="1.42386">
        <ele>1476</ele>
        <time>2013-07-07T15:02:08Z</time>
      </trkpt>
      <trkpt lat="42.70345" lon="1.42393">
        <ele>1475</ele>
        <time>2013-07-07T15:02:16Z</time>
      </trkpt>
      <trkpt lat="42.70352" lon="1.424">
        <ele>1474</ele>
        <time>2013-07-07T15:02:24Z</time>
      </trkpt>
      <trkpt lat="42.70362" lon="1.42406">
        <ele>1472</ele>
        <time>2013-07-07T15:02:34Z</time>
      </trkpt>
      <trkpt lat="42.70363" lon="1.42406">
        <ele>1473</ele>
        <time>2013-07-07T15:02:35Z</time>
      </trkpt>
      <trkpt lat="42.70375" lon="1.42412">
        <ele>1472</ele>
        <time>2013-07-07T15:02:43Z</time>
      </trkpt>
      <trkpt lat="42.70379" lon="1.42416">
        <ele>1471</ele>
        <time>2013-07-07T15:02:48Z</time>
      </trkpt>
      <trkpt lat="42.7039" lon="1.42425">
        <ele>1469</ele>
        <time>2013-07-07T15:02:58Z</time>
      </trkpt>
      <trkpt lat="42.70395" lon="1.42431">
        <ele>1468</ele>
        <time>2013-07-07T15:03:05Z</time>
      </trkpt>
      <trkpt lat="42.70402" lon="1.42438">
        <ele>1467</ele>
        <time>2013-07-07T15:03:14Z</time>
      </trkpt>
      <trkpt lat="42.7041" lon="1.42446">
        <ele>1466</ele>
        <time>2013-07-07T15:03:23Z</time>
      </trkpt>
      <trkpt lat="42.70417" lon="1.42456">
        <ele>1465</ele>
        <time>2013-07-07T15:03:32Z</time>
      </trkpt>
      <trkpt lat="42.70423" lon="1.42465">
        <ele>1463</ele>
        <time>2013-07-07T15:03:41Z</time>
      </trkpt>
      <trkpt lat="42.70432" lon="1.42474">
        <ele>1462</ele>
        <time>2013-07-07T15:03:49Z</time>
      </trkpt>
      <trkpt lat="42.70442" lon="1.42484">
        <ele>1460</ele>
        <time>2013-07-07T15:04:00Z</time>
      </trkpt>
      <trkpt lat="42.70449" lon="1.42493">
        <ele>1459</ele>
        <time>2013-07-07T15:04:09Z</time>
      </trkpt>
      <trkpt lat="42.70458" lon="1.42502">
        <ele>1457</ele>
        <time>2013-07-07T15:04:17Z</time>
      </trkpt>
      <trkpt lat="42.70467" lon="1.42512">
        <ele>1457</ele>
        <time>2013-07-07T15:04:26Z</time>
      </trkpt>
      <trkpt lat="42.7048" lon="1.42523">
        <ele>1455</ele>
        <time>2013-07-07T15:04:37Z</time>
      </trkpt>
      <trkpt lat="42.70485" lon="1.42531">
        <ele>1454</ele>
        <time>2013-07-07T15:04:45Z</time>
      </trkpt>
      <trkpt lat="42.70491" lon="1.42538">
        <ele>1453</ele>
        <time>2013-07-07T15:04:53Z</time>
      </trkpt>
      <trkpt lat="42.70497" lon="1.42546">
        <ele>1452</ele>
        <time>2013-07-07T15:05:01Z</time>
      </trkpt>
      <trkpt lat="42.70506" lon="1.42544">
        <ele>1452</ele>
        <time>2013-07-07T15:05:12Z</time>
      </trkpt>
      <trkpt lat="42.70508" lon="1.42543">
        <ele>1452</ele>
        <time>2013-07-07T15:05:15Z</time>
      </trkpt>
      <trkpt lat="42.70513" lon="1.4254">
        <ele>1453</ele>
        <time>2013-07-07T15:05:27Z</time>
      </trkpt>
      <trkpt lat="42.70527" lon="1.42536">
        <ele>1451</ele>
        <time>2013-07-07T15:05:43Z</time>
      </trkpt>
      <trkpt lat="42.70527" lon="1.42529">
        <ele>1451</ele>
        <time>2013-07-07T15:05:51Z</time>
      </trkpt>
      <trkpt lat="42.70525" lon="1.42537">
        <ele>1452</ele>
        <time>2013-07-07T15:06:04Z</time>
      </trkpt>
      <trkpt lat="42.70526" lon="1.42543">
        <ele>1451</ele>
        <time>2013-07-07T15:06:14Z</time>
      </trkpt>
      <trkpt lat="42.7053" lon="1.42546">
        <ele>1450</ele>
        <time>2013-07-07T15:06:23Z</time>
      </trkpt>
      <trkpt lat="42.70535" lon="1.42555">
        <ele>1449</ele>
        <time>2013-07-07T15:06:32Z</time>
      </trkpt>
      <trkpt lat="42.70538" lon="1.42564">
        <ele>1448</ele>
        <time>2013-07-07T15:06:40Z</time>
      </trkpt>
      <trkpt lat="42.70545" lon="1.42574">
        <ele>1447</ele>
        <time>2013-07-07T15:06:49Z</time>
      </trkpt>
      <trkpt lat="42.7055" lon="1.42582">
        <ele>1446</ele>
        <time>2013-07-07T15:06:56Z</time>
      </trkpt>
      <trkpt lat="42.70555" lon="1.42594">
        <ele>1444</ele>
        <time>2013-07-07T15:07:06Z</time>
      </trkpt>
      <trkpt lat="42.70558" lon="1.42607">
        <ele>1443</ele>
        <time>2013-07-07T15:07:15Z</time>
      </trkpt>
      <trkpt lat="42.70565" lon="1.42617">
        <ele>1441</ele>
        <time>2013-07-07T15:07:23Z</time>
      </trkpt>
      <trkpt lat="42.70569" lon="1.42625">
        <ele>1440</ele>
        <time>2013-07-07T15:07:31Z</time>
      </trkpt>
      <trkpt lat="42.70578" lon="1.4263">
        <ele>1440</ele>
        <time>2013-07-07T15:07:39Z</time>
      </trkpt>
      <trkpt lat="42.70583" lon="1.42624">
        <ele>1437</ele>
        <time>2013-07-07T15:07:48Z</time>
      </trkpt>
      <trkpt lat="42.70585" lon="1.42626">
        <ele>1435</ele>
        <time>2013-07-07T15:07:57Z</time>
      </trkpt>
      <trkpt lat="42.7059" lon="1.42632">
        <ele>1433</ele>
        <time>2013-07-07T15:08:07Z</time>
      </trkpt>
      <trkpt lat="42.70591" lon="1.42637">
        <ele>1432</ele>
        <time>2013-07-07T15:08:17Z</time>
      </trkpt>
      <trkpt lat="42.70595" lon="1.4264">
        <ele>1430</ele>
        <time>2013-07-07T15:08:27Z</time>
      </trkpt>
      <trkpt lat="42.70599" lon="1.42643">
        <ele>1428</ele>
        <time>2013-07-07T15:08:34Z</time>
      </trkpt>
      <trkpt lat="42.70603" lon="1.42647">
        <ele>1428</ele>
        <time>2013-07-07T15:08:44Z</time>
      </trkpt>
      <trkpt lat="42.70604" lon="1.42645">
        <ele>1427</ele>
        <time>2013-07-07T15:08:58Z</time>
      </trkpt>
      <trkpt lat="42.70608" lon="1.42652">
        <ele>1426</ele>
        <time>2013-07-07T15:09:06Z</time>
      </trkpt>
      <trkpt lat="42.70614" lon="1.42659">
        <ele>1423</ele>
        <time>2013-07-07T15:09:18Z</time>
      </trkpt>
      <trkpt lat="42.70618" lon="1.42664">
        <ele>1423</ele>
        <time>2013-07-07T15:09:27Z</time>
      </trkpt>
      <trkpt lat="42.70624" lon="1.42659">
        <ele>1422</ele>
        <time>2013-07-07T15:09:34Z</time>
      </trkpt>
      <trkpt lat="42.70626" lon="1.42656">
        <ele>1422</ele>
        <time>2013-07-07T15:09:41Z</time>
      </trkpt>
      <trkpt lat="42.7063" lon="1.42655">
        <ele>1422</ele>
        <time>2013-07-07T15:09:50Z</time>
      </trkpt>
      <trkpt lat="42.70632" lon="1.4266">
        <ele>1420</ele>
        <time>2013-07-07T15:10:00Z</time>
      </trkpt>
      <trkpt lat="42.70636" lon="1.42667">
        <ele>1419</ele>
        <time>2013-07-07T15:10:08Z</time>
      </trkpt>
      <trkpt lat="42.7064" lon="1.42668">
        <ele>1418</ele>
        <time>2013-07-07T15:10:17Z</time>
      </trkpt>
      <trkpt lat="42.70645" lon="1.42674">
        <ele>1416</ele>
        <time>2013-07-07T15:10:26Z</time>
      </trkpt>
      <trkpt lat="42.70653" lon="1.42677">
        <ele>1415</ele>
        <time>2013-07-07T15:10:36Z</time>
      </trkpt>
      <trkpt lat="42.70659" lon="1.42681">
        <ele>1413</ele>
        <time>2013-07-07T15:10:47Z</time>
      </trkpt>
      <trkpt lat="42.70665" lon="1.42688">
        <ele>1410</ele>
        <time>2013-07-07T15:10:58Z</time>
      </trkpt>
      <trkpt lat="42.70671" lon="1.42696">
        <ele>1409</ele>
        <time>2013-07-07T15:11:08Z</time>
      </trkpt>
      <trkpt lat="42.70676" lon="1.42704">
        <ele>1407</ele>
        <time>2013-07-07T15:11:17Z</time>
      </trkpt>
      <trkpt lat="42.70679" lon="1.42702">
        <ele>1407</ele>
        <time>2013-07-07T15:11:29Z</time>
      </trkpt>
      <trkpt lat="42.70682" lon="1.42711">
        <ele>1405</ele>
        <time>2013-07-07T15:11:38Z</time>
      </trkpt>
      <trkpt lat="42.70689" lon="1.42716">
        <ele>1404</ele>
        <time>2013-07-07T15:11:48Z</time>
      </trkpt>
      <trkpt lat="42.70691" lon="1.42727">
        <ele>1402</ele>
        <time>2013-07-07T15:11:59Z</time>
      </trkpt>
      <trkpt lat="42.70694" lon="1.42734">
        <ele>1400</ele>
        <time>2013-07-07T15:12:08Z</time>
      </trkpt>
      <trkpt lat="42.707" lon="1.42741">
        <ele>1398</ele>
        <time>2013-07-07T15:12:15Z</time>
      </trkpt>
      <trkpt lat="42.70704" lon="1.4274">
        <ele>1397</ele>
        <time>2013-07-07T15:12:22Z</time>
      </trkpt>
      <trkpt lat="42.70705" lon="1.42742">
        <ele>1396</ele>
        <time>2013-07-07T15:12:30Z</time>
      </trkpt>
      <trkpt lat="42.70704" lon="1.42745">
        <ele>1396</ele>
        <time>2013-07-07T15:12:38Z</time>
      </trkpt>
      <trkpt lat="42.707" lon="1.42748">
        <ele>1397</ele>
        <time>2013-07-07T15:12:46Z</time>
      </trkpt>
      <trkpt lat="42.70699" lon="1.4275">
        <ele>1398</ele>
        <time>2013-07-07T15:12:55Z</time>
      </trkpt>
      <trkpt lat="42.70702" lon="1.42757">
        <ele>1398</ele>
        <time>2013-07-07T15:13:03Z</time>
      </trkpt>
      <trkpt lat="42.70707" lon="1.42761">
        <ele>1397</ele>
        <time>2013-07-07T15:13:13Z</time>
      </trkpt>
      <trkpt lat="42.70708" lon="1.42761">
        <ele>1396</ele>
        <time>2013-07-07T15:13:21Z</time>
      </trkpt>
      <trkpt lat="42.70712" lon="1.42756">
        <ele>1396</ele>
        <time>2013-07-07T15:13:41Z</time>
      </trkpt>
      <trkpt lat="42.70712" lon="1.42767">
        <ele>1394</ele>
        <time>2013-07-07T15:13:49Z</time>
      </trkpt>
      <trkpt lat="42.70711" lon="1.42777">
        <ele>1392</ele>
        <time>2013-07-07T15:13:58Z</time>
      </trkpt>
      <trkpt lat="42.7071" lon="1.42788">
        <ele>1390</ele>
        <time>2013-07-07T15:14:07Z</time>
      </trkpt>
      <trkpt lat="42.7071" lon="1.42797">
        <ele>1387</ele>
        <time>2013-07-07T15:14:16Z</time>
      </trkpt>
      <trkpt lat="42.70711" lon="1.42809">
        <ele>1387</ele>
        <time>2013-07-07T15:14:25Z</time>
      </trkpt>
      <trkpt lat="42.70711" lon="1.42818">
        <ele>1385</ele>
        <time>2013-07-07T15:14:32Z</time>
      </trkpt>
      <trkpt lat="42.70712" lon="1.42827">
        <ele>1384</ele>
        <time>2013-07-07T15:14:41Z</time>
      </trkpt>
      <trkpt lat="42.70716" lon="1.42833">
        <ele>1382</ele>
        <time>2013-07-07T15:14:50Z</time>
      </trkpt>
      <trkpt lat="42.70719" lon="1.42833">
        <ele>1381</ele>
        <time>2013-07-07T15:14:58Z</time>
      </trkpt>
      <trkpt lat="42.70718" lon="1.42831">
        <ele>1380</ele>
        <time>2013-07-07T15:15:10Z</time>
      </trkpt>
      <trkpt lat="42.70722" lon="1.4283">
        <ele>1378</ele>
        <time>2013-07-07T15:15:21Z</time>
      </trkpt>
      <trkpt lat="42.70723" lon="1.42828">
        <ele>1377</ele>
        <time>2013-07-07T15:15:28Z</time>
      </trkpt>
      <trkpt lat="42.70725" lon="1.4283">
        <ele>1376</ele>
        <time>2013-07-07T15:15:34Z</time>
      </trkpt>
      <trkpt lat="42.70725" lon="1.42837">
        <ele>1374</ele>
        <time>2013-07-07T15:15:43Z</time>
      </trkpt>
      <trkpt lat="42.70727" lon="1.4284">
        <ele>1373</ele>
        <time>2013-07-07T15:15:51Z</time>
      </trkpt>
      <trkpt lat="42.70732" lon="1.42837">
        <ele>1372</ele>
        <time>2013-07-07T15:16:01Z</time>
      </trkpt>
      <trkpt lat="42.70732" lon="1.42835">
        <ele>1371</ele>
        <time>2013-07-07T15:16:12Z</time>
      </trkpt>
      <trkpt lat="42.70735" lon="1.42835">
        <ele>1370</ele>
        <time>2013-07-07T15:16:20Z</time>
      </trkpt>
      <trkpt lat="42.70735" lon="1.42837">
        <ele>1369</ele>
        <time>2013-07-07T15:16:29Z</time>
      </trkpt>
      <trkpt lat="42.70737" lon="1.42846">
        <ele>1367</ele>
        <time>2013-07-07T15:16:39Z</time>
      </trkpt>
      <trkpt lat="42.70741" lon="1.42846">
        <ele>1365</ele>
        <time>2013-07-07T15:16:47Z</time>
      </trkpt>
      <trkpt lat="42.70744" lon="1.42847">
        <ele>1364</ele>
        <time>2013-07-07T15:16:56Z</time>
      </trkpt>
      <trkpt lat="42.70749" lon="1.42852">
        <ele>1361</ele>
        <time>2013-07-07T15:17:07Z</time>
      </trkpt>
      <trkpt lat="42.70751" lon="1.42859">
        <ele>1360</ele>
        <time>2013-07-07T15:17:15Z</time>
      </trkpt>
      <trkpt lat="42.70754" lon="1.42867">
        <ele>1358</ele>
        <time>2013-07-07T15:17:26Z</time>
      </trkpt>
      <trkpt lat="42.70756" lon="1.42871">
        <ele>1357</ele>
        <time>2013-07-07T15:17:35Z</time>
      </trkpt>
      <trkpt lat="42.70758" lon="1.42871">
        <ele>1357</ele>
        <time>2013-07-07T15:17:42Z</time>
      </trkpt>
      <trkpt lat="42.70765" lon="1.42871">
        <ele>1357</ele>
        <time>2013-07-07T15:17:52Z</time>
      </trkpt>
      <trkpt lat="42.70765" lon="1.42867">
        <ele>1357</ele>
        <time>2013-07-07T15:18:00Z</time>
      </trkpt>
      <trkpt lat="42.70756" lon="1.42866">
        <ele>1358</ele>
        <time>2013-07-07T15:18:12Z</time>
      </trkpt>
      <trkpt lat="42.70752" lon="1.42868">
        <ele>1360</ele>
        <time>2013-07-07T15:18:20Z</time>
      </trkpt>
      <trkpt lat="42.70753" lon="1.42875">
        <ele>1359</ele>
        <time>2013-07-07T15:18:28Z</time>
      </trkpt>
      <trkpt lat="42.70755" lon="1.42878">
        <ele>1358</ele>
        <time>2013-07-07T15:18:39Z</time>
      </trkpt>
      <trkpt lat="42.70758" lon="1.42881">
        <ele>1357</ele>
        <time>2013-07-07T15:18:46Z</time>
      </trkpt>
      <trkpt lat="42.70759" lon="1.42881">
        <ele>1358</ele>
        <time>2013-07-07T15:18:59Z</time>
      </trkpt>
      <trkpt lat="42.70758" lon="1.42883">
        <ele>1356</ele>
        <time>2013-07-07T15:19:10Z</time>
      </trkpt>
      <trkpt lat="42.7076" lon="1.42886">
        <ele>1355</ele>
        <time>2013-07-07T15:19:18Z</time>
      </trkpt>
      <trkpt lat="42.70762" lon="1.42887">
        <ele>1354</ele>
        <time>2013-07-07T15:19:24Z</time>
      </trkpt>
      <trkpt lat="42.70764" lon="1.42888">
        <ele>1353</ele>
        <time>2013-07-07T15:19:38Z</time>
      </trkpt>
      <trkpt lat="42.70763" lon="1.4289">
        <ele>1353</ele>
        <time>2013-07-07T15:19:51Z</time>
      </trkpt>
      <trkpt lat="42.70761" lon="1.4289">
        <ele>1352</ele>
        <time>2013-07-07T15:20:01Z</time>
      </trkpt>
      <trkpt lat="42.70764" lon="1.4289">
        <ele>1352</ele>
        <time>2013-07-07T15:20:11Z</time>
      </trkpt>
      <trkpt lat="42.70762" lon="1.42888">
        <ele>1351</ele>
        <time>2013-07-07T15:20:24Z</time>
      </trkpt>
      <trkpt lat="42.70765" lon="1.42879">
        <ele>1351</ele>
        <time>2013-07-07T15:20:39Z</time>
      </trkpt>
      <trkpt lat="42.70768" lon="1.42882">
        <ele>1350</ele>
        <time>2013-07-07T15:20:53Z</time>
      </trkpt>
      <trkpt lat="42.7077" lon="1.42886">
        <ele>1350</ele>
        <time>2013-07-07T15:21:02Z</time>
      </trkpt>
      <trkpt lat="42.7077" lon="1.42889">
        <ele>1348</ele>
        <time>2013-07-07T15:21:10Z</time>
      </trkpt>
      <trkpt lat="42.70771" lon="1.42889">
        <ele>1347</ele>
        <time>2013-07-07T15:21:19Z</time>
      </trkpt>
      <trkpt lat="42.70779" lon="1.42888">
        <ele>1345</ele>
        <time>2013-07-07T15:21:28Z</time>
      </trkpt>
      <trkpt lat="42.7078" lon="1.4289">
        <ele>1345</ele>
        <time>2013-07-07T15:21:32Z</time>
      </trkpt>
      <trkpt lat="42.70779" lon="1.429">
        <ele>1344</ele>
        <time>2013-07-07T15:21:41Z</time>
      </trkpt>
      <trkpt lat="42.70779" lon="1.429">
        <ele>1345</ele>
        <time>2013-07-07T15:21:49Z</time>
      </trkpt>
      <trkpt lat="42.70778" lon="1.42897">
        <ele>1345</ele>
        <time>2013-07-07T15:22:01Z</time>
      </trkpt>
      <trkpt lat="42.7078" lon="1.42897">
        <ele>1345</ele>
        <time>2013-07-07T15:22:16Z</time>
      </trkpt>
      <trkpt lat="42.70779" lon="1.42898">
        <ele>1344</ele>
        <time>2013-07-07T15:22:23Z</time>
      </trkpt>
      <trkpt lat="42.70783" lon="1.42899">
        <ele>1344</ele>
        <time>2013-07-07T15:22:31Z</time>
      </trkpt>
      <trkpt lat="42.70786" lon="1.42901">
        <ele>1345</ele>
        <time>2013-07-07T15:22:41Z</time>
      </trkpt>
      <trkpt lat="42.70785" lon="1.42901">
        <ele>1344</ele>
        <time>2013-07-07T15:22:49Z</time>
      </trkpt>
      <trkpt lat="42.70784" lon="1.42906">
        <ele>1344</ele>
        <time>2013-07-07T15:23:02Z</time>
      </trkpt>
      <trkpt lat="42.70785" lon="1.42908">
        <ele>1343</ele>
        <time>2013-07-07T15:23:10Z</time>
      </trkpt>
      <trkpt lat="42.70783" lon="1.42905">
        <ele>1343</ele>
        <time>2013-07-07T15:23:26Z</time>
      </trkpt>
      <trkpt lat="42.70785" lon="1.42912">
        <ele>1341</ele>
        <time>2013-07-07T15:23:35Z</time>
      </trkpt>
      <trkpt lat="42.70786" lon="1.42915">
        <ele>1341</ele>
        <time>2013-07-07T15:23:44Z</time>
      </trkpt>
      <trkpt lat="42.70787" lon="1.42916">
        <ele>1340</ele>
        <time>2013-07-07T15:23:52Z</time>
      </trkpt>
      <trkpt lat="42.70791" lon="1.42921">
        <ele>1337</ele>
        <time>2013-07-07T15:24:00Z</time>
      </trkpt>
      <trkpt lat="42.70791" lon="1.42921">
        <ele>1337</ele>
        <time>2013-07-07T15:24:01Z</time>
      </trkpt>
      <trkpt lat="42.70794" lon="1.42925">
        <ele>1336</ele>
        <time>2013-07-07T15:24:09Z</time>
      </trkpt>
      <trkpt lat="42.70797" lon="1.4293">
        <ele>1334</ele>
        <time>2013-07-07T15:24:15Z</time>
      </trkpt>
      <trkpt lat="42.70799" lon="1.42936">
        <ele>1332</ele>
        <time>2013-07-07T15:24:24Z</time>
      </trkpt>
      <trkpt lat="42.70801" lon="1.42939">
        <ele>1330</ele>
        <time>2013-07-07T15:24:31Z</time>
      </trkpt>
      <trkpt lat="42.70804" lon="1.4294">
        <ele>1328</ele>
        <time>2013-07-07T15:24:40Z</time>
      </trkpt>
      <trkpt lat="42.70808" lon="1.42942">
        <ele>1326</ele>
        <time>2013-07-07T15:24:48Z</time>
      </trkpt>
      <trkpt lat="42.70812" lon="1.42948">
        <ele>1323</ele>
        <time>2013-07-07T15:24:57Z</time>
      </trkpt>
      <trkpt lat="42.70816" lon="1.42953">
        <ele>1322</ele>
        <time>2013-07-07T15:25:08Z</time>
      </trkpt>
      <trkpt lat="42.70819" lon="1.42957">
        <ele>1321</ele>
        <time>2013-07-07T15:25:15Z</time>
      </trkpt>
      <trkpt lat="42.70823" lon="1.42964">
        <ele>1320</ele>
        <time>2013-07-07T15:25:24Z</time>
      </trkpt>
      <trkpt lat="42.70826" lon="1.42968">
        <ele>1317</ele>
        <time>2013-07-07T15:25:33Z</time>
      </trkpt>
      <trkpt lat="42.70828" lon="1.42974">
        <ele>1315</ele>
        <time>2013-07-07T15:25:39Z</time>
      </trkpt>
      <trkpt lat="42.70833" lon="1.42978">
        <ele>1314</ele>
        <time>2013-07-07T15:25:48Z</time>
      </trkpt>
      <trkpt lat="42.70836" lon="1.42982">
        <ele>1312</ele>
        <time>2013-07-07T15:25:57Z</time>
      </trkpt>
      <trkpt lat="42.70838" lon="1.4299">
        <ele>1310</ele>
        <time>2013-07-07T15:26:07Z</time>
      </trkpt>
      <trkpt lat="42.70838" lon="1.42987">
        <ele>1243</ele>
        <time>2013-07-07T15:33:18Z</time>
      </trkpt>
      <trkpt lat="42.70957" lon="1.4313">
        <ele>1243</ele>
        <time>2013-07-07T15:33:19Z</time>
      </trkpt>
      <trkpt lat="42.70953" lon="1.4313">
        <ele>1243</ele>
        <time>2013-07-07T15:33:29Z</time>
      </trkpt>
      <trkpt lat="42.7095" lon="1.43126">
        <ele>1244</ele>
        <time>2013-07-07T15:33:38Z</time>
      </trkpt>
      <trkpt lat="42.70948" lon="1.43121">
        <ele>1244</ele>
        <time>2013-07-07T15:33:48Z</time>
      </trkpt>
      <trkpt lat="42.70946" lon="1.43127">
        <ele>1243</ele>
        <time>2013-07-07T15:33:56Z</time>
      </trkpt>
      <trkpt lat="42.70952" lon="1.43136">
        <ele>1242</ele>
        <time>2013-07-07T15:34:04Z</time>
      </trkpt>
      <trkpt lat="42.70956" lon="1.43142">
        <ele>1242</ele>
        <time>2013-07-07T15:34:11Z</time>
      </trkpt>
      <trkpt lat="42.7096" lon="1.43149">
        <ele>1240</ele>
        <time>2013-07-07T15:34:19Z</time>
      </trkpt>
      <trkpt lat="42.70963" lon="1.43155">
        <ele>1240</ele>
        <time>2013-07-07T15:34:30Z</time>
      </trkpt>
      <trkpt lat="42.70964" lon="1.43158">
        <ele>1240</ele>
        <time>2013-07-07T15:34:32Z</time>
      </trkpt>
      <trkpt lat="42.70966" lon="1.43166">
        <ele>1239</ele>
        <time>2013-07-07T15:34:38Z</time>
      </trkpt>
      <trkpt lat="42.70969" lon="1.43169">
        <ele>1242</ele>
        <time>2013-07-07T15:34:45Z</time>
      </trkpt>
      <trkpt lat="42.70969" lon="1.43171">
        <ele>1240</ele>
        <time>2013-07-07T15:34:46Z</time>
      </trkpt>
      <trkpt lat="42.70967" lon="1.43171">
        <ele>1237</ele>
        <time>2013-07-07T15:34:53Z</time>
      </trkpt>
      <trkpt lat="42.70971" lon="1.43169">
        <ele>1235</ele>
        <time>2013-07-07T15:35:04Z</time>
      </trkpt>
      <trkpt lat="42.70975" lon="1.43172">
        <ele>1233</ele>
        <time>2013-07-07T15:35:12Z</time>
      </trkpt>
      <trkpt lat="42.70979" lon="1.43181">
        <ele>1231</ele>
        <time>2013-07-07T15:35:22Z</time>
      </trkpt>
      <trkpt lat="42.70983" lon="1.4318">
        <ele>1229</ele>
        <time>2013-07-07T15:35:32Z</time>
      </trkpt>
      <trkpt lat="42.70987" lon="1.43184">
        <ele>1227</ele>
        <time>2013-07-07T15:35:40Z</time>
      </trkpt>
      <trkpt lat="42.70993" lon="1.43183">
        <ele>1224</ele>
        <time>2013-07-07T15:35:52Z</time>
      </trkpt>
      <trkpt lat="42.70996" lon="1.43189">
        <ele>1222</ele>
        <time>2013-07-07T15:36:01Z</time>
      </trkpt>
      <trkpt lat="42.71" lon="1.43193">
        <ele>1221</ele>
        <time>2013-07-07T15:36:09Z</time>
      </trkpt>
      <trkpt lat="42.71003" lon="1.43199">
        <ele>1220</ele>
        <time>2013-07-07T15:36:19Z</time>
      </trkpt>
      <trkpt lat="42.7101" lon="1.43203">
        <ele>1220</ele>
        <time>2013-07-07T15:36:28Z</time>
      </trkpt>
      <trkpt lat="42.71016" lon="1.43212">
        <ele>1218</ele>
        <time>2013-07-07T15:36:38Z</time>
      </trkpt>
      <trkpt lat="42.7102" lon="1.43217">
        <ele>1215</ele>
        <time>2013-07-07T15:36:47Z</time>
      </trkpt>
      <trkpt lat="42.71025" lon="1.43221">
        <ele>1213</ele>
        <time>2013-07-07T15:36:57Z</time>
      </trkpt>
      <trkpt lat="42.71031" lon="1.43226">
        <ele>1210</ele>
        <time>2013-07-07T15:37:07Z</time>
      </trkpt>
      <trkpt lat="42.71036" lon="1.43234">
        <ele>1208</ele>
        <time>2013-07-07T15:37:16Z</time>
      </trkpt>
      <trkpt lat="42.71045" lon="1.43237">
        <ele>1207</ele>
        <time>2013-07-07T15:37:26Z</time>
      </trkpt>
      <trkpt lat="42.71052" lon="1.43238">
        <ele>1207</ele>
        <time>2013-07-07T15:37:38Z</time>
      </trkpt>
      <trkpt lat="42.71054" lon="1.43245">
        <ele>1206</ele>
        <time>2013-07-07T15:37:47Z</time>
      </trkpt>
      <trkpt lat="42.71058" lon="1.43253">
        <ele>1203</ele>
        <time>2013-07-07T15:37:58Z</time>
      </trkpt>
      <trkpt lat="42.71063" lon="1.43256">
        <ele>1205</ele>
        <time>2013-07-07T15:38:08Z</time>
      </trkpt>
      <trkpt lat="42.71074" lon="1.43259">
        <ele>1204</ele>
        <time>2013-07-07T15:38:18Z</time>
      </trkpt>
      <trkpt lat="42.71079" lon="1.43256">
        <ele>1203</ele>
        <time>2013-07-07T15:38:29Z</time>
      </trkpt>
      <trkpt lat="42.71086" lon="1.43262">
        <ele>1201</ele>
        <time>2013-07-07T15:38:38Z</time>
      </trkpt>
      <trkpt lat="42.71091" lon="1.4328">
        <ele>1200</ele>
        <time>2013-07-07T15:38:41Z</time>
      </trkpt>
      <trkpt lat="42.71098" lon="1.43289">
        <ele>1199</ele>
        <time>2013-07-07T15:38:50Z</time>
      </trkpt>
      <trkpt lat="42.71102" lon="1.43292">
        <ele>1198</ele>
        <time>2013-07-07T15:38:59Z</time>
      </trkpt>
      <trkpt lat="42.71107" lon="1.43295">
        <ele>1197</ele>
        <time>2013-07-07T15:39:07Z</time>
      </trkpt>
      <trkpt lat="42.71109" lon="1.43293">
        <ele>1196</ele>
        <time>2013-07-07T15:39:13Z</time>
      </trkpt>
      <trkpt lat="42.71112" lon="1.43287">
        <ele>1195</ele>
        <time>2013-07-07T15:39:23Z</time>
      </trkpt>
      <trkpt lat="42.71112" lon="1.43282">
        <ele>1194</ele>
        <time>2013-07-07T15:39:31Z</time>
      </trkpt>
      <trkpt lat="42.71113" lon="1.43282">
        <ele>1193</ele>
        <time>2013-07-07T15:39:32Z</time>
      </trkpt>
      <trkpt lat="42.71119" lon="1.4328">
        <ele>1191</ele>
        <time>2013-07-07T15:39:40Z</time>
      </trkpt>
      <trkpt lat="42.71123" lon="1.43282">
        <ele>1190</ele>
        <time>2013-07-07T15:39:46Z</time>
      </trkpt>
      <trkpt lat="42.71124" lon="1.43281">
        <ele>1190</ele>
        <time>2013-07-07T15:39:48Z</time>
      </trkpt>
      <trkpt lat="42.71125" lon="1.43276">
        <ele>1190</ele>
        <time>2013-07-07T15:39:56Z</time>
      </trkpt>
      <trkpt lat="42.71128" lon="1.43277">
        <ele>1189</ele>
        <time>2013-07-07T15:40:04Z</time>
      </trkpt>
      <trkpt lat="42.71131" lon="1.43283">
        <ele>1187</ele>
        <time>2013-07-07T15:40:13Z</time>
      </trkpt>
      <trkpt lat="42.71136" lon="1.43288">
        <ele>1185</ele>
        <time>2013-07-07T15:40:23Z</time>
      </trkpt>
      <trkpt lat="42.71143" lon="1.43295">
        <ele>1184</ele>
        <time>2013-07-07T15:40:33Z</time>
      </trkpt>
      <trkpt lat="42.71148" lon="1.433">
        <ele>1183</ele>
        <time>2013-07-07T15:40:43Z</time>
      </trkpt>
      <trkpt lat="42.71155" lon="1.43304">
        <ele>1181</ele>
        <time>2013-07-07T15:40:51Z</time>
      </trkpt>
      <trkpt lat="42.7116" lon="1.43311">
        <ele>1178</ele>
        <time>2013-07-07T15:41:00Z</time>
      </trkpt>
      <trkpt lat="42.71161" lon="1.43314">
        <ele>1179</ele>
        <time>2013-07-07T15:41:07Z</time>
      </trkpt>
      <trkpt lat="42.71164" lon="1.43318">
        <ele>1178</ele>
        <time>2013-07-07T15:41:17Z</time>
      </trkpt>
      <trkpt lat="42.71168" lon="1.43322">
        <ele>1176</ele>
        <time>2013-07-07T15:41:26Z</time>
      </trkpt>
      <trkpt lat="42.71171" lon="1.43326">
        <ele>1176</ele>
        <time>2013-07-07T15:41:34Z</time>
      </trkpt>
      <trkpt lat="42.7118" lon="1.43329">
        <ele>1175</ele>
        <time>2013-07-07T15:41:43Z</time>
      </trkpt>
      <trkpt lat="42.71188" lon="1.43336">
        <ele>1172</ele>
        <time>2013-07-07T15:41:54Z</time>
      </trkpt>
      <trkpt lat="42.71198" lon="1.43351">
        <ele>1171</ele>
        <time>2013-07-07T15:42:04Z</time>
      </trkpt>
      <trkpt lat="42.71202" lon="1.43351">
        <ele>1169</ele>
        <time>2013-07-07T15:42:13Z</time>
      </trkpt>
      <trkpt lat="42.7121" lon="1.43353">
        <ele>1168</ele>
        <time>2013-07-07T15:42:22Z</time>
      </trkpt>
      <trkpt lat="42.71211" lon="1.43361">
        <ele>1166</ele>
        <time>2013-07-07T15:42:31Z</time>
      </trkpt>
      <trkpt lat="42.71214" lon="1.43372">
        <ele>1165</ele>
        <time>2013-07-07T15:42:41Z</time>
      </trkpt>
      <trkpt lat="42.71218" lon="1.43385">
        <ele>1164</ele>
        <time>2013-07-07T15:42:50Z</time>
      </trkpt>
      <trkpt lat="42.71223" lon="1.43393">
        <ele>1164</ele>
        <time>2013-07-07T15:43:00Z</time>
      </trkpt>
      <trkpt lat="42.71231" lon="1.43405">
        <ele>1162</ele>
        <time>2013-07-07T15:43:10Z</time>
      </trkpt>
      <trkpt lat="42.71234" lon="1.43415">
        <ele>1161</ele>
        <time>2013-07-07T15:43:20Z</time>
      </trkpt>
      <trkpt lat="42.7124" lon="1.4342">
        <ele>1161</ele>
        <time>2013-07-07T15:43:30Z</time>
      </trkpt>
      <trkpt lat="42.71246" lon="1.43425">
        <ele>1159</ele>
        <time>2013-07-07T15:43:41Z</time>
      </trkpt>
      <trkpt lat="42.7125" lon="1.43427">
        <ele>1158</ele>
        <time>2013-07-07T15:43:51Z</time>
      </trkpt>
      <trkpt lat="42.71254" lon="1.43429">
        <ele>1157</ele>
        <time>2013-07-07T15:43:58Z</time>
      </trkpt>
      <trkpt lat="42.71254" lon="1.43428">
        <ele>1155</ele>
        <time>2013-07-07T15:44:10Z</time>
      </trkpt>
      <trkpt lat="42.71253" lon="1.43421">
        <ele>1154</ele>
        <time>2013-07-07T15:44:19Z</time>
      </trkpt>
      <trkpt lat="42.71254" lon="1.43412">
        <ele>1153</ele>
        <time>2013-07-07T15:44:28Z</time>
      </trkpt>
      <trkpt lat="42.71261" lon="1.43391">
        <ele>1151</ele>
        <time>2013-07-07T15:44:37Z</time>
      </trkpt>
      <trkpt lat="42.71265" lon="1.43381">
        <ele>1152</ele>
        <time>2013-07-07T15:44:52Z</time>
      </trkpt>
      <trkpt lat="42.71265" lon="1.43374">
        <ele>1151</ele>
        <time>2013-07-07T15:45:03Z</time>
      </trkpt>
      <trkpt lat="42.71265" lon="1.43379">
        <ele>1152</ele>
        <time>2013-07-07T15:45:15Z</time>
      </trkpt>
      <trkpt lat="42.71264" lon="1.43376">
        <ele>1151</ele>
        <time>2013-07-07T15:45:27Z</time>
      </trkpt>
      <trkpt lat="42.71264" lon="1.43373">
        <ele>1152</ele>
        <time>2013-07-07T15:45:41Z</time>
      </trkpt>
      <trkpt lat="42.71266" lon="1.43365">
        <ele>1149</ele>
        <time>2013-07-07T15:45:52Z</time>
      </trkpt>
      <trkpt lat="42.71263" lon="1.43357">
        <ele>1148</ele>
        <time>2013-07-07T15:46:03Z</time>
      </trkpt>
      <trkpt lat="42.7126" lon="1.43352">
        <ele>1148</ele>
        <time>2013-07-07T15:46:14Z</time>
      </trkpt>
      <trkpt lat="42.71263" lon="1.4335">
        <ele>1141</ele>
        <time>2013-07-07T15:47:58Z</time>
      </trkpt>
      <trkpt lat="42.71265" lon="1.43356">
        <ele>1141</ele>
        <time>2013-07-07T15:48:02Z</time>
      </trkpt>
      <trkpt lat="42.71267" lon="1.43361">
        <ele>1139</ele>
        <time>2013-07-07T15:48:06Z</time>
      </trkpt>
      <trkpt lat="42.71273" lon="1.43372">
        <ele>1139</ele>
        <time>2013-07-07T15:48:16Z</time>
      </trkpt>
      <trkpt lat="42.71281" lon="1.43384">
        <ele>1137</ele>
        <time>2013-07-07T15:48:27Z</time>
      </trkpt>
      <trkpt lat="42.71283" lon="1.43391">
        <ele>1137</ele>
        <time>2013-07-07T15:48:35Z</time>
      </trkpt>
      <trkpt lat="42.71285" lon="1.43399">
        <ele>1137</ele>
        <time>2013-07-07T15:48:44Z</time>
      </trkpt>
      <trkpt lat="42.71289" lon="1.43411">
        <ele>1136</ele>
        <time>2013-07-07T15:48:54Z</time>
      </trkpt>
      <trkpt lat="42.7129" lon="1.43415">
        <ele>1136</ele>
        <time>2013-07-07T15:48:57Z</time>
      </trkpt>
      <trkpt lat="42.71294" lon="1.43428">
        <ele>1134</ele>
        <time>2013-07-07T15:49:06Z</time>
      </trkpt>
      <trkpt lat="42.71303" lon="1.43437">
        <ele>1134</ele>
        <time>2013-07-07T15:49:15Z</time>
      </trkpt>
      <trkpt lat="42.71309" lon="1.43447">
        <ele>1133</ele>
        <time>2013-07-07T15:49:23Z</time>
      </trkpt>
      <trkpt lat="42.71316" lon="1.43462">
        <ele>1132</ele>
        <time>2013-07-07T15:49:33Z</time>
      </trkpt>
      <trkpt lat="42.71325" lon="1.43474">
        <ele>1132</ele>
        <time>2013-07-07T15:49:43Z</time>
      </trkpt>
      <trkpt lat="42.71334" lon="1.43482">
        <ele>1130</ele>
        <time>2013-07-07T15:49:53Z</time>
      </trkpt>
      <trkpt lat="42.71336" lon="1.43482">
        <ele>1130</ele>
        <time>2013-07-07T15:49:54Z</time>
      </trkpt>
      <trkpt lat="42.71348" lon="1.43484">
        <ele>1130</ele>
        <time>2013-07-07T15:50:06Z</time>
      </trkpt>
      <trkpt lat="42.71355" lon="1.43486">
        <ele>1130</ele>
        <time>2013-07-07T15:50:14Z</time>
      </trkpt>
      <trkpt lat="42.71357" lon="1.4348">
        <ele>1130</ele>
        <time>2013-07-07T15:50:20Z</time>
      </trkpt>
      <trkpt lat="42.71362" lon="1.43466">
        <ele>1130</ele>
        <time>2013-07-07T15:50:27Z</time>
      </trkpt>
      <trkpt lat="42.7136" lon="1.43458">
        <ele>1130</ele>
        <time>2013-07-07T15:50:34Z</time>
      </trkpt>
      <trkpt lat="42.7136" lon="1.43446">
        <ele>1130</ele>
        <time>2013-07-07T15:50:43Z</time>
      </trkpt>
      <trkpt lat="42.71358" lon="1.43439">
        <ele>1130</ele>
        <time>2013-07-07T15:50:49Z</time>
      </trkpt>
      <trkpt lat="42.7135" lon="1.43424">
        <ele>1131</ele>
        <time>2013-07-07T15:50:58Z</time>
      </trkpt>
      <trkpt lat="42.71349" lon="1.43422">
        <ele>1132</ele>
        <time>2013-07-07T15:50:59Z</time>
      </trkpt>
      <trkpt lat="42.71344" lon="1.43408">
        <ele>1132</ele>
        <time>2013-07-07T15:51:09Z</time>
      </trkpt>
      <trkpt lat="42.71339" lon="1.43396">
        <ele>1133</ele>
        <time>2013-07-07T15:51:19Z</time>
      </trkpt>
      <trkpt lat="42.71336" lon="1.43384">
        <ele>1134</ele>
        <time>2013-07-07T15:51:29Z</time>
      </trkpt>
      <trkpt lat="42.71331" lon="1.43367">
        <ele>1135</ele>
        <time>2013-07-07T15:51:42Z</time>
      </trkpt>
      <trkpt lat="42.71327" lon="1.43351">
        <ele>1136</ele>
        <time>2013-07-07T15:51:51Z</time>
      </trkpt>
      <trkpt lat="42.71324" lon="1.43339">
        <ele>1137</ele>
        <time>2013-07-07T15:51:58Z</time>
      </trkpt>
      <trkpt lat="42.71321" lon="1.43322">
        <ele>1137</ele>
        <time>2013-07-07T15:52:09Z</time>
      </trkpt>
      <trkpt lat="42.71318" lon="1.43307">
        <ele>1137</ele>
        <time>2013-07-07T15:52:19Z</time>
      </trkpt>
      <trkpt lat="42.71316" lon="1.43296">
        <ele>1138</ele>
        <time>2013-07-07T15:52:27Z</time>
      </trkpt>
      <trkpt lat="42.71315" lon="1.4328">
        <ele>1138</ele>
        <time>2013-07-07T15:52:38Z</time>
      </trkpt>
      <trkpt lat="42.71312" lon="1.43267">
        <ele>1139</ele>
        <time>2013-07-07T15:52:48Z</time>
      </trkpt>
      <trkpt lat="42.71307" lon="1.43254">
        <ele>1139</ele>
        <time>2013-07-07T15:52:59Z</time>
      </trkpt>
      <trkpt lat="42.71301" lon="1.43238">
        <ele>1140</ele>
        <time>2013-07-07T15:53:10Z</time>
      </trkpt>
      <trkpt lat="42.71295" lon="1.43222">
        <ele>1140</ele>
        <time>2013-07-07T15:53:22Z</time>
      </trkpt>
      <trkpt lat="42.71289" lon="1.43216">
        <ele>1141</ele>
        <time>2013-07-07T15:53:27Z</time>
      </trkpt>
      <trkpt lat="42.71278" lon="1.43202">
        <ele>1142</ele>
        <time>2013-07-07T15:53:39Z</time>
      </trkpt>
      <trkpt lat="42.71271" lon="1.4319">
        <ele>1142</ele>
        <time>2013-07-07T15:53:48Z</time>
      </trkpt>
      <trkpt lat="42.71268" lon="1.43184">
        <ele>1142</ele>
        <time>2013-07-07T15:53:52Z</time>
      </trkpt>
      <trkpt lat="42.71262" lon="1.43169">
        <ele>1144</ele>
        <time>2013-07-07T15:54:04Z</time>
      </trkpt>
      <trkpt lat="42.71251" lon="1.43142">
        <ele>1145</ele>
        <time>2013-07-07T15:54:16Z</time>
      </trkpt>
      <trkpt lat="42.71248" lon="1.43123">
        <ele>1145</ele>
        <time>2013-07-07T15:54:27Z</time>
      </trkpt>
      <trkpt lat="42.71241" lon="1.43112">
        <ele>1146</ele>
        <time>2013-07-07T15:54:37Z</time>
      </trkpt>
      <trkpt lat="42.71233" lon="1.43103">
        <ele>1146</ele>
        <time>2013-07-07T15:54:47Z</time>
      </trkpt>
      <trkpt lat="42.71227" lon="1.43092">
        <ele>1147</ele>
        <time>2013-07-07T15:54:57Z</time>
      </trkpt>
      <trkpt lat="42.71218" lon="1.43082">
        <ele>1148</ele>
        <time>2013-07-07T15:55:08Z</time>
      </trkpt>
      <trkpt lat="42.71212" lon="1.43075">
        <ele>1149</ele>
        <time>2013-07-07T15:55:15Z</time>
      </trkpt>
      <trkpt lat="42.71201" lon="1.43065">
        <ele>1149</ele>
        <time>2013-07-07T15:55:26Z</time>
      </trkpt>
      <trkpt lat="42.71194" lon="1.43056">
        <ele>1150</ele>
        <time>2013-07-07T15:55:36Z</time>
      </trkpt>
      <trkpt lat="42.7118" lon="1.4305">
        <ele>1151</ele>
        <time>2013-07-07T15:55:46Z</time>
      </trkpt>
      <trkpt lat="42.71171" lon="1.43042">
        <ele>1152</ele>
        <time>2013-07-07T15:55:56Z</time>
      </trkpt>
      <trkpt lat="42.71162" lon="1.43027">
        <ele>1154</ele>
        <time>2013-07-07T15:56:09Z</time>
      </trkpt>
      <trkpt lat="42.71161" lon="1.43026">
        <ele>1154</ele>
        <time>2013-07-07T15:56:10Z</time>
      </trkpt>
      <trkpt lat="42.71153" lon="1.4301">
        <ele>1155</ele>
        <time>2013-07-07T15:56:22Z</time>
      </trkpt>
      <trkpt lat="42.71147" lon="1.4301">
        <ele>1155</ele>
        <time>2013-07-07T15:56:30Z</time>
      </trkpt>
      <trkpt lat="42.71142" lon="1.43005">
        <ele>1155</ele>
        <time>2013-07-07T15:56:41Z</time>
      </trkpt>
      <trkpt lat="42.7114" lon="1.42992">
        <ele>1155</ele>
        <time>2013-07-07T15:56:49Z</time>
      </trkpt>
      <trkpt lat="42.71136" lon="1.42978">
        <ele>1158</ele>
        <time>2013-07-07T15:56:58Z</time>
      </trkpt>
      <trkpt lat="42.71132" lon="1.42965">
        <ele>1157</ele>
        <time>2013-07-07T15:57:06Z</time>
      </trkpt>
      <trkpt lat="42.7113" lon="1.42953">
        <ele>1158</ele>
        <time>2013-07-07T15:57:15Z</time>
      </trkpt>
      <trkpt lat="42.71129" lon="1.42948">
        <ele>1158</ele>
        <time>2013-07-07T15:57:19Z</time>
      </trkpt>
      <trkpt lat="42.71125" lon="1.4293">
        <ele>1159</ele>
        <time>2013-07-07T15:57:30Z</time>
      </trkpt>
      <trkpt lat="42.71121" lon="1.42915">
        <ele>1159</ele>
        <time>2013-07-07T15:57:39Z</time>
      </trkpt>
      <trkpt lat="42.7112" lon="1.4291">
        <ele>1160</ele>
        <time>2013-07-07T15:57:42Z</time>
      </trkpt>
      <trkpt lat="42.71116" lon="1.42895">
        <ele>1160</ele>
        <time>2013-07-07T15:57:52Z</time>
      </trkpt>
      <trkpt lat="42.7111" lon="1.42878">
        <ele>1161</ele>
        <time>2013-07-07T15:58:02Z</time>
      </trkpt>
      <trkpt lat="42.71103" lon="1.4286">
        <ele>1162</ele>
        <time>2013-07-07T15:58:14Z</time>
      </trkpt>
      <trkpt lat="42.71097" lon="1.42844">
        <ele>1164</ele>
        <time>2013-07-07T15:58:25Z</time>
      </trkpt>
      <trkpt lat="42.71094" lon="1.42833">
        <ele>1164</ele>
        <time>2013-07-07T15:58:32Z</time>
      </trkpt>
      <trkpt lat="42.71089" lon="1.42818">
        <ele>1165</ele>
        <time>2013-07-07T15:58:42Z</time>
      </trkpt>
      <trkpt lat="42.71086" lon="1.42808">
        <ele>1167</ele>
        <time>2013-07-07T15:58:49Z</time>
      </trkpt>
      <trkpt lat="42.71081" lon="1.42791">
        <ele>1168</ele>
        <time>2013-07-07T15:58:59Z</time>
      </trkpt>
      <trkpt lat="42.71075" lon="1.42781">
        <ele>1169</ele>
        <time>2013-07-07T15:59:07Z</time>
      </trkpt>
      <trkpt lat="42.71075" lon="1.42779">
        <ele>1169</ele>
        <time>2013-07-07T15:59:09Z</time>
      </trkpt>
      <trkpt lat="42.71073" lon="1.4276">
        <ele>1170</ele>
        <time>2013-07-07T15:59:20Z</time>
      </trkpt>
      <trkpt lat="42.71072" lon="1.42742">
        <ele>1171</ele>
        <time>2013-07-07T15:59:31Z</time>
      </trkpt>
      <trkpt lat="42.7107" lon="1.42731">
        <ele>1172</ele>
        <time>2013-07-07T15:59:39Z</time>
      </trkpt>
      <trkpt lat="42.71068" lon="1.42717">
        <ele>1172</ele>
        <time>2013-07-07T15:59:48Z</time>
      </trkpt>
      <trkpt lat="42.71068" lon="1.42705">
        <ele>1173</ele>
        <time>2013-07-07T15:59:57Z</time>
      </trkpt>
      <trkpt lat="42.71068" lon="1.4269">
        <ele>1174</ele>
        <time>2013-07-07T16:00:06Z</time>
      </trkpt>
      <trkpt lat="42.71065" lon="1.42679">
        <ele>1175</ele>
        <time>2013-07-07T16:00:14Z</time>
      </trkpt>
      <trkpt lat="42.71064" lon="1.42669">
        <ele>1175</ele>
        <time>2013-07-07T16:00:22Z</time>
      </trkpt>
      <trkpt lat="42.71061" lon="1.42657">
        <ele>1176</ele>
        <time>2013-07-07T16:00:30Z</time>
      </trkpt>
      <trkpt lat="42.71056" lon="1.42646">
        <ele>1177</ele>
        <time>2013-07-07T16:00:39Z</time>
      </trkpt>
      <trkpt lat="42.71052" lon="1.42636">
        <ele>1177</ele>
        <time>2013-07-07T16:00:49Z</time>
      </trkpt>
      <trkpt lat="42.71053" lon="1.42622">
        <ele>1177</ele>
        <time>2013-07-07T16:00:57Z</time>
      </trkpt>
      <trkpt lat="42.71047" lon="1.4261">
        <ele>1177</ele>
        <time>2013-07-07T16:01:06Z</time>
      </trkpt>
      <trkpt lat="42.71039" lon="1.42601">
        <ele>1175</ele>
        <time>2013-07-07T16:01:16Z</time>
      </trkpt>
      <trkpt lat="42.71033" lon="1.42587">
        <ele>1174</ele>
        <time>2013-07-07T16:01:25Z</time>
      </trkpt>
      <trkpt lat="42.71027" lon="1.42579">
        <ele>1173</ele>
        <time>2013-07-07T16:01:33Z</time>
      </trkpt>
      <trkpt lat="42.71021" lon="1.42573">
        <ele>1171</ele>
        <time>2013-07-07T16:01:41Z</time>
      </trkpt>
      <trkpt lat="42.71013" lon="1.42571">
        <ele>1171</ele>
        <time>2013-07-07T16:01:48Z</time>
      </trkpt>
      <trkpt lat="42.71006" lon="1.42574">
        <ele>1169</ele>
        <time>2013-07-07T16:01:57Z</time>
      </trkpt>
      <trkpt lat="42.71" lon="1.42575">
        <ele>1169</ele>
        <time>2013-07-07T16:02:08Z</time>
      </trkpt>
      <trkpt lat="42.70998" lon="1.42574">
        <ele>1169</ele>
        <time>2013-07-07T16:02:21Z</time>
      </trkpt>
      <trkpt lat="42.70994" lon="1.42576">
        <ele>1168</ele>
        <time>2013-07-07T16:02:34Z</time>
      </trkpt>
      <trkpt lat="42.70993" lon="1.42577">
        <ele>1170</ele>
        <time>2013-07-07T16:02:35Z</time>
      </trkpt>
    </trkseg>
  </trk>
</gpx>